<?xml version='1.0' encoding='UTF-8'?><gpx version="1.1" creator="JPX - https://github.com/jenetics/jpx" xmlns="http://www.topografix.com/GPX/1/1"><trk><trkseg><trkpt lat="39.98094815731329" lon="9.683128951311774"><ele>5.0</ele><time>2026-05-03T06:36:26.998Z</time></trkpt><trkpt lat="39.981002880202965" lon="9.683171936894619"><ele>5.0</ele><time>2026-05-03T06:36:28.998Z</time></trkpt><trkpt lat="39.98107748633918" lon="9.68320798968879"><ele>5.0</ele><time>2026-05-03T06:36:31.998Z</time></trkpt><trkpt lat="39.98113697736527" lon="9.683122903970641"><ele>5.0</ele><time>2026-05-03T06:36:35.999Z</time></trkpt><trkpt lat="39.98116202969308" lon="9.683017266975709"><ele>5.0</ele><time>2026-05-03T06:36:37.999Z</time></trkpt><trkpt lat="39.981165367313906" lon="9.682908662378006"><ele>5.0</ele><time>2026-05-03T06:36:39.999Z</time></trkpt><trkpt lat="39.981210744013346" lon="9.68279888972647"><ele>5.2</ele><time>2026-05-03T06:36:41.999Z</time></trkpt><trkpt lat="39.98128768117029" lon="9.682683875688037"><ele>5.4</ele><time>2026-05-03T06:36:43.999Z</time></trkpt><trkpt lat="39.98138287197722" lon="9.682568684504385"><ele>5.6</ele><time>2026-05-03T06:36:45.999Z</time></trkpt><trkpt lat="39.981437554183046" lon="9.682504039790814"><ele>5.8</ele><time>2026-05-03T06:36:46.999Z</time></trkpt><trkpt lat="39.98149184554389" lon="9.682434954392242"><ele>6.0</ele><time>2026-05-03T06:36:47.999Z</time></trkpt><trkpt lat="39.98154403998947" lon="9.682372992931954"><ele>6.0</ele><time>2026-05-03T06:36:48.999Z</time></trkpt><trkpt lat="39.98159198596117" lon="9.682316500665983"><ele>6.0</ele><time>2026-05-03T06:36:49.999Z</time></trkpt><trkpt lat="39.98164252698311" lon="9.682265663871599"><ele>6.0</ele><time>2026-05-03T06:36:50.999Z</time></trkpt><trkpt lat="39.98172598175622" lon="9.682158795388991"><ele>6.0</ele><time>2026-05-03T06:36:52.999Z</time></trkpt><trkpt lat="39.981775496985826" lon="9.68210253604592"><ele>6.0</ele><time>2026-05-03T06:36:53.999Z</time></trkpt><trkpt lat="39.98184072895972" lon="9.682027115954462"><ele>6.0</ele><time>2026-05-03T06:36:55.999Z</time></trkpt><trkpt lat="39.98190899817321" lon="9.681948736879274"><ele>6.0</ele><time>2026-05-03T06:36:59.999Z</time></trkpt><trkpt lat="39.981848462080286" lon="9.681787970723281"><ele>6.0</ele><time>2026-05-03T06:37:00.999Z</time></trkpt><trkpt lat="39.981813729192965" lon="9.681704311280539"><ele>6.0</ele><time>2026-05-03T06:37:01.999Z</time></trkpt><trkpt lat="39.98177149943513" lon="9.681604007749078"><ele>6.0</ele><time>2026-05-03T06:37:02.999Z</time></trkpt><trkpt lat="39.98172025678023" lon="9.681492633535855"><ele>6.0</ele><time>2026-05-03T06:37:03.999Z</time></trkpt><trkpt lat="39.98166790303947" lon="9.681381346143322"><ele>6.0</ele><time>2026-05-03T06:37:04.999Z</time></trkpt><trkpt lat="39.98161432905587" lon="9.681272147713358"><ele>6.0</ele><time>2026-05-03T06:37:05.999Z</time></trkpt><trkpt lat="39.981559665197814" lon="9.681152320006612"><ele>6.0</ele><time>2026-05-03T06:37:06.999Z</time></trkpt><trkpt lat="39.98150506554555" lon="9.68102633619745"><ele>6.0</ele><time>2026-05-03T06:37:07.999Z</time></trkpt><trkpt lat="39.981446220764596" lon="9.680895966024396"><ele>6.0</ele><time>2026-05-03T06:37:08.999Z</time></trkpt><trkpt lat="39.9813870645355" lon="9.680760428189185"><ele>5.8</ele><time>2026-05-03T06:37:09.999Z</time></trkpt><trkpt lat="39.98134175850443" lon="9.680634692592497"><ele>5.6</ele><time>2026-05-03T06:37:10.999Z</time></trkpt><trkpt lat="39.981307162635424" lon="9.680512343368695"><ele>5.4</ele><time>2026-05-03T06:37:11.999Z</time></trkpt><trkpt lat="39.98127801083937" lon="9.680375987619602"><ele>5.2</ele><time>2026-05-03T06:37:12.999Z</time></trkpt><trkpt lat="39.98125985294996" lon="9.680225986741096"><ele>5.0</ele><time>2026-05-03T06:37:13.999Z</time></trkpt><trkpt lat="39.98126083997908" lon="9.680068859542539"><ele>6.5</ele><time>2026-05-03T06:37:14.999Z</time></trkpt><trkpt lat="39.981265646718676" lon="9.679916267778347"><ele>8.0</ele><time>2026-05-03T06:37:15.999Z</time></trkpt><trkpt lat="39.98128040377466" lon="9.67975861266789"><ele>9.5</ele><time>2026-05-03T06:37:16.999Z</time></trkpt><trkpt lat="39.98131068907161" lon="9.679599929241066"><ele>11.0</ele><time>2026-05-03T06:37:17.999Z</time></trkpt><trkpt lat="39.98137304537117" lon="9.67946097805891"><ele>10.75</ele><time>2026-05-03T06:37:18.999Z</time></trkpt><trkpt lat="39.981408759279304" lon="9.67930417156437"><ele>10.5</ele><time>2026-05-03T06:37:19.999Z</time></trkpt><trkpt lat="39.981465611295086" lon="9.679142337890772"><ele>10.25</ele><time>2026-05-03T06:37:20.999Z</time></trkpt><trkpt lat="39.98152066161605" lon="9.678975975907724"><ele>10.0</ele><time>2026-05-03T06:37:21.999Z</time></trkpt><trkpt lat="39.98156276880855" lon="9.678824043183946"><ele>10.0</ele><time>2026-05-03T06:37:22.999Z</time></trkpt><trkpt lat="39.981591202934915" lon="9.678655035368536"><ele>10.0</ele><time>2026-05-03T06:37:23.999Z</time></trkpt><trkpt lat="39.98159875044426" lon="9.678478017088942"><ele>10.0</ele><time>2026-05-03T06:37:24.999Z</time></trkpt><trkpt lat="39.981578274474" lon="9.67829711829817"><ele>10.0</ele><time>2026-05-03T06:37:25.999Z</time></trkpt><trkpt lat="39.981540024179104" lon="9.678119810312838"><ele>10.0</ele><time>2026-05-03T06:37:26.999Z</time></trkpt><trkpt lat="39.981494270887914" lon="9.677950097621196"><ele>10.0</ele><time>2026-05-03T06:37:27.999Z</time></trkpt><trkpt lat="39.98145072366607" lon="9.677781167557159"><ele>10.0</ele><time>2026-05-03T06:37:28.999Z</time></trkpt><trkpt lat="39.98140253792515" lon="9.677606568270523"><ele>10.0</ele><time>2026-05-03T06:37:29.999Z</time></trkpt><trkpt lat="39.981361003753634" lon="9.677428487566376"><ele>10.0</ele><time>2026-05-03T06:37:30.999Z</time></trkpt><trkpt lat="39.98131173567054" lon="9.677249799430374"><ele>10.0</ele><time>2026-05-03T06:37:31.999Z</time></trkpt><trkpt lat="39.98126753881046" lon="9.677071553281667"><ele>10.0</ele><time>2026-05-03T06:37:32.999Z</time></trkpt><trkpt lat="39.981232619612385" lon="9.676895427936847"><ele>10.0</ele><time>2026-05-03T06:37:33.999Z</time></trkpt><trkpt lat="39.981189909941676" lon="9.676725831373906"><ele>9.333333333333334</ele><time>2026-05-03T06:37:34.999Z</time></trkpt><trkpt lat="39.98110504470112" lon="9.67655429140239"><ele>8.666666666666666</ele><time>2026-05-03T06:37:35.999Z</time></trkpt><trkpt lat="39.98101505463245" lon="9.676391301883614"><ele>8.0</ele><time>2026-05-03T06:37:36.999Z</time></trkpt><trkpt lat="39.98093610272922" lon="9.67624051427957"><ele>7.333333333333333</ele><time>2026-05-03T06:37:37.999Z</time></trkpt><trkpt lat="39.98084476381452" lon="9.67610048520776"><ele>6.666666666666666</ele><time>2026-05-03T06:37:38.999Z</time></trkpt><trkpt lat="39.980736197424726" lon="9.6759574807976"><ele>6.0</ele><time>2026-05-03T06:37:39.999Z</time></trkpt><trkpt lat="39.980610513449065" lon="9.675810334940088"><ele>6.0</ele><time>2026-05-03T06:37:40.999Z</time></trkpt><trkpt lat="39.98049123772168" lon="9.675671241247827"><ele>6.0</ele><time>2026-05-03T06:37:41.999Z</time></trkpt><trkpt lat="39.980378278263075" lon="9.675560424934723"><ele>6.0</ele><time>2026-05-03T06:37:42.999Z</time></trkpt><trkpt lat="39.980268575727614" lon="9.675439981870783"><ele>6.0</ele><time>2026-05-03T06:37:43.999Z</time></trkpt><trkpt lat="39.98015510246851" lon="9.675308572937116"><ele>6.0</ele><time>2026-05-03T06:37:44.999Z</time></trkpt><trkpt lat="39.980038583562376" lon="9.675171660556767"><ele>6.0</ele><time>2026-05-03T06:37:45.999Z</time></trkpt><trkpt lat="39.97991960142371" lon="9.675035878986245"><ele>6.0</ele><time>2026-05-03T06:37:46.999Z</time></trkpt><trkpt lat="39.97979975229285" lon="9.67489670267055"><ele>5.333333333333333</ele><time>2026-05-03T06:37:47.999Z</time></trkpt><trkpt lat="39.97967687256889" lon="9.674757198030472"><ele>4.666666666666666</ele><time>2026-05-03T06:37:48.999Z</time></trkpt><trkpt lat="39.97955352600165" lon="9.674614051285445"><ele>4.0</ele><time>2026-05-03T06:37:49.999Z</time></trkpt><trkpt lat="39.97943041900539" lon="9.674472306591769"><ele>3.333333333333333</ele><time>2026-05-03T06:37:50.999Z</time></trkpt><trkpt lat="39.97930127367063" lon="9.674326423951232"><ele>2.6666666666666665</ele><time>2026-05-03T06:37:51.999Z</time></trkpt><trkpt lat="39.97917320750222" lon="9.674186631962586"><ele>2.0</ele><time>2026-05-03T06:37:52.999Z</time></trkpt><trkpt lat="39.979039762411325" lon="9.674065218735942"><ele>2.0</ele><time>2026-05-03T06:37:53.999Z</time></trkpt><trkpt lat="39.97890045583533" lon="9.67393946803408"><ele>2.0</ele><time>2026-05-03T06:37:54.999Z</time></trkpt><trkpt lat="39.97873651274655" lon="9.673872522059591"><ele>2.0</ele><time>2026-05-03T06:37:55.999Z</time></trkpt><trkpt lat="39.97858620067135" lon="9.6737980505294"><ele>2.0</ele><time>2026-05-03T06:37:56.999Z</time></trkpt><trkpt lat="39.97844249303073" lon="9.673723004709172"><ele>2.0</ele><time>2026-05-03T06:37:57.999Z</time></trkpt><trkpt lat="39.978311509039" lon="9.673628433247796"><ele>2.0</ele><time>2026-05-03T06:37:58.999Z</time></trkpt><trkpt lat="39.97819549786111" lon="9.673504172691347"><ele>2.75</ele><time>2026-05-03T06:37:59.999Z</time></trkpt><trkpt lat="39.97810592689371" lon="9.673355065939985"><ele>3.5</ele><time>2026-05-03T06:38:00.999Z</time></trkpt><trkpt lat="39.9780447866821" lon="9.67319382064589"><ele>4.25</ele><time>2026-05-03T06:38:01.999Z</time></trkpt><trkpt lat="39.978004859936384" lon="9.67301938380109"><ele>5.0</ele><time>2026-05-03T06:38:02.999Z</time></trkpt><trkpt lat="39.97798752713155" lon="9.672831233435776"><ele>5.25</ele><time>2026-05-03T06:38:03.999Z</time></trkpt><trkpt lat="39.97799631224127" lon="9.672647752660781"><ele>5.5</ele><time>2026-05-03T06:38:04.999Z</time></trkpt><trkpt lat="39.978014994854924" lon="9.672463951575914"><ele>5.75</ele><time>2026-05-03T06:38:05.999Z</time></trkpt><trkpt lat="39.978044853460496" lon="9.672284302003348"><ele>6.0</ele><time>2026-05-03T06:38:06.999Z</time></trkpt><trkpt lat="39.97808615136468" lon="9.67211142118613"><ele>6.5</ele><time>2026-05-03T06:38:07.999Z</time></trkpt><trkpt lat="39.97813501694114" lon="9.671933570927608"><ele>7.0</ele><time>2026-05-03T06:38:08.999Z</time></trkpt><trkpt lat="39.97819895086034" lon="9.671763324564006"><ele>7.5</ele><time>2026-05-03T06:38:09.999Z</time></trkpt><trkpt lat="39.97826445227847" lon="9.67159843617509"><ele>8.0</ele><time>2026-05-03T06:38:10.999Z</time></trkpt><trkpt lat="39.97833055828297" lon="9.671427354019396"><ele>7.75</ele><time>2026-05-03T06:38:11.999Z</time></trkpt><trkpt lat="39.978392655654645" lon="9.671255260556544"><ele>7.5</ele><time>2026-05-03T06:38:12.999Z</time></trkpt><trkpt lat="39.978458604508305" lon="9.671084461587355"><ele>7.25</ele><time>2026-05-03T06:38:13.999Z</time></trkpt><trkpt lat="39.978524305509666" lon="9.670906512175577"><ele>7.0</ele><time>2026-05-03T06:38:14.998Z</time></trkpt><trkpt lat="39.97858847065991" lon="9.670729866789925"><ele>7.0</ele><time>2026-05-03T06:38:15.998Z</time></trkpt><trkpt lat="39.97865294517293" lon="9.67055255083916"><ele>7.0</ele><time>2026-05-03T06:38:16.998Z</time></trkpt><trkpt lat="39.97872133818242" lon="9.670373135159945"><ele>7.0</ele><time>2026-05-03T06:38:17.998Z</time></trkpt><trkpt lat="39.978789843054784" lon="9.6701926148854"><ele>8.333333333333334</ele><time>2026-05-03T06:38:18.998Z</time></trkpt><trkpt lat="39.97886364696226" lon="9.670015691227036"><ele>9.666666666666666</ele><time>2026-05-03T06:38:19.998Z</time></trkpt><trkpt lat="39.978926425652986" lon="9.669830697936305"><ele>11.0</ele><time>2026-05-03T06:38:20.998Z</time></trkpt><trkpt lat="39.9789926048203" lon="9.669656920454848"><ele>11.0</ele><time>2026-05-03T06:38:21.998Z</time></trkpt><trkpt lat="39.979057835232176" lon="9.669486431616086"><ele>11.0</ele><time>2026-05-03T06:38:22.998Z</time></trkpt><trkpt lat="39.979118979967744" lon="9.669308858462479"><ele>11.0</ele><time>2026-05-03T06:38:23.998Z</time></trkpt><trkpt lat="39.979166362572904" lon="9.669134625808107"><ele>11.0</ele><time>2026-05-03T06:38:24.998Z</time></trkpt><trkpt lat="39.979202006675365" lon="9.668957847125936"><ele>11.75</ele><time>2026-05-03T06:38:25.998Z</time></trkpt><trkpt lat="39.97921454795635" lon="9.668777083502473"><ele>12.5</ele><time>2026-05-03T06:38:26.998Z</time></trkpt><trkpt lat="39.97920139003702" lon="9.668600975567184"><ele>13.25</ele><time>2026-05-03T06:38:27.998Z</time></trkpt><trkpt lat="39.97916266504119" lon="9.668434051413032"><ele>14.0</ele><time>2026-05-03T06:38:28.998Z</time></trkpt><trkpt lat="39.97910257384861" lon="9.668272545050867"><ele>14.0</ele><time>2026-05-03T06:38:29.998Z</time></trkpt><trkpt lat="39.979031228489475" lon="9.668120118780049"><ele>14.0</ele><time>2026-05-03T06:38:30.998Z</time></trkpt><trkpt lat="39.978956873653594" lon="9.667964691091647"><ele>14.0</ele><time>2026-05-03T06:38:31.998Z</time></trkpt><trkpt lat="39.97887981387811" lon="9.66781805167369"><ele>14.0</ele><time>2026-05-03T06:38:32.998Z</time></trkpt><trkpt lat="39.97880040703543" lon="9.66766672108105"><ele>13.5</ele><time>2026-05-03T06:38:33.999Z</time></trkpt><trkpt lat="39.978719464189965" lon="9.667516438255262"><ele>13.0</ele><time>2026-05-03T06:38:34.999Z</time></trkpt><trkpt lat="39.978640145615174" lon="9.667365048673972"><ele>12.5</ele><time>2026-05-03T06:38:35.999Z</time></trkpt><trkpt lat="39.97855934423214" lon="9.667214275840143"><ele>12.0</ele><time>2026-05-03T06:38:36.999Z</time></trkpt><trkpt lat="39.978483265490524" lon="9.667060666951539"><ele>12.25</ele><time>2026-05-03T06:38:37.999Z</time></trkpt><trkpt lat="39.978405970119724" lon="9.666896203780084"><ele>12.5</ele><time>2026-05-03T06:38:38.999Z</time></trkpt><trkpt lat="39.97832164788451" lon="9.666744593901079"><ele>12.75</ele><time>2026-05-03T06:38:39.999Z</time></trkpt><trkpt lat="39.97823963229" lon="9.666592677844022"><ele>13.0</ele><time>2026-05-03T06:38:40.999Z</time></trkpt><trkpt lat="39.978153375256454" lon="9.666438906915387"><ele>13.0</ele><time>2026-05-03T06:38:41.999Z</time></trkpt><trkpt lat="39.97805901029943" lon="9.666303105767689"><ele>13.0</ele><time>2026-05-03T06:38:42.999Z</time></trkpt><trkpt lat="39.97794178683637" lon="9.666183173062196"><ele>13.0</ele><time>2026-05-03T06:38:43.999Z</time></trkpt><trkpt lat="39.97781672194563" lon="9.666092501555399"><ele>13.0</ele><time>2026-05-03T06:38:44.999Z</time></trkpt><trkpt lat="39.977678447572465" lon="9.666034510268414"><ele>12.75</ele><time>2026-05-03T06:38:45.999Z</time></trkpt><trkpt lat="39.97753290498035" lon="9.666014702665072"><ele>12.5</ele><time>2026-05-03T06:38:46.999Z</time></trkpt><trkpt lat="39.97738436395108" lon="9.66600939123781"><ele>12.25</ele><time>2026-05-03T06:38:47.999Z</time></trkpt><trkpt lat="39.97724008534186" lon="9.665983846109555"><ele>12.0</ele><time>2026-05-03T06:38:48.999Z</time></trkpt><trkpt lat="39.97709374207486" lon="9.665978559580289"><ele>12.0</ele><time>2026-05-03T06:38:49.999Z</time></trkpt><trkpt lat="39.97694827843324" lon="9.665971528980126"><ele>12.0</ele><time>2026-05-03T06:38:50.999Z</time></trkpt><trkpt lat="39.97680010039124" lon="9.665964367224776"><ele>12.0</ele><time>2026-05-03T06:38:51.999Z</time></trkpt><trkpt lat="39.976652052137034" lon="9.665957213183336"><ele>12.0</ele><time>2026-05-03T06:38:52.999Z</time></trkpt><trkpt lat="39.97651156166515" lon="9.665948996775999"><ele>11.75</ele><time>2026-05-03T06:38:53.999Z</time></trkpt><trkpt lat="39.97638172145777" lon="9.665930820204387"><ele>11.5</ele><time>2026-05-03T06:38:54.999Z</time></trkpt><trkpt lat="39.976259334857446" lon="9.665897566125512"><ele>11.25</ele><time>2026-05-03T06:38:55.999Z</time></trkpt><trkpt lat="39.97617383724248" lon="9.66579145952388"><ele>11.0</ele><time>2026-05-03T06:38:56.999Z</time></trkpt><trkpt lat="39.97609263086087" lon="9.665688406512963"><ele>11.0</ele><time>2026-05-03T06:38:57.999Z</time></trkpt><trkpt lat="39.976051158801084" lon="9.665543804566031"><ele>11.0</ele><time>2026-05-03T06:38:58.999Z</time></trkpt><trkpt lat="39.97603574120001" lon="9.665397597741615"><ele>11.0</ele><time>2026-05-03T06:38:59.999Z</time></trkpt><trkpt lat="39.976052517679406" lon="9.665271750707136"><ele>11.0</ele><time>2026-05-03T06:39:00.999Z</time></trkpt><trkpt lat="39.976090676332184" lon="9.66516987531059"><ele>11.0</ele><time>2026-05-03T06:39:01.999Z</time></trkpt><trkpt lat="39.97613010638202" lon="9.665064805494346"><ele>10.666666666666666</ele><time>2026-05-03T06:39:03.999Z</time></trkpt><trkpt lat="39.976123649864874" lon="9.664973773721137"><ele>10.333333333333332</ele><time>2026-05-03T06:39:06.999Z</time></trkpt><trkpt lat="39.97604756197523" lon="9.664906222954532"><ele>10.0</ele><time>2026-05-03T06:39:07.999Z</time></trkpt><trkpt lat="39.975982863298114" lon="9.664865292106345"><ele>9.666666666666666</ele><time>2026-05-03T06:39:08.999Z</time></trkpt><trkpt lat="39.97590312185282" lon="9.664813390352576"><ele>9.333333333333334</ele><time>2026-05-03T06:39:09.999Z</time></trkpt><trkpt lat="39.975827821992894" lon="9.66472996780733"><ele>9.0</ele><time>2026-05-03T06:39:10.999Z</time></trkpt><trkpt lat="39.97574556326733" lon="9.664659089949772"><ele>9.0</ele><time>2026-05-03T06:39:11.999Z</time></trkpt><trkpt lat="39.97565598350348" lon="9.66457907827299"><ele>9.0</ele><time>2026-05-03T06:39:12.999Z</time></trkpt><trkpt lat="39.97555728897395" lon="9.664490637573383"><ele>9.0</ele><time>2026-05-03T06:39:13.999Z</time></trkpt><trkpt lat="39.975454817142314" lon="9.664398111522656"><ele>9.0</ele><time>2026-05-03T06:39:14.999Z</time></trkpt><trkpt lat="39.97534289725214" lon="9.664322300699633"><ele>8.75</ele><time>2026-05-03T06:39:15.999Z</time></trkpt><trkpt lat="39.97524461608583" lon="9.664213351239459"><ele>8.5</ele><time>2026-05-03T06:39:16.999Z</time></trkpt><trkpt lat="39.97513486071855" lon="9.664117168358375"><ele>8.25</ele><time>2026-05-03T06:39:17.999Z</time></trkpt><trkpt lat="39.97501739211798" lon="9.664023090404077"><ele>8.0</ele><time>2026-05-03T06:39:18.999Z</time></trkpt><trkpt lat="39.974891658401184" lon="9.66392140187947"><ele>7.666666666666666</ele><time>2026-05-03T06:39:19.999Z</time></trkpt><trkpt lat="39.97476789586909" lon="9.663814768908464"><ele>7.333333333333334</ele><time>2026-05-03T06:39:20.999Z</time></trkpt><trkpt lat="39.974638643940736" lon="9.663723778088864"><ele>7.0</ele><time>2026-05-03T06:39:21.999Z</time></trkpt><trkpt lat="39.97449396258958" lon="9.66365357317388"><ele>7.0</ele><time>2026-05-03T06:39:22.999Z</time></trkpt><trkpt lat="39.97434526134679" lon="9.663594035127412"><ele>7.0</ele><time>2026-05-03T06:39:23.999Z</time></trkpt><trkpt lat="39.97419331871642" lon="9.663544160214824"><ele>7.0</ele><time>2026-05-03T06:39:24.999Z</time></trkpt><trkpt lat="39.97403457671817" lon="9.663505298251478"><ele>7.333333333333334</ele><time>2026-05-03T06:39:25.999Z</time></trkpt><trkpt lat="39.9738766596571" lon="9.663476521995834"><ele>7.666666666666666</ele><time>2026-05-03T06:39:26.999Z</time></trkpt><trkpt lat="39.97371474631449" lon="9.663463766802586"><ele>8.0</ele><time>2026-05-03T06:39:27.999Z</time></trkpt><trkpt lat="39.97356487821613" lon="9.66347256757691"><ele>8.0</ele><time>2026-05-03T06:39:28.999Z</time></trkpt><trkpt lat="39.97341283390075" lon="9.663488432368956"><ele>8.0</ele><time>2026-05-03T06:39:29.999Z</time></trkpt><trkpt lat="39.973263000351025" lon="9.663491385083095"><ele>8.0</ele><time>2026-05-03T06:39:30.999Z</time></trkpt><trkpt lat="39.97312600605855" lon="9.663560166473939"><ele>8.0</ele><time>2026-05-03T06:39:31.999Z</time></trkpt><trkpt lat="39.97298705439507" lon="9.66360921452899"><ele>7.75</ele><time>2026-05-03T06:39:32.999Z</time></trkpt><trkpt lat="39.97284917097732" lon="9.663659813291334"><ele>7.5</ele><time>2026-05-03T06:39:33.999Z</time></trkpt><trkpt lat="39.97271617832308" lon="9.663710400099985"><ele>7.25</ele><time>2026-05-03T06:39:34.999Z</time></trkpt><trkpt lat="39.97258716985813" lon="9.663760951102196"><ele>7.0</ele><time>2026-05-03T06:39:35.999Z</time></trkpt><trkpt lat="39.97245548073435" lon="9.66381399330319"><ele>6.75</ele><time>2026-05-03T06:39:36.999Z</time></trkpt><trkpt lat="39.972324930099084" lon="9.663867685485117"><ele>6.5</ele><time>2026-05-03T06:39:37.999Z</time></trkpt><trkpt lat="39.97219245779802" lon="9.663918822280671"><ele>6.25</ele><time>2026-05-03T06:39:38.999Z</time></trkpt><trkpt lat="39.97206340232088" lon="9.663965641713107"><ele>6.0</ele><time>2026-05-03T06:39:39.999Z</time></trkpt><trkpt lat="39.971933926464175" lon="9.664014025840565"><ele>6.0</ele><time>2026-05-03T06:39:40.999Z</time></trkpt><trkpt lat="39.97180460783089" lon="9.664053294149433"><ele>6.0</ele><time>2026-05-03T06:39:41.999Z</time></trkpt><trkpt lat="39.97167955665237" lon="9.664076811885911"><ele>6.0</ele><time>2026-05-03T06:39:43Z</time></trkpt><trkpt lat="39.97155719593752" lon="9.664078118048753"><ele>6.0</ele><time>2026-05-03T06:39:44Z</time></trkpt><trkpt lat="39.971440971284814" lon="9.66404150210222"><ele>7.75</ele><time>2026-05-03T06:39:45Z</time></trkpt><trkpt lat="39.97133670262021" lon="9.663976748266334"><ele>9.5</ele><time>2026-05-03T06:39:46Z</time></trkpt><trkpt lat="39.97123915992975" lon="9.663892786667134"><ele>11.25</ele><time>2026-05-03T06:39:47Z</time></trkpt><trkpt lat="39.971153485897425" lon="9.663801167729265"><ele>13.0</ele><time>2026-05-03T06:39:48Z</time></trkpt><trkpt lat="39.97107109806411" lon="9.663707868903703"><ele>13.25</ele><time>2026-05-03T06:39:49Z</time></trkpt><trkpt lat="39.970991191742925" lon="9.663607296482699"><ele>13.5</ele><time>2026-05-03T06:39:50Z</time></trkpt><trkpt lat="39.970908314573265" lon="9.663507873873927"><ele>13.75</ele><time>2026-05-03T06:39:51Z</time></trkpt><trkpt lat="39.97082236910403" lon="9.663406122705076"><ele>14.0</ele><time>2026-05-03T06:39:52Z</time></trkpt><trkpt lat="39.97073518290249" lon="9.663304984361229"><ele>14.75</ele><time>2026-05-03T06:39:53Z</time></trkpt><trkpt lat="39.970648902358654" lon="9.663198303826922"><ele>15.5</ele><time>2026-05-03T06:39:54Z</time></trkpt><trkpt lat="39.97055911655386" lon="9.663097431899788"><ele>16.25</ele><time>2026-05-03T06:39:55Z</time></trkpt><trkpt lat="39.97048193075111" lon="9.662991382062687"><ele>17.0</ele><time>2026-05-03T06:39:56Z</time></trkpt><trkpt lat="39.970420334204455" lon="9.662865895718381"><ele>17.0</ele><time>2026-05-03T06:39:57Z</time></trkpt><trkpt lat="39.970368941416965" lon="9.662743256558151"><ele>17.0</ele><time>2026-05-03T06:39:58Z</time></trkpt><trkpt lat="39.970329364121284" lon="9.662607990714859"><ele>17.0</ele><time>2026-05-03T06:39:59Z</time></trkpt><trkpt lat="39.970299209656" lon="9.662467071368486"><ele>17.0</ele><time>2026-05-03T06:40:00Z</time></trkpt><trkpt lat="39.97028746882043" lon="9.662316100795696"><ele>17.0</ele><time>2026-05-03T06:40:01Z</time></trkpt><trkpt lat="39.970279179550445" lon="9.662179076838843"><ele>17.0</ele><time>2026-05-03T06:40:02Z</time></trkpt><trkpt lat="39.97027331437882" lon="9.662046432894321"><ele>17.0</ele><time>2026-05-03T06:40:03Z</time></trkpt><trkpt lat="39.97026451548975" lon="9.661920234586614"><ele>17.0</ele><time>2026-05-03T06:40:04Z</time></trkpt><trkpt lat="39.97024494199482" lon="9.661803739919208"><ele>17.0</ele><time>2026-05-03T06:40:05Z</time></trkpt><trkpt lat="39.9702263238469" lon="9.661696935810625"><ele>17.0</ele><time>2026-05-03T06:40:06Z</time></trkpt><trkpt lat="39.97018684352592" lon="9.661605565090854"><ele>17.166666666666668</ele><time>2026-05-03T06:40:07Z</time></trkpt><trkpt lat="39.970118232525785" lon="9.66152807419621"><ele>17.333333333333336</ele><time>2026-05-03T06:40:08Z</time></trkpt><trkpt lat="39.97004748465368" lon="9.661479091338517"><ele>17.5</ele><time>2026-05-03T06:40:09Z</time></trkpt><trkpt lat="39.969977983497884" lon="9.661428474914075"><ele>17.666666666666668</ele><time>2026-05-03T06:40:10Z</time></trkpt><trkpt lat="39.96990509366954" lon="9.661375390495476"><ele>17.833333333333332</ele><time>2026-05-03T06:40:11Z</time></trkpt><trkpt lat="39.96982748447759" lon="9.661319745357295"><ele>18.0</ele><time>2026-05-03T06:40:12Z</time></trkpt><trkpt lat="39.969744162425016" lon="9.661259761276977"><ele>17.166666666666668</ele><time>2026-05-03T06:40:13Z</time></trkpt><trkpt lat="39.96965865925815" lon="9.661198101006706"><ele>16.333333333333332</ele><time>2026-05-03T06:40:14Z</time></trkpt><trkpt lat="39.96958077992454" lon="9.661142486593565"><ele>15.5</ele><time>2026-05-03T06:40:15Z</time></trkpt><trkpt lat="39.96951226741454" lon="9.66109430491352"><ele>14.666666666666666</ele><time>2026-05-03T06:40:16Z</time></trkpt><trkpt lat="39.9694518153446" lon="9.661051831301728"><ele>13.833333333333332</ele><time>2026-05-03T06:40:17Z</time></trkpt><trkpt lat="39.96935310111299" lon="9.660983513730896"><ele>13.0</ele><time>2026-05-03T06:40:19Z</time></trkpt><trkpt lat="39.96928583996279" lon="9.660937138717774"><ele>13.0</ele><time>2026-05-03T06:40:20Z</time></trkpt><trkpt lat="39.96920208022446" lon="9.66087938832966"><ele>13.0</ele><time>2026-05-03T06:40:20.998Z</time></trkpt><trkpt lat="39.96912160352964" lon="9.660823901523099"><ele>13.0</ele><time>2026-05-03T06:40:21.998Z</time></trkpt><trkpt lat="39.96902919839588" lon="9.660760190320525"><ele>13.0</ele><time>2026-05-03T06:40:22.998Z</time></trkpt><trkpt lat="39.96893095371114" lon="9.66069245289315"><ele>13.0</ele><time>2026-05-03T06:40:23.998Z</time></trkpt><trkpt lat="39.96882447589326" lon="9.660619038907669"><ele>12.0</ele><time>2026-05-03T06:40:24.998Z</time></trkpt><trkpt lat="39.96871847974198" lon="9.660545957022427"><ele>11.0</ele><time>2026-05-03T06:40:25.999Z</time></trkpt><trkpt lat="39.96862234949637" lon="9.660477701688857"><ele>10.0</ele><time>2026-05-03T06:40:26.999Z</time></trkpt><trkpt lat="39.968537502195545" lon="9.660417197888846"><ele>9.0</ele><time>2026-05-03T06:40:27.999Z</time></trkpt><trkpt lat="39.96846682152032" lon="9.660366796188548"><ele>8.0</ele><time>2026-05-03T06:40:28.999Z</time></trkpt><trkpt lat="39.968403772314154" lon="9.66033444214184"><ele>8.0</ele><time>2026-05-03T06:40:29.999Z</time></trkpt><trkpt lat="39.96833475164183" lon="9.66020874456807"><ele>8.0</ele><time>2026-05-03T06:40:31.999Z</time></trkpt><trkpt lat="39.968284975947846" lon="9.66015381532347"><ele>8.0</ele><time>2026-05-03T06:40:32.999Z</time></trkpt><trkpt lat="39.96821621950736" lon="9.660092713617077"><ele>8.0</ele><time>2026-05-03T06:40:34.999Z</time></trkpt><trkpt lat="39.96810894295985" lon="9.660048713032744"><ele>8.0</ele><time>2026-05-03T06:43:38.001Z</time></trkpt><trkpt lat="39.96802362885785" lon="9.660031829927618"><ele>8.0</ele><time>2026-05-03T06:43:40.001Z</time></trkpt><trkpt lat="39.967917678519534" lon="9.659996378046353"><ele>8.0</ele><time>2026-05-03T06:43:42.001Z</time></trkpt><trkpt lat="39.967849678526086" lon="9.659956333604717"><ele>8.0</ele><time>2026-05-03T06:43:43.001Z</time></trkpt><trkpt lat="39.967779921228114" lon="9.659878501070038"><ele>8.0</ele><time>2026-05-03T06:43:44.001Z</time></trkpt><trkpt lat="39.9677011401968" lon="9.659823693026233"><ele>8.0</ele><time>2026-05-03T06:43:45.001Z</time></trkpt><trkpt lat="39.967611733529715" lon="9.659784397918619"><ele>8.25</ele><time>2026-05-03T06:43:46.001Z</time></trkpt><trkpt lat="39.96752123112651" lon="9.659717745553143"><ele>8.5</ele><time>2026-05-03T06:43:47.001Z</time></trkpt><trkpt lat="39.96741521693189" lon="9.6596440893677"><ele>8.75</ele><time>2026-05-03T06:43:48.001Z</time></trkpt><trkpt lat="39.967306629470734" lon="9.659571491850173"><ele>9.0</ele><time>2026-05-03T06:43:49.001Z</time></trkpt><trkpt lat="39.967206230047594" lon="9.659480259888356"><ele>8.5</ele><time>2026-05-03T06:43:50.001Z</time></trkpt><trkpt lat="39.96709208756989" lon="9.659421850798209"><ele>8.0</ele><time>2026-05-03T06:43:51.001Z</time></trkpt><trkpt lat="39.96698819370852" lon="9.659348563460522"><ele>7.5</ele><time>2026-05-03T06:43:52.001Z</time></trkpt><trkpt lat="39.966884460697635" lon="9.659273784377186"><ele>7.0</ele><time>2026-05-03T06:43:53.001Z</time></trkpt><trkpt lat="39.96678081762456" lon="9.659198898273306"><ele>6.5</ele><time>2026-05-03T06:43:54.001Z</time></trkpt><trkpt lat="39.9666758848384" lon="9.659124182405412"><ele>6.0</ele><time>2026-05-03T06:43:55.001Z</time></trkpt><trkpt lat="39.96656950505549" lon="9.659051859912417"><ele>5.5</ele><time>2026-05-03T06:43:56.001Z</time></trkpt><trkpt lat="39.96645679632908" lon="9.658976904807153"><ele>5.0</ele><time>2026-05-03T06:43:57.001Z</time></trkpt><trkpt lat="39.96634627311515" lon="9.658901189984656"><ele>5.0</ele><time>2026-05-03T06:43:58.001Z</time></trkpt><trkpt lat="39.96624064875287" lon="9.658828432678275"><ele>5.0</ele><time>2026-05-03T06:43:59.001Z</time></trkpt><trkpt lat="39.966141109147195" lon="9.658758968989298"><ele>5.0</ele><time>2026-05-03T06:44:00.001Z</time></trkpt><trkpt lat="39.966044763098886" lon="9.65868986946246"><ele>5.0</ele><time>2026-05-03T06:44:01.001Z</time></trkpt><trkpt lat="39.965947861249326" lon="9.658622878930993"><ele>5.25</ele><time>2026-05-03T06:44:02.001Z</time></trkpt><trkpt lat="39.96585098761388" lon="9.658554379707905"><ele>5.5</ele><time>2026-05-03T06:44:03.001Z</time></trkpt><trkpt lat="39.96575156462112" lon="9.658481571811919"><ele>5.75</ele><time>2026-05-03T06:44:04.001Z</time></trkpt><trkpt lat="39.965649830767966" lon="9.65840898346739"><ele>6.0</ele><time>2026-05-03T06:44:05.001Z</time></trkpt><trkpt lat="39.9655476370704" lon="9.658337765373318"><ele>6.0</ele><time>2026-05-03T06:44:06.001Z</time></trkpt><trkpt lat="39.96544776411656" lon="9.658268536962392"><ele>6.0</ele><time>2026-05-03T06:44:07.001Z</time></trkpt><trkpt lat="39.96534878735928" lon="9.658199868098716"><ele>6.0</ele><time>2026-05-03T06:44:08.001Z</time></trkpt><trkpt lat="39.96524952797801" lon="9.658129081869985"><ele>6.0</ele><time>2026-05-03T06:44:09.001Z</time></trkpt><trkpt lat="39.96515164470475" lon="9.658060967694771"><ele>6.0</ele><time>2026-05-03T06:44:10.001Z</time></trkpt><trkpt lat="39.96505539586458" lon="9.65799346804121"><ele>6.8</ele><time>2026-05-03T06:44:11.001Z</time></trkpt><trkpt lat="39.96495939507489" lon="9.65792762061364"><ele>7.6</ele><time>2026-05-03T06:44:12.001Z</time></trkpt><trkpt lat="39.964862681350965" lon="9.657861508961107"><ele>8.4</ele><time>2026-05-03T06:44:13.001Z</time></trkpt><trkpt lat="39.964768262513" lon="9.657794795564637"><ele>9.2</ele><time>2026-05-03T06:44:14.001Z</time></trkpt><trkpt lat="39.964678272956434" lon="9.657726252147462"><ele>10.0</ele><time>2026-05-03T06:44:15.001Z</time></trkpt><trkpt lat="39.96458571289589" lon="9.657662085549758"><ele>10.75</ele><time>2026-05-03T06:44:16.001Z</time></trkpt><trkpt lat="39.96448704595259" lon="9.657598955713544"><ele>11.5</ele><time>2026-05-03T06:44:17.001Z</time></trkpt><trkpt lat="39.96438290997666" lon="9.657541240583022"><ele>12.25</ele><time>2026-05-03T06:44:18.001Z</time></trkpt><trkpt lat="39.964273950850384" lon="9.657489789788961"><ele>13.0</ele><time>2026-05-03T06:44:19.001Z</time></trkpt><trkpt lat="39.9641657998711" lon="9.657453248997466"><ele>13.5</ele><time>2026-05-03T06:44:20.001Z</time></trkpt><trkpt lat="39.96404741784956" lon="9.657432621789328"><ele>14.0</ele><time>2026-05-03T06:44:21.001Z</time></trkpt><trkpt lat="39.96392221203736" lon="9.657424208875284"><ele>14.5</ele><time>2026-05-03T06:44:22.001Z</time></trkpt><trkpt lat="39.963792457345654" lon="9.657424322203685"><ele>15.0</ele><time>2026-05-03T06:44:23.001Z</time></trkpt><trkpt lat="39.963661991175535" lon="9.657425792448544"><ele>15.0</ele><time>2026-05-03T06:44:24.001Z</time></trkpt><trkpt lat="39.9635222809721" lon="9.657429492093971"><ele>15.0</ele><time>2026-05-03T06:44:25.001Z</time></trkpt><trkpt lat="39.963378333829624" lon="9.657438140123311"><ele>15.0</ele><time>2026-05-03T06:44:26.001Z</time></trkpt><trkpt lat="39.96322957427648" lon="9.657443600702118"><ele>15.0</ele><time>2026-05-03T06:44:27.001Z</time></trkpt><trkpt lat="39.96309285166578" lon="9.657453156770144"><ele>13.75</ele><time>2026-05-03T06:44:28.001Z</time></trkpt><trkpt lat="39.962950369004446" lon="9.657459861061966"><ele>12.5</ele><time>2026-05-03T06:44:29.001Z</time></trkpt><trkpt lat="39.96280290468772" lon="9.657459111604759"><ele>11.25</ele><time>2026-05-03T06:44:30.001Z</time></trkpt><trkpt lat="39.962650696225325" lon="9.657451698455867"><ele>10.0</ele><time>2026-05-03T06:44:31.001Z</time></trkpt><trkpt lat="39.962500044413005" lon="9.657438985598032"><ele>10.0</ele><time>2026-05-03T06:44:32.001Z</time></trkpt><trkpt lat="39.96234960501466" lon="9.65742124663946"><ele>10.0</ele><time>2026-05-03T06:44:33.001Z</time></trkpt><trkpt lat="39.962210246788295" lon="9.657400101208342"><ele>10.0</ele><time>2026-05-03T06:44:34.001Z</time></trkpt><trkpt lat="39.96208829337634" lon="9.657371611640121"><ele>10.0</ele><time>2026-05-03T06:44:35.001Z</time></trkpt><trkpt lat="39.961980958245455" lon="9.657337145473653"><ele>10.0</ele><time>2026-05-03T06:44:36.001Z</time></trkpt><trkpt lat="39.96189453888139" lon="9.657304296658555"><ele>10.0</ele><time>2026-05-03T06:44:37.001Z</time></trkpt><trkpt lat="39.96182653465773" lon="9.657269241808491"><ele>10.0</ele><time>2026-05-03T06:44:38.001Z</time></trkpt><trkpt lat="39.961756256559234" lon="9.657163723789424"><ele>10.0</ele><time>2026-05-03T06:44:40.001Z</time></trkpt><trkpt lat="39.961752953476164" lon="9.65701875160315"><ele>10.0</ele><time>2026-05-03T06:44:42Z</time></trkpt><trkpt lat="39.961779191500824" lon="9.656851163631297"><ele>9.833333333333334</ele><time>2026-05-03T06:44:44Z</time></trkpt><trkpt lat="39.96176398434314" lon="9.656769131024086"><ele>9.666666666666668</ele><time>2026-05-03T06:44:45Z</time></trkpt><trkpt lat="39.96174007981889" lon="9.65667479688048"><ele>9.5</ele><time>2026-05-03T06:44:46Z</time></trkpt><trkpt lat="39.96171490248503" lon="9.656571643875207"><ele>9.333333333333334</ele><time>2026-05-03T06:44:47Z</time></trkpt><trkpt lat="39.96168909847844" lon="9.656464635045264"><ele>9.166666666666666</ele><time>2026-05-03T06:44:48Z</time></trkpt><trkpt lat="39.9616636364689" lon="9.656359044603978"><ele>9.0</ele><time>2026-05-03T06:44:49Z</time></trkpt><trkpt lat="39.96164334857865" lon="9.6562749108763"><ele>8.8</ele><time>2026-05-03T06:44:50Z</time></trkpt><trkpt lat="39.961592884409136" lon="9.65615047320736"><ele>8.600000000000001</ele><time>2026-05-03T06:44:52Z</time></trkpt><trkpt lat="39.961455650154434" lon="9.656113557899015"><ele>8.4</ele><time>2026-05-03T06:44:54Z</time></trkpt><trkpt lat="39.96137587140864" lon="9.656119302511202"><ele>8.200000000000001</ele><time>2026-05-03T06:44:55Z</time></trkpt><trkpt lat="39.96128036953521" lon="9.6561236936469"><ele>8.0</ele><time>2026-05-03T06:44:56Z</time></trkpt><trkpt lat="39.961183454563084" lon="9.656127403297893"><ele>8.0</ele><time>2026-05-03T06:44:57Z</time></trkpt><trkpt lat="39.961081743137775" lon="9.656130908619925"><ele>8.0</ele><time>2026-05-03T06:44:58Z</time></trkpt><trkpt lat="39.96097527921707" lon="9.656134577728295"><ele>8.0</ele><time>2026-05-03T06:44:59Z</time></trkpt><trkpt lat="39.96086196434983" lon="9.656141630037125"><ele>8.0</ele><time>2026-05-03T06:45:00Z</time></trkpt><trkpt lat="39.960751893820394" lon="9.656173449050723"><ele>8.0</ele><time>2026-05-03T06:45:01Z</time></trkpt><trkpt lat="39.9606405293592" lon="9.656184986882668"><ele>8.166666666666666</ele><time>2026-05-03T06:45:02Z</time></trkpt><trkpt lat="39.96053732430619" lon="9.656196713508544"><ele>8.333333333333332</ele><time>2026-05-03T06:45:03Z</time></trkpt><trkpt lat="39.96044290968437" lon="9.656201530782141"><ele>8.5</ele><time>2026-05-03T06:45:04Z</time></trkpt><trkpt lat="39.960356461299725" lon="9.656206485687349"><ele>8.666666666666666</ele><time>2026-05-03T06:45:05Z</time></trkpt><trkpt lat="39.960275524477794" lon="9.656208738289545"><ele>8.833333333333334</ele><time>2026-05-03T06:45:06Z</time></trkpt><trkpt lat="39.96020324338416" lon="9.65618170558472"><ele>9.0</ele><time>2026-05-03T06:45:07Z</time></trkpt><trkpt lat="39.96013342918235" lon="9.656111086906636"><ele>9.0</ele><time>2026-05-03T06:45:08Z</time></trkpt><trkpt lat="39.960048546672795" lon="9.65605649255964"><ele>9.0</ele><time>2026-05-03T06:45:09Z</time></trkpt><trkpt lat="39.95996843442055" lon="9.656006652941986"><ele>9.0</ele><time>2026-05-03T06:45:10Z</time></trkpt><trkpt lat="39.95989217332801" lon="9.655988698547755"><ele>9.0</ele><time>2026-05-03T06:45:11Z</time></trkpt><trkpt lat="39.959798359786255" lon="9.655907482992687"><ele>9.0</ele><time>2026-05-03T06:45:13Z</time></trkpt><trkpt lat="39.95977366397318" lon="9.655781927257603"><ele>9.0</ele><time>2026-05-03T06:45:15Z</time></trkpt><trkpt lat="39.959805726061845" lon="9.655697825418228"><ele>9.0</ele><time>2026-05-03T06:45:16Z</time></trkpt><trkpt lat="39.95982382262258" lon="9.655594038960707"><ele>9.0</ele><time>2026-05-03T06:45:17Z</time></trkpt><trkpt lat="39.95984770284532" lon="9.655477587542043"><ele>9.0</ele><time>2026-05-03T06:45:18Z</time></trkpt><trkpt lat="39.95987529519144" lon="9.655350093733228"><ele>9.0</ele><time>2026-05-03T06:45:19Z</time></trkpt><trkpt lat="39.95989646701958" lon="9.655197707048195"><ele>9.0</ele><time>2026-05-03T06:45:20Z</time></trkpt><trkpt lat="39.95993548400225" lon="9.655043532749378"><ele>9.0</ele><time>2026-05-03T06:45:21Z</time></trkpt><trkpt lat="39.959973755474785" lon="9.654886259255967"><ele>9.0</ele><time>2026-05-03T06:45:22Z</time></trkpt><trkpt lat="39.96001793982652" lon="9.654727842470814"><ele>9.0</ele><time>2026-05-03T06:45:23Z</time></trkpt><trkpt lat="39.96005335194846" lon="9.654568108815813"><ele>8.5</ele><time>2026-05-03T06:45:24Z</time></trkpt><trkpt lat="39.960095834622834" lon="9.654416136592221"><ele>8.0</ele><time>2026-05-03T06:45:25Z</time></trkpt><trkpt lat="39.960134237131655" lon="9.654272286425769"><ele>7.5</ele><time>2026-05-03T06:45:26Z</time></trkpt><trkpt lat="39.96017317386261" lon="9.654132237712169"><ele>7.0</ele><time>2026-05-03T06:45:27Z</time></trkpt><trkpt lat="39.960211579707945" lon="9.653995804078969"><ele>7.0</ele><time>2026-05-03T06:45:28Z</time></trkpt><trkpt lat="39.96024763909174" lon="9.65385965527273"><ele>6.999999999999999</ele><time>2026-05-03T06:45:29Z</time></trkpt><trkpt lat="39.96027900128605" lon="9.65372459010822"><ele>6.999999999999999</ele><time>2026-05-03T06:45:30Z</time></trkpt><trkpt lat="39.96030103595452" lon="9.653595424496697"><ele>7.0</ele><time>2026-05-03T06:45:31.001Z</time></trkpt><trkpt lat="39.960313423193924" lon="9.653481678602699"><ele>7.0</ele><time>2026-05-03T06:45:32.001Z</time></trkpt><trkpt lat="39.96032709491337" lon="9.653376612720503"><ele>7.500000000000001</ele><time>2026-05-03T06:45:33.001Z</time></trkpt><trkpt lat="39.960341446067844" lon="9.653271553398186"><ele>8.0</ele><time>2026-05-03T06:45:34.001Z</time></trkpt><trkpt lat="39.96035383197003" lon="9.653170892399121"><ele>8.5</ele><time>2026-05-03T06:45:35.001Z</time></trkpt><trkpt lat="39.96036287405432" lon="9.653066340769875"><ele>9.0</ele><time>2026-05-03T06:45:36.001Z</time></trkpt><trkpt lat="39.96037240565216" lon="9.652952353082467"><ele>9.5</ele><time>2026-05-03T06:45:37.001Z</time></trkpt><trkpt lat="39.96038230142153" lon="9.652839429216105"><ele>10.0</ele><time>2026-05-03T06:45:38.001Z</time></trkpt><trkpt lat="39.960376688247635" lon="9.652725640023549"><ele>10.0</ele><time>2026-05-03T06:45:39.001Z</time></trkpt><trkpt lat="39.96036853966372" lon="9.652608889201465"><ele>10.0</ele><time>2026-05-03T06:45:40.001Z</time></trkpt><trkpt lat="39.96032641372636" lon="9.652498430800813"><ele>10.0</ele><time>2026-05-03T06:45:41.001Z</time></trkpt><trkpt lat="39.96026746038735" lon="9.652397974763357"><ele>10.0</ele><time>2026-05-03T06:45:42.001Z</time></trkpt><trkpt lat="39.960209975688464" lon="9.652287089422646"><ele>10.0</ele><time>2026-05-03T06:45:43.001Z</time></trkpt><trkpt lat="39.96015009227049" lon="9.652175817026306"><ele>10.0</ele><time>2026-05-03T06:45:44.001Z</time></trkpt><trkpt lat="39.960084486711764" lon="9.65208098764455"><ele>10.0</ele><time>2026-05-03T06:45:45.001Z</time></trkpt><trkpt lat="39.960021190102474" lon="9.651996357592035"><ele>10.0</ele><time>2026-05-03T06:45:46.001Z</time></trkpt><trkpt lat="39.959943914467985" lon="9.651921913995062"><ele>10.0</ele><time>2026-05-03T06:45:47.001Z</time></trkpt><trkpt lat="39.95985683155787" lon="9.651847158714464"><ele>10.0</ele><time>2026-05-03T06:45:48.001Z</time></trkpt><trkpt lat="39.9597716918778" lon="9.651775592555998"><ele>9.666666666666668</ele><time>2026-05-03T06:45:49.001Z</time></trkpt><trkpt lat="39.9596984186223" lon="9.651711987901846"><ele>9.333333333333334</ele><time>2026-05-03T06:45:50.001Z</time></trkpt><trkpt lat="39.959634988035546" lon="9.651655404209555"><ele>9.0</ele><time>2026-05-03T06:45:51.001Z</time></trkpt><trkpt lat="39.95958314439803" lon="9.65159985103917"><ele>8.666666666666666</ele><time>2026-05-03T06:45:52.001Z</time></trkpt><trkpt lat="39.95955460892017" lon="9.651516995078042"><ele>8.333333333333332</ele><time>2026-05-03T06:45:53.001Z</time></trkpt><trkpt lat="39.95954220990368" lon="9.65141702729961"><ele>8.0</ele><time>2026-05-03T06:45:54.001Z</time></trkpt><trkpt lat="39.95953646339322" lon="9.65129919252243"><ele>8.0</ele><time>2026-05-03T06:45:55.001Z</time></trkpt><trkpt lat="39.95953242899634" lon="9.651153724905566"><ele>8.0</ele><time>2026-05-03T06:45:56.001Z</time></trkpt><trkpt lat="39.95953162466359" lon="9.650990520670561"><ele>8.0</ele><time>2026-05-03T06:45:57.001Z</time></trkpt><trkpt lat="39.95953093462486" lon="9.650824591201935"><ele>8.0</ele><time>2026-05-03T06:45:58.001Z</time></trkpt><trkpt lat="39.95952846470498" lon="9.650646905235494"><ele>8.0</ele><time>2026-05-03T06:45:59.001Z</time></trkpt><trkpt lat="39.95952566983361" lon="9.650445842214078"><ele>8.0</ele><time>2026-05-03T06:46:00.001Z</time></trkpt><trkpt lat="39.9595235921125" lon="9.650255454962549"><ele>8.0</ele><time>2026-05-03T06:46:01.001Z</time></trkpt><trkpt lat="39.95952272203358" lon="9.650078350724039"><ele>8.0</ele><time>2026-05-03T06:46:02.001Z</time></trkpt><trkpt lat="39.95952360064665" lon="9.649900857381425"><ele>8.25</ele><time>2026-05-03T06:46:03.001Z</time></trkpt><trkpt lat="39.959522527639926" lon="9.64972215674373"><ele>8.5</ele><time>2026-05-03T06:46:04.001Z</time></trkpt><trkpt lat="39.95951913748064" lon="9.649546138337527"><ele>8.75</ele><time>2026-05-03T06:46:05.001Z</time></trkpt><trkpt lat="39.95951439622889" lon="9.649368689062396"><ele>9.0</ele><time>2026-05-03T06:46:06.001Z</time></trkpt><trkpt lat="39.959509631319676" lon="9.649190354395934"><ele>9.0</ele><time>2026-05-03T06:46:07.001Z</time></trkpt><trkpt lat="39.95950489869887" lon="9.64901322801709"><ele>9.0</ele><time>2026-05-03T06:46:08.001Z</time></trkpt><trkpt lat="39.95949906853266" lon="9.648835420689682"><ele>9.0</ele><time>2026-05-03T06:46:09.001Z</time></trkpt><trkpt lat="39.95949337280206" lon="9.648665749760418"><ele>9.0</ele><time>2026-05-03T06:46:10.001Z</time></trkpt><trkpt lat="39.95948991829532" lon="9.648510172376051"><ele>9.5</ele><time>2026-05-03T06:46:11.001Z</time></trkpt><trkpt lat="39.9594869774222" lon="9.648349031218709"><ele>10.0</ele><time>2026-05-03T06:46:12.001Z</time></trkpt><trkpt lat="39.959471108864996" lon="9.64817715933741"><ele>10.5</ele><time>2026-05-03T06:46:13.001Z</time></trkpt><trkpt lat="39.95947670557447" lon="9.648006606047167"><ele>11.0</ele><time>2026-05-03T06:46:14.001Z</time></trkpt><trkpt lat="39.959476827513356" lon="9.647836208904279"><ele>11.0</ele><time>2026-05-03T06:46:15.001Z</time></trkpt><trkpt lat="39.95948291507001" lon="9.647663361441186"><ele>11.0</ele><time>2026-05-03T06:46:16.001Z</time></trkpt><trkpt lat="39.959479936958736" lon="9.647486123544098"><ele>11.0</ele><time>2026-05-03T06:46:17.001Z</time></trkpt><trkpt lat="39.95947665069918" lon="9.647319649735058"><ele>11.0</ele><time>2026-05-03T06:46:18.001Z</time></trkpt><trkpt lat="39.95946898806282" lon="9.647153978583345"><ele>11.0</ele><time>2026-05-03T06:46:19.001Z</time></trkpt><trkpt lat="39.95946654913333" lon="9.646987866579522"><ele>11.0</ele><time>2026-05-03T06:46:20.001Z</time></trkpt><trkpt lat="39.95946859711165" lon="9.646821902570991"><ele>11.0</ele><time>2026-05-03T06:46:21.001Z</time></trkpt><trkpt lat="39.95947151110392" lon="9.646683281999564"><ele>11.0</ele><time>2026-05-03T06:46:22.001Z</time></trkpt><trkpt lat="39.95946429985844" lon="9.646576936610687"><ele>11.0</ele><time>2026-05-03T06:46:23.001Z</time></trkpt><trkpt lat="39.95946401922002" lon="9.646488459465775"><ele>11.200000000000001</ele><time>2026-05-03T06:46:24.001Z</time></trkpt><trkpt lat="39.95947096564575" lon="9.6463245740164"><ele>11.4</ele><time>2026-05-03T06:46:26.001Z</time></trkpt><trkpt lat="39.959472175095435" lon="9.6462244195489"><ele>11.6</ele><time>2026-05-03T06:46:27.001Z</time></trkpt><trkpt lat="39.95947848014445" lon="9.646106977747957"><ele>11.8</ele><time>2026-05-03T06:46:28.001Z</time></trkpt><trkpt lat="39.95948884217033" lon="9.645980648144231"><ele>12.0</ele><time>2026-05-03T06:46:29.001Z</time></trkpt><trkpt lat="39.959503029727415" lon="9.645849615552047"><ele>12.399999999999999</ele><time>2026-05-03T06:46:30.001Z</time></trkpt><trkpt lat="39.95951434655843" lon="9.645721242046283"><ele>12.799999999999999</ele><time>2026-05-03T06:46:31.001Z</time></trkpt><trkpt lat="39.95951943131764" lon="9.645594192423049"><ele>13.2</ele><time>2026-05-03T06:46:32.001Z</time></trkpt><trkpt lat="39.95953624092466" lon="9.645463908260325"><ele>13.6</ele><time>2026-05-03T06:46:33.001Z</time></trkpt><trkpt lat="39.959507722359504" lon="9.64533634871657"><ele>14.0</ele><time>2026-05-03T06:46:34.001Z</time></trkpt><trkpt lat="39.95951060900497" lon="9.645200372146064"><ele>14.0</ele><time>2026-05-03T06:46:35.001Z</time></trkpt><trkpt lat="39.95953003725798" lon="9.645050193555221"><ele>14.0</ele><time>2026-05-03T06:46:36.001Z</time></trkpt><trkpt lat="39.959557828293065" lon="9.644889203975543"><ele>14.0</ele><time>2026-05-03T06:46:37.001Z</time></trkpt><trkpt lat="39.95958175455769" lon="9.644753874713007"><ele>14.0</ele><time>2026-05-03T06:46:38Z</time></trkpt><trkpt lat="39.95961432870517" lon="9.64461591668212"><ele>14.0</ele><time>2026-05-03T06:46:39Z</time></trkpt><trkpt lat="39.95965726400946" lon="9.644486624365925"><ele>13.999999999999998</ele><time>2026-05-03T06:46:40Z</time></trkpt><trkpt lat="39.95971947281144" lon="9.64436806471505"><ele>13.999999999999998</ele><time>2026-05-03T06:46:41Z</time></trkpt><trkpt lat="39.959781724373826" lon="9.64425256276339"><ele>14.0</ele><time>2026-05-03T06:46:42Z</time></trkpt><trkpt lat="39.95982239920285" lon="9.644132934281908"><ele>14.0</ele><time>2026-05-03T06:46:43Z</time></trkpt><trkpt lat="39.95985908296334" lon="9.643996322667325"><ele>14.0</ele><time>2026-05-03T06:46:44Z</time></trkpt><trkpt lat="39.959847822107854" lon="9.643839223623209"><ele>14.0</ele><time>2026-05-03T06:46:45Z</time></trkpt><trkpt lat="39.95985281208371" lon="9.64367360069221"><ele>14.0</ele><time>2026-05-03T06:46:46Z</time></trkpt><trkpt lat="39.95985590658295" lon="9.643506147948475"><ele>14.0</ele><time>2026-05-03T06:46:47Z</time></trkpt><trkpt lat="39.95985600111534" lon="9.64334536588619"><ele>14.0</ele><time>2026-05-03T06:46:48Z</time></trkpt><trkpt lat="39.95985627221605" lon="9.643189108216108"><ele>14.0</ele><time>2026-05-03T06:46:49Z</time></trkpt><trkpt lat="39.95985752782564" lon="9.643028686494828"><ele>14.0</ele><time>2026-05-03T06:46:50Z</time></trkpt><trkpt lat="39.95985660435361" lon="9.642865161929182"><ele>14.0</ele><time>2026-05-03T06:46:51Z</time></trkpt><trkpt lat="39.95985500660441" lon="9.642711664339169"><ele>14.0</ele><time>2026-05-03T06:46:52Z</time></trkpt><trkpt lat="39.95985406459896" lon="9.642565735154148"><ele>13.999999999999998</ele><time>2026-05-03T06:46:53Z</time></trkpt><trkpt lat="39.959853787927926" lon="9.642423149534954"><ele>13.999999999999998</ele><time>2026-05-03T06:46:54Z</time></trkpt><trkpt lat="39.95985575909226" lon="9.642283099987411"><ele>14.0</ele><time>2026-05-03T06:46:55Z</time></trkpt><trkpt lat="39.95985471944722" lon="9.642148652478273"><ele>14.0</ele><time>2026-05-03T06:46:56Z</time></trkpt><trkpt lat="39.9598531045532" lon="9.642016502663585"><ele>14.0</ele><time>2026-05-03T06:46:57Z</time></trkpt><trkpt lat="39.9598656946987" lon="9.641884800811225"><ele>13.999999999999998</ele><time>2026-05-03T06:46:58Z</time></trkpt><trkpt lat="39.95986460911529" lon="9.64174635790479"><ele>13.999999999999998</ele><time>2026-05-03T06:46:59Z</time></trkpt><trkpt lat="39.95984802481618" lon="9.641608454722475"><ele>14.0</ele><time>2026-05-03T06:47:00Z</time></trkpt><trkpt lat="39.95984838576636" lon="9.641465655389474"><ele>14.0</ele><time>2026-05-03T06:47:01Z</time></trkpt><trkpt lat="39.95984884373209" lon="9.641318812831743"><ele>14.0</ele><time>2026-05-03T06:47:02Z</time></trkpt><trkpt lat="39.959847381964565" lon="9.641169566608035"><ele>14.0</ele><time>2026-05-03T06:47:03Z</time></trkpt><trkpt lat="39.959845221788626" lon="9.641015202814687"><ele>14.0</ele><time>2026-05-03T06:47:04Z</time></trkpt><trkpt lat="39.959843075364354" lon="9.640858255281385"><ele>14.0</ele><time>2026-05-03T06:47:05Z</time></trkpt><trkpt lat="39.95984237681548" lon="9.640698578895206"><ele>14.25</ele><time>2026-05-03T06:47:06Z</time></trkpt><trkpt lat="39.959842091548644" lon="9.640537623787106"><ele>14.5</ele><time>2026-05-03T06:47:07Z</time></trkpt><trkpt lat="39.959840570867556" lon="9.640376903585677"><ele>14.75</ele><time>2026-05-03T06:47:08Z</time></trkpt><trkpt lat="39.95983848078215" lon="9.640217454143196"><ele>15.0</ele><time>2026-05-03T06:47:09Z</time></trkpt><trkpt lat="39.95983645240666" lon="9.640058580924151"><ele>15.0</ele><time>2026-05-03T06:47:10Z</time></trkpt><trkpt lat="39.959833568530904" lon="9.639904465534247"><ele>15.0</ele><time>2026-05-03T06:47:11Z</time></trkpt><trkpt lat="39.95983453883488" lon="9.639756607400281"><ele>15.0</ele><time>2026-05-03T06:47:12Z</time></trkpt><trkpt lat="39.95983649880153" lon="9.639615581422808"><ele>15.0</ele><time>2026-05-03T06:47:13Z</time></trkpt><trkpt lat="39.95983482601384" lon="9.639484152318575"><ele>15.0</ele><time>2026-05-03T06:47:14Z</time></trkpt><trkpt lat="39.959831348026526" lon="9.63936083503703"><ele>14.6</ele><time>2026-05-03T06:47:15Z</time></trkpt><trkpt lat="39.95983108407299" lon="9.63923743421167"><ele>14.2</ele><time>2026-05-03T06:47:16Z</time></trkpt><trkpt lat="39.959793460940176" lon="9.639109002681685"><ele>13.8</ele><time>2026-05-03T06:47:17Z</time></trkpt><trkpt lat="39.959715319909016" lon="9.638997011495718"><ele>13.4</ele><time>2026-05-03T06:47:18Z</time></trkpt><trkpt lat="39.9596316721297" lon="9.638898721458112"><ele>13.0</ele><time>2026-05-03T06:47:19Z</time></trkpt><trkpt lat="39.9595408538643" lon="9.638799432456217"><ele>13.0</ele><time>2026-05-03T06:47:20Z</time></trkpt><trkpt lat="39.959441372705825" lon="9.638704891181137"><ele>13.0</ele><time>2026-05-03T06:47:21Z</time></trkpt><trkpt lat="39.95934327245976" lon="9.638631203893635"><ele>13.0</ele><time>2026-05-03T06:47:22Z</time></trkpt><trkpt lat="39.95924886694826" lon="9.638591434028758"><ele>13.0</ele><time>2026-05-03T06:47:23Z</time></trkpt><trkpt lat="39.95914515465273" lon="9.63858725256717"><ele>13.0</ele><time>2026-05-03T06:47:24Z</time></trkpt><trkpt lat="39.95903343953959" lon="9.63863569614446"><ele>13.0</ele><time>2026-05-03T06:47:25Z</time></trkpt><trkpt lat="39.9589187706864" lon="9.638698029376691"><ele>13.0</ele><time>2026-05-03T06:47:26Z</time></trkpt><trkpt lat="39.95880371812443" lon="9.638759065165194"><ele>13.0</ele><time>2026-05-03T06:47:27Z</time></trkpt><trkpt lat="39.95869451082487" lon="9.638815014951891"><ele>13.0</ele><time>2026-05-03T06:47:28Z</time></trkpt><trkpt lat="39.95860073690252" lon="9.63885588782307"><ele>12.999999999999998</ele><time>2026-05-03T06:47:29Z</time></trkpt><trkpt lat="39.958524907530276" lon="9.638887238324147"><ele>13.0</ele><time>2026-05-03T06:47:30Z</time></trkpt><trkpt lat="39.95842679832882" lon="9.638886999793735"><ele>13.0</ele><time>2026-05-03T06:47:32Z</time></trkpt><trkpt lat="39.9584212364024" lon="9.63872848102987"><ele>13.0</ele><time>2026-05-03T06:47:35Z</time></trkpt><trkpt lat="39.95841790194613" lon="9.638643074708083"><ele>12.999999999999998</ele><time>2026-05-03T06:47:36Z</time></trkpt><trkpt lat="39.958414106723524" lon="9.638542192075537"><ele>13.0</ele><time>2026-05-03T06:47:37Z</time></trkpt><trkpt lat="39.958408793255295" lon="9.638416593860072"><ele>13.0</ele><time>2026-05-03T06:47:38Z</time></trkpt><trkpt lat="39.95839376477867" lon="9.638281246289125"><ele>13.0</ele><time>2026-05-03T06:47:39Z</time></trkpt><trkpt lat="39.95836440370746" lon="9.6381186554934"><ele>13.0</ele><time>2026-05-03T06:47:40Z</time></trkpt><trkpt lat="39.95832988173606" lon="9.637961023356336"><ele>13.0</ele><time>2026-05-03T06:47:41Z</time></trkpt><trkpt lat="39.95829527957454" lon="9.637804549602347"><ele>13.5</ele><time>2026-05-03T06:47:42Z</time></trkpt><trkpt lat="39.95825888684183" lon="9.637641472096778"><ele>14.0</ele><time>2026-05-03T06:47:43Z</time></trkpt><trkpt lat="39.958218945378505" lon="9.637462492627288"><ele>14.5</ele><time>2026-05-03T06:47:44Z</time></trkpt><trkpt lat="39.95818235510594" lon="9.637298529971023"><ele>15.0</ele><time>2026-05-03T06:47:45Z</time></trkpt><trkpt lat="39.958148324394244" lon="9.6371460371042"><ele>15.0</ele><time>2026-05-03T06:47:46Z</time></trkpt><trkpt lat="39.95811527135978" lon="9.63699792502924"><ele>15.0</ele><time>2026-05-03T06:47:47Z</time></trkpt><trkpt lat="39.958080139155136" lon="9.636844953032492"><ele>15.0</ele><time>2026-05-03T06:47:48Z</time></trkpt><trkpt lat="39.958043821034686" lon="9.636690225299178"><ele>15.0</ele><time>2026-05-03T06:47:49Z</time></trkpt><trkpt lat="39.958006108185025" lon="9.636534979443697"><ele>15.25</ele><time>2026-05-03T06:47:50Z</time></trkpt><trkpt lat="39.95796919987008" lon="9.636389581974983"><ele>15.5</ele><time>2026-05-03T06:47:51Z</time></trkpt><trkpt lat="39.95793182705422" lon="9.636249831761742"><ele>15.75</ele><time>2026-05-03T06:47:52Z</time></trkpt><trkpt lat="39.95789382930939" lon="9.636113380778696"><ele>16.0</ele><time>2026-05-03T06:47:53Z</time></trkpt><trkpt lat="39.957856433118" lon="9.635979090127547"><ele>16.2</ele><time>2026-05-03T06:47:54Z</time></trkpt><trkpt lat="39.95781306470619" lon="9.635847924635788"><ele>16.400000000000002</ele><time>2026-05-03T06:47:55Z</time></trkpt><trkpt lat="39.95778654394019" lon="9.63571016696198"><ele>16.6</ele><time>2026-05-03T06:47:56Z</time></trkpt><trkpt lat="39.957768080598086" lon="9.635572385591889"><ele>16.8</ele><time>2026-05-03T06:47:57Z</time></trkpt><trkpt lat="39.95775660222059" lon="9.63542815910211"><ele>17.0</ele><time>2026-05-03T06:47:58Z</time></trkpt><trkpt lat="39.95775501381843" lon="9.635283359978356"><ele>17.0</ele><time>2026-05-03T06:47:59Z</time></trkpt><trkpt lat="39.957751994099716" lon="9.635135524713407"><ele>17.0</ele><time>2026-05-03T06:48:00Z</time></trkpt><trkpt lat="39.957750405211954" lon="9.634991220391703"><ele>17.0</ele><time>2026-05-03T06:48:01Z</time></trkpt><trkpt lat="39.95774948607622" lon="9.634841013971878"><ele>17.0</ele><time>2026-05-03T06:48:02Z</time></trkpt><trkpt lat="39.95774575539058" lon="9.634692900581802"><ele>17.0</ele><time>2026-05-03T06:48:03Z</time></trkpt><trkpt lat="39.95773859081881" lon="9.634540621420758"><ele>17.0</ele><time>2026-05-03T06:48:04Z</time></trkpt><trkpt lat="39.95773146853195" lon="9.634384340472248"><ele>17.0</ele><time>2026-05-03T06:48:05Z</time></trkpt><trkpt lat="39.957724559427106" lon="9.634229792254782"><ele>17.0</ele><time>2026-05-03T06:48:06Z</time></trkpt><trkpt lat="39.95772525553373" lon="9.63407863329758"><ele>17.5</ele><time>2026-05-03T06:48:07Z</time></trkpt><trkpt lat="39.957722000257874" lon="9.633925682822403"><ele>18.0</ele><time>2026-05-03T06:48:08Z</time></trkpt><trkpt lat="39.95771597748301" lon="9.633773735509926"><ele>18.5</ele><time>2026-05-03T06:48:09Z</time></trkpt><trkpt lat="39.95770833460251" lon="9.633623083137179"><ele>19.0</ele><time>2026-05-03T06:48:10.001Z</time></trkpt><trkpt lat="39.957701890871256" lon="9.633470541396353"><ele>19.0</ele><time>2026-05-03T06:48:11.001Z</time></trkpt><trkpt lat="39.95769472407719" lon="9.633318330411994"><ele>19.0</ele><time>2026-05-03T06:48:12.001Z</time></trkpt><trkpt lat="39.95768353417247" lon="9.633164303140001"><ele>19.0</ele><time>2026-05-03T06:48:13.001Z</time></trkpt><trkpt lat="39.95768298492133" lon="9.633000995570201"><ele>19.0</ele><time>2026-05-03T06:48:14.001Z</time></trkpt><trkpt lat="39.95763116851912" lon="9.632847067940245"><ele>18.75</ele><time>2026-05-03T06:48:15.001Z</time></trkpt><trkpt lat="39.95761478484578" lon="9.632676258715497"><ele>18.5</ele><time>2026-05-03T06:48:16.001Z</time></trkpt><trkpt lat="39.957572497508146" lon="9.632510217774016"><ele>18.25</ele><time>2026-05-03T06:48:17.001Z</time></trkpt><trkpt lat="39.9575112651726" lon="9.632345275096638"><ele>18.0</ele><time>2026-05-03T06:48:18.001Z</time></trkpt><trkpt lat="39.95744755682996" lon="9.632197847791502"><ele>18.0</ele><time>2026-05-03T06:48:19.001Z</time></trkpt><trkpt lat="39.957391554603035" lon="9.63206331947572"><ele>18.0</ele><time>2026-05-03T06:48:20.001Z</time></trkpt><trkpt lat="39.9573355605842" lon="9.631938287806298"><ele>18.0</ele><time>2026-05-03T06:48:21.001Z</time></trkpt><trkpt lat="39.95730553406617" lon="9.631799278395029"><ele>18.0</ele><time>2026-05-03T06:48:22.001Z</time></trkpt><trkpt lat="39.95728444533637" lon="9.63166022911716"><ele>18.0</ele><time>2026-05-03T06:48:23.001Z</time></trkpt><trkpt lat="39.95729186597455" lon="9.631519060496691"><ele>18.25</ele><time>2026-05-03T06:48:24.001Z</time></trkpt><trkpt lat="39.95728217137577" lon="9.631374878514901"><ele>18.5</ele><time>2026-05-03T06:48:25.001Z</time></trkpt><trkpt lat="39.95725603270164" lon="9.631233177044333"><ele>18.75</ele><time>2026-05-03T06:48:26.001Z</time></trkpt><trkpt lat="39.957255627034165" lon="9.63108790616934"><ele>19.0</ele><time>2026-05-03T06:48:27.001Z</time></trkpt><trkpt lat="39.95725621072361" lon="9.630936309961166"><ele>19.5</ele><time>2026-05-03T06:48:28.001Z</time></trkpt><trkpt lat="39.95725802293698" lon="9.630785349320632"><ele>20.0</ele><time>2026-05-03T06:48:29.001Z</time></trkpt><trkpt lat="39.957265927486375" lon="9.630636236319022"><ele>20.5</ele><time>2026-05-03T06:48:30.001Z</time></trkpt><trkpt lat="39.957275716811296" lon="9.630483803893135"><ele>21.0</ele><time>2026-05-03T06:48:31.001Z</time></trkpt><trkpt lat="39.95728394486691" lon="9.630330081863319"><ele>21.25</ele><time>2026-05-03T06:48:32.001Z</time></trkpt><trkpt lat="39.95728872274425" lon="9.630177335165582"><ele>21.5</ele><time>2026-05-03T06:48:33.001Z</time></trkpt><trkpt lat="39.957289405825385" lon="9.630024298688909"><ele>21.75</ele><time>2026-05-03T06:48:34.001Z</time></trkpt><trkpt lat="39.957288042627766" lon="9.629872461657468"><ele>22.0</ele><time>2026-05-03T06:48:35.001Z</time></trkpt><trkpt lat="39.95727739191829" lon="9.629723401185698"><ele>22.0</ele><time>2026-05-03T06:48:36.001Z</time></trkpt><trkpt lat="39.957257343934415" lon="9.629570504219677"><ele>22.0</ele><time>2026-05-03T06:48:37.001Z</time></trkpt><trkpt lat="39.95722804574118" lon="9.629423515255874"><ele>22.0</ele><time>2026-05-03T06:48:38.001Z</time></trkpt><trkpt lat="39.957193734758285" lon="9.629285181544692"><ele>22.0</ele><time>2026-05-03T06:48:39.001Z</time></trkpt><trkpt lat="39.957155886661184" lon="9.629160291837849"><ele>21.8</ele><time>2026-05-03T06:48:40.001Z</time></trkpt><trkpt lat="39.95712785739482" lon="9.629025958243382"><ele>21.6</ele><time>2026-05-03T06:48:41.001Z</time></trkpt><trkpt lat="39.95711570946945" lon="9.628883322018488"><ele>21.400000000000002</ele><time>2026-05-03T06:48:42.001Z</time></trkpt><trkpt lat="39.95711931658654" lon="9.62873664623048"><ele>21.200000000000003</ele><time>2026-05-03T06:48:43.001Z</time></trkpt><trkpt lat="39.95712830177671" lon="9.62858316652401"><ele>21.0</ele><time>2026-05-03T06:48:44Z</time></trkpt><trkpt lat="39.957134428285514" lon="9.628424060647074"><ele>21.0</ele><time>2026-05-03T06:48:45Z</time></trkpt><trkpt lat="39.95714566070892" lon="9.628267344284275"><ele>21.0</ele><time>2026-05-03T06:48:46Z</time></trkpt><trkpt lat="39.95715313323637" lon="9.628113604388838"><ele>21.0</ele><time>2026-05-03T06:48:47Z</time></trkpt><trkpt lat="39.95716029085018" lon="9.627969923985676"><ele>21.0</ele><time>2026-05-03T06:48:48Z</time></trkpt><trkpt lat="39.95716642762714" lon="9.627839743367188"><ele>21.0</ele><time>2026-05-03T06:48:49Z</time></trkpt><trkpt lat="39.95716279331195" lon="9.62774032337001"><ele>21.0</ele><time>2026-05-03T06:48:50Z</time></trkpt><trkpt lat="39.95713804602259" lon="9.627605419298865"><ele>21.0</ele><time>2026-05-03T06:48:52Z</time></trkpt><trkpt lat="39.95708196082764" lon="9.627564355002557"><ele>21.0</ele><time>2026-05-03T06:48:57Z</time></trkpt><trkpt lat="39.957082469916" lon="9.627438722459937"><ele>21.0</ele><time>2026-05-03T06:48:59Z</time></trkpt><trkpt lat="39.957073993642034" lon="9.627331645293511"><ele>21.0</ele><time>2026-05-03T06:49:00Z</time></trkpt><trkpt lat="39.9570861378032" lon="9.62720651982527"><ele>21.0</ele><time>2026-05-03T06:49:01Z</time></trkpt><trkpt lat="39.95709838523164" lon="9.627061185137476"><ele>20.75</ele><time>2026-05-03T06:49:02Z</time></trkpt><trkpt lat="39.95710372974703" lon="9.626881480348631"><ele>20.5</ele><time>2026-05-03T06:49:03Z</time></trkpt><trkpt lat="39.957101129696454" lon="9.626690133284079"><ele>20.25</ele><time>2026-05-03T06:49:04Z</time></trkpt><trkpt lat="39.95709510410713" lon="9.626485218033364"><ele>20.0</ele><time>2026-05-03T06:49:05Z</time></trkpt><trkpt lat="39.9570853016436" lon="9.626264861885392"><ele>20.0</ele><time>2026-05-03T06:49:06Z</time></trkpt><trkpt lat="39.95707641563185" lon="9.626029491259423"><ele>20.0</ele><time>2026-05-03T06:49:07Z</time></trkpt><trkpt lat="39.95706802784268" lon="9.625785728027871"><ele>20.0</ele><time>2026-05-03T06:49:08Z</time></trkpt><trkpt lat="39.95705906773776" lon="9.625537697059737"><ele>19.666666666666668</ele><time>2026-05-03T06:49:09Z</time></trkpt><trkpt lat="39.9570515487522" lon="9.625294939971454"><ele>19.333333333333332</ele><time>2026-05-03T06:49:10Z</time></trkpt><trkpt lat="39.95704448163417" lon="9.62505945740665"><ele>19.0</ele><time>2026-05-03T06:49:11Z</time></trkpt><trkpt lat="39.95704048432914" lon="9.624821721466748"><ele>19.0</ele><time>2026-05-03T06:49:12Z</time></trkpt><trkpt lat="39.95703856795467" lon="9.624586131272748"><ele>19.0</ele><time>2026-05-03T06:49:13Z</time></trkpt><trkpt lat="39.95703778471533" lon="9.624347192880595"><ele>19.0</ele><time>2026-05-03T06:49:14Z</time></trkpt><trkpt lat="39.95703393973719" lon="9.624107213569197"><ele>18.666666666666664</ele><time>2026-05-03T06:49:15Z</time></trkpt><trkpt lat="39.95703166682377" lon="9.623876713288272"><ele>18.333333333333332</ele><time>2026-05-03T06:49:16Z</time></trkpt><trkpt lat="39.957047214216864" lon="9.623663890923899"><ele>18.0</ele><time>2026-05-03T06:49:17Z</time></trkpt><trkpt lat="39.95704721421616" lon="9.623463812504866"><ele>19.0</ele><time>2026-05-03T06:49:18Z</time></trkpt><trkpt lat="39.95703672131973" lon="9.623257815102821"><ele>20.0</ele><time>2026-05-03T06:49:19Z</time></trkpt><trkpt lat="39.95701524732655" lon="9.62305228478182"><ele>21.0</ele><time>2026-05-03T06:49:20Z</time></trkpt><trkpt lat="39.95696096314895" lon="9.622842712788026"><ele>21.333333333333332</ele><time>2026-05-03T06:49:21Z</time></trkpt><trkpt lat="39.956890004640215" lon="9.622623464351943"><ele>21.666666666666664</ele><time>2026-05-03T06:49:22Z</time></trkpt><trkpt lat="39.95681379074114" lon="9.622401409920153"><ele>22.0</ele><time>2026-05-03T06:49:23Z</time></trkpt><trkpt lat="39.95673742529744" lon="9.622176929840833"><ele>23.666666666666664</ele><time>2026-05-03T06:49:24Z</time></trkpt><trkpt lat="39.95666346393289" lon="9.621958839583675"><ele>25.333333333333332</ele><time>2026-05-03T06:49:25Z</time></trkpt><trkpt lat="39.95659044732601" lon="9.621743534955401"><ele>27.0</ele><time>2026-05-03T06:49:26Z</time></trkpt><trkpt lat="39.9565186928283" lon="9.621531952100097"><ele>27.0</ele><time>2026-05-03T06:49:27Z</time></trkpt><trkpt lat="39.956449602447634" lon="9.62132489211631"><ele>27.0</ele><time>2026-05-03T06:49:28Z</time></trkpt><trkpt lat="39.95638122590776" lon="9.621118105333045"><ele>27.0</ele><time>2026-05-03T06:49:29Z</time></trkpt><trkpt lat="39.95631335593782" lon="9.62091285054843"><ele>26.333333333333336</ele><time>2026-05-03T06:49:30Z</time></trkpt><trkpt lat="39.956244913764884" lon="9.620705865396797"><ele>25.666666666666668</ele><time>2026-05-03T06:49:31Z</time></trkpt><trkpt lat="39.956174373769024" lon="9.6204925359832"><ele>25.0</ele><time>2026-05-03T06:49:32Z</time></trkpt><trkpt lat="39.95610416882332" lon="9.620280219469233"><ele>24.666666666666668</ele><time>2026-05-03T06:49:33Z</time></trkpt><trkpt lat="39.95603749096998" lon="9.620081957313"><ele>24.333333333333336</ele><time>2026-05-03T06:49:34Z</time></trkpt><trkpt lat="39.95597597610595" lon="9.619900165496203"><ele>24.0</ele><time>2026-05-03T06:49:35Z</time></trkpt><trkpt lat="39.9559160496329" lon="9.619724286225322"><ele>25.75</ele><time>2026-05-03T06:49:36Z</time></trkpt><trkpt lat="39.955858665290094" lon="9.619558313843294"><ele>27.5</ele><time>2026-05-03T06:49:37Z</time></trkpt><trkpt lat="39.955789806034666" lon="9.619406336233007"><ele>29.25</ele><time>2026-05-03T06:49:38Z</time></trkpt><trkpt lat="39.95575194802265" lon="9.61924203549483"><ele>31.0</ele><time>2026-05-03T06:49:39Z</time></trkpt><trkpt lat="39.95574082699026" lon="9.61908824051711"><ele>31.0</ele><time>2026-05-03T06:49:40Z</time></trkpt><trkpt lat="39.95575201028217" lon="9.61893560383372"><ele>31.0</ele><time>2026-05-03T06:49:41Z</time></trkpt><trkpt lat="39.955783995690965" lon="9.618777783558002"><ele>31.0</ele><time>2026-05-03T06:49:42Z</time></trkpt><trkpt lat="39.95582886792555" lon="9.61860931885099"><ele>31.0</ele><time>2026-05-03T06:49:43Z</time></trkpt><trkpt lat="39.955879467761086" lon="9.618429832586862"><ele>29.75</ele><time>2026-05-03T06:49:44Z</time></trkpt><trkpt lat="39.95591996131304" lon="9.618256504199243"><ele>28.5</ele><time>2026-05-03T06:49:45Z</time></trkpt><trkpt lat="39.95597219458764" lon="9.618074297422702"><ele>27.25</ele><time>2026-05-03T06:49:46Z</time></trkpt><trkpt lat="39.956028938341895" lon="9.617882491338994"><ele>26.0</ele><time>2026-05-03T06:49:47Z</time></trkpt><trkpt lat="39.95608374229276" lon="9.617687675095167"><ele>26.0</ele><time>2026-05-03T06:49:48Z</time></trkpt><trkpt lat="39.95613358320175" lon="9.617499323084626"><ele>26.0</ele><time>2026-05-03T06:49:49Z</time></trkpt><trkpt lat="39.956178359199264" lon="9.617324467104897"><ele>26.0</ele><time>2026-05-03T06:49:50Z</time></trkpt><trkpt lat="39.95622108097349" lon="9.61716235310017"><ele>26.0</ele><time>2026-05-03T06:49:51Z</time></trkpt><trkpt lat="39.956266695117286" lon="9.617014019836123"><ele>26.0</ele><time>2026-05-03T06:49:52Z</time></trkpt><trkpt lat="39.95632816654126" lon="9.616872370865403"><ele>26.0</ele><time>2026-05-03T06:49:53Z</time></trkpt><trkpt lat="39.95640757175199" lon="9.616753159134289"><ele>26.0</ele><time>2026-05-03T06:49:54Z</time></trkpt><trkpt lat="39.956506950065524" lon="9.61665053021963"><ele>26.0</ele><time>2026-05-03T06:49:55Z</time></trkpt><trkpt lat="39.956622402101814" lon="9.616563274425975"><ele>26.25</ele><time>2026-05-03T06:49:56Z</time></trkpt><trkpt lat="39.95674645600276" lon="9.616485307400312"><ele>26.5</ele><time>2026-05-03T06:49:57Z</time></trkpt><trkpt lat="39.95688062019455" lon="9.616405382469447"><ele>26.75</ele><time>2026-05-03T06:49:58Z</time></trkpt><trkpt lat="39.95701143459718" lon="9.61633061849373"><ele>27.0</ele><time>2026-05-03T06:49:59Z</time></trkpt><trkpt lat="39.95713565470417" lon="9.616255365847726"><ele>27.0</ele><time>2026-05-03T06:50:00Z</time></trkpt><trkpt lat="39.95724333053246" lon="9.61618706492605"><ele>27.0</ele><time>2026-05-03T06:50:01Z</time></trkpt><trkpt lat="39.95731653482956" lon="9.616128565469989"><ele>27.0</ele><time>2026-05-03T06:50:02Z</time></trkpt><trkpt lat="39.957370261287295" lon="9.616061761036093"><ele>27.0</ele><time>2026-05-03T06:50:03.001Z</time></trkpt><trkpt lat="39.95740784613652" lon="9.615986168661104"><ele>27.0</ele><time>2026-05-03T06:50:04.001Z</time></trkpt><trkpt lat="39.95745460537444" lon="9.615911601637167"><ele>27.0</ele><time>2026-05-03T06:50:05.001Z</time></trkpt><trkpt lat="39.9574707972473" lon="9.615788140483549"><ele>28.75</ele><time>2026-05-03T06:50:06.001Z</time></trkpt><trkpt lat="39.957462671464455" lon="9.615651544784821"><ele>30.5</ele><time>2026-05-03T06:50:07.001Z</time></trkpt><trkpt lat="39.95743650242685" lon="9.615503397589201"><ele>32.25</ele><time>2026-05-03T06:50:08.001Z</time></trkpt><trkpt lat="39.95744339295577" lon="9.615331480327157"><ele>34.0</ele><time>2026-05-03T06:50:09.001Z</time></trkpt><trkpt lat="39.95746843760198" lon="9.615148957145298"><ele>34.333333333333336</ele><time>2026-05-03T06:50:10.001Z</time></trkpt><trkpt lat="39.95751168254638" lon="9.614957883003312"><ele>34.666666666666664</ele><time>2026-05-03T06:50:11.001Z</time></trkpt><trkpt lat="39.95756987563073" lon="9.614753901369173"><ele>35.0</ele><time>2026-05-03T06:50:12.001Z</time></trkpt><trkpt lat="39.9576306780683" lon="9.61454306605964"><ele>38.666666666666664</ele><time>2026-05-03T06:50:13.001Z</time></trkpt><trkpt lat="39.95768871558771" lon="9.614322414300077"><ele>42.333333333333336</ele><time>2026-05-03T06:50:14.001Z</time></trkpt><trkpt lat="39.957748460365735" lon="9.614096697955874"><ele>46.0</ele><time>2026-05-03T06:50:15.001Z</time></trkpt><trkpt lat="39.957810680459474" lon="9.613864760587054"><ele>42.0</ele><time>2026-05-03T06:50:16.001Z</time></trkpt><trkpt lat="39.9578720308812" lon="9.613632815668975"><ele>38.0</ele><time>2026-05-03T06:50:17.001Z</time></trkpt><trkpt lat="39.95793102328295" lon="9.613417976489359"><ele>34.0</ele><time>2026-05-03T06:50:18.001Z</time></trkpt><trkpt lat="39.95798776008224" lon="9.613214869140654"><ele>34.0</ele><time>2026-05-03T06:50:19.001Z</time></trkpt><trkpt lat="39.95803576397027" lon="9.613020727495389"><ele>34.0</ele><time>2026-05-03T06:50:20.001Z</time></trkpt><trkpt lat="39.958065106308425" lon="9.612840929921829"><ele>34.0</ele><time>2026-05-03T06:50:21.001Z</time></trkpt><trkpt lat="39.95809709667278" lon="9.612662304292781"><ele>34.0</ele><time>2026-05-03T06:50:22.001Z</time></trkpt><trkpt lat="39.95808683042323" lon="9.612477626178627"><ele>33.75</ele><time>2026-05-03T06:50:23.001Z</time></trkpt><trkpt lat="39.958046601392816" lon="9.612295129585586"><ele>33.5</ele><time>2026-05-03T06:50:24.001Z</time></trkpt><trkpt lat="39.958002090978965" lon="9.61210832465857"><ele>33.25</ele><time>2026-05-03T06:50:25.001Z</time></trkpt><trkpt lat="39.957956828273396" lon="9.611918362620058"><ele>33.0</ele><time>2026-05-03T06:50:26.001Z</time></trkpt><trkpt lat="39.95790872886322" lon="9.611721814828128"><ele>33.0</ele><time>2026-05-03T06:50:27.001Z</time></trkpt><trkpt lat="39.957847239356475" lon="9.611532094857562"><ele>33.0</ele><time>2026-05-03T06:50:28.001Z</time></trkpt><trkpt lat="39.957810913841634" lon="9.611337012479785"><ele>33.0</ele><time>2026-05-03T06:50:29.001Z</time></trkpt><trkpt lat="39.957780439311755" lon="9.611141376440347"><ele>35.666666666666664</ele><time>2026-05-03T06:50:30.001Z</time></trkpt><trkpt lat="39.957756928790275" lon="9.610941311130574"><ele>38.33333333333333</ele><time>2026-05-03T06:50:31.001Z</time></trkpt><trkpt lat="39.9577465108297" lon="9.61073168257965"><ele>41.0</ele><time>2026-05-03T06:50:32.001Z</time></trkpt><trkpt lat="39.957748800309986" lon="9.610515628808244"><ele>44.666666666666664</ele><time>2026-05-03T06:50:33.001Z</time></trkpt><trkpt lat="39.95775951612609" lon="9.610299619725902"><ele>48.33333333333333</ele><time>2026-05-03T06:50:34.001Z</time></trkpt><trkpt lat="39.957778517283046" lon="9.610081059899677"><ele>52.0</ele><time>2026-05-03T06:50:35.001Z</time></trkpt><trkpt lat="39.95779618151271" lon="9.609868066482543"><ele>52.0</ele><time>2026-05-03T06:50:36.001Z</time></trkpt><trkpt lat="39.95780518611683" lon="9.609661427618981"><ele>52.0</ele><time>2026-05-03T06:50:37.001Z</time></trkpt><trkpt lat="39.9577936799417" lon="9.609465732221455"><ele>52.0</ele><time>2026-05-03T06:50:38.001Z</time></trkpt><trkpt lat="39.95775892186342" lon="9.609271533046217"><ele>52.666666666666664</ele><time>2026-05-03T06:50:39.001Z</time></trkpt><trkpt lat="39.957704926380785" lon="9.609080944772757"><ele>53.33333333333333</ele><time>2026-05-03T06:50:40.001Z</time></trkpt><trkpt lat="39.95763959604231" lon="9.608896582949153"><ele>54.0</ele><time>2026-05-03T06:50:41.001Z</time></trkpt><trkpt lat="39.9575721490237" lon="9.608715920125247"><ele>52.0</ele><time>2026-05-03T06:50:42.001Z</time></trkpt><trkpt lat="39.95751737498821" lon="9.608540638286646"><ele>50.0</ele><time>2026-05-03T06:50:43.001Z</time></trkpt><trkpt lat="39.957485002630754" lon="9.60837760727195"><ele>48.0</ele><time>2026-05-03T06:50:44.001Z</time></trkpt><trkpt lat="39.95747583534079" lon="9.60821999904877"><ele>46.0</ele><time>2026-05-03T06:50:45.001Z</time></trkpt><trkpt lat="39.95748455495547" lon="9.608061489354728"><ele>46.0</ele><time>2026-05-03T06:50:46.001Z</time></trkpt><trkpt lat="39.95750429304786" lon="9.607904960904996"><ele>46.0</ele><time>2026-05-03T06:50:47.001Z</time></trkpt><trkpt lat="39.95753854610501" lon="9.60775723952572"><ele>46.0</ele><time>2026-05-03T06:50:48.001Z</time></trkpt><trkpt lat="39.95758764321751" lon="9.607626625537481"><ele>46.0</ele><time>2026-05-03T06:50:49.001Z</time></trkpt><trkpt lat="39.95765025260139" lon="9.607517313140182"><ele>51.5</ele><time>2026-05-03T06:50:50.001Z</time></trkpt><trkpt lat="39.957738316978684" lon="9.607417279262942"><ele>57.0</ele><time>2026-05-03T06:50:51.001Z</time></trkpt><trkpt lat="39.95784585003137" lon="9.60731639085942"><ele>62.5</ele><time>2026-05-03T06:50:52.001Z</time></trkpt><trkpt lat="39.95795844525781" lon="9.607202364213826"><ele>68.0</ele><time>2026-05-03T06:50:53.001Z</time></trkpt><trkpt lat="39.95806409836055" lon="9.607065398817994"><ele>61.66666666666667</ele><time>2026-05-03T06:50:54.001Z</time></trkpt><trkpt lat="39.95816408213273" lon="9.606907519863261"><ele>55.33333333333333</ele><time>2026-05-03T06:50:55.001Z</time></trkpt><trkpt lat="39.9582604865997" lon="9.606740603425962"><ele>49.0</ele><time>2026-05-03T06:50:56.001Z</time></trkpt><trkpt lat="39.958352506366566" lon="9.606591934859702"><ele>48.25</ele><time>2026-05-03T06:50:57.001Z</time></trkpt><trkpt lat="39.95844752261948" lon="9.606455936142101"><ele>47.5</ele><time>2026-05-03T06:50:58.001Z</time></trkpt><trkpt lat="39.95855499767372" lon="9.606328727055807"><ele>46.75</ele><time>2026-05-03T06:50:59.001Z</time></trkpt><trkpt lat="39.95867202016463" lon="9.606220507887176"><ele>46.0</ele><time>2026-05-03T06:51:00.001Z</time></trkpt><trkpt lat="39.95878993162279" lon="9.606126311738226"><ele>46.0</ele><time>2026-05-03T06:51:01.001Z</time></trkpt><trkpt lat="39.95890328837217" lon="9.60604131341108"><ele>46.0</ele><time>2026-05-03T06:51:02.001Z</time></trkpt><trkpt lat="39.959012144360656" lon="9.60596372837078"><ele>46.0</ele><time>2026-05-03T06:51:03.001Z</time></trkpt><trkpt lat="39.95912031551309" lon="9.605887100532428"><ele>46.0</ele><time>2026-05-03T06:51:04.001Z</time></trkpt><trkpt lat="39.95923858970009" lon="9.605809511263006"><ele>48.0</ele><time>2026-05-03T06:51:05.001Z</time></trkpt><trkpt lat="39.95936641014442" lon="9.605748026625324"><ele>50.0</ele><time>2026-05-03T06:51:06.001Z</time></trkpt><trkpt lat="39.959503469286936" lon="9.605695439469597"><ele>52.0</ele><time>2026-05-03T06:51:07.001Z</time></trkpt><trkpt lat="39.95964503738977" lon="9.605648941159526"><ele>54.0</ele><time>2026-05-03T06:51:08.001Z</time></trkpt><trkpt lat="39.95979154200895" lon="9.60560678495685"><ele>54.0</ele><time>2026-05-03T06:51:09.001Z</time></trkpt><trkpt lat="39.959938434267556" lon="9.605562196785002"><ele>54.0</ele><time>2026-05-03T06:51:10.001Z</time></trkpt><trkpt lat="39.960073277428876" lon="9.605520992421463"><ele>54.0</ele><time>2026-05-03T06:51:11.001Z</time></trkpt><trkpt lat="39.9601992172291" lon="9.60548030254519"><ele>54.0</ele><time>2026-05-03T06:51:12Z</time></trkpt><trkpt lat="39.96032036912967" lon="9.605441044872704"><ele>55.5</ele><time>2026-05-03T06:51:13Z</time></trkpt><trkpt lat="39.960437397971454" lon="9.6054053825728"><ele>57.0</ele><time>2026-05-03T06:51:14Z</time></trkpt><trkpt lat="39.96056217310535" lon="9.60537952050349"><ele>58.5</ele><time>2026-05-03T06:51:15Z</time></trkpt><trkpt lat="39.960693138903345" lon="9.60537510194339"><ele>60.0</ele><time>2026-05-03T06:51:16Z</time></trkpt><trkpt lat="39.960834188036515" lon="9.605382335295523"><ele>64.0</ele><time>2026-05-03T06:51:17Z</time></trkpt><trkpt lat="39.96097973603163" lon="9.60539799154782"><ele>68.0</ele><time>2026-05-03T06:51:18Z</time></trkpt><trkpt lat="39.961127743083644" lon="9.605409258352834"><ele>72.0</ele><time>2026-05-03T06:51:19Z</time></trkpt><trkpt lat="39.96128388006725" lon="9.605402359968762"><ele>72.0</ele><time>2026-05-03T06:51:20Z</time></trkpt><trkpt lat="39.96144902020572" lon="9.605380901526328"><ele>72.0</ele><time>2026-05-03T06:51:21Z</time></trkpt><trkpt lat="39.96161774900622" lon="9.605343518632274"><ele>72.0</ele><time>2026-05-03T06:51:22Z</time></trkpt><trkpt lat="39.961793138845394" lon="9.605298269333613"><ele>67.0</ele><time>2026-05-03T06:51:23Z</time></trkpt><trkpt lat="39.961978131912254" lon="9.60525443070646"><ele>62.0</ele><time>2026-05-03T06:51:24Z</time></trkpt><trkpt lat="39.962171164834274" lon="9.605211813658501"><ele>57.0</ele><time>2026-05-03T06:51:25Z</time></trkpt><trkpt lat="39.96236575462637" lon="9.605171044976284"><ele>60.0</ele><time>2026-05-03T06:51:26Z</time></trkpt><trkpt lat="39.962552389532746" lon="9.60513171139792"><ele>63.0</ele><time>2026-05-03T06:51:27Z</time></trkpt><trkpt lat="39.96272433836158" lon="9.605098648653621"><ele>66.0</ele><time>2026-05-03T06:51:28Z</time></trkpt><trkpt lat="39.962882523632395" lon="9.60507056685048"><ele>66.0</ele><time>2026-05-03T06:51:29Z</time></trkpt><trkpt lat="39.96303302708777" lon="9.605047651760291"><ele>66.0</ele><time>2026-05-03T06:51:30Z</time></trkpt><trkpt lat="39.96315860553836" lon="9.605033239467542"><ele>66.0</ele><time>2026-05-03T06:51:31Z</time></trkpt><trkpt lat="39.96326592102891" lon="9.605024501841413"><ele>66.0</ele><time>2026-05-03T06:51:32Z</time></trkpt><trkpt lat="39.96336137086983" lon="9.60501600337345"><ele>68.0</ele><time>2026-05-03T06:51:33Z</time></trkpt><trkpt lat="39.963442093843796" lon="9.604996143087956"><ele>70.0</ele><time>2026-05-03T06:51:34Z</time></trkpt><trkpt lat="39.9635146284238" lon="9.604964335862533"><ele>72.0</ele><time>2026-05-03T06:51:35Z</time></trkpt><trkpt lat="39.96358211979715" lon="9.604913179582782"><ele>74.0</ele><time>2026-05-03T06:51:36Z</time></trkpt><trkpt lat="39.96365147866006" lon="9.604845906596925"><ele>76.0</ele><time>2026-05-03T06:51:37Z</time></trkpt><trkpt lat="39.96373006432028" lon="9.604775706298131"><ele>78.0</ele><time>2026-05-03T06:51:38Z</time></trkpt><trkpt lat="39.963827581991836" lon="9.604716695770103"><ele>78.0</ele><time>2026-05-03T06:51:39Z</time></trkpt><trkpt lat="39.96393842319511" lon="9.604656278594927"><ele>78.0</ele><time>2026-05-03T06:51:40Z</time></trkpt><trkpt lat="39.964054082686815" lon="9.604599652782973"><ele>78.0</ele><time>2026-05-03T06:51:41Z</time></trkpt><trkpt lat="39.96416548001317" lon="9.604565328338854"><ele>78.0</ele><time>2026-05-03T06:51:42Z</time></trkpt><trkpt lat="39.96427456674011" lon="9.604550894121578"><ele>77.5</ele><time>2026-05-03T06:51:43.001Z</time></trkpt><trkpt lat="39.96438343364744" lon="9.60455002265046"><ele>77.0</ele><time>2026-05-03T06:51:44.001Z</time></trkpt><trkpt lat="39.96450139152049" lon="9.604571334420317"><ele>76.5</ele><time>2026-05-03T06:51:45.001Z</time></trkpt><trkpt lat="39.96463304217007" lon="9.604609468282566"><ele>76.0</ele><time>2026-05-03T06:51:46.001Z</time></trkpt><trkpt lat="39.96477675810411" lon="9.604657237769326"><ele>76.0</ele><time>2026-05-03T06:51:47.001Z</time></trkpt><trkpt lat="39.96491800846471" lon="9.60469665971535"><ele>76.0</ele><time>2026-05-03T06:51:48.001Z</time></trkpt><trkpt lat="39.96506111537854" lon="9.60471817420715"><ele>76.0</ele><time>2026-05-03T06:51:49.001Z</time></trkpt><trkpt lat="39.9652142024849" lon="9.604725903612414"><ele>76.0</ele><time>2026-05-03T06:51:50.001Z</time></trkpt><trkpt lat="39.965374251311644" lon="9.60473552708639"><ele>77.19999999999999</ele><time>2026-05-03T06:51:51.001Z</time></trkpt><trkpt lat="39.965512934355935" lon="9.604748702897501"><ele>78.39999999999999</ele><time>2026-05-03T06:51:52.001Z</time></trkpt><trkpt lat="39.96563233771844" lon="9.604753419425133"><ele>79.6</ele><time>2026-05-03T06:51:53.001Z</time></trkpt><trkpt lat="39.965731690031625" lon="9.604745279052207"><ele>80.8</ele><time>2026-05-03T06:51:54.001Z</time></trkpt><trkpt lat="39.965816285567975" lon="9.604713372657182"><ele>82.0</ele><time>2026-05-03T06:51:55.001Z</time></trkpt><trkpt lat="39.965879058490394" lon="9.604650223327502"><ele>88.0</ele><time>2026-05-03T06:51:56.001Z</time></trkpt><trkpt lat="39.96592604857393" lon="9.604556616181402"><ele>94.0</ele><time>2026-05-03T06:51:57.001Z</time></trkpt><trkpt lat="39.96597315653221" lon="9.604431587249271"><ele>100.0</ele><time>2026-05-03T06:51:58.001Z</time></trkpt><trkpt lat="39.96599763086493" lon="9.604268489931844"><ele>106.0</ele><time>2026-05-03T06:51:59.001Z</time></trkpt><trkpt lat="39.96601947497633" lon="9.604087946449601"><ele>106.0</ele><time>2026-05-03T06:52:00.001Z</time></trkpt><trkpt lat="39.9660466430086" lon="9.603887769388862"><ele>106.0</ele><time>2026-05-03T06:52:01.001Z</time></trkpt><trkpt lat="39.96607563905952" lon="9.603674433685194"><ele>106.0</ele><time>2026-05-03T06:52:02.001Z</time></trkpt><trkpt lat="39.96610548406816" lon="9.603454248446907"><ele>101.66666666666667</ele><time>2026-05-03T06:52:03.001Z</time></trkpt><trkpt lat="39.966118160197595" lon="9.603241267579609"><ele>97.33333333333334</ele><time>2026-05-03T06:52:04.001Z</time></trkpt><trkpt lat="39.96614345507834" lon="9.603050541781364"><ele>93.0</ele><time>2026-05-03T06:52:05.001Z</time></trkpt><trkpt lat="39.96616765648134" lon="9.602862374618574"><ele>90.0</ele><time>2026-05-03T06:52:06.001Z</time></trkpt><trkpt lat="39.96620125346026" lon="9.602664422631753"><ele>87.0</ele><time>2026-05-03T06:52:07.001Z</time></trkpt><trkpt lat="39.96626423833293" lon="9.602468363679215"><ele>84.0</ele><time>2026-05-03T06:52:08.001Z</time></trkpt><trkpt lat="39.966325564823336" lon="9.602266202653526"><ele>84.0</ele><time>2026-05-03T06:52:09.001Z</time></trkpt><trkpt lat="39.96639268716186" lon="9.602056679414313"><ele>84.0</ele><time>2026-05-03T06:52:10.001Z</time></trkpt><trkpt lat="39.96645920589262" lon="9.60185213544044"><ele>84.0</ele><time>2026-05-03T06:52:11.001Z</time></trkpt><trkpt lat="39.9665147960915" lon="9.601632284099715"><ele>85.33333333333333</ele><time>2026-05-03T06:52:12.001Z</time></trkpt><trkpt lat="39.96658152677264" lon="9.601435309989744"><ele>86.66666666666666</ele><time>2026-05-03T06:52:13.001Z</time></trkpt><trkpt lat="39.96664682045252" lon="9.601241466307389"><ele>88.0</ele><time>2026-05-03T06:52:14.001Z</time></trkpt><trkpt lat="39.96671092563463" lon="9.60104909448185"><ele>88.0</ele><time>2026-05-03T06:52:15.001Z</time></trkpt><trkpt lat="39.9667679335528" lon="9.600864224734268"><ele>88.0</ele><time>2026-05-03T06:52:16.001Z</time></trkpt><trkpt lat="39.96682685982567" lon="9.60068654801751"><ele>88.0</ele><time>2026-05-03T06:52:17.001Z</time></trkpt><trkpt lat="39.96688104237547" lon="9.600521448070753"><ele>88.0</ele><time>2026-05-03T06:52:18.001Z</time></trkpt><trkpt lat="39.96693282340886" lon="9.600367260168138"><ele>84.75</ele><time>2026-05-03T06:52:19.001Z</time></trkpt><trkpt lat="39.96698570175523" lon="9.60022417771987"><ele>81.5</ele><time>2026-05-03T06:52:20.001Z</time></trkpt><trkpt lat="39.967045378739435" lon="9.600084674446578"><ele>78.25</ele><time>2026-05-03T06:52:21.001Z</time></trkpt><trkpt lat="39.967114558004575" lon="9.599949207683494"><ele>75.0</ele><time>2026-05-03T06:52:22.001Z</time></trkpt><trkpt lat="39.967200595223254" lon="9.599818319298151"><ele>75.0</ele><time>2026-05-03T06:52:23.001Z</time></trkpt><trkpt lat="39.96729567735217" lon="9.599685737299533"><ele>75.0</ele><time>2026-05-03T06:52:24.001Z</time></trkpt><trkpt lat="39.96738211543895" lon="9.59954913733747"><ele>75.0</ele><time>2026-05-03T06:52:25.001Z</time></trkpt><trkpt lat="39.967461073744346" lon="9.59940551811105"><ele>75.0</ele><time>2026-05-03T06:52:26.001Z</time></trkpt><trkpt lat="39.967528378437656" lon="9.599266975831247"><ele>76.4</ele><time>2026-05-03T06:52:27.001Z</time></trkpt><trkpt lat="39.967585774939295" lon="9.599134295664154"><ele>77.8</ele><time>2026-05-03T06:52:28.001Z</time></trkpt><trkpt lat="39.96762375935682" lon="9.59902318523979"><ele>79.19999999999999</ele><time>2026-05-03T06:52:29.001Z</time></trkpt><trkpt lat="39.96764902305124" lon="9.598934370752522"><ele>80.6</ele><time>2026-05-03T06:52:30.001Z</time></trkpt><trkpt lat="39.967639776637384" lon="9.598834717536326"><ele>82.0</ele><time>2026-05-03T06:52:31.001Z</time></trkpt><trkpt lat="39.967593438847814" lon="9.598730409629896"><ele>79.5</ele><time>2026-05-03T06:52:32.001Z</time></trkpt><trkpt lat="39.9675179951638" lon="9.598632233311795"><ele>77.0</ele><time>2026-05-03T06:52:33.001Z</time></trkpt><trkpt lat="39.967422900730334" lon="9.598540023055829"><ele>74.5</ele><time>2026-05-03T06:52:34.001Z</time></trkpt><trkpt lat="39.96732010441248" lon="9.598442301254622"><ele>72.0</ele><time>2026-05-03T06:52:35.001Z</time></trkpt><trkpt lat="39.967226562089074" lon="9.598350567816626"><ele>72.0</ele><time>2026-05-03T06:52:36.001Z</time></trkpt><trkpt lat="39.96712687614733" lon="9.598255257614122"><ele>72.0</ele><time>2026-05-03T06:52:37.001Z</time></trkpt><trkpt lat="39.96702986923833" lon="9.598183678367855"><ele>72.0</ele><time>2026-05-03T06:52:38.001Z</time></trkpt><trkpt lat="39.96695500969668" lon="9.598095160168853"><ele>72.0</ele><time>2026-05-03T06:52:39.001Z</time></trkpt><trkpt lat="39.96690938563266" lon="9.597998403620945"><ele>72.0</ele><time>2026-05-03T06:52:40.001Z</time></trkpt><trkpt lat="39.966892326547715" lon="9.597888410888688"><ele>74.0</ele><time>2026-05-03T06:52:41.001Z</time></trkpt><trkpt lat="39.96689758991006" lon="9.597755561024808"><ele>76.0</ele><time>2026-05-03T06:52:42.001Z</time></trkpt><trkpt lat="39.96691483404803" lon="9.597595912567504"><ele>78.0</ele><time>2026-05-03T06:52:43.001Z</time></trkpt><trkpt lat="39.96690066374528" lon="9.597440154431277"><ele>80.0</ele><time>2026-05-03T06:52:44.001Z</time></trkpt><trkpt lat="39.966922394184074" lon="9.597258307658278"><ele>80.0</ele><time>2026-05-03T06:52:45.001Z</time></trkpt><trkpt lat="39.9669477149945" lon="9.597061820181363"><ele>80.0</ele><time>2026-05-03T06:52:46.001Z</time></trkpt><trkpt lat="39.96697770804944" lon="9.596858657339265"><ele>80.0</ele><time>2026-05-03T06:52:47.001Z</time></trkpt><trkpt lat="39.96700781694014" lon="9.59664669834817"><ele>80.0</ele><time>2026-05-03T06:52:48.001Z</time></trkpt><trkpt lat="39.96703208338281" lon="9.596437129834392"><ele>80.0</ele><time>2026-05-03T06:52:49.001Z</time></trkpt><trkpt lat="39.96705333385873" lon="9.596233252906677"><ele>80.0</ele><time>2026-05-03T06:52:50.001Z</time></trkpt><trkpt lat="39.967076560342804" lon="9.596031915662094"><ele>78.33333333333334</ele><time>2026-05-03T06:52:51.001Z</time></trkpt><trkpt lat="39.96709691491383" lon="9.595832806729055"><ele>76.66666666666667</ele><time>2026-05-03T06:52:52.001Z</time></trkpt><trkpt lat="39.96712595918061" lon="9.595639236501636"><ele>75.0</ele><time>2026-05-03T06:52:53.001Z</time></trkpt><trkpt lat="39.96716778324514" lon="9.595452789974464"><ele>73.33333333333333</ele><time>2026-05-03T06:52:54.001Z</time></trkpt><trkpt lat="39.967223532421464" lon="9.59526680981777"><ele>71.66666666666666</ele><time>2026-05-03T06:52:55.001Z</time></trkpt><trkpt lat="39.96729047641697" lon="9.595076074287427"><ele>70.0</ele><time>2026-05-03T06:52:56.001Z</time></trkpt><trkpt lat="39.96737291301588" lon="9.594878861119849"><ele>70.0</ele><time>2026-05-03T06:52:57.001Z</time></trkpt><trkpt lat="39.967464950094815" lon="9.594674638964054"><ele>70.0</ele><time>2026-05-03T06:52:58.001Z</time></trkpt><trkpt lat="39.967552680465836" lon="9.594469017950445"><ele>70.0</ele><time>2026-05-03T06:52:59.001Z</time></trkpt><trkpt lat="39.96763988986989" lon="9.594274981304773"><ele>73.66666666666666</ele><time>2026-05-03T06:53:00.001Z</time></trkpt><trkpt lat="39.96772370968263" lon="9.59408339299989"><ele>77.33333333333333</ele><time>2026-05-03T06:53:01.001Z</time></trkpt><trkpt lat="39.967804944442065" lon="9.593896140527221"><ele>81.0</ele><time>2026-05-03T06:53:02.001Z</time></trkpt><trkpt lat="39.96788537845624" lon="9.593709594430829"><ele>79.75</ele><time>2026-05-03T06:53:03.001Z</time></trkpt><trkpt lat="39.96796226564874" lon="9.59352984120839"><ele>78.5</ele><time>2026-05-03T06:53:04.001Z</time></trkpt><trkpt lat="39.968030316973156" lon="9.59336789222694"><ele>77.25</ele><time>2026-05-03T06:53:05.001Z</time></trkpt><trkpt lat="39.968099505770816" lon="9.59320694209777"><ele>76.0</ele><time>2026-05-03T06:53:06.001Z</time></trkpt><trkpt lat="39.968168545894024" lon="9.593050344395229"><ele>76.0</ele><time>2026-05-03T06:53:07.001Z</time></trkpt><trkpt lat="39.9682354096892" lon="9.59289682090694"><ele>76.0</ele><time>2026-05-03T06:53:08.001Z</time></trkpt><trkpt lat="39.96830403311734" lon="9.592740430909892"><ele>76.0</ele><time>2026-05-03T06:53:09.001Z</time></trkpt><trkpt lat="39.96836920807391" lon="9.592588699062313"><ele>76.0</ele><time>2026-05-03T06:53:10.001Z</time></trkpt><trkpt lat="39.968434181605225" lon="9.59243710435155"><ele>79.0</ele><time>2026-05-03T06:53:11.001Z</time></trkpt><trkpt lat="39.96850568139653" lon="9.592273716175844"><ele>82.0</ele><time>2026-05-03T06:53:12.001Z</time></trkpt><trkpt lat="39.96858055780871" lon="9.59210132660323"><ele>85.0</ele><time>2026-05-03T06:53:13.001Z</time></trkpt><trkpt lat="39.968658101445726" lon="9.591920525045632"><ele>85.0</ele><time>2026-05-03T06:53:14.001Z</time></trkpt><trkpt lat="39.968734305968326" lon="9.59174265397641"><ele>85.0</ele><time>2026-05-03T06:53:15.001Z</time></trkpt><trkpt lat="39.968812868739526" lon="9.591561125992186"><ele>85.0</ele><time>2026-05-03T06:53:16.001Z</time></trkpt><trkpt lat="39.968903365960834" lon="9.59137862549716"><ele>85.0</ele><time>2026-05-03T06:53:17.001Z</time></trkpt><trkpt lat="39.96900882552992" lon="9.591194684663739"><ele>85.0</ele><time>2026-05-03T06:53:18.001Z</time></trkpt><trkpt lat="39.96910083732014" lon="9.59101952382466"><ele>85.0</ele><time>2026-05-03T06:53:19.001Z</time></trkpt><trkpt lat="39.96918921533881" lon="9.590873304332128"><ele>83.5</ele><time>2026-05-03T06:53:20.001Z</time></trkpt><trkpt lat="39.9692727661881" lon="9.590732611636273"><ele>82.0</ele><time>2026-05-03T06:53:21.001Z</time></trkpt><trkpt lat="39.96937756320498" lon="9.590593784826314"><ele>80.5</ele><time>2026-05-03T06:53:22.001Z</time></trkpt><trkpt lat="39.96949569951814" lon="9.59045722424352"><ele>79.0</ele><time>2026-05-03T06:53:23.001Z</time></trkpt><trkpt lat="39.96961924892849" lon="9.590327828423169"><ele>79.0</ele><time>2026-05-03T06:53:24.001Z</time></trkpt><trkpt lat="39.96975205622267" lon="9.590206788696337"><ele>79.0</ele><time>2026-05-03T06:53:25.001Z</time></trkpt><trkpt lat="39.96989760322999" lon="9.590087718648029"><ele>79.0</ele><time>2026-05-03T06:53:26.001Z</time></trkpt><trkpt lat="39.970039424022715" lon="9.589970720238327"><ele>83.5</ele><time>2026-05-03T06:53:27.001Z</time></trkpt><trkpt lat="39.97016977782483" lon="9.589870687858754"><ele>88.0</ele><time>2026-05-03T06:53:28.001Z</time></trkpt><trkpt lat="39.970291160864186" lon="9.58977102875913"><ele>92.5</ele><time>2026-05-03T06:53:29.001Z</time></trkpt><trkpt lat="39.9703991156041" lon="9.589675977345536"><ele>97.0</ele><time>2026-05-03T06:53:30.001Z</time></trkpt><trkpt lat="39.970497548507865" lon="9.589580207979433"><ele>92.0</ele><time>2026-05-03T06:53:31.001Z</time></trkpt><trkpt lat="39.970571295138576" lon="9.589469377321189"><ele>87.0</ele><time>2026-05-03T06:53:32.001Z</time></trkpt><trkpt lat="39.97062596434097" lon="9.589339294199773"><ele>82.0</ele><time>2026-05-03T06:53:33.001Z</time></trkpt><trkpt lat="39.97065764756448" lon="9.589182692493157"><ele>77.0</ele><time>2026-05-03T06:53:34.001Z</time></trkpt><trkpt lat="39.97067759707196" lon="9.589018665893725"><ele>77.0</ele><time>2026-05-03T06:53:35.001Z</time></trkpt><trkpt lat="39.9706788918488" lon="9.58886055573264"><ele>77.0</ele><time>2026-05-03T06:53:36.001Z</time></trkpt><trkpt lat="39.970681181289685" lon="9.588709654687323"><ele>77.0</ele><time>2026-05-03T06:53:37.001Z</time></trkpt><trkpt lat="39.97064242893648" lon="9.588570285563426"><ele>77.0</ele><time>2026-05-03T06:53:38.001Z</time></trkpt><trkpt lat="39.97058898389493" lon="9.588440934387261"><ele>75.6</ele><time>2026-05-03T06:53:39.001Z</time></trkpt><trkpt lat="39.97052299661189" lon="9.588328979716444"><ele>74.2</ele><time>2026-05-03T06:53:40.001Z</time></trkpt><trkpt lat="39.97045137169092" lon="9.588242149146538"><ele>72.8</ele><time>2026-05-03T06:53:41.001Z</time></trkpt><trkpt lat="39.970378831735026" lon="9.588178360929234"><ele>71.4</ele><time>2026-05-03T06:53:42.001Z</time></trkpt><trkpt lat="39.97027303220715" lon="9.588176122717524"><ele>70.0</ele><time>2026-05-03T06:53:43.001Z</time></trkpt><trkpt lat="39.97016044698898" lon="9.588221401341029"><ele>70.0</ele><time>2026-05-03T06:53:44.001Z</time></trkpt><trkpt lat="39.97004690375432" lon="9.588282480761473"><ele>70.0</ele><time>2026-05-03T06:53:45.001Z</time></trkpt><trkpt lat="39.96992171284699" lon="9.588349233313307"><ele>70.0</ele><time>2026-05-03T06:53:46.001Z</time></trkpt><trkpt lat="39.969792514101165" lon="9.58841812189144"><ele>70.0</ele><time>2026-05-03T06:53:47.001Z</time></trkpt><trkpt lat="39.969666097627744" lon="9.588478471587802"><ele>70.0</ele><time>2026-05-03T06:53:48.001Z</time></trkpt><trkpt lat="39.96954158535773" lon="9.588530268311223"><ele>70.0</ele><time>2026-05-03T06:53:49.001Z</time></trkpt><trkpt lat="39.9694107505207" lon="9.588573618910635"><ele>70.0</ele><time>2026-05-03T06:53:50.001Z</time></trkpt><trkpt lat="39.969287252878175" lon="9.58859802858049"><ele>70.0</ele><time>2026-05-03T06:53:51.001Z</time></trkpt><trkpt lat="39.96917638892548" lon="9.588595253781127"><ele>69.25</ele><time>2026-05-03T06:53:52.001Z</time></trkpt><trkpt lat="39.96907715766344" lon="9.588566026091895"><ele>68.5</ele><time>2026-05-03T06:53:53.001Z</time></trkpt><trkpt lat="39.96896602210658" lon="9.588517829157606"><ele>67.75</ele><time>2026-05-03T06:53:54.001Z</time></trkpt><trkpt lat="39.968846931717536" lon="9.588459213746596"><ele>67.0</ele><time>2026-05-03T06:53:55.001Z</time></trkpt><trkpt lat="39.96871840972004" lon="9.58839565077943"><ele>67.0</ele><time>2026-05-03T06:53:56.001Z</time></trkpt><trkpt lat="39.968600527368125" lon="9.588352924642185"><ele>67.0</ele><time>2026-05-03T06:53:57.001Z</time></trkpt><trkpt lat="39.96850437951073" lon="9.588299490680395"><ele>67.0</ele><time>2026-05-03T06:53:58.001Z</time></trkpt><trkpt lat="39.96841720096216" lon="9.588246504477368"><ele>67.0</ele><time>2026-05-03T06:53:59.001Z</time></trkpt><trkpt lat="39.968351267790766" lon="9.588173507339508"><ele>67.0</ele><time>2026-05-03T06:54:00.001Z</time></trkpt><trkpt lat="39.96830728335131" lon="9.588082261345177"><ele>67.0</ele><time>2026-05-03T06:54:01.001Z</time></trkpt><trkpt lat="39.96827734266317" lon="9.58796176446453"><ele>67.0</ele><time>2026-05-03T06:54:02.001Z</time></trkpt><trkpt lat="39.96826327097429" lon="9.587812962213116"><ele>67.0</ele><time>2026-05-03T06:54:03.001Z</time></trkpt><trkpt lat="39.96825522178902" lon="9.587633318790449"><ele>67.0</ele><time>2026-05-03T06:54:04.001Z</time></trkpt><trkpt lat="39.968229028435616" lon="9.587475011772359"><ele>67.0</ele><time>2026-05-03T06:54:05.001Z</time></trkpt><trkpt lat="39.96818975510534" lon="9.587305330880318"><ele>67.0</ele><time>2026-05-03T06:54:06.001Z</time></trkpt><trkpt lat="39.96812671013728" lon="9.587144623737478"><ele>67.0</ele><time>2026-05-03T06:54:07.001Z</time></trkpt><trkpt lat="39.96806210656854" lon="9.58698283551751"><ele>67.0</ele><time>2026-05-03T06:54:08.001Z</time></trkpt><trkpt lat="39.96797751036939" lon="9.586860204271904"><ele>66.75</ele><time>2026-05-03T06:54:09.001Z</time></trkpt><trkpt lat="39.967882250570334" lon="9.586768918893798"><ele>66.5</ele><time>2026-05-03T06:54:10.001Z</time></trkpt><trkpt lat="39.96776726045632" lon="9.586711821143469"><ele>66.25</ele><time>2026-05-03T06:54:11.001Z</time></trkpt><trkpt lat="39.96763466738328" lon="9.586686658605093"><ele>66.0</ele><time>2026-05-03T06:54:12.001Z</time></trkpt><trkpt lat="39.96749411238142" lon="9.58663189578817"><ele>66.0</ele><time>2026-05-03T06:54:13.001Z</time></trkpt><trkpt lat="39.9673458056831" lon="9.586555649821827"><ele>66.0</ele><time>2026-05-03T06:54:14.001Z</time></trkpt><trkpt lat="39.96719150851144" lon="9.586467576072508"><ele>66.0</ele><time>2026-05-03T06:54:15.001Z</time></trkpt><trkpt lat="39.967053558735955" lon="9.586378865216883"><ele>66.0</ele><time>2026-05-03T06:54:16.001Z</time></trkpt><trkpt lat="39.9669276474709" lon="9.586269421953007"><ele>66.0</ele><time>2026-05-03T06:54:17.001Z</time></trkpt><trkpt lat="39.966796286269364" lon="9.586199089394874"><ele>66.0</ele><time>2026-05-03T06:54:18.001Z</time></trkpt><trkpt lat="39.966687782173196" lon="9.586108303431176"><ele>66.0</ele><time>2026-05-03T06:54:19.001Z</time></trkpt><trkpt lat="39.96658434390344" lon="9.58600415061973"><ele>66.0</ele><time>2026-05-03T06:54:20.001Z</time></trkpt><trkpt lat="39.966486327934" lon="9.585881104945392"><ele>66.0</ele><time>2026-05-03T06:54:21.001Z</time></trkpt><trkpt lat="39.966396643678884" lon="9.585753147680354"><ele>66.0</ele><time>2026-05-03T06:54:22.001Z</time></trkpt><trkpt lat="39.96630611523977" lon="9.58562417560451"><ele>66.0</ele><time>2026-05-03T06:54:23.001Z</time></trkpt><trkpt lat="39.966221440793944" lon="9.585493582212987"><ele>66.0</ele><time>2026-05-03T06:54:24.001Z</time></trkpt><trkpt lat="39.96614302244249" lon="9.585354690111432"><ele>66.0</ele><time>2026-05-03T06:54:25.001Z</time></trkpt><trkpt lat="39.96607065841915" lon="9.585209369320749"><ele>66.0</ele><time>2026-05-03T06:54:26.001Z</time></trkpt><trkpt lat="39.96600368106465" lon="9.585060473208625"><ele>66.0</ele><time>2026-05-03T06:54:27.001Z</time></trkpt><trkpt lat="39.965937117030435" lon="9.584911822181065"><ele>65.75</ele><time>2026-05-03T06:54:28.001Z</time></trkpt><trkpt lat="39.965879496992486" lon="9.584764860432145"><ele>65.5</ele><time>2026-05-03T06:54:29.001Z</time></trkpt><trkpt lat="39.96583299381666" lon="9.584625763857"><ele>65.25</ele><time>2026-05-03T06:54:30.001Z</time></trkpt><trkpt lat="39.965798382383504" lon="9.584491277014003"><ele>65.0</ele><time>2026-05-03T06:54:31.001Z</time></trkpt><trkpt lat="39.96578366377524" lon="9.584357674330523"><ele>66.0</ele><time>2026-05-03T06:54:32.001Z</time></trkpt><trkpt lat="39.965784790248044" lon="9.584212582899404"><ele>67.0</ele><time>2026-05-03T06:54:33.001Z</time></trkpt><trkpt lat="39.965801062197976" lon="9.58404275846469"><ele>68.0</ele><time>2026-05-03T06:54:34.001Z</time></trkpt><trkpt lat="39.96582547904727" lon="9.583849521170585"><ele>69.0</ele><time>2026-05-03T06:54:35.001Z</time></trkpt><trkpt lat="39.96585073957375" lon="9.58364392097625"><ele>75.66666666666667</ele><time>2026-05-03T06:54:36.001Z</time></trkpt><trkpt lat="39.96587442932928" lon="9.583421138861956"><ele>82.33333333333334</ele><time>2026-05-03T06:54:37.001Z</time></trkpt><trkpt lat="39.96589780486008" lon="9.583194648241987"><ele>89.0</ele><time>2026-05-03T06:54:38.001Z</time></trkpt><trkpt lat="39.96592053642536" lon="9.582967351162024"><ele>89.0</ele><time>2026-05-03T06:54:39.001Z</time></trkpt><trkpt lat="39.9659499003849" lon="9.58274248610565"><ele>89.0</ele><time>2026-05-03T06:54:40.001Z</time></trkpt><trkpt lat="39.965991630758786" lon="9.582516290891153"><ele>89.0</ele><time>2026-05-03T06:54:41.001Z</time></trkpt><trkpt lat="39.966002605033694" lon="9.582326827171407"><ele>89.0</ele><time>2026-05-03T06:54:42.001Z</time></trkpt><trkpt lat="39.96604161891786" lon="9.582112827656665"><ele>89.0</ele><time>2026-05-03T06:54:43.001Z</time></trkpt><trkpt lat="39.96608583369876" lon="9.581901029055677"><ele>89.0</ele><time>2026-05-03T06:54:44.001Z</time></trkpt><trkpt lat="39.96613280553177" lon="9.581697379269468"><ele>87.66666666666667</ele><time>2026-05-03T06:54:45.001Z</time></trkpt><trkpt lat="39.96618505776431" lon="9.581497668470544"><ele>86.33333333333333</ele><time>2026-05-03T06:54:46.001Z</time></trkpt><trkpt lat="39.96623328525872" lon="9.581305639781327"><ele>85.0</ele><time>2026-05-03T06:54:47.001Z</time></trkpt><trkpt lat="39.966269280952055" lon="9.581115002394917"><ele>87.0</ele><time>2026-05-03T06:54:48.001Z</time></trkpt><trkpt lat="39.96628936618403" lon="9.580925320835876"><ele>89.0</ele><time>2026-05-03T06:54:49.001Z</time></trkpt><trkpt lat="39.96628082313161" lon="9.580735501675383"><ele>91.0</ele><time>2026-05-03T06:54:50.001Z</time></trkpt><trkpt lat="39.9662602238116" lon="9.580540366642149"><ele>93.0</ele><time>2026-05-03T06:54:51.001Z</time></trkpt><trkpt lat="39.96623336162667" lon="9.580341531468735"><ele>97.0</ele><time>2026-05-03T06:54:52.001Z</time></trkpt><trkpt lat="39.96619253993633" lon="9.580154112080786"><ele>101.0</ele><time>2026-05-03T06:54:53.001Z</time></trkpt><trkpt lat="39.9661257685282" lon="9.579969978838438"><ele>105.0</ele><time>2026-05-03T06:54:54.001Z</time></trkpt><trkpt lat="39.966036337571396" lon="9.579790555759322"><ele>105.0</ele><time>2026-05-03T06:54:55.001Z</time></trkpt><trkpt lat="39.96595110092095" lon="9.5796089402524"><ele>105.0</ele><time>2026-05-03T06:54:56.001Z</time></trkpt><trkpt lat="39.96587405659853" lon="9.579424768703333"><ele>105.0</ele><time>2026-05-03T06:54:57.001Z</time></trkpt><trkpt lat="39.9657983831388" lon="9.579238022724867"><ele>96.0</ele><time>2026-05-03T06:54:58.001Z</time></trkpt><trkpt lat="39.9657232203506" lon="9.579061770817235"><ele>87.0</ele><time>2026-05-03T06:54:59.001Z</time></trkpt><trkpt lat="39.96563554225043" lon="9.578884358390683"><ele>78.0</ele><time>2026-05-03T06:55:00.001Z</time></trkpt><trkpt lat="39.96553572529694" lon="9.578714315762909"><ele>81.0</ele><time>2026-05-03T06:55:01.001Z</time></trkpt><trkpt lat="39.96542484855835" lon="9.578550405316927"><ele>84.0</ele><time>2026-05-03T06:55:02.001Z</time></trkpt><trkpt lat="39.96533473185697" lon="9.578364189868475"><ele>87.0</ele><time>2026-05-03T06:55:03.001Z</time></trkpt><trkpt lat="39.96525026095731" lon="9.578182267643536"><ele>87.0</ele><time>2026-05-03T06:55:04.001Z</time></trkpt><trkpt lat="39.96517310844664" lon="9.577989060012241"><ele>87.0</ele><time>2026-05-03T06:55:05.001Z</time></trkpt><trkpt lat="39.96509700348186" lon="9.577790465216287"><ele>87.0</ele><time>2026-05-03T06:55:06.001Z</time></trkpt><trkpt lat="39.96502741392275" lon="9.577600615091376"><ele>83.0</ele><time>2026-05-03T06:55:07.001Z</time></trkpt><trkpt lat="39.964939408267185" lon="9.577414586683975"><ele>79.0</ele><time>2026-05-03T06:55:08.001Z</time></trkpt><trkpt lat="39.96486839585873" lon="9.577233498110928"><ele>75.0</ele><time>2026-05-03T06:55:09.001Z</time></trkpt><trkpt lat="39.96479930005813" lon="9.577064303019984"><ele>75.0</ele><time>2026-05-03T06:55:10.001Z</time></trkpt><trkpt lat="39.96472686482395" lon="9.576894530914776"><ele>75.0</ele><time>2026-05-03T06:55:11.001Z</time></trkpt><trkpt lat="39.96464859775679" lon="9.57673469774358"><ele>75.0</ele><time>2026-05-03T06:55:12.001Z</time></trkpt><trkpt lat="39.96456935955364" lon="9.576557395369877"><ele>75.0</ele><time>2026-05-03T06:55:13.001Z</time></trkpt><trkpt lat="39.964459829437025" lon="9.576396716298527"><ele>75.0</ele><time>2026-05-03T06:55:14.001Z</time></trkpt><trkpt lat="39.96435212284304" lon="9.576251838573734"><ele>75.0</ele><time>2026-05-03T06:55:15.001Z</time></trkpt><trkpt lat="39.964259054179074" lon="9.57612215677867"><ele>75.25</ele><time>2026-05-03T06:55:16.001Z</time></trkpt><trkpt lat="39.96416122689595" lon="9.57600952755827"><ele>75.5</ele><time>2026-05-03T06:55:17.001Z</time></trkpt><trkpt lat="39.964099594770246" lon="9.575884785646538"><ele>75.75</ele><time>2026-05-03T06:55:18.001Z</time></trkpt><trkpt lat="39.96405921373467" lon="9.575757093177819"><ele>76.0</ele><time>2026-05-03T06:55:19.001Z</time></trkpt><trkpt lat="39.96404386854029" lon="9.575626801918748"><ele>76.0</ele><time>2026-05-03T06:55:20.001Z</time></trkpt><trkpt lat="39.96405609563968" lon="9.575479704995013"><ele>76.0</ele><time>2026-05-03T06:55:21.001Z</time></trkpt><trkpt lat="39.96404290701808" lon="9.575317550995607"><ele>76.0</ele><time>2026-05-03T06:55:22.001Z</time></trkpt><trkpt lat="39.96405450768665" lon="9.575149529832364"><ele>76.0</ele><time>2026-05-03T06:55:23.001Z</time></trkpt><trkpt lat="39.96407839966055" lon="9.5749771185818"><ele>76.75</ele><time>2026-05-03T06:55:24.001Z</time></trkpt><trkpt lat="39.96410562788767" lon="9.574801915521704"><ele>77.5</ele><time>2026-05-03T06:55:25.001Z</time></trkpt><trkpt lat="39.96413960734824" lon="9.57461948204973"><ele>78.25</ele><time>2026-05-03T06:55:26.001Z</time></trkpt><trkpt lat="39.96417976456837" lon="9.574436194739192"><ele>79.0</ele><time>2026-05-03T06:55:27.001Z</time></trkpt><trkpt lat="39.964224535757715" lon="9.574250398982144"><ele>82.75</ele><time>2026-05-03T06:55:28.001Z</time></trkpt><trkpt lat="39.96429100962744" lon="9.574074457185935"><ele>86.5</ele><time>2026-05-03T06:55:29.001Z</time></trkpt><trkpt lat="39.96433035182986" lon="9.573886670329586"><ele>90.25</ele><time>2026-05-03T06:55:30.001Z</time></trkpt><trkpt lat="39.96438963818591" lon="9.573708058072114"><ele>94.0</ele><time>2026-05-03T06:55:31.001Z</time></trkpt><trkpt lat="39.964452636233965" lon="9.573530140163436"><ele>94.0</ele><time>2026-05-03T06:55:32.001Z</time></trkpt><trkpt lat="39.96451281852543" lon="9.573352656294139"><ele>94.0</ele><time>2026-05-03T06:55:33Z</time></trkpt><trkpt lat="39.96457207495079" lon="9.573174504217343"><ele>94.0</ele><time>2026-05-03T06:55:34Z</time></trkpt><trkpt lat="39.96463074436455" lon="9.572998777955908"><ele>94.0</ele><time>2026-05-03T06:55:35Z</time></trkpt><trkpt lat="39.964686780085536" lon="9.572834348971874"><ele>93.0</ele><time>2026-05-03T06:55:36Z</time></trkpt><trkpt lat="39.964743531742975" lon="9.57267354132585"><ele>92.0</ele><time>2026-05-03T06:55:37Z</time></trkpt><trkpt lat="39.96480218902714" lon="9.572533104767984"><ele>91.0</ele><time>2026-05-03T06:55:38Z</time></trkpt><trkpt lat="39.964871838824195" lon="9.57240090822108"><ele>90.0</ele><time>2026-05-03T06:55:39Z</time></trkpt><trkpt lat="39.96495841547242" lon="9.57228672876173"><ele>91.0</ele><time>2026-05-03T06:55:40Z</time></trkpt><trkpt lat="39.9650661608293" lon="9.572197829313868"><ele>92.0</ele><time>2026-05-03T06:55:41Z</time></trkpt><trkpt lat="39.96515649105604" lon="9.572063884730401"><ele>93.0</ele><time>2026-05-03T06:55:42Z</time></trkpt><trkpt lat="39.96523614190764" lon="9.571981046180152"><ele>94.0</ele><time>2026-05-03T06:55:43Z</time></trkpt><trkpt lat="39.96530403725694" lon="9.571899879744864"><ele>94.0</ele><time>2026-05-03T06:55:44Z</time></trkpt><trkpt lat="39.965374957035195" lon="9.571847356646478"><ele>94.0</ele><time>2026-05-03T06:55:45Z</time></trkpt><trkpt lat="39.96542630499998" lon="9.571769719424308"><ele>94.0</ele><time>2026-05-03T06:55:46Z</time></trkpt><trkpt lat="39.965493687743596" lon="9.571706835293512"><ele>94.0</ele><time>2026-05-03T06:55:47Z</time></trkpt><trkpt lat="39.96557676457108" lon="9.571629060767846"><ele>94.0</ele><time>2026-05-03T06:55:48Z</time></trkpt><trkpt lat="39.96567487212269" lon="9.571530996234332"><ele>94.0</ele><time>2026-05-03T06:55:49Z</time></trkpt><trkpt lat="39.96577827947294" lon="9.571416464195355"><ele>94.0</ele><time>2026-05-03T06:55:50Z</time></trkpt><trkpt lat="39.965889562777264" lon="9.571289190697348"><ele>94.0</ele><time>2026-05-03T06:55:51Z</time></trkpt><trkpt lat="39.96600615552408" lon="9.57116286366947"><ele>94.0</ele><time>2026-05-03T06:55:52Z</time></trkpt><trkpt lat="39.96612949515731" lon="9.571033657148421"><ele>94.0</ele><time>2026-05-03T06:55:53Z</time></trkpt><trkpt lat="39.96625347463333" lon="9.57090519628044"><ele>94.0</ele><time>2026-05-03T06:55:54Z</time></trkpt><trkpt lat="39.96637605658434" lon="9.57077568398178"><ele>94.0</ele><time>2026-05-03T06:55:55Z</time></trkpt><trkpt lat="39.96649556036196" lon="9.570643406586184"><ele>94.0</ele><time>2026-05-03T06:55:56Z</time></trkpt><trkpt lat="39.96661361368511" lon="9.57052151406677"><ele>94.0</ele><time>2026-05-03T06:55:57Z</time></trkpt><trkpt lat="39.966729185500284" lon="9.570399269703048"><ele>94.0</ele><time>2026-05-03T06:55:58Z</time></trkpt><trkpt lat="39.96683550158584" lon="9.570271123033494"><ele>94.0</ele><time>2026-05-03T06:55:59Z</time></trkpt><trkpt lat="39.966946081177404" lon="9.57013055208909"><ele>93.5</ele><time>2026-05-03T06:56:00Z</time></trkpt><trkpt lat="39.967048375963074" lon="9.569986454793813"><ele>93.0</ele><time>2026-05-03T06:56:01Z</time></trkpt><trkpt lat="39.967132167749824" lon="9.569857348576065"><ele>92.5</ele><time>2026-05-03T06:56:02Z</time></trkpt><trkpt lat="39.9672028685405" lon="9.56973958698399"><ele>92.0</ele><time>2026-05-03T06:56:03Z</time></trkpt><trkpt lat="39.96725644004305" lon="9.56964545104467"><ele>92.0</ele><time>2026-05-03T06:56:04Z</time></trkpt><trkpt lat="39.967290653808135" lon="9.569574424264834"><ele>92.0</ele><time>2026-05-03T06:56:05Z</time></trkpt><trkpt lat="39.96735471818536" lon="9.569463300535585"><ele>92.0</ele><time>2026-05-03T06:56:07Z</time></trkpt><trkpt lat="39.96735931773698" lon="9.569336946971424"><ele>92.0</ele><time>2026-05-03T06:56:08Z</time></trkpt><trkpt lat="39.96734260648959" lon="9.56925724930953"><ele>92.0</ele><time>2026-05-03T06:56:09Z</time></trkpt><trkpt lat="39.96729176934115" lon="9.569095337737457"><ele>93.19999999999999</ele><time>2026-05-03T06:56:11Z</time></trkpt><trkpt lat="39.967241482934625" lon="9.569009791936368"><ele>94.4</ele><time>2026-05-03T06:56:12Z</time></trkpt><trkpt lat="39.96716088802261" lon="9.568933201380782"><ele>95.6</ele><time>2026-05-03T06:56:13Z</time></trkpt><trkpt lat="39.967072400281175" lon="9.568853887822817"><ele>96.80000000000001</ele><time>2026-05-03T06:56:14Z</time></trkpt><trkpt lat="39.966986460011576" lon="9.568787354711073"><ele>98.0</ele><time>2026-05-03T06:56:15Z</time></trkpt><trkpt lat="39.96694767040875" lon="9.568656672647043"><ele>100.0</ele><time>2026-05-03T06:56:16Z</time></trkpt><trkpt lat="39.96689613083153" lon="9.568529811016305"><ele>102.0</ele><time>2026-05-03T06:56:17Z</time></trkpt><trkpt lat="39.966849216636525" lon="9.568409169254686"><ele>104.00000000000001</ele><time>2026-05-03T06:56:18Z</time></trkpt><trkpt lat="39.96680501716612" lon="9.568295508378037"><ele>106.0</ele><time>2026-05-03T06:56:19Z</time></trkpt><trkpt lat="39.966764778361856" lon="9.568185271077043"><ele>108.0</ele><time>2026-05-03T06:56:20Z</time></trkpt><trkpt lat="39.966727101097504" lon="9.568081278045865"><ele>106.60000000000001</ele><time>2026-05-03T06:56:21Z</time></trkpt><trkpt lat="39.966693007705075" lon="9.567981502415059"><ele>105.20000000000002</ele><time>2026-05-03T06:56:22Z</time></trkpt><trkpt lat="39.96665704040304" lon="9.567874845894252"><ele>103.8</ele><time>2026-05-03T06:56:23Z</time></trkpt><trkpt lat="39.966622685690325" lon="9.56777297361926"><ele>102.4</ele><time>2026-05-03T06:56:24Z</time></trkpt><trkpt lat="39.96657316728479" lon="9.56764978104172"><ele>101.0</ele><time>2026-05-03T06:56:25Z</time></trkpt><trkpt lat="39.96652498095195" lon="9.567525347056765"><ele>101.0</ele><time>2026-05-03T06:56:26Z</time></trkpt><trkpt lat="39.966475048002245" lon="9.567406188414228"><ele>101.0</ele><time>2026-05-03T06:56:27Z</time></trkpt><trkpt lat="39.96641612224469" lon="9.567298993214692"><ele>101.0</ele><time>2026-05-03T06:56:28Z</time></trkpt><trkpt lat="39.96635404256451" lon="9.567199078311203"><ele>101.0</ele><time>2026-05-03T06:56:29Z</time></trkpt><trkpt lat="39.96629062679512" lon="9.567115477734147"><ele>101.0</ele><time>2026-05-03T06:56:30Z</time></trkpt><trkpt lat="39.966218628161386" lon="9.567027394607114"><ele>101.33333333333333</ele><time>2026-05-03T06:56:31Z</time></trkpt><trkpt lat="39.96615223741035" lon="9.56694440126801"><ele>101.66666666666666</ele><time>2026-05-03T06:56:32Z</time></trkpt><trkpt lat="39.96610232524426" lon="9.566861908250328"><ele>102.0</ele><time>2026-05-03T06:56:33Z</time></trkpt><trkpt lat="39.966063029837855" lon="9.56678229076499"><ele>102.33333333333334</ele><time>2026-05-03T06:56:34Z</time></trkpt><trkpt lat="39.9660309419192" lon="9.56669144446407"><ele>102.66666666666667</ele><time>2026-05-03T06:56:35Z</time></trkpt><trkpt lat="39.96599865391292" lon="9.566587486374063"><ele>103.0</ele><time>2026-05-03T06:56:36Z</time></trkpt><trkpt lat="39.9659933247068" lon="9.56646893245594"><ele>103.00000000000001</ele><time>2026-05-03T06:56:37Z</time></trkpt><trkpt lat="39.96598892690048" lon="9.566356600676343"><ele>103.0</ele><time>2026-05-03T06:56:38Z</time></trkpt><trkpt lat="39.96597982074817" lon="9.566249803774252"><ele>103.0</ele><time>2026-05-03T06:56:39Z</time></trkpt><trkpt lat="39.96596232031113" lon="9.566142686459495"><ele>103.0</ele><time>2026-05-03T06:56:40Z</time></trkpt><trkpt lat="39.96595536996039" lon="9.566025655138546"><ele>103.00000000000001</ele><time>2026-05-03T06:56:41Z</time></trkpt><trkpt lat="39.96592062526635" lon="9.565912973472717"><ele>103.0</ele><time>2026-05-03T06:56:42Z</time></trkpt><trkpt lat="39.96587349920552" lon="9.56578066782273"><ele>102.5</ele><time>2026-05-03T06:56:43Z</time></trkpt><trkpt lat="39.965824692591035" lon="9.56564131150736"><ele>102.0</ele><time>2026-05-03T06:56:44Z</time></trkpt><trkpt lat="39.965769306814266" lon="9.565485524041026"><ele>101.5</ele><time>2026-05-03T06:56:45Z</time></trkpt><trkpt lat="39.965713626447204" lon="9.565338987991518"><ele>101.0</ele><time>2026-05-03T06:56:46Z</time></trkpt><trkpt lat="39.96564691128262" lon="9.56521578864233"><ele>101.0</ele><time>2026-05-03T06:56:47Z</time></trkpt><trkpt lat="39.96559329804254" lon="9.56507904940727"><ele>101.0</ele><time>2026-05-03T06:56:48Z</time></trkpt><trkpt lat="39.965542016220674" lon="9.564939511336165"><ele>101.0</ele><time>2026-05-03T06:56:49Z</time></trkpt><trkpt lat="39.96549018760259" lon="9.5648090906342"><ele>101.0</ele><time>2026-05-03T06:56:50Z</time></trkpt><trkpt lat="39.965440999633884" lon="9.564686207944519"><ele>101.0</ele><time>2026-05-03T06:56:51Z</time></trkpt><trkpt lat="39.96539387092309" lon="9.564569375727995"><ele>101.0</ele><time>2026-05-03T06:56:52Z</time></trkpt><trkpt lat="39.96535049629701" lon="9.564462130782186"><ele>101.0</ele><time>2026-05-03T06:56:53Z</time></trkpt><trkpt lat="39.96532021405658" lon="9.564362053833365"><ele>101.0</ele><time>2026-05-03T06:56:54Z</time></trkpt><trkpt lat="39.96524913663307" lon="9.564257400555443"><ele>101.0</ele><time>2026-05-03T06:56:56Z</time></trkpt><trkpt lat="39.965149671563246" lon="9.564207610680116"><ele>100.83333333333333</ele><time>2026-05-03T06:56:58Z</time></trkpt><trkpt lat="39.96508122404056" lon="9.564199301960954"><ele>100.66666666666666</ele><time>2026-05-03T06:56:59Z</time></trkpt><trkpt lat="39.96500932789536" lon="9.564211828464373"><ele>100.5</ele><time>2026-05-03T06:57:00Z</time></trkpt><trkpt lat="39.96494052496664" lon="9.564222896305735"><ele>100.33333333333334</ele><time>2026-05-03T06:57:01Z</time></trkpt><trkpt lat="39.96486028007007" lon="9.564274015879368"><ele>100.16666666666667</ele><time>2026-05-03T06:57:02Z</time></trkpt><trkpt lat="39.964775279935864" lon="9.56429552612622"><ele>100.0</ele><time>2026-05-03T06:57:03Z</time></trkpt><trkpt lat="39.96469992671143" lon="9.564346718135258"><ele>100.0</ele><time>2026-05-03T06:57:04Z</time></trkpt><trkpt lat="39.96462281666529" lon="9.564416629932785"><ele>100.0</ele><time>2026-05-03T06:57:05Z</time></trkpt><trkpt lat="39.96453912172416" lon="9.56449372594061"><ele>100.0</ele><time>2026-05-03T06:57:06Z</time></trkpt><trkpt lat="39.964450146285095" lon="9.564575686160897"><ele>100.0</ele><time>2026-05-03T06:57:07Z</time></trkpt><trkpt lat="39.9643644810365" lon="9.564654597192737"><ele>100.0</ele><time>2026-05-03T06:57:08.001Z</time></trkpt><trkpt lat="39.964297865789625" lon="9.564742222812583"><ele>100.00000000000001</ele><time>2026-05-03T06:57:09.001Z</time></trkpt><trkpt lat="39.96420979609571" lon="9.564797085970646"><ele>100.0</ele><time>2026-05-03T06:57:10.001Z</time></trkpt><trkpt lat="39.96413282175555" lon="9.564869213762664"><ele>100.0</ele><time>2026-05-03T06:57:11.001Z</time></trkpt><trkpt lat="39.96406173372319" lon="9.564930415795416"><ele>100.0</ele><time>2026-05-03T06:57:12.001Z</time></trkpt><trkpt lat="39.96399517140368" lon="9.564998470914592"><ele>100.00000000000001</ele><time>2026-05-03T06:57:13.001Z</time></trkpt><trkpt lat="39.963910866243886" lon="9.565018779337766"><ele>100.0</ele><time>2026-05-03T06:57:14.001Z</time></trkpt><trkpt lat="39.96381521120817" lon="9.565042102496651"><ele>99.0</ele><time>2026-05-03T06:57:15.001Z</time></trkpt><trkpt lat="39.96370938473882" lon="9.56506203393409"><ele>98.0</ele><time>2026-05-03T06:57:16.001Z</time></trkpt><trkpt lat="39.96360038393047" lon="9.565062545845512"><ele>97.0</ele><time>2026-05-03T06:57:17.001Z</time></trkpt><trkpt lat="39.963495452125336" lon="9.565049958872615"><ele>96.0</ele><time>2026-05-03T06:57:18.001Z</time></trkpt><trkpt lat="39.96338329023932" lon="9.565031033890897"><ele>95.0</ele><time>2026-05-03T06:57:19.001Z</time></trkpt><trkpt lat="39.96326965366031" lon="9.565001684127195"><ele>93.8</ele><time>2026-05-03T06:57:20.001Z</time></trkpt><trkpt lat="39.96315593953694" lon="9.564989518714755"><ele>92.6</ele><time>2026-05-03T06:57:21.001Z</time></trkpt><trkpt lat="39.963057356385626" lon="9.564937687541297"><ele>91.4</ele><time>2026-05-03T06:57:22.001Z</time></trkpt><trkpt lat="39.962967726063425" lon="9.56490143662196"><ele>90.2</ele><time>2026-05-03T06:57:23.001Z</time></trkpt><trkpt lat="39.96288321613774" lon="9.564859901732158"><ele>89.0</ele><time>2026-05-03T06:57:24.001Z</time></trkpt><trkpt lat="39.96280021003036" lon="9.564828260199947"><ele>89.0</ele><time>2026-05-03T06:57:25.001Z</time></trkpt><trkpt lat="39.962746477922465" lon="9.564750004695787"><ele>89.0</ele><time>2026-05-03T06:57:26.001Z</time></trkpt><trkpt lat="39.96268788766612" lon="9.564681705688315"><ele>89.0</ele><time>2026-05-03T06:57:27.001Z</time></trkpt><trkpt lat="39.96262861385598" lon="9.564611914083892"><ele>89.0</ele><time>2026-05-03T06:57:28.001Z</time></trkpt><trkpt lat="39.96257132064621" lon="9.564538530221524"><ele>89.0</ele><time>2026-05-03T06:57:29Z</time></trkpt><trkpt lat="39.962516398390314" lon="9.564466163964935"><ele>89.0</ele><time>2026-05-03T06:57:30Z</time></trkpt><trkpt lat="39.96245959323129" lon="9.564392137404212"><ele>90.0</ele><time>2026-05-03T06:57:31Z</time></trkpt><trkpt lat="39.9623921780942" lon="9.564309113031923"><ele>91.0</ele><time>2026-05-03T06:57:32Z</time></trkpt><trkpt lat="39.962308124224734" lon="9.564203627445936"><ele>92.0</ele><time>2026-05-03T06:57:33Z</time></trkpt><trkpt lat="39.96221874201154" lon="9.564087011960089"><ele>93.0</ele><time>2026-05-03T06:57:34Z</time></trkpt><trkpt lat="39.962138996535444" lon="9.563979171904691"><ele>93.0</ele><time>2026-05-03T06:57:35Z</time></trkpt><trkpt lat="39.96204440560843" lon="9.5638717794053"><ele>93.0</ele><time>2026-05-03T06:57:36Z</time></trkpt><trkpt lat="39.96196910104772" lon="9.563752477491489"><ele>93.0</ele><time>2026-05-03T06:57:37Z</time></trkpt><trkpt lat="39.96188500390624" lon="9.563644373166014"><ele>93.0</ele><time>2026-05-03T06:57:38Z</time></trkpt><trkpt lat="39.96180310977731" lon="9.563560098060583"><ele>93.2</ele><time>2026-05-03T06:57:39Z</time></trkpt><trkpt lat="39.96172658430806" lon="9.563493611007237"><ele>93.4</ele><time>2026-05-03T06:57:40Z</time></trkpt><trkpt lat="39.96165152089026" lon="9.563436884140515"><ele>93.60000000000001</ele><time>2026-05-03T06:57:41Z</time></trkpt><trkpt lat="39.96157391105141" lon="9.563385987207923"><ele>93.80000000000001</ele><time>2026-05-03T06:57:42Z</time></trkpt><trkpt lat="39.9614790786205" lon="9.563290095385046"><ele>94.0</ele><time>2026-05-03T06:57:43Z</time></trkpt><trkpt lat="39.96141972979867" lon="9.563225348478937"><ele>94.0</ele><time>2026-05-03T06:57:44Z</time></trkpt><trkpt lat="39.961345431633845" lon="9.563125070793792"><ele>94.0</ele><time>2026-05-03T06:57:45Z</time></trkpt><trkpt lat="39.9612643252564" lon="9.563017218363752"><ele>94.0</ele><time>2026-05-03T06:57:46Z</time></trkpt><trkpt lat="39.96119513053793" lon="9.56292520620002"><ele>94.0</ele><time>2026-05-03T06:57:47Z</time></trkpt><trkpt lat="39.96112788189204" lon="9.56283578181614"><ele>94.0</ele><time>2026-05-03T06:57:48Z</time></trkpt><trkpt lat="39.961072313691716" lon="9.562756985965724"><ele>94.5</ele><time>2026-05-03T06:57:49Z</time></trkpt><trkpt lat="39.961022415861606" lon="9.562673390397261"><ele>95.0</ele><time>2026-05-03T06:57:50Z</time></trkpt><trkpt lat="39.9609790205385" lon="9.562610918215896"><ele>95.5</ele><time>2026-05-03T06:57:51Z</time></trkpt><trkpt lat="39.96090182499617" lon="9.562563110550679"><ele>96.0</ele><time>2026-05-03T06:57:53Z</time></trkpt><trkpt lat="39.96081289838445" lon="9.562624004645201"><ele>96.50000000000001</ele><time>2026-05-03T06:57:55Z</time></trkpt><trkpt lat="39.96075764841673" lon="9.562708134680335"><ele>97.0</ele><time>2026-05-03T06:57:56Z</time></trkpt><trkpt lat="39.96067711290938" lon="9.562785729291994"><ele>97.5</ele><time>2026-05-03T06:57:57Z</time></trkpt><trkpt lat="39.960551999249304" lon="9.562974069660884"><ele>98.0</ele><time>2026-05-03T06:57:58Z</time></trkpt><trkpt lat="39.96058531706184" lon="9.563067138464445"><ele>98.5</ele><time>2026-05-03T06:58:01Z</time></trkpt><trkpt lat="39.96063009054449" lon="9.563178104162589"><ele>99.0</ele><time>2026-05-03T06:58:02Z</time></trkpt><trkpt lat="39.96068150238388" lon="9.56329839869469"><ele>99.0</ele><time>2026-05-03T06:58:03Z</time></trkpt><trkpt lat="39.96073358429665" lon="9.56342177570329"><ele>99.0</ele><time>2026-05-03T06:58:04Z</time></trkpt><trkpt lat="39.96082853618946" lon="9.56357186762364"><ele>99.0</ele><time>2026-05-03T06:58:05Z</time></trkpt><trkpt lat="39.960911808061816" lon="9.56369383063275"><ele>99.0</ele><time>2026-05-03T06:58:06Z</time></trkpt><trkpt lat="39.96100657375292" lon="9.5638279790664"><ele>97.25</ele><time>2026-05-03T06:58:07Z</time></trkpt><trkpt lat="39.9611086288876" lon="9.563962441706893"><ele>95.5</ele><time>2026-05-03T06:58:08Z</time></trkpt><trkpt lat="39.96119287804233" lon="9.56408182046215"><ele>93.75</ele><time>2026-05-03T06:58:09Z</time></trkpt><trkpt lat="39.96126475047518" lon="9.564187040221093"><ele>92.0</ele><time>2026-05-03T06:58:10Z</time></trkpt><trkpt lat="39.96132538458508" lon="9.564283100101449"><ele>92.0</ele><time>2026-05-03T06:58:11Z</time></trkpt><trkpt lat="39.96136154479383" lon="9.564368049485758"><ele>92.0</ele><time>2026-05-03T06:58:12Z</time></trkpt><trkpt lat="39.96141287625174" lon="9.564449919824416"><ele>92.0</ele><time>2026-05-03T06:58:14Z</time></trkpt><trkpt lat="39.96131911971972" lon="9.564526574029818"><ele>92.0</ele><time>2026-05-03T06:58:17Z</time></trkpt><trkpt lat="39.96120809600753" lon="9.564556625599595"><ele>92.0</ele><time>2026-05-03T06:58:19Z</time></trkpt><trkpt lat="39.961122409670324" lon="9.564449971533763"><ele>92.0</ele><time>2026-05-03T06:58:21Z</time></trkpt><trkpt lat="39.96106118581876" lon="9.564376576910544"><ele>92.0</ele><time>2026-05-03T06:58:22Z</time></trkpt><trkpt lat="39.96098295953001" lon="9.564281953656765"><ele>92.0</ele><time>2026-05-03T06:58:23Z</time></trkpt><trkpt lat="39.960889705011695" lon="9.564185226955669"><ele>92.0</ele><time>2026-05-03T06:58:24Z</time></trkpt><trkpt lat="39.96079024588614" lon="9.564126306666275"><ele>92.0</ele><time>2026-05-03T06:58:25Z</time></trkpt><trkpt lat="39.96067656716798" lon="9.564054820845994"><ele>94.0</ele><time>2026-05-03T06:58:26Z</time></trkpt><trkpt lat="39.96057127756164" lon="9.563999445841162"><ele>96.0</ele><time>2026-05-03T06:58:27Z</time></trkpt><trkpt lat="39.9604794903247" lon="9.563924275031177"><ele>98.0</ele><time>2026-05-03T06:58:28Z</time></trkpt><trkpt lat="39.960408144259816" lon="9.563872877877632"><ele>100.0</ele><time>2026-05-03T06:58:29Z</time></trkpt><trkpt lat="39.96035582973914" lon="9.563825109698508"><ele>102.0</ele><time>2026-05-03T06:58:30Z</time></trkpt><trkpt lat="39.96031041637112" lon="9.56371865893655"><ele>101.39999999999999</ele><time>2026-05-03T06:58:32Z</time></trkpt><trkpt lat="39.96037458178202" lon="9.563574186605328"><ele>100.8</ele><time>2026-05-03T06:58:34Z</time></trkpt><trkpt lat="39.96039303855286" lon="9.563484401193161"><ele>100.2</ele><time>2026-05-03T06:58:35Z</time></trkpt><trkpt lat="39.96038519977205" lon="9.563358219995068"><ele>99.6</ele><time>2026-05-03T06:58:36Z</time></trkpt><trkpt lat="39.9603336108567" lon="9.56321571803344"><ele>99.0</ele><time>2026-05-03T06:58:37Z</time></trkpt><trkpt lat="39.96028721735282" lon="9.563044319184522"><ele>99.0</ele><time>2026-05-03T06:58:38Z</time></trkpt><trkpt lat="39.96025062946483" lon="9.562896208404563"><ele>99.0</ele><time>2026-05-03T06:58:39Z</time></trkpt><trkpt lat="39.96022133818253" lon="9.56277335809812"><ele>99.0</ele><time>2026-05-03T06:58:40Z</time></trkpt><trkpt lat="39.960198857986946" lon="9.562651093502994"><ele>99.0</ele><time>2026-05-03T06:58:41Z</time></trkpt><trkpt lat="39.9601600014307" lon="9.562557572244774"><ele>99.0</ele><time>2026-05-03T06:58:42Z</time></trkpt><trkpt lat="39.960092728530235" lon="9.562465424851235"><ele>101.2</ele><time>2026-05-03T06:58:43Z</time></trkpt><trkpt lat="39.960002862068485" lon="9.562375344305785"><ele>103.4</ele><time>2026-05-03T06:58:44Z</time></trkpt><trkpt lat="39.95991954268446" lon="9.562298175988513"><ele>105.6</ele><time>2026-05-03T06:58:45Z</time></trkpt><trkpt lat="39.95985225005561" lon="9.56221257897759"><ele>107.8</ele><time>2026-05-03T06:58:46Z</time></trkpt><trkpt lat="39.959802027588275" lon="9.562118562602722"><ele>110.0</ele><time>2026-05-03T06:58:47Z</time></trkpt><trkpt lat="39.9597515129065" lon="9.562035022184684"><ele>108.99999999999999</ele><time>2026-05-03T06:58:48Z</time></trkpt><trkpt lat="39.959687695642316" lon="9.56196087250825"><ele>108.0</ele><time>2026-05-03T06:58:49Z</time></trkpt><trkpt lat="39.95959690779253" lon="9.561922382371986"><ele>107.0</ele><time>2026-05-03T06:58:50Z</time></trkpt><trkpt lat="39.95951624471385" lon="9.561906138705545"><ele>106.0</ele><time>2026-05-03T06:58:51Z</time></trkpt><trkpt lat="39.959436763908435" lon="9.56189007284049"><ele>104.99999999999999</ele><time>2026-05-03T06:58:52Z</time></trkpt><trkpt lat="39.95936424525736" lon="9.561843437555627"><ele>104.0</ele><time>2026-05-03T06:58:53Z</time></trkpt><trkpt lat="39.9592968805673" lon="9.561773808531662"><ele>104.0</ele><time>2026-05-03T06:58:54Z</time></trkpt><trkpt lat="39.95922556816383" lon="9.561697928623369"><ele>104.0</ele><time>2026-05-03T06:58:55Z</time></trkpt><trkpt lat="39.95916570668013" lon="9.561588927645355"><ele>104.0</ele><time>2026-05-03T06:58:56Z</time></trkpt><trkpt lat="39.95909384934321" lon="9.561452562120639"><ele>104.0</ele><time>2026-05-03T06:58:57Z</time></trkpt><trkpt lat="39.95900635566494" lon="9.561299995621884"><ele>110.75</ele><time>2026-05-03T06:58:58Z</time></trkpt><trkpt lat="39.95890326253743" lon="9.56116230218135"><ele>117.5</ele><time>2026-05-03T06:58:59Z</time></trkpt><trkpt lat="39.95882586726869" lon="9.561027623648155"><ele>124.25</ele><time>2026-05-03T06:59:00Z</time></trkpt><trkpt lat="39.95874547788002" lon="9.560908637200376"><ele>131.0</ele><time>2026-05-03T06:59:01Z</time></trkpt><trkpt lat="39.958659209972424" lon="9.560799252293615"><ele>131.0</ele><time>2026-05-03T06:59:02Z</time></trkpt><trkpt lat="39.958552848316" lon="9.560734432559386"><ele>131.0</ele><time>2026-05-03T06:59:03Z</time></trkpt><trkpt lat="39.958508235926764" lon="9.560643420312514"><ele>131.0</ele><time>2026-05-03T06:59:04Z</time></trkpt><trkpt lat="39.95848090119769" lon="9.56052628293718"><ele>131.0</ele><time>2026-05-03T06:59:05Z</time></trkpt><trkpt lat="39.958436103670664" lon="9.560420272456508"><ele>131.0</ele><time>2026-05-03T06:59:06Z</time></trkpt><trkpt lat="39.95843013959568" lon="9.56033091061233"><ele>135.6</ele><time>2026-05-03T06:59:07Z</time></trkpt><trkpt lat="39.958491519266936" lon="9.560221372124937"><ele>140.2</ele><time>2026-05-03T06:59:09Z</time></trkpt><trkpt lat="39.95857774418801" lon="9.56020933547727"><ele>144.8</ele><time>2026-05-03T06:59:10Z</time></trkpt><trkpt lat="39.95868297665322" lon="9.5601661101261"><ele>149.4</ele><time>2026-05-03T06:59:11Z</time></trkpt><trkpt lat="39.95880166751258" lon="9.56013596526928"><ele>154.0</ele><time>2026-05-03T06:59:12Z</time></trkpt><trkpt lat="39.95893194775053" lon="9.560108949655271"><ele>154.0</ele><time>2026-05-03T06:59:13Z</time></trkpt><trkpt lat="39.95906785674247" lon="9.560073491588426"><ele>154.0</ele><time>2026-05-03T06:59:14.001Z</time></trkpt><trkpt lat="39.9591883735285" lon="9.560037384934175"><ele>154.0</ele><time>2026-05-03T06:59:15.001Z</time></trkpt><trkpt lat="39.95929766063657" lon="9.560019361986654"><ele>154.0</ele><time>2026-05-03T06:59:16.001Z</time></trkpt><trkpt lat="39.959398332456026" lon="9.560012868271373"><ele>150.0</ele><time>2026-05-03T06:59:17.001Z</time></trkpt><trkpt lat="39.959480037488085" lon="9.559992686945941"><ele>146.0</ele><time>2026-05-03T06:59:18.001Z</time></trkpt><trkpt lat="39.959547245292676" lon="9.559943828432992"><ele>142.0</ele><time>2026-05-03T06:59:19.001Z</time></trkpt><trkpt lat="39.959595049816244" lon="9.559850766645265"><ele>138.0</ele><time>2026-05-03T06:59:20Z</time></trkpt><trkpt lat="39.95961716262006" lon="9.559740532248728"><ele>134.0</ele><time>2026-05-03T06:59:21Z</time></trkpt><trkpt lat="39.95962523567149" lon="9.559595987450047"><ele>130.0</ele><time>2026-05-03T06:59:22Z</time></trkpt><trkpt lat="39.95962830006224" lon="9.55944940397653"><ele>130.0</ele><time>2026-05-03T06:59:23Z</time></trkpt><trkpt lat="39.95961892110475" lon="9.559285134714838"><ele>130.0</ele><time>2026-05-03T06:59:24Z</time></trkpt><trkpt lat="39.95960707364615" lon="9.559137569718862"><ele>130.0</ele><time>2026-05-03T06:59:25Z</time></trkpt><trkpt lat="39.95958166603346" lon="9.558927792325797"><ele>130.0</ele><time>2026-05-03T06:59:26Z</time></trkpt><trkpt lat="39.95955768958937" lon="9.558758240107444"><ele>128.33333333333334</ele><time>2026-05-03T06:59:27Z</time></trkpt><trkpt lat="39.95951960243048" lon="9.558571979057263"><ele>126.66666666666666</ele><time>2026-05-03T06:59:28Z</time></trkpt><trkpt lat="39.959494939552485" lon="9.558357898661537"><ele>125.0</ele><time>2026-05-03T06:59:29Z</time></trkpt><trkpt lat="39.95942872343975" lon="9.558166854730674"><ele>125.0</ele><time>2026-05-03T06:59:30Z</time></trkpt><trkpt lat="39.95938469749048" lon="9.55797770309245"><ele>125.0</ele><time>2026-05-03T06:59:31Z</time></trkpt><trkpt lat="39.959325092735746" lon="9.55780426955646"><ele>125.0</ele><time>2026-05-03T06:59:32Z</time></trkpt><trkpt lat="39.959263567749886" lon="9.557630224432062"><ele>125.0</ele><time>2026-05-03T06:59:33Z</time></trkpt><trkpt lat="39.95920419718219" lon="9.55746537880614"><ele>133.6</ele><time>2026-05-03T06:59:34Z</time></trkpt><trkpt lat="39.95913840765708" lon="9.557336848796327"><ele>142.2</ele><time>2026-05-03T06:59:35Z</time></trkpt><trkpt lat="39.95909163626028" lon="9.557208639443717"><ele>150.8</ele><time>2026-05-03T06:59:36Z</time></trkpt><trkpt lat="39.959076327511" lon="9.557094133561717"><ele>159.4</ele><time>2026-05-03T06:59:37Z</time></trkpt><trkpt lat="39.959015349573114" lon="9.556989367930898"><ele>168.0</ele><time>2026-05-03T06:59:38Z</time></trkpt><trkpt lat="39.95899129335329" lon="9.556907881299042"><ele>168.0</ele><time>2026-05-03T06:59:39Z</time></trkpt><trkpt lat="39.95894205625085" lon="9.556813730397273"><ele>168.0</ele><time>2026-05-03T06:59:41Z</time></trkpt><trkpt lat="39.95884467579887" lon="9.556852882837582"><ele>168.0</ele><time>2026-05-03T06:59:45Z</time></trkpt><trkpt lat="39.95889123957111" lon="9.556984266265097"><ele>168.0</ele><time>2026-05-03T06:59:47Z</time></trkpt><trkpt lat="39.95894445328961" lon="9.557062563386452"><ele>168.0</ele><time>2026-05-03T06:59:48Z</time></trkpt><trkpt lat="39.95896759074674" lon="9.557179030366424"><ele>168.0</ele><time>2026-05-03T06:59:49Z</time></trkpt><trkpt lat="39.95900685085123" lon="9.557314234612374"><ele>168.0</ele><time>2026-05-03T06:59:50Z</time></trkpt><trkpt lat="39.9590512154559" lon="9.557461868437443"><ele>168.0</ele><time>2026-05-03T06:59:51Z</time></trkpt><trkpt lat="39.95910022652569" lon="9.557632860621654"><ele>168.0</ele><time>2026-05-03T06:59:52Z</time></trkpt><trkpt lat="39.95915034691057" lon="9.557809980566796"><ele>157.25</ele><time>2026-05-03T06:59:53Z</time></trkpt><trkpt lat="39.959214362335544" lon="9.557976149048098"><ele>146.5</ele><time>2026-05-03T06:59:54Z</time></trkpt><trkpt lat="39.959243579177326" lon="9.558143080514448"><ele>135.75</ele><time>2026-05-03T06:59:55Z</time></trkpt><trkpt lat="39.959299485937" lon="9.558277615957126"><ele>125.0</ele><time>2026-05-03T06:59:56Z</time></trkpt><trkpt lat="39.959306405005464" lon="9.558421540356521"><ele>125.0</ele><time>2026-05-03T06:59:57Z</time></trkpt><trkpt lat="39.959306554572805" lon="9.55856321166588"><ele>125.0</ele><time>2026-05-03T06:59:58Z</time></trkpt><trkpt lat="39.95930796010646" lon="9.558714770100808"><ele>125.0</ele><time>2026-05-03T06:59:59Z</time></trkpt><trkpt lat="39.959311324008745" lon="9.55885608786521"><ele>125.0</ele><time>2026-05-03T07:00:00Z</time></trkpt><trkpt lat="39.95931366343363" lon="9.558993974311074"><ele>125.0</ele><time>2026-05-03T07:00:01Z</time></trkpt><trkpt lat="39.95931542330734" lon="9.559122952772672"><ele>125.83333333333333</ele><time>2026-05-03T07:00:02Z</time></trkpt><trkpt lat="39.95931420443842" lon="9.559233350189764"><ele>126.66666666666666</ele><time>2026-05-03T07:00:03Z</time></trkpt><trkpt lat="39.959308931915814" lon="9.559335840459937"><ele>127.5</ele><time>2026-05-03T07:00:04Z</time></trkpt><trkpt lat="39.95929091190025" lon="9.559434684834399"><ele>128.33333333333334</ele><time>2026-05-03T07:00:05Z</time></trkpt><trkpt lat="39.95923040619557" lon="9.55950068745421"><ele>129.16666666666669</ele><time>2026-05-03T07:00:06Z</time></trkpt><trkpt lat="39.959144538507545" lon="9.559523005848712"><ele>130.0</ele><time>2026-05-03T07:00:07Z</time></trkpt><trkpt lat="39.959055045113395" lon="9.559547709375023"><ele>136.0</ele><time>2026-05-03T07:00:08Z</time></trkpt><trkpt lat="39.958947215984786" lon="9.559578146014722"><ele>142.0</ele><time>2026-05-03T07:00:09Z</time></trkpt><trkpt lat="39.958828232992" lon="9.559608374553504"><ele>148.0</ele><time>2026-05-03T07:00:10Z</time></trkpt><trkpt lat="39.95871425937109" lon="9.559632605870389"><ele>154.0</ele><time>2026-05-03T07:00:11Z</time></trkpt><trkpt lat="39.958611134527665" lon="9.55965018685803"><ele>154.0</ele><time>2026-05-03T07:00:12Z</time></trkpt><trkpt lat="39.95851261601644" lon="9.559671780911664"><ele>154.0</ele><time>2026-05-03T07:00:13Z</time></trkpt><trkpt lat="39.95842423881732" lon="9.559618529809702"><ele>154.0</ele><time>2026-05-03T07:00:14Z</time></trkpt><trkpt lat="39.95835157609141" lon="9.559580721224822"><ele>154.0</ele><time>2026-05-03T07:00:15Z</time></trkpt><trkpt lat="39.95830289522524" lon="9.559475024631007"><ele>154.0</ele><time>2026-05-03T07:00:16Z</time></trkpt><trkpt lat="39.95825388071648" lon="9.559381843508238"><ele>156.33333333333334</ele><time>2026-05-03T07:00:17Z</time></trkpt><trkpt lat="39.958195014096155" lon="9.559330666189872"><ele>158.66666666666669</ele><time>2026-05-03T07:00:18Z</time></trkpt><trkpt lat="39.95812117272552" lon="9.559320096924017"><ele>161.0</ele><time>2026-05-03T07:00:19Z</time></trkpt><trkpt lat="39.95804028876217" lon="9.559370951079513"><ele>163.33333333333334</ele><time>2026-05-03T07:00:20Z</time></trkpt><trkpt lat="39.95798502521465" lon="9.559430220912613"><ele>165.66666666666666</ele><time>2026-05-03T07:00:21Z</time></trkpt><trkpt lat="39.957942156247796" lon="9.559535125697206"><ele>168.0</ele><time>2026-05-03T07:00:22Z</time></trkpt><trkpt lat="39.95793079642913" lon="9.559650790107252"><ele>168.0</ele><time>2026-05-03T07:00:23Z</time></trkpt><trkpt lat="39.95794546368099" lon="9.559771962286753"><ele>168.0</ele><time>2026-05-03T07:00:24Z</time></trkpt><trkpt lat="39.95794049618281" lon="9.559901679413352"><ele>168.0</ele><time>2026-05-03T07:00:25Z</time></trkpt><trkpt lat="39.9579418446928" lon="9.560026233399842"><ele>168.0</ele><time>2026-05-03T07:00:26Z</time></trkpt><trkpt lat="39.95791242880961" lon="9.560143920413395"><ele>168.0</ele><time>2026-05-03T07:00:27Z</time></trkpt><trkpt lat="39.957884354431364" lon="9.560283254658954"><ele>166.20000000000002</ele><time>2026-05-03T07:00:28Z</time></trkpt><trkpt lat="39.95785933418203" lon="9.560409213598064"><ele>164.4</ele><time>2026-05-03T07:00:29Z</time></trkpt><trkpt lat="39.95783283867009" lon="9.560544742274304"><ele>162.60000000000002</ele><time>2026-05-03T07:00:30Z</time></trkpt><trkpt lat="39.95779889800307" lon="9.560663758059663"><ele>160.8</ele><time>2026-05-03T07:00:31Z</time></trkpt><trkpt lat="39.95775949668305" lon="9.560769188927527"><ele>159.0</ele><time>2026-05-03T07:00:32Z</time></trkpt><trkpt lat="39.957691787066544" lon="9.560847461373543"><ele>159.0</ele><time>2026-05-03T07:00:33Z</time></trkpt><trkpt lat="39.95759885874353" lon="9.560898964743068"><ele>159.0</ele><time>2026-05-03T07:00:34Z</time></trkpt><trkpt lat="39.9574965351839" lon="9.560935597951444"><ele>159.0</ele><time>2026-05-03T07:00:35Z</time></trkpt><trkpt lat="39.957390198722564" lon="9.560918660710715"><ele>159.0</ele><time>2026-05-03T07:00:36Z</time></trkpt><trkpt lat="39.95729289908738" lon="9.560897453346"><ele>159.0</ele><time>2026-05-03T07:00:37Z</time></trkpt><trkpt lat="39.95720558999005" lon="9.560876369538306"><ele>165.4</ele><time>2026-05-03T07:00:38Z</time></trkpt><trkpt lat="39.95713346097731" lon="9.560803044984379"><ele>171.8</ele><time>2026-05-03T07:00:39Z</time></trkpt><trkpt lat="39.95707129601854" lon="9.560697398413822"><ele>178.20000000000002</ele><time>2026-05-03T07:00:40Z</time></trkpt><trkpt lat="39.95700645495207" lon="9.560597845381944"><ele>184.60000000000002</ele><time>2026-05-03T07:00:41Z</time></trkpt><trkpt lat="39.956941684076796" lon="9.560506734736903"><ele>191.0</ele><time>2026-05-03T07:00:42Z</time></trkpt><trkpt lat="39.956832791736964" lon="9.560488400799816"><ele>191.0</ele><time>2026-05-03T07:00:43Z</time></trkpt><trkpt lat="39.95671487779363" lon="9.56051591609097"><ele>191.0</ele><time>2026-05-03T07:00:44Z</time></trkpt><trkpt lat="39.95659051369941" lon="9.560566029535142"><ele>191.0</ele><time>2026-05-03T07:00:45Z</time></trkpt><trkpt lat="39.95646286972921" lon="9.560626077514524"><ele>191.0</ele><time>2026-05-03T07:00:46Z</time></trkpt><trkpt lat="39.95633093093351" lon="9.560702345566483"><ele>192.25</ele><time>2026-05-03T07:00:47Z</time></trkpt><trkpt lat="39.95619776478283" lon="9.560738802938442"><ele>193.5</ele><time>2026-05-03T07:00:48Z</time></trkpt><trkpt lat="39.95607520831977" lon="9.56076085336102"><ele>194.75</ele><time>2026-05-03T07:00:49Z</time></trkpt><trkpt lat="39.95596604097457" lon="9.560799647045876"><ele>196.0</ele><time>2026-05-03T07:00:50Z</time></trkpt><trkpt lat="39.95589616874265" lon="9.560899776972999"><ele>195.0</ele><time>2026-05-03T07:00:51Z</time></trkpt><trkpt lat="39.95583040732899" lon="9.561033819911364"><ele>194.0</ele><time>2026-05-03T07:00:52Z</time></trkpt><trkpt lat="39.955768991437914" lon="9.56118011594643"><ele>193.0</ele><time>2026-05-03T07:00:53Z</time></trkpt><trkpt lat="39.95571315140491" lon="9.561307559716573"><ele>192.0</ele><time>2026-05-03T07:00:54Z</time></trkpt><trkpt lat="39.955651459302764" lon="9.561402762058046"><ele>192.0</ele><time>2026-05-03T07:00:55Z</time></trkpt><trkpt lat="39.95558679107285" lon="9.56145131921022"><ele>192.0</ele><time>2026-05-03T07:00:56Z</time></trkpt><trkpt lat="39.955522659486796" lon="9.561458246418306"><ele>192.0</ele><time>2026-05-03T07:00:57Z</time></trkpt><trkpt lat="39.95546236224994" lon="9.561425164640116"><ele>192.0</ele><time>2026-05-03T07:00:58Z</time></trkpt><trkpt lat="39.955393953400076" lon="9.561349473833152"><ele>192.0</ele><time>2026-05-03T07:00:59Z</time></trkpt><trkpt lat="39.95531374159012" lon="9.561260245372615"><ele>192.0</ele><time>2026-05-03T07:01:00Z</time></trkpt><trkpt lat="39.95521731701257" lon="9.561201395108766"><ele>195.25</ele><time>2026-05-03T07:01:01Z</time></trkpt><trkpt lat="39.955114179708985" lon="9.561163105576687"><ele>198.5</ele><time>2026-05-03T07:01:02Z</time></trkpt><trkpt lat="39.95500886366432" lon="9.561221970008912"><ele>201.75</ele><time>2026-05-03T07:01:03Z</time></trkpt><trkpt lat="39.9548921532962" lon="9.561270741567148"><ele>205.0</ele><time>2026-05-03T07:01:04Z</time></trkpt><trkpt lat="39.954768759945836" lon="9.561276862257305"><ele>205.0</ele><time>2026-05-03T07:01:05Z</time></trkpt><trkpt lat="39.954676363332524" lon="9.56129092143308"><ele>205.0</ele><time>2026-05-03T07:01:06Z</time></trkpt><trkpt lat="39.954592954241065" lon="9.5613136283952"><ele>205.0</ele><time>2026-05-03T07:01:07Z</time></trkpt><trkpt lat="39.95453989597092" lon="9.561414345864339"><ele>205.0</ele><time>2026-05-03T07:01:08Z</time></trkpt><trkpt lat="39.95450864245512" lon="9.561540800102112"><ele>205.0</ele><time>2026-05-03T07:01:09Z</time></trkpt><trkpt lat="39.95446294715311" lon="9.561677096220555"><ele>205.0</ele><time>2026-05-03T07:01:10Z</time></trkpt><trkpt lat="39.9544092380418" lon="9.561780090175477"><ele>205.0</ele><time>2026-05-03T07:01:11Z</time></trkpt><trkpt lat="39.95433384080973" lon="9.561828412359082"><ele>205.0</ele><time>2026-05-03T07:01:12Z</time></trkpt><trkpt lat="39.95425255738194" lon="9.561840583254503"><ele>205.0</ele><time>2026-05-03T07:01:13Z</time></trkpt><trkpt lat="39.95415175590591" lon="9.561828262775554"><ele>205.0</ele><time>2026-05-03T07:01:14Z</time></trkpt><trkpt lat="39.95405371485166" lon="9.561773361068413"><ele>210.0</ele><time>2026-05-03T07:01:15Z</time></trkpt><trkpt lat="39.95395390027215" lon="9.561684433281014"><ele>215.0</ele><time>2026-05-03T07:01:16Z</time></trkpt><trkpt lat="39.95388017844024" lon="9.561577920821478"><ele>220.0</ele><time>2026-05-03T07:01:17Z</time></trkpt><trkpt lat="39.95379051341245" lon="9.561536844569286"><ele>225.0</ele><time>2026-05-03T07:01:18Z</time></trkpt><trkpt lat="39.9536693858915" lon="9.561603395773988"><ele>225.0</ele><time>2026-05-03T07:01:19Z</time></trkpt><trkpt lat="39.95355699210195" lon="9.561643849412718"><ele>225.0</ele><time>2026-05-03T07:01:20Z</time></trkpt><trkpt lat="39.95346247375314" lon="9.56165888679341"><ele>225.0</ele><time>2026-05-03T07:01:21Z</time></trkpt><trkpt lat="39.95338271714959" lon="9.561639305928159"><ele>225.0</ele><time>2026-05-03T07:01:22Z</time></trkpt><trkpt lat="39.95330454245222" lon="9.5615893440505"><ele>225.0</ele><time>2026-05-03T07:01:23Z</time></trkpt><trkpt lat="39.953228848218906" lon="9.561484485327247"><ele>224.8</ele><time>2026-05-03T07:01:24Z</time></trkpt><trkpt lat="39.953141696365975" lon="9.561416937680118"><ele>224.6</ele><time>2026-05-03T07:01:25Z</time></trkpt><trkpt lat="39.95306011070074" lon="9.561383394427027"><ele>224.39999999999998</ele><time>2026-05-03T07:01:26Z</time></trkpt><trkpt lat="39.95299628069069" lon="9.561326456611006"><ele>224.2</ele><time>2026-05-03T07:01:27Z</time></trkpt><trkpt lat="39.95292498904182" lon="9.561188710466057"><ele>224.0</ele><time>2026-05-03T07:01:29Z</time></trkpt><trkpt lat="39.95290501229051" lon="9.561082359398283"><ele>227.16666666666669</ele><time>2026-05-03T07:01:30Z</time></trkpt><trkpt lat="39.95289683509439" lon="9.560963710728945"><ele>230.33333333333334</ele><time>2026-05-03T07:01:31Z</time></trkpt><trkpt lat="39.95291476155778" lon="9.560833808482299"><ele>233.5</ele><time>2026-05-03T07:01:32Z</time></trkpt><trkpt lat="39.952947708726605" lon="9.560728371553843"><ele>236.66666666666669</ele><time>2026-05-03T07:01:33Z</time></trkpt><trkpt lat="39.952994859327106" lon="9.560650583690297"><ele>239.83333333333334</ele><time>2026-05-03T07:01:34Z</time></trkpt><trkpt lat="39.95303427239014" lon="9.560566865214222"><ele>243.0</ele><time>2026-05-03T07:01:35Z</time></trkpt><trkpt lat="39.95311244368866" lon="9.56052406504883"><ele>243.0</ele><time>2026-05-03T07:01:36Z</time></trkpt><trkpt lat="39.95319082221253" lon="9.56048145432797"><ele>243.0</ele><time>2026-05-03T07:01:37Z</time></trkpt><trkpt lat="39.95327290857152" lon="9.560423510475108"><ele>243.0</ele><time>2026-05-03T07:01:38Z</time></trkpt><trkpt lat="39.95330726221307" lon="9.56027588244565"><ele>243.0</ele><time>2026-05-03T07:01:39Z</time></trkpt><trkpt lat="39.953348071537604" lon="9.560135605534072"><ele>243.0</ele><time>2026-05-03T07:01:40Z</time></trkpt><trkpt lat="39.95339699272178" lon="9.560022865029906"><ele>243.75</ele><time>2026-05-03T07:01:41Z</time></trkpt><trkpt lat="39.95338973070275" lon="9.559881221710999"><ele>244.5</ele><time>2026-05-03T07:01:42Z</time></trkpt><trkpt lat="39.95334374009853" lon="9.559722916899531"><ele>245.25</ele><time>2026-05-03T07:01:43Z</time></trkpt><trkpt lat="39.953288676113544" lon="9.55953356317032"><ele>246.0</ele><time>2026-05-03T07:01:44Z</time></trkpt><trkpt lat="39.95323019501243" lon="9.55933997110799"><ele>248.5</ele><time>2026-05-03T07:01:45Z</time></trkpt><trkpt lat="39.95315927199897" lon="9.55916397482676"><ele>251.0</ele><time>2026-05-03T07:01:46Z</time></trkpt><trkpt lat="39.95312104360265" lon="9.558994503612428"><ele>253.5</ele><time>2026-05-03T07:01:47Z</time></trkpt><trkpt lat="39.953050565131925" lon="9.558865001912746"><ele>256.0</ele><time>2026-05-03T07:01:48Z</time></trkpt><trkpt lat="39.95295391671489" lon="9.558760923401945"><ele>258.40000000000003</ele><time>2026-05-03T07:01:49Z</time></trkpt><trkpt lat="39.95286036598898" lon="9.558697284109176"><ele>260.8</ele><time>2026-05-03T07:01:50Z</time></trkpt><trkpt lat="39.95281764185843" lon="9.558607746086837"><ele>263.20000000000005</ele><time>2026-05-03T07:01:51Z</time></trkpt><trkpt lat="39.9528067617105" lon="9.558504146090376"><ele>265.6</ele><time>2026-05-03T07:01:52Z</time></trkpt><trkpt lat="39.952824756247125" lon="9.55837620576584"><ele>268.0</ele><time>2026-05-03T07:01:53Z</time></trkpt><trkpt lat="39.95284085626034" lon="9.558239089036121"><ele>268.0</ele><time>2026-05-03T07:01:54Z</time></trkpt><trkpt lat="39.952830359200014" lon="9.558121138652496"><ele>268.0</ele><time>2026-05-03T07:01:55Z</time></trkpt><trkpt lat="39.95281146748625" lon="9.557996238177425"><ele>268.0</ele><time>2026-05-03T07:01:56Z</time></trkpt><trkpt lat="39.952743067813486" lon="9.557891248703786"><ele>268.0</ele><time>2026-05-03T07:01:57Z</time></trkpt><trkpt lat="39.95262936781192" lon="9.55781000295482"><ele>268.0</ele><time>2026-05-03T07:01:58Z</time></trkpt><trkpt lat="39.9525234444594" lon="9.55775410251932"><ele>265.6</ele><time>2026-05-03T07:01:59Z</time></trkpt><trkpt lat="39.952460592645025" lon="9.557672827282426"><ele>263.20000000000005</ele><time>2026-05-03T07:02:00Z</time></trkpt><trkpt lat="39.95242305436056" lon="9.557576742147367"><ele>260.8</ele><time>2026-05-03T07:02:01Z</time></trkpt><trkpt lat="39.95241099546186" lon="9.557455763307395"><ele>258.40000000000003</ele><time>2026-05-03T07:02:02Z</time></trkpt><trkpt lat="39.95239988660922" lon="9.557308873470383"><ele>256.0</ele><time>2026-05-03T07:02:03Z</time></trkpt><trkpt lat="39.95239100063436" lon="9.557180413414041"><ele>256.0</ele><time>2026-05-03T07:02:04Z</time></trkpt><trkpt lat="39.95234013782671" lon="9.557075893874316"><ele>256.0</ele><time>2026-05-03T07:02:05Z</time></trkpt><trkpt lat="39.95226710621748" lon="9.557016229735323"><ele>256.0</ele><time>2026-05-03T07:02:06Z</time></trkpt><trkpt lat="39.95217935450693" lon="9.556990767584663"><ele>256.0</ele><time>2026-05-03T07:02:07Z</time></trkpt><trkpt lat="39.952077582786586" lon="9.55703605074745"><ele>256.0</ele><time>2026-05-03T07:02:08Z</time></trkpt><trkpt lat="39.95196293097345" lon="9.557051916197695"><ele>256.0</ele><time>2026-05-03T07:02:09Z</time></trkpt><trkpt lat="39.951836752745905" lon="9.557087200939591"><ele>256.0</ele><time>2026-05-03T07:02:10Z</time></trkpt><trkpt lat="39.95172384245612" lon="9.55713895071304"><ele>256.0</ele><time>2026-05-03T07:02:11Z</time></trkpt><trkpt lat="39.95162990320241" lon="9.557148554892054"><ele>256.0</ele><time>2026-05-03T07:02:12Z</time></trkpt><trkpt lat="39.95155666552456" lon="9.557193060678422"><ele>256.0</ele><time>2026-05-03T07:02:13Z</time></trkpt><trkpt lat="39.951519311833216" lon="9.55728555771364"><ele>257.0</ele><time>2026-05-03T07:02:14Z</time></trkpt><trkpt lat="39.95150532206226" lon="9.557410969848714"><ele>258.0</ele><time>2026-05-03T07:02:15Z</time></trkpt><trkpt lat="39.951500481057764" lon="9.557552036125054"><ele>259.0</ele><time>2026-05-03T07:02:16Z</time></trkpt><trkpt lat="39.95148889819426" lon="9.557673212731462"><ele>260.0</ele><time>2026-05-03T07:02:17Z</time></trkpt><trkpt lat="39.951455428431906" lon="9.557772377961603"><ele>261.0</ele><time>2026-05-03T07:02:18Z</time></trkpt><trkpt lat="39.9514193136768" lon="9.55785472238666"><ele>261.0</ele><time>2026-05-03T07:02:19Z</time></trkpt><trkpt lat="39.95135176760109" lon="9.55787232672403"><ele>261.0</ele><time>2026-05-03T07:02:20Z</time></trkpt><trkpt lat="39.951284481951376" lon="9.55786243184016"><ele>261.0</ele><time>2026-05-03T07:02:21Z</time></trkpt><trkpt lat="39.95121032589027" lon="9.557855168990418"><ele>261.0</ele><time>2026-05-03T07:02:22Z</time></trkpt><trkpt lat="39.95114375456332" lon="9.557849097735808"><ele>261.0</ele><time>2026-05-03T07:02:23Z</time></trkpt><trkpt lat="39.951049033662564" lon="9.557861940271343"><ele>261.0</ele><time>2026-05-03T07:02:25Z</time></trkpt><trkpt lat="39.95094293323509" lon="9.557889372364963"><ele>261.0</ele><time>2026-05-03T07:02:27Z</time></trkpt><trkpt lat="39.95085223981849" lon="9.557907134207309"><ele>261.0</ele><time>2026-05-03T07:02:29Z</time></trkpt><trkpt lat="39.95087388010128" lon="9.557733868608391"><ele>261.0</ele><time>2026-05-03T07:02:33Z</time></trkpt><trkpt lat="39.950927878140604" lon="9.557642929579435"><ele>261.0</ele><time>2026-05-03T07:02:34Z</time></trkpt><trkpt lat="39.950992320236374" lon="9.557568578997886"><ele>261.0</ele><time>2026-05-03T07:02:35Z</time></trkpt><trkpt lat="39.95106151651177" lon="9.557487843848838"><ele>261.0</ele><time>2026-05-03T07:02:36Z</time></trkpt><trkpt lat="39.95114502199967" lon="9.557377308250869"><ele>261.0</ele><time>2026-05-03T07:02:37Z</time></trkpt><trkpt lat="39.951233912241726" lon="9.55726194723014"><ele>261.0</ele><time>2026-05-03T07:02:38Z</time></trkpt><trkpt lat="39.95134119254446" lon="9.557119184073684"><ele>261.0</ele><time>2026-05-03T07:02:39Z</time></trkpt><trkpt lat="39.951466656535636" lon="9.556973115241286"><ele>263.6666666666667</ele><time>2026-05-03T07:02:40Z</time></trkpt><trkpt lat="39.95161323104089" lon="9.55682076900518"><ele>266.33333333333337</ele><time>2026-05-03T07:02:41Z</time></trkpt><trkpt lat="39.95172397257482" lon="9.556729671410745"><ele>269.0</ele><time>2026-05-03T07:02:42Z</time></trkpt><trkpt lat="39.95187697695573" lon="9.556572012575115"><ele>269.0</ele><time>2026-05-03T07:02:43Z</time></trkpt><trkpt lat="39.95203688956364" lon="9.556407582347434"><ele>269.0</ele><time>2026-05-03T07:02:44Z</time></trkpt><trkpt lat="39.95220242298914" lon="9.556237762191488"><ele>269.0</ele><time>2026-05-03T07:02:45Z</time></trkpt><trkpt lat="39.95237622349032" lon="9.55606461161288"><ele>271.6666666666667</ele><time>2026-05-03T07:02:46Z</time></trkpt><trkpt lat="39.952546196606725" lon="9.55588725831425"><ele>274.3333333333333</ele><time>2026-05-03T07:02:47Z</time></trkpt><trkpt lat="39.95271112747635" lon="9.555694051064119"><ele>277.0</ele><time>2026-05-03T07:02:48Z</time></trkpt><trkpt lat="39.952866654325106" lon="9.55548008717055"><ele>282.0</ele><time>2026-05-03T07:02:49Z</time></trkpt><trkpt lat="39.953019515760914" lon="9.55524308265768"><ele>287.0</ele><time>2026-05-03T07:02:50Z</time></trkpt><trkpt lat="39.953161538635825" lon="9.554996615536657"><ele>287.0</ele><time>2026-05-03T07:02:51Z</time></trkpt><trkpt lat="39.95330632140172" lon="9.55474666292273"><ele>287.0</ele><time>2026-05-03T07:02:52Z</time></trkpt><trkpt lat="39.95344858416329" lon="9.554503353344685"><ele>289.5</ele><time>2026-05-03T07:02:53Z</time></trkpt><trkpt lat="39.95358530226374" lon="9.554268156158248"><ele>292.0</ele><time>2026-05-03T07:02:54Z</time></trkpt><trkpt lat="39.95373971359447" lon="9.554016331480412"><ele>292.0</ele><time>2026-05-03T07:02:55Z</time></trkpt><trkpt lat="39.95388321615863" lon="9.553775088679116"><ele>292.0</ele><time>2026-05-03T07:02:56Z</time></trkpt><trkpt lat="39.954023174240675" lon="9.553535715383314"><ele>298.0</ele><time>2026-05-03T07:02:57Z</time></trkpt><trkpt lat="39.954159043294005" lon="9.553295307865973"><ele>304.0</ele><time>2026-05-03T07:02:58Z</time></trkpt><trkpt lat="39.954287531126944" lon="9.553047412787386"><ele>303.0</ele><time>2026-05-03T07:02:59Z</time></trkpt><trkpt lat="39.95440892175614" lon="9.552787558114165"><ele>302.0</ele><time>2026-05-03T07:03:00Z</time></trkpt><trkpt lat="39.95451984653424" lon="9.55252570456996"><ele>302.0</ele><time>2026-05-03T07:03:01Z</time></trkpt><trkpt lat="39.95462223323904" lon="9.552261238798447"><ele>302.0</ele><time>2026-05-03T07:03:02Z</time></trkpt><trkpt lat="39.954717852710985" lon="9.551989049489189"><ele>305.5</ele><time>2026-05-03T07:03:03Z</time></trkpt><trkpt lat="39.95480983561029" lon="9.551713506793872"><ele>309.0</ele><time>2026-05-03T07:03:04Z</time></trkpt><trkpt lat="39.95490234503297" lon="9.551449789457752"><ele>313.0</ele><time>2026-05-03T07:03:05Z</time></trkpt><trkpt lat="39.95498706818693" lon="9.551202814305178"><ele>317.0</ele><time>2026-05-03T07:03:06Z</time></trkpt><trkpt lat="39.955059289274914" lon="9.550967553250874"><ele>321.0</ele><time>2026-05-03T07:03:07Z</time></trkpt><trkpt lat="39.95511115505114" lon="9.55074229704416"><ele>312.6666666666667</ele><time>2026-05-03T07:03:08Z</time></trkpt><trkpt lat="39.955136834947155" lon="9.550522462369855"><ele>304.33333333333337</ele><time>2026-05-03T07:03:09Z</time></trkpt><trkpt lat="39.95514284135923" lon="9.550302062905438"><ele>296.0</ele><time>2026-05-03T07:03:10Z</time></trkpt><trkpt lat="39.9551171921766" lon="9.550085981957247"><ele>296.0</ele><time>2026-05-03T07:03:11Z</time></trkpt><trkpt lat="39.955074215445656" lon="9.549875051902028"><ele>296.0</ele><time>2026-05-03T07:03:12Z</time></trkpt><trkpt lat="39.955004413742046" lon="9.549682162200373"><ele>296.0</ele><time>2026-05-03T07:03:13Z</time></trkpt><trkpt lat="39.9549146076373" lon="9.549506384058715"><ele>307.0</ele><time>2026-05-03T07:03:14Z</time></trkpt><trkpt lat="39.95480857268741" lon="9.549345193022237"><ele>318.0</ele><time>2026-05-03T07:03:15Z</time></trkpt><trkpt lat="39.95468297129076" lon="9.549205448044619"><ele>329.0</ele><time>2026-05-03T07:03:16Z</time></trkpt><trkpt lat="39.95455539221909" lon="9.549093406781106"><ele>329.0</ele><time>2026-05-03T07:03:17Z</time></trkpt><trkpt lat="39.954412586488445" lon="9.549013674755262"><ele>329.0</ele><time>2026-05-03T07:03:18Z</time></trkpt><trkpt lat="39.954259553392674" lon="9.548952519770642"><ele>329.0</ele><time>2026-05-03T07:03:19Z</time></trkpt><trkpt lat="39.954098156611856" lon="9.54892239206575"><ele>331.0</ele><time>2026-05-03T07:03:20Z</time></trkpt><trkpt lat="39.95392864861966" lon="9.548924933561088"><ele>333.0</ele><time>2026-05-03T07:03:21Z</time></trkpt><trkpt lat="39.95377133860313" lon="9.5489345800801"><ele>335.0</ele><time>2026-05-03T07:03:22Z</time></trkpt><trkpt lat="39.953605008467285" lon="9.54899958381817"><ele>335.0</ele><time>2026-05-03T07:03:23Z</time></trkpt><trkpt lat="39.95343943690316" lon="9.549118461401973"><ele>335.0</ele><time>2026-05-03T07:03:24Z</time></trkpt><trkpt lat="39.95326230307432" lon="9.549238736944451"><ele>335.0</ele><time>2026-05-03T07:03:25Z</time></trkpt><trkpt lat="39.953075265300235" lon="9.549364948419827"><ele>334.33333333333337</ele><time>2026-05-03T07:03:26Z</time></trkpt><trkpt lat="39.95288437704312" lon="9.549472873290604"><ele>333.6666666666667</ele><time>2026-05-03T07:03:27Z</time></trkpt><trkpt lat="39.95269124157411" lon="9.549547840427229"><ele>333.0</ele><time>2026-05-03T07:03:28Z</time></trkpt><trkpt lat="39.95250265048326" lon="9.549582857832508"><ele>331.0</ele><time>2026-05-03T07:03:29Z</time></trkpt><trkpt lat="39.9523107006799" lon="9.549589108590698"><ele>329.0</ele><time>2026-05-03T07:03:30Z</time></trkpt><trkpt lat="39.952106963236744" lon="9.549548564028887"><ele>327.0</ele><time>2026-05-03T07:03:31Z</time></trkpt><trkpt lat="39.95188808280721" lon="9.54951000736691"><ele>331.0</ele><time>2026-05-03T07:03:32Z</time></trkpt><trkpt lat="39.951660667521956" lon="9.549490444118181"><ele>335.0</ele><time>2026-05-03T07:03:33Z</time></trkpt><trkpt lat="39.951437063261835" lon="9.549449756915271"><ele>335.0</ele><time>2026-05-03T07:03:34Z</time></trkpt><trkpt lat="39.95121924856575" lon="9.549410982378708"><ele>335.0</ele><time>2026-05-03T07:03:35Z</time></trkpt><trkpt lat="39.951013467973866" lon="9.549377665520774"><ele>335.0</ele><time>2026-05-03T07:03:36Z</time></trkpt><trkpt lat="39.95080951093676" lon="9.549356951040682"><ele>338.0</ele><time>2026-05-03T07:03:37Z</time></trkpt><trkpt lat="39.95060263055408" lon="9.549361192690332"><ele>341.0</ele><time>2026-05-03T07:03:38Z</time></trkpt><trkpt lat="39.950390539699896" lon="9.549389757896156"><ele>344.0</ele><time>2026-05-03T07:03:39Z</time></trkpt><trkpt lat="39.95017193272663" lon="9.549448134953103"><ele>342.5</ele><time>2026-05-03T07:03:40Z</time></trkpt><trkpt lat="39.94994891116156" lon="9.549518660016034"><ele>341.0</ele><time>2026-05-03T07:03:41Z</time></trkpt><trkpt lat="39.949719986839156" lon="9.549598555922115"><ele>347.5</ele><time>2026-05-03T07:03:42Z</time></trkpt><trkpt lat="39.94948033283966" lon="9.549682850819645"><ele>354.0</ele><time>2026-05-03T07:03:43Z</time></trkpt><trkpt lat="39.9492363725915" lon="9.54976775175521"><ele>352.0</ele><time>2026-05-03T07:03:44Z</time></trkpt><trkpt lat="39.94899824215802" lon="9.549843773120513"><ele>350.0</ele><time>2026-05-03T07:03:45Z</time></trkpt><trkpt lat="39.948755656832894" lon="9.549924455664636"><ele>350.0</ele><time>2026-05-03T07:03:46Z</time></trkpt><trkpt lat="39.948512460022364" lon="9.550006492388702"><ele>350.0</ele><time>2026-05-03T07:03:47Z</time></trkpt><trkpt lat="39.94827009306306" lon="9.55009039521103"><ele>355.0</ele><time>2026-05-03T07:03:48Z</time></trkpt><trkpt lat="39.948028970556635" lon="9.550173758509606"><ele>360.0</ele><time>2026-05-03T07:03:49Z</time></trkpt><trkpt lat="39.947788114627016" lon="9.550255303643137"><ele>360.0</ele><time>2026-05-03T07:03:50Z</time></trkpt><trkpt lat="39.94754986435278" lon="9.550333541213513"><ele>360.0</ele><time>2026-05-03T07:03:51Z</time></trkpt><trkpt lat="39.94732347435786" lon="9.550407695187772"><ele>359.3333333333333</ele><time>2026-05-03T07:03:52Z</time></trkpt><trkpt lat="39.947108615888936" lon="9.550481247815844"><ele>358.66666666666663</ele><time>2026-05-03T07:03:53Z</time></trkpt><trkpt lat="39.946912316031856" lon="9.550557929623151"><ele>358.0</ele><time>2026-05-03T07:03:54Z</time></trkpt><trkpt lat="39.946725843604234" lon="9.55063490540306"><ele>363.3333333333333</ele><time>2026-05-03T07:03:55Z</time></trkpt><trkpt lat="39.9465507655103" lon="9.550729894809919"><ele>368.6666666666667</ele><time>2026-05-03T07:03:56Z</time></trkpt><trkpt lat="39.946393279752236" lon="9.550846303735291"><ele>374.0</ele><time>2026-05-03T07:03:57Z</time></trkpt><trkpt lat="39.94624060386526" lon="9.550988382473541"><ele>374.0</ele><time>2026-05-03T07:03:58Z</time></trkpt><trkpt lat="39.946106114976956" lon="9.551149500496411"><ele>374.0</ele><time>2026-05-03T07:03:59Z</time></trkpt><trkpt lat="39.94598417879747" lon="9.551325290603225"><ele>374.0</ele><time>2026-05-03T07:04:00Z</time></trkpt><trkpt lat="39.94587796558957" lon="9.551518005623032"><ele>375.33333333333337</ele><time>2026-05-03T07:04:01Z</time></trkpt><trkpt lat="39.94579204597885" lon="9.551709419109548"><ele>376.6666666666667</ele><time>2026-05-03T07:04:02Z</time></trkpt><trkpt lat="39.94573031285001" lon="9.551890836802182"><ele>378.0</ele><time>2026-05-03T07:04:03Z</time></trkpt><trkpt lat="39.945678202499856" lon="9.55205692242727"><ele>374.75</ele><time>2026-05-03T07:04:04Z</time></trkpt><trkpt lat="39.945616870853286" lon="9.552201989898984"><ele>371.5</ele><time>2026-05-03T07:04:05Z</time></trkpt><trkpt lat="39.945546161380776" lon="9.55231935216126"><ele>368.25</ele><time>2026-05-03T07:04:06Z</time></trkpt><trkpt lat="39.945450728692464" lon="9.552419087032458"><ele>365.0</ele><time>2026-05-03T07:04:07Z</time></trkpt><trkpt lat="39.945346513189136" lon="9.552535047117685"><ele>365.0</ele><time>2026-05-03T07:04:08Z</time></trkpt><trkpt lat="39.945230336485714" lon="9.552591557043526"><ele>365.0</ele><time>2026-05-03T07:04:09Z</time></trkpt><trkpt lat="39.9451012058125" lon="9.552631928286825"><ele>365.0</ele><time>2026-05-03T07:04:10Z</time></trkpt><trkpt lat="39.94495970181668" lon="9.552669341991416"><ele>365.0</ele><time>2026-05-03T07:04:11Z</time></trkpt><trkpt lat="39.94482129689687" lon="9.552705490132396"><ele>367.8</ele><time>2026-05-03T07:04:12Z</time></trkpt><trkpt lat="39.94469493004023" lon="9.55273414589828"><ele>370.6</ele><time>2026-05-03T07:04:13Z</time></trkpt><trkpt lat="39.9445942773617" lon="9.552737787947876"><ele>373.4</ele><time>2026-05-03T07:04:14Z</time></trkpt><trkpt lat="39.944514813932955" lon="9.552703727670703"><ele>376.2</ele><time>2026-05-03T07:04:15Z</time></trkpt><trkpt lat="39.9444565735145" lon="9.552632895959555"><ele>379.0</ele><time>2026-05-03T07:04:16Z</time></trkpt><trkpt lat="39.94442012448572" lon="9.552557668726292"><ele>379.0</ele><time>2026-05-03T07:04:17Z</time></trkpt><trkpt lat="39.944423802142495" lon="9.55246535050247"><ele>379.0</ele><time>2026-05-03T07:04:18Z</time></trkpt><trkpt lat="39.944453518687254" lon="9.552385570387145"><ele>379.0</ele><time>2026-05-03T07:04:19Z</time></trkpt><trkpt lat="39.9445016656552" lon="9.552328918033844"><ele>379.0</ele><time>2026-05-03T07:04:20Z</time></trkpt><trkpt lat="39.94456096748768" lon="9.552299926097776"><ele>379.0</ele><time>2026-05-03T07:04:21Z</time></trkpt><trkpt lat="39.944668551596486" lon="9.552317997099385"><ele>379.0</ele><time>2026-05-03T07:04:23Z</time></trkpt><trkpt lat="39.944760432884" lon="9.552367627639407"><ele>379.00000000000006</ele><time>2026-05-03T07:04:25Z</time></trkpt><trkpt lat="39.944849535452796" lon="9.552419877521066"><ele>379.0</ele><time>2026-05-03T07:04:27Z</time></trkpt><trkpt lat="39.94486337977875" lon="9.552507219294977"><ele>379.0</ele><time>2026-05-03T07:04:31Z</time></trkpt><trkpt lat="39.944808194288385" lon="9.552463661313007"><ele>379.0</ele><time>2026-05-03T07:04:34Z</time></trkpt><trkpt lat="39.94474520198186" lon="9.552408270924772"><ele>379.0</ele><time>2026-05-03T07:04:50Z</time></trkpt><trkpt lat="39.94480309536308" lon="9.552460747630866"><ele>379.00000000000006</ele><time>2026-05-03T07:04:56Z</time></trkpt><trkpt lat="39.94487034252442" lon="9.552483535122901"><ele>379.0</ele><time>2026-05-03T07:04:58Z</time></trkpt><trkpt lat="39.94484445957572" lon="9.552346676415546"><ele>379.0</ele><time>2026-05-03T07:05:02Z</time></trkpt><trkpt lat="39.944761387992564" lon="9.552316649956527"><ele>379.0</ele><time>2026-05-03T07:05:03Z</time></trkpt><trkpt lat="39.944725907419645" lon="9.552166631409724"><ele>379.0</ele><time>2026-05-03T07:05:05Z</time></trkpt><trkpt lat="39.944662677053905" lon="9.552089363066267"><ele>379.0</ele><time>2026-05-03T07:05:08Z</time></trkpt><trkpt lat="39.944565900826326" lon="9.552078012784529"><ele>379.0</ele><time>2026-05-03T07:05:11Z</time></trkpt><trkpt lat="39.94448474140813" lon="9.552121395321452"><ele>379.0</ele><time>2026-05-03T07:05:13Z</time></trkpt><trkpt lat="39.94439546921367" lon="9.552183259195074"><ele>379.0</ele><time>2026-05-03T07:05:15Z</time></trkpt><trkpt lat="39.94430551712115" lon="9.552294956397498"><ele>379.0</ele><time>2026-05-03T07:05:17Z</time></trkpt><trkpt lat="39.94427399131878" lon="9.55237059241862"><ele>379.0</ele><time>2026-05-03T07:05:18Z</time></trkpt><trkpt lat="39.94425529755922" lon="9.552458096619475"><ele>379.0</ele><time>2026-05-03T07:05:19Z</time></trkpt><trkpt lat="39.94424967714701" lon="9.552559723800545"><ele>379.0</ele><time>2026-05-03T07:05:20Z</time></trkpt><trkpt lat="39.94425906635056" lon="9.552668413241406"><ele>379.0</ele><time>2026-05-03T07:05:21Z</time></trkpt><trkpt lat="39.94428657199872" lon="9.552766063643357"><ele>379.0</ele><time>2026-05-03T07:05:22Z</time></trkpt><trkpt lat="39.94431707931953" lon="9.55288026468118"><ele>379.0</ele><time>2026-05-03T07:05:23Z</time></trkpt><trkpt lat="39.94432586171085" lon="9.552988651531807"><ele>379.0</ele><time>2026-05-03T07:05:24Z</time></trkpt><trkpt lat="39.94431077451284" lon="9.553087375894318"><ele>379.0</ele><time>2026-05-03T07:05:25Z</time></trkpt><trkpt lat="39.94427559807832" lon="9.553165097706252"><ele>379.0</ele><time>2026-05-03T07:05:26Z</time></trkpt><trkpt lat="39.94422109032994" lon="9.5532233468934"><ele>381.6</ele><time>2026-05-03T07:05:27Z</time></trkpt><trkpt lat="39.9441505074143" lon="9.553263508870613"><ele>384.2</ele><time>2026-05-03T07:05:28Z</time></trkpt><trkpt lat="39.944064995948416" lon="9.553297583888165"><ele>386.8</ele><time>2026-05-03T07:05:29Z</time></trkpt><trkpt lat="39.94395755084207" lon="9.553325582046952"><ele>389.40000000000003</ele><time>2026-05-03T07:05:30Z</time></trkpt><trkpt lat="39.943846909562595" lon="9.553341554119063"><ele>392.0</ele><time>2026-05-03T07:05:31Z</time></trkpt><trkpt lat="39.94372126498162" lon="9.55334173052316"><ele>392.0</ele><time>2026-05-03T07:05:32Z</time></trkpt><trkpt lat="39.94358448333748" lon="9.553321939619517"><ele>392.0</ele><time>2026-05-03T07:05:33Z</time></trkpt><trkpt lat="39.94346584433461" lon="9.553290429600253"><ele>392.0</ele><time>2026-05-03T07:05:34Z</time></trkpt><trkpt lat="39.94336334896441" lon="9.553277169510881"><ele>392.0</ele><time>2026-05-03T07:05:35Z</time></trkpt><trkpt lat="39.94327957629364" lon="9.553299050796488"><ele>392.0</ele><time>2026-05-03T07:05:36Z</time></trkpt><trkpt lat="39.943218389414135" lon="9.553350803031133"><ele>392.0</ele><time>2026-05-03T07:05:37Z</time></trkpt><trkpt lat="39.94318224592325" lon="9.553433076061793"><ele>392.0</ele><time>2026-05-03T07:05:38Z</time></trkpt><trkpt lat="39.94315829986835" lon="9.553547682031791"><ele>392.0</ele><time>2026-05-03T07:05:39Z</time></trkpt><trkpt lat="39.94313622376328" lon="9.553690739903693"><ele>392.0</ele><time>2026-05-03T07:05:40Z</time></trkpt><trkpt lat="39.94310780413893" lon="9.553857847723586"><ele>392.0</ele><time>2026-05-03T07:05:41Z</time></trkpt><trkpt lat="39.94307018298057" lon="9.554022768484918"><ele>387.66666666666663</ele><time>2026-05-03T07:05:42Z</time></trkpt><trkpt lat="39.94301335835559" lon="9.554209085468486"><ele>383.3333333333333</ele><time>2026-05-03T07:05:43Z</time></trkpt><trkpt lat="39.94294301640845" lon="9.554392825207"><ele>379.0</ele><time>2026-05-03T07:05:44Z</time></trkpt><trkpt lat="39.942868372707004" lon="9.554565073555505"><ele>378.0</ele><time>2026-05-03T07:05:45Z</time></trkpt><trkpt lat="39.94278910951788" lon="9.554718576822435"><ele>377.0</ele><time>2026-05-03T07:05:46Z</time></trkpt><trkpt lat="39.94269996586035" lon="9.55485380980969"><ele>376.0</ele><time>2026-05-03T07:05:47Z</time></trkpt><trkpt lat="39.94260092212228" lon="9.554972365605083"><ele>375.0</ele><time>2026-05-03T07:05:48Z</time></trkpt><trkpt lat="39.942505023198" lon="9.555059213217168"><ele>375.0</ele><time>2026-05-03T07:05:49Z</time></trkpt><trkpt lat="39.9424192526126" lon="9.55510378646697"><ele>375.0</ele><time>2026-05-03T07:05:50Z</time></trkpt><trkpt lat="39.94232702093996" lon="9.555107177314738"><ele>375.0</ele><time>2026-05-03T07:05:51Z</time></trkpt><trkpt lat="39.942232878672996" lon="9.555071569346401"><ele>375.0</ele><time>2026-05-03T07:05:52Z</time></trkpt><trkpt lat="39.94211264491252" lon="9.554992142358346"><ele>375.0</ele><time>2026-05-03T07:05:53Z</time></trkpt><trkpt lat="39.94197881311419" lon="9.554889865235923"><ele>375.0</ele><time>2026-05-03T07:05:54Z</time></trkpt><trkpt lat="39.941849502111445" lon="9.554790744196303"><ele>375.0</ele><time>2026-05-03T07:05:55Z</time></trkpt><trkpt lat="39.94170196506626" lon="9.554684795940183"><ele>375.0</ele><time>2026-05-03T07:05:56Z</time></trkpt><trkpt lat="39.94156318937598" lon="9.554595783366182"><ele>376.4</ele><time>2026-05-03T07:05:57Z</time></trkpt><trkpt lat="39.94144789184512" lon="9.554508449597284"><ele>377.8</ele><time>2026-05-03T07:05:58Z</time></trkpt><trkpt lat="39.94135834061069" lon="9.554412654593758"><ele>379.20000000000005</ele><time>2026-05-03T07:05:59Z</time></trkpt><trkpt lat="39.941285507685755" lon="9.554313736201536"><ele>380.6</ele><time>2026-05-03T07:06:00Z</time></trkpt><trkpt lat="39.941245763975274" lon="9.554210274007703"><ele>382.0</ele><time>2026-05-03T07:06:01Z</time></trkpt><trkpt lat="39.94119988619181" lon="9.55407499270602"><ele>382.0</ele><time>2026-05-03T07:06:02Z</time></trkpt><trkpt lat="39.941170783159" lon="9.55392659022853"><ele>382.0</ele><time>2026-05-03T07:06:03Z</time></trkpt><trkpt lat="39.94117137277315" lon="9.55375872135215"><ele>382.0</ele><time>2026-05-03T07:06:04Z</time></trkpt><trkpt lat="39.941124710771554" lon="9.553607791631647"><ele>382.0</ele><time>2026-05-03T07:06:05Z</time></trkpt><trkpt lat="39.94110279033545" lon="9.553460893380707"><ele>381.25</ele><time>2026-05-03T07:06:06Z</time></trkpt><trkpt lat="39.941059045728196" lon="9.553326948098617"><ele>380.5</ele><time>2026-05-03T07:06:07Z</time></trkpt><trkpt lat="39.940978163976354" lon="9.553211698003645"><ele>379.75</ele><time>2026-05-03T07:06:08Z</time></trkpt><trkpt lat="39.94087660832167" lon="9.553125827772465"><ele>379.0</ele><time>2026-05-03T07:06:09Z</time></trkpt><trkpt lat="39.94075488999916" lon="9.553057162961052"><ele>379.0</ele><time>2026-05-03T07:06:10Z</time></trkpt><trkpt lat="39.94061538553974" lon="9.552998057804666"><ele>379.0</ele><time>2026-05-03T07:06:11Z</time></trkpt><trkpt lat="39.94045761901139" lon="9.552965735950899"><ele>379.0</ele><time>2026-05-03T07:06:12Z</time></trkpt><trkpt lat="39.94030248966756" lon="9.552912355379501"><ele>386.3333333333333</ele><time>2026-05-03T07:06:13Z</time></trkpt><trkpt lat="39.940148504674745" lon="9.552838750288338"><ele>393.66666666666663</ele><time>2026-05-03T07:06:14Z</time></trkpt><trkpt lat="39.9399921918276" lon="9.552803886139248"><ele>401.0</ele><time>2026-05-03T07:06:15Z</time></trkpt><trkpt lat="39.93984879813519" lon="9.552745110477757"><ele>401.0</ele><time>2026-05-03T07:06:16Z</time></trkpt><trkpt lat="39.939696307200684" lon="9.552685032369626"><ele>401.0</ele><time>2026-05-03T07:06:17Z</time></trkpt><trkpt lat="39.9395355638451" lon="9.552604960265997"><ele>401.0</ele><time>2026-05-03T07:06:18Z</time></trkpt><trkpt lat="39.9393536256912" lon="9.552574822254146"><ele>400.0</ele><time>2026-05-03T07:06:19Z</time></trkpt><trkpt lat="39.93916347062086" lon="9.552575235801664"><ele>399.0</ele><time>2026-05-03T07:06:20Z</time></trkpt><trkpt lat="39.93897172531241" lon="9.552533069926358"><ele>398.0</ele><time>2026-05-03T07:06:21Z</time></trkpt><trkpt lat="39.93880194663083" lon="9.552515754187482"><ele>398.0</ele><time>2026-05-03T07:06:22Z</time></trkpt><trkpt lat="39.93865733934308" lon="9.55251408657634"><ele>398.0</ele><time>2026-05-03T07:06:23Z</time></trkpt><trkpt lat="39.93854193741373" lon="9.55248177568962"><ele>398.0</ele><time>2026-05-03T07:06:24Z</time></trkpt><trkpt lat="39.93845213464791" lon="9.55243709898357"><ele>398.0</ele><time>2026-05-03T07:06:25Z</time></trkpt><trkpt lat="39.93838738713972" lon="9.55237291292521"><ele>398.0</ele><time>2026-05-03T07:06:26Z</time></trkpt><trkpt lat="39.938351652057314" lon="9.552287951617926"><ele>397.16666666666663</ele><time>2026-05-03T07:06:27Z</time></trkpt><trkpt lat="39.93834305026013" lon="9.55219677365393"><ele>396.3333333333333</ele><time>2026-05-03T07:06:28Z</time></trkpt><trkpt lat="39.93836912984724" lon="9.552104148808462"><ele>395.5</ele><time>2026-05-03T07:06:29Z</time></trkpt><trkpt lat="39.93842277169248" lon="9.552019996542747"><ele>394.66666666666663</ele><time>2026-05-03T07:06:30Z</time></trkpt><trkpt lat="39.93851061250321" lon="9.551967654114426"><ele>393.8333333333333</ele><time>2026-05-03T07:06:31Z</time></trkpt><trkpt lat="39.938610393429826" lon="9.551877295216356"><ele>393.0</ele><time>2026-05-03T07:06:32Z</time></trkpt><trkpt lat="39.93870999138981" lon="9.551771226409148"><ele>397.4</ele><time>2026-05-03T07:06:33Z</time></trkpt><trkpt lat="39.9388225025887" lon="9.551676873865011"><ele>401.79999999999995</ele><time>2026-05-03T07:06:34Z</time></trkpt><trkpt lat="39.93891882683129" lon="9.551591941776527"><ele>406.2</ele><time>2026-05-03T07:06:35Z</time></trkpt><trkpt lat="39.93900052393102" lon="9.551511404763966"><ele>410.6</ele><time>2026-05-03T07:06:36Z</time></trkpt><trkpt lat="39.93905539728719" lon="9.551425959041895"><ele>415.0</ele><time>2026-05-03T07:06:37Z</time></trkpt><trkpt lat="39.939108516426046" lon="9.551333976624562"><ele>417.0</ele><time>2026-05-03T07:06:38Z</time></trkpt><trkpt lat="39.93909708840744" lon="9.551199309920534"><ele>419.0</ele><time>2026-05-03T07:06:39Z</time></trkpt><trkpt lat="39.9390681202264" lon="9.551070068002085"><ele>421.0</ele><time>2026-05-03T07:06:40Z</time></trkpt><trkpt lat="39.93901162542359" lon="9.550954158451209"><ele>423.0</ele><time>2026-05-03T07:06:41Z</time></trkpt><trkpt lat="39.93891668300711" lon="9.550861226426944"><ele>425.0</ele><time>2026-05-03T07:06:42Z</time></trkpt><trkpt lat="39.93881117525272" lon="9.550790473821115"><ele>425.0</ele><time>2026-05-03T07:06:43Z</time></trkpt><trkpt lat="39.93870222825437" lon="9.550686772081459"><ele>425.0</ele><time>2026-05-03T07:06:44Z</time></trkpt><trkpt lat="39.93859841573269" lon="9.550579291101846"><ele>425.0</ele><time>2026-05-03T07:06:45Z</time></trkpt><trkpt lat="39.93851611931283" lon="9.550478063702101"><ele>425.0</ele><time>2026-05-03T07:06:46Z</time></trkpt><trkpt lat="39.938462372331706" lon="9.550377199528262"><ele>427.4</ele><time>2026-05-03T07:06:47Z</time></trkpt><trkpt lat="39.93844032510384" lon="9.550276291234503"><ele>429.8</ele><time>2026-05-03T07:06:48Z</time></trkpt><trkpt lat="39.93845239215086" lon="9.550169681278962"><ele>432.20000000000005</ele><time>2026-05-03T07:06:49Z</time></trkpt><trkpt lat="39.938506084672966" lon="9.550043646413771"><ele>434.6</ele><time>2026-05-03T07:06:50Z</time></trkpt><trkpt lat="39.93854867100761" lon="9.549885911881784"><ele>437.0</ele><time>2026-05-03T07:06:51Z</time></trkpt><trkpt lat="39.938605112452834" lon="9.549721761300395"><ele>437.0</ele><time>2026-05-03T07:06:52Z</time></trkpt><trkpt lat="39.93866114149147" lon="9.54956834525213"><ele>437.0</ele><time>2026-05-03T07:06:53Z</time></trkpt><trkpt lat="39.938676375570196" lon="9.54940747713059"><ele>437.0</ele><time>2026-05-03T07:06:54Z</time></trkpt><trkpt lat="39.93865739863518" lon="9.549259951548306"><ele>437.0</ele><time>2026-05-03T07:06:55Z</time></trkpt><trkpt lat="39.93862233247597" lon="9.549124098033811"><ele>438.75</ele><time>2026-05-03T07:06:56Z</time></trkpt><trkpt lat="39.938558659388214" lon="9.548998912063107"><ele>440.5</ele><time>2026-05-03T07:06:57Z</time></trkpt><trkpt lat="39.938458317967736" lon="9.54888515069614"><ele>442.25</ele><time>2026-05-03T07:06:58Z</time></trkpt><trkpt lat="39.938362731890585" lon="9.548755850459065"><ele>444.0</ele><time>2026-05-03T07:06:59Z</time></trkpt><trkpt lat="39.93825311498681" lon="9.54862229540471"><ele>444.75</ele><time>2026-05-03T07:07:00Z</time></trkpt><trkpt lat="39.93814728816044" lon="9.5485087653619"><ele>445.5</ele><time>2026-05-03T07:07:01Z</time></trkpt><trkpt lat="39.938047444416725" lon="9.54842295185951"><ele>446.25</ele><time>2026-05-03T07:07:02Z</time></trkpt><trkpt lat="39.937948984586434" lon="9.548374085582264"><ele>447.0</ele><time>2026-05-03T07:07:03Z</time></trkpt><trkpt lat="39.9378532928912" lon="9.548336496448629"><ele>447.0</ele><time>2026-05-03T07:07:04Z</time></trkpt><trkpt lat="39.93774968819442" lon="9.54838617324804"><ele>447.00000000000006</ele><time>2026-05-03T07:07:05Z</time></trkpt><trkpt lat="39.937647950828996" lon="9.548446151072858"><ele>447.00000000000006</ele><time>2026-05-03T07:07:06Z</time></trkpt><trkpt lat="39.93754765733423" lon="9.548517098572427"><ele>447.0</ele><time>2026-05-03T07:07:07Z</time></trkpt><trkpt lat="39.93745680092272" lon="9.548544976502749"><ele>447.0</ele><time>2026-05-03T07:07:08Z</time></trkpt><trkpt lat="39.93737129598925" lon="9.54853207818101"><ele>447.20000000000005</ele><time>2026-05-03T07:07:09Z</time></trkpt><trkpt lat="39.93730985156657" lon="9.54847435471993"><ele>447.40000000000003</ele><time>2026-05-03T07:07:10Z</time></trkpt><trkpt lat="39.93723582922149" lon="9.548385545826303"><ele>447.59999999999997</ele><time>2026-05-03T07:07:11Z</time></trkpt><trkpt lat="39.937167668100955" lon="9.548271746273901"><ele>447.79999999999995</ele><time>2026-05-03T07:07:12Z</time></trkpt><trkpt lat="39.93709873582533" lon="9.548131654414213"><ele>448.0</ele><time>2026-05-03T07:07:13Z</time></trkpt><trkpt lat="39.937035620380605" lon="9.547973284889894"><ele>451.75</ele><time>2026-05-03T07:07:14Z</time></trkpt><trkpt lat="39.936976521652994" lon="9.547788530333252"><ele>455.5</ele><time>2026-05-03T07:07:15Z</time></trkpt><trkpt lat="39.93693401210613" lon="9.547606511848766"><ele>459.25</ele><time>2026-05-03T07:07:16Z</time></trkpt><trkpt lat="39.93689594154925" lon="9.547424677874288"><ele>463.0</ele><time>2026-05-03T07:07:17Z</time></trkpt><trkpt lat="39.936850580838474" lon="9.547264953580155"><ele>463.0</ele><time>2026-05-03T07:07:18Z</time></trkpt><trkpt lat="39.93680378925457" lon="9.547108855437552"><ele>463.0</ele><time>2026-05-03T07:07:19Z</time></trkpt><trkpt lat="39.93670478208415" lon="9.547003198050326"><ele>463.0</ele><time>2026-05-03T07:07:20Z</time></trkpt><trkpt lat="39.93660348292131" lon="9.546910463403316"><ele>463.0</ele><time>2026-05-03T07:07:21Z</time></trkpt><trkpt lat="39.936489185109224" lon="9.546826578786483"><ele>465.0</ele><time>2026-05-03T07:07:22Z</time></trkpt><trkpt lat="39.93636503043273" lon="9.546742397759221"><ele>467.0</ele><time>2026-05-03T07:07:23Z</time></trkpt><trkpt lat="39.93623560800711" lon="9.546655446316535"><ele>469.0</ele><time>2026-05-03T07:07:24Z</time></trkpt><trkpt lat="39.93609875018726" lon="9.546570864295996"><ele>471.0</ele><time>2026-05-03T07:07:25Z</time></trkpt><trkpt lat="39.93595774660256" lon="9.546497587694962"><ele>468.66666666666663</ele><time>2026-05-03T07:07:26Z</time></trkpt><trkpt lat="39.93581542570517" lon="9.546426241938839"><ele>466.3333333333333</ele><time>2026-05-03T07:07:27Z</time></trkpt><trkpt lat="39.93567521552014" lon="9.546346179209078"><ele>464.0</ele><time>2026-05-03T07:07:28Z</time></trkpt><trkpt lat="39.93553057518359" lon="9.546255263271696"><ele>472.3333333333333</ele><time>2026-05-03T07:07:29Z</time></trkpt><trkpt lat="39.93538015709659" lon="9.546156365436955"><ele>480.66666666666663</ele><time>2026-05-03T07:07:30Z</time></trkpt><trkpt lat="39.93522303585317" lon="9.546049162195962"><ele>489.0</ele><time>2026-05-03T07:07:31Z</time></trkpt><trkpt lat="39.93506943571007" lon="9.545949126235927"><ele>486.66666666666663</ele><time>2026-05-03T07:07:32Z</time></trkpt><trkpt lat="39.934909978031335" lon="9.545846367599149"><ele>484.3333333333333</ele><time>2026-05-03T07:07:33Z</time></trkpt><trkpt lat="39.93476187851233" lon="9.545755846909946"><ele>482.0</ele><time>2026-05-03T07:07:34Z</time></trkpt><trkpt lat="39.93462467380356" lon="9.54567313653144"><ele>482.0</ele><time>2026-05-03T07:07:35Z</time></trkpt><trkpt lat="39.93450621122811" lon="9.545601096624134"><ele>482.0</ele><time>2026-05-03T07:07:36Z</time></trkpt><trkpt lat="39.9343985638766" lon="9.545516478021664"><ele>482.0</ele><time>2026-05-03T07:07:37Z</time></trkpt><trkpt lat="39.934320636286586" lon="9.545417736719543"><ele>482.0</ele><time>2026-05-03T07:07:38Z</time></trkpt><trkpt lat="39.93427392464515" lon="9.545280723394264"><ele>484.25</ele><time>2026-05-03T07:07:39Z</time></trkpt><trkpt lat="39.93421749253283" lon="9.545136004784453"><ele>486.5</ele><time>2026-05-03T07:07:40Z</time></trkpt><trkpt lat="39.93414332405336" lon="9.544997771908495"><ele>488.75</ele><time>2026-05-03T07:07:41Z</time></trkpt><trkpt lat="39.93409354968171" lon="9.544838391594164"><ele>491.0</ele><time>2026-05-03T07:07:42Z</time></trkpt><trkpt lat="39.93402054125576" lon="9.544697614885175"><ele>490.99999999999994</ele><time>2026-05-03T07:07:43Z</time></trkpt><trkpt lat="39.933961572717266" lon="9.544590552516857"><ele>491.0</ele><time>2026-05-03T07:07:44Z</time></trkpt><trkpt lat="39.93391965511886" lon="9.544502912805646"><ele>491.0</ele><time>2026-05-03T07:07:45Z</time></trkpt><trkpt lat="39.93388858156906" lon="9.544416712423729"><ele>491.0</ele><time>2026-05-03T07:07:46Z</time></trkpt><trkpt lat="39.933877601403815" lon="9.544331270118626"><ele>490.99999999999994</ele><time>2026-05-03T07:07:47Z</time></trkpt><trkpt lat="39.93391602610008" lon="9.54425134385648"><ele>491.0</ele><time>2026-05-03T07:07:48Z</time></trkpt><trkpt lat="39.93399209051728" lon="9.54420924732375"><ele>494.0</ele><time>2026-05-03T07:07:49Z</time></trkpt><trkpt lat="39.93407826785299" lon="9.54420163304238"><ele>497.0</ele><time>2026-05-03T07:07:50Z</time></trkpt><trkpt lat="39.93417662258279" lon="9.544225663551131"><ele>500.0</ele><time>2026-05-03T07:07:51Z</time></trkpt><trkpt lat="39.934283087642186" lon="9.544275811590031"><ele>503.0</ele><time>2026-05-03T07:07:52Z</time></trkpt><trkpt lat="39.934400597541384" lon="9.544351740874436"><ele>506.0</ele><time>2026-05-03T07:07:53Z</time></trkpt><trkpt lat="39.934520428358105" lon="9.544467532117547"><ele>505.0</ele><time>2026-05-03T07:07:54Z</time></trkpt><trkpt lat="39.9346561781089" lon="9.544576286959197"><ele>504.0</ele><time>2026-05-03T07:07:55Z</time></trkpt><trkpt lat="39.934817406821914" lon="9.544673503130538"><ele>503.0</ele><time>2026-05-03T07:07:56Z</time></trkpt><trkpt lat="39.93496095820414" lon="9.544768555816662"><ele>508.0</ele><time>2026-05-03T07:07:57Z</time></trkpt><trkpt lat="39.93510182057525" lon="9.544845301145289"><ele>513.0</ele><time>2026-05-03T07:07:58Z</time></trkpt><trkpt lat="39.93524434979362" lon="9.544903045163922"><ele>518.0</ele><time>2026-05-03T07:07:59Z</time></trkpt><trkpt lat="39.93539886538131" lon="9.544942476743296"><ele>518.0</ele><time>2026-05-03T07:08:00Z</time></trkpt><trkpt lat="39.93556447604344" lon="9.544992626438964"><ele>518.0</ele><time>2026-05-03T07:08:01Z</time></trkpt><trkpt lat="39.93573785385241" lon="9.545021145543505"><ele>518.0</ele><time>2026-05-03T07:08:02Z</time></trkpt><trkpt lat="39.935887003690766" lon="9.545025822732137"><ele>520.0</ele><time>2026-05-03T07:08:03Z</time></trkpt><trkpt lat="39.936004001271364" lon="9.545058681718768"><ele>522.0</ele><time>2026-05-03T07:08:04Z</time></trkpt><trkpt lat="39.936120360002796" lon="9.545088374117391"><ele>524.0</ele><time>2026-05-03T07:08:05Z</time></trkpt><trkpt lat="39.93619229034597" lon="9.545105744761754"><ele>526.0</ele><time>2026-05-03T07:08:06Z</time></trkpt><trkpt lat="39.936309560348235" lon="9.54507163078316"><ele>528.0</ele><time>2026-05-03T07:08:08Z</time></trkpt><trkpt lat="39.936348078432665" lon="9.544925942285658"><ele>528.0</ele><time>2026-05-03T07:08:10Z</time></trkpt><trkpt lat="39.936290928562855" lon="9.544851707050329"><ele>528.0</ele><time>2026-05-03T07:08:11Z</time></trkpt><trkpt lat="39.936193341742246" lon="9.54484110465541"><ele>528.0</ele><time>2026-05-03T07:08:12Z</time></trkpt><trkpt lat="39.936092489329035" lon="9.544819943419926"><ele>528.0</ele><time>2026-05-03T07:08:13Z</time></trkpt><trkpt lat="39.935976599945505" lon="9.544802718093125"><ele>528.0</ele><time>2026-05-03T07:08:14Z</time></trkpt><trkpt lat="39.93585046586046" lon="9.544774614718273"><ele>525.5</ele><time>2026-05-03T07:08:15Z</time></trkpt><trkpt lat="39.93571958715044" lon="9.544724388876311"><ele>523.0</ele><time>2026-05-03T07:08:16Z</time></trkpt><trkpt lat="39.93559097311712" lon="9.544646876027418"><ele>520.5</ele><time>2026-05-03T07:08:17Z</time></trkpt><trkpt lat="39.93547359409097" lon="9.54456262603837"><ele>518.0</ele><time>2026-05-03T07:08:18Z</time></trkpt><trkpt lat="39.935372848755634" lon="9.544459456836085"><ele>520.5</ele><time>2026-05-03T07:08:19Z</time></trkpt><trkpt lat="39.93528318027971" lon="9.544334082011732"><ele>523.0</ele><time>2026-05-03T07:08:20Z</time></trkpt><trkpt lat="39.935199475754025" lon="9.54417980122212"><ele>525.5</ele><time>2026-05-03T07:08:21Z</time></trkpt><trkpt lat="39.93511524937" lon="9.544018846687433"><ele>528.0</ele><time>2026-05-03T07:08:22Z</time></trkpt><trkpt lat="39.935020766927266" lon="9.543825107008908"><ele>535.6666666666666</ele><time>2026-05-03T07:08:23Z</time></trkpt><trkpt lat="39.93492449681162" lon="9.54362516034531"><ele>543.3333333333333</ele><time>2026-05-03T07:08:24Z</time></trkpt><trkpt lat="39.934819035613145" lon="9.543410180622356"><ele>551.0</ele><time>2026-05-03T07:08:25Z</time></trkpt><trkpt lat="39.93471997917585" lon="9.543173811415791"><ele>551.0</ele><time>2026-05-03T07:08:26Z</time></trkpt><trkpt lat="39.934605142250234" lon="9.542972764904638"><ele>551.0</ele><time>2026-05-03T07:08:27Z</time></trkpt><trkpt lat="39.93449759059141" lon="9.542811777686989"><ele>551.0</ele><time>2026-05-03T07:08:28Z</time></trkpt><trkpt lat="39.934387898100525" lon="9.542669607001065"><ele>552.0</ele><time>2026-05-03T07:08:29Z</time></trkpt><trkpt lat="39.93431132987306" lon="9.542505636525988"><ele>553.0</ele><time>2026-05-03T07:08:30Z</time></trkpt><trkpt lat="39.93425591944092" lon="9.542334111612467"><ele>554.0</ele><time>2026-05-03T07:08:31Z</time></trkpt><trkpt lat="39.93422059739079" lon="9.542153948290542"><ele>555.0</ele><time>2026-05-03T07:08:32Z</time></trkpt><trkpt lat="39.934201124887736" lon="9.541967539015713"><ele>555.0</ele><time>2026-05-03T07:08:33Z</time></trkpt><trkpt lat="39.93417805895608" lon="9.541775564014491"><ele>555.0</ele><time>2026-05-03T07:08:34Z</time></trkpt><trkpt lat="39.934186979174314" lon="9.54158415533896"><ele>555.0</ele><time>2026-05-03T07:08:35Z</time></trkpt><trkpt lat="39.93421154746048" lon="9.541397327388216"><ele>555.0</ele><time>2026-05-03T07:08:36Z</time></trkpt><trkpt lat="39.93423206793826" lon="9.541213810790671"><ele>557.75</ele><time>2026-05-03T07:08:37Z</time></trkpt><trkpt lat="39.93425519475929" lon="9.54102934831445"><ele>560.5</ele><time>2026-05-03T07:08:38Z</time></trkpt><trkpt lat="39.93424935040152" lon="9.540842124933171"><ele>563.25</ele><time>2026-05-03T07:08:39Z</time></trkpt><trkpt lat="39.934232768963206" lon="9.540654121501978"><ele>566.0</ele><time>2026-05-03T07:08:40Z</time></trkpt><trkpt lat="39.9341990124659" lon="9.54047416170909"><ele>571.0</ele><time>2026-05-03T07:08:41Z</time></trkpt><trkpt lat="39.934149680274636" lon="9.540304811868959"><ele>576.0</ele><time>2026-05-03T07:08:42Z</time></trkpt><trkpt lat="39.93405831742779" lon="9.540154242332038"><ele>581.0</ele><time>2026-05-03T07:08:43Z</time></trkpt><trkpt lat="39.93395575320609" lon="9.540037142877734"><ele>586.0</ele><time>2026-05-03T07:08:44Z</time></trkpt><trkpt lat="39.93387784111413" lon="9.539918193486477"><ele>586.0</ele><time>2026-05-03T07:08:45Z</time></trkpt><trkpt lat="39.933812877613285" lon="9.53979495304544"><ele>586.0</ele><time>2026-05-03T07:08:46Z</time></trkpt><trkpt lat="39.933767387373194" lon="9.539647333254065"><ele>586.0</ele><time>2026-05-03T07:08:47Z</time></trkpt><trkpt lat="39.93373206832475" lon="9.539487307675065"><ele>586.0</ele><time>2026-05-03T07:08:48Z</time></trkpt><trkpt lat="39.933689872368426" lon="9.539333239459916"><ele>583.5</ele><time>2026-05-03T07:08:49Z</time></trkpt><trkpt lat="39.9336484937477" lon="9.53917768954422"><ele>581.0</ele><time>2026-05-03T07:08:50Z</time></trkpt><trkpt lat="39.933568090475944" lon="9.539037266558095"><ele>578.5</ele><time>2026-05-03T07:08:51Z</time></trkpt><trkpt lat="39.93346597632883" lon="9.538915092130628"><ele>576.0</ele><time>2026-05-03T07:08:52Z</time></trkpt><trkpt lat="39.93333968261782" lon="9.538820338067321"><ele>576.0</ele><time>2026-05-03T07:08:53Z</time></trkpt><trkpt lat="39.933211874876825" lon="9.53872620092617"><ele>576.0</ele><time>2026-05-03T07:08:54Z</time></trkpt><trkpt lat="39.93308654516555" lon="9.538630704005646"><ele>576.0</ele><time>2026-05-03T07:08:55Z</time></trkpt><trkpt lat="39.932979289518826" lon="9.53854206503013"><ele>576.0</ele><time>2026-05-03T07:08:56Z</time></trkpt><trkpt lat="39.932905910202315" lon="9.538374564770121"><ele>587.3333333333334</ele><time>2026-05-03T07:08:57Z</time></trkpt><trkpt lat="39.932818336638896" lon="9.538198065291093"><ele>598.6666666666667</ele><time>2026-05-03T07:08:58Z</time></trkpt><trkpt lat="39.93271499468192" lon="9.53802128086182"><ele>610.0</ele><time>2026-05-03T07:08:59Z</time></trkpt><trkpt lat="39.93262802704304" lon="9.537836097958433"><ele>609.5</ele><time>2026-05-03T07:09:00Z</time></trkpt><trkpt lat="39.9325517694704" lon="9.537672770229904"><ele>609.0</ele><time>2026-05-03T07:09:01Z</time></trkpt><trkpt lat="39.93249307470945" lon="9.537516051286424"><ele>608.5</ele><time>2026-05-03T07:09:02Z</time></trkpt><trkpt lat="39.93239521597394" lon="9.537394791845244"><ele>608.0</ele><time>2026-05-03T07:09:03Z</time></trkpt><trkpt lat="39.932278610369686" lon="9.537306577055578"><ele>608.0</ele><time>2026-05-03T07:09:04Z</time></trkpt><trkpt lat="39.93214029627808" lon="9.53728449793035"><ele>608.0</ele><time>2026-05-03T07:09:05Z</time></trkpt><trkpt lat="39.93198138110841" lon="9.53727807036079"><ele>608.0</ele><time>2026-05-03T07:09:06Z</time></trkpt><trkpt lat="39.93180365620834" lon="9.537264915557389"><ele>603.3333333333333</ele><time>2026-05-03T07:09:07Z</time></trkpt><trkpt lat="39.931630549272896" lon="9.537267344028136"><ele>598.6666666666666</ele><time>2026-05-03T07:09:08Z</time></trkpt><trkpt lat="39.931469989302094" lon="9.537253493448713"><ele>594.0</ele><time>2026-05-03T07:09:09Z</time></trkpt><trkpt lat="39.931323093172956" lon="9.537196385369187"><ele>594.0</ele><time>2026-05-03T07:09:10Z</time></trkpt><trkpt lat="39.93119963770935" lon="9.537097798022709"><ele>594.0</ele><time>2026-05-03T07:09:11Z</time></trkpt><trkpt lat="39.93110272174545" lon="9.536979246394777"><ele>594.0</ele><time>2026-05-03T07:09:12Z</time></trkpt><trkpt lat="39.931053827914795" lon="9.536839215420255"><ele>594.0</ele><time>2026-05-03T07:09:14Z</time></trkpt><trkpt lat="39.93105323763807" lon="9.536719635993125"><ele>600.75</ele><time>2026-05-03T07:09:15Z</time></trkpt><trkpt lat="39.9310513731145" lon="9.536580119564322"><ele>607.5</ele><time>2026-05-03T07:09:16Z</time></trkpt><trkpt lat="39.9310897396046" lon="9.536442134772088"><ele>614.25</ele><time>2026-05-03T07:09:17Z</time></trkpt><trkpt lat="39.93114688039321" lon="9.536273725932336"><ele>621.0</ele><time>2026-05-03T07:09:18Z</time></trkpt><trkpt lat="39.931203787278506" lon="9.536079265251534"><ele>624.5</ele><time>2026-05-03T07:09:19Z</time></trkpt><trkpt lat="39.93123347401002" lon="9.53589747923238"><ele>628.0</ele><time>2026-05-03T07:09:20Z</time></trkpt><trkpt lat="39.93124987129696" lon="9.535747785517872"><ele>631.5</ele><time>2026-05-03T07:09:21Z</time></trkpt><trkpt lat="39.9312368294205" lon="9.535608317930189"><ele>635.0</ele><time>2026-05-03T07:09:22Z</time></trkpt><trkpt lat="39.93119598750808" lon="9.535470446368345"><ele>633.25</ele><time>2026-05-03T07:09:23Z</time></trkpt><trkpt lat="39.93112518121177" lon="9.535343758658923"><ele>631.5</ele><time>2026-05-03T07:09:24Z</time></trkpt><trkpt lat="39.9310329681197" lon="9.535199960052989"><ele>629.75</ele><time>2026-05-03T07:09:25Z</time></trkpt><trkpt lat="39.930935583564604" lon="9.535068943434569"><ele>628.0</ele><time>2026-05-03T07:09:26Z</time></trkpt><trkpt lat="39.93083893877861" lon="9.534964505065616"><ele>628.0</ele><time>2026-05-03T07:09:27Z</time></trkpt><trkpt lat="39.93072916976245" lon="9.534889037485398"><ele>628.0</ele><time>2026-05-03T07:09:28Z</time></trkpt><trkpt lat="39.93060560092377" lon="9.534843726624393"><ele>628.0</ele><time>2026-05-03T07:09:29Z</time></trkpt><trkpt lat="39.93047353606046" lon="9.534817255651413"><ele>628.0</ele><time>2026-05-03T07:09:30Z</time></trkpt><trkpt lat="39.93033964165124" lon="9.534780911543237"><ele>628.0</ele><time>2026-05-03T07:09:31Z</time></trkpt><trkpt lat="39.93022249896774" lon="9.534718030065346"><ele>628.0</ele><time>2026-05-03T07:09:32Z</time></trkpt><trkpt lat="39.93013940895888" lon="9.534623763806044"><ele>628.0</ele><time>2026-05-03T07:09:33Z</time></trkpt><trkpt lat="39.93007547953264" lon="9.534514009866442"><ele>628.0</ele><time>2026-05-03T07:09:34Z</time></trkpt><trkpt lat="39.93002524392064" lon="9.534370877618096"><ele>631.0</ele><time>2026-05-03T07:09:35Z</time></trkpt><trkpt lat="39.92995598134161" lon="9.534196356427676"><ele>634.0</ele><time>2026-05-03T07:09:36Z</time></trkpt><trkpt lat="39.929887240966906" lon="9.534015659355084"><ele>637.0</ele><time>2026-05-03T07:09:37Z</time></trkpt><trkpt lat="39.92979554650762" lon="9.533846808357753"><ele>645.3333333333334</ele><time>2026-05-03T07:09:38Z</time></trkpt><trkpt lat="39.92970910942267" lon="9.533668469029541"><ele>653.6666666666666</ele><time>2026-05-03T07:09:39Z</time></trkpt><trkpt lat="39.92960829469455" lon="9.53351426865351"><ele>662.0</ele><time>2026-05-03T07:09:40Z</time></trkpt><trkpt lat="39.92949427673447" lon="9.533407092653986"><ele>662.0</ele><time>2026-05-03T07:09:41Z</time></trkpt><trkpt lat="39.929393577466534" lon="9.533322298517616"><ele>662.0</ele><time>2026-05-03T07:09:42Z</time></trkpt><trkpt lat="39.92928831225156" lon="9.53327367797476"><ele>662.0</ele><time>2026-05-03T07:09:43Z</time></trkpt><trkpt lat="39.92918969810997" lon="9.533263812980119"><ele>662.0</ele><time>2026-05-03T07:09:43.999Z</time></trkpt><trkpt lat="39.929095796038744" lon="9.53328004457437"><ele>662.0</ele><time>2026-05-03T07:09:44.999Z</time></trkpt><trkpt lat="39.92898882172342" lon="9.533346939467247"><ele>658.5</ele><time>2026-05-03T07:09:45.999Z</time></trkpt><trkpt lat="39.92886312952304" lon="9.533389489478012"><ele>655.0</ele><time>2026-05-03T07:09:46.999Z</time></trkpt><trkpt lat="39.928721071910566" lon="9.533436069084123"><ele>651.5</ele><time>2026-05-03T07:09:47.999Z</time></trkpt><trkpt lat="39.92858681556131" lon="9.53348774511721"><ele>648.0</ele><time>2026-05-03T07:09:48.999Z</time></trkpt><trkpt lat="39.92844082382647" lon="9.533497983502059"><ele>649.0</ele><time>2026-05-03T07:09:49.999Z</time></trkpt><trkpt lat="39.92830809450034" lon="9.533482470704461"><ele>650.0</ele><time>2026-05-03T07:09:50.999Z</time></trkpt><trkpt lat="39.928186297333376" lon="9.533436638684734"><ele>651.0</ele><time>2026-05-03T07:09:51.999Z</time></trkpt><trkpt lat="39.92807773864021" lon="9.533352485633419"><ele>652.0</ele><time>2026-05-03T07:09:52.999Z</time></trkpt><trkpt lat="39.92797914885629" lon="9.533241542761578"><ele>652.0</ele><time>2026-05-03T07:09:53.999Z</time></trkpt><trkpt lat="39.92790376310852" lon="9.533109336022871"><ele>652.0</ele><time>2026-05-03T07:09:55Z</time></trkpt><trkpt lat="39.92784982745038" lon="9.53297734258393"><ele>652.0</ele><time>2026-05-03T07:09:56Z</time></trkpt><trkpt lat="39.92781347374761" lon="9.532825750661356"><ele>652.0</ele><time>2026-05-03T07:09:57Z</time></trkpt><trkpt lat="39.92778213993076" lon="9.532642429441891"><ele>660.6666666666667</ele><time>2026-05-03T07:09:58Z</time></trkpt><trkpt lat="39.92774799995366" lon="9.532455145469081"><ele>669.3333333333334</ele><time>2026-05-03T07:09:59Z</time></trkpt><trkpt lat="39.92768713382175" lon="9.532258257699409"><ele>678.0</ele><time>2026-05-03T07:10:00Z</time></trkpt><trkpt lat="39.92760479824194" lon="9.532053533351032"><ele>671.6666666666666</ele><time>2026-05-03T07:10:01Z</time></trkpt><trkpt lat="39.92750543201366" lon="9.531846629063446"><ele>665.3333333333333</ele><time>2026-05-03T07:10:02Z</time></trkpt><trkpt lat="39.92739835837643" lon="9.531641587995761"><ele>659.0</ele><time>2026-05-03T07:10:03Z</time></trkpt><trkpt lat="39.92730193560795" lon="9.531453884371945"><ele>659.0</ele><time>2026-05-03T07:10:04Z</time></trkpt><trkpt lat="39.92722065599327" lon="9.531272681759827"><ele>659.0</ele><time>2026-05-03T07:10:05Z</time></trkpt><trkpt lat="39.927147984608986" lon="9.531105580694412"><ele>659.0</ele><time>2026-05-03T07:10:06Z</time></trkpt><trkpt lat="39.92708650991809" lon="9.530967620047473"><ele>659.0</ele><time>2026-05-03T07:10:07Z</time></trkpt><trkpt lat="39.92702516191959" lon="9.530853282128586"><ele>657.8000000000001</ele><time>2026-05-03T07:10:08Z</time></trkpt><trkpt lat="39.92694848170811" lon="9.530769129239616"><ele>656.6</ele><time>2026-05-03T07:10:09Z</time></trkpt><trkpt lat="39.92685661776716" lon="9.530732808045528"><ele>655.4</ele><time>2026-05-03T07:10:10Z</time></trkpt><trkpt lat="39.92674924318964" lon="9.530731878213961"><ele>654.2</ele><time>2026-05-03T07:10:11Z</time></trkpt><trkpt lat="39.92661557109632" lon="9.530766735542427"><ele>653.0</ele><time>2026-05-03T07:10:12Z</time></trkpt><trkpt lat="39.92646189524742" lon="9.530787446953068"><ele>653.0</ele><time>2026-05-03T07:10:13Z</time></trkpt><trkpt lat="39.926295222361695" lon="9.53079022757695"><ele>653.0</ele><time>2026-05-03T07:10:14Z</time></trkpt><trkpt lat="39.92612950545106" lon="9.53080063858634"><ele>653.0</ele><time>2026-05-03T07:10:15Z</time></trkpt><trkpt lat="39.92595854880524" lon="9.530836542173173"><ele>653.6666666666666</ele><time>2026-05-03T07:10:16Z</time></trkpt><trkpt lat="39.92578367199912" lon="9.530895330796561"><ele>654.3333333333334</ele><time>2026-05-03T07:10:17Z</time></trkpt><trkpt lat="39.92558814664651" lon="9.53097183698985"><ele>655.0</ele><time>2026-05-03T07:10:18Z</time></trkpt><trkpt lat="39.925391725582955" lon="9.531048037247496"><ele>655.0</ele><time>2026-05-03T07:10:19Z</time></trkpt><trkpt lat="39.925208439500814" lon="9.531116045852842"><ele>655.0</ele><time>2026-05-03T07:10:20Z</time></trkpt><trkpt lat="39.925044161860775" lon="9.531176717766488"><ele>655.0</ele><time>2026-05-03T07:10:21Z</time></trkpt><trkpt lat="39.924893769502106" lon="9.531238403326673"><ele>651.25</ele><time>2026-05-03T07:10:22Z</time></trkpt><trkpt lat="39.92475175923316" lon="9.531285060419343"><ele>647.5</ele><time>2026-05-03T07:10:23Z</time></trkpt><trkpt lat="39.92460067847844" lon="9.531278791853731"><ele>643.75</ele><time>2026-05-03T07:10:24Z</time></trkpt><trkpt lat="39.924450857078476" lon="9.531264506135122"><ele>640.0</ele><time>2026-05-03T07:10:25Z</time></trkpt><trkpt lat="39.924287529757535" lon="9.531237359881224"><ele>649.3333333333334</ele><time>2026-05-03T07:10:26Z</time></trkpt><trkpt lat="39.924120166617676" lon="9.531169046646124"><ele>658.6666666666666</ele><time>2026-05-03T07:10:27Z</time></trkpt><trkpt lat="39.92397536247422" lon="9.531115533638149"><ele>668.0</ele><time>2026-05-03T07:10:28Z</time></trkpt><trkpt lat="39.923836732375044" lon="9.531062381387345"><ele>668.0</ele><time>2026-05-03T07:10:29Z</time></trkpt><trkpt lat="39.92370068834769" lon="9.531032291391336"><ele>668.0</ele><time>2026-05-03T07:10:30Z</time></trkpt><trkpt lat="39.92357066146999" lon="9.531035268057487"><ele>668.0</ele><time>2026-05-03T07:10:31Z</time></trkpt><trkpt lat="39.92345388507906" lon="9.531051951979277"><ele>668.0</ele><time>2026-05-03T07:10:32Z</time></trkpt><trkpt lat="39.92335331908838" lon="9.531045579876128"><ele>667.1666666666666</ele><time>2026-05-03T07:10:33Z</time></trkpt><trkpt lat="39.9232927730605" lon="9.531010787036076"><ele>666.3333333333333</ele><time>2026-05-03T07:10:34Z</time></trkpt><trkpt lat="39.92325030087531" lon="9.530942179607951"><ele>665.5</ele><time>2026-05-03T07:10:35Z</time></trkpt><trkpt lat="39.92322100275947" lon="9.530841836565875"><ele>664.6666666666666</ele><time>2026-05-03T07:10:36Z</time></trkpt><trkpt lat="39.923219975367196" lon="9.53072054961952"><ele>663.8333333333334</ele><time>2026-05-03T07:10:37Z</time></trkpt><trkpt lat="39.92318743298615" lon="9.530582169983703"><ele>663.0</ele><time>2026-05-03T07:10:38Z</time></trkpt><trkpt lat="39.923160726635786" lon="9.53042291451922"><ele>664.8</ele><time>2026-05-03T07:10:39Z</time></trkpt><trkpt lat="39.923122260070656" lon="9.530279735248739"><ele>666.5999999999999</ele><time>2026-05-03T07:10:40Z</time></trkpt><trkpt lat="39.923071625511135" lon="9.530142893383427"><ele>668.4000000000001</ele><time>2026-05-03T07:10:41Z</time></trkpt><trkpt lat="39.923032169766024" lon="9.53001981771266"><ele>670.2</ele><time>2026-05-03T07:10:42Z</time></trkpt><trkpt lat="39.92298772811852" lon="9.5299285807478"><ele>672.0</ele><time>2026-05-03T07:10:43Z</time></trkpt><trkpt lat="39.922934645590445" lon="9.529857368723206"><ele>672.0</ele><time>2026-05-03T07:10:44Z</time></trkpt><trkpt lat="39.922892296000924" lon="9.529789281436093"><ele>672.0</ele><time>2026-05-03T07:10:45Z</time></trkpt><trkpt lat="39.92281249967363" lon="9.529752471383743"><ele>672.0</ele><time>2026-05-03T07:10:46Z</time></trkpt><trkpt lat="39.92273245552169" lon="9.529765786543102"><ele>672.0</ele><time>2026-05-03T07:10:47Z</time></trkpt><trkpt lat="39.922663118223454" lon="9.529764786828597"><ele>672.0</ele><time>2026-05-03T07:10:48Z</time></trkpt><trkpt lat="39.922584646095494" lon="9.52977881243902"><ele>672.0</ele><time>2026-05-03T07:10:49Z</time></trkpt><trkpt lat="39.92248767498104" lon="9.529797940478847"><ele>669.8</ele><time>2026-05-03T07:10:50Z</time></trkpt><trkpt lat="39.92238564670681" lon="9.529805137904928"><ele>667.6</ele><time>2026-05-03T07:10:51Z</time></trkpt><trkpt lat="39.9222866928359" lon="9.529813813372437"><ele>665.4</ele><time>2026-05-03T07:10:52Z</time></trkpt><trkpt lat="39.922178226534015" lon="9.529831649011395"><ele>663.1999999999999</ele><time>2026-05-03T07:10:53Z</time></trkpt><trkpt lat="39.92207127488055" lon="9.529825448491861"><ele>661.0</ele><time>2026-05-03T07:10:54Z</time></trkpt><trkpt lat="39.92197097136786" lon="9.529836732138564"><ele>661.0</ele><time>2026-05-03T07:10:55Z</time></trkpt><trkpt lat="39.921867140464954" lon="9.529848412566697"><ele>661.0</ele><time>2026-05-03T07:10:56Z</time></trkpt><trkpt lat="39.921776415612534" lon="9.529875789193197"><ele>661.0</ele><time>2026-05-03T07:10:57Z</time></trkpt><trkpt lat="39.92169150056115" lon="9.52988693032091"><ele>661.0</ele><time>2026-05-03T07:10:58Z</time></trkpt><trkpt lat="39.921609001022105" lon="9.52989421461879"><ele>661.0</ele><time>2026-05-03T07:10:59Z</time></trkpt><trkpt lat="39.92153166528794" lon="9.52990566445903"><ele>661.0</ele><time>2026-05-03T07:11:00Z</time></trkpt><trkpt lat="39.921452662410076" lon="9.529911016461833"><ele>660.8333333333334</ele><time>2026-05-03T07:11:02Z</time></trkpt><trkpt lat="39.92141677158712" lon="9.529820694547473"><ele>660.6666666666667</ele><time>2026-05-03T07:11:05Z</time></trkpt><trkpt lat="39.92138837298639" lon="9.529673614519238"><ele>660.5</ele><time>2026-05-03T07:11:07Z</time></trkpt><trkpt lat="39.92135940250227" lon="9.529596063855536"><ele>660.3333333333334</ele><time>2026-05-03T07:11:08Z</time></trkpt><trkpt lat="39.92132022795172" lon="9.529518908534452"><ele>660.1666666666666</ele><time>2026-05-03T07:11:09Z</time></trkpt><trkpt lat="39.921280323966656" lon="9.529447895520644"><ele>660.0</ele><time>2026-05-03T07:11:10Z</time></trkpt><trkpt lat="39.92124605104748" lon="9.529360270536245"><ele>662.3333333333334</ele><time>2026-05-03T07:11:11Z</time></trkpt><trkpt lat="39.92122690598114" lon="9.529259275368881"><ele>664.6666666666666</ele><time>2026-05-03T07:11:12Z</time></trkpt><trkpt lat="39.92124414852504" lon="9.529135434522436"><ele>667.0</ele><time>2026-05-03T07:11:13Z</time></trkpt><trkpt lat="39.92123460072686" lon="9.529033760248666"><ele>669.3333333333333</ele><time>2026-05-03T07:11:14Z</time></trkpt><trkpt lat="39.92122664105175" lon="9.528930163000645"><ele>671.6666666666666</ele><time>2026-05-03T07:11:15Z</time></trkpt><trkpt lat="39.92122186154265" lon="9.528847367570497"><ele>674.0</ele><time>2026-05-03T07:11:16Z</time></trkpt><trkpt lat="39.92125382598324" lon="9.528702767005486"><ele>678.0</ele><time>2026-05-03T07:11:18Z</time></trkpt><trkpt lat="39.92132142085883" lon="9.528578188570998"><ele>682.0</ele><time>2026-05-03T07:11:20Z</time></trkpt><trkpt lat="39.9213913971957" lon="9.528438789593457"><ele>686.0</ele><time>2026-05-03T07:11:22Z</time></trkpt><trkpt lat="39.92143502901146" lon="9.528351871281131"><ele>690.0</ele><time>2026-05-03T07:11:23Z</time></trkpt><trkpt lat="39.92146633172789" lon="9.528278565955887"><ele>694.0</ele><time>2026-05-03T07:11:24Z</time></trkpt><trkpt lat="39.9214914980093" lon="9.528191201814531"><ele>694.0</ele><time>2026-05-03T07:11:26Z</time></trkpt><trkpt lat="39.921518532703004" lon="9.528109552901165"><ele>694.0</ele><time>2026-05-03T07:11:28Z</time></trkpt><trkpt lat="39.921414830409404" lon="9.527960471953273"><ele>694.0</ele><time>2026-05-03T07:11:32Z</time></trkpt><trkpt lat="39.92135977095897" lon="9.527876798075928"><ele>694.0</ele><time>2026-05-03T07:11:33Z</time></trkpt><trkpt lat="39.92127925955943" lon="9.527822720628745"><ele>694.0</ele><time>2026-05-03T07:11:34Z</time></trkpt><trkpt lat="39.92118663620232" lon="9.527772526731095"><ele>695.8000000000001</ele><time>2026-05-03T07:11:35Z</time></trkpt><trkpt lat="39.921093775936015" lon="9.527685230705996"><ele>697.6</ele><time>2026-05-03T07:11:36Z</time></trkpt><trkpt lat="39.92097793353391" lon="9.527648066797878"><ele>699.4</ele><time>2026-05-03T07:11:37Z</time></trkpt><trkpt lat="39.92087840693152" lon="9.527604721537237"><ele>701.2</ele><time>2026-05-03T07:11:38Z</time></trkpt><trkpt lat="39.92078982246795" lon="9.527607157982755"><ele>703.0</ele><time>2026-05-03T07:11:39Z</time></trkpt><trkpt lat="39.92070853659731" lon="9.52758472870498"><ele>703.0</ele><time>2026-05-03T07:11:40Z</time></trkpt><trkpt lat="39.92063472106015" lon="9.527553669611569"><ele>703.0</ele><time>2026-05-03T07:11:41Z</time></trkpt><trkpt lat="39.920573830504345" lon="9.527475752160097"><ele>703.0</ele><time>2026-05-03T07:11:42Z</time></trkpt><trkpt lat="39.920536180208344" lon="9.527392236564188"><ele>703.0</ele><time>2026-05-03T07:11:43Z</time></trkpt><trkpt lat="39.920504366581206" lon="9.527293597769923"><ele>703.0</ele><time>2026-05-03T07:11:44Z</time></trkpt><trkpt lat="39.920485916838636" lon="9.52717756941571"><ele>703.0</ele><time>2026-05-03T07:11:45Z</time></trkpt><trkpt lat="39.92044922666432" lon="9.527054876755752"><ele>705.2</ele><time>2026-05-03T07:11:46Z</time></trkpt><trkpt lat="39.92041147887281" lon="9.526925595145912"><ele>707.4</ele><time>2026-05-03T07:11:47Z</time></trkpt><trkpt lat="39.92033447586395" lon="9.52681555022944"><ele>709.6</ele><time>2026-05-03T07:11:48Z</time></trkpt><trkpt lat="39.92024989846881" lon="9.526717706661705"><ele>711.8000000000001</ele><time>2026-05-03T07:11:49Z</time></trkpt><trkpt lat="39.92015909897228" lon="9.526669295120321"><ele>714.0</ele><time>2026-05-03T07:11:50Z</time></trkpt><trkpt lat="39.92008393808164" lon="9.526592157148531"><ele>715.8000000000001</ele><time>2026-05-03T07:11:51Z</time></trkpt><trkpt lat="39.920018178396106" lon="9.52649817871127"><ele>717.6</ele><time>2026-05-03T07:11:52Z</time></trkpt><trkpt lat="39.919973854696124" lon="9.526389432756677"><ele>719.4</ele><time>2026-05-03T07:11:53Z</time></trkpt><trkpt lat="39.91993255844149" lon="9.526266861608141"><ele>721.2</ele><time>2026-05-03T07:11:54Z</time></trkpt><trkpt lat="39.91987520296656" lon="9.526164503215949"><ele>723.0</ele><time>2026-05-03T07:11:55Z</time></trkpt><trkpt lat="39.91981757948928" lon="9.52606430397676"><ele>723.0</ele><time>2026-05-03T07:11:56Z</time></trkpt><trkpt lat="39.919762706652904" lon="9.525992174493018"><ele>723.0</ele><time>2026-05-03T07:11:57Z</time></trkpt><trkpt lat="39.9197060964502" lon="9.525928042808648"><ele>723.0</ele><time>2026-05-03T07:11:58Z</time></trkpt><trkpt lat="39.919621693222815" lon="9.525827053995707"><ele>723.0</ele><time>2026-05-03T07:12:00Z</time></trkpt><trkpt lat="39.919596444237406" lon="9.52567302508581"><ele>723.0</ele><time>2026-05-03T07:12:02Z</time></trkpt><trkpt lat="39.91960013711867" lon="9.525571414102801"><ele>723.0</ele><time>2026-05-03T07:12:03Z</time></trkpt><trkpt lat="39.9195962530029" lon="9.525470695103193"><ele>723.0</ele><time>2026-05-03T07:12:04Z</time></trkpt><trkpt lat="39.91957823854058" lon="9.525378724678985"><ele>723.0</ele><time>2026-05-03T07:12:05Z</time></trkpt><trkpt lat="39.91953649240388" lon="9.525297943979506"><ele>723.0</ele><time>2026-05-03T07:12:06Z</time></trkpt><trkpt lat="39.91947807626235" lon="9.525235920355641"><ele>723.0</ele><time>2026-05-03T07:12:07Z</time></trkpt><trkpt lat="39.919417096184354" lon="9.525172235453098"><ele>723.0</ele><time>2026-05-03T07:12:08Z</time></trkpt><trkpt lat="39.91935670606911" lon="9.525112078492043"><ele>723.7142857142858</ele><time>2026-05-03T07:12:09Z</time></trkpt><trkpt lat="39.91930347994489" lon="9.525044823042983"><ele>724.4285714285714</ele><time>2026-05-03T07:12:10Z</time></trkpt><trkpt lat="39.919251598736814" lon="9.52497140004179"><ele>725.1428571428571</ele><time>2026-05-03T07:12:11Z</time></trkpt><trkpt lat="39.91920459640306" lon="9.524898922600487"><ele>725.8571428571429</ele><time>2026-05-03T07:12:12Z</time></trkpt><trkpt lat="39.919162476850936" lon="9.524828683011387"><ele>726.5714285714286</ele><time>2026-05-03T07:12:13Z</time></trkpt><trkpt lat="39.919131042785025" lon="9.524743238564417"><ele>727.2857142857143</ele><time>2026-05-03T07:12:14Z</time></trkpt><trkpt lat="39.91911183614458" lon="9.524653479796557"><ele>728.0</ele><time>2026-05-03T07:12:15Z</time></trkpt><trkpt lat="39.91910160221193" lon="9.524546021402577"><ele>730.5</ele><time>2026-05-03T07:12:16Z</time></trkpt><trkpt lat="39.91908280664412" lon="9.524448425619514"><ele>733.0</ele><time>2026-05-03T07:12:17Z</time></trkpt><trkpt lat="39.91906708767611" lon="9.524348302499481"><ele>735.5</ele><time>2026-05-03T07:12:18Z</time></trkpt><trkpt lat="39.91900232645953" lon="9.524272957122188"><ele>738.0</ele><time>2026-05-03T07:12:19Z</time></trkpt><trkpt lat="39.91890631587901" lon="9.524249032515916"><ele>740.5</ele><time>2026-05-03T07:12:20Z</time></trkpt><trkpt lat="39.91881992857997" lon="9.524225752270679"><ele>743.0</ele><time>2026-05-03T07:12:21Z</time></trkpt><trkpt lat="39.91872483744435" lon="9.524202224684654"><ele>743.0</ele><time>2026-05-03T07:12:22Z</time></trkpt><trkpt lat="39.918632526758444" lon="9.524180622614326"><ele>743.0</ele><time>2026-05-03T07:12:23Z</time></trkpt><trkpt lat="39.91854183552251" lon="9.524160395910378"><ele>743.0</ele><time>2026-05-03T07:12:24Z</time></trkpt><trkpt lat="39.918452612301685" lon="9.524140496609906"><ele>743.0</ele><time>2026-05-03T07:12:25Z</time></trkpt><trkpt lat="39.91836776114672" lon="9.524120586338828"><ele>743.0</ele><time>2026-05-03T07:12:26Z</time></trkpt><trkpt lat="39.918286007677416" lon="9.524101258867505"><ele>743.0</ele><time>2026-05-03T07:12:27Z</time></trkpt><trkpt lat="39.91820674201488" lon="9.524079044511627"><ele>742.5</ele><time>2026-05-03T07:12:28Z</time></trkpt><trkpt lat="39.918138696819774" lon="9.524048519773856"><ele>742.0</ele><time>2026-05-03T07:12:29Z</time></trkpt><trkpt lat="39.91806679048167" lon="9.524026527850976"><ele>741.5</ele><time>2026-05-03T07:12:30Z</time></trkpt><trkpt lat="39.918001564467495" lon="9.523980775533706"><ele>741.0</ele><time>2026-05-03T07:12:31Z</time></trkpt><trkpt lat="39.91794517333445" lon="9.523905843413287"><ele>740.5</ele><time>2026-05-03T07:12:32Z</time></trkpt><trkpt lat="39.91787911876768" lon="9.523831125330828"><ele>740.0</ele><time>2026-05-03T07:12:33Z</time></trkpt><trkpt lat="39.91780914090823" lon="9.52374807671238"><ele>740.5</ele><time>2026-05-03T07:12:34Z</time></trkpt><trkpt lat="39.917735215002295" lon="9.523677298827177"><ele>741.0</ele><time>2026-05-03T07:12:35Z</time></trkpt><trkpt lat="39.91768584724611" lon="9.523588906184886"><ele>741.5</ele><time>2026-05-03T07:12:36Z</time></trkpt><trkpt lat="39.91764737232682" lon="9.523513447901351"><ele>742.0</ele><time>2026-05-03T07:12:37Z</time></trkpt><trkpt lat="39.91758305885366" lon="9.523384015822014"><ele>742.5</ele><time>2026-05-03T07:12:39Z</time></trkpt><trkpt lat="39.917545478304746" lon="9.523315492153888"><ele>743.0</ele><time>2026-05-03T07:12:40Z</time></trkpt><trkpt lat="39.91751008129685" lon="9.523236405260816"><ele>743.0</ele><time>2026-05-03T07:12:41Z</time></trkpt><trkpt lat="39.91742628544868" lon="9.523202648255332"><ele>743.0</ele><time>2026-05-03T07:12:42Z</time></trkpt><trkpt lat="39.917349374402605" lon="9.523163046672751"><ele>743.0</ele><time>2026-05-03T07:12:43Z</time></trkpt><trkpt lat="39.91728038932839" lon="9.523090315667229"><ele>743.0</ele><time>2026-05-03T07:12:44Z</time></trkpt><trkpt lat="39.917202916340045" lon="9.523034462293746"><ele>743.0</ele><time>2026-05-03T07:12:45Z</time></trkpt><trkpt lat="39.91712495613158" lon="9.522979219025183"><ele>743.0</ele><time>2026-05-03T07:12:46Z</time></trkpt><trkpt lat="39.917048808281336" lon="9.522926160598654"><ele>742.0</ele><time>2026-05-03T07:12:47Z</time></trkpt><trkpt lat="39.91697176678062" lon="9.522872479492193"><ele>741.0</ele><time>2026-05-03T07:12:48Z</time></trkpt><trkpt lat="39.91689210966076" lon="9.522830687251624"><ele>740.0</ele><time>2026-05-03T07:12:49Z</time></trkpt><trkpt lat="39.91682068325047" lon="9.522772530272603"><ele>739.0</ele><time>2026-05-03T07:12:50Z</time></trkpt><trkpt lat="39.916760927869696" lon="9.522718495430015"><ele>738.0</ele><time>2026-05-03T07:12:51Z</time></trkpt><trkpt lat="39.9166935236466" lon="9.52260749858468"><ele>737.0</ele><time>2026-05-03T07:12:53Z</time></trkpt><trkpt lat="39.91670718056996" lon="9.522503065319327"><ele>737.0</ele><time>2026-05-03T07:12:54Z</time></trkpt><trkpt lat="39.9167183113868" lon="9.522395105130508"><ele>737.0</ele><time>2026-05-03T07:12:55Z</time></trkpt><trkpt lat="39.91672335743247" lon="9.522279056918117"><ele>737.0</ele><time>2026-05-03T07:12:56Z</time></trkpt><trkpt lat="39.91669128143745" lon="9.522181104691255"><ele>737.0</ele><time>2026-05-03T07:12:57Z</time></trkpt><trkpt lat="39.91666698147233" lon="9.522077702181447"><ele>737.0</ele><time>2026-05-03T07:12:58Z</time></trkpt><trkpt lat="39.91659698671225" lon="9.522028184272967"><ele>737.0</ele><time>2026-05-03T07:12:59Z</time></trkpt><trkpt lat="39.916464320202266" lon="9.522064735602099"><ele>737.0</ele><time>2026-05-03T07:13:00Z</time></trkpt><trkpt lat="39.91635509159299" lon="9.522121998945613"><ele>737.0</ele><time>2026-05-03T07:13:01Z</time></trkpt><trkpt lat="39.91623199525329" lon="9.522164051839084"><ele>737.0</ele><time>2026-05-03T07:13:02Z</time></trkpt><trkpt lat="39.916099597908705" lon="9.522212160262539"><ele>737.0</ele><time>2026-05-03T07:13:03Z</time></trkpt><trkpt lat="39.91597228324834" lon="9.522267809887754"><ele>737.25</ele><time>2026-05-03T07:13:04Z</time></trkpt><trkpt lat="39.91582628625018" lon="9.522323075024188"><ele>737.5</ele><time>2026-05-03T07:13:05Z</time></trkpt><trkpt lat="39.91568728283555" lon="9.522388602776653"><ele>737.75</ele><time>2026-05-03T07:13:06Z</time></trkpt><trkpt lat="39.91556213254064" lon="9.522445069158213"><ele>738.0</ele><time>2026-05-03T07:13:07Z</time></trkpt><trkpt lat="39.915447965432016" lon="9.522489958455752"><ele>738.0</ele><time>2026-05-03T07:13:08Z</time></trkpt><trkpt lat="39.91535035055189" lon="9.522516533705817"><ele>738.0</ele><time>2026-05-03T07:13:09Z</time></trkpt><trkpt lat="39.91526570977142" lon="9.522529762982078"><ele>738.0</ele><time>2026-05-03T07:13:10Z</time></trkpt><trkpt lat="39.91518879442275" lon="9.522515392754334"><ele>738.0</ele><time>2026-05-03T07:13:11Z</time></trkpt><trkpt lat="39.9151086649184" lon="9.522484199058393"><ele>738.0</ele><time>2026-05-03T07:13:12Z</time></trkpt><trkpt lat="39.915025954184685" lon="9.522448918231621"><ele>738.0</ele><time>2026-05-03T07:13:13Z</time></trkpt><trkpt lat="39.91494369512449" lon="9.522412626535418"><ele>739.2</ele><time>2026-05-03T07:13:14Z</time></trkpt><trkpt lat="39.914861283923656" lon="9.522364967980996"><ele>740.4</ele><time>2026-05-03T07:13:15Z</time></trkpt><trkpt lat="39.91478148542476" lon="9.522288021824679"><ele>741.6</ele><time>2026-05-03T07:13:16Z</time></trkpt><trkpt lat="39.9147019376114" lon="9.522190709113188"><ele>742.8000000000001</ele><time>2026-05-03T07:13:17Z</time></trkpt><trkpt lat="39.914636890750536" lon="9.52207089553608"><ele>744.0</ele><time>2026-05-03T07:13:18Z</time></trkpt><trkpt lat="39.914594359423084" lon="9.52192325844075"><ele>748.75</ele><time>2026-05-03T07:13:19Z</time></trkpt><trkpt lat="39.914553745832" lon="9.521781798905367"><ele>753.5</ele><time>2026-05-03T07:13:20Z</time></trkpt><trkpt lat="39.91449540988716" lon="9.521663309920923"><ele>758.25</ele><time>2026-05-03T07:13:21Z</time></trkpt><trkpt lat="39.914422184279175" lon="9.521542832139506"><ele>763.0</ele><time>2026-05-03T07:13:22Z</time></trkpt><trkpt lat="39.91431184504876" lon="9.521469370138249"><ele>760.5</ele><time>2026-05-03T07:13:23Z</time></trkpt><trkpt lat="39.91420938038033" lon="9.521397446365725"><ele>758.0</ele><time>2026-05-03T07:13:24Z</time></trkpt><trkpt lat="39.914093522671365" lon="9.521331058900627"><ele>755.5</ele><time>2026-05-03T07:13:25Z</time></trkpt><trkpt lat="39.9139497110922" lon="9.521343008063342"><ele>753.0</ele><time>2026-05-03T07:13:26Z</time></trkpt><trkpt lat="39.91379620415727" lon="9.521355300021954"><ele>753.0</ele><time>2026-05-03T07:13:27Z</time></trkpt><trkpt lat="39.91363310756249" lon="9.521374835202895"><ele>753.0</ele><time>2026-05-03T07:13:28Z</time></trkpt><trkpt lat="39.91345978695379" lon="9.521392087974801"><ele>753.0</ele><time>2026-05-03T07:13:29Z</time></trkpt><trkpt lat="39.913277647923636" lon="9.521407646594312"><ele>753.6666666666666</ele><time>2026-05-03T07:13:30Z</time></trkpt><trkpt lat="39.9130911012964" lon="9.521425385135059"><ele>754.3333333333333</ele><time>2026-05-03T07:13:31Z</time></trkpt><trkpt lat="39.912901082546426" lon="9.521451828092383"><ele>755.0</ele><time>2026-05-03T07:13:32Z</time></trkpt><trkpt lat="39.91270991664578" lon="9.5215003993594"><ele>755.6666666666666</ele><time>2026-05-03T07:13:33Z</time></trkpt><trkpt lat="39.912516192747276" lon="9.521566445617188"><ele>756.3333333333334</ele><time>2026-05-03T07:13:34Z</time></trkpt><trkpt lat="39.91231675048039" lon="9.521635363346356"><ele>757.0</ele><time>2026-05-03T07:13:35Z</time></trkpt><trkpt lat="39.912107134865145" lon="9.521702673963846"><ele>757.0</ele><time>2026-05-03T07:13:36Z</time></trkpt><trkpt lat="39.911899536749644" lon="9.521771190373135"><ele>757.0</ele><time>2026-05-03T07:13:37Z</time></trkpt><trkpt lat="39.911700300032116" lon="9.521812992541282"><ele>757.0</ele><time>2026-05-03T07:13:38Z</time></trkpt><trkpt lat="39.911522253069066" lon="9.521891488493598"><ele>760.3333333333334</ele><time>2026-05-03T07:13:39Z</time></trkpt><trkpt lat="39.911354159281956" lon="9.521948995235723"><ele>763.6666666666666</ele><time>2026-05-03T07:13:40Z</time></trkpt><trkpt lat="39.91120036370267" lon="9.522001751450993"><ele>767.0</ele><time>2026-05-03T07:13:41Z</time></trkpt><trkpt lat="39.9110659771935" lon="9.522044548683308"><ele>762.5</ele><time>2026-05-03T07:13:42Z</time></trkpt><trkpt lat="39.91094008160401" lon="9.522082600782731"><ele>758.0</ele><time>2026-05-03T07:13:43Z</time></trkpt><trkpt lat="39.9108025588568" lon="9.522110940321351"><ele>753.5</ele><time>2026-05-03T07:13:44Z</time></trkpt><trkpt lat="39.91065626286491" lon="9.522111603392794"><ele>749.0</ele><time>2026-05-03T07:13:45Z</time></trkpt><trkpt lat="39.91051395299628" lon="9.522090335591743"><ele>754.75</ele><time>2026-05-03T07:13:46Z</time></trkpt><trkpt lat="39.91039011502514" lon="9.522062287168273"><ele>760.5</ele><time>2026-05-03T07:13:47Z</time></trkpt><trkpt lat="39.91027746783928" lon="9.522016264702664"><ele>766.25</ele><time>2026-05-03T07:13:48Z</time></trkpt><trkpt lat="39.91017402462703" lon="9.521946011564332"><ele>772.0</ele><time>2026-05-03T07:13:49Z</time></trkpt><trkpt lat="39.91006893493601" lon="9.521844152177756"><ele>772.0</ele><time>2026-05-03T07:13:50Z</time></trkpt><trkpt lat="39.9099740861101" lon="9.521720089875362"><ele>772.0</ele><time>2026-05-03T07:13:51Z</time></trkpt><trkpt lat="39.909893154343884" lon="9.521568394479564"><ele>772.0</ele><time>2026-05-03T07:13:52Z</time></trkpt><trkpt lat="39.90981601936249" lon="9.52140361923473"><ele>772.0</ele><time>2026-05-03T07:13:53Z</time></trkpt><trkpt lat="39.909734374117406" lon="9.521262650961585"><ele>776.0</ele><time>2026-05-03T07:13:54Z</time></trkpt><trkpt lat="39.90965066828747" lon="9.521131883975675"><ele>780.0</ele><time>2026-05-03T07:13:55Z</time></trkpt><trkpt lat="39.909529254808824" lon="9.521041507097195"><ele>784.0</ele><time>2026-05-03T07:13:56Z</time></trkpt><trkpt lat="39.90938997308922" lon="9.520996755246596"><ele>788.0</ele><time>2026-05-03T07:13:57Z</time></trkpt><trkpt lat="39.90923693435406" lon="9.52095026916525"><ele>788.0</ele><time>2026-05-03T07:13:58Z</time></trkpt><trkpt lat="39.90907984774641" lon="9.52090467948742"><ele>788.0</ele><time>2026-05-03T07:13:59Z</time></trkpt><trkpt lat="39.90893097030555" lon="9.520865938743071"><ele>788.0</ele><time>2026-05-03T07:14:00Z</time></trkpt><trkpt lat="39.908795547832646" lon="9.52083297241387"><ele>788.0</ele><time>2026-05-03T07:14:01Z</time></trkpt><trkpt lat="39.908676887532636" lon="9.520791802836719"><ele>788.0</ele><time>2026-05-03T07:14:02Z</time></trkpt><trkpt lat="39.908581847069854" lon="9.520725378558025"><ele>788.0</ele><time>2026-05-03T07:14:03Z</time></trkpt><trkpt lat="39.90849749783997" lon="9.520630576925164"><ele>788.0</ele><time>2026-05-03T07:14:04Z</time></trkpt><trkpt lat="39.908424999505435" lon="9.520499953425997"><ele>790.0</ele><time>2026-05-03T07:14:05Z</time></trkpt><trkpt lat="39.908357109053256" lon="9.520347488639201"><ele>792.0</ele><time>2026-05-03T07:14:06Z</time></trkpt><trkpt lat="39.90827596006153" lon="9.520198199909668"><ele>794.0</ele><time>2026-05-03T07:14:07Z</time></trkpt><trkpt lat="39.908188080022605" lon="9.520067305363684"><ele>796.0</ele><time>2026-05-03T07:14:08Z</time></trkpt><trkpt lat="39.908117136764396" lon="9.51994469766378"><ele>796.0</ele><time>2026-05-03T07:14:09Z</time></trkpt><trkpt lat="39.90807631693833" lon="9.519815903757703"><ele>796.0</ele><time>2026-05-03T07:14:10Z</time></trkpt><trkpt lat="39.90806928628832" lon="9.519670387068787"><ele>796.0</ele><time>2026-05-03T07:14:11Z</time></trkpt><trkpt lat="39.90808663242262" lon="9.51950983874985"><ele>796.0</ele><time>2026-05-03T07:14:12Z</time></trkpt><trkpt lat="39.908098824858726" lon="9.519335306551133"><ele>798.25</ele><time>2026-05-03T07:14:13Z</time></trkpt><trkpt lat="39.908085240066576" lon="9.519154195627063"><ele>800.5</ele><time>2026-05-03T07:14:14Z</time></trkpt><trkpt lat="39.90806218838366" lon="9.518976833795678"><ele>802.75</ele><time>2026-05-03T07:14:15Z</time></trkpt><trkpt lat="39.908055509232575" lon="9.518789817776774"><ele>805.0</ele><time>2026-05-03T07:14:16Z</time></trkpt><trkpt lat="39.90807244745772" lon="9.51860274317155"><ele>805.0</ele><time>2026-05-03T07:14:17Z</time></trkpt><trkpt lat="39.90810178672917" lon="9.518406758700714"><ele>805.0</ele><time>2026-05-03T07:14:18Z</time></trkpt><trkpt lat="39.908146297065954" lon="9.518242214301615"><ele>805.0</ele><time>2026-05-03T07:14:19Z</time></trkpt><trkpt lat="39.908224572576025" lon="9.518094057261253"><ele>805.0</ele><time>2026-05-03T07:14:20Z</time></trkpt><trkpt lat="39.90831579641892" lon="9.517934127580888"><ele>804.25</ele><time>2026-05-03T07:14:21Z</time></trkpt><trkpt lat="39.908389916311414" lon="9.517794258426326"><ele>803.5</ele><time>2026-05-03T07:14:22Z</time></trkpt><trkpt lat="39.90845353201181" lon="9.517665599824037"><ele>802.75</ele><time>2026-05-03T07:14:23Z</time></trkpt><trkpt lat="39.90847058918249" lon="9.517520622950762"><ele>802.0</ele><time>2026-05-03T07:14:24Z</time></trkpt><trkpt lat="39.90844486585872" lon="9.517378877663898"><ele>802.0</ele><time>2026-05-03T07:14:25Z</time></trkpt><trkpt lat="39.908406706214464" lon="9.517253703660575"><ele>802.0</ele><time>2026-05-03T07:14:26Z</time></trkpt><trkpt lat="39.90833876113175" lon="9.517150106922353"><ele>802.0</ele><time>2026-05-03T07:14:27Z</time></trkpt><trkpt lat="39.908229734315064" lon="9.517098771435071"><ele>802.0</ele><time>2026-05-03T07:14:28Z</time></trkpt><trkpt lat="39.90810734478376" lon="9.517054908996961"><ele>805.75</ele><time>2026-05-03T07:14:29Z</time></trkpt><trkpt lat="39.90797499463914" lon="9.51701897438411"><ele>809.5</ele><time>2026-05-03T07:14:30Z</time></trkpt><trkpt lat="39.907836058313144" lon="9.51698145173193"><ele>813.25</ele><time>2026-05-03T07:14:31Z</time></trkpt><trkpt lat="39.907695418730896" lon="9.516970902692497"><ele>817.0</ele><time>2026-05-03T07:14:32Z</time></trkpt><trkpt lat="39.90755411353288" lon="9.51699377444095"><ele>817.25</ele><time>2026-05-03T07:14:33Z</time></trkpt><trkpt lat="39.90741943285757" lon="9.51705354491113"><ele>817.5</ele><time>2026-05-03T07:14:34Z</time></trkpt><trkpt lat="39.907307284923505" lon="9.517121698095293"><ele>817.75</ele><time>2026-05-03T07:14:35Z</time></trkpt><trkpt lat="39.90719877729177" lon="9.517121462243617"><ele>818.0</ele><time>2026-05-03T07:14:36Z</time></trkpt><trkpt lat="39.90703306171044" lon="9.517076004288224"><ele>818.0</ele><time>2026-05-03T07:14:37Z</time></trkpt><trkpt lat="39.906901740418874" lon="9.517000030348349"><ele>818.0</ele><time>2026-05-03T07:14:38Z</time></trkpt><trkpt lat="39.90675691389896" lon="9.516887545354408"><ele>818.0</ele><time>2026-05-03T07:14:39Z</time></trkpt><trkpt lat="39.90660178538066" lon="9.516760295516741"><ele>817.5</ele><time>2026-05-03T07:14:40Z</time></trkpt><trkpt lat="39.9064632991965" lon="9.516651682730506"><ele>817.0</ele><time>2026-05-03T07:14:41Z</time></trkpt><trkpt lat="39.90634482057567" lon="9.516564231140004"><ele>816.5</ele><time>2026-05-03T07:14:42Z</time></trkpt><trkpt lat="39.90623361574943" lon="9.516518913438562"><ele>816.0</ele><time>2026-05-03T07:14:43Z</time></trkpt><trkpt lat="39.906108585212266" lon="9.516518514162541"><ele>816.0</ele><time>2026-05-03T07:14:44Z</time></trkpt><trkpt lat="39.905982126089675" lon="9.516532627193325"><ele>816.0</ele><time>2026-05-03T07:14:45Z</time></trkpt><trkpt lat="39.90586195237942" lon="9.51661465816526"><ele>816.0</ele><time>2026-05-03T07:14:46Z</time></trkpt><trkpt lat="39.90573380332725" lon="9.516712773906088"><ele>816.0</ele><time>2026-05-03T07:14:47Z</time></trkpt><trkpt lat="39.90558661130018" lon="9.51676074986205"><ele>815.0</ele><time>2026-05-03T07:14:48Z</time></trkpt><trkpt lat="39.905436236955104" lon="9.516803065684742"><ele>814.0</ele><time>2026-05-03T07:14:49Z</time></trkpt><trkpt lat="39.90530620086449" lon="9.516870693884517"><ele>813.0</ele><time>2026-05-03T07:14:50Z</time></trkpt><trkpt lat="39.90518076300458" lon="9.516955037145548"><ele>812.0</ele><time>2026-05-03T07:14:51Z</time></trkpt><trkpt lat="39.905089948778574" lon="9.517125045789262"><ele>809.6666666666667</ele><time>2026-05-03T07:14:52Z</time></trkpt><trkpt lat="39.90497856330094" lon="9.51729880162161"><ele>807.3333333333333</ele><time>2026-05-03T07:14:53Z</time></trkpt><trkpt lat="39.90485951894201" lon="9.517454390170549"><ele>805.0</ele><time>2026-05-03T07:14:54Z</time></trkpt><trkpt lat="39.904726777605504" lon="9.517577985008845"><ele>805.0</ele><time>2026-05-03T07:14:55Z</time></trkpt><trkpt lat="39.90458379941659" lon="9.517672648207597"><ele>805.0</ele><time>2026-05-03T07:14:56Z</time></trkpt><trkpt lat="39.904445813801495" lon="9.517746933965833"><ele>805.0</ele><time>2026-05-03T07:14:57Z</time></trkpt><trkpt lat="39.90432060526732" lon="9.517822579721896"><ele>805.0</ele><time>2026-05-03T07:14:58Z</time></trkpt><trkpt lat="39.90417868587743" lon="9.517901601980373"><ele>803.75</ele><time>2026-05-03T07:14:59Z</time></trkpt><trkpt lat="39.90405794343805" lon="9.518042910466031"><ele>802.5</ele><time>2026-05-03T07:15:00Z</time></trkpt><trkpt lat="39.90395263259641" lon="9.518158846994575"><ele>801.25</ele><time>2026-05-03T07:15:01Z</time></trkpt><trkpt lat="39.90383647596624" lon="9.518214433986259"><ele>800.0</ele><time>2026-05-03T07:15:02Z</time></trkpt><trkpt lat="39.90373509335146" lon="9.518212449772001"><ele>800.0</ele><time>2026-05-03T07:15:03Z</time></trkpt><trkpt lat="39.903656457734016" lon="9.518171521727995"><ele>800.0</ele><time>2026-05-03T07:15:04Z</time></trkpt><trkpt lat="39.90360968417088" lon="9.518098179005388"><ele>800.0</ele><time>2026-05-03T07:15:05Z</time></trkpt><trkpt lat="39.9035732939182" lon="9.517984900079318"><ele>800.0</ele><time>2026-05-03T07:15:06Z</time></trkpt><trkpt lat="39.903530038299145" lon="9.517858773630048"><ele>800.0</ele><time>2026-05-03T07:15:07Z</time></trkpt><trkpt lat="39.90346422132993" lon="9.517765965696638"><ele>804.4</ele><time>2026-05-03T07:15:08Z</time></trkpt><trkpt lat="39.903371561706" lon="9.517704854292806"><ele>808.8</ele><time>2026-05-03T07:15:09Z</time></trkpt><trkpt lat="39.90327000129665" lon="9.517672337841448"><ele>813.2</ele><time>2026-05-03T07:15:10Z</time></trkpt><trkpt lat="39.903158773638026" lon="9.517669276389379"><ele>817.6</ele><time>2026-05-03T07:15:11Z</time></trkpt><trkpt lat="39.903037732462906" lon="9.517694668215775"><ele>822.0</ele><time>2026-05-03T07:15:12Z</time></trkpt><trkpt lat="39.90292016438839" lon="9.517711873446029"><ele>822.0</ele><time>2026-05-03T07:15:13Z</time></trkpt><trkpt lat="39.90279036584842" lon="9.517695304972806"><ele>822.0</ele><time>2026-05-03T07:15:14Z</time></trkpt><trkpt lat="39.90265676996685" lon="9.517639773689469"><ele>822.0</ele><time>2026-05-03T07:15:15Z</time></trkpt><trkpt lat="39.90253310484973" lon="9.51754203388174"><ele>822.0</ele><time>2026-05-03T07:15:16Z</time></trkpt><trkpt lat="39.902416144489806" lon="9.51741475445347"><ele>821.6666666666667</ele><time>2026-05-03T07:15:17Z</time></trkpt><trkpt lat="39.902311311063784" lon="9.517258489804684"><ele>821.3333333333334</ele><time>2026-05-03T07:15:18Z</time></trkpt><trkpt lat="39.90222945063005" lon="9.517081761353477"><ele>821.0</ele><time>2026-05-03T07:15:19Z</time></trkpt><trkpt lat="39.90215448406946" lon="9.516928958845856"><ele>822.75</ele><time>2026-05-03T07:15:20Z</time></trkpt><trkpt lat="39.90206301373123" lon="9.516798846238046"><ele>824.5</ele><time>2026-05-03T07:15:21Z</time></trkpt><trkpt lat="39.9019471153032" lon="9.516707322727205"><ele>826.25</ele><time>2026-05-03T07:15:22Z</time></trkpt><trkpt lat="39.90181479041905" lon="9.516641058278429"><ele>828.0</ele><time>2026-05-03T07:15:23Z</time></trkpt><trkpt lat="39.901681999682786" lon="9.516571380489255"><ele>828.0</ele><time>2026-05-03T07:15:24Z</time></trkpt><trkpt lat="39.901571242253894" lon="9.516457651786174"><ele>828.0</ele><time>2026-05-03T07:15:25Z</time></trkpt><trkpt lat="39.90146673227354" lon="9.516324452262149"><ele>828.0</ele><time>2026-05-03T07:15:26Z</time></trkpt><trkpt lat="39.90135873357566" lon="9.516181498676174"><ele>828.0</ele><time>2026-05-03T07:15:27Z</time></trkpt><trkpt lat="39.90124957493652" lon="9.516040793053653"><ele>832.75</ele><time>2026-05-03T07:15:28Z</time></trkpt><trkpt lat="39.901148869173895" lon="9.515905890404373"><ele>837.5</ele><time>2026-05-03T07:15:29Z</time></trkpt><trkpt lat="39.9010628689412" lon="9.51577569206735"><ele>842.25</ele><time>2026-05-03T07:15:30Z</time></trkpt><trkpt lat="39.900998779338245" lon="9.515630468907977"><ele>847.0</ele><time>2026-05-03T07:15:31Z</time></trkpt><trkpt lat="39.900956589095735" lon="9.5154634947054"><ele>849.75</ele><time>2026-05-03T07:15:32Z</time></trkpt><trkpt lat="39.90094113939636" lon="9.515285860100999"><ele>852.5</ele><time>2026-05-03T07:15:33Z</time></trkpt><trkpt lat="39.90093877868925" lon="9.515097831251879"><ele>855.25</ele><time>2026-05-03T07:15:34Z</time></trkpt><trkpt lat="39.90094060847679" lon="9.514904578892907"><ele>858.0</ele><time>2026-05-03T07:15:35Z</time></trkpt><trkpt lat="39.900946856813235" lon="9.514710603497818"><ele>857.75</ele><time>2026-05-03T07:15:36Z</time></trkpt><trkpt lat="39.900974627938076" lon="9.514528534989719"><ele>857.5</ele><time>2026-05-03T07:15:37Z</time></trkpt><trkpt lat="39.90101498494611" lon="9.51435248409876"><ele>857.25</ele><time>2026-05-03T07:15:38Z</time></trkpt><trkpt lat="39.901067011746015" lon="9.514179478756338"><ele>857.0</ele><time>2026-05-03T07:15:39Z</time></trkpt><trkpt lat="39.901121647754074" lon="9.514021843529997"><ele>857.0</ele><time>2026-05-03T07:15:40Z</time></trkpt><trkpt lat="39.90117210903785" lon="9.513869972786104"><ele>857.0</ele><time>2026-05-03T07:15:41Z</time></trkpt><trkpt lat="39.90121694840655" lon="9.513727870815304"><ele>857.0</ele><time>2026-05-03T07:15:42Z</time></trkpt><trkpt lat="39.90126923791646" lon="9.513597055615783"><ele>857.0</ele><time>2026-05-03T07:15:43Z</time></trkpt><trkpt lat="39.90130813704575" lon="9.513455970913872"><ele>856.4000000000001</ele><time>2026-05-03T07:15:44Z</time></trkpt><trkpt lat="39.90133692838058" lon="9.513326743849143"><ele>855.8000000000001</ele><time>2026-05-03T07:15:45Z</time></trkpt><trkpt lat="39.90133748786405" lon="9.513209081495209"><ele>855.2</ele><time>2026-05-03T07:15:46Z</time></trkpt><trkpt lat="39.90131725841076" lon="9.51310463773612"><ele>854.6</ele><time>2026-05-03T07:15:47Z</time></trkpt><trkpt lat="39.90127514854639" lon="9.513006785850632"><ele>854.0</ele><time>2026-05-03T07:15:48Z</time></trkpt><trkpt lat="39.90119815039541" lon="9.51292618901924"><ele>854.2</ele><time>2026-05-03T07:15:49Z</time></trkpt><trkpt lat="39.90111157268241" lon="9.51287174157153"><ele>854.4000000000001</ele><time>2026-05-03T07:15:50Z</time></trkpt><trkpt lat="39.901021915525135" lon="9.512816273959372"><ele>854.6</ele><time>2026-05-03T07:15:51Z</time></trkpt><trkpt lat="39.90091881796359" lon="9.512752317646793"><ele>854.8</ele><time>2026-05-03T07:15:52Z</time></trkpt><trkpt lat="39.900812447232305" lon="9.512686330792556"><ele>855.0</ele><time>2026-05-03T07:15:53Z</time></trkpt><trkpt lat="39.90072042728395" lon="9.512627700116942"><ele>854.4</ele><time>2026-05-03T07:15:54Z</time></trkpt><trkpt lat="39.90063537715116" lon="9.512571724622594"><ele>853.8</ele><time>2026-05-03T07:15:55Z</time></trkpt><trkpt lat="39.9005722912893" lon="9.512530204927401"><ele>853.2</ele><time>2026-05-03T07:15:56Z</time></trkpt><trkpt lat="39.90049608566477" lon="9.512481441461821"><ele>852.6</ele><time>2026-05-03T07:15:58Z</time></trkpt><trkpt lat="39.90042062486725" lon="9.512427642322619"><ele>852.0</ele><time>2026-05-03T07:16:01Z</time></trkpt><trkpt lat="39.900303614800094" lon="9.5125255023905"><ele>852.0</ele><time>2026-05-03T07:16:03Z</time></trkpt><trkpt lat="39.900244093587546" lon="9.512612783133276"><ele>852.0</ele><time>2026-05-03T07:16:04Z</time></trkpt><trkpt lat="39.90017788395016" lon="9.512725180910723"><ele>852.0</ele><time>2026-05-03T07:16:05Z</time></trkpt><trkpt lat="39.90011086186083" lon="9.512857565290199"><ele>852.0</ele><time>2026-05-03T07:16:06Z</time></trkpt><trkpt lat="39.900033858589964" lon="9.513001557748511"><ele>851.0</ele><time>2026-05-03T07:16:07Z</time></trkpt><trkpt lat="39.89994691792096" lon="9.513160566988429"><ele>850.0</ele><time>2026-05-03T07:16:08Z</time></trkpt><trkpt lat="39.89985480348404" lon="9.513332847671968"><ele>849.0</ele><time>2026-05-03T07:16:09Z</time></trkpt><trkpt lat="39.89976168132282" lon="9.513518830918391"><ele>849.0</ele><time>2026-05-03T07:16:10Z</time></trkpt><trkpt lat="39.899662351214076" lon="9.513709489969921"><ele>849.0</ele><time>2026-05-03T07:16:11Z</time></trkpt><trkpt lat="39.89956969221013" lon="9.51389467049776"><ele>849.0</ele><time>2026-05-03T07:16:12Z</time></trkpt><trkpt lat="39.89947920240248" lon="9.514061374987273"><ele>849.25</ele><time>2026-05-03T07:16:13Z</time></trkpt><trkpt lat="39.89939158528156" lon="9.514196443241154"><ele>849.5</ele><time>2026-05-03T07:16:14Z</time></trkpt><trkpt lat="39.89928263394932" lon="9.51429378695345"><ele>849.75</ele><time>2026-05-03T07:16:15Z</time></trkpt><trkpt lat="39.89915962323826" lon="9.5143371671819"><ele>850.0</ele><time>2026-05-03T07:16:16Z</time></trkpt><trkpt lat="39.8990248037649" lon="9.514343284004374"><ele>850.0</ele><time>2026-05-03T07:16:17Z</time></trkpt><trkpt lat="39.89889849215425" lon="9.514348236334177"><ele>850.0</ele><time>2026-05-03T07:16:18Z</time></trkpt><trkpt lat="39.89877949500169" lon="9.514381724180332"><ele>850.0</ele><time>2026-05-03T07:16:19Z</time></trkpt><trkpt lat="39.89868105440687" lon="9.514463630802757"><ele>850.0</ele><time>2026-05-03T07:16:20Z</time></trkpt><trkpt lat="39.89862035226361" lon="9.514594767004724"><ele>846.75</ele><time>2026-05-03T07:16:21Z</time></trkpt><trkpt lat="39.89861252966901" lon="9.514740934063608"><ele>843.5</ele><time>2026-05-03T07:16:22Z</time></trkpt><trkpt lat="39.89860418110296" lon="9.514911364565789"><ele>840.25</ele><time>2026-05-03T07:16:23Z</time></trkpt><trkpt lat="39.89856894977852" lon="9.515080271834034"><ele>837.0</ele><time>2026-05-03T07:16:24Z</time></trkpt><trkpt lat="39.898510775394456" lon="9.515243509333118"><ele>838.0</ele><time>2026-05-03T07:16:25Z</time></trkpt><trkpt lat="39.89840973622965" lon="9.515392898945757"><ele>839.0</ele><time>2026-05-03T07:16:26Z</time></trkpt><trkpt lat="39.89829887718025" lon="9.515539846571453"><ele>840.0</ele><time>2026-05-03T07:16:27Z</time></trkpt><trkpt lat="39.89817903682305" lon="9.515685614552206"><ele>840.0</ele><time>2026-05-03T07:16:28Z</time></trkpt><trkpt lat="39.898056661306775" lon="9.515809888209917"><ele>840.0</ele><time>2026-05-03T07:16:29Z</time></trkpt><trkpt lat="39.89792814422026" lon="9.51590114013261"><ele>840.0</ele><time>2026-05-03T07:16:30Z</time></trkpt><trkpt lat="39.89780683593287" lon="9.51596242826975"><ele>840.0</ele><time>2026-05-03T07:16:31Z</time></trkpt><trkpt lat="39.89768528874117" lon="9.5159976173957"><ele>842.5</ele><time>2026-05-03T07:16:32Z</time></trkpt><trkpt lat="39.897553308609865" lon="9.515999539910903"><ele>845.0</ele><time>2026-05-03T07:16:33Z</time></trkpt><trkpt lat="39.89742788803843" lon="9.515987191693968"><ele>847.5</ele><time>2026-05-03T07:16:34Z</time></trkpt><trkpt lat="39.89729414225408" lon="9.51597155908366"><ele>850.0</ele><time>2026-05-03T07:16:35Z</time></trkpt><trkpt lat="39.897159118096795" lon="9.51593800026839"><ele>850.0</ele><time>2026-05-03T07:16:36Z</time></trkpt><trkpt lat="39.8970282010467" lon="9.515884892195135"><ele>850.0</ele><time>2026-05-03T07:16:37Z</time></trkpt><trkpt lat="39.89690900732841" lon="9.515829418411311"><ele>850.0</ele><time>2026-05-03T07:16:38Z</time></trkpt><trkpt lat="39.89680072752292" lon="9.515787341861994"><ele>850.0</ele><time>2026-05-03T07:16:39Z</time></trkpt><trkpt lat="39.89669483991727" lon="9.515741602217318"><ele>850.6</ele><time>2026-05-03T07:16:40Z</time></trkpt><trkpt lat="39.89661289714613" lon="9.515729352905838"><ele>851.2</ele><time>2026-05-03T07:16:41Z</time></trkpt><trkpt lat="39.896548096915154" lon="9.515726931157516"><ele>851.8</ele><time>2026-05-03T07:16:42Z</time></trkpt><trkpt lat="39.89646589929325" lon="9.515588422477375"><ele>852.4</ele><time>2026-05-03T07:16:44Z</time></trkpt><trkpt lat="39.89648090709694" lon="9.515462616398711"><ele>853.0</ele><time>2026-05-03T07:16:45Z</time></trkpt><trkpt lat="39.896439758038476" lon="9.515320418259432"><ele>853.0</ele><time>2026-05-03T07:16:46Z</time></trkpt><trkpt lat="39.89642050136282" lon="9.515152266218134"><ele>853.0</ele><time>2026-05-03T07:16:47Z</time></trkpt><trkpt lat="39.89637508711312" lon="9.514969844861088"><ele>853.0</ele><time>2026-05-03T07:16:48Z</time></trkpt><trkpt lat="39.896307329609314" lon="9.514796609890224"><ele>853.0</ele><time>2026-05-03T07:16:49Z</time></trkpt><trkpt lat="39.89624555858158" lon="9.514622395455888"><ele>852.75</ele><time>2026-05-03T07:16:50Z</time></trkpt><trkpt lat="39.8961471768404" lon="9.514499243608716"><ele>852.5</ele><time>2026-05-03T07:16:51Z</time></trkpt><trkpt lat="39.89603193258461" lon="9.514403814436037"><ele>852.25</ele><time>2026-05-03T07:16:52Z</time></trkpt><trkpt lat="39.895921484341414" lon="9.51433770918509"><ele>852.0</ele><time>2026-05-03T07:16:53Z</time></trkpt><trkpt lat="39.89582421893772" lon="9.514280858065968"><ele>852.0</ele><time>2026-05-03T07:16:54Z</time></trkpt><trkpt lat="39.89572285397909" lon="9.514222322525335"><ele>852.0</ele><time>2026-05-03T07:16:55Z</time></trkpt><trkpt lat="39.89561068464607" lon="9.514172091875015"><ele>852.0</ele><time>2026-05-03T07:16:56Z</time></trkpt><trkpt lat="39.8954842859851" lon="9.514151964657241"><ele>852.0</ele><time>2026-05-03T07:16:57Z</time></trkpt><trkpt lat="39.89536307913871" lon="9.514164317135085"><ele>852.0</ele><time>2026-05-03T07:16:58Z</time></trkpt><trkpt lat="39.895264083197034" lon="9.514185030203855"><ele>852.0</ele><time>2026-05-03T07:16:59Z</time></trkpt><trkpt lat="39.89517033616455" lon="9.514205917482679"><ele>852.0</ele><time>2026-05-03T07:17:00Z</time></trkpt><trkpt lat="39.89508383354232" lon="9.514221505572337"><ele>852.0</ele><time>2026-05-03T07:17:01Z</time></trkpt><trkpt lat="39.894987547750425" lon="9.51423780409469"><ele>852.0</ele><time>2026-05-03T07:17:02Z</time></trkpt><trkpt lat="39.89488999711022" lon="9.514248869188107"><ele>852.8333333333334</ele><time>2026-05-03T07:17:03Z</time></trkpt><trkpt lat="39.894807214334" lon="9.514242764455343"><ele>853.6666666666667</ele><time>2026-05-03T07:17:04Z</time></trkpt><trkpt lat="39.89472151565315" lon="9.514216219055612"><ele>854.5</ele><time>2026-05-03T07:17:05Z</time></trkpt><trkpt lat="39.894629630462376" lon="9.51418843590936"><ele>855.3333333333334</ele><time>2026-05-03T07:17:06Z</time></trkpt><trkpt lat="39.89455142249265" lon="9.514139087507989"><ele>856.1666666666667</ele><time>2026-05-03T07:17:07Z</time></trkpt><trkpt lat="39.89448294521304" lon="9.51409613653503"><ele>857.0</ele><time>2026-05-03T07:17:08Z</time></trkpt><trkpt lat="39.89440660988417" lon="9.514110742990567"><ele>857.0000000000001</ele><time>2026-05-03T07:17:09Z</time></trkpt><trkpt lat="39.894337001134616" lon="9.51418726431451"><ele>857.0</ele><time>2026-05-03T07:17:10Z</time></trkpt><trkpt lat="39.89428075116525" lon="9.514268090985752"><ele>857.0</ele><time>2026-05-03T07:17:11Z</time></trkpt><trkpt lat="39.894229874432156" lon="9.514341183439324"><ele>857.0</ele><time>2026-05-03T07:17:12Z</time></trkpt><trkpt lat="39.89417442273368" lon="9.514408072132362"><ele>857.0000000000001</ele><time>2026-05-03T07:17:13Z</time></trkpt><trkpt lat="39.894112716016856" lon="9.514473246038243"><ele>857.0</ele><time>2026-05-03T07:17:14Z</time></trkpt><trkpt lat="39.8940406628642" lon="9.514530978510711"><ele>856.2</ele><time>2026-05-03T07:17:15Z</time></trkpt><trkpt lat="39.893957736778766" lon="9.514592484502629"><ele>855.4000000000001</ele><time>2026-05-03T07:17:16Z</time></trkpt><trkpt lat="39.89385308174693" lon="9.5146046988441"><ele>854.5999999999999</ele><time>2026-05-03T07:17:17Z</time></trkpt><trkpt lat="39.89374983430776" lon="9.51463596000743"><ele>853.8</ele><time>2026-05-03T07:17:18Z</time></trkpt><trkpt lat="39.893646315893335" lon="9.51462949576788"><ele>853.0</ele><time>2026-05-03T07:17:19Z</time></trkpt><trkpt lat="39.89355095052718" lon="9.514604698671159"><ele>853.0</ele><time>2026-05-03T07:17:20Z</time></trkpt><trkpt lat="39.893460068963904" lon="9.514572213917749"><ele>853.0</ele><time>2026-05-03T07:17:21Z</time></trkpt><trkpt lat="39.893367658325396" lon="9.514531580496524"><ele>853.0</ele><time>2026-05-03T07:17:22Z</time></trkpt><trkpt lat="39.893272381502" lon="9.514496483399828"><ele>853.0</ele><time>2026-05-03T07:17:23Z</time></trkpt><trkpt lat="39.893182212297695" lon="9.514460612839786"><ele>853.0</ele><time>2026-05-03T07:17:24Z</time></trkpt><trkpt lat="39.89309467239046" lon="9.514432360741566"><ele>854.6666666666666</ele><time>2026-05-03T07:17:25Z</time></trkpt><trkpt lat="39.893008302607164" lon="9.514421411771018"><ele>856.3333333333333</ele><time>2026-05-03T07:17:26Z</time></trkpt><trkpt lat="39.89292141395783" lon="9.514439346443515"><ele>858.0</ele><time>2026-05-03T07:17:27Z</time></trkpt><trkpt lat="39.89284380306373" lon="9.514473797833983"><ele>859.6666666666667</ele><time>2026-05-03T07:17:28Z</time></trkpt><trkpt lat="39.89280605721761" lon="9.514587614664476"><ele>861.3333333333334</ele><time>2026-05-03T07:17:29Z</time></trkpt><trkpt lat="39.892785423888625" lon="9.514699974138356"><ele>863.0</ele><time>2026-05-03T07:17:30Z</time></trkpt><trkpt lat="39.892780432493076" lon="9.514818884634025"><ele>863.0</ele><time>2026-05-03T07:17:31Z</time></trkpt><trkpt lat="39.89277310306381" lon="9.514965835975937"><ele>863.0</ele><time>2026-05-03T07:17:32Z</time></trkpt><trkpt lat="39.89277548224487" lon="9.51513896427105"><ele>863.0</ele><time>2026-05-03T07:17:33Z</time></trkpt><trkpt lat="39.89279107591033" lon="9.515308080065031"><ele>863.0</ele><time>2026-05-03T07:17:34Z</time></trkpt><trkpt lat="39.89275682163371" lon="9.515452701493503"><ele>860.5</ele><time>2026-05-03T07:17:35Z</time></trkpt><trkpt lat="39.89268953526403" lon="9.515579857863631"><ele>858.0</ele><time>2026-05-03T07:17:36Z</time></trkpt><trkpt lat="39.89259315364313" lon="9.515687937206232"><ele>855.5</ele><time>2026-05-03T07:17:37Z</time></trkpt><trkpt lat="39.892474251191764" lon="9.515780303295468"><ele>853.0</ele><time>2026-05-03T07:17:38Z</time></trkpt><trkpt lat="39.892364314134475" lon="9.515838786075058"><ele>857.5999999999999</ele><time>2026-05-03T07:17:39Z</time></trkpt><trkpt lat="39.8922621703461" lon="9.515854482755755"><ele>862.1999999999999</ele><time>2026-05-03T07:17:40Z</time></trkpt><trkpt lat="39.892169832015675" lon="9.515818394350813"><ele>866.8</ele><time>2026-05-03T07:17:41Z</time></trkpt><trkpt lat="39.89209640741849" lon="9.515739498372428"><ele>871.4</ele><time>2026-05-03T07:17:42Z</time></trkpt><trkpt lat="39.8920688462989" lon="9.515602536023943"><ele>876.0</ele><time>2026-05-03T07:17:43Z</time></trkpt><trkpt lat="39.89203880004369" lon="9.51543748710137"><ele>877.5</ele><time>2026-05-03T07:17:44Z</time></trkpt><trkpt lat="39.89196420032533" lon="9.515280884832647"><ele>879.0</ele><time>2026-05-03T07:17:45Z</time></trkpt><trkpt lat="39.89190229904192" lon="9.515127411430845"><ele>880.5</ele><time>2026-05-03T07:17:46Z</time></trkpt><trkpt lat="39.89183894077866" lon="9.514982255982146"><ele>882.0</ele><time>2026-05-03T07:17:47Z</time></trkpt><trkpt lat="39.891775969176216" lon="9.514837975039935"><ele>883.25</ele><time>2026-05-03T07:17:48Z</time></trkpt><trkpt lat="39.89170135661371" lon="9.51469649981766"><ele>884.5</ele><time>2026-05-03T07:17:49Z</time></trkpt><trkpt lat="39.89162205567675" lon="9.514553999077888"><ele>885.75</ele><time>2026-05-03T07:17:50Z</time></trkpt><trkpt lat="39.89152697708891" lon="9.514455298394116"><ele>887.0</ele><time>2026-05-03T07:17:51Z</time></trkpt><trkpt lat="39.89143183084739" lon="9.514387899981202"><ele>888.8</ele><time>2026-05-03T07:17:52Z</time></trkpt><trkpt lat="39.891352023668" lon="9.514330107562156"><ele>890.6</ele><time>2026-05-03T07:17:53Z</time></trkpt><trkpt lat="39.891270994480564" lon="9.514278747719624"><ele>892.3999999999999</ele><time>2026-05-03T07:17:54Z</time></trkpt><trkpt lat="39.891239485954976" lon="9.514171314341892"><ele>894.1999999999999</ele><time>2026-05-03T07:17:55Z</time></trkpt><trkpt lat="39.891250700760054" lon="9.514059941826316"><ele>896.0</ele><time>2026-05-03T07:17:56Z</time></trkpt><trkpt lat="39.89129122880504" lon="9.513933677904266"><ele>896.0</ele><time>2026-05-03T07:17:57Z</time></trkpt><trkpt lat="39.89135180929356" lon="9.51380877536325"><ele>895.9999999999999</ele><time>2026-05-03T07:17:58Z</time></trkpt><trkpt lat="39.8914090230117" lon="9.513690858220896"><ele>895.9999999999999</ele><time>2026-05-03T07:17:59Z</time></trkpt><trkpt lat="39.89146796699931" lon="9.513577434071504"><ele>896.0</ele><time>2026-05-03T07:18:00Z</time></trkpt><trkpt lat="39.89153569013564" lon="9.513455283513295"><ele>896.0</ele><time>2026-05-03T07:18:01Z</time></trkpt><trkpt lat="39.89159607522752" lon="9.513312180052852"><ele>898.0</ele><time>2026-05-03T07:18:02Z</time></trkpt><trkpt lat="39.89164306141763" lon="9.51313969315456"><ele>900.0</ele><time>2026-05-03T07:18:03Z</time></trkpt><trkpt lat="39.89169899947868" lon="9.51293843727994"><ele>902.0</ele><time>2026-05-03T07:18:04Z</time></trkpt><trkpt lat="39.8917370485435" lon="9.512682186798408"><ele>904.0</ele><time>2026-05-03T07:18:05Z</time></trkpt><trkpt lat="39.89176533807474" lon="9.512432665483624"><ele>906.0</ele><time>2026-05-03T07:18:06Z</time></trkpt><trkpt lat="39.89178375661748" lon="9.512199501403257"><ele>908.0</ele><time>2026-05-03T07:18:07Z</time></trkpt><trkpt lat="39.891810613841244" lon="9.511998609941552"><ele>908.0</ele><time>2026-05-03T07:18:08Z</time></trkpt><trkpt lat="39.891816432557206" lon="9.51182487244296"><ele>908.0</ele><time>2026-05-03T07:18:09Z</time></trkpt><trkpt lat="39.89183742323401" lon="9.511608053303679"><ele>908.0</ele><time>2026-05-03T07:18:10Z</time></trkpt><trkpt lat="39.89180849468661" lon="9.51144131036114"><ele>908.0</ele><time>2026-05-03T07:18:11Z</time></trkpt><trkpt lat="39.891746903946796" lon="9.511291924665684"><ele>908.0</ele><time>2026-05-03T07:18:12Z</time></trkpt><trkpt lat="39.89164604408121" lon="9.51115132950772"><ele>908.0</ele><time>2026-05-03T07:18:13Z</time></trkpt><trkpt lat="39.89151646734334" lon="9.511032121717085"><ele>908.0</ele><time>2026-05-03T07:18:14Z</time></trkpt><trkpt lat="39.89136504846177" lon="9.510887115884106"><ele>908.0</ele><time>2026-05-03T07:18:15Z</time></trkpt><trkpt lat="39.891224334427775" lon="9.510718537347875"><ele>908.0</ele><time>2026-05-03T07:18:16Z</time></trkpt><trkpt lat="39.89110160140836" lon="9.510525179644171"><ele>908.0</ele><time>2026-05-03T07:18:17Z</time></trkpt><trkpt lat="39.89100997405622" lon="9.51033500557165"><ele>908.3333333333334</ele><time>2026-05-03T07:18:18Z</time></trkpt><trkpt lat="39.89091565503581" lon="9.510172692961527"><ele>908.6666666666667</ele><time>2026-05-03T07:18:19Z</time></trkpt><trkpt lat="39.8908006737573" lon="9.510020037360508"><ele>909.0</ele><time>2026-05-03T07:18:20Z</time></trkpt><trkpt lat="39.89067497059409" lon="9.50991850340094"><ele>909.0</ele><time>2026-05-03T07:18:21Z</time></trkpt><trkpt lat="39.890539030587874" lon="9.509861044407119"><ele>909.0</ele><time>2026-05-03T07:18:22Z</time></trkpt><trkpt lat="39.89039023482123" lon="9.509842414180905"><ele>909.0</ele><time>2026-05-03T07:18:23Z</time></trkpt><trkpt lat="39.89023788524342" lon="9.509861290862462"><ele>909.0</ele><time>2026-05-03T07:18:24Z</time></trkpt><trkpt lat="39.89008666657849" lon="9.509888263630515"><ele>908.75</ele><time>2026-05-03T07:18:25Z</time></trkpt><trkpt lat="39.889947265510806" lon="9.509875117907592"><ele>908.5</ele><time>2026-05-03T07:18:26Z</time></trkpt><trkpt lat="39.88984443306179" lon="9.50978348464145"><ele>908.25</ele><time>2026-05-03T07:18:27Z</time></trkpt><trkpt lat="39.88975910437444" lon="9.509669076356621"><ele>908.0</ele><time>2026-05-03T07:18:28Z</time></trkpt><trkpt lat="39.889682491962354" lon="9.509529013643649"><ele>908.0</ele><time>2026-05-03T07:18:29Z</time></trkpt><trkpt lat="39.889587093434756" lon="9.509410385462784"><ele>908.0</ele><time>2026-05-03T07:18:30Z</time></trkpt><trkpt lat="39.88947532578035" lon="9.509347620020055"><ele>908.0</ele><time>2026-05-03T07:18:31Z</time></trkpt><trkpt lat="39.88935105439328" lon="9.509294725388363"><ele>908.0</ele><time>2026-05-03T07:18:32Z</time></trkpt><trkpt lat="39.88921060339655" lon="9.509307477215101"><ele>908.0</ele><time>2026-05-03T07:18:33Z</time></trkpt><trkpt lat="39.88907891111896" lon="9.509351070150833"><ele>908.0</ele><time>2026-05-03T07:18:34Z</time></trkpt><trkpt lat="39.888965279765785" lon="9.509467571780414"><ele>908.0</ele><time>2026-05-03T07:18:35Z</time></trkpt><trkpt lat="39.8888742507476" lon="9.509618716361102"><ele>908.0</ele><time>2026-05-03T07:18:36Z</time></trkpt><trkpt lat="39.888775179895084" lon="9.50977475839266"><ele>908.3333333333334</ele><time>2026-05-03T07:18:37Z</time></trkpt><trkpt lat="39.88866326673201" lon="9.509935666129172"><ele>908.6666666666667</ele><time>2026-05-03T07:18:38Z</time></trkpt><trkpt lat="39.88854221386282" lon="9.510063094310368"><ele>909.0</ele><time>2026-05-03T07:18:39Z</time></trkpt><trkpt lat="39.88840649383991" lon="9.510113747731006"><ele>909.0</ele><time>2026-05-03T07:18:40Z</time></trkpt><trkpt lat="39.88828361609874" lon="9.510171735116245"><ele>909.0</ele><time>2026-05-03T07:18:41Z</time></trkpt><trkpt lat="39.88814771662054" lon="9.51016447166572"><ele>909.0</ele><time>2026-05-03T07:18:42Z</time></trkpt><trkpt lat="39.88800002146063" lon="9.510110105321983"><ele>909.0</ele><time>2026-05-03T07:18:43Z</time></trkpt><trkpt lat="39.88783148232045" lon="9.510059659628437"><ele>909.0</ele><time>2026-05-03T07:18:44Z</time></trkpt><trkpt lat="39.88765886601265" lon="9.510009626081496"><ele>909.0</ele><time>2026-05-03T07:18:45Z</time></trkpt><trkpt lat="39.887477214577856" lon="9.509957454884962"><ele>909.0</ele><time>2026-05-03T07:18:46Z</time></trkpt><trkpt lat="39.88728645337575" lon="9.50990266740321"><ele>910.6666666666667</ele><time>2026-05-03T07:18:47Z</time></trkpt><trkpt lat="39.88708793814965" lon="9.50986543158253"><ele>912.3333333333334</ele><time>2026-05-03T07:18:48Z</time></trkpt><trkpt lat="39.88689039092834" lon="9.509802751878711"><ele>914.0</ele><time>2026-05-03T07:18:49Z</time></trkpt><trkpt lat="39.88669637568448" lon="9.509732917183657"><ele>915.3333333333334</ele><time>2026-05-03T07:18:50Z</time></trkpt><trkpt lat="39.88649546228894" lon="9.509695159490322"><ele>916.6666666666667</ele><time>2026-05-03T07:18:51Z</time></trkpt><trkpt lat="39.88630871745486" lon="9.509639679244549"><ele>918.0</ele><time>2026-05-03T07:18:52Z</time></trkpt><trkpt lat="39.88613261163432" lon="9.509588408775866"><ele>916.6666666666667</ele><time>2026-05-03T07:18:53Z</time></trkpt><trkpt lat="39.88596759063631" lon="9.509535933560535"><ele>915.3333333333334</ele><time>2026-05-03T07:18:54Z</time></trkpt><trkpt lat="39.8858169382852" lon="9.509495690756012"><ele>914.0</ele><time>2026-05-03T07:18:55Z</time></trkpt><trkpt lat="39.885677717848814" lon="9.509453718143163"><ele>916.0</ele><time>2026-05-03T07:18:56Z</time></trkpt><trkpt lat="39.88555490320568" lon="9.509407268729705"><ele>918.0</ele><time>2026-05-03T07:18:57Z</time></trkpt><trkpt lat="39.88544277507256" lon="9.509333005115085"><ele>920.0</ele><time>2026-05-03T07:18:58Z</time></trkpt><trkpt lat="39.885349477597224" lon="9.509224080095517"><ele>922.0</ele><time>2026-05-03T07:18:59Z</time></trkpt><trkpt lat="39.88529447448031" lon="9.50907975748359"><ele>922.0</ele><time>2026-05-03T07:19:00Z</time></trkpt><trkpt lat="39.88525222492715" lon="9.508910481015317"><ele>922.0</ele><time>2026-05-03T07:19:01Z</time></trkpt><trkpt lat="39.885229157907006" lon="9.508704097578685"><ele>922.0</ele><time>2026-05-03T07:19:02Z</time></trkpt><trkpt lat="39.885219649127436" lon="9.508489592832948"><ele>921.3333333333333</ele><time>2026-05-03T07:19:03Z</time></trkpt><trkpt lat="39.88522175120207" lon="9.508260790957753"><ele>920.6666666666667</ele><time>2026-05-03T07:19:04Z</time></trkpt><trkpt lat="39.88523923709841" lon="9.508036884473409"><ele>920.0</ele><time>2026-05-03T07:19:05Z</time></trkpt><trkpt lat="39.88524626592831" lon="9.50781489417812"><ele>921.0</ele><time>2026-05-03T07:19:06Z</time></trkpt><trkpt lat="39.885282719872244" lon="9.507601023079733"><ele>922.0</ele><time>2026-05-03T07:19:07Z</time></trkpt><trkpt lat="39.88528200631321" lon="9.507423064099202"><ele>923.0</ele><time>2026-05-03T07:19:08Z</time></trkpt><trkpt lat="39.88528544026958" lon="9.507268485388458"><ele>924.0</ele><time>2026-05-03T07:19:09Z</time></trkpt><trkpt lat="39.88529120210417" lon="9.507147719127818"><ele>924.6</ele><time>2026-05-03T07:19:10Z</time></trkpt><trkpt lat="39.885254859211024" lon="9.507041422869092"><ele>925.2</ele><time>2026-05-03T07:19:11Z</time></trkpt><trkpt lat="39.88516995276691" lon="9.506972139567168"><ele>925.8000000000001</ele><time>2026-05-03T07:19:12Z</time></trkpt><trkpt lat="39.8850533625878" lon="9.506987326613316"><ele>926.4000000000001</ele><time>2026-05-03T07:19:13Z</time></trkpt><trkpt lat="39.88496353760127" lon="9.507058248079566"><ele>927.0</ele><time>2026-05-03T07:19:14Z</time></trkpt><trkpt lat="39.884856418962194" lon="9.507155794996914"><ele>931.0</ele><time>2026-05-03T07:19:15Z</time></trkpt><trkpt lat="39.88472247854486" lon="9.507245808243672"><ele>935.0</ele><time>2026-05-03T07:19:16Z</time></trkpt><trkpt lat="39.884584235518176" lon="9.507374592263163"><ele>939.0</ele><time>2026-05-03T07:19:17Z</time></trkpt><trkpt lat="39.88444350386306" lon="9.507524697197033"><ele>939.0</ele><time>2026-05-03T07:19:18Z</time></trkpt><trkpt lat="39.884295764112565" lon="9.507660507599"><ele>939.0</ele><time>2026-05-03T07:19:19Z</time></trkpt><trkpt lat="39.8841689881441" lon="9.507799071998905"><ele>939.0</ele><time>2026-05-03T07:19:20Z</time></trkpt><trkpt lat="39.88407949443807" lon="9.507953152195347"><ele>940.5</ele><time>2026-05-03T07:19:21Z</time></trkpt><trkpt lat="39.884018245798636" lon="9.508117419400055"><ele>942.0</ele><time>2026-05-03T07:19:22Z</time></trkpt><trkpt lat="39.88396256320382" lon="9.508266944164737"><ele>943.5</ele><time>2026-05-03T07:19:23Z</time></trkpt><trkpt lat="39.883866717015735" lon="9.50834993762071"><ele>945.0</ele><time>2026-05-03T07:19:24Z</time></trkpt><trkpt lat="39.88375864244386" lon="9.508400260150998"><ele>945.0</ele><time>2026-05-03T07:19:25Z</time></trkpt><trkpt lat="39.8836381148781" lon="9.508422338054867"><ele>945.0</ele><time>2026-05-03T07:19:26Z</time></trkpt><trkpt lat="39.88349348242299" lon="9.508468281842193"><ele>945.0</ele><time>2026-05-03T07:19:27Z</time></trkpt><trkpt lat="39.8833520083903" lon="9.508538960361577"><ele>945.0</ele><time>2026-05-03T07:19:28Z</time></trkpt><trkpt lat="39.88320500366443" lon="9.508647885669298"><ele>949.0</ele><time>2026-05-03T07:19:29Z</time></trkpt><trkpt lat="39.8830433911816" lon="9.508753433073455"><ele>953.0</ele><time>2026-05-03T07:19:30Z</time></trkpt><trkpt lat="39.88286913103443" lon="9.508844620386068"><ele>957.0</ele><time>2026-05-03T07:19:31Z</time></trkpt><trkpt lat="39.882700933453854" lon="9.508961303737392"><ele>955.3333333333333</ele><time>2026-05-03T07:19:32Z</time></trkpt><trkpt lat="39.882557864347845" lon="9.509098674768964"><ele>953.6666666666666</ele><time>2026-05-03T07:19:33Z</time></trkpt><trkpt lat="39.882419266107256" lon="9.509210549419707"><ele>952.0</ele><time>2026-05-03T07:19:34Z</time></trkpt><trkpt lat="39.8822964733952" lon="9.509316959321897"><ele>952.0</ele><time>2026-05-03T07:19:35Z</time></trkpt><trkpt lat="39.88218037676357" lon="9.50942188610999"><ele>952.0</ele><time>2026-05-03T07:19:36Z</time></trkpt><trkpt lat="39.88206550419699" lon="9.509520136982966"><ele>952.0</ele><time>2026-05-03T07:19:37Z</time></trkpt><trkpt lat="39.88195578509924" lon="9.509614779496461"><ele>952.0</ele><time>2026-05-03T07:19:38Z</time></trkpt><trkpt lat="39.88184861957578" lon="9.509708640585233"><ele>953.5</ele><time>2026-05-03T07:19:39Z</time></trkpt><trkpt lat="39.88174374615727" lon="9.509796278456975"><ele>955.0</ele><time>2026-05-03T07:19:40Z</time></trkpt><trkpt lat="39.88164317762988" lon="9.509885581080798"><ele>956.5</ele><time>2026-05-03T07:19:41Z</time></trkpt><trkpt lat="39.88154538104121" lon="9.509970044443149"><ele>958.0</ele><time>2026-05-03T07:19:42Z</time></trkpt><trkpt lat="39.8814476707467" lon="9.510054839057482"><ele>958.0</ele><time>2026-05-03T07:19:43Z</time></trkpt><trkpt lat="39.881350988764716" lon="9.510143373152642"><ele>958.0</ele><time>2026-05-03T07:19:44Z</time></trkpt><trkpt lat="39.88125802344299" lon="9.510230525960896"><ele>958.0</ele><time>2026-05-03T07:19:45Z</time></trkpt><trkpt lat="39.881175710332954" lon="9.51030968015983"><ele>958.0</ele><time>2026-05-03T07:19:46Z</time></trkpt><trkpt lat="39.88109507600335" lon="9.510374984373364"><ele>958.0</ele><time>2026-05-03T07:19:47Z</time></trkpt><trkpt lat="39.88100612729035" lon="9.51042276474132"><ele>957.75</ele><time>2026-05-03T07:19:48Z</time></trkpt><trkpt lat="39.88090672622653" lon="9.510431661748944"><ele>957.5</ele><time>2026-05-03T07:19:49Z</time></trkpt><trkpt lat="39.88081820303283" lon="9.510360030296322"><ele>957.25</ele><time>2026-05-03T07:19:50Z</time></trkpt><trkpt lat="39.880722074373644" lon="9.510271720871536"><ele>957.0</ele><time>2026-05-03T07:19:51Z</time></trkpt><trkpt lat="39.88062835625686" lon="9.51014661414182"><ele>957.0</ele><time>2026-05-03T07:19:52Z</time></trkpt><trkpt lat="39.88052252104469" lon="9.510074643817713"><ele>957.0</ele><time>2026-05-03T07:19:53Z</time></trkpt><trkpt lat="39.88042182285001" lon="9.510013479358784"><ele>957.0</ele><time>2026-05-03T07:19:54Z</time></trkpt><trkpt lat="39.880301125485815" lon="9.510051898941224"><ele>957.0</ele><time>2026-05-03T07:19:55Z</time></trkpt><trkpt lat="39.880168417758576" lon="9.510099963496069"><ele>957.3333333333333</ele><time>2026-05-03T07:19:56Z</time></trkpt><trkpt lat="39.88000127719576" lon="9.510143795682726"><ele>957.6666666666666</ele><time>2026-05-03T07:19:57Z</time></trkpt><trkpt lat="39.87983067834105" lon="9.51020335829343"><ele>958.0</ele><time>2026-05-03T07:19:58Z</time></trkpt><trkpt lat="39.87966810713974" lon="9.510269291473515"><ele>958.0</ele><time>2026-05-03T07:19:59Z</time></trkpt><trkpt lat="39.87949860570191" lon="9.510267827736701"><ele>958.0</ele><time>2026-05-03T07:20:00Z</time></trkpt><trkpt lat="39.87932637453603" lon="9.510266771700051"><ele>958.0</ele><time>2026-05-03T07:20:01Z</time></trkpt><trkpt lat="39.87916207822512" lon="9.510222133792553"><ele>960.0</ele><time>2026-05-03T07:20:02Z</time></trkpt><trkpt lat="39.87901788544598" lon="9.5101566857"><ele>962.0</ele><time>2026-05-03T07:20:03Z</time></trkpt><trkpt lat="39.878859374761184" lon="9.510189260743283"><ele>964.0</ele><time>2026-05-03T07:20:04Z</time></trkpt><trkpt lat="39.8787020327382" lon="9.510223207524577"><ele>964.0</ele><time>2026-05-03T07:20:05Z</time></trkpt><trkpt lat="39.87853450927286" lon="9.51026529457741"><ele>964.0</ele><time>2026-05-03T07:20:06Z</time></trkpt><trkpt lat="39.878354004480876" lon="9.510287012813189"><ele>964.0</ele><time>2026-05-03T07:20:07Z</time></trkpt><trkpt lat="39.87816800159326" lon="9.510331945799795"><ele>966.6666666666666</ele><time>2026-05-03T07:20:08Z</time></trkpt><trkpt lat="39.87798040037458" lon="9.51036909336534"><ele>969.3333333333333</ele><time>2026-05-03T07:20:09Z</time></trkpt><trkpt lat="39.87780087431401" lon="9.510417027965737"><ele>972.0</ele><time>2026-05-03T07:20:10Z</time></trkpt><trkpt lat="39.877630324001125" lon="9.510410771459565"><ele>964.0</ele><time>2026-05-03T07:20:11Z</time></trkpt><trkpt lat="39.87747417155482" lon="9.510442464383196"><ele>956.0</ele><time>2026-05-03T07:20:12Z</time></trkpt><trkpt lat="39.877320812916224" lon="9.510458684008245"><ele>948.0</ele><time>2026-05-03T07:20:13Z</time></trkpt><trkpt lat="39.8771591688451" lon="9.510462627924305"><ele>948.0</ele><time>2026-05-03T07:20:14.001Z</time></trkpt><trkpt lat="39.87699653792172" lon="9.510542568030948"><ele>948.0</ele><time>2026-05-03T07:20:15.001Z</time></trkpt><trkpt lat="39.87684838145999" lon="9.510649521667196"><ele>948.0</ele><time>2026-05-03T07:20:16.001Z</time></trkpt><trkpt lat="39.8766782327181" lon="9.510720355074609"><ele>952.6666666666667</ele><time>2026-05-03T07:20:17.001Z</time></trkpt><trkpt lat="39.876513647196674" lon="9.510795151566843"><ele>957.3333333333334</ele><time>2026-05-03T07:20:18.001Z</time></trkpt><trkpt lat="39.87634827621307" lon="9.510873773335193"><ele>962.0</ele><time>2026-05-03T07:20:19.001Z</time></trkpt><trkpt lat="39.87618164206095" lon="9.510979497748304"><ele>962.0</ele><time>2026-05-03T07:20:20.001Z</time></trkpt><trkpt lat="39.87602602770138" lon="9.511136218262976"><ele>962.0</ele><time>2026-05-03T07:20:21.001Z</time></trkpt><trkpt lat="39.87585009389981" lon="9.511262057824126"><ele>962.0</ele><time>2026-05-03T07:20:22.001Z</time></trkpt><trkpt lat="39.87570347066412" lon="9.511400105227365"><ele>957.6666666666667</ele><time>2026-05-03T07:20:23.001Z</time></trkpt><trkpt lat="39.87556848272748" lon="9.511541115735643"><ele>953.3333333333333</ele><time>2026-05-03T07:20:24.001Z</time></trkpt><trkpt lat="39.87545207242192" lon="9.511685462339395"><ele>949.0</ele><time>2026-05-03T07:20:25.001Z</time></trkpt><trkpt lat="39.87532037236276" lon="9.51181239398164"><ele>949.0</ele><time>2026-05-03T07:20:26.001Z</time></trkpt><trkpt lat="39.87516078144963" lon="9.511896574167743"><ele>949.0</ele><time>2026-05-03T07:20:27.001Z</time></trkpt><trkpt lat="39.87500073013388" lon="9.511976975460845"><ele>949.0</ele><time>2026-05-03T07:20:28.001Z</time></trkpt><trkpt lat="39.8748570290712" lon="9.512070780329578"><ele>948.0</ele><time>2026-05-03T07:20:29Z</time></trkpt><trkpt lat="39.874735620308435" lon="9.512219040714264"><ele>947.0</ele><time>2026-05-03T07:20:30Z</time></trkpt><trkpt lat="39.87460922701292" lon="9.512388590626948"><ele>946.0</ele><time>2026-05-03T07:20:31Z</time></trkpt><trkpt lat="39.87448614927757" lon="9.512571991945205"><ele>946.0</ele><time>2026-05-03T07:20:32Z</time></trkpt><trkpt lat="39.87435364616866" lon="9.512752902202214"><ele>946.0</ele><time>2026-05-03T07:20:33Z</time></trkpt><trkpt lat="39.87422611364565" lon="9.51292980524811"><ele>946.0</ele><time>2026-05-03T07:20:34Z</time></trkpt><trkpt lat="39.874106747992045" lon="9.513099336318788"><ele>948.5</ele><time>2026-05-03T07:20:35Z</time></trkpt><trkpt lat="39.87400502534779" lon="9.513254873313274"><ele>951.0</ele><time>2026-05-03T07:20:36Z</time></trkpt><trkpt lat="39.873930958636926" lon="9.51340578601079"><ele>953.5</ele><time>2026-05-03T07:20:37Z</time></trkpt><trkpt lat="39.87388836151168" lon="9.513563620616612"><ele>956.0</ele><time>2026-05-03T07:20:38Z</time></trkpt><trkpt lat="39.87387316584491" lon="9.513731228607702"><ele>952.8</ele><time>2026-05-03T07:20:39Z</time></trkpt><trkpt lat="39.873865310288714" lon="9.513878123513036"><ele>949.5999999999999</ele><time>2026-05-03T07:20:40Z</time></trkpt><trkpt lat="39.873846411569424" lon="9.514001436288979"><ele>946.4</ele><time>2026-05-03T07:20:41Z</time></trkpt><trkpt lat="39.873807053891966" lon="9.514106495603375"><ele>943.2</ele><time>2026-05-03T07:20:42Z</time></trkpt><trkpt lat="39.87373820088179" lon="9.51418247544966"><ele>940.0</ele><time>2026-05-03T07:20:43Z</time></trkpt><trkpt lat="39.87364958581254" lon="9.514238386998802"><ele>940.0</ele><time>2026-05-03T07:20:44Z</time></trkpt><trkpt lat="39.87354977031388" lon="9.51427685879007"><ele>940.0</ele><time>2026-05-03T07:20:45Z</time></trkpt><trkpt lat="39.87344255249532" lon="9.514306307851006"><ele>940.0</ele><time>2026-05-03T07:20:46Z</time></trkpt><trkpt lat="39.873330394746745" lon="9.5143346792017"><ele>940.0</ele><time>2026-05-03T07:20:47Z</time></trkpt><trkpt lat="39.87321113443228" lon="9.514354226478186"><ele>940.0</ele><time>2026-05-03T07:20:48Z</time></trkpt><trkpt lat="39.87308619269179" lon="9.514332423547767"><ele>944.4</ele><time>2026-05-03T07:20:49Z</time></trkpt><trkpt lat="39.87296893049959" lon="9.514275488632379"><ele>948.8</ele><time>2026-05-03T07:20:50Z</time></trkpt><trkpt lat="39.87285430372434" lon="9.514274431908191"><ele>953.2</ele><time>2026-05-03T07:20:51Z</time></trkpt><trkpt lat="39.87274888338976" lon="9.514274261896507"><ele>957.6</ele><time>2026-05-03T07:20:52Z</time></trkpt><trkpt lat="39.87265220351595" lon="9.514293877315746"><ele>962.0</ele><time>2026-05-03T07:20:53Z</time></trkpt><trkpt lat="39.87256093388108" lon="9.514316582346805"><ele>962.1666666666667</ele><time>2026-05-03T07:20:54Z</time></trkpt><trkpt lat="39.87247296818979" lon="9.514333053846595"><ele>962.3333333333334</ele><time>2026-05-03T07:20:55Z</time></trkpt><trkpt lat="39.87239162580248" lon="9.514332331156178"><ele>962.5</ele><time>2026-05-03T07:20:56Z</time></trkpt><trkpt lat="39.87231682063319" lon="9.51430174667315"><ele>962.6666666666667</ele><time>2026-05-03T07:20:57Z</time></trkpt><trkpt lat="39.87225132917673" lon="9.514269744379346"><ele>962.8333333333334</ele><time>2026-05-03T07:20:58Z</time></trkpt><trkpt lat="39.87218180187548" lon="9.514221145346195"><ele>963.0</ele><time>2026-05-03T07:20:59Z</time></trkpt><trkpt lat="39.87210855406475" lon="9.514161258297168"><ele>963.0</ele><time>2026-05-03T07:21:00Z</time></trkpt><trkpt lat="39.872036800081446" lon="9.514072910947164"><ele>963.0</ele><time>2026-05-03T07:21:01Z</time></trkpt><trkpt lat="39.87197497614491" lon="9.51397437097032"><ele>963.0</ele><time>2026-05-03T07:21:02Z</time></trkpt><trkpt lat="39.87192577353788" lon="9.513881244778366"><ele>963.0</ele><time>2026-05-03T07:21:03Z</time></trkpt><trkpt lat="39.87189466939326" lon="9.513777882473047"><ele>963.0</ele><time>2026-05-03T07:21:04Z</time></trkpt><trkpt lat="39.87186426636427" lon="9.51367767355458"><ele>964.4</ele><time>2026-05-03T07:21:05Z</time></trkpt><trkpt lat="39.87183646636924" lon="9.513581232556236"><ele>965.8</ele><time>2026-05-03T07:21:06Z</time></trkpt><trkpt lat="39.871810397859235" lon="9.51347055964572"><ele>967.2</ele><time>2026-05-03T07:21:07Z</time></trkpt><trkpt lat="39.871780812545865" lon="9.513335150603925"><ele>968.6</ele><time>2026-05-03T07:21:08Z</time></trkpt><trkpt lat="39.87174552073031" lon="9.513194853800785"><ele>970.0</ele><time>2026-05-03T07:21:09Z</time></trkpt><trkpt lat="39.87170892863344" lon="9.513008153495578"><ele>967.6666666666666</ele><time>2026-05-03T07:21:10Z</time></trkpt><trkpt lat="39.87165365951568" lon="9.51281166241402"><ele>965.3333333333333</ele><time>2026-05-03T07:21:11Z</time></trkpt><trkpt lat="39.87159367984896" lon="9.512611025725418"><ele>963.0</ele><time>2026-05-03T07:21:12Z</time></trkpt><trkpt lat="39.871529257729826" lon="9.51241481002446"><ele>963.0</ele><time>2026-05-03T07:21:13Z</time></trkpt><trkpt lat="39.871467848169296" lon="9.512229488270041"><ele>963.0</ele><time>2026-05-03T07:21:14Z</time></trkpt><trkpt lat="39.871402629101766" lon="9.512046312865985"><ele>963.0</ele><time>2026-05-03T07:21:15Z</time></trkpt><trkpt lat="39.87133538706023" lon="9.511871256599688"><ele>960.3333333333333</ele><time>2026-05-03T07:21:16Z</time></trkpt><trkpt lat="39.871259162246595" lon="9.511692559401228"><ele>957.6666666666666</ele><time>2026-05-03T07:21:17Z</time></trkpt><trkpt lat="39.8711638279738" lon="9.511513756694637"><ele>955.0</ele><time>2026-05-03T07:21:18Z</time></trkpt><trkpt lat="39.87104939456491" lon="9.511327699306284"><ele>953.6666666666666</ele><time>2026-05-03T07:21:19Z</time></trkpt><trkpt lat="39.87092988163809" lon="9.511152502126116"><ele>952.3333333333333</ele><time>2026-05-03T07:21:20Z</time></trkpt><trkpt lat="39.87081501182977" lon="9.510993660309044"><ele>951.0</ele><time>2026-05-03T07:21:21Z</time></trkpt><trkpt lat="39.870705080697206" lon="9.510836605756742"><ele>951.0</ele><time>2026-05-03T07:21:22Z</time></trkpt><trkpt lat="39.870596815533744" lon="9.510691231588707"><ele>951.0</ele><time>2026-05-03T07:21:23Z</time></trkpt><trkpt lat="39.87049194619326" lon="9.51056112720462"><ele>951.0</ele><time>2026-05-03T07:21:24Z</time></trkpt><trkpt lat="39.87038753874661" lon="9.510447744644734"><ele>951.0</ele><time>2026-05-03T07:21:25Z</time></trkpt><trkpt lat="39.87028027639881" lon="9.510355789183054"><ele>950.25</ele><time>2026-05-03T07:21:26Z</time></trkpt><trkpt lat="39.87016555552284" lon="9.51029604464846"><ele>949.5</ele><time>2026-05-03T07:21:27Z</time></trkpt><trkpt lat="39.87004882566396" lon="9.51026265574816"><ele>948.75</ele><time>2026-05-03T07:21:28Z</time></trkpt><trkpt lat="39.869933608220485" lon="9.510248745063592"><ele>948.0</ele><time>2026-05-03T07:21:29Z</time></trkpt><trkpt lat="39.86983102317867" lon="9.51022252489481"><ele>947.0</ele><time>2026-05-03T07:21:30Z</time></trkpt><trkpt lat="39.869738295934" lon="9.510174252445076"><ele>946.0</ele><time>2026-05-03T07:21:31Z</time></trkpt><trkpt lat="39.86965247377988" lon="9.510104188124316"><ele>945.0</ele><time>2026-05-03T07:21:32Z</time></trkpt><trkpt lat="39.86962198140786" lon="9.509968638482434"><ele>944.0</ele><time>2026-05-03T07:21:33Z</time></trkpt><trkpt lat="39.86959106177127" lon="9.509810915832936"><ele>943.0</ele><time>2026-05-03T07:21:34Z</time></trkpt><trkpt lat="39.86954861404435" lon="9.509638139782117"><ele>941.3333333333333</ele><time>2026-05-03T07:21:35Z</time></trkpt><trkpt lat="39.86950263539238" lon="9.509466550643644"><ele>939.6666666666667</ele><time>2026-05-03T07:21:36Z</time></trkpt><trkpt lat="39.86943925713024" lon="9.509279502458863"><ele>938.0</ele><time>2026-05-03T07:21:37Z</time></trkpt><trkpt lat="39.86936784726491" lon="9.509079268853075"><ele>938.0</ele><time>2026-05-03T07:21:38Z</time></trkpt><trkpt lat="39.8692815166707" lon="9.508899245645873"><ele>938.0</ele><time>2026-05-03T07:21:39Z</time></trkpt><trkpt lat="39.86920956090708" lon="9.508719110250901"><ele>938.0</ele><time>2026-05-03T07:21:40Z</time></trkpt><trkpt lat="39.86914376532552" lon="9.508549482811121"><ele>937.0</ele><time>2026-05-03T07:21:41Z</time></trkpt><trkpt lat="39.869097135215625" lon="9.508382440431461"><ele>936.0</ele><time>2026-05-03T07:21:42Z</time></trkpt><trkpt lat="39.869028864832416" lon="9.508253258172582"><ele>935.0</ele><time>2026-05-03T07:21:43Z</time></trkpt><trkpt lat="39.86898190184697" lon="9.50812840785936"><ele>934.0</ele><time>2026-05-03T07:21:44Z</time></trkpt><trkpt lat="39.86896222207656" lon="9.507999341401407"><ele>933.2</ele><time>2026-05-03T07:21:45Z</time></trkpt><trkpt lat="39.869000834414685" lon="9.507876811853476"><ele>932.4000000000001</ele><time>2026-05-03T07:21:46Z</time></trkpt><trkpt lat="39.86904791355617" lon="9.507757786453295"><ele>931.6</ele><time>2026-05-03T07:21:47Z</time></trkpt><trkpt lat="39.869099798078494" lon="9.507608837873732"><ele>930.8</ele><time>2026-05-03T07:21:48Z</time></trkpt><trkpt lat="39.86914199947332" lon="9.507464955593564"><ele>930.0</ele><time>2026-05-03T07:21:49Z</time></trkpt><trkpt lat="39.869184449876165" lon="9.507320718663724"><ele>930.0</ele><time>2026-05-03T07:21:50Z</time></trkpt><trkpt lat="39.86919622252059" lon="9.507167034547612"><ele>930.0</ele><time>2026-05-03T07:21:51Z</time></trkpt><trkpt lat="39.869188032824994" lon="9.506995270327955"><ele>930.0</ele><time>2026-05-03T07:21:52Z</time></trkpt><trkpt lat="39.869170496605285" lon="9.506813099508836"><ele>930.0</ele><time>2026-05-03T07:21:53Z</time></trkpt><trkpt lat="39.869151612813255" lon="9.506606493307387"><ele>929.6666666666667</ele><time>2026-05-03T07:21:54Z</time></trkpt><trkpt lat="39.869130872936175" lon="9.50638953071999"><ele>929.3333333333334</ele><time>2026-05-03T07:21:55Z</time></trkpt><trkpt lat="39.8691146029746" lon="9.506169578575765"><ele>929.0</ele><time>2026-05-03T07:21:56Z</time></trkpt><trkpt lat="39.869098852258304" lon="9.505950453481203"><ele>928.3333333333334</ele><time>2026-05-03T07:21:57Z</time></trkpt><trkpt lat="39.869082361972325" lon="9.505746094402017"><ele>927.6666666666667</ele><time>2026-05-03T07:21:58Z</time></trkpt><trkpt lat="39.86904955180472" lon="9.505551574110084"><ele>927.0</ele><time>2026-05-03T07:21:59Z</time></trkpt><trkpt lat="39.8690051185384" lon="9.505375359367413"><ele>927.0</ele><time>2026-05-03T07:22:00Z</time></trkpt><trkpt lat="39.86894245979983" lon="9.505203010236594"><ele>927.0</ele><time>2026-05-03T07:22:01Z</time></trkpt><trkpt lat="39.8688672740903" lon="9.505041509115346"><ele>927.0</ele><time>2026-05-03T07:22:02Z</time></trkpt><trkpt lat="39.868773648363614" lon="9.50488830835321"><ele>927.0</ele><time>2026-05-03T07:22:03Z</time></trkpt><trkpt lat="39.86867281141517" lon="9.504741278526467"><ele>927.0</ele><time>2026-05-03T07:22:04Z</time></trkpt><trkpt lat="39.8685834388072" lon="9.504605211114297"><ele>927.0</ele><time>2026-05-03T07:22:05Z</time></trkpt><trkpt lat="39.86851118004867" lon="9.504469016805679"><ele>927.0</ele><time>2026-05-03T07:22:06Z</time></trkpt><trkpt lat="39.868460325330105" lon="9.504312912753466"><ele>927.0</ele><time>2026-05-03T07:22:07Z</time></trkpt><trkpt lat="39.868418659312454" lon="9.504121530824891"><ele>925.75</ele><time>2026-05-03T07:22:08Z</time></trkpt><trkpt lat="39.868332821361065" lon="9.503978757186912"><ele>924.5</ele><time>2026-05-03T07:22:09Z</time></trkpt><trkpt lat="39.8682830405976" lon="9.503833422203064"><ele>923.25</ele><time>2026-05-03T07:22:10Z</time></trkpt><trkpt lat="39.86825781131897" lon="9.503684012831222"><ele>922.0</ele><time>2026-05-03T07:22:11Z</time></trkpt><trkpt lat="39.868294754165724" lon="9.503546951604871"><ele>921.0</ele><time>2026-05-03T07:22:12Z</time></trkpt><trkpt lat="39.86833971105432" lon="9.503383650131806"><ele>920.0</ele><time>2026-05-03T07:22:13Z</time></trkpt><trkpt lat="39.8683944841966" lon="9.503190075822864"><ele>919.0</ele><time>2026-05-03T07:22:14Z</time></trkpt><trkpt lat="39.86844915522647" lon="9.502995984350946"><ele>920.25</ele><time>2026-05-03T07:22:15Z</time></trkpt><trkpt lat="39.86849953036978" lon="9.502815786846648"><ele>921.5</ele><time>2026-05-03T07:22:16Z</time></trkpt><trkpt lat="39.86854450848112" lon="9.502642363670473"><ele>922.75</ele><time>2026-05-03T07:22:17Z</time></trkpt><trkpt lat="39.86855827502987" lon="9.502444912293074"><ele>924.0</ele><time>2026-05-03T07:22:18Z</time></trkpt><trkpt lat="39.86854123683878" lon="9.502241159177421"><ele>923.6666666666667</ele><time>2026-05-03T07:22:19Z</time></trkpt><trkpt lat="39.868522140316415" lon="9.50203949089826"><ele>923.3333333333334</ele><time>2026-05-03T07:22:20.001Z</time></trkpt><trkpt lat="39.86850434287332" lon="9.5018405591996"><ele>923.0</ele><time>2026-05-03T07:22:21.001Z</time></trkpt><trkpt lat="39.86848689741872" lon="9.50164556182786"><ele>923.0</ele><time>2026-05-03T07:22:22.001Z</time></trkpt><trkpt lat="39.86847099075731" lon="9.501467764428961"><ele>923.0</ele><time>2026-05-03T07:22:23.001Z</time></trkpt><trkpt lat="39.86845043258253" lon="9.50129217092473"><ele>923.0</ele><time>2026-05-03T07:22:24.001Z</time></trkpt><trkpt lat="39.86839177706902" lon="9.501138452479992"><ele>923.0</ele><time>2026-05-03T07:22:25.001Z</time></trkpt><trkpt lat="39.86831131281243" lon="9.501006795791328"><ele>918.4</ele><time>2026-05-03T07:22:26.001Z</time></trkpt><trkpt lat="39.8682319573084" lon="9.50088895899222"><ele>913.8</ele><time>2026-05-03T07:22:27.001Z</time></trkpt><trkpt lat="39.868134734108715" lon="9.500802556885619"><ele>909.2</ele><time>2026-05-03T07:22:28.001Z</time></trkpt><trkpt lat="39.86804442355505" lon="9.500741924003718"><ele>904.6</ele><time>2026-05-03T07:22:29.001Z</time></trkpt><trkpt lat="39.86796519586303" lon="9.500675682419809"><ele>900.0</ele><time>2026-05-03T07:22:30.001Z</time></trkpt><trkpt lat="39.86791595897884" lon="9.500589769917735"><ele>900.0</ele><time>2026-05-03T07:22:31.001Z</time></trkpt><trkpt lat="39.867916888361016" lon="9.500470150840764"><ele>900.0</ele><time>2026-05-03T07:22:32.001Z</time></trkpt><trkpt lat="39.867945760849544" lon="9.500350292292385"><ele>900.0</ele><time>2026-05-03T07:22:33.001Z</time></trkpt><trkpt lat="39.86798541449161" lon="9.500208193621436"><ele>900.0</ele><time>2026-05-03T07:22:34.001Z</time></trkpt><trkpt lat="39.86802806963634" lon="9.500037132577202"><ele>900.0</ele><time>2026-05-03T07:22:35.001Z</time></trkpt><trkpt lat="39.86805012153735" lon="9.499827508790036"><ele>897.3333333333333</ele><time>2026-05-03T07:22:36.001Z</time></trkpt><trkpt lat="39.86805079505949" lon="9.499610036076271"><ele>894.6666666666666</ele><time>2026-05-03T07:22:37.001Z</time></trkpt><trkpt lat="39.86805414629399" lon="9.499394915855989"><ele>892.0</ele><time>2026-05-03T07:22:38.001Z</time></trkpt><trkpt lat="39.86808310494934" lon="9.499197077744375"><ele>891.0</ele><time>2026-05-03T07:22:39Z</time></trkpt><trkpt lat="39.86811567847569" lon="9.498982064799211"><ele>890.0</ele><time>2026-05-03T07:22:40Z</time></trkpt><trkpt lat="39.86818311730662" lon="9.498779710835075"><ele>889.0</ele><time>2026-05-03T07:22:41Z</time></trkpt><trkpt lat="39.86826314351953" lon="9.498597016327205"><ele>889.0</ele><time>2026-05-03T07:22:42Z</time></trkpt><trkpt lat="39.868294578148316" lon="9.498392394523536"><ele>889.0</ele><time>2026-05-03T07:22:43Z</time></trkpt><trkpt lat="39.86832328202246" lon="9.49818394833307"><ele>889.0</ele><time>2026-05-03T07:22:44Z</time></trkpt><trkpt lat="39.8683440259946" lon="9.497971746881143"><ele>887.6666666666666</ele><time>2026-05-03T07:22:45Z</time></trkpt><trkpt lat="39.86835648311477" lon="9.497773982091376"><ele>886.3333333333333</ele><time>2026-05-03T07:22:46Z</time></trkpt><trkpt lat="39.868370658153125" lon="9.497579267667462"><ele>885.0</ele><time>2026-05-03T07:22:47Z</time></trkpt><trkpt lat="39.8683429416265" lon="9.497383498194846"><ele>885.0</ele><time>2026-05-03T07:22:48Z</time></trkpt><trkpt lat="39.86829507857046" lon="9.497192643209742"><ele>885.0</ele><time>2026-05-03T07:22:49Z</time></trkpt><trkpt lat="39.86828385340952" lon="9.49701399934882"><ele>885.0</ele><time>2026-05-03T07:22:50Z</time></trkpt><trkpt lat="39.86829955057241" lon="9.49684054895758"><ele>885.0</ele><time>2026-05-03T07:22:51Z</time></trkpt><trkpt lat="39.86834002174069" lon="9.496677156691783"><ele>885.5</ele><time>2026-05-03T07:22:52Z</time></trkpt><trkpt lat="39.86839849448351" lon="9.496495961421617"><ele>886.0</ele><time>2026-05-03T07:22:53Z</time></trkpt><trkpt lat="39.868457006997964" lon="9.496326675257869"><ele>886.5</ele><time>2026-05-03T07:22:54Z</time></trkpt><trkpt lat="39.868497355879846" lon="9.496169350622612"><ele>887.0</ele><time>2026-05-03T07:22:55Z</time></trkpt><trkpt lat="39.86851415385657" lon="9.496015107525817"><ele>885.75</ele><time>2026-05-03T07:22:56Z</time></trkpt><trkpt lat="39.868505332954186" lon="9.495863802578073"><ele>884.5</ele><time>2026-05-03T07:22:57Z</time></trkpt><trkpt lat="39.86846280250657" lon="9.495723086094664"><ele>883.25</ele><time>2026-05-03T07:22:58Z</time></trkpt><trkpt lat="39.86840017285791" lon="9.495594223388528"><ele>882.0</ele><time>2026-05-03T07:22:59Z</time></trkpt><trkpt lat="39.86836154694423" lon="9.495453858700353"><ele>878.0</ele><time>2026-05-03T07:23:00Z</time></trkpt><trkpt lat="39.86835940260125" lon="9.49530876302"><ele>874.0</ele><time>2026-05-03T07:23:01Z</time></trkpt><trkpt lat="39.86835575409369" lon="9.495173216253514"><ele>870.0</ele><time>2026-05-03T07:23:02Z</time></trkpt><trkpt lat="39.86832254433867" lon="9.49505832472766"><ele>866.0</ele><time>2026-05-03T07:23:03Z</time></trkpt><trkpt lat="39.86825624677531" lon="9.494959819429276"><ele>862.0</ele><time>2026-05-03T07:23:04Z</time></trkpt><trkpt lat="39.86816766769093" lon="9.494865469470138"><ele>862.0</ele><time>2026-05-03T07:23:05Z</time></trkpt><trkpt lat="39.86806858965188" lon="9.494751512931138"><ele>862.0</ele><time>2026-05-03T07:23:06Z</time></trkpt><trkpt lat="39.867958746021046" lon="9.494624023304036"><ele>862.0</ele><time>2026-05-03T07:23:07Z</time></trkpt><trkpt lat="39.8678509457229" lon="9.494495434697415"><ele>862.0</ele><time>2026-05-03T07:23:08Z</time></trkpt><trkpt lat="39.86773021873711" lon="9.494360842133077"><ele>862.25</ele><time>2026-05-03T07:23:09Z</time></trkpt><trkpt lat="39.86761070805389" lon="9.494238112501252"><ele>862.5</ele><time>2026-05-03T07:23:10Z</time></trkpt><trkpt lat="39.86749886264397" lon="9.494133053719706"><ele>862.75</ele><time>2026-05-03T07:23:11Z</time></trkpt><trkpt lat="39.86739428110149" lon="9.494030693809707"><ele>863.0</ele><time>2026-05-03T07:23:12Z</time></trkpt><trkpt lat="39.867309516761615" lon="9.49391826137126"><ele>863.0</ele><time>2026-05-03T07:23:13Z</time></trkpt><trkpt lat="39.86724825687232" lon="9.493787730573196"><ele>863.0</ele><time>2026-05-03T07:23:14Z</time></trkpt><trkpt lat="39.867217021935375" lon="9.493636979807105"><ele>863.0</ele><time>2026-05-03T07:23:15Z</time></trkpt><trkpt lat="39.86719993051692" lon="9.49346287230016"><ele>863.0</ele><time>2026-05-03T07:23:16Z</time></trkpt><trkpt lat="39.86718311198949" lon="9.493270434492189"><ele>859.75</ele><time>2026-05-03T07:23:17Z</time></trkpt><trkpt lat="39.86717948586107" lon="9.493082390396584"><ele>856.5</ele><time>2026-05-03T07:23:18Z</time></trkpt><trkpt lat="39.86717785195809" lon="9.492889029594352"><ele>853.25</ele><time>2026-05-03T07:23:19Z</time></trkpt><trkpt lat="39.86717963582668" lon="9.492698022013588"><ele>850.0</ele><time>2026-05-03T07:23:20Z</time></trkpt><trkpt lat="39.867193507607986" lon="9.492484500751086"><ele>849.6666666666666</ele><time>2026-05-03T07:23:21Z</time></trkpt><trkpt lat="39.867138708760386" lon="9.492263118245013"><ele>849.3333333333333</ele><time>2026-05-03T07:23:22Z</time></trkpt><trkpt lat="39.867108731017105" lon="9.4920493416385"><ele>849.0</ele><time>2026-05-03T07:23:23Z</time></trkpt><trkpt lat="39.867089261961674" lon="9.49185699713142"><ele>850.0</ele><time>2026-05-03T07:23:24Z</time></trkpt><trkpt lat="39.86706883694611" lon="9.491676239284267"><ele>851.0</ele><time>2026-05-03T07:23:25Z</time></trkpt><trkpt lat="39.86702671735455" lon="9.49150157559537"><ele>852.0</ele><time>2026-05-03T07:23:26Z</time></trkpt><trkpt lat="39.86696551499196" lon="9.491323106556555"><ele>853.0</ele><time>2026-05-03T07:23:27Z</time></trkpt><trkpt lat="39.86688277895313" lon="9.491138434043796"><ele>853.0</ele><time>2026-05-03T07:23:28Z</time></trkpt><trkpt lat="39.86680335222279" lon="9.490942866037775"><ele>853.0</ele><time>2026-05-03T07:23:29Z</time></trkpt><trkpt lat="39.866712495121696" lon="9.490745169276487"><ele>853.0</ele><time>2026-05-03T07:23:30Z</time></trkpt><trkpt lat="39.866616528375104" lon="9.490582624507262"><ele>850.5</ele><time>2026-05-03T07:23:31Z</time></trkpt><trkpt lat="39.86650498724204" lon="9.490448981645201"><ele>848.0</ele><time>2026-05-03T07:23:32Z</time></trkpt><trkpt lat="39.86642803993634" lon="9.490304914414827"><ele>845.5</ele><time>2026-05-03T07:23:33Z</time></trkpt><trkpt lat="39.866368064874486" lon="9.490147386906559"><ele>843.0</ele><time>2026-05-03T07:23:34Z</time></trkpt><trkpt lat="39.866331078604865" lon="9.489971346612501"><ele>840.0</ele><time>2026-05-03T07:23:35Z</time></trkpt><trkpt lat="39.86630373425692" lon="9.489790439719721"><ele>837.0</ele><time>2026-05-03T07:23:36Z</time></trkpt><trkpt lat="39.866262880243134" lon="9.48962099785587"><ele>834.0</ele><time>2026-05-03T07:23:37Z</time></trkpt><trkpt lat="39.86620266091414" lon="9.489475547201334"><ele>831.0</ele><time>2026-05-03T07:23:38Z</time></trkpt><trkpt lat="39.86612126335739" lon="9.489340941029589"><ele>829.25</ele><time>2026-05-03T07:23:39Z</time></trkpt><trkpt lat="39.86602171900564" lon="9.489230539458916"><ele>827.5</ele><time>2026-05-03T07:23:40Z</time></trkpt><trkpt lat="39.865925411495915" lon="9.489126640434625"><ele>825.75</ele><time>2026-05-03T07:23:41Z</time></trkpt><trkpt lat="39.8657930493604" lon="9.489076909258646"><ele>824.0</ele><time>2026-05-03T07:23:42Z</time></trkpt><trkpt lat="39.865657938762745" lon="9.48902842914441"><ele>824.0</ele><time>2026-05-03T07:23:43Z</time></trkpt><trkpt lat="39.8655577228573" lon="9.4888992774085"><ele>824.0</ele><time>2026-05-03T07:23:44Z</time></trkpt><trkpt lat="39.86543700315218" lon="9.488782070031109"><ele>824.0</ele><time>2026-05-03T07:23:45Z</time></trkpt><trkpt lat="39.86532008881334" lon="9.488702979050156"><ele>824.0</ele><time>2026-05-03T07:23:46Z</time></trkpt><trkpt lat="39.86523220868165" lon="9.488583693472856"><ele>826.0</ele><time>2026-05-03T07:23:47Z</time></trkpt><trkpt lat="39.8651617062347" lon="9.488433967120828"><ele>828.0</ele><time>2026-05-03T07:23:48Z</time></trkpt><trkpt lat="39.86510971819688" lon="9.48824547706308"><ele>830.0</ele><time>2026-05-03T07:23:49Z</time></trkpt><trkpt lat="39.8650668289981" lon="9.48803966889105"><ele>823.5</ele><time>2026-05-03T07:23:50Z</time></trkpt><trkpt lat="39.86503282936757" lon="9.487851080627287"><ele>817.0</ele><time>2026-05-03T07:23:51Z</time></trkpt><trkpt lat="39.86501220855589" lon="9.48767772395731"><ele>810.5</ele><time>2026-05-03T07:23:52Z</time></trkpt><trkpt lat="39.86500665170242" lon="9.487502208708971"><ele>804.0</ele><time>2026-05-03T07:23:53Z</time></trkpt><trkpt lat="39.865028348575855" lon="9.487329925975661"><ele>804.0</ele><time>2026-05-03T07:23:54Z</time></trkpt><trkpt lat="39.86505676576633" lon="9.487171246095656"><ele>804.0</ele><time>2026-05-03T07:23:55Z</time></trkpt><trkpt lat="39.86506930661714" lon="9.487020232472219"><ele>804.0</ele><time>2026-05-03T07:23:56Z</time></trkpt><trkpt lat="39.86504748918194" lon="9.486885328689803"><ele>804.0</ele><time>2026-05-03T07:23:57Z</time></trkpt><trkpt lat="39.86499599462732" lon="9.486762856994945"><ele>801.8000000000001</ele><time>2026-05-03T07:23:58Z</time></trkpt><trkpt lat="39.864922027645406" lon="9.486668947532161"><ele>799.6</ele><time>2026-05-03T07:23:59Z</time></trkpt><trkpt lat="39.864851116223896" lon="9.486582133458173"><ele>797.4</ele><time>2026-05-03T07:24:00Z</time></trkpt><trkpt lat="39.86476808997477" lon="9.486558298483676"><ele>795.2</ele><time>2026-05-03T07:24:01Z</time></trkpt><trkpt lat="39.86469452288691" lon="9.486630272896534"><ele>793.0</ele><time>2026-05-03T07:24:02Z</time></trkpt><trkpt lat="39.86464635664379" lon="9.486709831389481"><ele>793.0</ele><time>2026-05-03T07:24:03Z</time></trkpt><trkpt lat="39.864608443887626" lon="9.48682614704333"><ele>793.0</ele><time>2026-05-03T07:24:04Z</time></trkpt><trkpt lat="39.86457044323449" lon="9.48695619048532"><ele>793.0</ele><time>2026-05-03T07:24:05Z</time></trkpt><trkpt lat="39.86451132759647" lon="9.487115185397546"><ele>793.0</ele><time>2026-05-03T07:24:06Z</time></trkpt><trkpt lat="39.864439294346084" lon="9.487258709092847"><ele>796.6666666666666</ele><time>2026-05-03T07:24:07Z</time></trkpt><trkpt lat="39.86433853354812" lon="9.487402204166388"><ele>800.3333333333333</ele><time>2026-05-03T07:24:08Z</time></trkpt><trkpt lat="39.86420369412976" lon="9.487502035358995"><ele>804.0</ele><time>2026-05-03T07:24:09Z</time></trkpt><trkpt lat="39.864061733949825" lon="9.487621683878276"><ele>805.0</ele><time>2026-05-03T07:24:10Z</time></trkpt><trkpt lat="39.86391005361393" lon="9.48774827260833"><ele>806.0</ele><time>2026-05-03T07:24:11Z</time></trkpt><trkpt lat="39.86374684531111" lon="9.487879263019453"><ele>807.0</ele><time>2026-05-03T07:24:12Z</time></trkpt><trkpt lat="39.86357469343646" lon="9.48800319660343"><ele>806.6666666666667</ele><time>2026-05-03T07:24:13Z</time></trkpt><trkpt lat="39.863405015058326" lon="9.488120979566638"><ele>806.3333333333334</ele><time>2026-05-03T07:24:14Z</time></trkpt><trkpt lat="39.86324268881196" lon="9.488233658089078"><ele>806.0</ele><time>2026-05-03T07:24:15Z</time></trkpt><trkpt lat="39.863089559181674" lon="9.488340298660392"><ele>806.0</ele><time>2026-05-03T07:24:16Z</time></trkpt><trkpt lat="39.86294618549634" lon="9.48844087833903"><ele>806.0</ele><time>2026-05-03T07:24:17Z</time></trkpt><trkpt lat="39.862815569995696" lon="9.48855509336749"><ele>806.0</ele><time>2026-05-03T07:24:18Z</time></trkpt><trkpt lat="39.86270787252141" lon="9.488705766329897"><ele>803.75</ele><time>2026-05-03T07:24:19Z</time></trkpt><trkpt lat="39.862625320588336" lon="9.488871990586343"><ele>801.5</ele><time>2026-05-03T07:24:20Z</time></trkpt><trkpt lat="39.86257497171972" lon="9.489035407273914"><ele>799.25</ele><time>2026-05-03T07:24:21Z</time></trkpt><trkpt lat="39.862493247361044" lon="9.489148474157062"><ele>797.0</ele><time>2026-05-03T07:24:22Z</time></trkpt><trkpt lat="39.86237966494893" lon="9.489178134167444"><ele>797.0</ele><time>2026-05-03T07:24:23Z</time></trkpt><trkpt lat="39.86228947172783" lon="9.489242986987977"><ele>797.0</ele><time>2026-05-03T07:24:24Z</time></trkpt><trkpt lat="39.86220850260133" lon="9.489360184334602"><ele>797.0</ele><time>2026-05-03T07:24:25Z</time></trkpt><trkpt lat="39.8621450881812" lon="9.48950023794257"><ele>797.0</ele><time>2026-05-03T07:24:26.001Z</time></trkpt><trkpt lat="39.862078101583805" lon="9.489659425811942"><ele>802.5</ele><time>2026-05-03T07:24:27.001Z</time></trkpt><trkpt lat="39.862017224274574" lon="9.489809472100417"><ele>808.0</ele><time>2026-05-03T07:24:28.001Z</time></trkpt><trkpt lat="39.86195762948044" lon="9.489959806137204"><ele>813.5</ele><time>2026-05-03T07:24:29.001Z</time></trkpt><trkpt lat="39.86190910127049" lon="9.490112138696546"><ele>819.0</ele><time>2026-05-03T07:24:30.001Z</time></trkpt><trkpt lat="39.86188293598088" lon="9.490266247930512"><ele>819.0</ele><time>2026-05-03T07:24:31.001Z</time></trkpt><trkpt lat="39.8618795532644" lon="9.490399720776413"><ele>819.0</ele><time>2026-05-03T07:24:32.001Z</time></trkpt><trkpt lat="39.8618254400849" lon="9.490498808574586"><ele>819.0</ele><time>2026-05-03T07:24:33.001Z</time></trkpt><trkpt lat="39.86176711445072" lon="9.490586334190494"><ele>819.0</ele><time>2026-05-03T07:24:34.001Z</time></trkpt><trkpt lat="39.8616608576528" lon="9.490633983367793"><ele>819.0</ele><time>2026-05-03T07:24:35.001Z</time></trkpt><trkpt lat="39.86154009226004" lon="9.4906761573111"><ele>813.75</ele><time>2026-05-03T07:24:36.001Z</time></trkpt><trkpt lat="39.861419991181656" lon="9.490739109627633"><ele>808.5</ele><time>2026-05-03T07:24:37.001Z</time></trkpt><trkpt lat="39.86131768944402" lon="9.49089259927471"><ele>803.25</ele><time>2026-05-03T07:24:38.001Z</time></trkpt><trkpt lat="39.86121217173693" lon="9.49104758247406"><ele>798.0</ele><time>2026-05-03T07:24:39.001Z</time></trkpt><trkpt lat="39.86109337680106" lon="9.491219879212561"><ele>804.6666666666667</ele><time>2026-05-03T07:24:40.001Z</time></trkpt><trkpt lat="39.86096880379005" lon="9.49140026997438"><ele>811.3333333333334</ele><time>2026-05-03T07:24:41Z</time></trkpt><trkpt lat="39.8608316491552" lon="9.491569433010408"><ele>818.0</ele><time>2026-05-03T07:24:42Z</time></trkpt><trkpt lat="39.86068912220918" lon="9.491727193433626"><ele>814.6666666666667</ele><time>2026-05-03T07:24:43Z</time></trkpt><trkpt lat="39.86056387224869" lon="9.491894563839972"><ele>811.3333333333333</ele><time>2026-05-03T07:24:44Z</time></trkpt><trkpt lat="39.86043231298561" lon="9.492043778051064"><ele>808.0</ele><time>2026-05-03T07:24:45Z</time></trkpt><trkpt lat="39.860307119088425" lon="9.492190004803202"><ele>808.0</ele><time>2026-05-03T07:24:46Z</time></trkpt><trkpt lat="39.86017928544095" lon="9.492313470809302"><ele>808.0</ele><time>2026-05-03T07:24:47Z</time></trkpt><trkpt lat="39.86005414697226" lon="9.49247646063566"><ele>808.0</ele><time>2026-05-03T07:24:48Z</time></trkpt><trkpt lat="39.85995358391798" lon="9.4926670229462"><ele>801.0</ele><time>2026-05-03T07:24:49Z</time></trkpt><trkpt lat="39.85987411543331" lon="9.492860287167394"><ele>794.0</ele><time>2026-05-03T07:24:50Z</time></trkpt><trkpt lat="39.85977035999511" lon="9.493016170579518"><ele>787.0</ele><time>2026-05-03T07:24:51Z</time></trkpt><trkpt lat="39.85965349344676" lon="9.493148472901273"><ele>787.0</ele><time>2026-05-03T07:24:52Z</time></trkpt><trkpt lat="39.85956650427819" lon="9.493309769844679"><ele>787.0</ele><time>2026-05-03T07:24:53Z</time></trkpt><trkpt lat="39.859505270503185" lon="9.493492008902493"><ele>787.0</ele><time>2026-05-03T07:24:54Z</time></trkpt><trkpt lat="39.85946097911134" lon="9.493656101290108"><ele>787.0</ele><time>2026-05-03T07:24:55Z</time></trkpt><trkpt lat="39.85938058567825" lon="9.493787033342917"><ele>790.75</ele><time>2026-05-03T07:24:56Z</time></trkpt><trkpt lat="39.85928446505155" lon="9.493880129593"><ele>794.5</ele><time>2026-05-03T07:24:57Z</time></trkpt><trkpt lat="39.85921561375454" lon="9.494010537844957"><ele>798.25</ele><time>2026-05-03T07:24:58Z</time></trkpt><trkpt lat="39.85920262881031" lon="9.494174861450645"><ele>802.0</ele><time>2026-05-03T07:24:59Z</time></trkpt><trkpt lat="39.859176408543895" lon="9.494338162696776"><ele>797.6</ele><time>2026-05-03T07:25:00Z</time></trkpt><trkpt lat="39.859132753995326" lon="9.494479830155216"><ele>793.2</ele><time>2026-05-03T07:25:01Z</time></trkpt><trkpt lat="39.85906869864963" lon="9.49459330645645"><ele>788.8</ele><time>2026-05-03T07:25:02Z</time></trkpt><trkpt lat="39.858989760394934" lon="9.494668258125722"><ele>784.4</ele><time>2026-05-03T07:25:03Z</time></trkpt><trkpt lat="39.85888836221438" lon="9.494683842202097"><ele>780.0</ele><time>2026-05-03T07:25:04Z</time></trkpt><trkpt lat="39.85879394955426" lon="9.494725367972588"><ele>780.0</ele><time>2026-05-03T07:25:05Z</time></trkpt><trkpt lat="39.8587018081201" lon="9.494765154065385"><ele>780.0</ele><time>2026-05-03T07:25:06Z</time></trkpt><trkpt lat="39.85861344082712" lon="9.494830547100792"><ele>780.0</ele><time>2026-05-03T07:25:07Z</time></trkpt><trkpt lat="39.85855266612944" lon="9.494960134926002"><ele>780.0</ele><time>2026-05-03T07:25:08Z</time></trkpt><trkpt lat="39.85846940996555" lon="9.495093624344818"><ele>780.0</ele><time>2026-05-03T07:25:09Z</time></trkpt><trkpt lat="39.85837454591518" lon="9.495220694393996"><ele>776.5</ele><time>2026-05-03T07:25:10Z</time></trkpt><trkpt lat="39.85826100441995" lon="9.495343978165979"><ele>773.0</ele><time>2026-05-03T07:25:11Z</time></trkpt><trkpt lat="39.85815088768901" lon="9.495443106436428"><ele>769.5</ele><time>2026-05-03T07:25:12Z</time></trkpt><trkpt lat="39.85805434018197" lon="9.495528615475358"><ele>766.0</ele><time>2026-05-03T07:25:13Z</time></trkpt><trkpt lat="39.85798080490957" lon="9.495630945495751"><ele>766.0</ele><time>2026-05-03T07:25:14Z</time></trkpt><trkpt lat="39.857929474761534" lon="9.495752366948148"><ele>766.0</ele><time>2026-05-03T07:25:15Z</time></trkpt><trkpt lat="39.8578900170079" lon="9.495895957683205"><ele>766.0</ele><time>2026-05-03T07:25:16Z</time></trkpt><trkpt lat="39.85789278550308" lon="9.496086643424192"><ele>766.0</ele><time>2026-05-03T07:25:17Z</time></trkpt><trkpt lat="39.857892271283596" lon="9.496280329552006"><ele>770.5</ele><time>2026-05-03T07:25:18Z</time></trkpt><trkpt lat="39.85788410014159" lon="9.496477216420471"><ele>775.0</ele><time>2026-05-03T07:25:19Z</time></trkpt><trkpt lat="39.857865679819476" lon="9.49665372320948"><ele>779.5</ele><time>2026-05-03T07:25:20Z</time></trkpt><trkpt lat="39.857837560835804" lon="9.496813531810497"><ele>784.0</ele><time>2026-05-03T07:25:21Z</time></trkpt><trkpt lat="39.85779617545743" lon="9.496950836007468"><ele>784.0</ele><time>2026-05-03T07:25:22Z</time></trkpt><trkpt lat="39.857727949510526" lon="9.497059991800302"><ele>784.0</ele><time>2026-05-03T07:25:23Z</time></trkpt><trkpt lat="39.857634289643094" lon="9.497130782556045"><ele>784.0</ele><time>2026-05-03T07:25:24Z</time></trkpt><trkpt lat="39.857538365200334" lon="9.49713779151876"><ele>784.0</ele><time>2026-05-03T07:25:25Z</time></trkpt><trkpt lat="39.85743372818781" lon="9.497119508470584"><ele>784.0</ele><time>2026-05-03T07:25:26Z</time></trkpt><trkpt lat="39.85730996133777" lon="9.497074947481229"><ele>772.75</ele><time>2026-05-03T07:25:27Z</time></trkpt><trkpt lat="39.8571581252712" lon="9.497031218221128"><ele>761.5</ele><time>2026-05-03T07:25:28Z</time></trkpt><trkpt lat="39.8570173104682" lon="9.49695530484694"><ele>750.25</ele><time>2026-05-03T07:25:29Z</time></trkpt><trkpt lat="39.85689012135566" lon="9.496883579502258"><ele>739.0</ele><time>2026-05-03T07:25:30Z</time></trkpt><trkpt lat="39.85677050917545" lon="9.496850023133147"><ele>738.4000000000001</ele><time>2026-05-03T07:25:31Z</time></trkpt><trkpt lat="39.856651048983366" lon="9.496871957598035"><ele>737.8</ele><time>2026-05-03T07:25:32Z</time></trkpt><trkpt lat="39.856541092457384" lon="9.496875909035012"><ele>737.2</ele><time>2026-05-03T07:25:33Z</time></trkpt><trkpt lat="39.85645023968999" lon="9.49693034612918"><ele>736.5999999999999</ele><time>2026-05-03T07:25:34Z</time></trkpt><trkpt lat="39.85638821929089" lon="9.49704399246395"><ele>736.0</ele><time>2026-05-03T07:25:35Z</time></trkpt><trkpt lat="39.856367385324724" lon="9.497201017296968"><ele>736.0</ele><time>2026-05-03T07:25:36Z</time></trkpt><trkpt lat="39.856328879157104" lon="9.497374249324935"><ele>736.0</ele><time>2026-05-03T07:25:37Z</time></trkpt><trkpt lat="39.85628439841345" lon="9.497558744616038"><ele>736.0</ele><time>2026-05-03T07:25:38Z</time></trkpt><trkpt lat="39.85621585290713" lon="9.497747932152583"><ele>736.0</ele><time>2026-05-03T07:25:39Z</time></trkpt><trkpt lat="39.85612502949371" lon="9.497936296676842"><ele>730.3333333333334</ele><time>2026-05-03T07:25:40Z</time></trkpt><trkpt lat="39.855993563800034" lon="9.498120507374429"><ele>724.6666666666666</ele><time>2026-05-03T07:25:41Z</time></trkpt><trkpt lat="39.85586145167107" lon="9.49831838474835"><ele>719.0</ele><time>2026-05-03T07:25:42Z</time></trkpt><trkpt lat="39.85573611278473" lon="9.498531194953403"><ele>719.0</ele><time>2026-05-03T07:25:43Z</time></trkpt><trkpt lat="39.85560696449747" lon="9.498720380060886"><ele>719.0</ele><time>2026-05-03T07:25:44Z</time></trkpt><trkpt lat="39.855484690408396" lon="9.498899775777156"><ele>719.0</ele><time>2026-05-03T07:25:45Z</time></trkpt><trkpt lat="39.85536616795386" lon="9.499063838400632"><ele>714.0</ele><time>2026-05-03T07:25:46Z</time></trkpt><trkpt lat="39.85525559043737" lon="9.499194216555319"><ele>709.0</ele><time>2026-05-03T07:25:47Z</time></trkpt><trkpt lat="39.855142687800544" lon="9.499301002666991"><ele>704.0</ele><time>2026-05-03T07:25:48Z</time></trkpt><trkpt lat="39.85504791389876" lon="9.499389317031794"><ele>699.0</ele><time>2026-05-03T07:25:49Z</time></trkpt><trkpt lat="39.854978524050594" lon="9.49948265089621"><ele>704.0</ele><time>2026-05-03T07:25:50Z</time></trkpt><trkpt lat="39.85494358656731" lon="9.499600308966789"><ele>709.0</ele><time>2026-05-03T07:25:51Z</time></trkpt><trkpt lat="39.85492689667603" lon="9.499741847591253"><ele>714.0</ele><time>2026-05-03T07:25:52Z</time></trkpt><trkpt lat="39.85491598907774" lon="9.499913843123796"><ele>719.0</ele><time>2026-05-03T07:25:53Z</time></trkpt><trkpt lat="39.85489505427506" lon="9.500076453448335"><ele>719.0</ele><time>2026-05-03T07:25:54Z</time></trkpt><trkpt lat="39.85484396258145" lon="9.500246467621821"><ele>719.0</ele><time>2026-05-03T07:25:55Z</time></trkpt><trkpt lat="39.85477366251594" lon="9.500412311211074"><ele>719.0</ele><time>2026-05-03T07:25:56Z</time></trkpt><trkpt lat="39.854697157883855" lon="9.500583663513307"><ele>719.0</ele><time>2026-05-03T07:25:57Z</time></trkpt><trkpt lat="39.85462866369487" lon="9.500725815175542"><ele>716.8000000000001</ele><time>2026-05-03T07:25:58Z</time></trkpt><trkpt lat="39.8545621349672" lon="9.500838784917992"><ele>714.6</ele><time>2026-05-03T07:25:59Z</time></trkpt><trkpt lat="39.85447659591177" lon="9.500900978908957"><ele>712.4</ele><time>2026-05-03T07:26:00Z</time></trkpt><trkpt lat="39.854382701413" lon="9.50092405676776"><ele>710.2</ele><time>2026-05-03T07:26:01Z</time></trkpt><trkpt lat="39.85427606339129" lon="9.500878484275711"><ele>708.0</ele><time>2026-05-03T07:26:02Z</time></trkpt><trkpt lat="39.85415324577208" lon="9.500840392309229"><ele>708.0</ele><time>2026-05-03T07:26:03Z</time></trkpt><trkpt lat="39.85402023040096" lon="9.500802882262004"><ele>708.0</ele><time>2026-05-03T07:26:04Z</time></trkpt><trkpt lat="39.85388834758317" lon="9.500777677204555"><ele>708.0</ele><time>2026-05-03T07:26:05Z</time></trkpt><trkpt lat="39.85375886173113" lon="9.500788563368275"><ele>708.0</ele><time>2026-05-03T07:26:06Z</time></trkpt><trkpt lat="39.85363696052645" lon="9.500832244632461"><ele>708.0</ele><time>2026-05-03T07:26:07Z</time></trkpt><trkpt lat="39.85353261648196" lon="9.500922042427247"><ele>708.0</ele><time>2026-05-03T07:26:08Z</time></trkpt><trkpt lat="39.853428641718175" lon="9.501028894902593"><ele>708.0</ele><time>2026-05-03T07:26:09Z</time></trkpt><trkpt lat="39.85332798649447" lon="9.501169754235775"><ele>708.0</ele><time>2026-05-03T07:26:10Z</time></trkpt><trkpt lat="39.853227084334065" lon="9.50133549276023"><ele>709.6666666666666</ele><time>2026-05-03T07:26:11Z</time></trkpt><trkpt lat="39.85311836758037" lon="9.501526138755606"><ele>711.3333333333333</ele><time>2026-05-03T07:26:12Z</time></trkpt><trkpt lat="39.85301656205362" lon="9.501714518251664"><ele>713.0</ele><time>2026-05-03T07:26:13Z</time></trkpt><trkpt lat="39.85291175333508" lon="9.501884098584409"><ele>713.0</ele><time>2026-05-03T07:26:14Z</time></trkpt><trkpt lat="39.852794865010615" lon="9.502040106977613"><ele>713.0</ele><time>2026-05-03T07:26:15Z</time></trkpt><trkpt lat="39.85267332604829" lon="9.502177333839857"><ele>713.0</ele><time>2026-05-03T07:26:16Z</time></trkpt><trkpt lat="39.852555670834754" lon="9.5022835590635"><ele>711.25</ele><time>2026-05-03T07:26:17Z</time></trkpt><trkpt lat="39.852444584101974" lon="9.502367464161221"><ele>709.5</ele><time>2026-05-03T07:26:18Z</time></trkpt><trkpt lat="39.85233532144581" lon="9.502413414481165"><ele>707.75</ele><time>2026-05-03T07:26:19Z</time></trkpt><trkpt lat="39.852212068214534" lon="9.502409936875479"><ele>706.0</ele><time>2026-05-03T07:26:20Z</time></trkpt><trkpt lat="39.85207887689606" lon="9.502388788989354"><ele>706.0</ele><time>2026-05-03T07:26:21Z</time></trkpt><trkpt lat="39.8519569155358" lon="9.502379590203109"><ele>706.0</ele><time>2026-05-03T07:26:22Z</time></trkpt><trkpt lat="39.851848874223364" lon="9.50241196721096"><ele>706.0</ele><time>2026-05-03T07:26:23Z</time></trkpt><trkpt lat="39.85174162554784" lon="9.502477196510435"><ele>706.0</ele><time>2026-05-03T07:26:24Z</time></trkpt><trkpt lat="39.85162639068968" lon="9.502591867919927"><ele>707.5</ele><time>2026-05-03T07:26:25Z</time></trkpt><trkpt lat="39.85152050930498" lon="9.502725703105444"><ele>709.0</ele><time>2026-05-03T07:26:26Z</time></trkpt><trkpt lat="39.85143654042806" lon="9.502868470642596"><ele>710.5</ele><time>2026-05-03T07:26:27Z</time></trkpt><trkpt lat="39.851368339931426" lon="9.503007319242954"><ele>712.0</ele><time>2026-05-03T07:26:28Z</time></trkpt><trkpt lat="39.85130986074816" lon="9.503134574756002"><ele>712.0</ele><time>2026-05-03T07:26:29Z</time></trkpt><trkpt lat="39.851255620042345" lon="9.503247604375701"><ele>712.0</ele><time>2026-05-03T07:26:30Z</time></trkpt><trkpt lat="39.85119992081659" lon="9.503339555538476"><ele>712.0</ele><time>2026-05-03T07:26:31Z</time></trkpt><trkpt lat="39.85112866504944" lon="9.503404086388343"><ele>712.0</ele><time>2026-05-03T07:26:32Z</time></trkpt><trkpt lat="39.85103835181733" lon="9.503451580177353"><ele>712.0</ele><time>2026-05-03T07:26:33Z</time></trkpt><trkpt lat="39.85093796083386" lon="9.503487123082524"><ele>704.0</ele><time>2026-05-03T07:26:34Z</time></trkpt><trkpt lat="39.85083337079705" lon="9.503514588044307"><ele>696.0</ele><time>2026-05-03T07:26:35Z</time></trkpt><trkpt lat="39.85072821874821" lon="9.503541546276495"><ele>688.0</ele><time>2026-05-03T07:26:36Z</time></trkpt><trkpt lat="39.85061149813069" lon="9.503558185982875"><ele>680.0</ele><time>2026-05-03T07:26:37Z</time></trkpt><trkpt lat="39.850492519904925" lon="9.503551949553659"><ele>680.0</ele><time>2026-05-03T07:26:38Z</time></trkpt><trkpt lat="39.850376227858916" lon="9.503521919322727"><ele>680.0</ele><time>2026-05-03T07:26:39Z</time></trkpt><trkpt lat="39.85025424661284" lon="9.503482218979288"><ele>680.0</ele><time>2026-05-03T07:26:40Z</time></trkpt><trkpt lat="39.850134776006406" lon="9.503463133077485"><ele>680.0</ele><time>2026-05-03T07:26:41Z</time></trkpt><trkpt lat="39.85001179514521" lon="9.503470164671606"><ele>677.75</ele><time>2026-05-03T07:26:42Z</time></trkpt><trkpt lat="39.8498933551723" lon="9.503494090626537"><ele>675.5</ele><time>2026-05-03T07:26:43Z</time></trkpt><trkpt lat="39.8497854821433" lon="9.503525592887485"><ele>673.25</ele><time>2026-05-03T07:26:44Z</time></trkpt><trkpt lat="39.84967567952458" lon="9.503587171334678"><ele>671.0</ele><time>2026-05-03T07:26:45Z</time></trkpt><trkpt lat="39.84956894349953" lon="9.503676184907471"><ele>672.0</ele><time>2026-05-03T07:26:46Z</time></trkpt><trkpt lat="39.849462314592905" lon="9.503764694077308"><ele>673.0</ele><time>2026-05-03T07:26:47Z</time></trkpt><trkpt lat="39.84935833138161" lon="9.503846515484053"><ele>674.0</ele><time>2026-05-03T07:26:48Z</time></trkpt><trkpt lat="39.849256941796426" lon="9.50392612153584"><ele>675.0</ele><time>2026-05-03T07:26:49Z</time></trkpt><trkpt lat="39.8491583578655" lon="9.504004677583337"><ele>675.0</ele><time>2026-05-03T07:26:50Z</time></trkpt><trkpt lat="39.84909617102181" lon="9.504141001299377"><ele>675.0</ele><time>2026-05-03T07:26:51Z</time></trkpt><trkpt lat="39.848973233812025" lon="9.504162162171003"><ele>675.0</ele><time>2026-05-03T07:26:52Z</time></trkpt><trkpt lat="39.84888493786292" lon="9.504246669370309"><ele>675.0</ele><time>2026-05-03T07:26:53Z</time></trkpt><trkpt lat="39.84880567635977" lon="9.50433749565401"><ele>675.0</ele><time>2026-05-03T07:26:54Z</time></trkpt><trkpt lat="39.84873177282476" lon="9.504432246685715"><ele>675.0</ele><time>2026-05-03T07:26:55Z</time></trkpt><trkpt lat="39.848672824237475" lon="9.504527959570746"><ele>675.0</ele><time>2026-05-03T07:26:56Z</time></trkpt><trkpt lat="39.84862261578927" lon="9.504614108657844"><ele>675.0</ele><time>2026-05-03T07:26:57Z</time></trkpt><trkpt lat="39.84858477105994" lon="9.504687616613033"><ele>675.0</ele><time>2026-05-03T07:26:58Z</time></trkpt><trkpt lat="39.848553039802205" lon="9.504763283819901"><ele>675.0</ele><time>2026-05-03T07:26:59Z</time></trkpt><trkpt lat="39.848502797322695" lon="9.504904849396722"><ele>674.8333333333334</ele><time>2026-05-03T07:27:01Z</time></trkpt><trkpt lat="39.84848806964278" lon="9.504989486377294"><ele>674.6666666666666</ele><time>2026-05-03T07:27:02Z</time></trkpt><trkpt lat="39.848547742033595" lon="9.505101729512393"><ele>674.5</ele><time>2026-05-03T07:27:03Z</time></trkpt><trkpt lat="39.848457568827065" lon="9.505178701000396"><ele>674.3333333333333</ele><time>2026-05-03T07:27:04Z</time></trkpt><trkpt lat="39.848420272775826" lon="9.505266422177911"><ele>674.1666666666666</ele><time>2026-05-03T07:27:05Z</time></trkpt><trkpt lat="39.84837382261794" lon="9.505348584868345"><ele>674.0</ele><time>2026-05-03T07:27:06Z</time></trkpt><trkpt lat="39.84830626598003" lon="9.505425532435954"><ele>674.0</ele><time>2026-05-03T07:27:07Z</time></trkpt><trkpt lat="39.84822513049951" lon="9.505505585109907"><ele>674.0</ele><time>2026-05-03T07:27:08Z</time></trkpt><trkpt lat="39.84811403349276" lon="9.505544753770248"><ele>674.0</ele><time>2026-05-03T07:27:09Z</time></trkpt><trkpt lat="39.848019542489" lon="9.505593543129493"><ele>674.0</ele><time>2026-05-03T07:27:10Z</time></trkpt><trkpt lat="39.84792572423518" lon="9.50565006011687"><ele>674.0</ele><time>2026-05-03T07:27:11Z</time></trkpt><trkpt lat="39.84782040860698" lon="9.505671637098256"><ele>674.0</ele><time>2026-05-03T07:27:12Z</time></trkpt><trkpt lat="39.84772022703759" lon="9.50567041583845"><ele>674.0</ele><time>2026-05-03T07:27:13Z</time></trkpt><trkpt lat="39.84762095648305" lon="9.505651195055322"><ele>674.0</ele><time>2026-05-03T07:27:14Z</time></trkpt><trkpt lat="39.84754029879593" lon="9.505622615277279"><ele>674.0</ele><time>2026-05-03T07:27:15Z</time></trkpt><trkpt lat="39.84748414826941" lon="9.505570759006934"><ele>674.0</ele><time>2026-05-03T07:27:16Z</time></trkpt><trkpt lat="39.84747034221626" lon="9.505409218069811"><ele>673.4285714285714</ele><time>2026-05-03T07:27:18Z</time></trkpt><trkpt lat="39.84751278863637" lon="9.505324382427064"><ele>672.8571428571429</ele><time>2026-05-03T07:27:19Z</time></trkpt><trkpt lat="39.84756644272702" lon="9.505264332735138"><ele>672.2857142857142</ele><time>2026-05-03T07:27:20Z</time></trkpt><trkpt lat="39.84763420940983" lon="9.505247534610564"><ele>671.7142857142858</ele><time>2026-05-03T07:27:21Z</time></trkpt><trkpt lat="39.847708128912615" lon="9.505283127070461"><ele>671.1428571428571</ele><time>2026-05-03T07:27:22Z</time></trkpt><trkpt lat="39.84778598160966" lon="9.505330531771014"><ele>670.5714285714286</ele><time>2026-05-03T07:27:23Z</time></trkpt><trkpt lat="39.84784989057329" lon="9.505333396956932"><ele>670.0</ele><time>2026-05-03T07:27:24Z</time></trkpt><trkpt lat="39.84793485510826" lon="9.505247344576528"><ele>670.0</ele><time>2026-05-03T07:27:26Z</time></trkpt><trkpt lat="39.848037163005394" lon="9.505143528875854"><ele>670.0</ele><time>2026-05-03T07:27:28Z</time></trkpt><trkpt lat="39.847903270391456" lon="9.505056371090324"><ele>670.0</ele><time>2026-05-03T07:27:29Z</time></trkpt><trkpt lat="39.84785862791996" lon="9.504967696691141"><ele>670.0</ele><time>2026-05-03T07:27:30Z</time></trkpt><trkpt lat="39.84780006019479" lon="9.504878443184124"><ele>670.0</ele><time>2026-05-03T07:27:31Z</time></trkpt><trkpt lat="39.84774548040443" lon="9.504794901777238"><ele>670.0</ele><time>2026-05-03T07:27:32Z</time></trkpt><trkpt lat="39.84768868146175" lon="9.50471079077038"><ele>670.0</ele><time>2026-05-03T07:27:33Z</time></trkpt><trkpt lat="39.84763736555703" lon="9.504628153513687"><ele>670.0</ele><time>2026-05-03T07:27:34Z</time></trkpt><trkpt lat="39.84760101852795" lon="9.50453183524504"><ele>670.0</ele><time>2026-05-03T07:27:35Z</time></trkpt><trkpt lat="39.847583121400774" lon="9.504426949071773"><ele>670.0</ele><time>2026-05-03T07:27:36Z</time></trkpt><trkpt lat="39.84759175909974" lon="9.504323714914825"><ele>668.0</ele><time>2026-05-03T07:27:37Z</time></trkpt><trkpt lat="39.847635056882396" lon="9.504237108953584"><ele>666.0</ele><time>2026-05-03T07:27:38Z</time></trkpt><trkpt lat="39.84770546420825" lon="9.504180348914966"><ele>664.0</ele><time>2026-05-03T07:27:39Z</time></trkpt><trkpt lat="39.84780822394056" lon="9.504145822271115"><ele>662.0</ele><time>2026-05-03T07:27:40Z</time></trkpt><trkpt lat="39.84793184545212" lon="9.504100396452273"><ele>660.0</ele><time>2026-05-03T07:27:41Z</time></trkpt><trkpt lat="39.84805628268396" lon="9.504033882219014"><ele>660.0</ele><time>2026-05-03T07:27:42Z</time></trkpt><trkpt lat="39.84818976049788" lon="9.503937316008008"><ele>660.0</ele><time>2026-05-03T07:27:43Z</time></trkpt><trkpt lat="39.84833202219969" lon="9.503809669927673"><ele>660.0</ele><time>2026-05-03T07:27:44Z</time></trkpt><trkpt lat="39.84846994831266" lon="9.503673298568827"><ele>657.3333333333334</ele><time>2026-05-03T07:27:45Z</time></trkpt><trkpt lat="39.848615645442145" lon="9.503523772750166"><ele>654.6666666666667</ele><time>2026-05-03T07:27:46Z</time></trkpt><trkpt lat="39.848754997845184" lon="9.503381922861168"><ele>652.0</ele><time>2026-05-03T07:27:47Z</time></trkpt><trkpt lat="39.84888922705508" lon="9.503249586941127"><ele>652.0</ele><time>2026-05-03T07:27:48Z</time></trkpt><trkpt lat="39.84901773467117" lon="9.503121350198644"><ele>652.0</ele><time>2026-05-03T07:27:49Z</time></trkpt><trkpt lat="39.849137235439166" lon="9.50299641793783"><ele>652.0</ele><time>2026-05-03T07:27:50Z</time></trkpt><trkpt lat="39.849238048525855" lon="9.50286358626613"><ele>650.5</ele><time>2026-05-03T07:27:51Z</time></trkpt><trkpt lat="39.8493315232871" lon="9.502730419855984"><ele>649.0</ele><time>2026-05-03T07:27:52Z</time></trkpt><trkpt lat="39.84937241571914" lon="9.50256162882532"><ele>647.5</ele><time>2026-05-03T07:27:53Z</time></trkpt><trkpt lat="39.849419762233865" lon="9.502389099777675"><ele>646.0</ele><time>2026-05-03T07:27:54Z</time></trkpt><trkpt lat="39.84942323351942" lon="9.50220722975136"><ele>643.4</ele><time>2026-05-03T07:27:55Z</time></trkpt><trkpt lat="39.8494186009968" lon="9.502057845858792"><ele>640.8</ele><time>2026-05-03T07:27:56Z</time></trkpt><trkpt lat="39.849453579849815" lon="9.50192615294183"><ele>638.1999999999999</ele><time>2026-05-03T07:27:57Z</time></trkpt><trkpt lat="39.849511502677565" lon="9.501811905236048"><ele>635.5999999999999</ele><time>2026-05-03T07:27:58Z</time></trkpt><trkpt lat="39.849593998346016" lon="9.50171857700953"><ele>633.0</ele><time>2026-05-03T07:27:59Z</time></trkpt><trkpt lat="39.84970902882956" lon="9.501637817370574"><ele>633.0</ele><time>2026-05-03T07:28:00Z</time></trkpt><trkpt lat="39.849828023716526" lon="9.50154071546133"><ele>633.0</ele><time>2026-05-03T07:28:01Z</time></trkpt><trkpt lat="39.84993633634372" lon="9.501418079955299"><ele>633.0</ele><time>2026-05-03T07:28:02Z</time></trkpt><trkpt lat="39.850027773557215" lon="9.501275393314115"><ele>633.0</ele><time>2026-05-03T07:28:03Z</time></trkpt><trkpt lat="39.85010511288017" lon="9.50112675526075"><ele>629.25</ele><time>2026-05-03T07:28:04Z</time></trkpt><trkpt lat="39.850189501446074" lon="9.500991085188005"><ele>625.5</ele><time>2026-05-03T07:28:05Z</time></trkpt><trkpt lat="39.85028840647643" lon="9.500870979881586"><ele>621.75</ele><time>2026-05-03T07:28:06Z</time></trkpt><trkpt lat="39.85039506628435" lon="9.500772834586147"><ele>618.0</ele><time>2026-05-03T07:28:07Z</time></trkpt><trkpt lat="39.85049942604407" lon="9.50070015494108"><ele>618.0</ele><time>2026-05-03T07:28:08Z</time></trkpt><trkpt lat="39.85060136805913" lon="9.50066277656449"><ele>618.0</ele><time>2026-05-03T07:28:09Z</time></trkpt><trkpt lat="39.85071051699806" lon="9.500669152451863"><ele>618.0</ele><time>2026-05-03T07:28:10Z</time></trkpt><trkpt lat="39.85083889771687" lon="9.500717310926957"><ele>618.0</ele><time>2026-05-03T07:28:11Z</time></trkpt><trkpt lat="39.85096743236103" lon="9.500767236359144"><ele>618.5</ele><time>2026-05-03T07:28:12Z</time></trkpt><trkpt lat="39.851080351834604" lon="9.50079874839542"><ele>619.0</ele><time>2026-05-03T07:28:13Z</time></trkpt><trkpt lat="39.85118871575449" lon="9.500793446944689"><ele>619.5</ele><time>2026-05-03T07:28:14Z</time></trkpt><trkpt lat="39.85129625030559" lon="9.50073679552843"><ele>620.0</ele><time>2026-05-03T07:28:15Z</time></trkpt><trkpt lat="39.8514099291451" lon="9.500640629095292"><ele>620.0</ele><time>2026-05-03T07:28:16Z</time></trkpt><trkpt lat="39.85154266537712" lon="9.50055086264711"><ele>620.0</ele><time>2026-05-03T07:28:17Z</time></trkpt><trkpt lat="39.85169930313813" lon="9.500472091930764"><ele>620.0</ele><time>2026-05-03T07:28:18Z</time></trkpt><trkpt lat="39.85186104758624" lon="9.500397244601464"><ele>616.75</ele><time>2026-05-03T07:28:19Z</time></trkpt><trkpt lat="39.85201411812238" lon="9.500352734747743"><ele>613.5</ele><time>2026-05-03T07:28:20Z</time></trkpt><trkpt lat="39.85215903363315" lon="9.500321610632996"><ele>610.25</ele><time>2026-05-03T07:28:21Z</time></trkpt><trkpt lat="39.85229007837927" lon="9.500266245321612"><ele>607.0</ele><time>2026-05-03T07:28:22Z</time></trkpt><trkpt lat="39.852411844705344" lon="9.500174814511183"><ele>607.0</ele><time>2026-05-03T07:28:23Z</time></trkpt><trkpt lat="39.85252992298654" lon="9.500042254580235"><ele>607.0</ele><time>2026-05-03T07:28:24Z</time></trkpt><trkpt lat="39.85263065676104" lon="9.499909946146076"><ele>607.0</ele><time>2026-05-03T07:28:25Z</time></trkpt><trkpt lat="39.852717053796326" lon="9.499790959993636"><ele>607.0</ele><time>2026-05-03T07:28:26Z</time></trkpt><trkpt lat="39.85278578736892" lon="9.49969189298807"><ele>607.6666666666667</ele><time>2026-05-03T07:28:27Z</time></trkpt><trkpt lat="39.85282374259802" lon="9.49959020566146"><ele>608.3333333333334</ele><time>2026-05-03T07:28:28Z</time></trkpt><trkpt lat="39.8528239848" lon="9.4994922447879"><ele>609.0</ele><time>2026-05-03T07:28:29Z</time></trkpt><trkpt lat="39.85280879797807" lon="9.499401055417723"><ele>609.6666666666666</ele><time>2026-05-03T07:28:30Z</time></trkpt><trkpt lat="39.85272439922637" lon="9.499343929769056"><ele>610.3333333333333</ele><time>2026-05-03T07:28:31Z</time></trkpt><trkpt lat="39.85262995428824" lon="9.499346865766427"><ele>611.0</ele><time>2026-05-03T07:28:32Z</time></trkpt><trkpt lat="39.85255341966327" lon="9.499452461529739"><ele>610.0</ele><time>2026-05-03T07:28:33Z</time></trkpt><trkpt lat="39.8524876380681" lon="9.499573113108035"><ele>609.0</ele><time>2026-05-03T07:28:34Z</time></trkpt><trkpt lat="39.852414575209" lon="9.499696030018626"><ele>608.0</ele><time>2026-05-03T07:28:35Z</time></trkpt><trkpt lat="39.85232545948111" lon="9.499778782929702"><ele>607.0</ele><time>2026-05-03T07:28:36Z</time></trkpt><trkpt lat="39.8522244764903" lon="9.499830360804827"><ele>607.0</ele><time>2026-05-03T07:28:37Z</time></trkpt><trkpt lat="39.85211023785047" lon="9.499832989970828"><ele>607.0</ele><time>2026-05-03T07:28:38Z</time></trkpt><trkpt lat="39.85197219592237" lon="9.499785143513632"><ele>607.0</ele><time>2026-05-03T07:28:39Z</time></trkpt><trkpt lat="39.85180652361715" lon="9.49975274264438"><ele>607.0</ele><time>2026-05-03T07:28:40Z</time></trkpt><trkpt lat="39.85162447004346" lon="9.49971721796054"><ele>603.3333333333334</ele><time>2026-05-03T07:28:41Z</time></trkpt><trkpt lat="39.851425355341995" lon="9.499678718910756"><ele>599.6666666666666</ele><time>2026-05-03T07:28:42Z</time></trkpt><trkpt lat="39.85123510266427" lon="9.499659855919633"><ele>596.0</ele><time>2026-05-03T07:28:43Z</time></trkpt><trkpt lat="39.85105562745675" lon="9.49961761668689"><ele>585.6666666666666</ele><time>2026-05-03T07:28:44Z</time></trkpt><trkpt lat="39.85088621091079" lon="9.499581406503056"><ele>575.3333333333334</ele><time>2026-05-03T07:28:45Z</time></trkpt><trkpt lat="39.85072037406489" lon="9.499561664508038"><ele>565.0</ele><time>2026-05-03T07:28:46Z</time></trkpt><trkpt lat="39.850559754864236" lon="9.49955906863665"><ele>570.6666666666667</ele><time>2026-05-03T07:28:47Z</time></trkpt><trkpt lat="39.850394473888365" lon="9.499592654765259"><ele>576.3333333333334</ele><time>2026-05-03T07:28:48Z</time></trkpt><trkpt lat="39.85021602974798" lon="9.49965341466907"><ele>582.0</ele><time>2026-05-03T07:28:49Z</time></trkpt><trkpt lat="39.850043876511016" lon="9.499728843185228"><ele>582.0</ele><time>2026-05-03T07:28:50Z</time></trkpt><trkpt lat="39.84989005433042" lon="9.499796373840887"><ele>582.0</ele><time>2026-05-03T07:28:51Z</time></trkpt><trkpt lat="39.84975117345883" lon="9.49987053982919"><ele>582.0</ele><time>2026-05-03T07:28:52Z</time></trkpt><trkpt lat="39.849618181847895" lon="9.499953451668933"><ele>582.0</ele><time>2026-05-03T07:28:53Z</time></trkpt><trkpt lat="39.849515063363356" lon="9.50010649246484"><ele>582.0</ele><time>2026-05-03T07:28:54Z</time></trkpt><trkpt lat="39.84939598835163" lon="9.500249877252683"><ele>582.0</ele><time>2026-05-03T07:28:55Z</time></trkpt><trkpt lat="39.84925734572295" lon="9.500371039396352"><ele>581.3333333333334</ele><time>2026-05-03T07:28:56Z</time></trkpt><trkpt lat="39.84911960387786" lon="9.500484052007161"><ele>580.6666666666667</ele><time>2026-05-03T07:28:57Z</time></trkpt><trkpt lat="39.84895828109894" lon="9.500587105575104"><ele>580.0</ele><time>2026-05-03T07:28:58Z</time></trkpt><trkpt lat="39.848807924771" lon="9.500682477147626"><ele>580.0</ele><time>2026-05-03T07:28:59Z</time></trkpt><trkpt lat="39.84866721310436" lon="9.500768061995881"><ele>580.0</ele><time>2026-05-03T07:29:00Z</time></trkpt><trkpt lat="39.84853129435685" lon="9.500832645918116"><ele>580.0</ele><time>2026-05-03T07:29:01Z</time></trkpt><trkpt lat="39.8484107028093" lon="9.50091214192036"><ele>580.0</ele><time>2026-05-03T07:29:02Z</time></trkpt><trkpt lat="39.84830131771673" lon="9.501019629604661"><ele>576.3333333333334</ele><time>2026-05-03T07:29:03Z</time></trkpt><trkpt lat="39.84823053645647" lon="9.501129552660514"><ele>572.6666666666667</ele><time>2026-05-03T07:29:04Z</time></trkpt><trkpt lat="39.84818765820962" lon="9.501222687366543"><ele>569.0</ele><time>2026-05-03T07:29:05Z</time></trkpt><trkpt lat="39.84811172476259" lon="9.501244654074767"><ele>565.3333333333334</ele><time>2026-05-03T07:29:06Z</time></trkpt><trkpt lat="39.84804026603572" lon="9.501217536456378"><ele>561.6666666666666</ele><time>2026-05-03T07:29:07Z</time></trkpt><trkpt lat="39.84798597515444" lon="9.501137004049916"><ele>558.0</ele><time>2026-05-03T07:29:08Z</time></trkpt><trkpt lat="39.84792606514747" lon="9.501016189438213"><ele>558.0</ele><time>2026-05-03T07:29:09Z</time></trkpt><trkpt lat="39.847862670072125" lon="9.500931853664165"><ele>558.0</ele><time>2026-05-03T07:29:10Z</time></trkpt><trkpt lat="39.84778804941548" lon="9.500879100145331"><ele>558.0</ele><time>2026-05-03T07:29:11Z</time></trkpt><trkpt lat="39.84770703990458" lon="9.50087404346959"><ele>558.0</ele><time>2026-05-03T07:29:12Z</time></trkpt><trkpt lat="39.847620630667016" lon="9.500892800456276"><ele>558.0</ele><time>2026-05-03T07:29:13Z</time></trkpt><trkpt lat="39.847547112959674" lon="9.501005803315765"><ele>554.5</ele><time>2026-05-03T07:29:14Z</time></trkpt><trkpt lat="39.84745675379423" lon="9.5011284979322"><ele>551.0</ele><time>2026-05-03T07:29:15Z</time></trkpt><trkpt lat="39.84735341622702" lon="9.501266061443875"><ele>547.5</ele><time>2026-05-03T07:29:16Z</time></trkpt><trkpt lat="39.847241524901975" lon="9.501371103999674"><ele>544.0</ele><time>2026-05-03T07:29:17Z</time></trkpt><trkpt lat="39.847119171761534" lon="9.501457356502133"><ele>547.6666666666667</ele><time>2026-05-03T07:29:18Z</time></trkpt><trkpt lat="39.84697686870054" lon="9.501496589015161"><ele>551.3333333333334</ele><time>2026-05-03T07:29:19Z</time></trkpt><trkpt lat="39.846822060873265" lon="9.501527443816698"><ele>555.0</ele><time>2026-05-03T07:29:20Z</time></trkpt><trkpt lat="39.84667432175627" lon="9.50155546737661"><ele>555.0</ele><time>2026-05-03T07:29:21Z</time></trkpt><trkpt lat="39.8465449698028" lon="9.501580003206053"><ele>555.0</ele><time>2026-05-03T07:29:22Z</time></trkpt><trkpt lat="39.846438733998596" lon="9.50159655279397"><ele>555.0</ele><time>2026-05-03T07:29:23Z</time></trkpt><trkpt lat="39.84635763901372" lon="9.50160472506191"><ele>555.0</ele><time>2026-05-03T07:29:24Z</time></trkpt><trkpt lat="39.84626363979548" lon="9.501532675962912"><ele>555.0</ele><time>2026-05-03T07:29:26Z</time></trkpt><trkpt lat="39.84625992278564" lon="9.501449697661332"><ele>555.0</ele><time>2026-05-03T07:29:27Z</time></trkpt><trkpt lat="39.84633974801751" lon="9.501318067508588"><ele>555.0</ele><time>2026-05-03T07:29:29Z</time></trkpt><trkpt lat="39.8464217102158" lon="9.501276644784642"><ele>555.0</ele><time>2026-05-03T07:29:30Z</time></trkpt><trkpt lat="39.846527794125855" lon="9.501249092680876"><ele>555.0</ele><time>2026-05-03T07:29:31Z</time></trkpt><trkpt lat="39.84664730721936" lon="9.501225812438486"><ele>555.0</ele><time>2026-05-03T07:29:32Z</time></trkpt><trkpt lat="39.8467674535493" lon="9.501204116212918"><ele>552.8</ele><time>2026-05-03T07:29:33Z</time></trkpt><trkpt lat="39.84688079776662" lon="9.501167920498828"><ele>550.6</ele><time>2026-05-03T07:29:34Z</time></trkpt><trkpt lat="39.84698649224349" lon="9.501123142657436"><ele>548.4</ele><time>2026-05-03T07:29:35Z</time></trkpt><trkpt lat="39.84708020675808" lon="9.501065469281926"><ele>546.2</ele><time>2026-05-03T07:29:36Z</time></trkpt><trkpt lat="39.847163141991565" lon="9.500991061155208"><ele>544.0</ele><time>2026-05-03T07:29:37Z</time></trkpt><trkpt lat="39.84725099432171" lon="9.50092015067672"><ele>544.0</ele><time>2026-05-03T07:29:38Z</time></trkpt><trkpt lat="39.84732225544367" lon="9.500812464207216"><ele>544.0</ele><time>2026-05-03T07:29:39Z</time></trkpt><trkpt lat="39.84737395110191" lon="9.500691791686341"><ele>544.0</ele><time>2026-05-03T07:29:40Z</time></trkpt><trkpt lat="39.84743387648909" lon="9.500587004843986"><ele>544.0</ele><time>2026-05-03T07:29:41Z</time></trkpt><trkpt lat="39.847503900500506" lon="9.500495844515488"><ele>544.0</ele><time>2026-05-03T07:29:42Z</time></trkpt><trkpt lat="39.84758234938715" lon="9.50042580603203"><ele>546.8</ele><time>2026-05-03T07:29:43Z</time></trkpt><trkpt lat="39.84766671026576" lon="9.500393707264475"><ele>549.5999999999999</ele><time>2026-05-03T07:29:44Z</time></trkpt><trkpt lat="39.847763070478365" lon="9.50039379741145"><ele>552.4</ele><time>2026-05-03T07:29:45Z</time></trkpt><trkpt lat="39.84787142249262" lon="9.500442917589615"><ele>555.1999999999999</ele><time>2026-05-03T07:29:46Z</time></trkpt><trkpt lat="39.8479734119058" lon="9.500479598331173"><ele>558.0</ele><time>2026-05-03T07:29:47Z</time></trkpt><trkpt lat="39.848070491187514" lon="9.500476770032297"><ele>558.0</ele><time>2026-05-03T07:29:48Z</time></trkpt><trkpt lat="39.84815145576876" lon="9.500421092050196"><ele>558.0</ele><time>2026-05-03T07:29:49Z</time></trkpt><trkpt lat="39.848234635129046" lon="9.500316410074818"><ele>558.0</ele><time>2026-05-03T07:29:50Z</time></trkpt><trkpt lat="39.84833219994527" lon="9.50017317941074"><ele>558.0</ele><time>2026-05-03T07:29:51Z</time></trkpt><trkpt lat="39.84844177065805" lon="9.50003667925912"><ele>557.25</ele><time>2026-05-03T07:29:52Z</time></trkpt><trkpt lat="39.84854647238793" lon="9.499881443557697"><ele>556.5</ele><time>2026-05-03T07:29:53Z</time></trkpt><trkpt lat="39.84863207838" lon="9.499729996717758"><ele>555.75</ele><time>2026-05-03T07:29:54Z</time></trkpt><trkpt lat="39.84871437300673" lon="9.499584977393118"><ele>555.0</ele><time>2026-05-03T07:29:55Z</time></trkpt><trkpt lat="39.848761685260634" lon="9.499403247112676"><ele>550.25</ele><time>2026-05-03T07:29:56Z</time></trkpt><trkpt lat="39.8487875900068" lon="9.49921165464531"><ele>545.5</ele><time>2026-05-03T07:29:57Z</time></trkpt><trkpt lat="39.84881180870303" lon="9.499041745562518"><ele>540.75</ele><time>2026-05-03T07:29:58Z</time></trkpt><trkpt lat="39.84883992768564" lon="9.498879866210242"><ele>536.0</ele><time>2026-05-03T07:29:59Z</time></trkpt><trkpt lat="39.84890552597665" lon="9.498752197661132"><ele>535.0</ele><time>2026-05-03T07:30:00Z</time></trkpt><trkpt lat="39.84898680895835" lon="9.498649841314085"><ele>534.0</ele><time>2026-05-03T07:30:01Z</time></trkpt><trkpt lat="39.84908444459303" lon="9.49857275346398"><ele>533.0</ele><time>2026-05-03T07:30:02Z</time></trkpt><trkpt lat="39.8491889472674" lon="9.498518855733414"><ele>532.0</ele><time>2026-05-03T07:30:03Z</time></trkpt><trkpt lat="39.84929399872916" lon="9.498493378701944"><ele>531.0</ele><time>2026-05-03T07:30:04Z</time></trkpt><trkpt lat="39.84936930104232" lon="9.498372817622391"><ele>531.0</ele><time>2026-05-03T07:30:05Z</time></trkpt><trkpt lat="39.849412096398666" lon="9.498222750373655"><ele>531.0</ele><time>2026-05-03T07:30:06Z</time></trkpt><trkpt lat="39.84944080064703" lon="9.498085701855192"><ele>531.0</ele><time>2026-05-03T07:30:07Z</time></trkpt><trkpt lat="39.849510391835665" lon="9.4979923648741"><ele>531.0</ele><time>2026-05-03T07:30:08Z</time></trkpt><trkpt lat="39.84959917141875" lon="9.497936085410425"><ele>531.0</ele><time>2026-05-03T07:30:09Z</time></trkpt><trkpt lat="39.84971202677672" lon="9.497915700948742"><ele>531.0</ele><time>2026-05-03T07:30:10Z</time></trkpt><trkpt lat="39.84984495742333" lon="9.49792068106811"><ele>531.0</ele><time>2026-05-03T07:30:11Z</time></trkpt><trkpt lat="39.84998495414991" lon="9.49793831721056"><ele>531.0</ele><time>2026-05-03T07:30:12Z</time></trkpt><trkpt lat="39.850119498877895" lon="9.497962080633371"><ele>531.0</ele><time>2026-05-03T07:30:13Z</time></trkpt><trkpt lat="39.850264203092685" lon="9.49797410596509"><ele>530.75</ele><time>2026-05-03T07:30:14Z</time></trkpt><trkpt lat="39.85040575124619" lon="9.497968962979387"><ele>530.5</ele><time>2026-05-03T07:30:15Z</time></trkpt><trkpt lat="39.850544518428066" lon="9.49794764346864"><ele>530.25</ele><time>2026-05-03T07:30:16Z</time></trkpt><trkpt lat="39.850675028350544" lon="9.497911578211186"><ele>530.0</ele><time>2026-05-03T07:30:17Z</time></trkpt><trkpt lat="39.850794778021076" lon="9.497865207828815"><ele>526.5</ele><time>2026-05-03T07:30:18Z</time></trkpt><trkpt lat="39.850901151887484" lon="9.497811096787382"><ele>523.0</ele><time>2026-05-03T07:30:19Z</time></trkpt><trkpt lat="39.851001531621975" lon="9.497756869416513"><ele>519.5</ele><time>2026-05-03T07:30:20Z</time></trkpt><trkpt lat="39.8510780097682" lon="9.497654944998276"><ele>516.0</ele><time>2026-05-03T07:30:21Z</time></trkpt><trkpt lat="39.85113611682143" lon="9.497522175455078"><ele>516.0</ele><time>2026-05-03T07:30:22Z</time></trkpt><trkpt lat="39.85117381481624" lon="9.497372237433582"><ele>516.0</ele><time>2026-05-03T07:30:23Z</time></trkpt><trkpt lat="39.851261492990616" lon="9.497242660570752"><ele>516.0</ele><time>2026-05-03T07:30:24Z</time></trkpt><trkpt lat="39.85136678631198" lon="9.497104455069136"><ele>516.0</ele><time>2026-05-03T07:30:25Z</time></trkpt><trkpt lat="39.85147626113268" lon="9.496946304718321"><ele>518.6666666666666</ele><time>2026-05-03T07:30:26Z</time></trkpt><trkpt lat="39.8515878136643" lon="9.496792075444695"><ele>521.3333333333333</ele><time>2026-05-03T07:30:27Z</time></trkpt><trkpt lat="39.85171534156513" lon="9.496645052932262"><ele>524.0</ele><time>2026-05-03T07:30:28Z</time></trkpt><trkpt lat="39.85182859095871" lon="9.4965136002058"><ele>524.0</ele><time>2026-05-03T07:30:29Z</time></trkpt><trkpt lat="39.85194429336368" lon="9.496393931984217"><ele>524.0</ele><time>2026-05-03T07:30:30Z</time></trkpt><trkpt lat="39.85201499869479" lon="9.496237094771693"><ele>524.0</ele><time>2026-05-03T07:30:31Z</time></trkpt><trkpt lat="39.85210570274387" lon="9.49612146278278"><ele>524.0</ele><time>2026-05-03T07:30:32Z</time></trkpt><trkpt lat="39.85221016176941" lon="9.496041713426212"><ele>519.5</ele><time>2026-05-03T07:30:33Z</time></trkpt><trkpt lat="39.85228499647676" lon="9.495915767101708"><ele>515.0</ele><time>2026-05-03T07:30:34Z</time></trkpt><trkpt lat="39.85231274342064" lon="9.495733425449567"><ele>510.5</ele><time>2026-05-03T07:30:35Z</time></trkpt><trkpt lat="39.852329542533944" lon="9.49556010126969"><ele>506.0</ele><time>2026-05-03T07:30:36Z</time></trkpt><trkpt lat="39.85233435646307" lon="9.495400187791237"><ele>507.25</ele><time>2026-05-03T07:30:37Z</time></trkpt><trkpt lat="39.85239051234855" lon="9.495233847312454"><ele>508.5</ele><time>2026-05-03T07:30:38Z</time></trkpt><trkpt lat="39.85245878708564" lon="9.495102568357744"><ele>509.75</ele><time>2026-05-03T07:30:39Z</time></trkpt><trkpt lat="39.85254208184259" lon="9.494987661548734"><ele>511.0</ele><time>2026-05-03T07:30:39.999Z</time></trkpt><trkpt lat="39.85264334171737" lon="9.494857780212168"><ele>511.0</ele><time>2026-05-03T07:30:40.999Z</time></trkpt><trkpt lat="39.85275942031171" lon="9.49477111818748"><ele>511.0</ele><time>2026-05-03T07:30:41.999Z</time></trkpt><trkpt lat="39.8528876650471" lon="9.494704825992287"><ele>511.0</ele><time>2026-05-03T07:30:42.999Z</time></trkpt><trkpt lat="39.853023787014884" lon="9.494640672882324"><ele>511.0</ele><time>2026-05-03T07:30:44Z</time></trkpt><trkpt lat="39.85313387255887" lon="9.494557321149715"><ele>512.25</ele><time>2026-05-03T07:30:45Z</time></trkpt><trkpt lat="39.85324569664818" lon="9.494476850580508"><ele>513.5</ele><time>2026-05-03T07:30:46Z</time></trkpt><trkpt lat="39.853334625135275" lon="9.494344311326278"><ele>514.75</ele><time>2026-05-03T07:30:47Z</time></trkpt><trkpt lat="39.853403334450505" lon="9.494168513066676"><ele>516.0</ele><time>2026-05-03T07:30:48Z</time></trkpt><trkpt lat="39.8534932178378" lon="9.49399582022051"><ele>516.0</ele><time>2026-05-03T07:30:49Z</time></trkpt><trkpt lat="39.853576144374266" lon="9.493825144069696"><ele>516.0</ele><time>2026-05-03T07:30:50Z</time></trkpt><trkpt lat="39.853651143010175" lon="9.493658445810011"><ele>516.0</ele><time>2026-05-03T07:30:51Z</time></trkpt><trkpt lat="39.85371246197035" lon="9.493495043365415"><ele>516.0</ele><time>2026-05-03T07:30:52Z</time></trkpt><trkpt lat="39.85377294522901" lon="9.49334209906321"><ele>510.0</ele><time>2026-05-03T07:30:53Z</time></trkpt><trkpt lat="39.853841672283444" lon="9.49320351578696"><ele>504.0</ele><time>2026-05-03T07:30:54Z</time></trkpt><trkpt lat="39.853923236299586" lon="9.493087156003163"><ele>498.0</ele><time>2026-05-03T07:30:55Z</time></trkpt><trkpt lat="39.85404371122547" lon="9.492992106979758"><ele>492.0</ele><time>2026-05-03T07:30:56Z</time></trkpt><trkpt lat="39.85417540389396" lon="9.49290359475197"><ele>493.66666666666663</ele><time>2026-05-03T07:30:57Z</time></trkpt><trkpt lat="39.854309636562824" lon="9.492793797128977"><ele>495.3333333333333</ele><time>2026-05-03T07:30:58Z</time></trkpt><trkpt lat="39.854444060914894" lon="9.492659489318132"><ele>497.0</ele><time>2026-05-03T07:30:59Z</time></trkpt><trkpt lat="39.8545397964928" lon="9.492461053637435"><ele>497.0</ele><time>2026-05-03T07:31:00Z</time></trkpt><trkpt lat="39.854649766982966" lon="9.492275407862728"><ele>497.0</ele><time>2026-05-03T07:31:01Z</time></trkpt><trkpt lat="39.8547393792176" lon="9.492093159794624"><ele>497.0</ele><time>2026-05-03T07:31:02Z</time></trkpt><trkpt lat="39.85481100170562" lon="9.49191471768834"><ele>501.0</ele><time>2026-05-03T07:31:03Z</time></trkpt><trkpt lat="39.85490742269648" lon="9.491765133972835"><ele>505.0</ele><time>2026-05-03T07:31:04Z</time></trkpt><trkpt lat="39.8550205668965" lon="9.491632221514259"><ele>509.0</ele><time>2026-05-03T07:31:05Z</time></trkpt><trkpt lat="39.85514426419475" lon="9.491510032428968"><ele>509.0</ele><time>2026-05-03T07:31:06Z</time></trkpt><trkpt lat="39.85524964365998" lon="9.491372357660802"><ele>509.0</ele><time>2026-05-03T07:31:07Z</time></trkpt><trkpt lat="39.85534488161954" lon="9.491211627650953"><ele>509.0</ele><time>2026-05-03T07:31:08Z</time></trkpt><trkpt lat="39.85543952066194" lon="9.491033313908643"><ele>501.3333333333333</ele><time>2026-05-03T07:31:09Z</time></trkpt><trkpt lat="39.85554219978618" lon="9.490862819766425"><ele>493.66666666666663</ele><time>2026-05-03T07:31:10Z</time></trkpt><trkpt lat="39.85564334010658" lon="9.490706400614357"><ele>486.0</ele><time>2026-05-03T07:31:11Z</time></trkpt><trkpt lat="39.85574739949781" lon="9.490572303201649"><ele>481.0</ele><time>2026-05-03T07:31:12Z</time></trkpt><trkpt lat="39.85580300504252" lon="9.490408055922407"><ele>476.0</ele><time>2026-05-03T07:31:13Z</time></trkpt><trkpt lat="39.85583645094217" lon="9.490260526356767"><ele>471.0</ele><time>2026-05-03T07:31:14Z</time></trkpt><trkpt lat="39.8558744585983" lon="9.490143383416296"><ele>466.0</ele><time>2026-05-03T07:31:15Z</time></trkpt><trkpt lat="39.85594872122413" lon="9.490051074310536"><ele>471.5</ele><time>2026-05-03T07:31:16Z</time></trkpt><trkpt lat="39.85605645952555" lon="9.489981356957468"><ele>477.0</ele><time>2026-05-03T07:31:17Z</time></trkpt><trkpt lat="39.856194987374245" lon="9.489931156960402"><ele>482.5</ele><time>2026-05-03T07:31:18Z</time></trkpt><trkpt lat="39.856329534785296" lon="9.489899823246537"><ele>488.0</ele><time>2026-05-03T07:31:19Z</time></trkpt><trkpt lat="39.856480145780225" lon="9.489866724023871"><ele>488.0</ele><time>2026-05-03T07:31:20Z</time></trkpt><trkpt lat="39.85661423861553" lon="9.48981917671716"><ele>488.0</ele><time>2026-05-03T07:31:21Z</time></trkpt><trkpt lat="39.85673390823311" lon="9.48974849898973"><ele>488.0</ele><time>2026-05-03T07:31:22Z</time></trkpt><trkpt lat="39.85683239981183" lon="9.48966982065347"><ele>488.0</ele><time>2026-05-03T07:31:23Z</time></trkpt><trkpt lat="39.85691335729478" lon="9.489597994132673"><ele>487.79999999999995</ele><time>2026-05-03T07:31:24Z</time></trkpt><trkpt lat="39.85695316932123" lon="9.489490391871717"><ele>487.59999999999997</ele><time>2026-05-03T07:31:25Z</time></trkpt><trkpt lat="39.85693820857498" lon="9.489361009027249"><ele>487.40000000000003</ele><time>2026-05-03T07:31:26Z</time></trkpt><trkpt lat="39.856912780153344" lon="9.489240517362983"><ele>487.20000000000005</ele><time>2026-05-03T07:31:27Z</time></trkpt><trkpt lat="39.85688243624872" lon="9.489110484772374"><ele>487.0</ele><time>2026-05-03T07:31:28Z</time></trkpt><trkpt lat="39.85682230563557" lon="9.488992531531489"><ele>482.25</ele><time>2026-05-03T07:31:29Z</time></trkpt><trkpt lat="39.856717014726726" lon="9.488914501292658"><ele>477.5</ele><time>2026-05-03T07:31:30Z</time></trkpt><trkpt lat="39.856582212263596" lon="9.48890675190015"><ele>472.75</ele><time>2026-05-03T07:31:31Z</time></trkpt><trkpt lat="39.85645371677061" lon="9.488872109328929"><ele>468.0</ele><time>2026-05-03T07:31:32Z</time></trkpt><trkpt lat="39.85630622429009" lon="9.488837113727126"><ele>468.0</ele><time>2026-05-03T07:31:33Z</time></trkpt><trkpt lat="39.85614666153492" lon="9.488804134815512"><ele>468.0</ele><time>2026-05-03T07:31:34Z</time></trkpt><trkpt lat="39.855976243172066" lon="9.488773400742575"><ele>468.0</ele><time>2026-05-03T07:31:35Z</time></trkpt><trkpt lat="39.85579593415978" lon="9.488756689635778"><ele>466.33333333333337</ele><time>2026-05-03T07:31:36Z</time></trkpt><trkpt lat="39.85561818945727" lon="9.488750450493654"><ele>464.6666666666667</ele><time>2026-05-03T07:31:37Z</time></trkpt><trkpt lat="39.85545432836393" lon="9.488776055539446"><ele>463.0</ele><time>2026-05-03T07:31:38Z</time></trkpt><trkpt lat="39.85528838312876" lon="9.488834125832659"><ele>463.0</ele><time>2026-05-03T07:31:39Z</time></trkpt><trkpt lat="39.85512735771187" lon="9.48891882744575"><ele>463.0</ele><time>2026-05-03T07:31:40Z</time></trkpt><trkpt lat="39.854952010541126" lon="9.488984234033868"><ele>463.0</ele><time>2026-05-03T07:31:41Z</time></trkpt><trkpt lat="39.85480443583393" lon="9.48907963257707"><ele>467.0</ele><time>2026-05-03T07:31:42Z</time></trkpt><trkpt lat="39.854646299664516" lon="9.489129200067943"><ele>471.0</ele><time>2026-05-03T07:31:43Z</time></trkpt><trkpt lat="39.85448092758516" lon="9.48915235665372"><ele>475.0</ele><time>2026-05-03T07:31:44Z</time></trkpt><trkpt lat="39.85429052173525" lon="9.489196126879408"><ele>479.6666666666667</ele><time>2026-05-03T07:31:45Z</time></trkpt><trkpt lat="39.854117964623974" lon="9.489217835855394"><ele>484.33333333333337</ele><time>2026-05-03T07:31:46Z</time></trkpt><trkpt lat="39.853956128971966" lon="9.48930234208241"><ele>489.0</ele><time>2026-05-03T07:31:47Z</time></trkpt><trkpt lat="39.8537842558867" lon="9.489371615649798"><ele>489.0</ele><time>2026-05-03T07:31:48Z</time></trkpt><trkpt lat="39.85360865632505" lon="9.489437462256998"><ele>489.0</ele><time>2026-05-03T07:31:49Z</time></trkpt><trkpt lat="39.85343735522249" lon="9.489465072527024"><ele>489.0</ele><time>2026-05-03T07:31:50Z</time></trkpt><trkpt lat="39.853275118335105" lon="9.489536845902041"><ele>485.5</ele><time>2026-05-03T07:31:51Z</time></trkpt><trkpt lat="39.85313373461642" lon="9.489597817045826"><ele>482.0</ele><time>2026-05-03T07:31:52Z</time></trkpt><trkpt lat="39.852995269903985" lon="9.489652087227539"><ele>478.5</ele><time>2026-05-03T07:31:53Z</time></trkpt><trkpt lat="39.852872016904634" lon="9.489748237407696"><ele>475.0</ele><time>2026-05-03T07:31:54Z</time></trkpt><trkpt lat="39.85274977301988" lon="9.48981493843283"><ele>475.0</ele><time>2026-05-03T07:31:55Z</time></trkpt><trkpt lat="39.8526331982069" lon="9.489862972251586"><ele>475.0</ele><time>2026-05-03T07:31:56Z</time></trkpt><trkpt lat="39.85250923448553" lon="9.48988941832628"><ele>475.0</ele><time>2026-05-03T07:31:57Z</time></trkpt><trkpt lat="39.85237379026389" lon="9.489892141025484"><ele>475.0</ele><time>2026-05-03T07:31:58Z</time></trkpt><trkpt lat="39.85222812523395" lon="9.489873774365485"><ele>479.5</ele><time>2026-05-03T07:31:59Z</time></trkpt><trkpt lat="39.8520836270122" lon="9.489845676077714"><ele>484.0</ele><time>2026-05-03T07:32:00Z</time></trkpt><trkpt lat="39.85194603798684" lon="9.48982438534142"><ele>488.5</ele><time>2026-05-03T07:32:01Z</time></trkpt><trkpt lat="39.85182839097326" lon="9.489798377266434"><ele>493.0</ele><time>2026-05-03T07:32:02Z</time></trkpt><trkpt lat="39.85172027552044" lon="9.489774968459772"><ele>493.00000000000006</ele><time>2026-05-03T07:32:03Z</time></trkpt><trkpt lat="39.85163467701549" lon="9.48971956501588"><ele>493.0</ele><time>2026-05-03T07:32:04Z</time></trkpt><trkpt lat="39.85158060797437" lon="9.48963675805872"><ele>493.0</ele><time>2026-05-03T07:32:05Z</time></trkpt><trkpt lat="39.851546953791456" lon="9.489554212672456"><ele>493.0</ele><time>2026-05-03T07:32:06Z</time></trkpt><trkpt lat="39.851536895586044" lon="9.489455126822467"><ele>493.00000000000006</ele><time>2026-05-03T07:32:07Z</time></trkpt><trkpt lat="39.85153801974428" lon="9.489340803462737"><ele>493.0</ele><time>2026-05-03T07:32:08Z</time></trkpt><trkpt lat="39.85153863094469" lon="9.489222270739065"><ele>496.50000000000006</ele><time>2026-05-03T07:32:09Z</time></trkpt><trkpt lat="39.85151546933929" lon="9.489127385229974"><ele>500.0</ele><time>2026-05-03T07:32:10Z</time></trkpt><trkpt lat="39.85147998214947" lon="9.489059094121654"><ele>503.5</ele><time>2026-05-03T07:32:11Z</time></trkpt><trkpt lat="39.85143394682055" lon="9.488996275264828"><ele>507.0</ele><time>2026-05-03T07:32:12Z</time></trkpt><trkpt lat="39.851336172032795" lon="9.489022232518483"><ele>510.50000000000006</ele><time>2026-05-03T07:32:13Z</time></trkpt><trkpt lat="39.85124377540845" lon="9.48906260806427"><ele>514.0</ele><time>2026-05-03T07:32:14Z</time></trkpt><trkpt lat="39.85113937391031" lon="9.489099952341125"><ele>514.0</ele><time>2026-05-03T07:32:15Z</time></trkpt><trkpt lat="39.85102665100843" lon="9.489116286142403"><ele>514.0</ele><time>2026-05-03T07:32:16Z</time></trkpt><trkpt lat="39.850911490717955" lon="9.489112451401326"><ele>514.0</ele><time>2026-05-03T07:32:17Z</time></trkpt><trkpt lat="39.85080959409423" lon="9.489092880606325"><ele>514.0</ele><time>2026-05-03T07:32:18Z</time></trkpt><trkpt lat="39.850712902380515" lon="9.489067444327546"><ele>514.0</ele><time>2026-05-03T07:32:18.999Z</time></trkpt><trkpt lat="39.85061981698548" lon="9.48903575858948"><ele>513.8333333333334</ele><time>2026-05-03T07:32:19.999Z</time></trkpt><trkpt lat="39.85055073577495" lon="9.489000191476949"><ele>513.6666666666667</ele><time>2026-05-03T07:32:20.999Z</time></trkpt><trkpt lat="39.85048179891797" lon="9.488913993907918"><ele>513.5</ele><time>2026-05-03T07:32:22.999Z</time></trkpt><trkpt lat="39.85052990215901" lon="9.488808476151481"><ele>513.3333333333334</ele><time>2026-05-03T07:32:24.999Z</time></trkpt><trkpt lat="39.850622576278795" lon="9.488866769959678"><ele>513.1666666666666</ele><time>2026-05-03T07:32:26.999Z</time></trkpt><trkpt lat="39.85069366585701" lon="9.488896933708073"><ele>513.0</ele><time>2026-05-03T07:32:27.999Z</time></trkpt><trkpt lat="39.85076927731981" lon="9.48893279004732"><ele>513.0</ele><time>2026-05-03T07:32:28.999Z</time></trkpt><trkpt lat="39.850852422638766" lon="9.488929017780436"><ele>513.0</ele><time>2026-05-03T07:32:29.999Z</time></trkpt><trkpt lat="39.85093977572119" lon="9.488881085229952"><ele>513.0</ele><time>2026-05-03T07:32:30.999Z</time></trkpt><trkpt lat="39.85102263918601" lon="9.488813497027108"><ele>513.0</ele><time>2026-05-03T07:32:31.999Z</time></trkpt><trkpt lat="39.851097426181845" lon="9.488726457744987"><ele>513.0</ele><time>2026-05-03T07:32:32.999Z</time></trkpt><trkpt lat="39.85117008565667" lon="9.488623085929673"><ele>517.0</ele><time>2026-05-03T07:32:33.999Z</time></trkpt><trkpt lat="39.85123864831307" lon="9.488503604138247"><ele>521.0</ele><time>2026-05-03T07:32:34.999Z</time></trkpt><trkpt lat="39.851310631292996" lon="9.488391048749437"><ele>525.0</ele><time>2026-05-03T07:32:35.999Z</time></trkpt><trkpt lat="39.851402835463205" lon="9.48830109503035"><ele>529.0</ele><time>2026-05-03T07:32:36.999Z</time></trkpt><trkpt lat="39.85151017524713" lon="9.488235515018879"><ele>529.0</ele><time>2026-05-03T07:32:37.999Z</time></trkpt><trkpt lat="39.851631654883796" lon="9.488177693614379"><ele>529.0</ele><time>2026-05-03T07:32:38.999Z</time></trkpt><trkpt lat="39.851743783297906" lon="9.488134633050676"><ele>529.0</ele><time>2026-05-03T07:32:39.999Z</time></trkpt><trkpt lat="39.8518581026715" lon="9.488113601559474"><ele>529.0</ele><time>2026-05-03T07:32:40.999Z</time></trkpt><trkpt lat="39.85196905298109" lon="9.488120410801713"><ele>529.4</ele><time>2026-05-03T07:32:41.999Z</time></trkpt><trkpt lat="39.85207805118951" lon="9.48816497569658"><ele>529.8</ele><time>2026-05-03T07:32:42.999Z</time></trkpt><trkpt lat="39.85218608037467" lon="9.488234657131958"><ele>530.2</ele><time>2026-05-03T07:32:43.999Z</time></trkpt><trkpt lat="39.852290681939984" lon="9.488295964284779"><ele>530.6</ele><time>2026-05-03T07:32:44.999Z</time></trkpt><trkpt lat="39.85238524184642" lon="9.488335606197484"><ele>531.0</ele><time>2026-05-03T07:32:45.999Z</time></trkpt><trkpt lat="39.85247683208775" lon="9.488339026383466"><ele>531.0</ele><time>2026-05-03T07:32:46.999Z</time></trkpt><trkpt lat="39.85256184061664" lon="9.488291574627379"><ele>531.0</ele><time>2026-05-03T07:32:47.999Z</time></trkpt><trkpt lat="39.85262636647088" lon="9.488194314982215"><ele>531.0</ele><time>2026-05-03T07:32:48.999Z</time></trkpt><trkpt lat="39.85268409928708" lon="9.488059285387838"><ele>531.0</ele><time>2026-05-03T07:32:50Z</time></trkpt><trkpt lat="39.85276357304526" lon="9.487932604942804"><ele>531.0</ele><time>2026-05-03T07:32:51Z</time></trkpt><trkpt lat="39.85286690427502" lon="9.487835725220245"><ele>534.75</ele><time>2026-05-03T07:32:52Z</time></trkpt><trkpt lat="39.85299110126152" lon="9.487770742060958"><ele>538.5</ele><time>2026-05-03T07:32:53Z</time></trkpt><trkpt lat="39.85311633304634" lon="9.487727186373501"><ele>542.25</ele><time>2026-05-03T07:32:54Z</time></trkpt><trkpt lat="39.85324309682908" lon="9.487686404575433"><ele>546.0</ele><time>2026-05-03T07:32:55Z</time></trkpt><trkpt lat="39.853371054754376" lon="9.487646809796985"><ele>544.25</ele><time>2026-05-03T07:32:56Z</time></trkpt><trkpt lat="39.85349256861602" lon="9.487605453262612"><ele>542.5</ele><time>2026-05-03T07:32:57Z</time></trkpt><trkpt lat="39.85361505773546" lon="9.487570058224787"><ele>540.75</ele><time>2026-05-03T07:32:58Z</time></trkpt><trkpt lat="39.85372774730209" lon="9.487540312711548"><ele>539.0</ele><time>2026-05-03T07:32:59Z</time></trkpt><trkpt lat="39.85382316101748" lon="9.487499768296836"><ele>539.0</ele><time>2026-05-03T07:33:00Z</time></trkpt><trkpt lat="39.853918744106714" lon="9.487429265718372"><ele>539.0</ele><time>2026-05-03T07:33:01Z</time></trkpt><trkpt lat="39.85400359292396" lon="9.487324594385287"><ele>539.0</ele><time>2026-05-03T07:33:02Z</time></trkpt><trkpt lat="39.85407296826479" lon="9.48720688146051"><ele>539.0</ele><time>2026-05-03T07:33:03Z</time></trkpt><trkpt lat="39.85414268518263" lon="9.48707141481431"><ele>541.25</ele><time>2026-05-03T07:33:04Z</time></trkpt><trkpt lat="39.854213450505426" lon="9.48694211524375"><ele>543.5</ele><time>2026-05-03T07:33:05Z</time></trkpt><trkpt lat="39.85428137902769" lon="9.486813043927954"><ele>545.75</ele><time>2026-05-03T07:33:06Z</time></trkpt><trkpt lat="39.8543526525362" lon="9.486680765766161"><ele>548.0</ele><time>2026-05-03T07:33:07Z</time></trkpt><trkpt lat="39.854426016886315" lon="9.486544975297276"><ele>548.0</ele><time>2026-05-03T07:33:08Z</time></trkpt><trkpt lat="39.8545027383651" lon="9.486423434797675"><ele>548.0</ele><time>2026-05-03T07:33:09Z</time></trkpt><trkpt lat="39.85458002450596" lon="9.486336527792064"><ele>548.0</ele><time>2026-05-03T07:33:10Z</time></trkpt><trkpt lat="39.854664821047805" lon="9.486295969462489"><ele>548.0</ele><time>2026-05-03T07:33:11Z</time></trkpt><trkpt lat="39.85475381387386" lon="9.486303742049488"><ele>548.0</ele><time>2026-05-03T07:33:12Z</time></trkpt><trkpt lat="39.85484717963749" lon="9.486359086785379"><ele>548.0</ele><time>2026-05-03T07:33:13Z</time></trkpt><trkpt lat="39.85495434685134" lon="9.486368394229753"><ele>548.0</ele><time>2026-05-03T07:33:14Z</time></trkpt><trkpt lat="39.85505671296776" lon="9.486343737817041"><ele>548.0</ele><time>2026-05-03T07:33:15Z</time></trkpt><trkpt lat="39.85514858673905" lon="9.486276078097902"><ele>548.0</ele><time>2026-05-03T07:33:16Z</time></trkpt><trkpt lat="39.855231207271274" lon="9.486163470218198"><ele>548.0</ele><time>2026-05-03T07:33:17Z</time></trkpt><trkpt lat="39.85533163286238" lon="9.486027667662109"><ele>553.0</ele><time>2026-05-03T07:33:18Z</time></trkpt><trkpt lat="39.85544105864486" lon="9.485923012307758"><ele>558.0</ele><time>2026-05-03T07:33:19Z</time></trkpt><trkpt lat="39.8555659748046" lon="9.485821894618994"><ele>563.0</ele><time>2026-05-03T07:33:20Z</time></trkpt><trkpt lat="39.85570529272799" lon="9.485699656538069"><ele>563.0</ele><time>2026-05-03T07:33:21Z</time></trkpt><trkpt lat="39.855840222736795" lon="9.485596510867577"><ele>563.0</ele><time>2026-05-03T07:33:22Z</time></trkpt><trkpt lat="39.85596472351223" lon="9.4855322432496"><ele>563.0</ele><time>2026-05-03T07:33:23Z</time></trkpt><trkpt lat="39.85607550542106" lon="9.485456514334821"><ele>563.0</ele><time>2026-05-03T07:33:24Z</time></trkpt><trkpt lat="39.85618053988793" lon="9.485339723779312"><ele>566.6666666666666</ele><time>2026-05-03T07:33:25Z</time></trkpt><trkpt lat="39.856308575374904" lon="9.485166399284237"><ele>570.3333333333334</ele><time>2026-05-03T07:33:26Z</time></trkpt><trkpt lat="39.85643274214622" lon="9.485003041704925"><ele>574.0</ele><time>2026-05-03T07:33:27Z</time></trkpt><trkpt lat="39.856565227407614" lon="9.484848857333434"><ele>574.0</ele><time>2026-05-03T07:33:28Z</time></trkpt><trkpt lat="39.856697028038816" lon="9.484693495982262"><ele>574.0</ele><time>2026-05-03T07:33:29Z</time></trkpt><trkpt lat="39.85681710059792" lon="9.484560652184078"><ele>574.0</ele><time>2026-05-03T07:33:30Z</time></trkpt><trkpt lat="39.85694059872164" lon="9.48446222186496"><ele>576.75</ele><time>2026-05-03T07:33:31Z</time></trkpt><trkpt lat="39.8570691967667" lon="9.484404069333099"><ele>579.5</ele><time>2026-05-03T07:33:32Z</time></trkpt><trkpt lat="39.85718809305253" lon="9.484345870770985"><ele>582.25</ele><time>2026-05-03T07:33:33Z</time></trkpt><trkpt lat="39.857295545085556" lon="9.484265223405632"><ele>585.0</ele><time>2026-05-03T07:33:34Z</time></trkpt><trkpt lat="39.85736893560727" lon="9.484199311902783"><ele>585.0</ele><time>2026-05-03T07:33:35Z</time></trkpt><trkpt lat="39.857418686277676" lon="9.484138143469355"><ele>585.0</ele><time>2026-05-03T07:33:36Z</time></trkpt><trkpt lat="39.857440337617355" lon="9.484060911390626"><ele>585.0</ele><time>2026-05-03T07:33:37Z</time></trkpt><trkpt lat="39.85745236987903" lon="9.483957970790016"><ele>585.0</ele><time>2026-05-03T07:33:38Z</time></trkpt><trkpt lat="39.85737410065152" lon="9.483877659479992"><ele>585.0</ele><time>2026-05-03T07:33:39Z</time></trkpt><trkpt lat="39.8572803505577" lon="9.48391926690413"><ele>585.0</ele><time>2026-05-03T07:33:40Z</time></trkpt><trkpt lat="39.857227279135614" lon="9.484015590240652"><ele>585.0</ele><time>2026-05-03T07:33:41Z</time></trkpt><trkpt lat="39.85715040622392" lon="9.484107823565747"><ele>585.0</ele><time>2026-05-03T07:33:42Z</time></trkpt><trkpt lat="39.85705181066981" lon="9.484137505484998"><ele>585.0</ele><time>2026-05-03T07:33:43Z</time></trkpt><trkpt lat="39.85695322240105" lon="9.4841137730063"><ele>585.0</ele><time>2026-05-03T07:33:44Z</time></trkpt><trkpt lat="39.856847255568766" lon="9.484101276973641"><ele>585.0</ele><time>2026-05-03T07:33:45Z</time></trkpt><trkpt lat="39.85674379717784" lon="9.484128222861042"><ele>588.25</ele><time>2026-05-03T07:33:46Z</time></trkpt><trkpt lat="39.85666346852813" lon="9.484234793634752"><ele>591.5</ele><time>2026-05-03T07:33:47Z</time></trkpt><trkpt lat="39.85657687954917" lon="9.484335836403766"><ele>594.75</ele><time>2026-05-03T07:33:48Z</time></trkpt><trkpt lat="39.85647794142815" lon="9.484412635618856"><ele>598.0</ele><time>2026-05-03T07:33:49Z</time></trkpt><trkpt lat="39.85635780962963" lon="9.48445105461336"><ele>598.0</ele><time>2026-05-03T07:33:50Z</time></trkpt><trkpt lat="39.85622107376411" lon="9.484461257684613"><ele>598.0</ele><time>2026-05-03T07:33:51Z</time></trkpt><trkpt lat="39.85609734114295" lon="9.48446038371091"><ele>598.0</ele><time>2026-05-03T07:33:52Z</time></trkpt><trkpt lat="39.855991415847996" lon="9.484452480830408"><ele>598.0</ele><time>2026-05-03T07:33:53Z</time></trkpt><trkpt lat="39.85589283729479" lon="9.484421510436507"><ele>600.25</ele><time>2026-05-03T07:33:54Z</time></trkpt><trkpt lat="39.85579678095522" lon="9.484340479845345"><ele>602.5</ele><time>2026-05-03T07:33:55Z</time></trkpt><trkpt lat="39.85568674629493" lon="9.484253587071013"><ele>604.75</ele><time>2026-05-03T07:33:56Z</time></trkpt><trkpt lat="39.85559459121559" lon="9.484185582083622"><ele>607.0</ele><time>2026-05-03T07:33:57Z</time></trkpt><trkpt lat="39.8554912798434" lon="9.484163877049127"><ele>607.0</ele><time>2026-05-03T07:33:58Z</time></trkpt><trkpt lat="39.855398351231145" lon="9.484206430822724"><ele>607.0</ele><time>2026-05-03T07:33:59Z</time></trkpt><trkpt lat="39.85533030618385" lon="9.484321358889456"><ele>607.0</ele><time>2026-05-03T07:34:00Z</time></trkpt><trkpt lat="39.85524838852922" lon="9.484386960478098"><ele>607.0</ele><time>2026-05-03T07:34:01Z</time></trkpt><trkpt lat="39.85515790880892" lon="9.48440160407933"><ele>607.0</ele><time>2026-05-03T07:34:02Z</time></trkpt><trkpt lat="39.85506041308437" lon="9.48438333237944"><ele>607.5</ele><time>2026-05-03T07:34:03Z</time></trkpt><trkpt lat="39.85495614363407" lon="9.484331208166843"><ele>608.0</ele><time>2026-05-03T07:34:04Z</time></trkpt><trkpt lat="39.85483755431912" lon="9.484280565916889"><ele>608.5</ele><time>2026-05-03T07:34:05Z</time></trkpt><trkpt lat="39.85470251069512" lon="9.484218947167268"><ele>609.0</ele><time>2026-05-03T07:34:06Z</time></trkpt><trkpt lat="39.85454550158658" lon="9.484223359392072"><ele>609.0</ele><time>2026-05-03T07:34:07Z</time></trkpt><trkpt lat="39.854384658645024" lon="9.484254809864838"><ele>609.0</ele><time>2026-05-03T07:34:08Z</time></trkpt><trkpt lat="39.85423293656817" lon="9.484250216703757"><ele>609.0</ele><time>2026-05-03T07:34:08.999Z</time></trkpt><trkpt lat="39.85408338947001" lon="9.484312619077995"><ele>612.0</ele><time>2026-05-03T07:34:09.999Z</time></trkpt><trkpt lat="39.85393619948872" lon="9.484408841232412"><ele>615.0</ele><time>2026-05-03T07:34:10.999Z</time></trkpt><trkpt lat="39.853806020793584" lon="9.484496575249805"><ele>618.0</ele><time>2026-05-03T07:34:11.999Z</time></trkpt><trkpt lat="39.85369851067759" lon="9.484588296314833"><ele>621.0</ele><time>2026-05-03T07:34:12.999Z</time></trkpt><trkpt lat="39.85356613795554" lon="9.484628630684018"><ele>617.3333333333334</ele><time>2026-05-03T07:34:13.999Z</time></trkpt><trkpt lat="39.853419850399405" lon="9.484623574387909"><ele>613.6666666666667</ele><time>2026-05-03T07:34:14.999Z</time></trkpt><trkpt lat="39.85326439854148" lon="9.484621377808983"><ele>610.0</ele><time>2026-05-03T07:34:15.999Z</time></trkpt><trkpt lat="39.853125446313044" lon="9.484687027601483"><ele>610.0</ele><time>2026-05-03T07:34:16.999Z</time></trkpt><trkpt lat="39.85298576323795" lon="9.484789523367029"><ele>610.0</ele><time>2026-05-03T07:34:17.999Z</time></trkpt><trkpt lat="39.85285222166081" lon="9.484911148652373"><ele>610.0</ele><time>2026-05-03T07:34:18.999Z</time></trkpt><trkpt lat="39.8527012062753" lon="9.484994416391237"><ele>614.5</ele><time>2026-05-03T07:34:19.999Z</time></trkpt><trkpt lat="39.85254596512186" lon="9.485057790750059"><ele>619.0</ele><time>2026-05-03T07:34:20.999Z</time></trkpt><trkpt lat="39.85240958592786" lon="9.485110683654275"><ele>623.5</ele><time>2026-05-03T07:34:21.999Z</time></trkpt><trkpt lat="39.85228223256352" lon="9.485149319023135"><ele>628.0</ele><time>2026-05-03T07:34:22.999Z</time></trkpt><trkpt lat="39.85215052862084" lon="9.485144629697281"><ele>628.0</ele><time>2026-05-03T07:34:23.999Z</time></trkpt><trkpt lat="39.85200713748575" lon="9.485118518304377"><ele>628.0</ele><time>2026-05-03T07:34:24.999Z</time></trkpt><trkpt lat="39.85185813815524" lon="9.485070799017548"><ele>628.0</ele><time>2026-05-03T07:34:25.999Z</time></trkpt><trkpt lat="39.851709808140704" lon="9.485021729841366"><ele>629.1999999999999</ele><time>2026-05-03T07:34:26.999Z</time></trkpt><trkpt lat="39.851581666019875" lon="9.484978178825365"><ele>630.4</ele><time>2026-05-03T07:34:27.999Z</time></trkpt><trkpt lat="39.851471480511854" lon="9.484928737833059"><ele>631.5999999999999</ele><time>2026-05-03T07:34:28.999Z</time></trkpt><trkpt lat="39.85139015210953" lon="9.484863317754726"><ele>632.8</ele><time>2026-05-03T07:34:29.999Z</time></trkpt><trkpt lat="39.85134336192787" lon="9.484776525207794"><ele>634.0</ele><time>2026-05-03T07:34:30.999Z</time></trkpt><trkpt lat="39.85132553061195" lon="9.484659530075096"><ele>637.4</ele><time>2026-05-03T07:34:31.999Z</time></trkpt><trkpt lat="39.85132475943557" lon="9.484537971254442"><ele>640.8</ele><time>2026-05-03T07:34:32.999Z</time></trkpt><trkpt lat="39.85127143215112" lon="9.484442731947185"><ele>644.1999999999999</ele><time>2026-05-03T07:34:33.999Z</time></trkpt><trkpt lat="39.85117140843396" lon="9.484400646131547"><ele>647.5999999999999</ele><time>2026-05-03T07:34:34.999Z</time></trkpt><trkpt lat="39.851066758147724" lon="9.484361808045133"><ele>651.0</ele><time>2026-05-03T07:34:35.999Z</time></trkpt><trkpt lat="39.85095006761158" lon="9.484313620868992"><ele>651.0</ele><time>2026-05-03T07:34:36.999Z</time></trkpt><trkpt lat="39.85083589961607" lon="9.484281302668299"><ele>651.0</ele><time>2026-05-03T07:34:37.999Z</time></trkpt><trkpt lat="39.8507442761944" lon="9.48422328188744"><ele>651.0</ele><time>2026-05-03T07:34:38.999Z</time></trkpt><trkpt lat="39.850629223726045" lon="9.484223081530633"><ele>651.0</ele><time>2026-05-03T07:34:39.999Z</time></trkpt><trkpt lat="39.850534206195725" lon="9.484334809986759"><ele>651.0</ele><time>2026-05-03T07:34:40.999Z</time></trkpt><trkpt lat="39.85047546300211" lon="9.484448965942718"><ele>651.0</ele><time>2026-05-03T07:34:41.999Z</time></trkpt><trkpt lat="39.850402018247365" lon="9.484536335735438"><ele>651.0</ele><time>2026-05-03T07:34:43.999Z</time></trkpt><trkpt lat="39.850336839792355" lon="9.484435617908481"><ele>651.0</ele><time>2026-05-03T07:34:45.999Z</time></trkpt><trkpt lat="39.850424655765714" lon="9.484312345375892"><ele>651.0</ele><time>2026-05-03T07:34:47.999Z</time></trkpt><trkpt lat="39.85049424594611" lon="9.484225916867357"><ele>651.0</ele><time>2026-05-03T07:34:48.999Z</time></trkpt><trkpt lat="39.85057734554324" lon="9.484131717857283"><ele>651.0</ele><time>2026-05-03T07:34:49.999Z</time></trkpt><trkpt lat="39.85069185618139" lon="9.484095239767491"><ele>651.0</ele><time>2026-05-03T07:34:50.999Z</time></trkpt><trkpt lat="39.850819804045265" lon="9.484098092937225"><ele>651.0</ele><time>2026-05-03T07:34:51.999Z</time></trkpt><trkpt lat="39.850964802786514" lon="9.484102568485241"><ele>653.0</ele><time>2026-05-03T07:34:52.999Z</time></trkpt><trkpt lat="39.85112942121939" lon="9.484087308611175"><ele>655.0</ele><time>2026-05-03T07:34:53.999Z</time></trkpt><trkpt lat="39.851281806720316" lon="9.484077535098459"><ele>657.0</ele><time>2026-05-03T07:34:54.999Z</time></trkpt><trkpt lat="39.851415217169105" lon="9.484120121077884"><ele>657.0</ele><time>2026-05-03T07:34:55.999Z</time></trkpt><trkpt lat="39.85154577060037" lon="9.48418032289521"><ele>657.0</ele><time>2026-05-03T07:34:56.999Z</time></trkpt><trkpt lat="39.85168497267354" lon="9.484217050873994"><ele>657.0</ele><time>2026-05-03T07:34:57.999Z</time></trkpt><trkpt lat="39.851840290206084" lon="9.484215893641386"><ele>657.0</ele><time>2026-05-03T07:34:58.999Z</time></trkpt><trkpt lat="39.85200042065745" lon="9.48418859337006"><ele>656.3333333333334</ele><time>2026-05-03T07:34:59.999Z</time></trkpt><trkpt lat="39.852148444511464" lon="9.484152897279998"><ele>655.6666666666667</ele><time>2026-05-03T07:35:00.999Z</time></trkpt><trkpt lat="39.85229755093498" lon="9.48411158811602"><ele>655.0</ele><time>2026-05-03T07:35:01.999Z</time></trkpt><trkpt lat="39.85244653508443" lon="9.484073119206185"><ele>655.0</ele><time>2026-05-03T07:35:02.999Z</time></trkpt><trkpt lat="39.852595735109155" lon="9.484038216379723"><ele>655.0</ele><time>2026-05-03T07:35:03.999Z</time></trkpt><trkpt lat="39.852726499642266" lon="9.484003562889672"><ele>655.0</ele><time>2026-05-03T07:35:04.999Z</time></trkpt><trkpt lat="39.85285102341515" lon="9.483943566015403"><ele>655.0</ele><time>2026-05-03T07:35:05.999Z</time></trkpt><trkpt lat="39.852964643645265" lon="9.483863117528397"><ele>658.5</ele><time>2026-05-03T07:35:06.999Z</time></trkpt><trkpt lat="39.85305570511292" lon="9.483741757492997"><ele>662.0</ele><time>2026-05-03T07:35:07.999Z</time></trkpt><trkpt lat="39.85313293198586" lon="9.483594667231145"><ele>665.5</ele><time>2026-05-03T07:35:08.999Z</time></trkpt><trkpt lat="39.85320983686437" lon="9.483450744905081"><ele>669.0</ele><time>2026-05-03T07:35:09.999Z</time></trkpt><trkpt lat="39.85330591161081" lon="9.48334651011965"><ele>669.0</ele><time>2026-05-03T07:35:10.999Z</time></trkpt><trkpt lat="39.85342527130285" lon="9.483263459727116"><ele>669.0</ele><time>2026-05-03T07:35:11.999Z</time></trkpt><trkpt lat="39.85354512447871" lon="9.483161634515392"><ele>669.0</ele><time>2026-05-03T07:35:12.999Z</time></trkpt><trkpt lat="39.85366436959354" lon="9.483033143203093"><ele>669.0</ele><time>2026-05-03T07:35:13.999Z</time></trkpt><trkpt lat="39.853777049226906" lon="9.482907374882876"><ele>669.25</ele><time>2026-05-03T07:35:14.999Z</time></trkpt><trkpt lat="39.8538790123012" lon="9.482811218657057"><ele>669.5</ele><time>2026-05-03T07:35:15.999Z</time></trkpt><trkpt lat="39.85396457381396" lon="9.482709150032965"><ele>669.75</ele><time>2026-05-03T07:35:16.999Z</time></trkpt><trkpt lat="39.85403167636931" lon="9.482574778130788"><ele>670.0</ele><time>2026-05-03T07:35:17.999Z</time></trkpt><trkpt lat="39.85406919972771" lon="9.482420976038728"><ele>670.0</ele><time>2026-05-03T07:35:18.999Z</time></trkpt><trkpt lat="39.85409455523421" lon="9.482286413586303"><ele>670.0</ele><time>2026-05-03T07:35:19.999Z</time></trkpt><trkpt lat="39.85414105713411" lon="9.482156419364618"><ele>670.0</ele><time>2026-05-03T07:35:20.999Z</time></trkpt><trkpt lat="39.85421107728889" lon="9.482034582701758"><ele>670.0</ele><time>2026-05-03T07:35:21.999Z</time></trkpt><trkpt lat="39.85430607309974" lon="9.481942762650132"><ele>673.5</ele><time>2026-05-03T07:35:22.999Z</time></trkpt><trkpt lat="39.85442819740558" lon="9.48188087200126"><ele>677.0</ele><time>2026-05-03T07:35:23.999Z</time></trkpt><trkpt lat="39.85456903504669" lon="9.481817021673978"><ele>680.5</ele><time>2026-05-03T07:35:24.999Z</time></trkpt><trkpt lat="39.85471117202266" lon="9.481754335781757"><ele>684.0</ele><time>2026-05-03T07:35:25.999Z</time></trkpt><trkpt lat="39.85487264096218" lon="9.481710671751761"><ele>684.0</ele><time>2026-05-03T07:35:26.999Z</time></trkpt><trkpt lat="39.855043117652016" lon="9.481696399138457"><ele>684.0</ele><time>2026-05-03T07:35:27.999Z</time></trkpt><trkpt lat="39.85522253653895" lon="9.481700937860273"><ele>684.0</ele><time>2026-05-03T07:35:28.999Z</time></trkpt><trkpt lat="39.85540431279137" lon="9.481701993978703"><ele>683.6666666666666</ele><time>2026-05-03T07:35:29.999Z</time></trkpt><trkpt lat="39.85558215578917" lon="9.481694524072358"><ele>683.3333333333333</ele><time>2026-05-03T07:35:30.999Z</time></trkpt><trkpt lat="39.85575801267372" lon="9.481676131795698"><ele>683.0</ele><time>2026-05-03T07:35:31.999Z</time></trkpt><trkpt lat="39.855921504685206" lon="9.481645652169187"><ele>680.5</ele><time>2026-05-03T07:35:33Z</time></trkpt><trkpt lat="39.8560729526773" lon="9.481603957530972"><ele>678.0</ele><time>2026-05-03T07:35:34Z</time></trkpt><trkpt lat="39.856206024738306" lon="9.48154483029815"><ele>675.5</ele><time>2026-05-03T07:35:35Z</time></trkpt><trkpt lat="39.856329771770945" lon="9.48145173755775"><ele>673.0</ele><time>2026-05-03T07:35:36Z</time></trkpt><trkpt lat="39.85643439450919" lon="9.481322110449407"><ele>681.3333333333334</ele><time>2026-05-03T07:35:37Z</time></trkpt><trkpt lat="39.8565416276692" lon="9.481189355080138"><ele>689.6666666666666</ele><time>2026-05-03T07:35:38Z</time></trkpt><trkpt lat="39.85664943451798" lon="9.481044074799108"><ele>698.0</ele><time>2026-05-03T07:35:39Z</time></trkpt><trkpt lat="39.85674941098638" lon="9.480882006770889"><ele>693.6666666666666</ele><time>2026-05-03T07:35:40Z</time></trkpt><trkpt lat="39.85688912387861" lon="9.480768715507923"><ele>689.3333333333334</ele><time>2026-05-03T07:35:41Z</time></trkpt><trkpt lat="39.8570435231385" lon="9.480693759352476"><ele>685.0</ele><time>2026-05-03T07:35:42Z</time></trkpt><trkpt lat="39.85720770391546" lon="9.480652000738049"><ele>685.0</ele><time>2026-05-03T07:35:43Z</time></trkpt><trkpt lat="39.8573690800965" lon="9.480590697120627"><ele>685.0</ele><time>2026-05-03T07:35:44Z</time></trkpt><trkpt lat="39.85752596218771" lon="9.480511971277569"><ele>685.0</ele><time>2026-05-03T07:35:45Z</time></trkpt><trkpt lat="39.857678862153186" lon="9.480394905328387"><ele>688.0</ele><time>2026-05-03T07:35:46Z</time></trkpt><trkpt lat="39.85782589323614" lon="9.480270953914484"><ele>691.0</ele><time>2026-05-03T07:35:47Z</time></trkpt><trkpt lat="39.857955888275534" lon="9.480159318432234"><ele>694.0</ele><time>2026-05-03T07:35:48Z</time></trkpt><trkpt lat="39.858074077756925" lon="9.480041056001243"><ele>694.0</ele><time>2026-05-03T07:35:49Z</time></trkpt><trkpt lat="39.858173685373515" lon="9.479871888121178"><ele>694.0</ele><time>2026-05-03T07:35:50Z</time></trkpt><trkpt lat="39.858251060372474" lon="9.479664301375458"><ele>694.0</ele><time>2026-05-03T07:35:51Z</time></trkpt><trkpt lat="39.85833870411128" lon="9.479452877829349"><ele>693.6666666666667</ele><time>2026-05-03T07:35:52Z</time></trkpt><trkpt lat="39.858459187756786" lon="9.479252950142886"><ele>693.3333333333334</ele><time>2026-05-03T07:35:52.999Z</time></trkpt><trkpt lat="39.85859851346544" lon="9.479043033530795"><ele>693.0</ele><time>2026-05-03T07:35:53.999Z</time></trkpt><trkpt lat="39.858746367388086" lon="9.478834963882178"><ele>700.0</ele><time>2026-05-03T07:35:54.999Z</time></trkpt><trkpt lat="39.85887278950404" lon="9.478635121556287"><ele>707.0</ele><time>2026-05-03T07:35:55.999Z</time></trkpt><trkpt lat="39.85900106103699" lon="9.47841371198002"><ele>714.0</ele><time>2026-05-03T07:35:56.999Z</time></trkpt><trkpt lat="39.85913025461428" lon="9.478220705534094"><ele>714.0</ele><time>2026-05-03T07:35:57.999Z</time></trkpt><trkpt lat="39.85922768370749" lon="9.47801764077628"><ele>714.0</ele><time>2026-05-03T07:35:58.999Z</time></trkpt><trkpt lat="39.859331053910665" lon="9.477862469551628"><ele>714.0</ele><time>2026-05-03T07:35:59.999Z</time></trkpt><trkpt lat="39.85944423919376" lon="9.477746388886498"><ele>714.0</ele><time>2026-05-03T07:36:00.999Z</time></trkpt><trkpt lat="39.85956783854063" lon="9.477671172037521"><ele>714.0</ele><time>2026-05-03T07:36:01.999Z</time></trkpt><trkpt lat="39.85970684850952" lon="9.477577154977395"><ele>714.0</ele><time>2026-05-03T07:36:02.999Z</time></trkpt><trkpt lat="39.859848585547056" lon="9.477441799420998"><ele>714.0</ele><time>2026-05-03T07:36:03.999Z</time></trkpt><trkpt lat="39.85997807391484" lon="9.477311597593122"><ele>714.0</ele><time>2026-05-03T07:36:04.999Z</time></trkpt><trkpt lat="39.860089057717545" lon="9.477204977144412"><ele>714.0</ele><time>2026-05-03T07:36:05.999Z</time></trkpt><trkpt lat="39.86019100943547" lon="9.477107492217623"><ele>714.0</ele><time>2026-05-03T07:36:06.999Z</time></trkpt><trkpt lat="39.86026620982962" lon="9.477009236030934"><ele>711.5</ele><time>2026-05-03T07:36:07.999Z</time></trkpt><trkpt lat="39.86031306119296" lon="9.476876567124831"><ele>709.0</ele><time>2026-05-03T07:36:08.999Z</time></trkpt><trkpt lat="39.86033775755162" lon="9.476705041252991"><ele>706.5</ele><time>2026-05-03T07:36:09.999Z</time></trkpt><trkpt lat="39.86034249824715" lon="9.476515825657087"><ele>704.0</ele><time>2026-05-03T07:36:10.999Z</time></trkpt><trkpt lat="39.86034615735685" lon="9.476320747553045"><ele>708.0</ele><time>2026-05-03T07:36:11.999Z</time></trkpt><trkpt lat="39.86035502466121" lon="9.476117360549509"><ele>712.0</ele><time>2026-05-03T07:36:12.999Z</time></trkpt><trkpt lat="39.860364727776755" lon="9.47593712538164"><ele>716.0</ele><time>2026-05-03T07:36:13.999Z</time></trkpt><trkpt lat="39.86036790792583" lon="9.475779736650718"><ele>720.0</ele><time>2026-05-03T07:36:14.999Z</time></trkpt><trkpt lat="39.860387821461906" lon="9.475641499029987"><ele>720.0</ele><time>2026-05-03T07:36:15.999Z</time></trkpt><trkpt lat="39.86043970352156" lon="9.47553039693065"><ele>720.0</ele><time>2026-05-03T07:36:16.999Z</time></trkpt><trkpt lat="39.86053244610933" lon="9.475446070910591"><ele>720.0</ele><time>2026-05-03T07:36:17.999Z</time></trkpt><trkpt lat="39.86064417210711" lon="9.475385071557296"><ele>720.0</ele><time>2026-05-03T07:36:18.999Z</time></trkpt><trkpt lat="39.860763981093775" lon="9.475348395751972"><ele>718.0</ele><time>2026-05-03T07:36:19.999Z</time></trkpt><trkpt lat="39.86084673171471" lon="9.475283847924809"><ele>716.0</ele><time>2026-05-03T07:36:20.999Z</time></trkpt><trkpt lat="39.86094021465031" lon="9.475196780592848"><ele>714.0</ele><time>2026-05-03T07:36:21.999Z</time></trkpt><trkpt lat="39.86101457862606" lon="9.475079826499273"><ele>712.0</ele><time>2026-05-03T07:36:22.999Z</time></trkpt><trkpt lat="39.861056272013165" lon="9.474936327922745"><ele>710.0</ele><time>2026-05-03T07:36:23.999Z</time></trkpt><trkpt lat="39.861065465281904" lon="9.474756907012846"><ele>715.0</ele><time>2026-05-03T07:36:24.999Z</time></trkpt><trkpt lat="39.8610584491632" lon="9.474554781594945"><ele>720.0</ele><time>2026-05-03T07:36:25.999Z</time></trkpt><trkpt lat="39.86105477077261" lon="9.474352691576772"><ele>725.0</ele><time>2026-05-03T07:36:26.999Z</time></trkpt><trkpt lat="39.861048527563135" lon="9.474144898313167"><ele>725.0</ele><time>2026-05-03T07:36:27.999Z</time></trkpt><trkpt lat="39.861059714277715" lon="9.47394541597376"><ele>725.0</ele><time>2026-05-03T07:36:28.999Z</time></trkpt><trkpt lat="39.861095384758414" lon="9.473747591131708"><ele>725.0</ele><time>2026-05-03T07:36:29.999Z</time></trkpt><trkpt lat="39.86115534557359" lon="9.473543894376629"><ele>729.3333333333333</ele><time>2026-05-03T07:36:30.999Z</time></trkpt><trkpt lat="39.86122789579023" lon="9.473348980578946"><ele>733.6666666666666</ele><time>2026-05-03T07:36:31.999Z</time></trkpt><trkpt lat="39.861302581028326" lon="9.473171484038238"><ele>738.0</ele><time>2026-05-03T07:36:32.999Z</time></trkpt><trkpt lat="39.86139189271041" lon="9.473028394632657"><ele>739.75</ele><time>2026-05-03T07:36:33.999Z</time></trkpt><trkpt lat="39.861481256608926" lon="9.472912724789385"><ele>741.5</ele><time>2026-05-03T07:36:34.999Z</time></trkpt><trkpt lat="39.86154809361547" lon="9.472800676102928"><ele>743.25</ele><time>2026-05-03T07:36:35.999Z</time></trkpt><trkpt lat="39.861581346964044" lon="9.472662592876002"><ele>745.0</ele><time>2026-05-03T07:36:36.999Z</time></trkpt><trkpt lat="39.861575602043715" lon="9.47250267731011"><ele>745.0</ele><time>2026-05-03T07:36:37.999Z</time></trkpt><trkpt lat="39.86155042891425" lon="9.472334209514642"><ele>745.0</ele><time>2026-05-03T07:36:38.999Z</time></trkpt><trkpt lat="39.86151000147109" lon="9.472156875936873"><ele>745.0</ele><time>2026-05-03T07:36:39.999Z</time></trkpt><trkpt lat="39.8614861776349" lon="9.471985529333585"><ele>745.0</ele><time>2026-05-03T07:36:40.999Z</time></trkpt><trkpt lat="39.861478560110974" lon="9.471834451931958"><ele>745.8</ele><time>2026-05-03T07:36:41.999Z</time></trkpt><trkpt lat="39.861451872446956" lon="9.471705030212988"><ele>746.6</ele><time>2026-05-03T07:36:42.999Z</time></trkpt><trkpt lat="39.861406336861144" lon="9.47158177125863"><ele>747.4000000000001</ele><time>2026-05-03T07:36:43.999Z</time></trkpt><trkpt lat="39.86131146997791" lon="9.471512013552806"><ele>748.2</ele><time>2026-05-03T07:36:44.999Z</time></trkpt><trkpt lat="39.8611960469276" lon="9.471485587686972"><ele>749.0</ele><time>2026-05-03T07:36:45.999Z</time></trkpt><trkpt lat="39.86107745428148" lon="9.471469948641392"><ele>749.0</ele><time>2026-05-03T07:36:46.999Z</time></trkpt><trkpt lat="39.860983898601276" lon="9.471386063634336"><ele>749.0</ele><time>2026-05-03T07:36:47.999Z</time></trkpt><trkpt lat="39.860914528535034" lon="9.47126223546234"><ele>749.0</ele><time>2026-05-03T07:36:48.999Z</time></trkpt><trkpt lat="39.86086577332536" lon="9.471113546920515"><ele>749.0</ele><time>2026-05-03T07:36:49.999Z</time></trkpt><trkpt lat="39.8608204211828" lon="9.470954387780605"><ele>751.25</ele><time>2026-05-03T07:36:50.999Z</time></trkpt><trkpt lat="39.8607681716991" lon="9.47079432837381"><ele>753.5</ele><time>2026-05-03T07:36:51.999Z</time></trkpt><trkpt lat="39.86071903191174" lon="9.470619633056247"><ele>755.75</ele><time>2026-05-03T07:36:52.999Z</time></trkpt><trkpt lat="39.860661115079196" lon="9.4704536273752"><ele>758.0</ele><time>2026-05-03T07:36:53.999Z</time></trkpt><trkpt lat="39.860606064618075" lon="9.470285906780422"><ele>758.0</ele><time>2026-05-03T07:36:54.999Z</time></trkpt><trkpt lat="39.860557113423866" lon="9.470110478007209"><ele>758.0</ele><time>2026-05-03T07:36:55.999Z</time></trkpt><trkpt lat="39.86047590139041" lon="9.469932545984092"><ele>758.0</ele><time>2026-05-03T07:36:56.999Z</time></trkpt><trkpt lat="39.860409575568255" lon="9.46976417476463"><ele>758.0</ele><time>2026-05-03T07:36:57.999Z</time></trkpt><trkpt lat="39.86032901315758" lon="9.469574911087964"><ele>757.0</ele><time>2026-05-03T07:36:58.999Z</time></trkpt><trkpt lat="39.86028424918861" lon="9.469362868351899"><ele>756.0</ele><time>2026-05-03T07:36:59.999Z</time></trkpt><trkpt lat="39.86023384551254" lon="9.46914204887185"><ele>755.0</ele><time>2026-05-03T07:37:00.999Z</time></trkpt><trkpt lat="39.86018278486449" lon="9.468912496402506"><ele>763.3333333333333</ele><time>2026-05-03T07:37:01.999Z</time></trkpt><trkpt lat="39.86011651251844" lon="9.468683760639506"><ele>771.6666666666666</ele><time>2026-05-03T07:37:02.999Z</time></trkpt><trkpt lat="39.860051212475334" lon="9.468466002733978"><ele>780.0</ele><time>2026-05-03T07:37:03.999Z</time></trkpt><trkpt lat="39.85997644373911" lon="9.468240896445051"><ele>780.0</ele><time>2026-05-03T07:37:04.999Z</time></trkpt><trkpt lat="39.85990208165884" lon="9.468028216426942"><ele>780.0</ele><time>2026-05-03T07:37:05.999Z</time></trkpt><trkpt lat="39.85983946672407" lon="9.467808860752442"><ele>780.0</ele><time>2026-05-03T07:37:06.999Z</time></trkpt><trkpt lat="39.85979740016452" lon="9.467597674468253"><ele>780.0</ele><time>2026-05-03T07:37:07.999Z</time></trkpt><trkpt lat="39.859745430742834" lon="9.4674093847998"><ele>780.0</ele><time>2026-05-03T07:37:08.999Z</time></trkpt><trkpt lat="39.8596955575565" lon="9.467236652797398"><ele>780.0</ele><time>2026-05-03T07:37:09.999Z</time></trkpt><trkpt lat="39.859639372550674" lon="9.467083089389577"><ele>780.0</ele><time>2026-05-03T07:37:10.999Z</time></trkpt><trkpt lat="39.85957506168805" lon="9.466948587366344"><ele>782.0</ele><time>2026-05-03T07:37:11.999Z</time></trkpt><trkpt lat="39.85950557696074" lon="9.466818927725502"><ele>784.0</ele><time>2026-05-03T07:37:12.999Z</time></trkpt><trkpt lat="39.85942584012095" lon="9.466703362519063"><ele>786.0</ele><time>2026-05-03T07:37:13.999Z</time></trkpt><trkpt lat="39.85934585773083" lon="9.466603499251585"><ele>788.0</ele><time>2026-05-03T07:37:14.999Z</time></trkpt><trkpt lat="39.85926281908616" lon="9.466518809043041"><ele>788.0</ele><time>2026-05-03T07:37:15.999Z</time></trkpt><trkpt lat="39.85918012595456" lon="9.466450781702537"><ele>788.0</ele><time>2026-05-03T07:37:16.999Z</time></trkpt><trkpt lat="39.85909316454593" lon="9.466383492406193"><ele>788.0</ele><time>2026-05-03T07:37:17.999Z</time></trkpt><trkpt lat="39.85901422538858" lon="9.466322495593808"><ele>788.0</ele><time>2026-05-03T07:37:18.999Z</time></trkpt><trkpt lat="39.858946490847394" lon="9.466261234596221"><ele>788.0</ele><time>2026-05-03T07:37:19.999Z</time></trkpt><trkpt lat="39.85888999221153" lon="9.466190428361358"><ele>789.0000000000001</ele><time>2026-05-03T07:37:20.999Z</time></trkpt><trkpt lat="39.858845155746124" lon="9.466111402168568"><ele>790.0</ele><time>2026-05-03T07:37:21.999Z</time></trkpt><trkpt lat="39.85880926126624" lon="9.46602398415979"><ele>791.0</ele><time>2026-05-03T07:37:22.999Z</time></trkpt><trkpt lat="39.85877981728514" lon="9.465924367481147"><ele>792.0</ele><time>2026-05-03T07:37:23.999Z</time></trkpt><trkpt lat="39.85875206620488" lon="9.46582264389646"><ele>793.0000000000001</ele><time>2026-05-03T07:37:24.999Z</time></trkpt><trkpt lat="39.85871163085747" lon="9.465723636058737"><ele>794.0</ele><time>2026-05-03T07:37:25.999Z</time></trkpt><trkpt lat="39.85864427516747" lon="9.465648072282953"><ele>794.0</ele><time>2026-05-03T07:37:26.999Z</time></trkpt><trkpt lat="39.85855764397934" lon="9.465596580075884"><ele>794.0</ele><time>2026-05-03T07:37:27.999Z</time></trkpt><trkpt lat="39.85846005590578" lon="9.46556323645073"><ele>794.0</ele><time>2026-05-03T07:37:28.999Z</time></trkpt><trkpt lat="39.85835535962832" lon="9.465540711209742"><ele>794.0</ele><time>2026-05-03T07:37:29.999Z</time></trkpt><trkpt lat="39.85824933483995" lon="9.465519988455439"><ele>794.0</ele><time>2026-05-03T07:37:30.999Z</time></trkpt><trkpt lat="39.85814257072672" lon="9.465487385905965"><ele>794.75</ele><time>2026-05-03T07:37:31.999Z</time></trkpt><trkpt lat="39.8580334235" lon="9.465427269713157"><ele>795.5</ele><time>2026-05-03T07:37:32.999Z</time></trkpt><trkpt lat="39.857931073365016" lon="9.465352840834436"><ele>796.25</ele><time>2026-05-03T07:37:33.999Z</time></trkpt><trkpt lat="39.85782431172224" lon="9.46528277253294"><ele>797.0</ele><time>2026-05-03T07:37:34.999Z</time></trkpt><trkpt lat="39.85771528117066" lon="9.465224387706826"><ele>795.75</ele><time>2026-05-03T07:37:35.999Z</time></trkpt><trkpt lat="39.85760032144376" lon="9.4651767825495"><ele>794.5</ele><time>2026-05-03T07:37:36.999Z</time></trkpt><trkpt lat="39.85748221719544" lon="9.465128501293826"><ele>793.25</ele><time>2026-05-03T07:37:37.999Z</time></trkpt><trkpt lat="39.85735783477955" lon="9.465058230380057"><ele>792.0</ele><time>2026-05-03T07:37:38.999Z</time></trkpt><trkpt lat="39.8572275215813" lon="9.464970580908746"><ele>792.0</ele><time>2026-05-03T07:37:39.999Z</time></trkpt><trkpt lat="39.85709934376288" lon="9.464877066567842"><ele>792.0</ele><time>2026-05-03T07:37:40.999Z</time></trkpt><trkpt lat="39.85696740984675" lon="9.46478771793861"><ele>792.0</ele><time>2026-05-03T07:37:41.999Z</time></trkpt><trkpt lat="39.856832318582164" lon="9.464691111433146"><ele>789.6666666666667</ele><time>2026-05-03T07:37:42.999Z</time></trkpt><trkpt lat="39.85669343814501" lon="9.464594029478741"><ele>787.3333333333334</ele><time>2026-05-03T07:37:43.999Z</time></trkpt><trkpt lat="39.85655492870107" lon="9.464496697899717"><ele>785.0</ele><time>2026-05-03T07:37:44.999Z</time></trkpt><trkpt lat="39.85641285765595" lon="9.464395089665894"><ele>785.0</ele><time>2026-05-03T07:37:45.999Z</time></trkpt><trkpt lat="39.8562688346108" lon="9.464291314809165"><ele>785.0</ele><time>2026-05-03T07:37:46.999Z</time></trkpt><trkpt lat="39.856124099888085" lon="9.46418876970712"><ele>785.0</ele><time>2026-05-03T07:37:47.999Z</time></trkpt><trkpt lat="39.85598288336652" lon="9.464087534955869"><ele>785.6666666666667</ele><time>2026-05-03T07:37:48.999Z</time></trkpt><trkpt lat="39.8558442380241" lon="9.463987550741972"><ele>786.3333333333333</ele><time>2026-05-03T07:37:49.999Z</time></trkpt><trkpt lat="39.855709929470386" lon="9.463887262898616"><ele>787.0</ele><time>2026-05-03T07:37:50.999Z</time></trkpt><trkpt lat="39.855576237758775" lon="9.463790087065927"><ele>787.6666666666666</ele><time>2026-05-03T07:37:51.999Z</time></trkpt><trkpt lat="39.85543780309617" lon="9.463691486875659"><ele>788.3333333333333</ele><time>2026-05-03T07:37:52.999Z</time></trkpt><trkpt lat="39.85530102249492" lon="9.463591459212271"><ele>789.0</ele><time>2026-05-03T07:37:53.999Z</time></trkpt><trkpt lat="39.85516398254508" lon="9.463492689706165"><ele>786.3333333333333</ele><time>2026-05-03T07:37:54.999Z</time></trkpt><trkpt lat="39.855025093929164" lon="9.46339422761362"><ele>783.6666666666666</ele><time>2026-05-03T07:37:55.999Z</time></trkpt><trkpt lat="39.854889248959964" lon="9.463294917866612"><ele>781.0</ele><time>2026-05-03T07:37:56.999Z</time></trkpt><trkpt lat="39.85475286317141" lon="9.46319504083027"><ele>781.0</ele><time>2026-05-03T07:37:57.999Z</time></trkpt><trkpt lat="39.8546154478733" lon="9.463092810988094"><ele>781.0</ele><time>2026-05-03T07:37:58.999Z</time></trkpt><trkpt lat="39.85448132911827" lon="9.462994216944677"><ele>781.0</ele><time>2026-05-03T07:37:59.999Z</time></trkpt><trkpt lat="39.85435351103321" lon="9.462898855254405"><ele>782.0</ele><time>2026-05-03T07:38:00.999Z</time></trkpt><trkpt lat="39.85422388813421" lon="9.462803985832855"><ele>783.0</ele><time>2026-05-03T07:38:01.999Z</time></trkpt><trkpt lat="39.85409317761653" lon="9.462709518152296"><ele>784.0</ele><time>2026-05-03T07:38:02.999Z</time></trkpt><trkpt lat="39.85396309763526" lon="9.462613777987226"><ele>785.0</ele><time>2026-05-03T07:38:03.999Z</time></trkpt><trkpt lat="39.85382340689084" lon="9.462517200069174"><ele>785.0</ele><time>2026-05-03T07:38:04.999Z</time></trkpt><trkpt lat="39.85367430070691" lon="9.462411128492603"><ele>785.0</ele><time>2026-05-03T07:38:05.999Z</time></trkpt><trkpt lat="39.85351915171692" lon="9.462299605376217"><ele>785.0</ele><time>2026-05-03T07:38:06.999Z</time></trkpt><trkpt lat="39.85335999709059" lon="9.462179729411625"><ele>784.3333333333334</ele><time>2026-05-03T07:38:07.999Z</time></trkpt><trkpt lat="39.853195892963235" lon="9.462042076267359"><ele>783.6666666666667</ele><time>2026-05-03T07:38:08.999Z</time></trkpt><trkpt lat="39.85302321977679" lon="9.46188422304805"><ele>783.0</ele><time>2026-05-03T07:38:09.999Z</time></trkpt><trkpt lat="39.85284562443701" lon="9.461712211816927"><ele>783.0</ele><time>2026-05-03T07:38:10.999Z</time></trkpt><trkpt lat="39.85265507561287" lon="9.461528863657254"><ele>783.0</ele><time>2026-05-03T07:38:11.999Z</time></trkpt><trkpt lat="39.85245568347843" lon="9.461342290750675"><ele>783.0</ele><time>2026-05-03T07:38:12.999Z</time></trkpt><trkpt lat="39.85225345541486" lon="9.461153052333765"><ele>783.0</ele><time>2026-05-03T07:38:13.999Z</time></trkpt><trkpt lat="39.85204366987399" lon="9.460956454273024"><ele>783.0</ele><time>2026-05-03T07:38:14.999Z</time></trkpt><trkpt lat="39.851852404769225" lon="9.46077321703794"><ele>783.0</ele><time>2026-05-03T07:38:15.999Z</time></trkpt><trkpt lat="39.85166749185906" lon="9.460593804943764"><ele>785.0</ele><time>2026-05-03T07:38:16.999Z</time></trkpt><trkpt lat="39.85149381275729" lon="9.460424505384733"><ele>787.0</ele><time>2026-05-03T07:38:17.999Z</time></trkpt><trkpt lat="39.851324426809526" lon="9.460262703601606"><ele>789.0</ele><time>2026-05-03T07:38:18.999Z</time></trkpt><trkpt lat="39.85115690376592" lon="9.460106979070147"><ele>789.0</ele><time>2026-05-03T07:38:19.999Z</time></trkpt><trkpt lat="39.85098442188673" lon="9.459962822834175"><ele>789.0</ele><time>2026-05-03T07:38:20.999Z</time></trkpt><trkpt lat="39.85080234523791" lon="9.459833581763272"><ele>789.0</ele><time>2026-05-03T07:38:21.999Z</time></trkpt><trkpt lat="39.8505975563281" lon="9.45971413478606"><ele>790.5</ele><time>2026-05-03T07:38:22.999Z</time></trkpt><trkpt lat="39.850384430505244" lon="9.459608723282226"><ele>792.0</ele><time>2026-05-03T07:38:23.999Z</time></trkpt><trkpt lat="39.850172206915055" lon="9.459506477965828"><ele>789.0</ele><time>2026-05-03T07:38:24.999Z</time></trkpt><trkpt lat="39.84996359317773" lon="9.459395631346103"><ele>786.0</ele><time>2026-05-03T07:38:25.999Z</time></trkpt><trkpt lat="39.84976117371006" lon="9.459278408632395"><ele>783.0</ele><time>2026-05-03T07:38:26.999Z</time></trkpt><trkpt lat="39.849570328517764" lon="9.459153632360138"><ele>783.0</ele><time>2026-05-03T07:38:27.999Z</time></trkpt><trkpt lat="39.849385907843995" lon="9.459022786265457"><ele>783.0</ele><time>2026-05-03T07:38:28.999Z</time></trkpt><trkpt lat="39.8492073909323" lon="9.458895943069578"><ele>783.0</ele><time>2026-05-03T07:38:29.999Z</time></trkpt><trkpt lat="39.84903437580079" lon="9.458777993001105"><ele>784.0</ele><time>2026-05-03T07:38:30.999Z</time></trkpt><trkpt lat="39.848865294577884" lon="9.458665463103234"><ele>785.0</ele><time>2026-05-03T07:38:31.999Z</time></trkpt><trkpt lat="39.84869979809586" lon="9.458552091281828"><ele>786.0</ele><time>2026-05-03T07:38:32.999Z</time></trkpt><trkpt lat="39.848550246497425" lon="9.458441089064703"><ele>784.3333333333333</ele><time>2026-05-03T07:38:33.999Z</time></trkpt><trkpt lat="39.84840626648754" lon="9.458310668346265"><ele>782.6666666666666</ele><time>2026-05-03T07:38:34.999Z</time></trkpt><trkpt lat="39.84827109205928" lon="9.458156508923548"><ele>781.0</ele><time>2026-05-03T07:38:35.999Z</time></trkpt><trkpt lat="39.84814859015904" lon="9.457974623941888"><ele>784.3333333333333</ele><time>2026-05-03T07:38:36.999Z</time></trkpt><trkpt lat="39.84803007196908" lon="9.457795458969297"><ele>787.6666666666667</ele><time>2026-05-03T07:38:37.999Z</time></trkpt><trkpt lat="39.84791455738016" lon="9.457627081991928"><ele>791.0</ele><time>2026-05-03T07:38:38.999Z</time></trkpt><trkpt lat="39.847798750099194" lon="9.457476032458525"><ele>791.0</ele><time>2026-05-03T07:38:39.999Z</time></trkpt><trkpt lat="39.84766997208184" lon="9.457354141452942"><ele>791.0</ele><time>2026-05-03T07:38:40.999Z</time></trkpt><trkpt lat="39.84753127492473" lon="9.457275455021554"><ele>791.0</ele><time>2026-05-03T07:38:41.999Z</time></trkpt><trkpt lat="39.84737216673924" lon="9.45723879060788"><ele>791.75</ele><time>2026-05-03T07:38:42.999Z</time></trkpt><trkpt lat="39.8472151362667" lon="9.457204827157765"><ele>792.5</ele><time>2026-05-03T07:38:43.999Z</time></trkpt><trkpt lat="39.84708047575204" lon="9.457167904018906"><ele>793.25</ele><time>2026-05-03T07:38:44.999Z</time></trkpt><trkpt lat="39.846963388732746" lon="9.457101994938132"><ele>794.0</ele><time>2026-05-03T07:38:45.999Z</time></trkpt><trkpt lat="39.84686952242609" lon="9.456998288090595"><ele>794.0</ele><time>2026-05-03T07:38:46.999Z</time></trkpt><trkpt lat="39.846800741682834" lon="9.456850589162267"><ele>794.0</ele><time>2026-05-03T07:38:47.999Z</time></trkpt><trkpt lat="39.84673086532411" lon="9.45671921312757"><ele>794.0</ele><time>2026-05-03T07:38:48.999Z</time></trkpt><trkpt lat="39.846627752862936" lon="9.456638218615332"><ele>794.0</ele><time>2026-05-03T07:38:49.999Z</time></trkpt><trkpt lat="39.846495483453744" lon="9.456571643060707"><ele>788.0</ele><time>2026-05-03T07:38:50.999Z</time></trkpt><trkpt lat="39.84633321307924" lon="9.456513962305511"><ele>782.0</ele><time>2026-05-03T07:38:51.999Z</time></trkpt><trkpt lat="39.8461673110714" lon="9.456455203479655"><ele>776.0</ele><time>2026-05-03T07:38:52.999Z</time></trkpt><trkpt lat="39.8460036449565" lon="9.456396834915854"><ele>774.75</ele><time>2026-05-03T07:38:53.999Z</time></trkpt><trkpt lat="39.84586188091261" lon="9.456333343391792"><ele>773.5</ele><time>2026-05-03T07:38:54.999Z</time></trkpt><trkpt lat="39.845740676674914" lon="9.456233178001954"><ele>772.25</ele><time>2026-05-03T07:38:55.999Z</time></trkpt><trkpt lat="39.845633950942435" lon="9.456099948596782"><ele>771.0</ele><time>2026-05-03T07:38:56.999Z</time></trkpt><trkpt lat="39.845522072182646" lon="9.45597548982419"><ele>768.0</ele><time>2026-05-03T07:38:57.999Z</time></trkpt><trkpt lat="39.8453794466107" lon="9.45583631665818"><ele>765.0</ele><time>2026-05-03T07:38:58.999Z</time></trkpt><trkpt lat="39.84522651858431" lon="9.455717199339174"><ele>762.0</ele><time>2026-05-03T07:38:59.999Z</time></trkpt><trkpt lat="39.84506646605714" lon="9.455583793902003"><ele>770.3333333333333</ele><time>2026-05-03T07:39:00.999Z</time></trkpt><trkpt lat="39.84491523281005" lon="9.455433840329292"><ele>778.6666666666666</ele><time>2026-05-03T07:39:01.999Z</time></trkpt><trkpt lat="39.844756922189866" lon="9.455288306831"><ele>787.0</ele><time>2026-05-03T07:39:02.999Z</time></trkpt><trkpt lat="39.844586300577916" lon="9.45516166903202"><ele>787.0</ele><time>2026-05-03T07:39:03.999Z</time></trkpt><trkpt lat="39.844408142242905" lon="9.455037506251122"><ele>787.0</ele><time>2026-05-03T07:39:04.999Z</time></trkpt><trkpt lat="39.844231708425134" lon="9.454896044985151"><ele>787.0</ele><time>2026-05-03T07:39:05.999Z</time></trkpt><trkpt lat="39.84406564391333" lon="9.45474603218021"><ele>783.6666666666666</ele><time>2026-05-03T07:39:06.999Z</time></trkpt><trkpt lat="39.84389807720732" lon="9.454600583609581"><ele>780.3333333333333</ele><time>2026-05-03T07:39:07.998Z</time></trkpt><trkpt lat="39.84375809917393" lon="9.454468821551187"><ele>777.0</ele><time>2026-05-03T07:39:08.998Z</time></trkpt><trkpt lat="39.84363534040725" lon="9.454339861333557"><ele>777.0</ele><time>2026-05-03T07:39:09.998Z</time></trkpt><trkpt lat="39.84352559498148" lon="9.454207210345578"><ele>777.0</ele><time>2026-05-03T07:39:10.998Z</time></trkpt><trkpt lat="39.843392126686915" lon="9.454068858643215"><ele>777.0</ele><time>2026-05-03T07:39:11.998Z</time></trkpt><trkpt lat="39.843233403416946" lon="9.453966034643969"><ele>780.3333333333333</ele><time>2026-05-03T07:39:12.999Z</time></trkpt><trkpt lat="39.84305149139398" lon="9.453863474775016"><ele>783.6666666666666</ele><time>2026-05-03T07:39:13.999Z</time></trkpt><trkpt lat="39.84288756181217" lon="9.453788060125197"><ele>787.0</ele><time>2026-05-03T07:39:14.999Z</time></trkpt><trkpt lat="39.84272924803543" lon="9.453705866167686"><ele>780.0</ele><time>2026-05-03T07:39:15.999Z</time></trkpt><trkpt lat="39.842574713924726" lon="9.453604491025168"><ele>773.0</ele><time>2026-05-03T07:39:16.999Z</time></trkpt><trkpt lat="39.84242230647112" lon="9.453480113673415"><ele>766.0</ele><time>2026-05-03T07:39:17.999Z</time></trkpt><trkpt lat="39.84226920002461" lon="9.453336474728829"><ele>766.0</ele><time>2026-05-03T07:39:18.999Z</time></trkpt><trkpt lat="39.84211537275676" lon="9.453187018653226"><ele>766.0</ele><time>2026-05-03T07:39:19.999Z</time></trkpt><trkpt lat="39.84196433793993" lon="9.453038929663498"><ele>766.0</ele><time>2026-05-03T07:39:20.999Z</time></trkpt><trkpt lat="39.841810055422414" lon="9.452897761165548"><ele>765.0</ele><time>2026-05-03T07:39:21.999Z</time></trkpt><trkpt lat="39.8416503273249" lon="9.452770190832293"><ele>764.0</ele><time>2026-05-03T07:39:22.999Z</time></trkpt><trkpt lat="39.8414798980478" lon="9.452654705640269"><ele>763.0</ele><time>2026-05-03T07:39:23.999Z</time></trkpt><trkpt lat="39.841319528177834" lon="9.452548241414986"><ele>763.0</ele><time>2026-05-03T07:39:24.999Z</time></trkpt><trkpt lat="39.8411626448562" lon="9.452443995338802"><ele>763.0</ele><time>2026-05-03T07:39:25.999Z</time></trkpt><trkpt lat="39.841012259389124" lon="9.452335173283842"><ele>763.0</ele><time>2026-05-03T07:39:26.999Z</time></trkpt><trkpt lat="39.84085935176461" lon="9.452220066107344"><ele>762.6666666666667</ele><time>2026-05-03T07:39:27.999Z</time></trkpt><trkpt lat="39.84071353904688" lon="9.45208983797145"><ele>762.3333333333334</ele><time>2026-05-03T07:39:28.999Z</time></trkpt><trkpt lat="39.84058042269904" lon="9.451958365798985"><ele>762.0</ele><time>2026-05-03T07:39:29.999Z</time></trkpt><trkpt lat="39.84044849727865" lon="9.451839966861463"><ele>762.0</ele><time>2026-05-03T07:39:30.999Z</time></trkpt><trkpt lat="39.84031450670127" lon="9.451734301672367"><ele>762.0</ele><time>2026-05-03T07:39:31.999Z</time></trkpt><trkpt lat="39.840182339766635" lon="9.451645675957485"><ele>762.0</ele><time>2026-05-03T07:39:32.999Z</time></trkpt><trkpt lat="39.84005467892382" lon="9.45158387467167"><ele>762.0</ele><time>2026-05-03T07:39:33.999Z</time></trkpt><trkpt lat="39.83992187072298" lon="9.451554525903001"><ele>759.75</ele><time>2026-05-03T07:39:34.999Z</time></trkpt><trkpt lat="39.83977901226956" lon="9.451528580686515"><ele>757.5</ele><time>2026-05-03T07:39:35.999Z</time></trkpt><trkpt lat="39.83963725589195" lon="9.4515753008475"><ele>755.25</ele><time>2026-05-03T07:39:36.999Z</time></trkpt><trkpt lat="39.83950165883004" lon="9.451586089087952"><ele>753.0</ele><time>2026-05-03T07:39:37.999Z</time></trkpt><trkpt lat="39.83937777230451" lon="9.451584740936486"><ele>752.5</ele><time>2026-05-03T07:39:38.999Z</time></trkpt><trkpt lat="39.83927022610337" lon="9.451551303734151"><ele>752.0</ele><time>2026-05-03T07:39:39.999Z</time></trkpt><trkpt lat="39.83916797005053" lon="9.451470046107733"><ele>751.5</ele><time>2026-05-03T07:39:40.999Z</time></trkpt><trkpt lat="39.83908527844441" lon="9.45134980328333"><ele>751.0</ele><time>2026-05-03T07:39:41.999Z</time></trkpt><trkpt lat="39.83899086840176" lon="9.451198146588723"><ele>754.0</ele><time>2026-05-03T07:39:42.999Z</time></trkpt><trkpt lat="39.83888171322484" lon="9.451046143956399"><ele>757.0</ele><time>2026-05-03T07:39:43.999Z</time></trkpt><trkpt lat="39.838752103608044" lon="9.450912700366036"><ele>760.0</ele><time>2026-05-03T07:39:44.999Z</time></trkpt><trkpt lat="39.83859822451208" lon="9.450800091318728"><ele>756.6666666666667</ele><time>2026-05-03T07:39:45.999Z</time></trkpt><trkpt lat="39.8384331278313" lon="9.450704808043977"><ele>753.3333333333334</ele><time>2026-05-03T07:39:46.999Z</time></trkpt><trkpt lat="39.83827101800519" lon="9.450627986665992"><ele>750.0</ele><time>2026-05-03T07:39:47.999Z</time></trkpt><trkpt lat="39.83812415088262" lon="9.450560573911146"><ele>750.0</ele><time>2026-05-03T07:39:48.999Z</time></trkpt><trkpt lat="39.83797826077091" lon="9.450491312556842"><ele>750.0</ele><time>2026-05-03T07:39:49.999Z</time></trkpt><trkpt lat="39.837843807556176" lon="9.450413463546251"><ele>750.0</ele><time>2026-05-03T07:39:50.999Z</time></trkpt><trkpt lat="39.83770645518543" lon="9.450318974090436"><ele>749.6666666666666</ele><time>2026-05-03T07:39:51.999Z</time></trkpt><trkpt lat="39.83757886301948" lon="9.450191016974292"><ele>749.3333333333333</ele><time>2026-05-03T07:39:52.999Z</time></trkpt><trkpt lat="39.83746299056279" lon="9.450017361566923"><ele>749.0</ele><time>2026-05-03T07:39:53.999Z</time></trkpt><trkpt lat="39.837353443477355" lon="9.449807687724432"><ele>753.0</ele><time>2026-05-03T07:39:54.999Z</time></trkpt><trkpt lat="39.83724168268334" lon="9.449599059294519"><ele>757.0</ele><time>2026-05-03T07:39:55.999Z</time></trkpt><trkpt lat="39.837111957235344" lon="9.449384165755967"><ele>761.0</ele><time>2026-05-03T07:39:56.999Z</time></trkpt><trkpt lat="39.836985235313534" lon="9.44914600373177"><ele>761.0</ele><time>2026-05-03T07:39:58Z</time></trkpt><trkpt lat="39.83687064671145" lon="9.448903713319115"><ele>761.0</ele><time>2026-05-03T07:39:59Z</time></trkpt><trkpt lat="39.83675274638649" lon="9.44864622373987"><ele>761.0</ele><time>2026-05-03T07:40:00Z</time></trkpt><trkpt lat="39.83664239587599" lon="9.44839892818158"><ele>758.0</ele><time>2026-05-03T07:40:01Z</time></trkpt><trkpt lat="39.83653667306117" lon="9.448168409677903"><ele>755.0</ele><time>2026-05-03T07:40:02Z</time></trkpt><trkpt lat="39.83643588423356" lon="9.447951427752429"><ele>752.0</ele><time>2026-05-03T07:40:03Z</time></trkpt><trkpt lat="39.83633690653603" lon="9.44774968580609"><ele>752.0</ele><time>2026-05-03T07:40:04Z</time></trkpt><trkpt lat="39.83622438096625" lon="9.447561182835548"><ele>752.0</ele><time>2026-05-03T07:40:05Z</time></trkpt><trkpt lat="39.83611149423055" lon="9.4473952317068"><ele>752.0</ele><time>2026-05-03T07:40:06Z</time></trkpt><trkpt lat="39.8360047249247" lon="9.447241782022678"><ele>748.25</ele><time>2026-05-03T07:40:07Z</time></trkpt><trkpt lat="39.8359110668261" lon="9.447112874804162"><ele>744.5</ele><time>2026-05-03T07:40:08Z</time></trkpt><trkpt lat="39.83584054112739" lon="9.44697904748206"><ele>740.75</ele><time>2026-05-03T07:40:09Z</time></trkpt><trkpt lat="39.83580112059286" lon="9.446822535729565"><ele>737.0</ele><time>2026-05-03T07:40:10Z</time></trkpt><trkpt lat="39.83578015018774" lon="9.446654328126964"><ele>737.0</ele><time>2026-05-03T07:40:11Z</time></trkpt><trkpt lat="39.835752980664026" lon="9.446462953702705"><ele>737.0</ele><time>2026-05-03T07:40:12Z</time></trkpt><trkpt lat="39.83564856842427" lon="9.446268817247951"><ele>737.0</ele><time>2026-05-03T07:40:13Z</time></trkpt><trkpt lat="39.83554048276942" lon="9.446062714969797"><ele>739.6666666666666</ele><time>2026-05-03T07:40:14Z</time></trkpt><trkpt lat="39.83544195598444" lon="9.445820835903104"><ele>742.3333333333334</ele><time>2026-05-03T07:40:15Z</time></trkpt><trkpt lat="39.835343994039974" lon="9.445569858425703"><ele>745.0</ele><time>2026-05-03T07:40:16Z</time></trkpt><trkpt lat="39.835241167660044" lon="9.44531442417246"><ele>748.6666666666667</ele><time>2026-05-03T07:40:17Z</time></trkpt><trkpt lat="39.83516095092455" lon="9.445147176124058"><ele>752.3333333333334</ele><time>2026-05-03T07:40:18Z</time></trkpt><trkpt lat="39.83504095003611" lon="9.44494593928855"><ele>756.0</ele><time>2026-05-03T07:40:19Z</time></trkpt><trkpt lat="39.834952737975264" lon="9.44480731826373"><ele>750.5</ele><time>2026-05-03T07:40:20Z</time></trkpt><trkpt lat="39.83486875221845" lon="9.444672986701526"><ele>745.0</ele><time>2026-05-03T07:40:21Z</time></trkpt><trkpt lat="39.83480077821544" lon="9.444520696565567"><ele>739.5</ele><time>2026-05-03T07:40:22Z</time></trkpt><trkpt lat="39.834747961391514" lon="9.444348804119262"><ele>734.0</ele><time>2026-05-03T07:40:23Z</time></trkpt><trkpt lat="39.834730505216555" lon="9.44414207859213"><ele>734.0</ele><time>2026-05-03T07:40:24Z</time></trkpt><trkpt lat="39.83471878629071" lon="9.44391710607226"><ele>734.0</ele><time>2026-05-03T07:40:25Z</time></trkpt><trkpt lat="39.83471568648258" lon="9.443681992783606"><ele>734.0</ele><time>2026-05-03T07:40:26Z</time></trkpt><trkpt lat="39.83471698609012" lon="9.443431875986784"><ele>732.6666666666666</ele><time>2026-05-03T07:40:27Z</time></trkpt><trkpt lat="39.83471378519843" lon="9.443179695529597"><ele>731.3333333333334</ele><time>2026-05-03T07:40:28Z</time></trkpt><trkpt lat="39.83471039177264" lon="9.442935464303426"><ele>730.0</ele><time>2026-05-03T07:40:29Z</time></trkpt><trkpt lat="39.83472549895322" lon="9.44271973146315"><ele>729.6666666666667</ele><time>2026-05-03T07:40:30Z</time></trkpt><trkpt lat="39.83471149052813" lon="9.44251093698489"><ele>729.3333333333334</ele><time>2026-05-03T07:40:31Z</time></trkpt><trkpt lat="39.83466976692687" lon="9.442319156532083"><ele>729.0</ele><time>2026-05-03T07:40:32Z</time></trkpt><trkpt lat="39.834584785969895" lon="9.442144148726726"><ele>727.25</ele><time>2026-05-03T07:40:33Z</time></trkpt><trkpt lat="39.834490133640756" lon="9.44198523446798"><ele>725.5</ele><time>2026-05-03T07:40:34Z</time></trkpt><trkpt lat="39.834380637911075" lon="9.441857245815907"><ele>723.75</ele><time>2026-05-03T07:40:35Z</time></trkpt><trkpt lat="39.834267407422416" lon="9.441753269371294"><ele>722.0</ele><time>2026-05-03T07:40:36Z</time></trkpt><trkpt lat="39.83416264218551" lon="9.441685872239363"><ele>722.0</ele><time>2026-05-03T07:40:37Z</time></trkpt><trkpt lat="39.83405415575201" lon="9.441710591006"><ele>722.0</ele><time>2026-05-03T07:40:38Z</time></trkpt><trkpt lat="39.83397250885638" lon="9.441728746279036"><ele>722.0</ele><time>2026-05-03T07:40:39Z</time></trkpt><trkpt lat="39.83388440096507" lon="9.44176706857628"><ele>722.0</ele><time>2026-05-03T07:40:40Z</time></trkpt><trkpt lat="39.8338017216786" lon="9.441791786742154"><ele>722.0</ele><time>2026-05-03T07:40:41Z</time></trkpt><trkpt lat="39.83372119112949" lon="9.441785602800476"><ele>722.0</ele><time>2026-05-03T07:40:42Z</time></trkpt><trkpt lat="39.83365196316122" lon="9.441747462803468"><ele>722.0</ele><time>2026-05-03T07:40:43Z</time></trkpt><trkpt lat="39.83358764944612" lon="9.441673241733472"><ele>722.0</ele><time>2026-05-03T07:40:44Z</time></trkpt><trkpt lat="39.83351804299434" lon="9.441585216844546"><ele>722.0</ele><time>2026-05-03T07:40:45Z</time></trkpt><trkpt lat="39.83343960626387" lon="9.44149058079268"><ele>722.0</ele><time>2026-05-03T07:40:46Z</time></trkpt><trkpt lat="39.83336814031992" lon="9.441369646008715"><ele>720.75</ele><time>2026-05-03T07:40:47Z</time></trkpt><trkpt lat="39.833324145837715" lon="9.441218632128594"><ele>719.5</ele><time>2026-05-03T07:40:48Z</time></trkpt><trkpt lat="39.833291629771665" lon="9.4410401508071"><ele>718.25</ele><time>2026-05-03T07:40:49Z</time></trkpt><trkpt lat="39.8332691325298" lon="9.44085216817974"><ele>717.0</ele><time>2026-05-03T07:40:50Z</time></trkpt><trkpt lat="39.83326138182516" lon="9.440658615663882"><ele>717.0</ele><time>2026-05-03T07:40:51Z</time></trkpt><trkpt lat="39.833235211981865" lon="9.440489661802113"><ele>717.0</ele><time>2026-05-03T07:40:52Z</time></trkpt><trkpt lat="39.83318483018875" lon="9.440333780641469"><ele>717.0</ele><time>2026-05-03T07:40:53Z</time></trkpt><trkpt lat="39.833109731165045" lon="9.440207340157533"><ele>717.0</ele><time>2026-05-03T07:40:54Z</time></trkpt><trkpt lat="39.83300527699341" lon="9.440100980189655"><ele>716.0</ele><time>2026-05-03T07:40:55Z</time></trkpt><trkpt lat="39.832886106207106" lon="9.439989779199868"><ele>715.0</ele><time>2026-05-03T07:40:56Z</time></trkpt><trkpt lat="39.832773788367746" lon="9.439841024240664"><ele>714.0</ele><time>2026-05-03T07:40:57Z</time></trkpt><trkpt lat="39.83266451531122" lon="9.439668844480117"><ele>713.0</ele><time>2026-05-03T07:40:58Z</time></trkpt><trkpt lat="39.83255312757415" lon="9.439480106074438"><ele>712.0</ele><time>2026-05-03T07:40:59Z</time></trkpt><trkpt lat="39.83243966562739" lon="9.43930695007304"><ele>711.0</ele><time>2026-05-03T07:41:00Z</time></trkpt><trkpt lat="39.832336215625496" lon="9.43914357965537"><ele>711.0</ele><time>2026-05-03T07:41:01Z</time></trkpt><trkpt lat="39.83224406965899" lon="9.438989592554544"><ele>711.0</ele><time>2026-05-03T07:41:02Z</time></trkpt><trkpt lat="39.83216276642752" lon="9.438842244268235"><ele>711.0</ele><time>2026-05-03T07:41:03Z</time></trkpt><trkpt lat="39.83210021770564" lon="9.438686085919551"><ele>711.0</ele><time>2026-05-03T07:41:04Z</time></trkpt><trkpt lat="39.832063006470044" lon="9.438520553196994"><ele>707.3333333333334</ele><time>2026-05-03T07:41:05Z</time></trkpt><trkpt lat="39.83205144676676" lon="9.43833656347761"><ele>703.6666666666667</ele><time>2026-05-03T07:41:06Z</time></trkpt><trkpt lat="39.83205862628291" lon="9.43813762753578"><ele>700.0</ele><time>2026-05-03T07:41:07Z</time></trkpt><trkpt lat="39.83208686938706" lon="9.437919117618794"><ele>698.3333333333334</ele><time>2026-05-03T07:41:08Z</time></trkpt><trkpt lat="39.83212193982277" lon="9.43767326340329"><ele>696.6666666666666</ele><time>2026-05-03T07:41:09Z</time></trkpt><trkpt lat="39.83214144889944" lon="9.43744638803448"><ele>695.0</ele><time>2026-05-03T07:41:10Z</time></trkpt><trkpt lat="39.832154946469515" lon="9.437201644066114"><ele>695.0</ele><time>2026-05-03T07:41:11Z</time></trkpt><trkpt lat="39.83216447982071" lon="9.436944806459268"><ele>695.0</ele><time>2026-05-03T07:41:12Z</time></trkpt><trkpt lat="39.83217551870711" lon="9.436696230565087"><ele>695.0</ele><time>2026-05-03T07:41:13Z</time></trkpt><trkpt lat="39.83217131897903" lon="9.436448609097889"><ele>695.0</ele><time>2026-05-03T07:41:13.999Z</time></trkpt><trkpt lat="39.83215799850598" lon="9.43619229938976"><ele>695.0</ele><time>2026-05-03T07:41:14.999Z</time></trkpt><trkpt lat="39.83212464315162" lon="9.435937273326266"><ele>695.0</ele><time>2026-05-03T07:41:15.999Z</time></trkpt><trkpt lat="39.83209365669882" lon="9.435698057867574"><ele>695.0</ele><time>2026-05-03T07:41:16.999Z</time></trkpt><trkpt lat="39.83206581211865" lon="9.435478913604008"><ele>695.0</ele><time>2026-05-03T07:41:17.999Z</time></trkpt><trkpt lat="39.832054698986845" lon="9.43527186778043"><ele>695.0</ele><time>2026-05-03T07:41:18.999Z</time></trkpt><trkpt lat="39.83206006092593" lon="9.435075570623844"><ele>694.75</ele><time>2026-05-03T07:41:19.999Z</time></trkpt><trkpt lat="39.83208421890916" lon="9.43489486780152"><ele>694.5</ele><time>2026-05-03T07:41:20.999Z</time></trkpt><trkpt lat="39.83213335285236" lon="9.434733807959889"><ele>694.25</ele><time>2026-05-03T07:41:21.999Z</time></trkpt><trkpt lat="39.83220946847954" lon="9.434595232353248"><ele>694.0</ele><time>2026-05-03T07:41:22.999Z</time></trkpt><trkpt lat="39.83229256217773" lon="9.434473873270793"><ele>694.0</ele><time>2026-05-03T07:41:23.999Z</time></trkpt><trkpt lat="39.83234646621318" lon="9.434346818011797"><ele>694.0</ele><time>2026-05-03T07:41:24.999Z</time></trkpt><trkpt lat="39.83237452280742" lon="9.43419376066549"><ele>694.0</ele><time>2026-05-03T07:41:25.999Z</time></trkpt><trkpt lat="39.83236488352044" lon="9.434034617542673"><ele>694.0</ele><time>2026-05-03T07:41:26.999Z</time></trkpt><trkpt lat="39.83235927069262" lon="9.433872827919165"><ele>695.5</ele><time>2026-05-03T07:41:27.999Z</time></trkpt><trkpt lat="39.83237846501204" lon="9.433721348300617"><ele>697.0</ele><time>2026-05-03T07:41:29Z</time></trkpt><trkpt lat="39.83242505836715" lon="9.433580377302818"><ele>698.5</ele><time>2026-05-03T07:41:30Z</time></trkpt><trkpt lat="39.83249812853448" lon="9.43343995850939"><ele>700.0</ele><time>2026-05-03T07:41:31Z</time></trkpt><trkpt lat="39.832577616887626" lon="9.433304445555377"><ele>696.25</ele><time>2026-05-03T07:41:32Z</time></trkpt><trkpt lat="39.83265717245998" lon="9.433178488715011"><ele>692.5</ele><time>2026-05-03T07:41:33Z</time></trkpt><trkpt lat="39.832728681595746" lon="9.43305998434275"><ele>688.75</ele><time>2026-05-03T07:41:34Z</time></trkpt><trkpt lat="39.83279260791722" lon="9.432940117900936"><ele>685.0</ele><time>2026-05-03T07:41:35Z</time></trkpt><trkpt lat="39.83283249486412" lon="9.43281426204988"><ele>685.0</ele><time>2026-05-03T07:41:36Z</time></trkpt><trkpt lat="39.8328477547417" lon="9.432685224564922"><ele>685.0</ele><time>2026-05-03T07:41:37Z</time></trkpt><trkpt lat="39.832839639929624" lon="9.432541057914342"><ele>685.0</ele><time>2026-05-03T07:41:38Z</time></trkpt><trkpt lat="39.83281490969233" lon="9.432395132705432"><ele>685.0</ele><time>2026-05-03T07:41:39Z</time></trkpt><trkpt lat="39.83279832242075" lon="9.432236433739243"><ele>685.0</ele><time>2026-05-03T07:41:40Z</time></trkpt><trkpt lat="39.83280743341665" lon="9.43206436120252"><ele>684.75</ele><time>2026-05-03T07:41:41Z</time></trkpt><trkpt lat="39.83283342346622" lon="9.431882601309603"><ele>684.5</ele><time>2026-05-03T07:41:42Z</time></trkpt><trkpt lat="39.83285990098323" lon="9.431698119061334"><ele>684.25</ele><time>2026-05-03T07:41:43Z</time></trkpt><trkpt lat="39.8328882290338" lon="9.431521070973"><ele>684.0</ele><time>2026-05-03T07:41:44Z</time></trkpt><trkpt lat="39.83292125435745" lon="9.431336729777362"><ele>683.0</ele><time>2026-05-03T07:41:45Z</time></trkpt><trkpt lat="39.832923103655745" lon="9.431149646036909"><ele>682.0</ele><time>2026-05-03T07:41:46Z</time></trkpt><trkpt lat="39.83291005915046" lon="9.430965945920345"><ele>681.0</ele><time>2026-05-03T07:41:47Z</time></trkpt><trkpt lat="39.832878382031254" lon="9.430789140482371"><ele>680.0</ele><time>2026-05-03T07:41:48Z</time></trkpt><trkpt lat="39.83284847551007" lon="9.430616967399281"><ele>679.25</ele><time>2026-05-03T07:41:49Z</time></trkpt><trkpt lat="39.83284612190344" lon="9.430452584150135"><ele>678.5</ele><time>2026-05-03T07:41:50Z</time></trkpt><trkpt lat="39.8328776498617" lon="9.430288899498137"><ele>677.75</ele><time>2026-05-03T07:41:51Z</time></trkpt><trkpt lat="39.83293234039484" lon="9.430123182648495"><ele>677.0</ele><time>2026-05-03T07:41:52Z</time></trkpt><trkpt lat="39.83300462568247" lon="9.42994975647107"><ele>677.0</ele><time>2026-05-03T07:41:53Z</time></trkpt><trkpt lat="39.83303140319933" lon="9.42976635711715"><ele>677.0</ele><time>2026-05-03T07:41:54Z</time></trkpt><trkpt lat="39.833040060217094" lon="9.429583099529014"><ele>677.0</ele><time>2026-05-03T07:41:55Z</time></trkpt><trkpt lat="39.833092306884126" lon="9.429406590710743"><ele>677.0</ele><time>2026-05-03T07:41:56Z</time></trkpt><trkpt lat="39.83317086902938" lon="9.429255727333413"><ele>677.6666666666666</ele><time>2026-05-03T07:41:57Z</time></trkpt><trkpt lat="39.83325445852043" lon="9.429084860469493"><ele>678.3333333333334</ele><time>2026-05-03T07:41:58Z</time></trkpt><trkpt lat="39.83332062794295" lon="9.42888965245739"><ele>679.0</ele><time>2026-05-03T07:41:59Z</time></trkpt><trkpt lat="39.83338947654896" lon="9.428675064148008"><ele>677.0</ele><time>2026-05-03T07:42:00Z</time></trkpt><trkpt lat="39.833468103807874" lon="9.428461571608878"><ele>675.0</ele><time>2026-05-03T07:42:01Z</time></trkpt><trkpt lat="39.833567741903046" lon="9.428247954211166"><ele>673.0</ele><time>2026-05-03T07:42:02Z</time></trkpt><trkpt lat="39.833663223494305" lon="9.428049365328022"><ele>674.3333333333334</ele><time>2026-05-03T07:42:03Z</time></trkpt><trkpt lat="39.83375873314322" lon="9.427861363788702"><ele>675.6666666666666</ele><time>2026-05-03T07:42:04Z</time></trkpt><trkpt lat="39.83386112635677" lon="9.42768635481889"><ele>677.0</ele><time>2026-05-03T07:42:05Z</time></trkpt><trkpt lat="39.83396812333222" lon="9.427527823480709"><ele>677.0</ele><time>2026-05-03T07:42:06Z</time></trkpt><trkpt lat="39.83407022854603" lon="9.427375229601582"><ele>677.0</ele><time>2026-05-03T07:42:07Z</time></trkpt><trkpt lat="39.834163610675425" lon="9.42721688067664"><ele>677.0</ele><time>2026-05-03T07:42:08Z</time></trkpt><trkpt lat="39.834242669221" lon="9.42706486218189"><ele>678.75</ele><time>2026-05-03T07:42:09Z</time></trkpt><trkpt lat="39.83430786272601" lon="9.426918777524023"><ele>680.5</ele><time>2026-05-03T07:42:10Z</time></trkpt><trkpt lat="39.83435707636912" lon="9.426781463712896"><ele>682.25</ele><time>2026-05-03T07:42:11Z</time></trkpt><trkpt lat="39.8343615818294" lon="9.426636626724555"><ele>684.0</ele><time>2026-05-03T07:42:12Z</time></trkpt><trkpt lat="39.834348161667855" lon="9.426500157524957"><ele>684.0</ele><time>2026-05-03T07:42:13Z</time></trkpt><trkpt lat="39.834332398823484" lon="9.42635826671311"><ele>684.0</ele><time>2026-05-03T07:42:14Z</time></trkpt><trkpt lat="39.83431327205387" lon="9.426179431795969"><ele>684.0</ele><time>2026-05-03T07:42:15Z</time></trkpt><trkpt lat="39.83429628572229" lon="9.426028508992278"><ele>684.0</ele><time>2026-05-03T07:42:16Z</time></trkpt><trkpt lat="39.8342718630321" lon="9.425885494759067"><ele>680.0</ele><time>2026-05-03T07:42:17Z</time></trkpt><trkpt lat="39.83421022294195" lon="9.425650025416958"><ele>676.0</ele><time>2026-05-03T07:42:18Z</time></trkpt><trkpt lat="39.83409161987377" lon="9.425486571657443"><ele>672.0</ele><time>2026-05-03T07:42:19Z</time></trkpt><trkpt lat="39.83401256615241" lon="9.425329549409184"><ele>669.25</ele><time>2026-05-03T07:42:20Z</time></trkpt><trkpt lat="39.83395430792689" lon="9.425161961482647"><ele>666.5</ele><time>2026-05-03T07:42:21Z</time></trkpt><trkpt lat="39.83391507641229" lon="9.424986477301742"><ele>663.75</ele><time>2026-05-03T07:42:22Z</time></trkpt><trkpt lat="39.83389758539878" lon="9.424814906289171"><ele>661.0</ele><time>2026-05-03T07:42:23Z</time></trkpt><trkpt lat="39.833905229297585" lon="9.424663708316457"><ele>659.4</ele><time>2026-05-03T07:42:24Z</time></trkpt><trkpt lat="39.83394256452818" lon="9.4245235295835"><ele>657.8</ele><time>2026-05-03T07:42:25Z</time></trkpt><trkpt lat="39.834005418419125" lon="9.424417520259212"><ele>656.1999999999999</ele><time>2026-05-03T07:42:26Z</time></trkpt><trkpt lat="39.83408562005314" lon="9.424304421094595"><ele>654.5999999999999</ele><time>2026-05-03T07:42:27Z</time></trkpt><trkpt lat="39.83415315100457" lon="9.424196738176626"><ele>653.0</ele><time>2026-05-03T07:42:28Z</time></trkpt><trkpt lat="39.83418019147294" lon="9.424088889658039"><ele>653.0</ele><time>2026-05-03T07:42:29Z</time></trkpt><trkpt lat="39.83417572240199" lon="9.423988743737562"><ele>653.0</ele><time>2026-05-03T07:42:30Z</time></trkpt><trkpt lat="39.83418161894555" lon="9.42385665270475"><ele>653.0</ele><time>2026-05-03T07:42:31Z</time></trkpt><trkpt lat="39.83411082471466" lon="9.423658851876795"><ele>653.0</ele><time>2026-05-03T07:42:32Z</time></trkpt><trkpt lat="39.834055823121794" lon="9.423482621420609"><ele>652.5</ele><time>2026-05-03T07:42:33Z</time></trkpt><trkpt lat="39.834039931830645" lon="9.42330515461699"><ele>652.0</ele><time>2026-05-03T07:42:34Z</time></trkpt><trkpt lat="39.8340536923045" lon="9.423133446283472"><ele>651.5</ele><time>2026-05-03T07:42:35Z</time></trkpt><trkpt lat="39.834094843452604" lon="9.422926928899505"><ele>651.0</ele><time>2026-05-03T07:42:36Z</time></trkpt><trkpt lat="39.83414006650734" lon="9.422709274252364"><ele>650.25</ele><time>2026-05-03T07:42:37Z</time></trkpt><trkpt lat="39.83418189179137" lon="9.422507159986118"><ele>649.5</ele><time>2026-05-03T07:42:38Z</time></trkpt><trkpt lat="39.834213423263755" lon="9.422316723681606"><ele>648.75</ele><time>2026-05-03T07:42:39Z</time></trkpt><trkpt lat="39.83424715961293" lon="9.422142301057614"><ele>648.0</ele><time>2026-05-03T07:42:40Z</time></trkpt><trkpt lat="39.834254601608414" lon="9.421967085924631"><ele>647.0</ele><time>2026-05-03T07:42:41Z</time></trkpt><trkpt lat="39.83421697923003" lon="9.421783058856482"><ele>646.0</ele><time>2026-05-03T07:42:42Z</time></trkpt><trkpt lat="39.834157856719855" lon="9.42157863720392"><ele>645.0</ele><time>2026-05-03T07:42:43Z</time></trkpt><trkpt lat="39.8340961510469" lon="9.421363655986118"><ele>642.5</ele><time>2026-05-03T07:42:44Z</time></trkpt><trkpt lat="39.834050785025504" lon="9.42116876359776"><ele>640.0</ele><time>2026-05-03T07:42:45Z</time></trkpt><trkpt lat="39.834019308801906" lon="9.420984093444703"><ele>637.5</ele><time>2026-05-03T07:42:46Z</time></trkpt><trkpt lat="39.83401029827289" lon="9.420801673296316"><ele>635.0</ele><time>2026-05-03T07:42:47Z</time></trkpt><trkpt lat="39.834006540842545" lon="9.420633745425137"><ele>632.25</ele><time>2026-05-03T07:42:48Z</time></trkpt><trkpt lat="39.8340123365714" lon="9.42046712898731"><ele>629.5</ele><time>2026-05-03T07:42:49Z</time></trkpt><trkpt lat="39.833962569888264" lon="9.420317322977693"><ele>626.75</ele><time>2026-05-03T07:42:50Z</time></trkpt><trkpt lat="39.83387157122662" lon="9.420229489535428"><ele>624.0</ele><time>2026-05-03T07:42:51Z</time></trkpt><trkpt lat="39.833758397187" lon="9.420155739846727"><ele>624.0</ele><time>2026-05-03T07:42:52Z</time></trkpt><trkpt lat="39.833624204244224" lon="9.420080690599608"><ele>624.0</ele><time>2026-05-03T07:42:53Z</time></trkpt><trkpt lat="39.83347966714452" lon="9.420000352116086"><ele>624.0</ele><time>2026-05-03T07:42:54Z</time></trkpt><trkpt lat="39.833356885582184" lon="9.41993188816221"><ele>624.0</ele><time>2026-05-03T07:42:55Z</time></trkpt><trkpt lat="39.83323949295954" lon="9.419860438372439"><ele>621.3333333333334</ele><time>2026-05-03T07:42:56Z</time></trkpt><trkpt lat="39.83312261348493" lon="9.419762369289852"><ele>618.6666666666667</ele><time>2026-05-03T07:42:57Z</time></trkpt><trkpt lat="39.83304856141546" lon="9.419592855348887"><ele>616.0</ele><time>2026-05-03T07:42:58Z</time></trkpt><trkpt lat="39.83297835458881" lon="9.419396752658587"><ele>616.0</ele><time>2026-05-03T07:42:59Z</time></trkpt><trkpt lat="39.832895225897666" lon="9.419217071569102"><ele>616.0</ele><time>2026-05-03T07:43:00Z</time></trkpt><trkpt lat="39.83283399571049" lon="9.41905243120068"><ele>616.0</ele><time>2026-05-03T07:43:01Z</time></trkpt><trkpt lat="39.83277264605399" lon="9.418837919711256"><ele>620.3333333333334</ele><time>2026-05-03T07:43:02Z</time></trkpt><trkpt lat="39.83269084392346" lon="9.418616052359736"><ele>624.6666666666666</ele><time>2026-05-03T07:43:03Z</time></trkpt><trkpt lat="39.832616124360285" lon="9.418413394494236"><ele>629.0</ele><time>2026-05-03T07:43:04Z</time></trkpt><trkpt lat="39.83253511058419" lon="9.418234053787945"><ele>629.0</ele><time>2026-05-03T07:43:05Z</time></trkpt><trkpt lat="39.83248471543749" lon="9.418058499374462"><ele>629.0</ele><time>2026-05-03T07:43:06Z</time></trkpt><trkpt lat="39.83241296603517" lon="9.417904824385271"><ele>629.0</ele><time>2026-05-03T07:43:07Z</time></trkpt><trkpt lat="39.83231394600583" lon="9.417772102708813"><ele>629.0</ele><time>2026-05-03T07:43:08Z</time></trkpt><trkpt lat="39.832192696916636" lon="9.417670536729226"><ele>626.0</ele><time>2026-05-03T07:43:09Z</time></trkpt><trkpt lat="39.832096429194145" lon="9.417574650816492"><ele>623.0</ele><time>2026-05-03T07:43:10Z</time></trkpt><trkpt lat="39.83201259065029" lon="9.417488768935584"><ele>620.0</ele><time>2026-05-03T07:43:11Z</time></trkpt><trkpt lat="39.831966293101175" lon="9.417348646605856"><ele>617.0</ele><time>2026-05-03T07:43:12Z</time></trkpt><trkpt lat="39.831950828771745" lon="9.41719091691657"><ele>614.25</ele><time>2026-05-03T07:43:13Z</time></trkpt><trkpt lat="39.831975328257855" lon="9.417021369648419"><ele>611.5</ele><time>2026-05-03T07:43:14Z</time></trkpt><trkpt lat="39.832024585522255" lon="9.416841956129279"><ele>608.75</ele><time>2026-05-03T07:43:15Z</time></trkpt><trkpt lat="39.83207257397085" lon="9.416682218300384"><ele>606.0</ele><time>2026-05-03T07:43:16Z</time></trkpt><trkpt lat="39.83208617895243" lon="9.41654112273148"><ele>606.0</ele><time>2026-05-03T07:43:17Z</time></trkpt><trkpt lat="39.832101146022545" lon="9.416385178771817"><ele>606.0</ele><time>2026-05-03T07:43:18Z</time></trkpt><trkpt lat="39.83206120408247" lon="9.416239528138881"><ele>606.0</ele><time>2026-05-03T07:43:19Z</time></trkpt><trkpt lat="39.83197892382687" lon="9.41612770811695"><ele>606.0</ele><time>2026-05-03T07:43:20.001Z</time></trkpt><trkpt lat="39.83186572797606" lon="9.416045351704827"><ele>607.0</ele><time>2026-05-03T07:43:21.001Z</time></trkpt><trkpt lat="39.83172285360519" lon="9.415975671297645"><ele>608.0</ele><time>2026-05-03T07:43:22.001Z</time></trkpt><trkpt lat="39.83157844054791" lon="9.415915942186414"><ele>609.0</ele><time>2026-05-03T07:43:23.001Z</time></trkpt><trkpt lat="39.83143920943703" lon="9.415866674714707"><ele>610.0</ele><time>2026-05-03T07:43:24.001Z</time></trkpt><trkpt lat="39.83132015278767" lon="9.415821614492073"><ele>610.0</ele><time>2026-05-03T07:43:25.001Z</time></trkpt><trkpt lat="39.83121349835646" lon="9.415774987963793"><ele>610.0</ele><time>2026-05-03T07:43:26.001Z</time></trkpt><trkpt lat="39.831127091482685" lon="9.415656710424633"><ele>610.0</ele><time>2026-05-03T07:43:27.001Z</time></trkpt><trkpt lat="39.83105599896792" lon="9.415495785824387"><ele>610.0</ele><time>2026-05-03T07:43:28.001Z</time></trkpt><trkpt lat="39.830995600164144" lon="9.415308568525505"><ele>608.75</ele><time>2026-05-03T07:43:29.001Z</time></trkpt><trkpt lat="39.830933904815964" lon="9.415126279867387"><ele>607.5</ele><time>2026-05-03T07:43:30.001Z</time></trkpt><trkpt lat="39.83088959946708" lon="9.414946725383965"><ele>606.25</ele><time>2026-05-03T07:43:31.001Z</time></trkpt><trkpt lat="39.83086611801587" lon="9.414759137631094"><ele>605.0</ele><time>2026-05-03T07:43:32.001Z</time></trkpt><trkpt lat="39.83087296902185" lon="9.414549337704784"><ele>605.0</ele><time>2026-05-03T07:43:33.001Z</time></trkpt><trkpt lat="39.83087753751706" lon="9.414346862659183"><ele>605.0</ele><time>2026-05-03T07:43:34.001Z</time></trkpt><trkpt lat="39.83086617006484" lon="9.414129528024079"><ele>605.0</ele><time>2026-05-03T07:43:35.001Z</time></trkpt><trkpt lat="39.830830059800796" lon="9.413912370511927"><ele>600.3333333333333</ele><time>2026-05-03T07:43:36.001Z</time></trkpt><trkpt lat="39.83077843203763" lon="9.413700425076911"><ele>595.6666666666666</ele><time>2026-05-03T07:43:37.001Z</time></trkpt><trkpt lat="39.830730069459065" lon="9.413509724694567"><ele>591.0</ele><time>2026-05-03T07:43:38.001Z</time></trkpt><trkpt lat="39.83068638968064" lon="9.413337486699886"><ele>591.0</ele><time>2026-05-03T07:43:39.001Z</time></trkpt><trkpt lat="39.83064709717661" lon="9.413173953060149"><ele>591.0</ele><time>2026-05-03T07:43:40.001Z</time></trkpt><trkpt lat="39.830575684119935" lon="9.413034714655545"><ele>591.0</ele><time>2026-05-03T07:43:41.001Z</time></trkpt><trkpt lat="39.83046230479579" lon="9.412921045993004"><ele>591.0</ele><time>2026-05-03T07:43:42.001Z</time></trkpt><trkpt lat="39.83032086402562" lon="9.412837919139013"><ele>592.0</ele><time>2026-05-03T07:43:43.001Z</time></trkpt><trkpt lat="39.830174692512045" lon="9.41276100579552"><ele>593.0</ele><time>2026-05-03T07:43:44.001Z</time></trkpt><trkpt lat="39.830041095200606" lon="9.412694426423004"><ele>594.0</ele><time>2026-05-03T07:43:45.001Z</time></trkpt><trkpt lat="39.82993071546083" lon="9.412642627395387"><ele>595.0</ele><time>2026-05-03T07:43:46.001Z</time></trkpt><trkpt lat="39.82983981073676" lon="9.412579293624532"><ele>595.0</ele><time>2026-05-03T07:43:47.001Z</time></trkpt><trkpt lat="39.82979141934623" lon="9.412458321112226"><ele>595.0</ele><time>2026-05-03T07:43:48.001Z</time></trkpt><trkpt lat="39.82978902791856" lon="9.412333738555683"><ele>595.0</ele><time>2026-05-03T07:43:49.001Z</time></trkpt><trkpt lat="39.82980925464864" lon="9.412185844779398"><ele>595.0</ele><time>2026-05-03T07:43:50.001Z</time></trkpt><trkpt lat="39.829863648887724" lon="9.41201063525853"><ele>594.3333333333334</ele><time>2026-05-03T07:43:51.001Z</time></trkpt><trkpt lat="39.829929620013566" lon="9.411814858279527"><ele>593.6666666666666</ele><time>2026-05-03T07:43:52.001Z</time></trkpt><trkpt lat="39.830004208815616" lon="9.411600581554493"><ele>593.0</ele><time>2026-05-03T07:43:53.001Z</time></trkpt><trkpt lat="39.83006317863668" lon="9.41138660734229"><ele>593.3333333333333</ele><time>2026-05-03T07:43:54.001Z</time></trkpt><trkpt lat="39.830121244213274" lon="9.411177383638929"><ele>593.6666666666666</ele><time>2026-05-03T07:43:55.001Z</time></trkpt><trkpt lat="39.83016758536859" lon="9.410966096155766"><ele>594.0</ele><time>2026-05-03T07:43:56.001Z</time></trkpt><trkpt lat="39.830168439975395" lon="9.410754585288725"><ele>583.75</ele><time>2026-05-03T07:43:57.001Z</time></trkpt><trkpt lat="39.83018681845825" lon="9.410553102961806"><ele>573.5</ele><time>2026-05-03T07:43:58.001Z</time></trkpt><trkpt lat="39.83019737761016" lon="9.410365579143702"><ele>563.25</ele><time>2026-05-03T07:43:59.001Z</time></trkpt><trkpt lat="39.83019312280554" lon="9.410186967857301"><ele>553.0</ele><time>2026-05-03T07:44:00.001Z</time></trkpt><trkpt lat="39.83017890855385" lon="9.410021777332727"><ele>554.25</ele><time>2026-05-03T07:44:01.001Z</time></trkpt><trkpt lat="39.8301059949375" lon="9.409881601719775"><ele>555.5</ele><time>2026-05-03T07:44:02.001Z</time></trkpt><trkpt lat="39.83004005154407" lon="9.409743662593689"><ele>556.75</ele><time>2026-05-03T07:44:03.001Z</time></trkpt><trkpt lat="39.82993895985621" lon="9.409642791521268"><ele>558.0</ele><time>2026-05-03T07:44:04.001Z</time></trkpt><trkpt lat="39.82981649945499" lon="9.40960047345711"><ele>558.0</ele><time>2026-05-03T07:44:05.001Z</time></trkpt><trkpt lat="39.82970583443436" lon="9.409578705211786"><ele>558.0</ele><time>2026-05-03T07:44:06.001Z</time></trkpt><trkpt lat="39.829621236872384" lon="9.409565398328146"><ele>558.0</ele><time>2026-05-03T07:44:07.001Z</time></trkpt><trkpt lat="39.82953497282237" lon="9.409493167062758"><ele>558.0</ele><time>2026-05-03T07:44:09.001Z</time></trkpt><trkpt lat="39.82958786410579" lon="9.40938127567333"><ele>558.0</ele><time>2026-05-03T07:44:11.001Z</time></trkpt><trkpt lat="39.82965609281311" lon="9.409375934678655"><ele>558.0</ele><time>2026-05-03T07:44:12.001Z</time></trkpt><trkpt lat="39.829742551681804" lon="9.409403503733113"><ele>558.0</ele><time>2026-05-03T07:44:13.001Z</time></trkpt><trkpt lat="39.82985089339016" lon="9.409451818217937"><ele>558.0</ele><time>2026-05-03T07:44:14.001Z</time></trkpt><trkpt lat="39.82997388198856" lon="9.40950357562027"><ele>558.0</ele><time>2026-05-03T07:44:15.001Z</time></trkpt><trkpt lat="39.830109177839276" lon="9.40956498451938"><ele>556.75</ele><time>2026-05-03T07:44:16.001Z</time></trkpt><trkpt lat="39.83023382269636" lon="9.409640579013658"><ele>555.5</ele><time>2026-05-03T07:44:17.001Z</time></trkpt><trkpt lat="39.830337989642096" lon="9.409749218250079"><ele>554.25</ele><time>2026-05-03T07:44:18.001Z</time></trkpt><trkpt lat="39.83041393014087" lon="9.409881492236822"><ele>553.0</ele><time>2026-05-03T07:44:19.001Z</time></trkpt><trkpt lat="39.830468664656415" lon="9.410054659002332"><ele>553.0</ele><time>2026-05-03T07:44:20.001Z</time></trkpt><trkpt lat="39.83050990242376" lon="9.410247189845583"><ele>553.0</ele><time>2026-05-03T07:44:21.001Z</time></trkpt><trkpt lat="39.83054702347872" lon="9.410452416397849"><ele>553.0</ele><time>2026-05-03T07:44:22.001Z</time></trkpt><trkpt lat="39.83055843353328" lon="9.410678952290024"><ele>552.75</ele><time>2026-05-03T07:44:23.001Z</time></trkpt><trkpt lat="39.830574096945824" lon="9.41088172011032"><ele>552.5</ele><time>2026-05-03T07:44:24.001Z</time></trkpt><trkpt lat="39.83059239485066" lon="9.411058390515514"><ele>552.25</ele><time>2026-05-03T07:44:25.001Z</time></trkpt><trkpt lat="39.830590158199705" lon="9.411236821477923"><ele>552.0</ele><time>2026-05-03T07:44:26.001Z</time></trkpt><trkpt lat="39.83055119531338" lon="9.411396416534835"><ele>552.4</ele><time>2026-05-03T07:44:27.001Z</time></trkpt><trkpt lat="39.83050756742718" lon="9.41154454125534"><ele>552.8000000000001</ele><time>2026-05-03T07:44:28.001Z</time></trkpt><trkpt lat="39.83046971156991" lon="9.411684701041947"><ele>553.2</ele><time>2026-05-03T07:44:29.001Z</time></trkpt><trkpt lat="39.8304750057723" lon="9.41182059866749"><ele>553.6</ele><time>2026-05-03T07:44:30.001Z</time></trkpt><trkpt lat="39.830530975518634" lon="9.41193142620956"><ele>554.0</ele><time>2026-05-03T07:44:31.001Z</time></trkpt><trkpt lat="39.83060791023021" lon="9.412014754144808"><ele>554.0</ele><time>2026-05-03T07:44:32.001Z</time></trkpt><trkpt lat="39.83071916850694" lon="9.412073014639223"><ele>554.0</ele><time>2026-05-03T07:44:33.001Z</time></trkpt><trkpt lat="39.830853146860825" lon="9.41212107742352"><ele>554.0</ele><time>2026-05-03T07:44:34.001Z</time></trkpt><trkpt lat="39.830966002686246" lon="9.41216822937412"><ele>554.0</ele><time>2026-05-03T07:44:35.001Z</time></trkpt><trkpt lat="39.83106199600486" lon="9.412220891666799"><ele>548.75</ele><time>2026-05-03T07:44:36.001Z</time></trkpt><trkpt lat="39.83114326806818" lon="9.412302356072896"><ele>543.5</ele><time>2026-05-03T07:44:37.001Z</time></trkpt><trkpt lat="39.831191844108" lon="9.41242239650522"><ele>538.25</ele><time>2026-05-03T07:44:38.001Z</time></trkpt><trkpt lat="39.83124748424174" lon="9.412584155044069"><ele>533.0</ele><time>2026-05-03T07:44:39.001Z</time></trkpt><trkpt lat="39.83131035335425" lon="9.412756150998895"><ele>533.0</ele><time>2026-05-03T07:44:40.001Z</time></trkpt><trkpt lat="39.83136629182749" lon="9.412930597415023"><ele>533.0</ele><time>2026-05-03T07:44:41.001Z</time></trkpt><trkpt lat="39.831447408599736" lon="9.413134381856835"><ele>533.0</ele><time>2026-05-03T07:44:42.001Z</time></trkpt><trkpt lat="39.83151496618666" lon="9.413326377246593"><ele>537.25</ele><time>2026-05-03T07:44:43.001Z</time></trkpt><trkpt lat="39.83156356098111" lon="9.413508876492953"><ele>541.5</ele><time>2026-05-03T07:44:44.001Z</time></trkpt><trkpt lat="39.8315971101845" lon="9.413669694850633"><ele>545.75</ele><time>2026-05-03T07:44:45.001Z</time></trkpt><trkpt lat="39.83163399804644" lon="9.413818332338334"><ele>550.0</ele><time>2026-05-03T07:44:46.001Z</time></trkpt><trkpt lat="39.83166831301348" lon="9.41393986564612"><ele>549.6</ele><time>2026-05-03T07:44:47.001Z</time></trkpt><trkpt lat="39.83172330303748" lon="9.414006981635177"><ele>549.2</ele><time>2026-05-03T07:44:48.001Z</time></trkpt><trkpt lat="39.8318401941315" lon="9.413969463000068"><ele>548.8</ele><time>2026-05-03T07:44:50.001Z</time></trkpt><trkpt lat="39.83186725992466" lon="9.41388734288585"><ele>548.4</ele><time>2026-05-03T07:44:51.001Z</time></trkpt><trkpt lat="39.83186450110244" lon="9.413772556502659"><ele>548.0</ele><time>2026-05-03T07:44:52.001Z</time></trkpt><trkpt lat="39.831835473281146" lon="9.413630204984766"><ele>548.5</ele><time>2026-05-03T07:44:53.001Z</time></trkpt><trkpt lat="39.83178762569089" lon="9.413473471727007"><ele>549.0</ele><time>2026-05-03T07:44:54.001Z</time></trkpt><trkpt lat="39.8317189014191" lon="9.413302968813388"><ele>549.5</ele><time>2026-05-03T07:44:55.001Z</time></trkpt><trkpt lat="39.83165026283811" lon="9.413134352070212"><ele>550.0</ele><time>2026-05-03T07:44:56.001Z</time></trkpt><trkpt lat="39.83159735798198" lon="9.41295705416166"><ele>544.3333333333334</ele><time>2026-05-03T07:44:57.001Z</time></trkpt><trkpt lat="39.831557841824186" lon="9.412764795805264"><ele>538.6666666666666</ele><time>2026-05-03T07:44:58.001Z</time></trkpt><trkpt lat="39.83153771227686" lon="9.412574534053338"><ele>533.0</ele><time>2026-05-03T07:44:59.001Z</time></trkpt><trkpt lat="39.83154205441928" lon="9.412348794819763"><ele>531.5</ele><time>2026-05-03T07:45:00.001Z</time></trkpt><trkpt lat="39.83156562098232" lon="9.412137415448848"><ele>530.0</ele><time>2026-05-03T07:45:01.001Z</time></trkpt><trkpt lat="39.831574349734424" lon="9.41194990154534"><ele>528.5</ele><time>2026-05-03T07:45:02.001Z</time></trkpt><trkpt lat="39.83158299963798" lon="9.411806512168337"><ele>527.0</ele><time>2026-05-03T07:45:03.001Z</time></trkpt><trkpt lat="39.83156625869539" lon="9.411676037723987"><ele>527.0</ele><time>2026-05-03T07:45:04.001Z</time></trkpt><trkpt lat="39.83153469919962" lon="9.411542363115208"><ele>527.0</ele><time>2026-05-03T07:45:05.001Z</time></trkpt><trkpt lat="39.83143467170284" lon="9.411474076760006"><ele>527.0</ele><time>2026-05-03T07:45:06.001Z</time></trkpt><trkpt lat="39.83135187670207" lon="9.411398205018344"><ele>527.0</ele><time>2026-05-03T07:45:07.001Z</time></trkpt><trkpt lat="39.83129617871721" lon="9.411300969881832"><ele>527.0</ele><time>2026-05-03T07:45:08.001Z</time></trkpt><trkpt lat="39.831275602305396" lon="9.411187067796988"><ele>525.5</ele><time>2026-05-03T07:45:09.001Z</time></trkpt><trkpt lat="39.83130344543328" lon="9.411079750054759"><ele>524.0</ele><time>2026-05-03T07:45:10.001Z</time></trkpt><trkpt lat="39.831357304831236" lon="9.41096640169933"><ele>522.5</ele><time>2026-05-03T07:45:11.001Z</time></trkpt><trkpt lat="39.83142421131121" lon="9.41083283851224"><ele>521.0</ele><time>2026-05-03T07:45:12.001Z</time></trkpt><trkpt lat="39.83149055889218" lon="9.410674349067985"><ele>521.0</ele><time>2026-05-03T07:45:13.001Z</time></trkpt><trkpt lat="39.83152534143595" lon="9.41052534008973"><ele>521.0</ele><time>2026-05-03T07:45:14.001Z</time></trkpt><trkpt lat="39.83154015002264" lon="9.410358967157002"><ele>521.0</ele><time>2026-05-03T07:45:15.001Z</time></trkpt><trkpt lat="39.831518971171334" lon="9.410181797701554"><ele>521.0</ele><time>2026-05-03T07:45:16.001Z</time></trkpt><trkpt lat="39.831504681058" lon="9.409993867169225"><ele>519.75</ele><time>2026-05-03T07:45:17.001Z</time></trkpt><trkpt lat="39.83146818212075" lon="9.409824270684796"><ele>518.5</ele><time>2026-05-03T07:45:18.001Z</time></trkpt><trkpt lat="39.83148305531588" lon="9.409643309612386"><ele>517.25</ele><time>2026-05-03T07:45:19.001Z</time></trkpt><trkpt lat="39.83150047474484" lon="9.409461941591857"><ele>516.0</ele><time>2026-05-03T07:45:20.001Z</time></trkpt><trkpt lat="39.831537085551474" lon="9.409308853620729"><ele>515.5</ele><time>2026-05-03T07:45:21.001Z</time></trkpt><trkpt lat="39.8315971723258" lon="9.40917184418999"><ele>515.0</ele><time>2026-05-03T07:45:22.001Z</time></trkpt><trkpt lat="39.83167457928102" lon="9.409037041297829"><ele>514.5</ele><time>2026-05-03T07:45:23.001Z</time></trkpt><trkpt lat="39.8317817726717" lon="9.408910697523407"><ele>514.0</ele><time>2026-05-03T07:45:24.001Z</time></trkpt><trkpt lat="39.83187284591365" lon="9.408774272259183"><ele>511.5</ele><time>2026-05-03T07:45:25.001Z</time></trkpt><trkpt lat="39.83194399772198" lon="9.40860135730094"><ele>509.0</ele><time>2026-05-03T07:45:26.001Z</time></trkpt><trkpt lat="39.8319871522451" lon="9.408427983739223"><ele>506.5</ele><time>2026-05-03T07:45:27.001Z</time></trkpt><trkpt lat="39.83200191033143" lon="9.408252002600932"><ele>504.0</ele><time>2026-05-03T07:45:28.001Z</time></trkpt><trkpt lat="39.832014515259885" lon="9.408070229550242"><ele>503.0</ele><time>2026-05-03T07:45:29.001Z</time></trkpt><trkpt lat="39.83200824050374" lon="9.40789815672781"><ele>502.0</ele><time>2026-05-03T07:45:30.001Z</time></trkpt><trkpt lat="39.83199589907849" lon="9.407730217784717"><ele>501.0</ele><time>2026-05-03T07:45:31.001Z</time></trkpt><trkpt lat="39.831970203308394" lon="9.407573716125256"><ele>500.0</ele><time>2026-05-03T07:45:32.001Z</time></trkpt><trkpt lat="39.83193742333077" lon="9.4074321891027"><ele>500.0</ele><time>2026-05-03T07:45:33.001Z</time></trkpt><trkpt lat="39.8318956003548" lon="9.407320647510545"><ele>500.0</ele><time>2026-05-03T07:45:34.001Z</time></trkpt><trkpt lat="39.83183723224104" lon="9.40722713428292"><ele>500.0</ele><time>2026-05-03T07:45:35.001Z</time></trkpt><trkpt lat="39.83173699157814" lon="9.407179934721956"><ele>500.0</ele><time>2026-05-03T07:45:36.001Z</time></trkpt><trkpt lat="39.83161951017075" lon="9.407166898330507"><ele>500.0</ele><time>2026-05-03T07:45:37.001Z</time></trkpt><trkpt lat="39.831520545458616" lon="9.40714421001935"><ele>498.5</ele><time>2026-05-03T07:45:38.001Z</time></trkpt><trkpt lat="39.83144867201466" lon="9.407106850561894"><ele>497.0</ele><time>2026-05-03T07:45:39.001Z</time></trkpt><trkpt lat="39.83139395306836" lon="9.407059388054332"><ele>495.5</ele><time>2026-05-03T07:45:40.001Z</time></trkpt><trkpt lat="39.831338108973505" lon="9.407000425512658"><ele>494.0</ele><time>2026-05-03T07:45:41.001Z</time></trkpt><trkpt lat="39.83115332943897" lon="9.406798300738682"><ele>494.0</ele><time>2026-05-03T07:45:42.001Z</time></trkpt><trkpt lat="39.831054760423015" lon="9.406684928450295"><ele>494.0</ele><time>2026-05-03T07:45:43.001Z</time></trkpt><trkpt lat="39.83095479106155" lon="9.406568666364416"><ele>494.0</ele><time>2026-05-03T07:45:44.001Z</time></trkpt><trkpt lat="39.83086496617619" lon="9.406467879885605"><ele>494.0</ele><time>2026-05-03T07:45:45.001Z</time></trkpt><trkpt lat="39.830770697364144" lon="9.406391454714756"><ele>494.25</ele><time>2026-05-03T07:45:46.001Z</time></trkpt><trkpt lat="39.83065322432136" lon="9.4063741129997"><ele>494.5</ele><time>2026-05-03T07:45:47.001Z</time></trkpt><trkpt lat="39.830523257758315" lon="9.406406860943433"><ele>494.75</ele><time>2026-05-03T07:45:48.001Z</time></trkpt><trkpt lat="39.830376037880136" lon="9.406442269693848"><ele>495.0</ele><time>2026-05-03T07:45:49.001Z</time></trkpt><trkpt lat="39.83024902076724" lon="9.406455603520511"><ele>495.0</ele><time>2026-05-03T07:45:50.001Z</time></trkpt><trkpt lat="39.83014553163652" lon="9.406433575614667"><ele>495.0</ele><time>2026-05-03T07:45:51.001Z</time></trkpt><trkpt lat="39.830098347974705" lon="9.406329416229488"><ele>495.0</ele><time>2026-05-03T07:45:52.001Z</time></trkpt><trkpt lat="39.83008228312862" lon="9.406230719324899"><ele>495.0</ele><time>2026-05-03T07:45:53.001Z</time></trkpt><trkpt lat="39.83010104670848" lon="9.406106798058119"><ele>495.0</ele><time>2026-05-03T07:45:54.001Z</time></trkpt><trkpt lat="39.830122529669175" lon="9.405950505598954"><ele>497.2</ele><time>2026-05-03T07:45:55.001Z</time></trkpt><trkpt lat="39.830091888620935" lon="9.405822820953823"><ele>499.4</ele><time>2026-05-03T07:45:56.001Z</time></trkpt><trkpt lat="39.83003222257654" lon="9.405735014325906"><ele>501.6</ele><time>2026-05-03T07:45:57.001Z</time></trkpt><trkpt lat="39.82993512001422" lon="9.405682767341878"><ele>503.8</ele><time>2026-05-03T07:45:58.001Z</time></trkpt><trkpt lat="39.82982596369229" lon="9.405698784190525"><ele>506.0</ele><time>2026-05-03T07:45:59.001Z</time></trkpt><trkpt lat="39.82971355164014" lon="9.405763615561433"><ele>506.0</ele><time>2026-05-03T07:46:00.001Z</time></trkpt><trkpt lat="39.82960293830714" lon="9.405777892833614"><ele>506.0</ele><time>2026-05-03T07:46:01.001Z</time></trkpt><trkpt lat="39.82950755371911" lon="9.40568570274925"><ele>506.0</ele><time>2026-05-03T07:46:02.001Z</time></trkpt><trkpt lat="39.829409825426524" lon="9.405580253400906"><ele>506.0</ele><time>2026-05-03T07:46:03.001Z</time></trkpt><trkpt lat="39.82928042903731" lon="9.405500012423387"><ele>513.0</ele><time>2026-05-03T07:46:04.001Z</time></trkpt><trkpt lat="39.829146945687064" lon="9.405453009954691"><ele>520.0</ele><time>2026-05-03T07:46:05.001Z</time></trkpt><trkpt lat="39.82899142413255" lon="9.405451160474941"><ele>527.0</ele><time>2026-05-03T07:46:06.001Z</time></trkpt><trkpt lat="39.82881796742677" lon="9.4054525522738"><ele>527.0</ele><time>2026-05-03T07:46:07.001Z</time></trkpt><trkpt lat="39.828640546146424" lon="9.405432130579474"><ele>527.0</ele><time>2026-05-03T07:46:08.001Z</time></trkpt><trkpt lat="39.82847399573476" lon="9.405384310823512"><ele>527.0</ele><time>2026-05-03T07:46:09.001Z</time></trkpt><trkpt lat="39.82833766446107" lon="9.405296340876069"><ele>527.4</ele><time>2026-05-03T07:46:10.001Z</time></trkpt><trkpt lat="39.82822920590016" lon="9.405204294740765"><ele>527.8000000000001</ele><time>2026-05-03T07:46:11.001Z</time></trkpt><trkpt lat="39.828146023763935" lon="9.405102189057962"><ele>528.2</ele><time>2026-05-03T07:46:12.001Z</time></trkpt><trkpt lat="39.82807051543715" lon="9.405072496714629"><ele>528.6</ele><time>2026-05-03T07:46:13.001Z</time></trkpt><trkpt lat="39.82796087573777" lon="9.405061008992218"><ele>529.0</ele><time>2026-05-03T07:46:14.001Z</time></trkpt><trkpt lat="39.82783434563188" lon="9.405134199197589"><ele>529.0</ele><time>2026-05-03T07:46:15.001Z</time></trkpt><trkpt lat="39.82767707201752" lon="9.405164533871481"><ele>529.0</ele><time>2026-05-03T07:46:16.001Z</time></trkpt><trkpt lat="39.82751071471004" lon="9.40515634504871"><ele>529.0</ele><time>2026-05-03T07:46:17.001Z</time></trkpt><trkpt lat="39.82732013597741" lon="9.405146651448048"><ele>529.6666666666667</ele><time>2026-05-03T07:46:18.001Z</time></trkpt><trkpt lat="39.82712539800985" lon="9.405124597874492"><ele>530.3333333333334</ele><time>2026-05-03T07:46:19.001Z</time></trkpt><trkpt lat="39.8269668143978" lon="9.405144488845483"><ele>531.0</ele><time>2026-05-03T07:46:20.001Z</time></trkpt><trkpt lat="39.826832837398285" lon="9.40517727189096"><ele>534.5</ele><time>2026-05-03T07:46:21.001Z</time></trkpt><trkpt lat="39.82670894502315" lon="9.405264635407596"><ele>538.0</ele><time>2026-05-03T07:46:22.001Z</time></trkpt><trkpt lat="39.82659541900704" lon="9.405439305515932"><ele>541.5</ele><time>2026-05-03T07:46:23.001Z</time></trkpt><trkpt lat="39.82649934493665" lon="9.405540079896898"><ele>545.0</ele><time>2026-05-03T07:46:24.001Z</time></trkpt><trkpt lat="39.826408989922214" lon="9.40563653289213"><ele>545.0</ele><time>2026-05-03T07:46:25.001Z</time></trkpt><trkpt lat="39.82630934513234" lon="9.405657729898403"><ele>545.0</ele><time>2026-05-03T07:46:26.001Z</time></trkpt><trkpt lat="39.82621925949386" lon="9.40563125392573"><ele>545.0</ele><time>2026-05-03T07:46:27.001Z</time></trkpt><trkpt lat="39.82613410031782" lon="9.405542083371387"><ele>545.0</ele><time>2026-05-03T07:46:28.001Z</time></trkpt><trkpt lat="39.826059614793394" lon="9.40542371453454"><ele>545.0</ele><time>2026-05-03T07:46:29.001Z</time></trkpt><trkpt lat="39.82600602378185" lon="9.405275659749313"><ele>541.0</ele><time>2026-05-03T07:46:30.001Z</time></trkpt><trkpt lat="39.825958649857306" lon="9.405102235185003"><ele>537.0</ele><time>2026-05-03T07:46:31.001Z</time></trkpt><trkpt lat="39.82589579010271" lon="9.404926680924888"><ele>533.0</ele><time>2026-05-03T07:46:32.001Z</time></trkpt><trkpt lat="39.82580904895335" lon="9.404746929651036"><ele>538.5</ele><time>2026-05-03T07:46:33.001Z</time></trkpt><trkpt lat="39.82571785707675" lon="9.404595783484332"><ele>544.0</ele><time>2026-05-03T07:46:34.001Z</time></trkpt><trkpt lat="39.82563991944084" lon="9.404445536526557"><ele>549.5</ele><time>2026-05-03T07:46:35.001Z</time></trkpt><trkpt lat="39.82552484748415" lon="9.404369289949697"><ele>555.0</ele><time>2026-05-03T07:46:36.001Z</time></trkpt><trkpt lat="39.825451623202824" lon="9.40426566217165"><ele>555.0</ele><time>2026-05-03T07:46:37.001Z</time></trkpt><trkpt lat="39.825408569102954" lon="9.40413406056823"><ele>555.0</ele><time>2026-05-03T07:46:38.001Z</time></trkpt><trkpt lat="39.82537325126367" lon="9.403985998724863"><ele>555.0</ele><time>2026-05-03T07:46:39.001Z</time></trkpt><trkpt lat="39.825332204040095" lon="9.403869981027253"><ele>555.0</ele><time>2026-05-03T07:46:40.001Z</time></trkpt><trkpt lat="39.82525760692585" lon="9.403782697382859"><ele>555.0</ele><time>2026-05-03T07:46:41.001Z</time></trkpt><trkpt lat="39.82518354443456" lon="9.403750077540382"><ele>556.5</ele><time>2026-05-03T07:46:42.001Z</time></trkpt><trkpt lat="39.825090588810326" lon="9.403753514072703"><ele>558.0</ele><time>2026-05-03T07:46:43.001Z</time></trkpt><trkpt lat="39.82501893222049" lon="9.403884058639361"><ele>559.5</ele><time>2026-05-03T07:46:44.001Z</time></trkpt><trkpt lat="39.8249414029526" lon="9.404015861003659"><ele>561.0</ele><time>2026-05-03T07:46:45.001Z</time></trkpt><trkpt lat="39.82484746140028" lon="9.404150666053864"><ele>556.75</ele><time>2026-05-03T07:46:46.001Z</time></trkpt><trkpt lat="39.824727976528095" lon="9.404261198985052"><ele>552.5</ele><time>2026-05-03T07:46:47.001Z</time></trkpt><trkpt lat="39.8246269261342" lon="9.40440042304412"><ele>548.25</ele><time>2026-05-03T07:46:48.001Z</time></trkpt><trkpt lat="39.82451801165879" lon="9.404499158499767"><ele>544.0</ele><time>2026-05-03T07:46:49.001Z</time></trkpt><trkpt lat="39.824420272522985" lon="9.404606289635256"><ele>542.25</ele><time>2026-05-03T07:46:50.001Z</time></trkpt><trkpt lat="39.82432242141902" lon="9.404684420293181"><ele>540.5</ele><time>2026-05-03T07:46:51.001Z</time></trkpt><trkpt lat="39.82419010242374" lon="9.404672881476591"><ele>538.75</ele><time>2026-05-03T07:46:52.001Z</time></trkpt><trkpt lat="39.82404421729678" lon="9.404668545991761"><ele>537.0</ele><time>2026-05-03T07:46:53.001Z</time></trkpt><trkpt lat="39.823838529412285" lon="9.404720518377069"><ele>537.0</ele><time>2026-05-03T07:46:54.001Z</time></trkpt><trkpt lat="39.82369906271266" lon="9.404753186876937"><ele>537.0</ele><time>2026-05-03T07:46:55.001Z</time></trkpt><trkpt lat="39.82351138968551" lon="9.404811214172629"><ele>537.0</ele><time>2026-05-03T07:46:56.001Z</time></trkpt><trkpt lat="39.82331961866108" lon="9.404879453921549"><ele>542.0</ele><time>2026-05-03T07:46:57.001Z</time></trkpt><trkpt lat="39.82311502223146" lon="9.404902271878825"><ele>547.0</ele><time>2026-05-03T07:46:58.001Z</time></trkpt><trkpt lat="39.82293071923159" lon="9.404914330113142"><ele>552.0</ele><time>2026-05-03T07:46:59.001Z</time></trkpt><trkpt lat="39.82275844629978" lon="9.404915304691428"><ele>554.5</ele><time>2026-05-03T07:47:00.001Z</time></trkpt><trkpt lat="39.82260543639426" lon="9.404925327804206"><ele>557.0</ele><time>2026-05-03T07:47:01.001Z</time></trkpt><trkpt lat="39.82246561006107" lon="9.404946581270275"><ele>559.5</ele><time>2026-05-03T07:47:02.001Z</time></trkpt><trkpt lat="39.82232279362026" lon="9.404885682224673"><ele>562.0</ele><time>2026-05-03T07:47:03.001Z</time></trkpt><trkpt lat="39.822178846029075" lon="9.404806725769179"><ele>562.0</ele><time>2026-05-03T07:47:04.001Z</time></trkpt><trkpt lat="39.82203234382225" lon="9.404705757526825"><ele>562.0</ele><time>2026-05-03T07:47:05.001Z</time></trkpt><trkpt lat="39.82187853878135" lon="9.40462221612661"><ele>562.0</ele><time>2026-05-03T07:47:06.001Z</time></trkpt><trkpt lat="39.82175026260339" lon="9.404506648160755"><ele>565.75</ele><time>2026-05-03T07:47:07.001Z</time></trkpt><trkpt lat="39.8216348425765" lon="9.404419640323974"><ele>569.5</ele><time>2026-05-03T07:47:08.001Z</time></trkpt><trkpt lat="39.821550552027716" lon="9.404288028099069"><ele>573.25</ele><time>2026-05-03T07:47:09.001Z</time></trkpt><trkpt lat="39.82150339525509" lon="9.404132540925678"><ele>577.0</ele><time>2026-05-03T07:47:10.001Z</time></trkpt><trkpt lat="39.82141655795552" lon="9.404014442681277"><ele>577.0</ele><time>2026-05-03T07:47:11.001Z</time></trkpt><trkpt lat="39.82127309207394" lon="9.403933643248394"><ele>577.0</ele><time>2026-05-03T07:47:12.001Z</time></trkpt><trkpt lat="39.82112178279794" lon="9.403834383315246"><ele>577.0</ele><time>2026-05-03T07:47:13.001Z</time></trkpt><trkpt lat="39.8209688400646" lon="9.403722107049884"><ele>582.3333333333334</ele><time>2026-05-03T07:47:14.001Z</time></trkpt><trkpt lat="39.820835929912164" lon="9.403611959563959"><ele>587.6666666666666</ele><time>2026-05-03T07:47:15.001Z</time></trkpt><trkpt lat="39.82069851894907" lon="9.403545631041347"><ele>593.0</ele><time>2026-05-03T07:47:16.001Z</time></trkpt><trkpt lat="39.82054214967596" lon="9.403529175010696"><ele>593.0</ele><time>2026-05-03T07:47:17.001Z</time></trkpt><trkpt lat="39.820391085350415" lon="9.403511226419651"><ele>593.0</ele><time>2026-05-03T07:47:18.001Z</time></trkpt><trkpt lat="39.820218867805984" lon="9.403553868266547"><ele>593.0</ele><time>2026-05-03T07:47:19.001Z</time></trkpt><trkpt lat="39.820042262219374" lon="9.403609894742479"><ele>593.0</ele><time>2026-05-03T07:47:20.001Z</time></trkpt><trkpt lat="39.81986882957352" lon="9.40362268491647"><ele>593.0</ele><time>2026-05-03T07:47:21.001Z</time></trkpt><trkpt lat="39.819712237174485" lon="9.403639850876626"><ele>593.0</ele><time>2026-05-03T07:47:22.001Z</time></trkpt><trkpt lat="39.81955538345156" lon="9.40368302705618"><ele>593.0</ele><time>2026-05-03T07:47:23.001Z</time></trkpt><trkpt lat="39.81940366765412" lon="9.403768358525895"><ele>593.0</ele><time>2026-05-03T07:47:24.001Z</time></trkpt><trkpt lat="39.81927687813497" lon="9.403861238727615"><ele>593.0</ele><time>2026-05-03T07:47:25.001Z</time></trkpt><trkpt lat="39.819142439865054" lon="9.403901253643612"><ele>593.0</ele><time>2026-05-03T07:47:26.001Z</time></trkpt><trkpt lat="39.81901304442825" lon="9.403882208128124"><ele>590.25</ele><time>2026-05-03T07:47:27.001Z</time></trkpt><trkpt lat="39.81889242257267" lon="9.403909483060868"><ele>587.5</ele><time>2026-05-03T07:47:28.001Z</time></trkpt><trkpt lat="39.81878330639305" lon="9.403989024494072"><ele>584.75</ele><time>2026-05-03T07:47:29.001Z</time></trkpt><trkpt lat="39.8186891353063" lon="9.404113930290583"><ele>582.0</ele><time>2026-05-03T07:47:30.001Z</time></trkpt><trkpt lat="39.8185665742334" lon="9.404200748747538"><ele>588.0</ele><time>2026-05-03T07:47:31.001Z</time></trkpt><trkpt lat="39.81841461720556" lon="9.404220291370436"><ele>594.0</ele><time>2026-05-03T07:47:32.001Z</time></trkpt><trkpt lat="39.818264099092566" lon="9.404275357045229"><ele>600.0</ele><time>2026-05-03T07:47:33.001Z</time></trkpt><trkpt lat="39.8181453303884" lon="9.404392723485204"><ele>600.0</ele><time>2026-05-03T07:47:34.001Z</time></trkpt><trkpt lat="39.81802880763603" lon="9.404472950067742"><ele>600.0</ele><time>2026-05-03T07:47:35.001Z</time></trkpt><trkpt lat="39.81788801828646" lon="9.404510488089942"><ele>600.0</ele><time>2026-05-03T07:47:36.001Z</time></trkpt><trkpt lat="39.81773042874388" lon="9.40451554109024"><ele>600.0</ele><time>2026-05-03T07:47:37.001Z</time></trkpt><trkpt lat="39.81756364562552" lon="9.404498293152715"><ele>602.5</ele><time>2026-05-03T07:47:38.001Z</time></trkpt><trkpt lat="39.81741925058259" lon="9.404431645673508"><ele>605.0</ele><time>2026-05-03T07:47:39.001Z</time></trkpt><trkpt lat="39.81728094216039" lon="9.40438656392367"><ele>607.5</ele><time>2026-05-03T07:47:40.001Z</time></trkpt><trkpt lat="39.817153875869096" lon="9.404375587768945"><ele>610.0</ele><time>2026-05-03T07:47:41.001Z</time></trkpt><trkpt lat="39.81705824289645" lon="9.40431805901877"><ele>610.0</ele><time>2026-05-03T07:47:42.001Z</time></trkpt><trkpt lat="39.81699840816536" lon="9.404227178832597"><ele>610.0</ele><time>2026-05-03T07:47:43.001Z</time></trkpt><trkpt lat="39.81697566604555" lon="9.404106489078806"><ele>610.0</ele><time>2026-05-03T07:47:44.001Z</time></trkpt><trkpt lat="39.81696759522624" lon="9.40395588663953"><ele>610.0</ele><time>2026-05-03T07:47:45.001Z</time></trkpt><trkpt lat="39.81697196423777" lon="9.40377939031361"><ele>610.0</ele><time>2026-05-03T07:47:46.001Z</time></trkpt><trkpt lat="39.8169757392731" lon="9.403576399584892"><ele>612.75</ele><time>2026-05-03T07:47:47.001Z</time></trkpt><trkpt lat="39.8169803605837" lon="9.40338541243784"><ele>615.5</ele><time>2026-05-03T07:47:48.001Z</time></trkpt><trkpt lat="39.81697415606328" lon="9.403211735958136"><ele>618.25</ele><time>2026-05-03T07:47:49.001Z</time></trkpt><trkpt lat="39.81695328449597" lon="9.403066053400952"><ele>621.0</ele><time>2026-05-03T07:47:50.001Z</time></trkpt><trkpt lat="39.81690407670625" lon="9.4029345611986"><ele>624.75</ele><time>2026-05-03T07:47:51.001Z</time></trkpt><trkpt lat="39.81684739369266" lon="9.402818248941406"><ele>628.5</ele><time>2026-05-03T07:47:52.001Z</time></trkpt><trkpt lat="39.81680925544116" lon="9.402684714232256"><ele>632.25</ele><time>2026-05-03T07:47:53.001Z</time></trkpt><trkpt lat="39.81680304749111" lon="9.402531834581074"><ele>636.0</ele><time>2026-05-03T07:47:54.001Z</time></trkpt><trkpt lat="39.81682589440047" lon="9.402365996029774"><ele>636.0</ele><time>2026-05-03T07:47:55.001Z</time></trkpt><trkpt lat="39.816830291485424" lon="9.402197021225186"><ele>636.0</ele><time>2026-05-03T07:47:56.001Z</time></trkpt><trkpt lat="39.81680513249773" lon="9.402003083883374"><ele>636.0</ele><time>2026-05-03T07:47:57.001Z</time></trkpt><trkpt lat="39.81674983354843" lon="9.401827083247516"><ele>636.0</ele><time>2026-05-03T07:47:58.001Z</time></trkpt><trkpt lat="39.81668759091529" lon="9.40165098587854"><ele>640.0</ele><time>2026-05-03T07:47:59.001Z</time></trkpt><trkpt lat="39.81656240730137" lon="9.401512561324115"><ele>644.0</ele><time>2026-05-03T07:48:00.001Z</time></trkpt><trkpt lat="39.81644308915032" lon="9.401373154603723"><ele>648.0</ele><time>2026-05-03T07:48:01.001Z</time></trkpt><trkpt lat="39.816348911928095" lon="9.401234360277373"><ele>648.0</ele><time>2026-05-03T07:48:02.001Z</time></trkpt><trkpt lat="39.816279856196545" lon="9.401054231027352"><ele>648.0</ele><time>2026-05-03T07:48:03.001Z</time></trkpt><trkpt lat="39.81621810459833" lon="9.400875444491405"><ele>648.0</ele><time>2026-05-03T07:48:04.001Z</time></trkpt><trkpt lat="39.81614909485977" lon="9.400731575932864"><ele>648.0</ele><time>2026-05-03T07:48:05.001Z</time></trkpt><trkpt lat="39.81604642473603" lon="9.400632220843566"><ele>646.5</ele><time>2026-05-03T07:48:06.001Z</time></trkpt><trkpt lat="39.815917784956476" lon="9.400540758016614"><ele>645.0</ele><time>2026-05-03T07:48:07.001Z</time></trkpt><trkpt lat="39.81578431304827" lon="9.400466727255209"><ele>643.5</ele><time>2026-05-03T07:48:08.001Z</time></trkpt><trkpt lat="39.81566170710038" lon="9.400340858150416"><ele>642.0</ele><time>2026-05-03T07:48:09.001Z</time></trkpt><trkpt lat="39.81553998713607" lon="9.400192315599202"><ele>642.0</ele><time>2026-05-03T07:48:10.001Z</time></trkpt><trkpt lat="39.81542019706467" lon="9.400019785556065"><ele>642.0</ele><time>2026-05-03T07:48:11.001Z</time></trkpt><trkpt lat="39.81532481076289" lon="9.399868335342449"><ele>642.0</ele><time>2026-05-03T07:48:12.001Z</time></trkpt><trkpt lat="39.81524651737133" lon="9.399713752424354"><ele>637.25</ele><time>2026-05-03T07:48:13.001Z</time></trkpt><trkpt lat="39.81518233371042" lon="9.39955130628282"><ele>632.5</ele><time>2026-05-03T07:48:14.001Z</time></trkpt><trkpt lat="39.81513169854791" lon="9.39940498108732"><ele>627.75</ele><time>2026-05-03T07:48:15.001Z</time></trkpt><trkpt lat="39.81510161739723" lon="9.399269806955969"><ele>623.0</ele><time>2026-05-03T07:48:16Z</time></trkpt><trkpt lat="39.81509939498709" lon="9.399128416470047"><ele>623.0</ele><time>2026-05-03T07:48:17Z</time></trkpt><trkpt lat="39.81511585143874" lon="9.398972693612023"><ele>623.0</ele><time>2026-05-03T07:48:18Z</time></trkpt><trkpt lat="39.815130230539566" lon="9.398785073294432"><ele>623.0</ele><time>2026-05-03T07:48:19Z</time></trkpt><trkpt lat="39.815143327954516" lon="9.398585516895997"><ele>623.0</ele><time>2026-05-03T07:48:20Z</time></trkpt><trkpt lat="39.81515475287403" lon="9.398398970035265"><ele>644.0</ele><time>2026-05-03T07:48:21Z</time></trkpt><trkpt lat="39.81516725834646" lon="9.398194449209216"><ele>665.0</ele><time>2026-05-03T07:48:22Z</time></trkpt><trkpt lat="39.81518100291334" lon="9.397989575426086"><ele>686.0</ele><time>2026-05-03T07:48:23Z</time></trkpt><trkpt lat="39.81519004805079" lon="9.397783468872714"><ele>686.3333333333333</ele><time>2026-05-03T07:48:24Z</time></trkpt><trkpt lat="39.815194775846855" lon="9.39757951725791"><ele>686.6666666666666</ele><time>2026-05-03T07:48:25Z</time></trkpt><trkpt lat="39.81519972497822" lon="9.397367590664393"><ele>687.0</ele><time>2026-05-03T07:48:26Z</time></trkpt><trkpt lat="39.8152222174044" lon="9.397165379581208"><ele>683.25</ele><time>2026-05-03T07:48:27Z</time></trkpt><trkpt lat="39.81523320041963" lon="9.396976998647993"><ele>679.5</ele><time>2026-05-03T07:48:28Z</time></trkpt><trkpt lat="39.81523466444049" lon="9.396801321790479"><ele>675.75</ele><time>2026-05-03T07:48:29Z</time></trkpt><trkpt lat="39.81524709370986" lon="9.396637318435218"><ele>672.0</ele><time>2026-05-03T07:48:30Z</time></trkpt><trkpt lat="39.815286253989036" lon="9.396483098147884"><ele>666.0</ele><time>2026-05-03T07:48:31Z</time></trkpt><trkpt lat="39.81535605697742" lon="9.396327277677301"><ele>660.0</ele><time>2026-05-03T07:48:32Z</time></trkpt><trkpt lat="39.81544737410132" lon="9.396158610387324"><ele>654.0</ele><time>2026-05-03T07:48:33Z</time></trkpt><trkpt lat="39.81554007236078" lon="9.39596404864282"><ele>654.0</ele><time>2026-05-03T07:48:34Z</time></trkpt><trkpt lat="39.81561381270941" lon="9.395769755934191"><ele>654.0</ele><time>2026-05-03T07:48:35Z</time></trkpt><trkpt lat="39.81568006779173" lon="9.395551616124076"><ele>654.0</ele><time>2026-05-03T07:48:36Z</time></trkpt><trkpt lat="39.81575209933604" lon="9.395322106224132"><ele>650.0</ele><time>2026-05-03T07:48:37Z</time></trkpt><trkpt lat="39.81583154328374" lon="9.395121154060286"><ele>646.0</ele><time>2026-05-03T07:48:38Z</time></trkpt><trkpt lat="39.81589638902787" lon="9.394939655092532"><ele>642.0</ele><time>2026-05-03T07:48:39Z</time></trkpt><trkpt lat="39.815944028229175" lon="9.394782766889277"><ele>641.5</ele><time>2026-05-03T07:48:40Z</time></trkpt><trkpt lat="39.815969957891824" lon="9.394636838293994"><ele>641.0</ele><time>2026-05-03T07:48:41Z</time></trkpt><trkpt lat="39.815971385005156" lon="9.394503015334399"><ele>640.5</ele><time>2026-05-03T07:48:42Z</time></trkpt><trkpt lat="39.815929675785675" lon="9.394361718859354"><ele>640.0</ele><time>2026-05-03T07:48:43Z</time></trkpt><trkpt lat="39.81585707267626" lon="9.394202222645497"><ele>640.0</ele><time>2026-05-03T07:48:44Z</time></trkpt><trkpt lat="39.81579224042602" lon="9.39401218054656"><ele>640.0</ele><time>2026-05-03T07:48:45Z</time></trkpt><trkpt lat="39.81575844636008" lon="9.393786993200665"><ele>640.0</ele><time>2026-05-03T07:48:46Z</time></trkpt><trkpt lat="39.81573456314111" lon="9.393557245613952"><ele>643.0</ele><time>2026-05-03T07:48:47Z</time></trkpt><trkpt lat="39.815703401715204" lon="9.393399846436191"><ele>646.0</ele><time>2026-05-03T07:48:48Z</time></trkpt><trkpt lat="39.81568520157049" lon="9.393200742805325"><ele>649.0</ele><time>2026-05-03T07:48:49Z</time></trkpt><trkpt lat="39.81566997822388" lon="9.393024077312194"><ele>652.0</ele><time>2026-05-03T07:48:50Z</time></trkpt><trkpt lat="39.8156803725329" lon="9.392859767142065"><ele>652.0</ele><time>2026-05-03T07:48:51Z</time></trkpt><trkpt lat="39.81572367463407" lon="9.39269154779576"><ele>652.0</ele><time>2026-05-03T07:48:52Z</time></trkpt><trkpt lat="39.815780705481295" lon="9.39251291359428"><ele>652.0</ele><time>2026-05-03T07:48:53Z</time></trkpt><trkpt lat="39.81582901542204" lon="9.392309860848545"><ele>652.0</ele><time>2026-05-03T07:48:54Z</time></trkpt><trkpt lat="39.81586663645046" lon="9.392088341359491"><ele>649.75</ele><time>2026-05-03T07:48:55Z</time></trkpt><trkpt lat="39.815908702557344" lon="9.391887666209865"><ele>647.5</ele><time>2026-05-03T07:48:56Z</time></trkpt><trkpt lat="39.81595121360209" lon="9.39171457604782"><ele>645.25</ele><time>2026-05-03T07:48:57Z</time></trkpt><trkpt lat="39.81599853785789" lon="9.391556283728018"><ele>643.0</ele><time>2026-05-03T07:48:58Z</time></trkpt><trkpt lat="39.81606260103592" lon="9.391424133588457"><ele>651.5999999999999</ele><time>2026-05-03T07:48:59Z</time></trkpt><trkpt lat="39.81613990673473" lon="9.391307178759135"><ele>660.1999999999999</ele><time>2026-05-03T07:49:00Z</time></trkpt><trkpt lat="39.81620015461593" lon="9.39120219185542"><ele>668.8</ele><time>2026-05-03T07:49:01Z</time></trkpt><trkpt lat="39.81625806045457" lon="9.391105343655457"><ele>677.4</ele><time>2026-05-03T07:49:02Z</time></trkpt><trkpt lat="39.816271623210426" lon="9.390972824715554"><ele>686.0</ele><time>2026-05-03T07:49:03Z</time></trkpt><trkpt lat="39.81624310155993" lon="9.390824407401434"><ele>686.0</ele><time>2026-05-03T07:49:04Z</time></trkpt><trkpt lat="39.81622133600322" lon="9.390671106814459"><ele>686.0</ele><time>2026-05-03T07:49:05Z</time></trkpt><trkpt lat="39.816239364899666" lon="9.390508355829633"><ele>686.0</ele><time>2026-05-03T07:49:06Z</time></trkpt><trkpt lat="39.81624311399183" lon="9.390356248538605"><ele>686.0</ele><time>2026-05-03T07:49:07Z</time></trkpt><trkpt lat="39.81622610557468" lon="9.390216493256212"><ele>688.4</ele><time>2026-05-03T07:49:08Z</time></trkpt><trkpt lat="39.81621209065246" lon="9.390091851006478"><ele>690.8</ele><time>2026-05-03T07:49:09Z</time></trkpt><trkpt lat="39.81616893894422" lon="9.38997818712022"><ele>693.1999999999999</ele><time>2026-05-03T07:49:10Z</time></trkpt><trkpt lat="39.81608500031918" lon="9.389883216676198"><ele>695.5999999999999</ele><time>2026-05-03T07:49:11Z</time></trkpt><trkpt lat="39.815996554349915" lon="9.389824406643394"><ele>698.0</ele><time>2026-05-03T07:49:12Z</time></trkpt><trkpt lat="39.8159061203414" lon="9.389808351383373"><ele>692.4</ele><time>2026-05-03T07:49:13Z</time></trkpt><trkpt lat="39.81582286338012" lon="9.389847597854784"><ele>686.8</ele><time>2026-05-03T07:49:14Z</time></trkpt><trkpt lat="39.8157653147655" lon="9.389959463345575"><ele>681.2</ele><time>2026-05-03T07:49:15Z</time></trkpt><trkpt lat="39.81568191885307" lon="9.390054660537508"><ele>675.6</ele><time>2026-05-03T07:49:16Z</time></trkpt><trkpt lat="39.8155670985739" lon="9.390100407011493"><ele>670.0</ele><time>2026-05-03T07:49:17Z</time></trkpt><trkpt lat="39.81546241792705" lon="9.39013142645812"><ele>670.0</ele><time>2026-05-03T07:49:18Z</time></trkpt><trkpt lat="39.815343779595594" lon="9.390138868303747"><ele>670.0</ele><time>2026-05-03T07:49:19Z</time></trkpt><trkpt lat="39.81521436321542" lon="9.39013940917087"><ele>670.0</ele><time>2026-05-03T07:49:20Z</time></trkpt><trkpt lat="39.81507830970213" lon="9.39015336299892"><ele>670.0</ele><time>2026-05-03T07:49:21Z</time></trkpt><trkpt lat="39.81494221954231" lon="9.390186529843591"><ele>671.75</ele><time>2026-05-03T07:49:22Z</time></trkpt><trkpt lat="39.8148055130577" lon="9.390217239108237"><ele>673.5</ele><time>2026-05-03T07:49:23Z</time></trkpt><trkpt lat="39.81468156616158" lon="9.390236107723286"><ele>675.25</ele><time>2026-05-03T07:49:24Z</time></trkpt><trkpt lat="39.814560727725976" lon="9.390224978035578"><ele>677.0</ele><time>2026-05-03T07:49:25Z</time></trkpt><trkpt lat="39.81443263008895" lon="9.390203988742226"><ele>676.75</ele><time>2026-05-03T07:49:26Z</time></trkpt><trkpt lat="39.81430633980321" lon="9.390136012828954"><ele>676.5</ele><time>2026-05-03T07:49:27Z</time></trkpt><trkpt lat="39.81417437802074" lon="9.390041280862818"><ele>676.25</ele><time>2026-05-03T07:49:28Z</time></trkpt><trkpt lat="39.81405672232453" lon="9.38992401792574"><ele>676.0</ele><time>2026-05-03T07:49:29Z</time></trkpt><trkpt lat="39.813930683892366" lon="9.389830575251045"><ele>676.0</ele><time>2026-05-03T07:49:30Z</time></trkpt><trkpt lat="39.81378684333096" lon="9.389773540991039"><ele>676.0</ele><time>2026-05-03T07:49:31Z</time></trkpt><trkpt lat="39.81365056398702" lon="9.389754353905643"><ele>676.0</ele><time>2026-05-03T07:49:32Z</time></trkpt><trkpt lat="39.81352942127199" lon="9.38974887661433"><ele>676.0</ele><time>2026-05-03T07:49:33Z</time></trkpt><trkpt lat="39.813427146664445" lon="9.38976735593775"><ele>676.5</ele><time>2026-05-03T07:49:34Z</time></trkpt><trkpt lat="39.81333232801377" lon="9.389847385186696"><ele>677.0</ele><time>2026-05-03T07:49:35Z</time></trkpt><trkpt lat="39.81326353520442" lon="9.389970559253799"><ele>677.5</ele><time>2026-05-03T07:49:36Z</time></trkpt><trkpt lat="39.81318764875135" lon="9.390115689058224"><ele>678.0</ele><time>2026-05-03T07:49:37Z</time></trkpt><trkpt lat="39.81311643462973" lon="9.390272521651012"><ele>678.0</ele><time>2026-05-03T07:49:38.001Z</time></trkpt><trkpt lat="39.81307108324534" lon="9.390431863901089"><ele>678.0</ele><time>2026-05-03T07:49:39.001Z</time></trkpt><trkpt lat="39.81305735904189" lon="9.390611594014317"><ele>678.0</ele><time>2026-05-03T07:49:40.001Z</time></trkpt><trkpt lat="39.81306731315975" lon="9.390774516987731"><ele>678.0</ele><time>2026-05-03T07:49:41.001Z</time></trkpt><trkpt lat="39.813068009523775" lon="9.390908043318353"><ele>676.2</ele><time>2026-05-03T07:49:42.001Z</time></trkpt><trkpt lat="39.81306521024519" lon="9.391024200209893"><ele>674.4</ele><time>2026-05-03T07:49:43.001Z</time></trkpt><trkpt lat="39.81300571202741" lon="9.391108873972986"><ele>672.6</ele><time>2026-05-03T07:49:44.001Z</time></trkpt><trkpt lat="39.81291683720094" lon="9.391150391667075"><ele>670.8000000000001</ele><time>2026-05-03T07:49:45.001Z</time></trkpt><trkpt lat="39.81281977551596" lon="9.39120401848714"><ele>669.0</ele><time>2026-05-03T07:49:46.001Z</time></trkpt><trkpt lat="39.81271338546852" lon="9.391260097626816"><ele>671.5</ele><time>2026-05-03T07:49:47.001Z</time></trkpt><trkpt lat="39.81259907941081" lon="9.391294521678898"><ele>674.0</ele><time>2026-05-03T07:49:48.001Z</time></trkpt><trkpt lat="39.81248119507779" lon="9.391328746849995"><ele>676.5</ele><time>2026-05-03T07:49:49.001Z</time></trkpt><trkpt lat="39.812391652109774" lon="9.39141364439871"><ele>679.0</ele><time>2026-05-03T07:49:50.001Z</time></trkpt><trkpt lat="39.81231558194227" lon="9.391503342618586"><ele>679.0</ele><time>2026-05-03T07:49:51.001Z</time></trkpt><trkpt lat="39.81224669898222" lon="9.391585842965556"><ele>679.0</ele><time>2026-05-03T07:49:52.001Z</time></trkpt><trkpt lat="39.81218850010627" lon="9.391655547019615"><ele>679.0</ele><time>2026-05-03T07:49:53.001Z</time></trkpt><trkpt lat="39.81213496566174" lon="9.391707503367732"><ele>679.0</ele><time>2026-05-03T07:49:54.001Z</time></trkpt><trkpt lat="39.8120603963247" lon="9.391720820214486"><ele>679.0</ele><time>2026-05-03T07:49:55Z</time></trkpt><trkpt lat="39.811991037750666" lon="9.391702902302034"><ele>679.0</ele><time>2026-05-03T07:49:56Z</time></trkpt><trkpt lat="39.81192508405337" lon="9.391664125723159"><ele>682.0</ele><time>2026-05-03T07:49:57Z</time></trkpt><trkpt lat="39.81181071343625" lon="9.391657960514992"><ele>685.0</ele><time>2026-05-03T07:49:59Z</time></trkpt><trkpt lat="39.81170560764785" lon="9.391639152275062"><ele>688.0</ele><time>2026-05-03T07:50:01Z</time></trkpt><trkpt lat="39.81166695849386" lon="9.391504523643624"><ele>691.0</ele><time>2026-05-03T07:50:03Z</time></trkpt><trkpt lat="39.81162527695883" lon="9.391437880981162"><ele>694.0</ele><time>2026-05-03T07:50:04Z</time></trkpt><trkpt lat="39.81160113629301" lon="9.39134469728143"><ele>695.8333333333334</ele><time>2026-05-03T07:50:05Z</time></trkpt><trkpt lat="39.81155861500127" lon="9.391257771512167"><ele>697.6666666666667</ele><time>2026-05-03T07:50:06Z</time></trkpt><trkpt lat="39.8115158459325" lon="9.391176258948411"><ele>699.5</ele><time>2026-05-03T07:50:07Z</time></trkpt><trkpt lat="39.81147787640477" lon="9.391098572215736"><ele>701.3333333333334</ele><time>2026-05-03T07:50:08Z</time></trkpt><trkpt lat="39.811453293129375" lon="9.390971297147699"><ele>703.1666666666666</ele><time>2026-05-03T07:50:10Z</time></trkpt><trkpt lat="39.811515647560505" lon="9.390881332945769"><ele>705.0</ele><time>2026-05-03T07:50:11Z</time></trkpt><trkpt lat="39.811543531541645" lon="9.390800083262818"><ele>705.0</ele><time>2026-05-03T07:50:12Z</time></trkpt><trkpt lat="39.81156105033932" lon="9.390702325669682"><ele>705.0</ele><time>2026-05-03T07:50:13Z</time></trkpt><trkpt lat="39.81153538714583" lon="9.390538215223646"><ele>705.0</ele><time>2026-05-03T07:50:15Z</time></trkpt><trkpt lat="39.81152235040401" lon="9.390441410568975"><ele>705.0</ele><time>2026-05-03T07:50:16Z</time></trkpt><trkpt lat="39.81152933039403" lon="9.3903546194915"><ele>705.0</ele><time>2026-05-03T07:50:17Z</time></trkpt><trkpt lat="39.81154793321095" lon="9.390272312241283"><ele>705.0</ele><time>2026-05-03T07:50:18Z</time></trkpt><trkpt lat="39.81160230622189" lon="9.390119136297477"><ele>707.5</ele><time>2026-05-03T07:50:20Z</time></trkpt><trkpt lat="39.811635979279146" lon="9.390049077685498"><ele>710.0</ele><time>2026-05-03T07:50:21Z</time></trkpt><trkpt lat="39.811706922917814" lon="9.38993881649388"><ele>712.5</ele><time>2026-05-03T07:50:23Z</time></trkpt><trkpt lat="39.81178006113173" lon="9.389788623001188"><ele>715.0</ele><time>2026-05-03T07:50:24Z</time></trkpt><trkpt lat="39.811799131966595" lon="9.38970363396196"><ele>717.5</ele><time>2026-05-03T07:50:25Z</time></trkpt><trkpt lat="39.81181177102578" lon="9.38961413816821"><ele>720.0</ele><time>2026-05-03T07:50:26Z</time></trkpt><trkpt lat="39.81181498435923" lon="9.389525436515298"><ele>719.1666666666666</ele><time>2026-05-03T07:50:27Z</time></trkpt><trkpt lat="39.811819362590526" lon="9.389442965733608"><ele>718.3333333333334</ele><time>2026-05-03T07:50:28Z</time></trkpt><trkpt lat="39.8118052589004" lon="9.389277538703135"><ele>717.5</ele><time>2026-05-03T07:50:30Z</time></trkpt><trkpt lat="39.81180136510109" lon="9.389195182348699"><ele>716.6666666666667</ele><time>2026-05-03T07:50:31Z</time></trkpt><trkpt lat="39.81181575604248" lon="9.389109249546996"><ele>715.8333333333334</ele><time>2026-05-03T07:50:32Z</time></trkpt><trkpt lat="39.811839909568086" lon="9.389025400734393"><ele>715.0</ele><time>2026-05-03T07:50:33Z</time></trkpt><trkpt lat="39.81187055306412" lon="9.388868339303482"><ele>717.8</ele><time>2026-05-03T07:50:35Z</time></trkpt><trkpt lat="39.811878780688666" lon="9.388783198795698"><ele>720.6</ele><time>2026-05-03T07:50:36Z</time></trkpt><trkpt lat="39.811909500155444" lon="9.388642837598248"><ele>723.4000000000001</ele><time>2026-05-03T07:50:38Z</time></trkpt><trkpt lat="39.81196565773896" lon="9.38850922769236"><ele>726.2</ele><time>2026-05-03T07:50:40Z</time></trkpt><trkpt lat="39.81201947196351" lon="9.388376117882693"><ele>729.0</ele><time>2026-05-03T07:50:42Z</time></trkpt><trkpt lat="39.81206411650852" lon="9.388250074309404"><ele>729.0</ele><time>2026-05-03T07:50:44Z</time></trkpt><trkpt lat="39.81210023236265" lon="9.388177180775692"><ele>729.0</ele><time>2026-05-03T07:50:46Z</time></trkpt><trkpt lat="39.81214233893847" lon="9.388080246354189"><ele>729.0</ele><time>2026-05-03T07:50:48Z</time></trkpt><trkpt lat="39.812192756879654" lon="9.387992224732796"><ele>729.0</ele><time>2026-05-03T07:50:50Z</time></trkpt><trkpt lat="39.812240469276794" lon="9.387926315025876"><ele>729.0</ele><time>2026-05-03T07:50:52Z</time></trkpt><trkpt lat="39.812304107713956" lon="9.387877225766928"><ele>729.0</ele><time>2026-05-03T07:51:05Z</time></trkpt><trkpt lat="39.812350278083244" lon="9.38782123051345"><ele>729.0</ele><time>2026-05-03T07:51:07Z</time></trkpt><trkpt lat="39.812395218079104" lon="9.387736576973039"><ele>732.6666666666666</ele><time>2026-05-03T07:51:09Z</time></trkpt><trkpt lat="39.812474234157804" lon="9.387630767953095"><ele>736.3333333333334</ele><time>2026-05-03T07:51:11Z</time></trkpt><trkpt lat="39.812529611152975" lon="9.38755409060672"><ele>740.0</ele><time>2026-05-03T07:51:13Z</time></trkpt><trkpt lat="39.812565906971294" lon="9.387476043719014"><ele>743.6666666666667</ele><time>2026-05-03T07:51:15Z</time></trkpt><trkpt lat="39.81260917190479" lon="9.387408981448461"><ele>747.3333333333334</ele><time>2026-05-03T07:51:17Z</time></trkpt><trkpt lat="39.81267207167517" lon="9.387365348400628"><ele>751.0</ele><time>2026-05-03T07:51:59Z</time></trkpt><trkpt lat="39.81261411831726" lon="9.38745416078698"><ele>751.1666666666667</ele><time>2026-05-03T07:53:41Z</time></trkpt><trkpt lat="39.812554290063844" lon="9.387527039331117"><ele>751.3333333333334</ele><time>2026-05-03T07:53:43Z</time></trkpt><trkpt lat="39.81250371817693" lon="9.387598591176593"><ele>751.5</ele><time>2026-05-03T07:53:45Z</time></trkpt><trkpt lat="39.812441339362785" lon="9.387673457895657"><ele>751.6666666666666</ele><time>2026-05-03T07:53:47Z</time></trkpt><trkpt lat="39.81239427683422" lon="9.387764754133071"><ele>751.8333333333333</ele><time>2026-05-03T07:53:49Z</time></trkpt><trkpt lat="39.81233436568566" lon="9.387842902490297"><ele>752.0</ele><time>2026-05-03T07:53:51Z</time></trkpt><trkpt lat="39.8122744383811" lon="9.387886873249782"><ele>752.0</ele><time>2026-05-03T07:53:53Z</time></trkpt><trkpt lat="39.812225877135404" lon="9.387964657747377"><ele>752.0</ele><time>2026-05-03T07:53:55Z</time></trkpt><trkpt lat="39.812158914403355" lon="9.388039962195768"><ele>752.0</ele><time>2026-05-03T07:53:57Z</time></trkpt><trkpt lat="39.81210953660032" lon="9.388138651888978"><ele>752.0</ele><time>2026-05-03T07:53:59Z</time></trkpt><trkpt lat="39.81207732201414" lon="9.38823240586577"><ele>752.0</ele><time>2026-05-03T07:54:01Z</time></trkpt><trkpt lat="39.81203957451389" lon="9.388350802255252"><ele>752.0</ele><time>2026-05-03T07:54:03Z</time></trkpt><trkpt lat="39.81198635015147" lon="9.3884538264094"><ele>748.1666666666666</ele><time>2026-05-03T07:54:05Z</time></trkpt><trkpt lat="39.81194747386607" lon="9.388550568345833"><ele>744.3333333333333</ele><time>2026-05-03T07:54:07Z</time></trkpt><trkpt lat="39.81190744435729" lon="9.388645040706768"><ele>740.5</ele><time>2026-05-03T07:54:09Z</time></trkpt><trkpt lat="39.811874382482586" lon="9.38875566921541"><ele>736.6666666666666</ele><time>2026-05-03T07:54:11Z</time></trkpt><trkpt lat="39.81186384288592" lon="9.388858550665264"><ele>732.8333333333334</ele><time>2026-05-03T07:54:13Z</time></trkpt><trkpt lat="39.81184763252701" lon="9.38896017116502"><ele>729.0</ele><time>2026-05-03T07:54:15Z</time></trkpt><trkpt lat="39.81182369677741" lon="9.389090231883122"><ele>729.6</ele><time>2026-05-03T07:54:17Z</time></trkpt><trkpt lat="39.81179552994388" lon="9.389231508746951"><ele>730.2</ele><time>2026-05-03T07:54:19Z</time></trkpt><trkpt lat="39.811794115017236" lon="9.389366055983357"><ele>730.8000000000001</ele><time>2026-05-03T07:54:21Z</time></trkpt><trkpt lat="39.81179957241025" lon="9.389507803723932"><ele>731.4000000000001</ele><time>2026-05-03T07:54:23Z</time></trkpt><trkpt lat="39.81178846840984" lon="9.389651813966111"><ele>732.0</ele><time>2026-05-03T07:54:25Z</time></trkpt><trkpt lat="39.811756202319096" lon="9.38978113610885"><ele>729.6</ele><time>2026-05-03T07:54:27Z</time></trkpt><trkpt lat="39.81170272545935" lon="9.389900892508216"><ele>727.2</ele><time>2026-05-03T07:54:29Z</time></trkpt><trkpt lat="39.81163861323419" lon="9.39001108720324"><ele>724.8</ele><time>2026-05-03T07:54:31Z</time></trkpt><trkpt lat="39.81156706857936" lon="9.390136395122816"><ele>722.4</ele><time>2026-05-03T07:54:33Z</time></trkpt><trkpt lat="39.8115200731559" lon="9.390275215429552"><ele>720.0</ele><time>2026-05-03T07:54:35Z</time></trkpt><trkpt lat="39.81149372403842" lon="9.390392665866608"><ele>717.0</ele><time>2026-05-03T07:54:37Z</time></trkpt><trkpt lat="39.81150754755621" lon="9.39053159685906"><ele>714.0</ele><time>2026-05-03T07:54:39Z</time></trkpt><trkpt lat="39.81152566829213" lon="9.390660453389483"><ele>711.0</ele><time>2026-05-03T07:54:41Z</time></trkpt><trkpt lat="39.81151136335703" lon="9.3907887659045"><ele>708.0</ele><time>2026-05-03T07:54:43Z</time></trkpt><trkpt lat="39.811475540726114" lon="9.390912683508851"><ele>705.0</ele><time>2026-05-03T07:54:45Z</time></trkpt><trkpt lat="39.81145882793995" lon="9.391034557689625"><ele>705.0</ele><time>2026-05-03T07:54:47Z</time></trkpt><trkpt lat="39.81148568376452" lon="9.391164571788119"><ele>705.0</ele><time>2026-05-03T07:54:49Z</time></trkpt><trkpt lat="39.8115413829336" lon="9.391289590181975"><ele>705.0</ele><time>2026-05-03T07:54:51Z</time></trkpt><trkpt lat="39.81159052853886" lon="9.391409280195367"><ele>705.0</ele><time>2026-05-03T07:54:53Z</time></trkpt><trkpt lat="39.81163649207941" lon="9.391522237145967"><ele>705.0</ele><time>2026-05-03T07:54:55Z</time></trkpt><trkpt lat="39.811690836260965" lon="9.391630880637308"><ele>703.1666666666666</ele><time>2026-05-03T07:54:57Z</time></trkpt><trkpt lat="39.811718225341295" lon="9.391724733408413"><ele>701.3333333333334</ele><time>2026-05-03T07:54:59Z</time></trkpt><trkpt lat="39.811708381951455" lon="9.391825052736218"><ele>699.5</ele><time>2026-05-03T07:55:02Z</time></trkpt><trkpt lat="39.81165361209978" lon="9.391885029579198"><ele>697.6666666666667</ele><time>2026-05-03T07:55:03Z</time></trkpt><trkpt lat="39.81160387837801" lon="9.391948040344264"><ele>695.8333333333334</ele><time>2026-05-03T07:55:04Z</time></trkpt><trkpt lat="39.81150412176193" lon="9.392041939988465"><ele>694.0</ele><time>2026-05-03T07:55:06Z</time></trkpt><trkpt lat="39.81144523424682" lon="9.39208889993814"><ele>694.0</ele><time>2026-05-03T07:55:07Z</time></trkpt><trkpt lat="39.81138837518051" lon="9.392137318644085"><ele>694.0</ele><time>2026-05-03T07:55:08Z</time></trkpt><trkpt lat="39.81131733632457" lon="9.392178363374995"><ele>694.0</ele><time>2026-05-03T07:55:09Z</time></trkpt><trkpt lat="39.811256533410905" lon="9.39224378131083"><ele>694.0</ele><time>2026-05-03T07:55:10Z</time></trkpt><trkpt lat="39.81119758223848" lon="9.392316633610788"><ele>694.0</ele><time>2026-05-03T07:55:11Z</time></trkpt><trkpt lat="39.81115225033685" lon="9.392411693758106"><ele>694.0</ele><time>2026-05-03T07:55:12Z</time></trkpt><trkpt lat="39.81110513751353" lon="9.392506493868556"><ele>694.4285714285714</ele><time>2026-05-03T07:55:13Z</time></trkpt><trkpt lat="39.81106368889231" lon="9.392602743172349"><ele>694.8571428571428</ele><time>2026-05-03T07:55:14Z</time></trkpt><trkpt lat="39.811011794301265" lon="9.392685407373543"><ele>695.2857142857142</ele><time>2026-05-03T07:55:15Z</time></trkpt><trkpt lat="39.81097757039431" lon="9.3927734330515"><ele>695.7142857142858</ele><time>2026-05-03T07:55:16Z</time></trkpt><trkpt lat="39.81096120767522" lon="9.392863579499213"><ele>696.1428571428571</ele><time>2026-05-03T07:55:17Z</time></trkpt><trkpt lat="39.810929347143905" lon="9.392935772647963"><ele>696.5714285714286</ele><time>2026-05-03T07:55:18Z</time></trkpt><trkpt lat="39.81088597003768" lon="9.392997200979414"><ele>697.0</ele><time>2026-05-03T07:55:19Z</time></trkpt><trkpt lat="39.81082170919118" lon="9.393127001920488"><ele>697.0</ele><time>2026-05-03T07:55:21Z</time></trkpt><trkpt lat="39.81077730285294" lon="9.393188345357203"><ele>697.0</ele><time>2026-05-03T07:55:22Z</time></trkpt><trkpt lat="39.81072706920414" lon="9.393245894601085"><ele>697.0</ele><time>2026-05-03T07:55:23Z</time></trkpt><trkpt lat="39.81068800289846" lon="9.393314959867833"><ele>697.0</ele><time>2026-05-03T07:55:24Z</time></trkpt><trkpt lat="39.810629306630055" lon="9.393350416091458"><ele>697.0</ele><time>2026-05-03T07:55:25Z</time></trkpt><trkpt lat="39.810584817986324" lon="9.393418740149535"><ele>697.0</ele><time>2026-05-03T07:55:26Z</time></trkpt><trkpt lat="39.81053248838331" lon="9.393469272041708"><ele>697.0</ele><time>2026-05-03T07:55:27Z</time></trkpt><trkpt lat="39.81048161848477" lon="9.393520469224368"><ele>697.0</ele><time>2026-05-03T07:55:28Z</time></trkpt><trkpt lat="39.810430351326964" lon="9.393577139432047"><ele>697.0</ele><time>2026-05-03T07:55:29Z</time></trkpt><trkpt lat="39.81037452203218" lon="9.393633850098064"><ele>697.0</ele><time>2026-05-03T07:55:30Z</time></trkpt><trkpt lat="39.81031821933926" lon="9.393695279035983"><ele>697.0</ele><time>2026-05-03T07:55:31Z</time></trkpt><trkpt lat="39.81026394949559" lon="9.393750746211083"><ele>697.0</ele><time>2026-05-03T07:55:32Z</time></trkpt><trkpt lat="39.81021026481261" lon="9.393806079160898"><ele>697.0</ele><time>2026-05-03T07:55:33Z</time></trkpt><trkpt lat="39.81016112772213" lon="9.393868010741926"><ele>697.0</ele><time>2026-05-03T07:55:34Z</time></trkpt><trkpt lat="39.810115822600196" lon="9.393937369696486"><ele>698.3333333333334</ele><time>2026-05-03T07:55:35Z</time></trkpt><trkpt lat="39.810075046563526" lon="9.394012214420881"><ele>699.6666666666667</ele><time>2026-05-03T07:55:36Z</time></trkpt><trkpt lat="39.81004063269024" lon="9.3940917355993"><ele>701.0</ele><time>2026-05-03T07:55:37Z</time></trkpt><trkpt lat="39.81000115739905" lon="9.394169188402318"><ele>702.3333333333334</ele><time>2026-05-03T07:55:38Z</time></trkpt><trkpt lat="39.80995751125696" lon="9.39423902384889"><ele>703.6666666666666</ele><time>2026-05-03T07:55:39Z</time></trkpt><trkpt lat="39.809928742322555" lon="9.39431813307085"><ele>705.0</ele><time>2026-05-03T07:55:40Z</time></trkpt><trkpt lat="39.80988529521184" lon="9.394473394085352"><ele>704.9999999999999</ele><time>2026-05-03T07:55:42Z</time></trkpt><trkpt lat="39.80986647019074" lon="9.3945547900212"><ele>705.0</ele><time>2026-05-03T07:55:43Z</time></trkpt><trkpt lat="39.80985600089799" lon="9.394648583923422"><ele>705.0</ele><time>2026-05-03T07:55:44Z</time></trkpt><trkpt lat="39.80983667813336" lon="9.394739132088478"><ele>705.0</ele><time>2026-05-03T07:55:45Z</time></trkpt><trkpt lat="39.809817571796806" lon="9.39483509943616"><ele>705.0</ele><time>2026-05-03T07:55:46Z</time></trkpt><trkpt lat="39.80980606592925" lon="9.394932921568703"><ele>704.9999999999999</ele><time>2026-05-03T07:55:47Z</time></trkpt><trkpt lat="39.80979362068968" lon="9.395033035420592"><ele>705.0</ele><time>2026-05-03T07:55:48Z</time></trkpt><trkpt lat="39.80977960678387" lon="9.395128194810244"><ele>704.1428571428571</ele><time>2026-05-03T07:55:48.999Z</time></trkpt><trkpt lat="39.80976435061437" lon="9.395218451480941"><ele>703.2857142857142</ele><time>2026-05-03T07:55:49.999Z</time></trkpt><trkpt lat="39.80974552867265" lon="9.395305287417294"><ele>702.4285714285713</ele><time>2026-05-03T07:55:50.999Z</time></trkpt><trkpt lat="39.809722810683176" lon="9.395386022642718"><ele>701.5714285714286</ele><time>2026-05-03T07:55:51.999Z</time></trkpt><trkpt lat="39.809692669587456" lon="9.395464446438432"><ele>700.7142857142858</ele><time>2026-05-03T07:55:52.999Z</time></trkpt><trkpt lat="39.8096526913409" lon="9.395536897237994"><ele>699.8571428571428</ele><time>2026-05-03T07:55:53.999Z</time></trkpt><trkpt lat="39.80961513959427" lon="9.395611259827007"><ele>699.0</ele><time>2026-05-03T07:55:54.999Z</time></trkpt><trkpt lat="39.80955552439927" lon="9.395736901646261"><ele>699.0</ele><time>2026-05-03T07:55:57Z</time></trkpt><trkpt lat="39.80951158239859" lon="9.395829447474043"><ele>699.0</ele><time>2026-05-03T07:55:59Z</time></trkpt><trkpt lat="39.80945018763597" lon="9.395795003044865"><ele>699.0</ele><time>2026-05-03T07:56:02Z</time></trkpt><trkpt lat="39.8094956635713" lon="9.39565554904166"><ele>699.0</ele><time>2026-05-03T07:56:05Z</time></trkpt><trkpt lat="39.809499226004625" lon="9.39556980338909"><ele>699.0</ele><time>2026-05-03T07:56:06Z</time></trkpt><trkpt lat="39.809508326851194" lon="9.395480216443856"><ele>699.0</ele><time>2026-05-03T07:56:07Z</time></trkpt><trkpt lat="39.80949809418196" lon="9.395375699507541"><ele>699.0</ele><time>2026-05-03T07:56:08Z</time></trkpt><trkpt lat="39.80948628392306" lon="9.39526949723308"><ele>699.0</ele><time>2026-05-03T07:56:09Z</time></trkpt><trkpt lat="39.80946871742167" lon="9.395164795919683"><ele>699.0</ele><time>2026-05-03T07:56:10Z</time></trkpt><trkpt lat="39.809464947284454" lon="9.395059255404234"><ele>699.0</ele><time>2026-05-03T07:56:11Z</time></trkpt><trkpt lat="39.80944635007663" lon="9.394963055129825"><ele>699.0</ele><time>2026-05-03T07:56:12Z</time></trkpt><trkpt lat="39.809430332509415" lon="9.39488208717566"><ele>699.0</ele><time>2026-05-03T07:56:13Z</time></trkpt><trkpt lat="39.809391571058526" lon="9.394775705905527"><ele>699.0</ele><time>2026-05-03T07:56:15Z</time></trkpt><trkpt lat="39.80939966204759" lon="9.39467586268512"><ele>699.0</ele><time>2026-05-03T07:56:17Z</time></trkpt><trkpt lat="39.80944178607589" lon="9.394611442658652"><ele>699.0</ele><time>2026-05-03T07:56:18Z</time></trkpt><trkpt lat="39.8094786443764" lon="9.394523658714407"><ele>699.0</ele><time>2026-05-03T07:56:20Z</time></trkpt><trkpt lat="39.80952543467606" lon="9.394383856682955"><ele>699.0</ele><time>2026-05-03T07:56:32Z</time></trkpt><trkpt lat="39.80953832655579" lon="9.394298688612668"><ele>699.0</ele><time>2026-05-03T07:56:33Z</time></trkpt><trkpt lat="39.809555155672626" lon="9.394181880146743"><ele>700.0</ele><time>2026-05-03T07:56:34Z</time></trkpt><trkpt lat="39.809568028427" lon="9.39406851836196"><ele>701.0</ele><time>2026-05-03T07:56:35Z</time></trkpt><trkpt lat="39.80958533398553" lon="9.39394336606316"><ele>702.0</ele><time>2026-05-03T07:56:36Z</time></trkpt><trkpt lat="39.809612695254096" lon="9.393816968135056"><ele>703.0</ele><time>2026-05-03T07:56:37Z</time></trkpt><trkpt lat="39.80964091581658" lon="9.393710038738476"><ele>704.0</ele><time>2026-05-03T07:56:38Z</time></trkpt><trkpt lat="39.809666464255656" lon="9.393626669672233"><ele>705.0</ele><time>2026-05-03T07:56:39Z</time></trkpt><trkpt lat="39.80971633243768" lon="9.393513935905096"><ele>705.8571428571428</ele><time>2026-05-03T07:56:41Z</time></trkpt><trkpt lat="39.80973824718665" lon="9.393398551618164"><ele>706.7142857142857</ele><time>2026-05-03T07:57:12Z</time></trkpt><trkpt lat="39.809755675445224" lon="9.393315208714595"><ele>707.5714285714286</ele><time>2026-05-03T07:57:13Z</time></trkpt><trkpt lat="39.80974708106067" lon="9.393224906766157"><ele>708.4285714285713</ele><time>2026-05-03T07:57:14Z</time></trkpt><trkpt lat="39.80973925947265" lon="9.393132574273693"><ele>709.2857142857142</ele><time>2026-05-03T07:57:15Z</time></trkpt><trkpt lat="39.8097344644399" lon="9.393046077724534"><ele>710.1428571428571</ele><time>2026-05-03T07:57:16Z</time></trkpt><trkpt lat="39.809713155837095" lon="9.392967500371057"><ele>711.0</ele><time>2026-05-03T07:57:17Z</time></trkpt><trkpt lat="39.80969759633526" lon="9.392828528896846"><ele>712.0</ele><time>2026-05-03T07:57:19Z</time></trkpt><trkpt lat="39.80963909978675" lon="9.392755382028566"><ele>713.0</ele><time>2026-05-03T07:57:21Z</time></trkpt><trkpt lat="39.809553121103086" lon="9.392833058273354"><ele>714.0</ele><time>2026-05-03T07:57:22Z</time></trkpt><trkpt lat="39.80944864377131" lon="9.392860066934242"><ele>715.0</ele><time>2026-05-03T07:57:24Z</time></trkpt><trkpt lat="39.80935927833208" lon="9.39285435191781"><ele>716.0</ele><time>2026-05-03T07:57:26Z</time></trkpt><trkpt lat="39.80929354657586" lon="9.392857853735642"><ele>717.0</ele><time>2026-05-03T07:57:27Z</time></trkpt><trkpt lat="39.809215132863116" lon="9.392847257961279"><ele>721.3333333333334</ele><time>2026-05-03T07:57:28Z</time></trkpt><trkpt lat="39.80913819541332" lon="9.392819714321456"><ele>725.6666666666666</ele><time>2026-05-03T07:57:29Z</time></trkpt><trkpt lat="39.809067457104995" lon="9.39281581507278"><ele>730.0</ele><time>2026-05-03T07:57:30Z</time></trkpt><trkpt lat="39.809001560884454" lon="9.392816397389844"><ele>734.3333333333333</ele><time>2026-05-03T07:57:31Z</time></trkpt><trkpt lat="39.808894755921486" lon="9.392839170403048"><ele>738.6666666666666</ele><time>2026-05-03T07:57:33Z</time></trkpt><trkpt lat="39.80882337816826" lon="9.3928485354516"><ele>743.0</ele><time>2026-05-03T07:57:35Z</time></trkpt><trkpt lat="39.80878203579805" lon="9.392780921688288"><ele>743.0</ele><time>2026-05-03T07:57:40.999Z</time></trkpt><trkpt lat="39.80883918892119" lon="9.392671648598972"><ele>743.0</ele><time>2026-05-03T07:57:41.999Z</time></trkpt><trkpt lat="39.808863539911165" lon="9.392594322089737"><ele>743.0</ele><time>2026-05-03T07:57:43Z</time></trkpt><trkpt lat="39.8088804111526" lon="9.392500080876257"><ele>743.0</ele><time>2026-05-03T07:57:43.999Z</time></trkpt><trkpt lat="39.808890056984986" lon="9.392384268475162"><ele>743.0</ele><time>2026-05-03T07:57:44.999Z</time></trkpt><trkpt lat="39.80889775298102" lon="9.392246247575795"><ele>743.0</ele><time>2026-05-03T07:57:45.999Z</time></trkpt><trkpt lat="39.80890874740541" lon="9.392115313439046"><ele>745.0</ele><time>2026-05-03T07:57:46.999Z</time></trkpt><trkpt lat="39.808917613210554" lon="9.391963748683324"><ele>747.0</ele><time>2026-05-03T07:57:47.999Z</time></trkpt><trkpt lat="39.80893614318134" lon="9.3917814462172"><ele>749.0</ele><time>2026-05-03T07:57:48.999Z</time></trkpt><trkpt lat="39.80897126606398" lon="9.391627749427187"><ele>751.0</ele><time>2026-05-03T07:57:49.999Z</time></trkpt><trkpt lat="39.80902460791019" lon="9.391469729408202"><ele>755.0</ele><time>2026-05-03T07:57:50.999Z</time></trkpt><trkpt lat="39.80908937381551" lon="9.391331410768371"><ele>759.0</ele><time>2026-05-03T07:57:51.999Z</time></trkpt><trkpt lat="39.8091605258583" lon="9.391209339849029"><ele>763.0</ele><time>2026-05-03T07:57:52.999Z</time></trkpt><trkpt lat="39.80923234480236" lon="9.391096455954585"><ele>767.0</ele><time>2026-05-03T07:57:53.999Z</time></trkpt><trkpt lat="39.80930745915588" lon="9.39098007937583"><ele>761.75</ele><time>2026-05-03T07:57:54.999Z</time></trkpt><trkpt lat="39.809383757230385" lon="9.390869817388609"><ele>756.5</ele><time>2026-05-03T07:57:55.999Z</time></trkpt><trkpt lat="39.809473490912744" lon="9.390752789673282"><ele>751.25</ele><time>2026-05-03T07:57:56.999Z</time></trkpt><trkpt lat="39.80957464884654" lon="9.390648189869912"><ele>746.0</ele><time>2026-05-03T07:57:57.999Z</time></trkpt><trkpt lat="39.80968529306778" lon="9.390561408127887"><ele>750.5</ele><time>2026-05-03T07:57:58.999Z</time></trkpt><trkpt lat="39.80978669413751" lon="9.390475164171258"><ele>755.0</ele><time>2026-05-03T07:57:59.999Z</time></trkpt><trkpt lat="39.8098680476831" lon="9.390356946621605"><ele>759.5</ele><time>2026-05-03T07:58:00.999Z</time></trkpt><trkpt lat="39.80992980061331" lon="9.390203347709374"><ele>764.0</ele><time>2026-05-03T07:58:02Z</time></trkpt><trkpt lat="39.80998009628715" lon="9.390035009582276"><ele>764.0</ele><time>2026-05-03T07:58:03Z</time></trkpt><trkpt lat="39.81002120266083" lon="9.38985081346347"><ele>764.0</ele><time>2026-05-03T07:58:04Z</time></trkpt><trkpt lat="39.81007738929856" lon="9.389666781608318"><ele>764.0</ele><time>2026-05-03T07:58:05Z</time></trkpt><trkpt lat="39.81011037328464" lon="9.389466271205194"><ele>761.0</ele><time>2026-05-03T07:58:06Z</time></trkpt><trkpt lat="39.8101717518839" lon="9.38928812012028"><ele>758.0</ele><time>2026-05-03T07:58:07Z</time></trkpt><trkpt lat="39.81021065222821" lon="9.389125515920567"><ele>755.0</ele><time>2026-05-03T07:58:08Z</time></trkpt><trkpt lat="39.81023644803134" lon="9.38897169452134"><ele>752.0</ele><time>2026-05-03T07:58:09Z</time></trkpt><trkpt lat="39.81030631881409" lon="9.388843709593248"><ele>757.5</ele><time>2026-05-03T07:58:10Z</time></trkpt><trkpt lat="39.810400596615516" lon="9.388751209489966"><ele>763.0</ele><time>2026-05-03T07:58:11Z</time></trkpt><trkpt lat="39.810509929767605" lon="9.388664286228721"><ele>768.5</ele><time>2026-05-03T07:58:12Z</time></trkpt><trkpt lat="39.81061101710559" lon="9.388557882214874"><ele>774.0</ele><time>2026-05-03T07:58:13Z</time></trkpt><trkpt lat="39.81070817830382" lon="9.388441243611966"><ele>774.0</ele><time>2026-05-03T07:58:14Z</time></trkpt><trkpt lat="39.810762305047845" lon="9.388277110043116"><ele>774.0</ele><time>2026-05-03T07:58:15Z</time></trkpt><trkpt lat="39.81084754819497" lon="9.388144801589618"><ele>774.0</ele><time>2026-05-03T07:58:16Z</time></trkpt><trkpt lat="39.81095600677291" lon="9.388032403366998"><ele>774.0</ele><time>2026-05-03T07:58:17Z</time></trkpt><trkpt lat="39.811075507029145" lon="9.387935826237248"><ele>774.5</ele><time>2026-05-03T07:58:18Z</time></trkpt><trkpt lat="39.81119726531815" lon="9.387847447624056"><ele>775.0</ele><time>2026-05-03T07:58:19Z</time></trkpt><trkpt lat="39.81131281810929" lon="9.387743957789834"><ele>775.5</ele><time>2026-05-03T07:58:20Z</time></trkpt><trkpt lat="39.81142794701677" lon="9.387614363863172"><ele>776.0</ele><time>2026-05-03T07:58:21Z</time></trkpt><trkpt lat="39.81153597928517" lon="9.387459931348726"><ele>776.0</ele><time>2026-05-03T07:58:22Z</time></trkpt><trkpt lat="39.811638333214994" lon="9.387300182940827"><ele>776.0</ele><time>2026-05-03T07:58:23Z</time></trkpt><trkpt lat="39.81172755186609" lon="9.387163222688601"><ele>776.0</ele><time>2026-05-03T07:58:24Z</time></trkpt><trkpt lat="39.81179760763713" lon="9.38705167262544"><ele>776.0</ele><time>2026-05-03T07:58:25Z</time></trkpt><trkpt lat="39.81184883035332" lon="9.386954676301974"><ele>775.1999999999999</ele><time>2026-05-03T07:58:26Z</time></trkpt><trkpt lat="39.811896725340965" lon="9.386876582381944"><ele>774.4</ele><time>2026-05-03T07:58:27Z</time></trkpt><trkpt lat="39.81190655966202" lon="9.38678179953214"><ele>773.6</ele><time>2026-05-03T07:58:28Z</time></trkpt><trkpt lat="39.811843248629685" lon="9.386672079778172"><ele>772.8</ele><time>2026-05-03T07:58:29Z</time></trkpt><trkpt lat="39.81171527575678" lon="9.386702727262335"><ele>772.0</ele><time>2026-05-03T07:58:30Z</time></trkpt><trkpt lat="39.81168686903211" lon="9.386813235171575"><ele>773.0</ele><time>2026-05-03T07:58:31Z</time></trkpt><trkpt lat="39.811623418369756" lon="9.386923521194442"><ele>774.0</ele><time>2026-05-03T07:58:32Z</time></trkpt><trkpt lat="39.811559935048855" lon="9.38703783408451"><ele>775.0</ele><time>2026-05-03T07:58:33Z</time></trkpt><trkpt lat="39.81148778373021" lon="9.387145104058606"><ele>776.0</ele><time>2026-05-03T07:58:34Z</time></trkpt><trkpt lat="39.811384239338" lon="9.387265663995013"><ele>776.0</ele><time>2026-05-03T07:58:35Z</time></trkpt><trkpt lat="39.811254219171126" lon="9.387373288942177"><ele>776.0</ele><time>2026-05-03T07:58:36Z</time></trkpt><trkpt lat="39.81110370956871" lon="9.387455468608001"><ele>776.0</ele><time>2026-05-03T07:58:37Z</time></trkpt><trkpt lat="39.810961624558374" lon="9.387556666425763"><ele>781.5</ele><time>2026-05-03T07:58:38Z</time></trkpt><trkpt lat="39.81083328420626" lon="9.387648075306462"><ele>787.0</ele><time>2026-05-03T07:58:39Z</time></trkpt><trkpt lat="39.81070182597519" lon="9.387743032890448"><ele>792.5</ele><time>2026-05-03T07:58:40Z</time></trkpt><trkpt lat="39.81057369981442" lon="9.387838017788987"><ele>798.0</ele><time>2026-05-03T07:58:41Z</time></trkpt><trkpt lat="39.810447117003854" lon="9.387915719694062"><ele>798.0</ele><time>2026-05-03T07:58:42Z</time></trkpt><trkpt lat="39.81032230601988" lon="9.387982568215188"><ele>798.0</ele><time>2026-05-03T07:58:43Z</time></trkpt><trkpt lat="39.810194463397494" lon="9.388051446893694"><ele>798.0</ele><time>2026-05-03T07:58:44Z</time></trkpt><trkpt lat="39.810082548170314" lon="9.388140572707025"><ele>798.0</ele><time>2026-05-03T07:58:45Z</time></trkpt><trkpt lat="39.80997720611597" lon="9.388240816418662"><ele>798.0</ele><time>2026-05-03T07:58:46Z</time></trkpt><trkpt lat="39.80986422302745" lon="9.388357214896777"><ele>798.0</ele><time>2026-05-03T07:58:47Z</time></trkpt><trkpt lat="39.80971780139092" lon="9.388438379711543"><ele>798.0</ele><time>2026-05-03T07:58:48Z</time></trkpt><trkpt lat="39.80955342114414" lon="9.38851684239123"><ele>798.0</ele><time>2026-05-03T07:58:49Z</time></trkpt><trkpt lat="39.80938794287172" lon="9.388603794216221"><ele>798.0</ele><time>2026-05-03T07:58:50Z</time></trkpt><trkpt lat="39.80922362901804" lon="9.388684762730367"><ele>798.0</ele><time>2026-05-03T07:58:51Z</time></trkpt><trkpt lat="39.80906611234183" lon="9.388751537031085"><ele>798.3333333333333</ele><time>2026-05-03T07:58:52Z</time></trkpt><trkpt lat="39.808930462847" lon="9.388842554557232"><ele>798.6666666666666</ele><time>2026-05-03T07:58:53Z</time></trkpt><trkpt lat="39.80880986884106" lon="9.388988445245674"><ele>799.0</ele><time>2026-05-03T07:58:54Z</time></trkpt><trkpt lat="39.80870824798015" lon="9.389164463356831"><ele>799.0</ele><time>2026-05-03T07:58:55Z</time></trkpt><trkpt lat="39.80860596000263" lon="9.389341173605125"><ele>799.0</ele><time>2026-05-03T07:58:56Z</time></trkpt><trkpt lat="39.808514516382424" lon="9.389511456316725"><ele>799.0</ele><time>2026-05-03T07:58:57Z</time></trkpt><trkpt lat="39.80839754008918" lon="9.389639731989874"><ele>804.3333333333333</ele><time>2026-05-03T07:58:58Z</time></trkpt><trkpt lat="39.80832054465943" lon="9.389819672263345"><ele>809.6666666666667</ele><time>2026-05-03T07:58:59Z</time></trkpt><trkpt lat="39.80827741238831" lon="9.390028277317635"><ele>815.0</ele><time>2026-05-03T07:59:00Z</time></trkpt><trkpt lat="39.80823456391452" lon="9.390241390815468"><ele>815.0</ele><time>2026-05-03T07:59:01Z</time></trkpt><trkpt lat="39.80819207226591" lon="9.390443814188982"><ele>815.0</ele><time>2026-05-03T07:59:02Z</time></trkpt><trkpt lat="39.808114595779486" lon="9.390625816088349"><ele>815.0</ele><time>2026-05-03T07:59:03Z</time></trkpt><trkpt lat="39.808023118132404" lon="9.390796087099524"><ele>812.0</ele><time>2026-05-03T07:59:04Z</time></trkpt><trkpt lat="39.807930703168324" lon="9.39093424366554"><ele>809.0</ele><time>2026-05-03T07:59:05Z</time></trkpt><trkpt lat="39.80783608428495" lon="9.391055170513926"><ele>806.0</ele><time>2026-05-03T07:59:06Z</time></trkpt><trkpt lat="39.807711813853444" lon="9.391133259808628"><ele>803.0</ele><time>2026-05-03T07:59:07Z</time></trkpt><trkpt lat="39.8075752437974" lon="9.39119889700682"><ele>809.25</ele><time>2026-05-03T07:59:08Z</time></trkpt><trkpt lat="39.80743705199268" lon="9.391256378451963"><ele>815.5</ele><time>2026-05-03T07:59:09Z</time></trkpt><trkpt lat="39.807324085753685" lon="9.39130707764735"><ele>821.75</ele><time>2026-05-03T07:59:10Z</time></trkpt><trkpt lat="39.8072203313754" lon="9.391276222714414"><ele>828.0</ele><time>2026-05-03T07:59:11Z</time></trkpt><trkpt lat="39.8071411816053" lon="9.391216096121234"><ele>828.0</ele><time>2026-05-03T07:59:12Z</time></trkpt><trkpt lat="39.80709595151517" lon="9.391129878865245"><ele>828.0</ele><time>2026-05-03T07:59:13Z</time></trkpt><trkpt lat="39.80707399985377" lon="9.391007286888918"><ele>828.0</ele><time>2026-05-03T07:59:14Z</time></trkpt><trkpt lat="39.80707704449303" lon="9.390875433021273"><ele>828.0</ele><time>2026-05-03T07:59:15Z</time></trkpt><trkpt lat="39.80709817013622" lon="9.390737045894705"><ele>828.0</ele><time>2026-05-03T07:59:16Z</time></trkpt><trkpt lat="39.80713606263664" lon="9.39058947197253"><ele>829.25</ele><time>2026-05-03T07:59:17Z</time></trkpt><trkpt lat="39.80719213015113" lon="9.39044888998044"><ele>830.5</ele><time>2026-05-03T07:59:18Z</time></trkpt><trkpt lat="39.80724580487965" lon="9.390304640074106"><ele>831.75</ele><time>2026-05-03T07:59:19Z</time></trkpt><trkpt lat="39.80727875763755" lon="9.390165247383479"><ele>833.0</ele><time>2026-05-03T07:59:20Z</time></trkpt><trkpt lat="39.807299141576955" lon="9.39001901212111"><ele>833.0</ele><time>2026-05-03T07:59:21Z</time></trkpt><trkpt lat="39.80730549209469" lon="9.389870505611393"><ele>833.0</ele><time>2026-05-03T07:59:22Z</time></trkpt><trkpt lat="39.80729641692643" lon="9.389710127472421"><ele>833.0</ele><time>2026-05-03T07:59:23Z</time></trkpt><trkpt lat="39.80727475701868" lon="9.3895706893228"><ele>833.0</ele><time>2026-05-03T07:59:24Z</time></trkpt><trkpt lat="39.80723422251981" lon="9.389463224694586"><ele>833.0</ele><time>2026-05-03T07:59:25Z</time></trkpt><trkpt lat="39.80718640053971" lon="9.389379768713352"><ele>833.8333333333334</ele><time>2026-05-03T07:59:26Z</time></trkpt><trkpt lat="39.807090640916506" lon="9.389375126534341"><ele>834.6666666666667</ele><time>2026-05-03T07:59:27Z</time></trkpt><trkpt lat="39.807024542703736" lon="9.389434842808543"><ele>835.5</ele><time>2026-05-03T07:59:28Z</time></trkpt><trkpt lat="39.80696991034125" lon="9.389494163204635"><ele>836.3333333333333</ele><time>2026-05-03T07:59:29Z</time></trkpt><trkpt lat="39.806916782905446" lon="9.389559801000361"><ele>837.1666666666666</ele><time>2026-05-03T07:59:30Z</time></trkpt><trkpt lat="39.80686746104188" lon="9.389637891381682"><ele>838.0</ele><time>2026-05-03T07:59:31Z</time></trkpt><trkpt lat="39.80680154025167" lon="9.3897415754858"><ele>838.0</ele><time>2026-05-03T07:59:32Z</time></trkpt><trkpt lat="39.806725418925616" lon="9.389870883938343"><ele>838.0</ele><time>2026-05-03T07:59:33Z</time></trkpt><trkpt lat="39.80663118398302" lon="9.390019286202739"><ele>838.0</ele><time>2026-05-03T07:59:34Z</time></trkpt><trkpt lat="39.80653352364076" lon="9.39016942488811"><ele>838.0</ele><time>2026-05-03T07:59:35Z</time></trkpt><trkpt lat="39.8064345407782" lon="9.390332002425476"><ele>833.3333333333333</ele><time>2026-05-03T07:59:36Z</time></trkpt><trkpt lat="39.80632539533046" lon="9.390512937171987"><ele>828.6666666666667</ele><time>2026-05-03T07:59:37Z</time></trkpt><trkpt lat="39.806238162369866" lon="9.39069633583098"><ele>824.0</ele><time>2026-05-03T07:59:38Z</time></trkpt><trkpt lat="39.80617644314772" lon="9.390867202702093"><ele>824.0</ele><time>2026-05-03T07:59:39Z</time></trkpt><trkpt lat="39.80610625276039" lon="9.391001215745485"><ele>824.0</ele><time>2026-05-03T07:59:40Z</time></trkpt><trkpt lat="39.806005397098026" lon="9.391085054219158"><ele>824.0</ele><time>2026-05-03T07:59:41Z</time></trkpt><trkpt lat="39.80590096032922" lon="9.39115223179377"><ele>824.0</ele><time>2026-05-03T07:59:42Z</time></trkpt><trkpt lat="39.805781437894055" lon="9.3911834504202"><ele>829.5</ele><time>2026-05-03T07:59:43Z</time></trkpt><trkpt lat="39.80564806266232" lon="9.391202224438246"><ele>835.0</ele><time>2026-05-03T07:59:44Z</time></trkpt><trkpt lat="39.805500968114075" lon="9.391167820673143"><ele>840.5</ele><time>2026-05-03T07:59:45Z</time></trkpt><trkpt lat="39.805353179837844" lon="9.391122236641882"><ele>846.0</ele><time>2026-05-03T07:59:46Z</time></trkpt><trkpt lat="39.80523404860124" lon="9.391103473224206"><ele>844.25</ele><time>2026-05-03T07:59:47Z</time></trkpt><trkpt lat="39.80512077685625" lon="9.391099084841336"><ele>842.5</ele><time>2026-05-03T07:59:48Z</time></trkpt><trkpt lat="39.805027335916854" lon="9.39120793407"><ele>840.75</ele><time>2026-05-03T07:59:49Z</time></trkpt><trkpt lat="39.8049291002835" lon="9.391338921736727"><ele>839.0</ele><time>2026-05-03T07:59:50Z</time></trkpt><trkpt lat="39.8048164482904" lon="9.39147103312095"><ele>839.0</ele><time>2026-05-03T07:59:51Z</time></trkpt><trkpt lat="39.8046976643566" lon="9.391563553215166"><ele>839.0</ele><time>2026-05-03T07:59:52Z</time></trkpt><trkpt lat="39.80456540137986" lon="9.391629838146205"><ele>839.0</ele><time>2026-05-03T07:59:53Z</time></trkpt><trkpt lat="39.80441211199179" lon="9.391670374879928"><ele>839.0</ele><time>2026-05-03T07:59:54Z</time></trkpt><trkpt lat="39.80426082353826" lon="9.391662287490409"><ele>841.5</ele><time>2026-05-03T07:59:55Z</time></trkpt><trkpt lat="39.804103845080206" lon="9.39167629430779"><ele>844.0</ele><time>2026-05-03T07:59:56Z</time></trkpt><trkpt lat="39.80397738777384" lon="9.39168887666109"><ele>846.5</ele><time>2026-05-03T07:59:57Z</time></trkpt><trkpt lat="39.803881115021746" lon="9.391704838929169"><ele>849.0</ele><time>2026-05-03T07:59:58Z</time></trkpt><trkpt lat="39.80381511866761" lon="9.391657546638514"><ele>849.0</ele><time>2026-05-03T07:59:59Z</time></trkpt><trkpt lat="39.80377561297956" lon="9.391578237468133"><ele>849.0</ele><time>2026-05-03T08:00:00Z</time></trkpt><trkpt lat="39.8037645402875" lon="9.391464131698436"><ele>849.0</ele><time>2026-05-03T08:00:01Z</time></trkpt><trkpt lat="39.80378046270685" lon="9.39133049021426"><ele>849.0</ele><time>2026-05-03T08:00:02Z</time></trkpt><trkpt lat="39.80380258420185" lon="9.39116776266255"><ele>849.0</ele><time>2026-05-03T08:00:03Z</time></trkpt><trkpt lat="39.80381227242644" lon="9.391002434147635"><ele>853.6666666666667</ele><time>2026-05-03T08:00:04Z</time></trkpt><trkpt lat="39.803804210618765" lon="9.390813389476058"><ele>858.3333333333334</ele><time>2026-05-03T08:00:05Z</time></trkpt><trkpt lat="39.80378853644671" lon="9.390615514848761"><ele>863.0</ele><time>2026-05-03T08:00:06Z</time></trkpt><trkpt lat="39.80371200159373" lon="9.390433829699157"><ele>864.2</ele><time>2026-05-03T08:00:07Z</time></trkpt><trkpt lat="39.803662413260206" lon="9.390273505154369"><ele>865.4</ele><time>2026-05-03T08:00:08Z</time></trkpt><trkpt lat="39.80363854353658" lon="9.39013671850044"><ele>866.6000000000001</ele><time>2026-05-03T08:00:09Z</time></trkpt><trkpt lat="39.803654423927455" lon="9.390010173227456"><ele>867.8000000000001</ele><time>2026-05-03T08:00:10Z</time></trkpt><trkpt lat="39.80370402356204" lon="9.389906248795038"><ele>869.0</ele><time>2026-05-03T08:00:11Z</time></trkpt><trkpt lat="39.803789257433" lon="9.38981224179081"><ele>869.0</ele><time>2026-05-03T08:00:12Z</time></trkpt><trkpt lat="39.80388511175589" lon="9.389716386934438"><ele>869.0</ele><time>2026-05-03T08:00:13Z</time></trkpt><trkpt lat="39.803991378663525" lon="9.389614990257837"><ele>869.0</ele><time>2026-05-03T08:00:14Z</time></trkpt><trkpt lat="39.80410834145463" lon="9.389496723198942"><ele>869.0</ele><time>2026-05-03T08:00:15Z</time></trkpt><trkpt lat="39.80423565657972" lon="9.38936510378349"><ele>871.3333333333334</ele><time>2026-05-03T08:00:16Z</time></trkpt><trkpt lat="39.804360021663804" lon="9.389239551552441"><ele>873.6666666666667</ele><time>2026-05-03T08:00:17Z</time></trkpt><trkpt lat="39.80449674106854" lon="9.389104665889617"><ele>876.0</ele><time>2026-05-03T08:00:18Z</time></trkpt><trkpt lat="39.8046432260276" lon="9.38896427725886"><ele>876.0</ele><time>2026-05-03T08:00:19Z</time></trkpt><trkpt lat="39.80479251685358" lon="9.388813378272454"><ele>876.0</ele><time>2026-05-03T08:00:20Z</time></trkpt><trkpt lat="39.8049314609015" lon="9.388652977605268"><ele>876.0</ele><time>2026-05-03T08:00:21Z</time></trkpt><trkpt lat="39.805057204654354" lon="9.38847841689944"><ele>876.0</ele><time>2026-05-03T08:00:22Z</time></trkpt><trkpt lat="39.8051723883791" lon="9.388290915927172"><ele>876.0</ele><time>2026-05-03T08:00:23Z</time></trkpt><trkpt lat="39.80526908116586" lon="9.38810750620691"><ele>876.0</ele><time>2026-05-03T08:00:24Z</time></trkpt><trkpt lat="39.80533794678114" lon="9.387938302977265"><ele>877.0</ele><time>2026-05-03T08:00:25Z</time></trkpt><trkpt lat="39.80537708877462" lon="9.387774585997592"><ele>878.0</ele><time>2026-05-03T08:00:26Z</time></trkpt><trkpt lat="39.8053969443691" lon="9.387597071146695"><ele>879.0</ele><time>2026-05-03T08:00:27Z</time></trkpt><trkpt lat="39.805386524797065" lon="9.387416127912095"><ele>880.0</ele><time>2026-05-03T08:00:28Z</time></trkpt><trkpt lat="39.80534392416777" lon="9.387228002178219"><ele>882.0</ele><time>2026-05-03T08:00:29Z</time></trkpt><trkpt lat="39.805281602516054" lon="9.387014941631678"><ele>884.0</ele><time>2026-05-03T08:00:30Z</time></trkpt><trkpt lat="39.80520182815676" lon="9.386783451279552"><ele>886.0</ele><time>2026-05-03T08:00:31Z</time></trkpt><trkpt lat="39.80510749597844" lon="9.386542167113433"><ele>891.5</ele><time>2026-05-03T08:00:32Z</time></trkpt><trkpt lat="39.80500013854736" lon="9.386288935391393"><ele>897.0</ele><time>2026-05-03T08:00:33Z</time></trkpt><trkpt lat="39.804883429026496" lon="9.386024726105108"><ele>897.0</ele><time>2026-05-03T08:00:34Z</time></trkpt><trkpt lat="39.8047657241104" lon="9.38576046857161"><ele>897.0</ele><time>2026-05-03T08:00:35Z</time></trkpt><trkpt lat="39.80465053782785" lon="9.385507181035228"><ele>901.0</ele><time>2026-05-03T08:00:36Z</time></trkpt><trkpt lat="39.80454269283745" lon="9.385273070014232"><ele>905.0</ele><time>2026-05-03T08:00:37Z</time></trkpt><trkpt lat="39.80445140815674" lon="9.385065294495051"><ele>909.0</ele><time>2026-05-03T08:00:38Z</time></trkpt><trkpt lat="39.804369342100024" lon="9.384873605162552"><ele>907.75</ele><time>2026-05-03T08:00:39Z</time></trkpt><trkpt lat="39.804313984046004" lon="9.384697405957933"><ele>906.5</ele><time>2026-05-03T08:00:40Z</time></trkpt><trkpt lat="39.80429010675113" lon="9.384523070706491"><ele>905.25</ele><time>2026-05-03T08:00:41Z</time></trkpt><trkpt lat="39.80429932525805" lon="9.384349724435385"><ele>904.0</ele><time>2026-05-03T08:00:42Z</time></trkpt><trkpt lat="39.804340520752326" lon="9.384183967914856"><ele>906.75</ele><time>2026-05-03T08:00:43Z</time></trkpt><trkpt lat="39.80440607871857" lon="9.384040933106096"><ele>909.5</ele><time>2026-05-03T08:00:44Z</time></trkpt><trkpt lat="39.804504288258634" lon="9.383900999998472"><ele>912.25</ele><time>2026-05-03T08:00:45Z</time></trkpt><trkpt lat="39.80462641295547" lon="9.383753724008232"><ele>915.0</ele><time>2026-05-03T08:00:46Z</time></trkpt><trkpt lat="39.804742076677336" lon="9.383576197621469"><ele>915.0</ele><time>2026-05-03T08:00:47Z</time></trkpt><trkpt lat="39.80486711847333" lon="9.38339707444394"><ele>915.0</ele><time>2026-05-03T08:00:48Z</time></trkpt><trkpt lat="39.80498300117018" lon="9.383221737600746"><ele>915.0</ele><time>2026-05-03T08:00:49Z</time></trkpt><trkpt lat="39.80510127120591" lon="9.383044202178718"><ele>916.6666666666667</ele><time>2026-05-03T08:00:50Z</time></trkpt><trkpt lat="39.80524104002833" lon="9.382879333927002"><ele>918.3333333333334</ele><time>2026-05-03T08:00:51Z</time></trkpt><trkpt lat="39.8053922121767" lon="9.38274589574512"><ele>920.0</ele><time>2026-05-03T08:00:52Z</time></trkpt><trkpt lat="39.80554015997135" lon="9.382618718628077"><ele>920.0</ele><time>2026-05-03T08:00:53Z</time></trkpt><trkpt lat="39.80567221013227" lon="9.382493563353858"><ele>920.0</ele><time>2026-05-03T08:00:54Z</time></trkpt><trkpt lat="39.80578291418286" lon="9.382357719875968"><ele>920.0</ele><time>2026-05-03T08:00:55Z</time></trkpt><trkpt lat="39.8058814263991" lon="9.382197329440858"><ele>918.5</ele><time>2026-05-03T08:00:56Z</time></trkpt><trkpt lat="39.805948492938384" lon="9.382044453151028"><ele>917.0</ele><time>2026-05-03T08:00:57Z</time></trkpt><trkpt lat="39.80600096136273" lon="9.381898519706908"><ele>915.5</ele><time>2026-05-03T08:00:58Z</time></trkpt><trkpt lat="39.80604080128225" lon="9.381744990243476"><ele>914.0</ele><time>2026-05-03T08:00:59Z</time></trkpt><trkpt lat="39.80602213462603" lon="9.381564343382315"><ele>914.0</ele><time>2026-05-03T08:01:00Z</time></trkpt><trkpt lat="39.80596615309577" lon="9.381376043962925"><ele>914.0</ele><time>2026-05-03T08:01:01Z</time></trkpt><trkpt lat="39.80591250200983" lon="9.381170165347525"><ele>914.0</ele><time>2026-05-03T08:01:02Z</time></trkpt><trkpt lat="39.80585587426529" lon="9.380936542066557"><ele>916.3333333333334</ele><time>2026-05-03T08:01:03Z</time></trkpt><trkpt lat="39.80579622102209" lon="9.38068901193915"><ele>918.6666666666667</ele><time>2026-05-03T08:01:04Z</time></trkpt><trkpt lat="39.80573573641274" lon="9.380468362769832"><ele>921.0</ele><time>2026-05-03T08:01:05Z</time></trkpt><trkpt lat="39.80566541022183" lon="9.380281542232554"><ele>925.3333333333333</ele><time>2026-05-03T08:01:06Z</time></trkpt><trkpt lat="39.80557541802746" lon="9.380115574133107"><ele>929.6666666666666</ele><time>2026-05-03T08:01:07Z</time></trkpt><trkpt lat="39.805468121957716" lon="9.379967265738038"><ele>934.0</ele><time>2026-05-03T08:01:08Z</time></trkpt><trkpt lat="39.805342267272096" lon="9.379850744312568"><ele>934.0</ele><time>2026-05-03T08:01:09Z</time></trkpt><trkpt lat="39.80520630103275" lon="9.379743070785233"><ele>934.0</ele><time>2026-05-03T08:01:10Z</time></trkpt><trkpt lat="39.8050463863477" lon="9.379714925011026"><ele>934.0</ele><time>2026-05-03T08:01:11Z</time></trkpt><trkpt lat="39.80487190676693" lon="9.379712707472018"><ele>928.6666666666666</ele><time>2026-05-03T08:01:12Z</time></trkpt><trkpt lat="39.804678737926096" lon="9.379703366106611"><ele>923.3333333333333</ele><time>2026-05-03T08:01:13Z</time></trkpt><trkpt lat="39.80448771919208" lon="9.379725757865815"><ele>918.0</ele><time>2026-05-03T08:01:14Z</time></trkpt><trkpt lat="39.8042958650107" lon="9.379760890358307"><ele>918.0</ele><time>2026-05-03T08:01:15Z</time></trkpt><trkpt lat="39.80413272564549" lon="9.379758098451612"><ele>918.0</ele><time>2026-05-03T08:01:16Z</time></trkpt><trkpt lat="39.803986966872536" lon="9.379717314369305"><ele>918.0</ele><time>2026-05-03T08:01:17Z</time></trkpt><trkpt lat="39.80385021169342" lon="9.379639314533748"><ele>923.75</ele><time>2026-05-03T08:01:18Z</time></trkpt><trkpt lat="39.803730052791416" lon="9.37953351152868"><ele>929.5</ele><time>2026-05-03T08:01:19Z</time></trkpt><trkpt lat="39.80362714207861" lon="9.379394989283194"><ele>935.25</ele><time>2026-05-03T08:01:20Z</time></trkpt><trkpt lat="39.80356152107038" lon="9.379215658517863"><ele>941.0</ele><time>2026-05-03T08:01:21Z</time></trkpt><trkpt lat="39.80349757703933" lon="9.379017195361621"><ele>937.0</ele><time>2026-05-03T08:01:22Z</time></trkpt><trkpt lat="39.803433814159504" lon="9.378794864269182"><ele>933.0</ele><time>2026-05-03T08:01:23Z</time></trkpt><trkpt lat="39.803376072000994" lon="9.378576096581027"><ele>929.0</ele><time>2026-05-03T08:01:24Z</time></trkpt><trkpt lat="39.803328775254926" lon="9.378345166035373"><ele>929.0</ele><time>2026-05-03T08:01:25Z</time></trkpt><trkpt lat="39.80329888248523" lon="9.378117833883675"><ele>929.0</ele><time>2026-05-03T08:01:26Z</time></trkpt><trkpt lat="39.80330419874298" lon="9.377895822925082"><ele>929.0</ele><time>2026-05-03T08:01:27Z</time></trkpt><trkpt lat="39.80333750317633" lon="9.37767482670909"><ele>929.6666666666667</ele><time>2026-05-03T08:01:28Z</time></trkpt><trkpt lat="39.803403787808556" lon="9.37745775011395"><ele>930.3333333333333</ele><time>2026-05-03T08:01:29Z</time></trkpt><trkpt lat="39.80348094114491" lon="9.377232044806782"><ele>931.0</ele><time>2026-05-03T08:01:30Z</time></trkpt><trkpt lat="39.80357483823213" lon="9.37699320822477"><ele>930.6666666666666</ele><time>2026-05-03T08:01:31Z</time></trkpt><trkpt lat="39.80367414706205" lon="9.376763500729647"><ele>930.3333333333333</ele><time>2026-05-03T08:01:32Z</time></trkpt><trkpt lat="39.80379186137995" lon="9.376535562067943"><ele>930.0</ele><time>2026-05-03T08:01:33Z</time></trkpt><trkpt lat="39.80392120657084" lon="9.376330992897088"><ele>930.0</ele><time>2026-05-03T08:01:34Z</time></trkpt><trkpt lat="39.80406272705377" lon="9.376135168244048"><ele>930.0</ele><time>2026-05-03T08:01:35Z</time></trkpt><trkpt lat="39.804221413129575" lon="9.375942197592297"><ele>930.0</ele><time>2026-05-03T08:01:36Z</time></trkpt><trkpt lat="39.8043950611133" lon="9.37575772731437"><ele>930.5</ele><time>2026-05-03T08:01:37Z</time></trkpt><trkpt lat="39.80457759379567" lon="9.375566756556722"><ele>931.0</ele><time>2026-05-03T08:01:38Z</time></trkpt><trkpt lat="39.80475438166239" lon="9.375382579801704"><ele>931.0</ele><time>2026-05-03T08:01:39Z</time></trkpt><trkpt lat="39.80492114446969" lon="9.375203396248656"><ele>931.0</ele><time>2026-05-03T08:01:40Z</time></trkpt><trkpt lat="39.80508877670173" lon="9.375023740245064"><ele>931.0</ele><time>2026-05-03T08:01:41Z</time></trkpt><trkpt lat="39.80526986215292" lon="9.374834962996438"><ele>934.5</ele><time>2026-05-03T08:01:42Z</time></trkpt><trkpt lat="39.80544672457978" lon="9.374648309333464"><ele>938.0</ele><time>2026-05-03T08:01:43Z</time></trkpt><trkpt lat="39.80564493537811" lon="9.374456627792267"><ele>938.0</ele><time>2026-05-03T08:01:44Z</time></trkpt><trkpt lat="39.80581727236071" lon="9.374283155702528"><ele>938.0</ele><time>2026-05-03T08:01:45Z</time></trkpt><trkpt lat="39.80598127537919" lon="9.374108746999054"><ele>938.0</ele><time>2026-05-03T08:01:46Z</time></trkpt><trkpt lat="39.80613968138712" lon="9.373914076966393"><ele>940.6666666666667</ele><time>2026-05-03T08:01:47Z</time></trkpt><trkpt lat="39.8062859645964" lon="9.373706006591206"><ele>943.3333333333333</ele><time>2026-05-03T08:01:48Z</time></trkpt><trkpt lat="39.80641720769739" lon="9.373500079497582"><ele>946.0</ele><time>2026-05-03T08:01:49Z</time></trkpt><trkpt lat="39.80653689203076" lon="9.373304756732601"><ele>946.0</ele><time>2026-05-03T08:01:50Z</time></trkpt><trkpt lat="39.806641442487496" lon="9.373113343003407"><ele>946.0</ele><time>2026-05-03T08:01:51Z</time></trkpt><trkpt lat="39.80673001227896" lon="9.372904837492062"><ele>946.0</ele><time>2026-05-03T08:01:52Z</time></trkpt><trkpt lat="39.806802490085936" lon="9.372664432334805"><ele>948.3333333333333</ele><time>2026-05-03T08:01:53Z</time></trkpt><trkpt lat="39.806875823923534" lon="9.372407245718152"><ele>950.6666666666667</ele><time>2026-05-03T08:01:54Z</time></trkpt><trkpt lat="39.80695223047368" lon="9.372153141970736"><ele>953.0</ele><time>2026-05-03T08:01:55Z</time></trkpt><trkpt lat="39.807026737368595" lon="9.371903891838596"><ele>954.3333333333334</ele><time>2026-05-03T08:01:56Z</time></trkpt><trkpt lat="39.80710322121995" lon="9.371663651936329"><ele>955.6666666666667</ele><time>2026-05-03T08:01:57Z</time></trkpt><trkpt lat="39.807180571107786" lon="9.37142757787193"><ele>957.0</ele><time>2026-05-03T08:01:58Z</time></trkpt><trkpt lat="39.80725365293394" lon="9.371208032881071"><ele>957.0</ele><time>2026-05-03T08:01:59Z</time></trkpt><trkpt lat="39.80733063756003" lon="9.371011791800951"><ele>957.0</ele><time>2026-05-03T08:02:00Z</time></trkpt><trkpt lat="39.80743193522623" lon="9.370818784436977"><ele>957.0</ele><time>2026-05-03T08:02:01Z</time></trkpt><trkpt lat="39.807564668958804" lon="9.370629301633247"><ele>958.6666666666667</ele><time>2026-05-03T08:02:02Z</time></trkpt><trkpt lat="39.80770972748294" lon="9.370443053623177"><ele>960.3333333333334</ele><time>2026-05-03T08:02:03Z</time></trkpt><trkpt lat="39.80785735576599" lon="9.370258116986683"><ele>962.0</ele><time>2026-05-03T08:02:04Z</time></trkpt><trkpt lat="39.80799920020304" lon="9.370089987933753"><ele>962.0</ele><time>2026-05-03T08:02:05Z</time></trkpt><trkpt lat="39.808143634355986" lon="9.36993842129038"><ele>962.0</ele><time>2026-05-03T08:02:06Z</time></trkpt><trkpt lat="39.80830313312393" lon="9.369814354047373"><ele>962.0</ele><time>2026-05-03T08:02:07Z</time></trkpt><trkpt lat="39.80848635116673" lon="9.369696924665147"><ele>960.6666666666667</ele><time>2026-05-03T08:02:08Z</time></trkpt><trkpt lat="39.808669805264735" lon="9.3695841430179"><ele>959.3333333333333</ele><time>2026-05-03T08:02:09Z</time></trkpt><trkpt lat="39.80883655294583" lon="9.369485105501356"><ele>958.0</ele><time>2026-05-03T08:02:10Z</time></trkpt><trkpt lat="39.80900954842823" lon="9.369396154199787"><ele>958.0</ele><time>2026-05-03T08:02:10.999Z</time></trkpt><trkpt lat="39.809190359469106" lon="9.36932844672293"><ele>958.0</ele><time>2026-05-03T08:02:11.999Z</time></trkpt><trkpt lat="39.80938275965053" lon="9.369289644746743"><ele>958.0</ele><time>2026-05-03T08:02:12.999Z</time></trkpt><trkpt lat="39.809589759961916" lon="9.369257169194706"><ele>959.6666666666666</ele><time>2026-05-03T08:02:14Z</time></trkpt><trkpt lat="39.809797761079274" lon="9.369218089692238"><ele>961.3333333333333</ele><time>2026-05-03T08:02:15Z</time></trkpt><trkpt lat="39.80999683023088" lon="9.369180917056944"><ele>963.0</ele><time>2026-05-03T08:02:16Z</time></trkpt><trkpt lat="39.810185448321356" lon="9.369150270460187"><ele>964.0</ele><time>2026-05-03T08:02:17Z</time></trkpt><trkpt lat="39.810359660206636" lon="9.369121948214625"><ele>965.0</ele><time>2026-05-03T08:02:18Z</time></trkpt><trkpt lat="39.81052574358563" lon="9.369098782669008"><ele>966.0</ele><time>2026-05-03T08:02:19Z</time></trkpt><trkpt lat="39.81068722772658" lon="9.369075664254941"><ele>966.0</ele><time>2026-05-03T08:02:20Z</time></trkpt><trkpt lat="39.810835552942144" lon="9.369047324069195"><ele>966.0</ele><time>2026-05-03T08:02:21Z</time></trkpt><trkpt lat="39.810965350584425" lon="9.369007451367533"><ele>966.0</ele><time>2026-05-03T08:02:22Z</time></trkpt><trkpt lat="39.81107477637634" lon="9.368939268289447"><ele>966.0</ele><time>2026-05-03T08:02:23Z</time></trkpt><trkpt lat="39.81116592209042" lon="9.368848694663109"><ele>970.25</ele><time>2026-05-03T08:02:24Z</time></trkpt><trkpt lat="39.81124464130159" lon="9.368746627481755"><ele>974.5</ele><time>2026-05-03T08:02:25Z</time></trkpt><trkpt lat="39.8112829939891" lon="9.36860062786825"><ele>978.75</ele><time>2026-05-03T08:02:26Z</time></trkpt><trkpt lat="39.8112857834471" lon="9.368437642449678"><ele>983.0</ele><time>2026-05-03T08:02:27Z</time></trkpt><trkpt lat="39.81123294764989" lon="9.368286871877618"><ele>983.0</ele><time>2026-05-03T08:02:28Z</time></trkpt><trkpt lat="39.81112844922639" lon="9.36817851929877"><ele>983.0</ele><time>2026-05-03T08:02:29Z</time></trkpt><trkpt lat="39.811016206491715" lon="9.368040160138541"><ele>983.0</ele><time>2026-05-03T08:02:30Z</time></trkpt><trkpt lat="39.81089694072586" lon="9.367919109181418"><ele>983.0</ele><time>2026-05-03T08:02:31Z</time></trkpt><trkpt lat="39.81076159420221" lon="9.36777779198119"><ele>979.75</ele><time>2026-05-03T08:02:32Z</time></trkpt><trkpt lat="39.810663990692596" lon="9.367677819905111"><ele>976.5</ele><time>2026-05-03T08:02:33Z</time></trkpt><trkpt lat="39.81055193669348" lon="9.367579301814072"><ele>973.25</ele><time>2026-05-03T08:02:34Z</time></trkpt><trkpt lat="39.81048215139757" lon="9.367440363233928"><ele>970.0</ele><time>2026-05-03T08:02:35Z</time></trkpt><trkpt lat="39.81045330458179" lon="9.367288821181825"><ele>970.0</ele><time>2026-05-03T08:02:36Z</time></trkpt><trkpt lat="39.810459967011056" lon="9.367120354788002"><ele>970.0</ele><time>2026-05-03T08:02:37Z</time></trkpt><trkpt lat="39.810504951881455" lon="9.36694289918252"><ele>970.0</ele><time>2026-05-03T08:02:38Z</time></trkpt><trkpt lat="39.81058074483108" lon="9.366755221010255"><ele>970.0</ele><time>2026-05-03T08:02:39Z</time></trkpt><trkpt lat="39.810685446565095" lon="9.366566597575629"><ele>970.0</ele><time>2026-05-03T08:02:40Z</time></trkpt><trkpt lat="39.810806683529464" lon="9.366383273299293"><ele>970.0</ele><time>2026-05-03T08:02:41Z</time></trkpt><trkpt lat="39.81094046488218" lon="9.366200335014145"><ele>970.0</ele><time>2026-05-03T08:02:42Z</time></trkpt><trkpt lat="39.8110857737192" lon="9.366007052412"><ele>969.3333333333333</ele><time>2026-05-03T08:02:43Z</time></trkpt><trkpt lat="39.81124278139376" lon="9.365797879422782"><ele>968.6666666666667</ele><time>2026-05-03T08:02:44Z</time></trkpt><trkpt lat="39.811397330554286" lon="9.365593031456717"><ele>968.0</ele><time>2026-05-03T08:02:45Z</time></trkpt><trkpt lat="39.81155341165425" lon="9.365390482339286"><ele>967.5</ele><time>2026-05-03T08:02:46Z</time></trkpt><trkpt lat="39.811716766898684" lon="9.3651828135133"><ele>967.0</ele><time>2026-05-03T08:02:47Z</time></trkpt><trkpt lat="39.81187838067626" lon="9.364976449045551"><ele>967.0</ele><time>2026-05-03T08:02:48Z</time></trkpt><trkpt lat="39.81202427503215" lon="9.364784313327803"><ele>967.0</ele><time>2026-05-03T08:02:49Z</time></trkpt><trkpt lat="39.81215423357004" lon="9.364595237932484"><ele>967.0</ele><time>2026-05-03T08:02:50Z</time></trkpt><trkpt lat="39.812264737597694" lon="9.364409693440358"><ele>967.0</ele><time>2026-05-03T08:02:51Z</time></trkpt><trkpt lat="39.81234755830949" lon="9.364206880919133"><ele>967.0</ele><time>2026-05-03T08:02:52Z</time></trkpt><trkpt lat="39.81240513687464" lon="9.363986917529267"><ele>967.0</ele><time>2026-05-03T08:02:53Z</time></trkpt><trkpt lat="39.81245664092984" lon="9.363773377433429"><ele>967.6666666666666</ele><time>2026-05-03T08:02:54Z</time></trkpt><trkpt lat="39.81251141052064" lon="9.363567145039278"><ele>968.3333333333333</ele><time>2026-05-03T08:02:55Z</time></trkpt><trkpt lat="39.812578396871444" lon="9.363368973170562"><ele>969.0</ele><time>2026-05-03T08:02:56Z</time></trkpt><trkpt lat="39.81266091316842" lon="9.363159054927765"><ele>972.6666666666667</ele><time>2026-05-03T08:02:57Z</time></trkpt><trkpt lat="39.812743757577294" lon="9.362951878708804"><ele>976.3333333333334</ele><time>2026-05-03T08:02:58Z</time></trkpt><trkpt lat="39.81282111597239" lon="9.362768250554433"><ele>980.0</ele><time>2026-05-03T08:02:59Z</time></trkpt><trkpt lat="39.81289649508684" lon="9.362607075087496"><ele>980.0</ele><time>2026-05-03T08:03:00Z</time></trkpt><trkpt lat="39.81298225028201" lon="9.362472066243255"><ele>980.0</ele><time>2026-05-03T08:03:01Z</time></trkpt><trkpt lat="39.81307880373131" lon="9.362376504964212"><ele>980.0</ele><time>2026-05-03T08:03:02Z</time></trkpt><trkpt lat="39.813189086300156" lon="9.362320871885288"><ele>980.0</ele><time>2026-05-03T08:03:03Z</time></trkpt><trkpt lat="39.81330446441442" lon="9.362310608632987"><ele>980.0</ele><time>2026-05-03T08:03:04Z</time></trkpt><trkpt lat="39.81342456564829" lon="9.362317688380404"><ele>980.0</ele><time>2026-05-03T08:03:05Z</time></trkpt><trkpt lat="39.81354826140649" lon="9.362322993418356"><ele>980.0</ele><time>2026-05-03T08:03:06Z</time></trkpt><trkpt lat="39.81367420135139" lon="9.362331646226078"><ele>980.0</ele><time>2026-05-03T08:03:07Z</time></trkpt><trkpt lat="39.81379612669135" lon="9.362347493771168"><ele>978.75</ele><time>2026-05-03T08:03:08Z</time></trkpt><trkpt lat="39.81391362048414" lon="9.362384662258572"><ele>977.5</ele><time>2026-05-03T08:03:09Z</time></trkpt><trkpt lat="39.81402940746482" lon="9.362464491458933"><ele>976.25</ele><time>2026-05-03T08:03:10Z</time></trkpt><trkpt lat="39.81414643865062" lon="9.362564995415907"><ele>975.0</ele><time>2026-05-03T08:03:11Z</time></trkpt><trkpt lat="39.814266281056675" lon="9.362668145964866"><ele>969.3333333333333</ele><time>2026-05-03T08:03:12Z</time></trkpt><trkpt lat="39.81441324922218" lon="9.362758838385531"><ele>963.6666666666666</ele><time>2026-05-03T08:03:13Z</time></trkpt><trkpt lat="39.81454785811264" lon="9.362856680518611"><ele>958.0</ele><time>2026-05-03T08:03:14Z</time></trkpt><trkpt lat="39.81467445349167" lon="9.362967025913775"><ele>960.75</ele><time>2026-05-03T08:03:15Z</time></trkpt><trkpt lat="39.81478181318488" lon="9.363088341829197"><ele>963.5</ele><time>2026-05-03T08:03:16Z</time></trkpt><trkpt lat="39.8148752140767" lon="9.363213569126216"><ele>966.25</ele><time>2026-05-03T08:03:17Z</time></trkpt><trkpt lat="39.814956453075055" lon="9.363340927513569"><ele>969.0</ele><time>2026-05-03T08:03:18Z</time></trkpt><trkpt lat="39.81503902088279" lon="9.363466622496874"><ele>969.0</ele><time>2026-05-03T08:03:19Z</time></trkpt><trkpt lat="39.81512315535707" lon="9.363581563372637"><ele>969.0</ele><time>2026-05-03T08:03:20Z</time></trkpt><trkpt lat="39.815216927726844" lon="9.363683557430717"><ele>969.0</ele><time>2026-05-03T08:03:21Z</time></trkpt><trkpt lat="39.815322071815025" lon="9.363770789295296"><ele>969.0</ele><time>2026-05-03T08:03:22Z</time></trkpt><trkpt lat="39.81544311872145" lon="9.3638480022093"><ele>969.0</ele><time>2026-05-03T08:03:23Z</time></trkpt><trkpt lat="39.81557448152659" lon="9.363916032584012"><ele>969.0</ele><time>2026-05-03T08:03:24Z</time></trkpt><trkpt lat="39.81571560484642" lon="9.363979300657421"><ele>969.0</ele><time>2026-05-03T08:03:25Z</time></trkpt><trkpt lat="39.81584991129874" lon="9.364043363713517"><ele>969.0</ele><time>2026-05-03T08:03:26Z</time></trkpt><trkpt lat="39.8159777701369" lon="9.36411009847559"><ele>963.25</ele><time>2026-05-03T08:03:27Z</time></trkpt><trkpt lat="39.81610146862035" lon="9.36418242783121"><ele>957.5</ele><time>2026-05-03T08:03:28Z</time></trkpt><trkpt lat="39.81621276972641" lon="9.364287259874711"><ele>951.75</ele><time>2026-05-03T08:03:29Z</time></trkpt><trkpt lat="39.81631770984069" lon="9.364414127730436"><ele>946.0</ele><time>2026-05-03T08:03:30Z</time></trkpt><trkpt lat="39.8164164730147" lon="9.364582408631472"><ele>950.3333333333333</ele><time>2026-05-03T08:03:31Z</time></trkpt><trkpt lat="39.816512715483455" lon="9.36477910829364"><ele>954.6666666666667</ele><time>2026-05-03T08:03:32Z</time></trkpt><trkpt lat="39.8166376071843" lon="9.364932291891774"><ele>959.0</ele><time>2026-05-03T08:03:33Z</time></trkpt><trkpt lat="39.81676003102533" lon="9.365091505059914"><ele>953.6666666666667</ele><time>2026-05-03T08:03:34Z</time></trkpt><trkpt lat="39.816882447641476" lon="9.365263136915837"><ele>948.3333333333333</ele><time>2026-05-03T08:03:35Z</time></trkpt><trkpt lat="39.817004543764675" lon="9.365430396740278"><ele>943.0</ele><time>2026-05-03T08:03:36Z</time></trkpt><trkpt lat="39.81711894660509" lon="9.365590794196596"><ele>943.0</ele><time>2026-05-03T08:03:37Z</time></trkpt><trkpt lat="39.81722184056298" lon="9.36575859964746"><ele>943.0</ele><time>2026-05-03T08:03:38Z</time></trkpt><trkpt lat="39.817324086660285" lon="9.365920408338203"><ele>943.0</ele><time>2026-05-03T08:03:39Z</time></trkpt><trkpt lat="39.81742942806413" lon="9.366073489568043"><ele>943.0</ele><time>2026-05-03T08:03:40Z</time></trkpt><trkpt lat="39.8175093241231" lon="9.366243933821087"><ele>943.0</ele><time>2026-05-03T08:03:41Z</time></trkpt><trkpt lat="39.81760193559993" lon="9.366407663595506"><ele>943.0</ele><time>2026-05-03T08:03:42Z</time></trkpt><trkpt lat="39.81770961028247" lon="9.366581486981397"><ele>939.0</ele><time>2026-05-03T08:03:43Z</time></trkpt><trkpt lat="39.817837519155965" lon="9.366719369601281"><ele>935.0</ele><time>2026-05-03T08:03:44Z</time></trkpt><trkpt lat="39.817971502851265" lon="9.366833209632771"><ele>931.0</ele><time>2026-05-03T08:03:45Z</time></trkpt><trkpt lat="39.81809918299984" lon="9.366933222452355"><ele>931.0</ele><time>2026-05-03T08:03:46Z</time></trkpt><trkpt lat="39.81822182018616" lon="9.367008454497139"><ele>931.0</ele><time>2026-05-03T08:03:47Z</time></trkpt><trkpt lat="39.81836041001742" lon="9.367033946139237"><ele>931.0</ele><time>2026-05-03T08:03:48Z</time></trkpt><trkpt lat="39.81849485996374" lon="9.367049331659626"><ele>931.0</ele><time>2026-05-03T08:03:49Z</time></trkpt><trkpt lat="39.81862613759468" lon="9.3670391758435"><ele>929.0</ele><time>2026-05-03T08:03:50Z</time></trkpt><trkpt lat="39.8187532609721" lon="9.366994947872133"><ele>927.0</ele><time>2026-05-03T08:03:51Z</time></trkpt><trkpt lat="39.818884045692386" lon="9.366925306471664"><ele>925.0</ele><time>2026-05-03T08:03:52Z</time></trkpt><trkpt lat="39.819020545503314" lon="9.366854439798525"><ele>923.0</ele><time>2026-05-03T08:03:53Z</time></trkpt><trkpt lat="39.819165102022076" lon="9.366801825893525"><ele>923.0</ele><time>2026-05-03T08:03:54Z</time></trkpt><trkpt lat="39.81931451701558" lon="9.366767926085508"><ele>923.0</ele><time>2026-05-03T08:03:55Z</time></trkpt><trkpt lat="39.819470557242894" lon="9.366747203862154"><ele>923.0</ele><time>2026-05-03T08:03:56Z</time></trkpt><trkpt lat="39.81963219770027" lon="9.366757499696066"><ele>922.3333333333334</ele><time>2026-05-03T08:03:57Z</time></trkpt><trkpt lat="39.81978725298232" lon="9.366783038196688"><ele>921.6666666666667</ele><time>2026-05-03T08:03:58Z</time></trkpt><trkpt lat="39.819940655272674" lon="9.366794963113291"><ele>921.0</ele><time>2026-05-03T08:03:59Z</time></trkpt><trkpt lat="39.82009613001842" lon="9.366768503981943"><ele>918.75</ele><time>2026-05-03T08:04:00Z</time></trkpt><trkpt lat="39.82024135202805" lon="9.366729650905205"><ele>916.5</ele><time>2026-05-03T08:04:01Z</time></trkpt><trkpt lat="39.820385536168075" lon="9.366690564627957"><ele>914.25</ele><time>2026-05-03T08:04:02Z</time></trkpt><trkpt lat="39.8205215540863" lon="9.366670598045772"><ele>912.0</ele><time>2026-05-03T08:04:03Z</time></trkpt><trkpt lat="39.820650822389574" lon="9.366684146094153"><ele>912.0</ele><time>2026-05-03T08:04:04Z</time></trkpt><trkpt lat="39.820771347610226" lon="9.366729198493536"><ele>912.0</ele><time>2026-05-03T08:04:05Z</time></trkpt><trkpt lat="39.82087954368675" lon="9.366801116424947"><ele>912.0</ele><time>2026-05-03T08:04:06Z</time></trkpt><trkpt lat="39.82097397783248" lon="9.366898806536033"><ele>912.0</ele><time>2026-05-03T08:04:07Z</time></trkpt><trkpt lat="39.8210424613099" lon="9.367026104873172"><ele>910.5</ele><time>2026-05-03T08:04:08Z</time></trkpt><trkpt lat="39.82109141050621" lon="9.367179985183782"><ele>909.0</ele><time>2026-05-03T08:04:09Z</time></trkpt><trkpt lat="39.82110931302423" lon="9.367360917489142"><ele>907.5</ele><time>2026-05-03T08:04:10Z</time></trkpt><trkpt lat="39.821122789521844" lon="9.367562481837718"><ele>906.0</ele><time>2026-05-03T08:04:10.999Z</time></trkpt><trkpt lat="39.8211333742265" lon="9.367758114037207"><ele>906.0</ele><time>2026-05-03T08:04:11.999Z</time></trkpt><trkpt lat="39.82113211864637" lon="9.36794134092856"><ele>906.0</ele><time>2026-05-03T08:04:12.999Z</time></trkpt><trkpt lat="39.821134171732616" lon="9.368103175708464"><ele>906.0</ele><time>2026-05-03T08:04:13.999Z</time></trkpt><trkpt lat="39.82113331729631" lon="9.36824422199673"><ele>906.0</ele><time>2026-05-03T08:04:14.999Z</time></trkpt><trkpt lat="39.82115436164099" lon="9.368360084125854"><ele>907.3333333333334</ele><time>2026-05-03T08:04:15.999Z</time></trkpt><trkpt lat="39.821201777956716" lon="9.368442158417041"><ele>908.6666666666667</ele><time>2026-05-03T08:04:16.999Z</time></trkpt><trkpt lat="39.82126966610762" lon="9.368477657275829"><ele>910.0</ele><time>2026-05-03T08:04:17.999Z</time></trkpt><trkpt lat="39.82134623522211" lon="9.368490004518028"><ele>911.3333333333334</ele><time>2026-05-03T08:04:18.999Z</time></trkpt><trkpt lat="39.82142936983396" lon="9.368414110945128"><ele>912.6666666666667</ele><time>2026-05-03T08:04:20Z</time></trkpt><trkpt lat="39.82147648367252" lon="9.368328589098446"><ele>914.0</ele><time>2026-05-03T08:04:21Z</time></trkpt><trkpt lat="39.821535363610394" lon="9.368213595590314"><ele>914.0</ele><time>2026-05-03T08:04:22Z</time></trkpt><trkpt lat="39.821599579076384" lon="9.368087345468778"><ele>914.0</ele><time>2026-05-03T08:04:23Z</time></trkpt><trkpt lat="39.821660041899925" lon="9.367968614027959"><ele>914.0</ele><time>2026-05-03T08:04:24Z</time></trkpt><trkpt lat="39.82172956655361" lon="9.367830537741508"><ele>914.0</ele><time>2026-05-03T08:04:25Z</time></trkpt><trkpt lat="39.82177002749914" lon="9.367666386756602"><ele>911.3333333333334</ele><time>2026-05-03T08:04:26Z</time></trkpt><trkpt lat="39.82180774562044" lon="9.36749049836531"><ele>908.6666666666667</ele><time>2026-05-03T08:04:27Z</time></trkpt><trkpt lat="39.82184114069824" lon="9.367282019355036"><ele>906.0</ele><time>2026-05-03T08:04:28Z</time></trkpt><trkpt lat="39.821880891853574" lon="9.367066694867718"><ele>912.6666666666667</ele><time>2026-05-03T08:04:29Z</time></trkpt><trkpt lat="39.821935442716345" lon="9.366863452382052"><ele>919.3333333333334</ele><time>2026-05-03T08:04:30Z</time></trkpt><trkpt lat="39.82197063044002" lon="9.366662862326107"><ele>926.0</ele><time>2026-05-03T08:04:31Z</time></trkpt><trkpt lat="39.82199932232977" lon="9.366453826163898"><ele>925.0</ele><time>2026-05-03T08:04:32Z</time></trkpt><trkpt lat="39.82201000788027" lon="9.366234519881594"><ele>924.0</ele><time>2026-05-03T08:04:33Z</time></trkpt><trkpt lat="39.821994911873276" lon="9.366014823664878"><ele>923.0</ele><time>2026-05-03T08:04:34Z</time></trkpt><trkpt lat="39.821975722802705" lon="9.36580380330755"><ele>923.0</ele><time>2026-05-03T08:04:35Z</time></trkpt><trkpt lat="39.82195524505524" lon="9.36559630165236"><ele>923.0</ele><time>2026-05-03T08:04:36Z</time></trkpt><trkpt lat="39.821936052013" lon="9.365404932830652"><ele>923.0</ele><time>2026-05-03T08:04:37Z</time></trkpt><trkpt lat="39.82191626991465" lon="9.365235517067637"><ele>923.0</ele><time>2026-05-03T08:04:38Z</time></trkpt><trkpt lat="39.82190881349145" lon="9.36508634118747"><ele>920.5999999999999</ele><time>2026-05-03T08:04:39Z</time></trkpt><trkpt lat="39.82190727833556" lon="9.364953995403807"><ele>918.1999999999999</ele><time>2026-05-03T08:04:40Z</time></trkpt><trkpt lat="39.821951208616085" lon="9.36483552438981"><ele>915.8</ele><time>2026-05-03T08:04:41Z</time></trkpt><trkpt lat="39.82202833762289" lon="9.364731542593484"><ele>913.4</ele><time>2026-05-03T08:04:42Z</time></trkpt><trkpt lat="39.822136588190624" lon="9.364635490654463"><ele>911.0</ele><time>2026-05-03T08:04:43Z</time></trkpt><trkpt lat="39.822261406006504" lon="9.364527188576904"><ele>904.6666666666667</ele><time>2026-05-03T08:04:44Z</time></trkpt><trkpt lat="39.82237322199992" lon="9.364413938342906"><ele>898.3333333333333</ele><time>2026-05-03T08:04:45Z</time></trkpt><trkpt lat="39.822502690296076" lon="9.36428982190559"><ele>892.0</ele><time>2026-05-03T08:04:46Z</time></trkpt><trkpt lat="39.822636658774705" lon="9.364172993574833"><ele>895.0</ele><time>2026-05-03T08:04:47Z</time></trkpt><trkpt lat="39.82276556851599" lon="9.364074102708175"><ele>898.0</ele><time>2026-05-03T08:04:48Z</time></trkpt><trkpt lat="39.82287636658397" lon="9.363995538474237"><ele>901.0</ele><time>2026-05-03T08:04:49Z</time></trkpt><trkpt lat="39.822961044215035" lon="9.36392729228543"><ele>904.0</ele><time>2026-05-03T08:04:50Z</time></trkpt><trkpt lat="39.82301850793562" lon="9.363853167326837"><ele>904.0</ele><time>2026-05-03T08:04:51Z</time></trkpt><trkpt lat="39.823055391415465" lon="9.36376636194778"><ele>904.0000000000001</ele><time>2026-05-03T08:04:52Z</time></trkpt><trkpt lat="39.82303403273813" lon="9.36366792286074"><ele>904.0000000000001</ele><time>2026-05-03T08:04:53Z</time></trkpt><trkpt lat="39.82294962397189" lon="9.363542394421351"><ele>904.0</ele><time>2026-05-03T08:04:54Z</time></trkpt><trkpt lat="39.8228335375699" lon="9.36347820783723"><ele>904.0</ele><time>2026-05-03T08:04:55Z</time></trkpt><trkpt lat="39.822708114513695" lon="9.363451820857001"><ele>902.25</ele><time>2026-05-03T08:04:56Z</time></trkpt><trkpt lat="39.82258500449654" lon="9.363431158469002"><ele>900.5</ele><time>2026-05-03T08:04:57Z</time></trkpt><trkpt lat="39.822461134842946" lon="9.363412650608153"><ele>898.75</ele><time>2026-05-03T08:04:58Z</time></trkpt><trkpt lat="39.822327144262786" lon="9.363399537999916"><ele>897.0</ele><time>2026-05-03T08:04:59Z</time></trkpt><trkpt lat="39.82220822064253" lon="9.363390604849267"><ele>897.0</ele><time>2026-05-03T08:05:00Z</time></trkpt><trkpt lat="39.82209568513954" lon="9.363388738218902"><ele>897.0</ele><time>2026-05-03T08:05:01Z</time></trkpt><trkpt lat="39.82197909783538" lon="9.363331302007735"><ele>897.0</ele><time>2026-05-03T08:05:02Z</time></trkpt><trkpt lat="39.82185256045171" lon="9.363249773824512"><ele>897.0</ele><time>2026-05-03T08:05:03Z</time></trkpt><trkpt lat="39.82171597162792" lon="9.363177045714995"><ele>899.5</ele><time>2026-05-03T08:05:04Z</time></trkpt><trkpt lat="39.82159025734403" lon="9.363126446861944"><ele>902.0</ele><time>2026-05-03T08:05:05Z</time></trkpt><trkpt lat="39.82147705165824" lon="9.363058763220396"><ele>904.5</ele><time>2026-05-03T08:05:06Z</time></trkpt><trkpt lat="39.82138206260974" lon="9.362946368130412"><ele>907.0</ele><time>2026-05-03T08:05:07Z</time></trkpt><trkpt lat="39.82130038095504" lon="9.362788231731905"><ele>907.0</ele><time>2026-05-03T08:05:08Z</time></trkpt><trkpt lat="39.82121951956471" lon="9.362620335760766"><ele>907.0</ele><time>2026-05-03T08:05:09Z</time></trkpt><trkpt lat="39.821128891654126" lon="9.362478365520644"><ele>907.0</ele><time>2026-05-03T08:05:10Z</time></trkpt><trkpt lat="39.82106216263673" lon="9.362333521407535"><ele>907.0</ele><time>2026-05-03T08:05:11Z</time></trkpt><trkpt lat="39.8210191668691" lon="9.362191437473284"><ele>908.75</ele><time>2026-05-03T08:05:12Z</time></trkpt><trkpt lat="39.82099710370231" lon="9.3620312570487"><ele>910.5</ele><time>2026-05-03T08:05:13Z</time></trkpt><trkpt lat="39.820994620755734" lon="9.361852786198318"><ele>912.25</ele><time>2026-05-03T08:05:14Z</time></trkpt><trkpt lat="39.82099502266739" lon="9.36167152665275"><ele>914.0</ele><time>2026-05-03T08:05:15Z</time></trkpt><trkpt lat="39.82102306666864" lon="9.361490701798976"><ele>909.0</ele><time>2026-05-03T08:05:16Z</time></trkpt><trkpt lat="39.82107591493971" lon="9.361304539512085"><ele>904.0</ele><time>2026-05-03T08:05:17Z</time></trkpt><trkpt lat="39.82114789039187" lon="9.361117674575082"><ele>899.0</ele><time>2026-05-03T08:05:18Z</time></trkpt><trkpt lat="39.82123097533497" lon="9.360944788892715"><ele>899.0</ele><time>2026-05-03T08:05:19Z</time></trkpt><trkpt lat="39.82133577855405" lon="9.360783847989019"><ele>899.0</ele><time>2026-05-03T08:05:20Z</time></trkpt><trkpt lat="39.82146221894776" lon="9.360634693489573"><ele>899.0</ele><time>2026-05-03T08:05:21Z</time></trkpt><trkpt lat="39.82159683540292" lon="9.36047295123098"><ele>901.3333333333334</ele><time>2026-05-03T08:05:22Z</time></trkpt><trkpt lat="39.82171730379466" lon="9.360302265808102"><ele>903.6666666666667</ele><time>2026-05-03T08:05:23Z</time></trkpt><trkpt lat="39.82183801263202" lon="9.360111273814972"><ele>906.0</ele><time>2026-05-03T08:05:24Z</time></trkpt><trkpt lat="39.821952831248815" lon="9.35990277625151"><ele>900.3333333333333</ele><time>2026-05-03T08:05:25Z</time></trkpt><trkpt lat="39.82207447389525" lon="9.359676427794726"><ele>894.6666666666666</ele><time>2026-05-03T08:05:26Z</time></trkpt><trkpt lat="39.822196002214284" lon="9.359439668211259"><ele>889.0</ele><time>2026-05-03T08:05:27Z</time></trkpt><trkpt lat="39.82230320167743" lon="9.359215864976733"><ele>889.0</ele><time>2026-05-03T08:05:28Z</time></trkpt><trkpt lat="39.82240448143817" lon="9.359006399112426"><ele>889.0</ele><time>2026-05-03T08:05:29Z</time></trkpt><trkpt lat="39.82251243499008" lon="9.358807335448889"><ele>889.0</ele><time>2026-05-03T08:05:30Z</time></trkpt><trkpt lat="39.82262155996914" lon="9.358622785148702"><ele>889.0</ele><time>2026-05-03T08:05:31Z</time></trkpt><trkpt lat="39.82272623081545" lon="9.358455773855884"><ele>889.0</ele><time>2026-05-03T08:05:32Z</time></trkpt><trkpt lat="39.82282462112948" lon="9.35830840870457"><ele>889.0</ele><time>2026-05-03T08:05:33Z</time></trkpt><trkpt lat="39.82292248820805" lon="9.358191460584605"><ele>889.0</ele><time>2026-05-03T08:05:34Z</time></trkpt><trkpt lat="39.82300508819564" lon="9.358097656864182"><ele>889.2</ele><time>2026-05-03T08:05:35Z</time></trkpt><trkpt lat="39.82305612137177" lon="9.357995450331378"><ele>889.4000000000001</ele><time>2026-05-03T08:05:36Z</time></trkpt><trkpt lat="39.82308635357757" lon="9.357895720390202"><ele>889.6</ele><time>2026-05-03T08:05:37Z</time></trkpt><trkpt lat="39.82305776327334" lon="9.357791474794283"><ele>889.8</ele><time>2026-05-03T08:05:38Z</time></trkpt><trkpt lat="39.82297728531476" lon="9.357740224196414"><ele>890.0</ele><time>2026-05-03T08:05:39Z</time></trkpt><trkpt lat="39.822864254882326" lon="9.357728568005731"><ele>890.0</ele><time>2026-05-03T08:05:40Z</time></trkpt><trkpt lat="39.82271373656231" lon="9.357705793105671"><ele>890.0</ele><time>2026-05-03T08:05:41Z</time></trkpt><trkpt lat="39.82256870799028" lon="9.357688484323555"><ele>890.0</ele><time>2026-05-03T08:05:42Z</time></trkpt><trkpt lat="39.82241232711525" lon="9.357727720038634"><ele>887.3333333333334</ele><time>2026-05-03T08:05:43Z</time></trkpt><trkpt lat="39.82225857053297" lon="9.357787420795516"><ele>884.6666666666667</ele><time>2026-05-03T08:05:44Z</time></trkpt><trkpt lat="39.822093845166755" lon="9.357849088613404"><ele>882.0</ele><time>2026-05-03T08:05:45Z</time></trkpt><trkpt lat="39.82192281226827" lon="9.35790110950168"><ele>881.3333333333333</ele><time>2026-05-03T08:05:46Z</time></trkpt><trkpt lat="39.821761398374726" lon="9.357939367424501"><ele>880.6666666666666</ele><time>2026-05-03T08:05:47Z</time></trkpt><trkpt lat="39.821606366621324" lon="9.357952758638875"><ele>880.0</ele><time>2026-05-03T08:05:48Z</time></trkpt><trkpt lat="39.821452213198015" lon="9.357937005440165"><ele>880.0</ele><time>2026-05-03T08:05:49Z</time></trkpt><trkpt lat="39.82130882594882" lon="9.357881403986594"><ele>880.0</ele><time>2026-05-03T08:05:50Z</time></trkpt><trkpt lat="39.82115680089588" lon="9.357829368887563"><ele>880.0</ele><time>2026-05-03T08:05:51Z</time></trkpt><trkpt lat="39.82100734180602" lon="9.357820724395241"><ele>877.75</ele><time>2026-05-03T08:05:52Z</time></trkpt><trkpt lat="39.820854757570416" lon="9.357816911745596"><ele>875.5</ele><time>2026-05-03T08:05:53Z</time></trkpt><trkpt lat="39.82071986464413" lon="9.357820558557382"><ele>873.25</ele><time>2026-05-03T08:05:54Z</time></trkpt><trkpt lat="39.82061611250503" lon="9.357837661809455"><ele>871.0</ele><time>2026-05-03T08:05:55Z</time></trkpt><trkpt lat="39.82053074543885" lon="9.357814023200167"><ele>871.0</ele><time>2026-05-03T08:05:56Z</time></trkpt><trkpt lat="39.82047249789828" lon="9.357753701510918"><ele>870.9999999999999</ele><time>2026-05-03T08:05:57Z</time></trkpt><trkpt lat="39.820443630346034" lon="9.35765619485156"><ele>870.9999999999999</ele><time>2026-05-03T08:05:58Z</time></trkpt><trkpt lat="39.82045093992904" lon="9.357518459150706"><ele>871.0</ele><time>2026-05-03T08:05:59Z</time></trkpt><trkpt lat="39.82046252501925" lon="9.357365163793373"><ele>871.0</ele><time>2026-05-03T08:06:00Z</time></trkpt><trkpt lat="39.820459150576326" lon="9.357211403105941"><ele>868.0</ele><time>2026-05-03T08:06:01Z</time></trkpt><trkpt lat="39.820466893310225" lon="9.357074531862148"><ele>864.9999999999999</ele><time>2026-05-03T08:06:02Z</time></trkpt><trkpt lat="39.82049972707017" lon="9.356958530000457"><ele>861.9999999999999</ele><time>2026-05-03T08:06:03Z</time></trkpt><trkpt lat="39.82055841284265" lon="9.356872240062343"><ele>859.0</ele><time>2026-05-03T08:06:04Z</time></trkpt><trkpt lat="39.820645347773294" lon="9.356822406706753"><ele>856.0</ele><time>2026-05-03T08:06:05Z</time></trkpt><trkpt lat="39.820765032919226" lon="9.356814197325553"><ele>856.0</ele><time>2026-05-03T08:06:06Z</time></trkpt><trkpt lat="39.820895950995265" lon="9.356786933427365"><ele>856.0</ele><time>2026-05-03T08:06:07Z</time></trkpt><trkpt lat="39.82103048837856" lon="9.356779550396544"><ele>856.0</ele><time>2026-05-03T08:06:08Z</time></trkpt><trkpt lat="39.821171002041766" lon="9.356745393841605"><ele>856.0</ele><time>2026-05-03T08:06:09Z</time></trkpt><trkpt lat="39.821327069046035" lon="9.356676298772658"><ele>859.0</ele><time>2026-05-03T08:06:10Z</time></trkpt><trkpt lat="39.821490752961644" lon="9.356594591501533"><ele>862.0</ele><time>2026-05-03T08:06:11Z</time></trkpt><trkpt lat="39.82164061080607" lon="9.356511931695191"><ele>865.0</ele><time>2026-05-03T08:06:12Z</time></trkpt><trkpt lat="39.82178976678944" lon="9.356425094145548"><ele>860.3333333333333</ele><time>2026-05-03T08:06:13Z</time></trkpt><trkpt lat="39.82192546838557" lon="9.356285488717658"><ele>855.6666666666667</ele><time>2026-05-03T08:06:14Z</time></trkpt><trkpt lat="39.822023176802546" lon="9.356123151305317"><ele>851.0</ele><time>2026-05-03T08:06:15Z</time></trkpt><trkpt lat="39.82214798683236" lon="9.355992316316952"><ele>851.0</ele><time>2026-05-03T08:06:16Z</time></trkpt><trkpt lat="39.82227972302274" lon="9.355881161909137"><ele>851.0</ele><time>2026-05-03T08:06:17Z</time></trkpt><trkpt lat="39.822433693110675" lon="9.355799356012367"><ele>851.0</ele><time>2026-05-03T08:06:18Z</time></trkpt><trkpt lat="39.82260552141061" lon="9.355754812598269"><ele>850.0</ele><time>2026-05-03T08:06:19Z</time></trkpt><trkpt lat="39.822765227131676" lon="9.35571596383521"><ele>849.0</ele><time>2026-05-03T08:06:20Z</time></trkpt><trkpt lat="39.82288327707055" lon="9.355616405985188"><ele>848.0</ele><time>2026-05-03T08:06:21Z</time></trkpt><trkpt lat="39.823005191364715" lon="9.35551564252769"><ele>847.0</ele><time>2026-05-03T08:06:22Z</time></trkpt><trkpt lat="39.823131449650745" lon="9.355383348866148"><ele>847.0</ele><time>2026-05-03T08:06:23Z</time></trkpt><trkpt lat="39.82324479429902" lon="9.3551941266344"><ele>847.0</ele><time>2026-05-03T08:06:24Z</time></trkpt><trkpt lat="39.82335289596835" lon="9.354977749716129"><ele>847.0</ele><time>2026-05-03T08:06:25Z</time></trkpt><trkpt lat="39.823453253830536" lon="9.354734250424999"><ele>853.3333333333333</ele><time>2026-05-03T08:06:26Z</time></trkpt><trkpt lat="39.82352794156814" lon="9.354467923784247"><ele>859.6666666666667</ele><time>2026-05-03T08:06:27Z</time></trkpt><trkpt lat="39.82359729295497" lon="9.354213661398108"><ele>866.0</ele><time>2026-05-03T08:06:28Z</time></trkpt><trkpt lat="39.8236551280778" lon="9.353972627425145"><ele>860.0</ele><time>2026-05-03T08:06:29Z</time></trkpt><trkpt lat="39.8237285190145" lon="9.353727464740555"><ele>854.0</ele><time>2026-05-03T08:06:30Z</time></trkpt><trkpt lat="39.823803776077405" lon="9.353494779609328"><ele>848.0</ele><time>2026-05-03T08:06:31Z</time></trkpt><trkpt lat="39.823877418478205" lon="9.353291488333241"><ele>848.0</ele><time>2026-05-03T08:06:32Z</time></trkpt><trkpt lat="39.823956605067266" lon="9.353110021779635"><ele>848.0</ele><time>2026-05-03T08:06:33Z</time></trkpt><trkpt lat="39.82405812919161" lon="9.35295102580148"><ele>848.0</ele><time>2026-05-03T08:06:34Z</time></trkpt><trkpt lat="39.8241925766123" lon="9.352800281294655"><ele>846.3333333333334</ele><time>2026-05-03T08:06:35Z</time></trkpt><trkpt lat="39.82433844475654" lon="9.352662217612604"><ele>844.6666666666667</ele><time>2026-05-03T08:06:36Z</time></trkpt><trkpt lat="39.82448494679137" lon="9.352522359598048"><ele>843.0</ele><time>2026-05-03T08:06:37Z</time></trkpt><trkpt lat="39.82461860584653" lon="9.352376004259732"><ele>843.0</ele><time>2026-05-03T08:06:38Z</time></trkpt><trkpt lat="39.82474388670095" lon="9.352228834299424"><ele>843.0</ele><time>2026-05-03T08:06:39Z</time></trkpt><trkpt lat="39.82488549898465" lon="9.352098301746336"><ele>843.0</ele><time>2026-05-03T08:06:40Z</time></trkpt><trkpt lat="39.82504399842114" lon="9.351988908075636"><ele>840.0</ele><time>2026-05-03T08:06:41Z</time></trkpt><trkpt lat="39.825203301772206" lon="9.351891440311869"><ele>837.0</ele><time>2026-05-03T08:06:42Z</time></trkpt><trkpt lat="39.825350547845666" lon="9.351786157688188"><ele>834.0</ele><time>2026-05-03T08:06:43Z</time></trkpt><trkpt lat="39.82548464100005" lon="9.351656197194187"><ele>834.0</ele><time>2026-05-03T08:06:44Z</time></trkpt><trkpt lat="39.82560981415846" lon="9.351503338155913"><ele>834.0</ele><time>2026-05-03T08:06:45Z</time></trkpt><trkpt lat="39.82572277734323" lon="9.35134082001643"><ele>834.0</ele><time>2026-05-03T08:06:46Z</time></trkpt><trkpt lat="39.82582210553012" lon="9.351184251773365"><ele>836.6</ele><time>2026-05-03T08:06:47Z</time></trkpt><trkpt lat="39.825923909045535" lon="9.351066644382172"><ele>839.2</ele><time>2026-05-03T08:06:48Z</time></trkpt><trkpt lat="39.82602019114679" lon="9.350985220260148"><ele>841.8000000000001</ele><time>2026-05-03T08:06:49Z</time></trkpt><trkpt lat="39.826094080242754" lon="9.350916092533351"><ele>844.4000000000001</ele><time>2026-05-03T08:06:50Z</time></trkpt><trkpt lat="39.826149718971784" lon="9.350811038496486"><ele>847.0</ele><time>2026-05-03T08:06:51Z</time></trkpt><trkpt lat="39.82611948016783" lon="9.35065025277094"><ele>848.5</ele><time>2026-05-03T08:06:52Z</time></trkpt><trkpt lat="39.82606355581913" lon="9.350499480789534"><ele>850.0</ele><time>2026-05-03T08:06:53Z</time></trkpt><trkpt lat="39.82601092293" lon="9.350322476135627"><ele>851.5</ele><time>2026-05-03T08:06:54Z</time></trkpt><trkpt lat="39.82596989833817" lon="9.350130685921878"><ele>853.0</ele><time>2026-05-03T08:06:55Z</time></trkpt><trkpt lat="39.82591900655449" lon="9.349928026093234"><ele>845.0</ele><time>2026-05-03T08:06:56Z</time></trkpt><trkpt lat="39.82584300545981" lon="9.349718689043662"><ele>837.0</ele><time>2026-05-03T08:06:57Z</time></trkpt><trkpt lat="39.82575922911721" lon="9.349539928893654"><ele>829.0</ele><time>2026-05-03T08:06:58Z</time></trkpt><trkpt lat="39.82567165745699" lon="9.349365987532101"><ele>829.0</ele><time>2026-05-03T08:06:59Z</time></trkpt><trkpt lat="39.82555757116485" lon="9.349212223808086"><ele>829.0</ele><time>2026-05-03T08:07:00Z</time></trkpt><trkpt lat="39.82541404120192" lon="9.349075877381757"><ele>829.0</ele><time>2026-05-03T08:07:01Z</time></trkpt><trkpt lat="39.825261552068184" lon="9.348947549584098"><ele>827.3333333333333</ele><time>2026-05-03T08:07:02Z</time></trkpt><trkpt lat="39.825104835306625" lon="9.348819613261586"><ele>825.6666666666667</ele><time>2026-05-03T08:07:03Z</time></trkpt><trkpt lat="39.82494945153649" lon="9.348691902935306"><ele>824.0</ele><time>2026-05-03T08:07:04Z</time></trkpt><trkpt lat="39.824816233920764" lon="9.348576591690499"><ele>824.0</ele><time>2026-05-03T08:07:05Z</time></trkpt><trkpt lat="39.82466298862801" lon="9.348489141597694"><ele>824.0</ele><time>2026-05-03T08:07:06Z</time></trkpt><trkpt lat="39.824488286247394" lon="9.348471378912418"><ele>824.0</ele><time>2026-05-03T08:07:07Z</time></trkpt><trkpt lat="39.82431156227205" lon="9.348458811171128"><ele>819.25</ele><time>2026-05-03T08:07:08Z</time></trkpt><trkpt lat="39.82415753937304" lon="9.348418964707324"><ele>814.5</ele><time>2026-05-03T08:07:09Z</time></trkpt><trkpt lat="39.82402045319377" lon="9.348396633955806"><ele>809.75</ele><time>2026-05-03T08:07:10Z</time></trkpt><trkpt lat="39.823907950757246" lon="9.348394853117211"><ele>805.0</ele><time>2026-05-03T08:07:11Z</time></trkpt><trkpt lat="39.82381095805002" lon="9.348394435819612"><ele>805.0</ele><time>2026-05-03T08:07:12Z</time></trkpt><trkpt lat="39.82374291243438" lon="9.348331161875745"><ele>805.0</ele><time>2026-05-03T08:07:13Z</time></trkpt><trkpt lat="39.82370567456026" lon="9.348230863567412"><ele>805.0</ele><time>2026-05-03T08:07:14Z</time></trkpt><trkpt lat="39.823702919710385" lon="9.348092761572163"><ele>805.0</ele><time>2026-05-03T08:07:15Z</time></trkpt><trkpt lat="39.823747831998574" lon="9.347940235483431"><ele>805.0</ele><time>2026-05-03T08:07:16Z</time></trkpt><trkpt lat="39.823806070611916" lon="9.347768723829967"><ele>805.0</ele><time>2026-05-03T08:07:17Z</time></trkpt><trkpt lat="39.82388433539004" lon="9.3475848790856"><ele>805.0</ele><time>2026-05-03T08:07:18Z</time></trkpt><trkpt lat="39.82396821267015" lon="9.347400476147431"><ele>805.0</ele><time>2026-05-03T08:07:19Z</time></trkpt><trkpt lat="39.824069377963895" lon="9.347197337231506"><ele>800.0</ele><time>2026-05-03T08:07:20Z</time></trkpt><trkpt lat="39.82417238867625" lon="9.346977961331563"><ele>795.0</ele><time>2026-05-03T08:07:21Z</time></trkpt><trkpt lat="39.8242604124686" lon="9.346736872807188"><ele>790.0</ele><time>2026-05-03T08:07:22Z</time></trkpt><trkpt lat="39.82432154703224" lon="9.346475169058065"><ele>795.6666666666666</ele><time>2026-05-03T08:07:23Z</time></trkpt><trkpt lat="39.824353701769006" lon="9.346239063705532"><ele>801.3333333333333</ele><time>2026-05-03T08:07:24Z</time></trkpt><trkpt lat="39.82439588183067" lon="9.346005888089405"><ele>807.0</ele><time>2026-05-03T08:07:25Z</time></trkpt><trkpt lat="39.824452800709075" lon="9.345784718577056"><ele>807.0</ele><time>2026-05-03T08:07:26Z</time></trkpt><trkpt lat="39.82452941437987" lon="9.345584406647205"><ele>807.0</ele><time>2026-05-03T08:07:27Z</time></trkpt><trkpt lat="39.824621205893294" lon="9.345399950998452"><ele>807.0</ele><time>2026-05-03T08:07:28Z</time></trkpt><trkpt lat="39.824726262041736" lon="9.345235309257609"><ele>800.0</ele><time>2026-05-03T08:07:29Z</time></trkpt><trkpt lat="39.82484918922153" lon="9.345103795346095"><ele>793.0</ele><time>2026-05-03T08:07:30Z</time></trkpt><trkpt lat="39.82499438655664" lon="9.344999511583794"><ele>786.0</ele><time>2026-05-03T08:07:31Z</time></trkpt><trkpt lat="39.82513374568465" lon="9.344919653027315"><ele>787.25</ele><time>2026-05-03T08:07:32Z</time></trkpt><trkpt lat="39.825263910853764" lon="9.344845064908247"><ele>788.5</ele><time>2026-05-03T08:07:33Z</time></trkpt><trkpt lat="39.825367593141294" lon="9.344742480869973"><ele>789.75</ele><time>2026-05-03T08:07:34Z</time></trkpt><trkpt lat="39.82545447855723" lon="9.344602131053596"><ele>791.0</ele><time>2026-05-03T08:07:35Z</time></trkpt><trkpt lat="39.82550946424897" lon="9.344423147120997"><ele>791.0</ele><time>2026-05-03T08:07:36Z</time></trkpt><trkpt lat="39.825555293375665" lon="9.344205863840543"><ele>791.0</ele><time>2026-05-03T08:07:37Z</time></trkpt><trkpt lat="39.825599806838866" lon="9.3439669141906"><ele>791.0</ele><time>2026-05-03T08:07:38Z</time></trkpt><trkpt lat="39.82565247921951" lon="9.343733864032853"><ele>786.6666666666667</ele><time>2026-05-03T08:07:39Z</time></trkpt><trkpt lat="39.825719624080264" lon="9.343491819521226"><ele>782.3333333333333</ele><time>2026-05-03T08:07:40Z</time></trkpt><trkpt lat="39.825791918499704" lon="9.343247019125716"><ele>778.0</ele><time>2026-05-03T08:07:41Z</time></trkpt><trkpt lat="39.82585137654869" lon="9.342980816345419"><ele>774.3333333333333</ele><time>2026-05-03T08:07:42Z</time></trkpt><trkpt lat="39.825911032486786" lon="9.342713205479038"><ele>770.6666666666666</ele><time>2026-05-03T08:07:43Z</time></trkpt><trkpt lat="39.82593455493808" lon="9.342442191506542"><ele>767.0</ele><time>2026-05-03T08:07:44Z</time></trkpt><trkpt lat="39.825935222324425" lon="9.342175046712347"><ele>764.6666666666666</ele><time>2026-05-03T08:07:45Z</time></trkpt><trkpt lat="39.825959336957574" lon="9.341892420415876"><ele>762.3333333333334</ele><time>2026-05-03T08:07:46Z</time></trkpt><trkpt lat="39.8259601830576" lon="9.341613793424784"><ele>760.0</ele><time>2026-05-03T08:07:47Z</time></trkpt><trkpt lat="39.82595053853158" lon="9.341325437039071"><ele>760.0</ele><time>2026-05-03T08:07:48Z</time></trkpt><trkpt lat="39.82591792610651" lon="9.341046348667064"><ele>760.0</ele><time>2026-05-03T08:07:49Z</time></trkpt><trkpt lat="39.82586968519559" lon="9.340777048890512"><ele>760.0</ele><time>2026-05-03T08:07:50Z</time></trkpt><trkpt lat="39.825851820009376" lon="9.340505088786989"><ele>758.6666666666667</ele><time>2026-05-03T08:07:51Z</time></trkpt><trkpt lat="39.8258453040511" lon="9.340246751196862"><ele>757.3333333333334</ele><time>2026-05-03T08:07:52Z</time></trkpt><trkpt lat="39.82583334630439" lon="9.339982891500537"><ele>756.0</ele><time>2026-05-03T08:07:53Z</time></trkpt><trkpt lat="39.825812859783895" lon="9.339723090939959"><ele>755.6666666666666</ele><time>2026-05-03T08:07:54Z</time></trkpt><trkpt lat="39.8257914323051" lon="9.339464927061606"><ele>755.3333333333333</ele><time>2026-05-03T08:07:55Z</time></trkpt><trkpt lat="39.82577950603859" lon="9.339206378470738"><ele>755.0</ele><time>2026-05-03T08:07:56Z</time></trkpt><trkpt lat="39.82576862152303" lon="9.33894211045474"><ele>755.0</ele><time>2026-05-03T08:07:57Z</time></trkpt><trkpt lat="39.82574514364001" lon="9.338672001702172"><ele>755.0</ele><time>2026-05-03T08:07:58Z</time></trkpt><trkpt lat="39.82570978897963" lon="9.338411865904641"><ele>755.0</ele><time>2026-05-03T08:07:59Z</time></trkpt><trkpt lat="39.82566925715636" lon="9.338155859372891"><ele>752.6666666666666</ele><time>2026-05-03T08:08:00Z</time></trkpt><trkpt lat="39.82564192173185" lon="9.337912431636452"><ele>750.3333333333334</ele><time>2026-05-03T08:08:01Z</time></trkpt><trkpt lat="39.82559053497132" lon="9.337698259633175"><ele>748.0</ele><time>2026-05-03T08:08:02Z</time></trkpt><trkpt lat="39.825517969563556" lon="9.337504549427319"><ele>748.0</ele><time>2026-05-03T08:08:03Z</time></trkpt><trkpt lat="39.825445429005626" lon="9.337349307979697"><ele>748.0</ele><time>2026-05-03T08:08:04Z</time></trkpt><trkpt lat="39.82538803380337" lon="9.337225796527036"><ele>748.0</ele><time>2026-05-03T08:08:05Z</time></trkpt><trkpt lat="39.82535100547056" lon="9.33713425127682"><ele>748.0</ele><time>2026-05-03T08:08:06Z</time></trkpt><trkpt lat="39.82533105580043" lon="9.337040885852206"><ele>748.0</ele><time>2026-05-03T08:08:07Z</time></trkpt><trkpt lat="39.82536882491313" lon="9.336956886750382"><ele>746.0</ele><time>2026-05-03T08:08:08Z</time></trkpt><trkpt lat="39.82543615763225" lon="9.336908899831872"><ele>744.0</ele><time>2026-05-03T08:08:09Z</time></trkpt><trkpt lat="39.82553349382799" lon="9.336903229207696"><ele>742.0</ele><time>2026-05-03T08:08:10Z</time></trkpt><trkpt lat="39.825655311009875" lon="9.336946858323632"><ele>740.0</ele><time>2026-05-03T08:08:11Z</time></trkpt><trkpt lat="39.825791435213844" lon="9.337018480883732"><ele>738.0</ele><time>2026-05-03T08:08:12Z</time></trkpt><trkpt lat="39.825946365167944" lon="9.337096357667162"><ele>736.0</ele><time>2026-05-03T08:08:13Z</time></trkpt><trkpt lat="39.82612171263161" lon="9.337176980489263"><ele>734.0</ele><time>2026-05-03T08:08:14Z</time></trkpt><trkpt lat="39.82628250233543" lon="9.337259694358437"><ele>732.0</ele><time>2026-05-03T08:08:15Z</time></trkpt><trkpt lat="39.82643432200283" lon="9.337362191518736"><ele>732.0</ele><time>2026-05-03T08:08:16Z</time></trkpt><trkpt lat="39.82657555531936" lon="9.337492971023213"><ele>732.0</ele><time>2026-05-03T08:08:17Z</time></trkpt><trkpt lat="39.826697004073765" lon="9.337649438732319"><ele>732.0</ele><time>2026-05-03T08:08:18Z</time></trkpt><trkpt lat="39.82681725065904" lon="9.33777880502574"><ele>727.5</ele><time>2026-05-03T08:08:19Z</time></trkpt><trkpt lat="39.826929424077704" lon="9.33788090350072"><ele>723.0</ele><time>2026-05-03T08:08:20Z</time></trkpt><trkpt lat="39.827028687263876" lon="9.337987208731604"><ele>718.5</ele><time>2026-05-03T08:08:21Z</time></trkpt><trkpt lat="39.82709497916245" lon="9.338111198456623"><ele>714.0</ele><time>2026-05-03T08:08:22Z</time></trkpt><trkpt lat="39.82712583603607" lon="9.338259786349377"><ele>714.0</ele><time>2026-05-03T08:08:23Z</time></trkpt><trkpt lat="39.8271330841842" lon="9.338433776287577"><ele>714.0</ele><time>2026-05-03T08:08:24Z</time></trkpt><trkpt lat="39.827131372988504" lon="9.33863315138481"><ele>714.0</ele><time>2026-05-03T08:08:25Z</time></trkpt><trkpt lat="39.82712731929679" lon="9.338842180069113"><ele>714.0</ele><time>2026-05-03T08:08:26Z</time></trkpt><trkpt lat="39.82712715873806" lon="9.339038416103781"><ele>714.75</ele><time>2026-05-03T08:08:27Z</time></trkpt><trkpt lat="39.82713392925604" lon="9.339221888937354"><ele>715.5</ele><time>2026-05-03T08:08:28Z</time></trkpt><trkpt lat="39.82716376802113" lon="9.33939917261667"><ele>716.25</ele><time>2026-05-03T08:08:29Z</time></trkpt><trkpt lat="39.827221174959305" lon="9.339558476380777"><ele>717.0</ele><time>2026-05-03T08:08:30Z</time></trkpt><trkpt lat="39.827316558240966" lon="9.339700059469335"><ele>719.5</ele><time>2026-05-03T08:08:31Z</time></trkpt><trkpt lat="39.82744110313714" lon="9.339830834391488"><ele>722.0</ele><time>2026-05-03T08:08:32Z</time></trkpt><trkpt lat="39.827547669746764" lon="9.339970250036092"><ele>724.5</ele><time>2026-05-03T08:08:33Z</time></trkpt><trkpt lat="39.82762913095651" lon="9.34011527368236"><ele>727.0</ele><time>2026-05-03T08:08:34Z</time></trkpt><trkpt lat="39.827706000417535" lon="9.340277926792922"><ele>726.5</ele><time>2026-05-03T08:08:35Z</time></trkpt><trkpt lat="39.8277746463651" lon="9.340425000036966"><ele>726.0</ele><time>2026-05-03T08:08:36Z</time></trkpt><trkpt lat="39.82785697782512" lon="9.340545468700693"><ele>725.5</ele><time>2026-05-03T08:08:37Z</time></trkpt><trkpt lat="39.82795778679993" lon="9.340622172930816"><ele>725.0</ele><time>2026-05-03T08:08:38Z</time></trkpt><trkpt lat="39.82807472466499" lon="9.340637627887364"><ele>725.0</ele><time>2026-05-03T08:08:39Z</time></trkpt><trkpt lat="39.828197017835045" lon="9.34060459948192"><ele>725.0</ele><time>2026-05-03T08:08:40Z</time></trkpt><trkpt lat="39.82831502809138" lon="9.340559317694169"><ele>725.0</ele><time>2026-05-03T08:08:41Z</time></trkpt><trkpt lat="39.828431108283645" lon="9.340554143816854"><ele>725.0</ele><time>2026-05-03T08:08:42Z</time></trkpt><trkpt lat="39.828542090613524" lon="9.340595330446783"><ele>723.0</ele><time>2026-05-03T08:08:43Z</time></trkpt><trkpt lat="39.82866611825484" lon="9.340667815661591"><ele>721.0</ele><time>2026-05-03T08:08:44Z</time></trkpt><trkpt lat="39.82880983958221" lon="9.340707162703552"><ele>719.0</ele><time>2026-05-03T08:08:45Z</time></trkpt><trkpt lat="39.828951449668104" lon="9.340708002989373"><ele>717.0</ele><time>2026-05-03T08:08:46Z</time></trkpt><trkpt lat="39.829099639640994" lon="9.340665403901502"><ele>717.0</ele><time>2026-05-03T08:08:47Z</time></trkpt><trkpt lat="39.82924966147094" lon="9.340612289435176"><ele>717.0</ele><time>2026-05-03T08:08:48Z</time></trkpt><trkpt lat="39.82939554689336" lon="9.340579026830948"><ele>717.0</ele><time>2026-05-03T08:08:49Z</time></trkpt><trkpt lat="39.82953705205707" lon="9.3405624023366"><ele>717.0</ele><time>2026-05-03T08:08:50Z</time></trkpt><trkpt lat="39.829663622855826" lon="9.34053261775215"><ele>715.0</ele><time>2026-05-03T08:08:51Z</time></trkpt><trkpt lat="39.82977736302927" lon="9.340524960648036"><ele>713.0</ele><time>2026-05-03T08:08:52Z</time></trkpt><trkpt lat="39.82987665701133" lon="9.340560485292574"><ele>711.0</ele><time>2026-05-03T08:08:53Z</time></trkpt><trkpt lat="39.82995417803168" lon="9.340655770109592"><ele>709.0</ele><time>2026-05-03T08:08:54Z</time></trkpt><trkpt lat="39.829996798428205" lon="9.340783348621908"><ele>707.0</ele><time>2026-05-03T08:08:55Z</time></trkpt><trkpt lat="39.83003707905058" lon="9.340924017093654"><ele>707.0</ele><time>2026-05-03T08:08:56Z</time></trkpt><trkpt lat="39.83009523803053" lon="9.341052563558394"><ele>707.0</ele><time>2026-05-03T08:08:57Z</time></trkpt><trkpt lat="39.830214605981716" lon="9.341138635909923"><ele>707.0</ele><time>2026-05-03T08:08:58Z</time></trkpt><trkpt lat="39.83034083254127" lon="9.341221069391235"><ele>707.0</ele><time>2026-05-03T08:08:59Z</time></trkpt><trkpt lat="39.830464018746866" lon="9.341329837174685"><ele>705.6666666666666</ele><time>2026-05-03T08:09:00Z</time></trkpt><trkpt lat="39.83060382735725" lon="9.341397087702722"><ele>704.3333333333334</ele><time>2026-05-03T08:09:01Z</time></trkpt><trkpt lat="39.8307420295194" lon="9.341486165350743"><ele>703.0</ele><time>2026-05-03T08:09:02Z</time></trkpt><trkpt lat="39.83088585841274" lon="9.341592618460899"><ele>695.3333333333334</ele><time>2026-05-03T08:09:03Z</time></trkpt><trkpt lat="39.831026619391864" lon="9.341716300894046"><ele>687.6666666666666</ele><time>2026-05-03T08:09:04Z</time></trkpt><trkpt lat="39.83114914869857" lon="9.34185300630084"><ele>680.0</ele><time>2026-05-03T08:09:05Z</time></trkpt><trkpt lat="39.831264229721604" lon="9.342005754188941"><ele>680.0</ele><time>2026-05-03T08:09:06Z</time></trkpt><trkpt lat="39.83136475511382" lon="9.342159238511476"><ele>680.0</ele><time>2026-05-03T08:09:07Z</time></trkpt><trkpt lat="39.831477226654826" lon="9.342289142225718"><ele>680.0</ele><time>2026-05-03T08:09:08Z</time></trkpt><trkpt lat="39.831601856915896" lon="9.342408985994506"><ele>679.75</ele><time>2026-05-03T08:09:09Z</time></trkpt><trkpt lat="39.83172432708656" lon="9.342497165615377"><ele>679.5</ele><time>2026-05-03T08:09:10Z</time></trkpt><trkpt lat="39.83184162947649" lon="9.342593675287436"><ele>679.25</ele><time>2026-05-03T08:09:11Z</time></trkpt><trkpt lat="39.83198891682869" lon="9.342655929156628"><ele>679.0</ele><time>2026-05-03T08:09:12Z</time></trkpt><trkpt lat="39.832155578834175" lon="9.342714793612307"><ele>679.0</ele><time>2026-05-03T08:09:13Z</time></trkpt><trkpt lat="39.832309941389774" lon="9.342782604904862"><ele>679.0</ele><time>2026-05-03T08:09:14Z</time></trkpt><trkpt lat="39.832491903813654" lon="9.342885161156637"><ele>679.0</ele><time>2026-05-03T08:09:15Z</time></trkpt><trkpt lat="39.83264284762838" lon="9.34300382060761"><ele>680.0</ele><time>2026-05-03T08:09:16Z</time></trkpt><trkpt lat="39.832804916624966" lon="9.343135990578805"><ele>681.0</ele><time>2026-05-03T08:09:17Z</time></trkpt><trkpt lat="39.83292723454" lon="9.343259906377149"><ele>682.0</ele><time>2026-05-03T08:09:18Z</time></trkpt><trkpt lat="39.833041059282436" lon="9.343378426969618"><ele>682.0</ele><time>2026-05-03T08:09:19Z</time></trkpt><trkpt lat="39.833144448023255" lon="9.343508887581088"><ele>682.0</ele><time>2026-05-03T08:09:20Z</time></trkpt><trkpt lat="39.833288054650424" lon="9.343540094777461"><ele>682.0</ele><time>2026-05-03T08:09:21Z</time></trkpt><trkpt lat="39.83341612391911" lon="9.34362344028835"><ele>682.0</ele><time>2026-05-03T08:09:22Z</time></trkpt><trkpt lat="39.83352246651637" lon="9.343735614373633"><ele>682.2</ele><time>2026-05-03T08:09:23Z</time></trkpt><trkpt lat="39.83360958496578" lon="9.343857398983946"><ele>682.4000000000001</ele><time>2026-05-03T08:09:24Z</time></trkpt><trkpt lat="39.833690547036085" lon="9.34393892078476"><ele>682.5999999999999</ele><time>2026-05-03T08:09:25Z</time></trkpt><trkpt lat="39.8337714370921" lon="9.343977073802323"><ele>682.8</ele><time>2026-05-03T08:09:26Z</time></trkpt><trkpt lat="39.83384609185323" lon="9.34395076972753"><ele>683.0</ele><time>2026-05-03T08:09:27Z</time></trkpt><trkpt lat="39.833902572105615" lon="9.343859817452158"><ele>686.8</ele><time>2026-05-03T08:09:28Z</time></trkpt><trkpt lat="39.833957491263" lon="9.343745935034207"><ele>690.5999999999999</ele><time>2026-05-03T08:09:29Z</time></trkpt><trkpt lat="39.833977303476225" lon="9.343661403053051"><ele>694.4000000000001</ele><time>2026-05-03T08:09:30Z</time></trkpt><trkpt lat="39.83399438564904" lon="9.343557375585448"><ele>698.2</ele><time>2026-05-03T08:09:31Z</time></trkpt><trkpt lat="39.833939041841106" lon="9.343434974912693"><ele>702.0</ele><time>2026-05-03T08:09:32Z</time></trkpt><trkpt lat="39.83385885008117" lon="9.343311397180711"><ele>702.0</ele><time>2026-05-03T08:09:33Z</time></trkpt><trkpt lat="39.833771011170725" lon="9.343197280375794"><ele>702.0</ele><time>2026-05-03T08:09:34Z</time></trkpt><trkpt lat="39.83368015157921" lon="9.343079506811613"><ele>702.0</ele><time>2026-05-03T08:09:35Z</time></trkpt><trkpt lat="39.83356483249215" lon="9.342925000965895"><ele>702.0</ele><time>2026-05-03T08:09:36Z</time></trkpt><trkpt lat="39.833452152405684" lon="9.342785635820485"><ele>698.3333333333334</ele><time>2026-05-03T08:09:37Z</time></trkpt><trkpt lat="39.83337919365822" lon="9.342602666953109"><ele>694.6666666666667</ele><time>2026-05-03T08:09:38Z</time></trkpt><trkpt lat="39.83327665307597" lon="9.342413389438327"><ele>691.0</ele><time>2026-05-03T08:09:39Z</time></trkpt><trkpt lat="39.833172044239475" lon="9.342210064978419"><ele>699.3333333333334</ele><time>2026-05-03T08:09:40Z</time></trkpt><trkpt lat="39.833038391951725" lon="9.342010392390643"><ele>707.6666666666666</ele><time>2026-05-03T08:09:41Z</time></trkpt><trkpt lat="39.8328967378415" lon="9.341819701271604"><ele>716.0</ele><time>2026-05-03T08:09:42Z</time></trkpt><trkpt lat="39.83278860510913" lon="9.34165255163772"><ele>716.0</ele><time>2026-05-03T08:09:43Z</time></trkpt><trkpt lat="39.83266387379414" lon="9.341543013239656"><ele>716.0</ele><time>2026-05-03T08:09:44Z</time></trkpt><trkpt lat="39.83252400964312" lon="9.341466310070901"><ele>716.0</ele><time>2026-05-03T08:09:45Z</time></trkpt><trkpt lat="39.832397931126444" lon="9.34141079927769"><ele>716.0</ele><time>2026-05-03T08:09:46Z</time></trkpt><trkpt lat="39.83229538131958" lon="9.341329604137975"><ele>714.0</ele><time>2026-05-03T08:09:47Z</time></trkpt><trkpt lat="39.832276692524545" lon="9.34119727102949"><ele>712.0</ele><time>2026-05-03T08:09:48Z</time></trkpt><trkpt lat="39.832266876237064" lon="9.341045671622586"><ele>710.0</ele><time>2026-05-03T08:09:49Z</time></trkpt><trkpt lat="39.83224549278035" lon="9.340854393318288"><ele>708.0</ele><time>2026-05-03T08:09:50Z</time></trkpt><trkpt lat="39.83220092386044" lon="9.340657317350432"><ele>709.0</ele><time>2026-05-03T08:09:51Z</time></trkpt><trkpt lat="39.832144697070326" lon="9.34044546743592"><ele>710.0</ele><time>2026-05-03T08:09:52Z</time></trkpt><trkpt lat="39.83208286745347" lon="9.340268283018265"><ele>711.0</ele><time>2026-05-03T08:09:53Z</time></trkpt><trkpt lat="39.832067274790624" lon="9.340111683407557"><ele>712.0</ele><time>2026-05-03T08:09:54Z</time></trkpt><trkpt lat="39.832075498322624" lon="9.339967464580454"><ele>712.0</ele><time>2026-05-03T08:09:55Z</time></trkpt><trkpt lat="39.83214366484808" lon="9.339858213134134"><ele>712.0</ele><time>2026-05-03T08:09:56Z</time></trkpt><trkpt lat="39.83222971236106" lon="9.33972072673239"><ele>712.0</ele><time>2026-05-03T08:09:57Z</time></trkpt><trkpt lat="39.83232007199233" lon="9.339547865086226"><ele>712.0</ele><time>2026-05-03T08:09:58Z</time></trkpt><trkpt lat="39.83239516261674" lon="9.339329142378006"><ele>714.0</ele><time>2026-05-03T08:09:59Z</time></trkpt><trkpt lat="39.83248075022578" lon="9.339131249086087"><ele>716.0</ele><time>2026-05-03T08:10:00Z</time></trkpt><trkpt lat="39.83258176290339" lon="9.338962958842009"><ele>718.0</ele><time>2026-05-03T08:10:01Z</time></trkpt><trkpt lat="39.832681244102695" lon="9.33881106868068"><ele>718.0</ele><time>2026-05-03T08:10:02Z</time></trkpt><trkpt lat="39.83278053694261" lon="9.338656906797846"><ele>718.0</ele><time>2026-05-03T08:10:03Z</time></trkpt><trkpt lat="39.83288870661832" lon="9.338534972981979"><ele>718.0</ele><time>2026-05-03T08:10:04Z</time></trkpt><trkpt lat="39.83299980997243" lon="9.338470375952085"><ele>718.0</ele><time>2026-05-03T08:10:05Z</time></trkpt><trkpt lat="39.833114639035024" lon="9.338448656030144"><ele>718.0</ele><time>2026-05-03T08:10:06Z</time></trkpt><trkpt lat="39.83320935496602" lon="9.338390058866821"><ele>718.0</ele><time>2026-05-03T08:10:07Z</time></trkpt><trkpt lat="39.833286659083115" lon="9.33834387731198"><ele>718.0</ele><time>2026-05-03T08:10:08Z</time></trkpt><trkpt lat="39.83329934594054" lon="9.338242845237511"><ele>718.0</ele><time>2026-05-03T08:10:09Z</time></trkpt><trkpt lat="39.83327186871624" lon="9.338126353149073"><ele>718.0</ele><time>2026-05-03T08:10:10Z</time></trkpt><trkpt lat="39.83319470233503" lon="9.338038093575475"><ele>721.25</ele><time>2026-05-03T08:10:11Z</time></trkpt><trkpt lat="39.83306424054253" lon="9.337982029026028"><ele>724.5</ele><time>2026-05-03T08:10:12Z</time></trkpt><trkpt lat="39.832915193990786" lon="9.337932969177858"><ele>727.75</ele><time>2026-05-03T08:10:13Z</time></trkpt><trkpt lat="39.83276744077826" lon="9.337890235621455"><ele>731.0</ele><time>2026-05-03T08:10:14Z</time></trkpt><trkpt lat="39.83261482077539" lon="9.337845608866072"><ele>731.0</ele><time>2026-05-03T08:10:15Z</time></trkpt><trkpt lat="39.832476058028355" lon="9.33782842327066"><ele>731.0</ele><time>2026-05-03T08:10:16Z</time></trkpt><trkpt lat="39.83233463653397" lon="9.337871409014664"><ele>731.0</ele><time>2026-05-03T08:10:17Z</time></trkpt><trkpt lat="39.832198860452166" lon="9.337981147645054"><ele>731.0</ele><time>2026-05-03T08:10:18Z</time></trkpt><trkpt lat="39.83204622364449" lon="9.338083603237488"><ele>725.5</ele><time>2026-05-03T08:10:18.999Z</time></trkpt><trkpt lat="39.83189223657287" lon="9.338114771739702"><ele>720.0</ele><time>2026-05-03T08:10:19.999Z</time></trkpt><trkpt lat="39.831743597875175" lon="9.338157586035898"><ele>714.5</ele><time>2026-05-03T08:10:20.999Z</time></trkpt><trkpt lat="39.831621099971414" lon="9.338162813135286"><ele>709.0</ele><time>2026-05-03T08:10:21.999Z</time></trkpt><trkpt lat="39.83153672443839" lon="9.338087524325228"><ele>714.25</ele><time>2026-05-03T08:10:22.999Z</time></trkpt><trkpt lat="39.831436301298176" lon="9.337992262543507"><ele>719.5</ele><time>2026-05-03T08:10:23.999Z</time></trkpt><trkpt lat="39.8313433763955" lon="9.337861998067542"><ele>724.75</ele><time>2026-05-03T08:10:24.999Z</time></trkpt><trkpt lat="39.83125953934786" lon="9.33770279985819"><ele>730.0</ele><time>2026-05-03T08:10:25.999Z</time></trkpt><trkpt lat="39.83120433058039" lon="9.337518731897008"><ele>730.0</ele><time>2026-05-03T08:10:26.999Z</time></trkpt><trkpt lat="39.83118183590403" lon="9.337321433833441"><ele>730.0</ele><time>2026-05-03T08:10:27.999Z</time></trkpt><trkpt lat="39.83118467139591" lon="9.33712045867628"><ele>730.0</ele><time>2026-05-03T08:10:28.999Z</time></trkpt><trkpt lat="39.83121760013518" lon="9.336914070970332"><ele>735.0</ele><time>2026-05-03T08:10:29.999Z</time></trkpt><trkpt lat="39.83125905642149" lon="9.336682175618472"><ele>740.0</ele><time>2026-05-03T08:10:30.999Z</time></trkpt><trkpt lat="39.83128074856203" lon="9.33645560000159"><ele>745.0</ele><time>2026-05-03T08:10:31.999Z</time></trkpt><trkpt lat="39.83125204865469" lon="9.336246402842125"><ele>745.75</ele><time>2026-05-03T08:10:32.999Z</time></trkpt><trkpt lat="39.83121752790379" lon="9.33605094880686"><ele>746.5</ele><time>2026-05-03T08:10:33.999Z</time></trkpt><trkpt lat="39.83121224777883" lon="9.335869704136774"><ele>747.25</ele><time>2026-05-03T08:10:34.999Z</time></trkpt><trkpt lat="39.83126015040904" lon="9.335696051752445"><ele>748.0</ele><time>2026-05-03T08:10:35.999Z</time></trkpt><trkpt lat="39.831321241273024" lon="9.335532730311884"><ele>743.3333333333334</ele><time>2026-05-03T08:10:36.999Z</time></trkpt><trkpt lat="39.83141460696158" lon="9.335344737426405"><ele>738.6666666666666</ele><time>2026-05-03T08:10:38Z</time></trkpt><trkpt lat="39.8315210905123" lon="9.335147258770093"><ele>734.0</ele><time>2026-05-03T08:10:39Z</time></trkpt><trkpt lat="39.83161354321793" lon="9.334986964304724"><ele>734.0</ele><time>2026-05-03T08:10:40Z</time></trkpt><trkpt lat="39.83171986881439" lon="9.334853394711615"><ele>734.0</ele><time>2026-05-03T08:10:41Z</time></trkpt><trkpt lat="39.8318394346582" lon="9.334753189119532"><ele>734.0</ele><time>2026-05-03T08:10:42Z</time></trkpt><trkpt lat="39.831978327780114" lon="9.33467180243584"><ele>734.0</ele><time>2026-05-03T08:10:43Z</time></trkpt><trkpt lat="39.8321315623625" lon="9.334588843938302"><ele>738.0</ele><time>2026-05-03T08:10:44Z</time></trkpt><trkpt lat="39.83225024158861" lon="9.334503928679156"><ele>742.0</ele><time>2026-05-03T08:10:45Z</time></trkpt><trkpt lat="39.83233992871647" lon="9.334407252102684"><ele>746.0</ele><time>2026-05-03T08:10:46Z</time></trkpt><trkpt lat="39.832385429616664" lon="9.334281867105409"><ele>750.0</ele><time>2026-05-03T08:10:47Z</time></trkpt><trkpt lat="39.83240108332449" lon="9.33412890208542"><ele>750.0</ele><time>2026-05-03T08:10:48Z</time></trkpt><trkpt lat="39.832378004781866" lon="9.333958028425888"><ele>750.0</ele><time>2026-05-03T08:10:49Z</time></trkpt><trkpt lat="39.83232979933144" lon="9.333770532612881"><ele>750.0</ele><time>2026-05-03T08:10:50Z</time></trkpt><trkpt lat="39.832288829470485" lon="9.333589870048058"><ele>750.0</ele><time>2026-05-03T08:10:51Z</time></trkpt><trkpt lat="39.83225241169987" lon="9.333434391631"><ele>750.5</ele><time>2026-05-03T08:10:52Z</time></trkpt><trkpt lat="39.832235730395695" lon="9.333287583123585"><ele>751.0</ele><time>2026-05-03T08:10:53Z</time></trkpt><trkpt lat="39.832256316237476" lon="9.33313508120293"><ele>751.5</ele><time>2026-05-03T08:10:54Z</time></trkpt><trkpt lat="39.83231221692574" lon="9.332988583487944"><ele>752.0</ele><time>2026-05-03T08:10:55Z</time></trkpt><trkpt lat="39.83238658514066" lon="9.332851777974478"><ele>749.5</ele><time>2026-05-03T08:10:56Z</time></trkpt><trkpt lat="39.832484567806404" lon="9.332726201565604"><ele>747.0</ele><time>2026-05-03T08:10:57Z</time></trkpt><trkpt lat="39.8325949345282" lon="9.332610408032014"><ele>744.5</ele><time>2026-05-03T08:10:58Z</time></trkpt><trkpt lat="39.832720798128385" lon="9.332489174630723"><ele>742.0</ele><time>2026-05-03T08:10:59Z</time></trkpt><trkpt lat="39.83284357020325" lon="9.33238156121625"><ele>743.5</ele><time>2026-05-03T08:11:00Z</time></trkpt><trkpt lat="39.83296162236252" lon="9.332284225186521"><ele>745.0</ele><time>2026-05-03T08:11:01Z</time></trkpt><trkpt lat="39.8330785055711" lon="9.332181299528397"><ele>746.5</ele><time>2026-05-03T08:11:02Z</time></trkpt><trkpt lat="39.83319724458407" lon="9.33209936784992"><ele>748.0</ele><time>2026-05-03T08:11:03Z</time></trkpt><trkpt lat="39.83330855715681" lon="9.33200645273628"><ele>748.0</ele><time>2026-05-03T08:11:04Z</time></trkpt><trkpt lat="39.83342339523738" lon="9.331903206198017"><ele>748.0</ele><time>2026-05-03T08:11:05Z</time></trkpt><trkpt lat="39.83352322198239" lon="9.33177559696286"><ele>748.0</ele><time>2026-05-03T08:11:06Z</time></trkpt><trkpt lat="39.8336089817991" lon="9.331620620278597"><ele>748.0</ele><time>2026-05-03T08:11:07Z</time></trkpt><trkpt lat="39.83369378238052" lon="9.331496301830148"><ele>748.75</ele><time>2026-05-03T08:11:08Z</time></trkpt><trkpt lat="39.83380254547178" lon="9.331391372796775"><ele>749.5</ele><time>2026-05-03T08:11:09Z</time></trkpt><trkpt lat="39.8339231760459" lon="9.331308528617384"><ele>750.25</ele><time>2026-05-03T08:11:10Z</time></trkpt><trkpt lat="39.83404875713159" lon="9.331231865878452"><ele>751.0</ele><time>2026-05-03T08:11:11Z</time></trkpt><trkpt lat="39.83417803191047" lon="9.331154922975958"><ele>751.0</ele><time>2026-05-03T08:11:12Z</time></trkpt><trkpt lat="39.83430391864291" lon="9.331077824599452"><ele>751.0</ele><time>2026-05-03T08:11:13Z</time></trkpt><trkpt lat="39.834423690053036" lon="9.33099070731495"><ele>751.0</ele><time>2026-05-03T08:11:14Z</time></trkpt><trkpt lat="39.834530636537544" lon="9.330904756018716"><ele>751.0</ele><time>2026-05-03T08:11:15Z</time></trkpt><trkpt lat="39.8346388659163" lon="9.330821660153592"><ele>756.0</ele><time>2026-05-03T08:11:16Z</time></trkpt><trkpt lat="39.83475373342809" lon="9.330750521947259"><ele>761.0</ele><time>2026-05-03T08:11:17Z</time></trkpt><trkpt lat="39.83486962498649" lon="9.330675379289548"><ele>766.0</ele><time>2026-05-03T08:11:18Z</time></trkpt><trkpt lat="39.834976623635185" lon="9.330600587873176"><ele>771.0</ele><time>2026-05-03T08:11:19Z</time></trkpt><trkpt lat="39.83506834218694" lon="9.330531143446786"><ele>771.0</ele><time>2026-05-03T08:11:20Z</time></trkpt><trkpt lat="39.83514993477798" lon="9.330467119014545"><ele>771.0</ele><time>2026-05-03T08:11:21Z</time></trkpt><trkpt lat="39.83520458959352" lon="9.330389096570077"><ele>771.0</ele><time>2026-05-03T08:11:22Z</time></trkpt><trkpt lat="39.83524517072971" lon="9.330314519275822"><ele>771.0</ele><time>2026-05-03T08:11:23Z</time></trkpt><trkpt lat="39.835213654612076" lon="9.330209164302502"><ele>771.0</ele><time>2026-05-03T08:11:24Z</time></trkpt><trkpt lat="39.835169824107275" lon="9.330110864801767"><ele>771.0</ele><time>2026-05-03T08:11:25Z</time></trkpt><trkpt lat="39.83512703513358" lon="9.330004597378357"><ele>771.0</ele><time>2026-05-03T08:11:26Z</time></trkpt><trkpt lat="39.8350587101419" lon="9.329886876895092"><ele>771.0</ele><time>2026-05-03T08:11:27Z</time></trkpt><trkpt lat="39.8349851369809" lon="9.329780318924218"><ele>771.0</ele><time>2026-05-03T08:11:28Z</time></trkpt><trkpt lat="39.834889568911855" lon="9.329702365592498"><ele>771.0</ele><time>2026-05-03T08:11:29Z</time></trkpt><trkpt lat="39.83481705966712" lon="9.329592543395746"><ele>771.0</ele><time>2026-05-03T08:11:30Z</time></trkpt><trkpt lat="39.834772157082554" lon="9.329456822550554"><ele>774.75</ele><time>2026-05-03T08:11:31Z</time></trkpt><trkpt lat="39.834762910578625" lon="9.329299383409277"><ele>778.5</ele><time>2026-05-03T08:11:32Z</time></trkpt><trkpt lat="39.83477330783916" lon="9.329139706324002"><ele>782.25</ele><time>2026-05-03T08:11:33Z</time></trkpt><trkpt lat="39.83478979416757" lon="9.32899160904236"><ele>786.0</ele><time>2026-05-03T08:11:34Z</time></trkpt><trkpt lat="39.83479605430752" lon="9.328860709545552"><ele>787.5999999999999</ele><time>2026-05-03T08:11:35Z</time></trkpt><trkpt lat="39.83477173519522" lon="9.328748950527926"><ele>789.2</ele><time>2026-05-03T08:11:36Z</time></trkpt><trkpt lat="39.83472174604624" lon="9.328653436318495"><ele>790.8</ele><time>2026-05-03T08:11:37Z</time></trkpt><trkpt lat="39.834623265857445" lon="9.328611861055316"><ele>792.4000000000001</ele><time>2026-05-03T08:11:38Z</time></trkpt><trkpt lat="39.83451385084003" lon="9.328610933095831"><ele>794.0</ele><time>2026-05-03T08:11:39Z</time></trkpt><trkpt lat="39.834400829852726" lon="9.328594412664659"><ele>792.6</ele><time>2026-05-03T08:11:40Z</time></trkpt><trkpt lat="39.83428413361733" lon="9.32857182267194"><ele>791.2</ele><time>2026-05-03T08:11:41Z</time></trkpt><trkpt lat="39.83416888001312" lon="9.328516114616704"><ele>789.8000000000001</ele><time>2026-05-03T08:11:42Z</time></trkpt><trkpt lat="39.83409250907034" lon="9.328427683021689"><ele>788.4000000000001</ele><time>2026-05-03T08:11:43Z</time></trkpt><trkpt lat="39.834009063149225" lon="9.328342348266546"><ele>787.0</ele><time>2026-05-03T08:11:44Z</time></trkpt><trkpt lat="39.833950072726445" lon="9.328238578215407"><ele>786.9999999999999</ele><time>2026-05-03T08:11:45Z</time></trkpt><trkpt lat="39.8339124444101" lon="9.328130709134244"><ele>787.0</ele><time>2026-05-03T08:11:46Z</time></trkpt><trkpt lat="39.833905738095545" lon="9.328006360517936"><ele>787.0</ele><time>2026-05-03T08:11:47Z</time></trkpt><trkpt lat="39.83392463974048" lon="9.327891433561952"><ele>787.0</ele><time>2026-05-03T08:11:48Z</time></trkpt><trkpt lat="39.83397507724048" lon="9.327802396748146"><ele>786.9999999999999</ele><time>2026-05-03T08:11:49Z</time></trkpt><trkpt lat="39.83404395241975" lon="9.327749808260247"><ele>787.0</ele><time>2026-05-03T08:11:50Z</time></trkpt><trkpt lat="39.83412306336538" lon="9.327729972857991"><ele>786.4999999999999</ele><time>2026-05-03T08:11:51Z</time></trkpt><trkpt lat="39.834212722997954" lon="9.327682218722499"><ele>786.0</ele><time>2026-05-03T08:11:52Z</time></trkpt><trkpt lat="39.834296130582466" lon="9.32763216711168"><ele>785.5</ele><time>2026-05-03T08:11:53Z</time></trkpt><trkpt lat="39.83437365501583" lon="9.327591471990692"><ele>785.0</ele><time>2026-05-03T08:11:54Z</time></trkpt><trkpt lat="39.834433035496936" lon="9.327556828488492"><ele>784.4999999999999</ele><time>2026-05-03T08:11:55Z</time></trkpt><trkpt lat="39.83451328414703" lon="9.32752790129191"><ele>784.0</ele><time>2026-05-03T08:11:57Z</time></trkpt><trkpt lat="39.834595181851405" lon="9.327487746309348"><ele>785.3333333333333</ele><time>2026-05-03T08:11:59Z</time></trkpt><trkpt lat="39.83467934042569" lon="9.327455443790898"><ele>786.6666666666666</ele><time>2026-05-03T08:12:01Z</time></trkpt><trkpt lat="39.834742826781344" lon="9.327435377760496"><ele>788.0</ele><time>2026-05-03T08:12:09Z</time></trkpt><trkpt lat="39.83484898377334" lon="9.32736638020665"><ele>789.3333333333333</ele><time>2026-05-03T08:12:11Z</time></trkpt><trkpt lat="39.8349105011336" lon="9.327328785231384"><ele>790.6666666666666</ele><time>2026-05-03T08:12:12Z</time></trkpt><trkpt lat="39.83498374817441" lon="9.327285798360606"><ele>792.0</ele><time>2026-05-03T08:12:13Z</time></trkpt><trkpt lat="39.83506362684473" lon="9.327241267399627"><ele>792.2</ele><time>2026-05-03T08:12:14Z</time></trkpt><trkpt lat="39.83514217021845" lon="9.327198140692492"><ele>792.4000000000001</ele><time>2026-05-03T08:12:15Z</time></trkpt><trkpt lat="39.83522308492338" lon="9.327155415080203"><ele>792.5999999999999</ele><time>2026-05-03T08:12:16Z</time></trkpt><trkpt lat="39.8353033912994" lon="9.327104010792079"><ele>792.8</ele><time>2026-05-03T08:12:17Z</time></trkpt><trkpt lat="39.83539372345765" lon="9.327065219856909"><ele>793.0</ele><time>2026-05-03T08:12:18Z</time></trkpt><trkpt lat="39.835478226835356" lon="9.327008145748211"><ele>792.9999999999999</ele><time>2026-05-03T08:12:19Z</time></trkpt><trkpt lat="39.83554692019801" lon="9.326952658009603"><ele>793.0</ele><time>2026-05-03T08:12:20Z</time></trkpt><trkpt lat="39.83562068247529" lon="9.326902023262221"><ele>793.0</ele><time>2026-05-03T08:12:21Z</time></trkpt><trkpt lat="39.83569533338251" lon="9.326857873445595"><ele>793.0</ele><time>2026-05-03T08:12:22Z</time></trkpt><trkpt lat="39.83576409504079" lon="9.326803420506145"><ele>792.9999999999999</ele><time>2026-05-03T08:12:23Z</time></trkpt><trkpt lat="39.835826792874286" lon="9.326726977455788"><ele>793.0</ele><time>2026-05-03T08:12:24Z</time></trkpt><trkpt lat="39.83589557593911" lon="9.326656418806564"><ele>793.0</ele><time>2026-05-03T08:12:25Z</time></trkpt><trkpt lat="39.835962313970434" lon="9.326583768992913"><ele>793.0</ele><time>2026-05-03T08:12:26Z</time></trkpt><trkpt lat="39.83602048682071" lon="9.326483863094817"><ele>793.0</ele><time>2026-05-03T08:12:27Z</time></trkpt><trkpt lat="39.83607279014067" lon="9.326390724596589"><ele>793.0</ele><time>2026-05-03T08:12:28Z</time></trkpt><trkpt lat="39.836143745258816" lon="9.326298283811258"><ele>793.0</ele><time>2026-05-03T08:12:29Z</time></trkpt><trkpt lat="39.83621107468498" lon="9.32622474970142"><ele>793.9999999999999</ele><time>2026-05-03T08:12:30Z</time></trkpt><trkpt lat="39.83628447109942" lon="9.32615312204583"><ele>795.0</ele><time>2026-05-03T08:12:31Z</time></trkpt><trkpt lat="39.83635731562474" lon="9.326083212209298"><ele>796.0</ele><time>2026-05-03T08:12:32Z</time></trkpt><trkpt lat="39.83643317327157" lon="9.326020078253805"><ele>797.0</ele><time>2026-05-03T08:12:33Z</time></trkpt><trkpt lat="39.836499392489806" lon="9.325959564289269"><ele>797.9999999999999</ele><time>2026-05-03T08:12:34Z</time></trkpt><trkpt lat="39.83656962724596" lon="9.3258982069778"><ele>799.0</ele><time>2026-05-03T08:12:35Z</time></trkpt><trkpt lat="39.836637361660934" lon="9.32583527126117"><ele>799.0</ele><time>2026-05-03T08:12:36Z</time></trkpt><trkpt lat="39.83671669251131" lon="9.325771328087919"><ele>799.0</ele><time>2026-05-03T08:12:37Z</time></trkpt><trkpt lat="39.836790503332" lon="9.325692036066648"><ele>799.0</ele><time>2026-05-03T08:12:38Z</time></trkpt><trkpt lat="39.83686645425421" lon="9.325608717303245"><ele>799.0</ele><time>2026-05-03T08:12:39Z</time></trkpt><trkpt lat="39.83693861241381" lon="9.3255161421075"><ele>799.0</ele><time>2026-05-03T08:12:40Z</time></trkpt><trkpt lat="39.837009535434646" lon="9.325424512585524"><ele>798.6</ele><time>2026-05-03T08:12:41Z</time></trkpt><trkpt lat="39.837085094515245" lon="9.325340205221265"><ele>798.2</ele><time>2026-05-03T08:12:42Z</time></trkpt><trkpt lat="39.83716210962317" lon="9.325255995662888"><ele>797.8000000000001</ele><time>2026-05-03T08:12:43Z</time></trkpt><trkpt lat="39.837245968818415" lon="9.325189631037334"><ele>797.4000000000001</ele><time>2026-05-03T08:12:44Z</time></trkpt><trkpt lat="39.83732516575507" lon="9.325111728433399"><ele>797.0</ele><time>2026-05-03T08:12:45Z</time></trkpt><trkpt lat="39.83740175673953" lon="9.325036705229136"><ele>797.0</ele><time>2026-05-03T08:12:46Z</time></trkpt><trkpt lat="39.83748328259683" lon="9.324962320874834"><ele>797.0</ele><time>2026-05-03T08:12:47Z</time></trkpt><trkpt lat="39.837569203519244" lon="9.324898119593403"><ele>797.0</ele><time>2026-05-03T08:12:48Z</time></trkpt><trkpt lat="39.837660925561806" lon="9.324851441137108"><ele>797.0</ele><time>2026-05-03T08:12:49Z</time></trkpt><trkpt lat="39.837754010600065" lon="9.324810669792491"><ele>797.0</ele><time>2026-05-03T08:12:50Z</time></trkpt><trkpt lat="39.83784819490171" lon="9.324767220173793"><ele>794.6</ele><time>2026-05-03T08:12:51Z</time></trkpt><trkpt lat="39.83793813242191" lon="9.324739159063625"><ele>792.2</ele><time>2026-05-03T08:12:52Z</time></trkpt><trkpt lat="39.83802392137392" lon="9.32470049989837"><ele>789.8</ele><time>2026-05-03T08:12:53Z</time></trkpt><trkpt lat="39.83811596449691" lon="9.32467185836654"><ele>787.4</ele><time>2026-05-03T08:12:54Z</time></trkpt><trkpt lat="39.83820598996747" lon="9.324648586441215"><ele>785.0</ele><time>2026-05-03T08:12:55Z</time></trkpt><trkpt lat="39.83829630552318" lon="9.324626582291824"><ele>785.0000000000001</ele><time>2026-05-03T08:12:56Z</time></trkpt><trkpt lat="39.838390923881896" lon="9.324606524458211"><ele>785.0</ele><time>2026-05-03T08:12:57Z</time></trkpt><trkpt lat="39.83848367917376" lon="9.32459518019703"><ele>785.0</ele><time>2026-05-03T08:12:58Z</time></trkpt><trkpt lat="39.838575778421706" lon="9.324582597320584"><ele>785.0</ele><time>2026-05-03T08:12:59Z</time></trkpt><trkpt lat="39.83865632674479" lon="9.32457167045887"><ele>785.0000000000001</ele><time>2026-05-03T08:13:00Z</time></trkpt><trkpt lat="39.83872655100208" lon="9.32452620947894"><ele>785.0</ele><time>2026-05-03T08:13:01Z</time></trkpt><trkpt lat="39.83877726342325" lon="9.324468364335985"><ele>788.0000000000001</ele><time>2026-05-03T08:13:02Z</time></trkpt><trkpt lat="39.83881856840497" lon="9.324385152478685"><ele>791.0</ele><time>2026-05-03T08:13:03Z</time></trkpt><trkpt lat="39.83885868730671" lon="9.32431383324145"><ele>794.0</ele><time>2026-05-03T08:13:04Z</time></trkpt><trkpt lat="39.83889645528456" lon="9.324238923675757"><ele>797.0</ele><time>2026-05-03T08:13:05Z</time></trkpt><trkpt lat="39.8389371706863" lon="9.324174041363426"><ele>800.0000000000001</ele><time>2026-05-03T08:13:06Z</time></trkpt><trkpt lat="39.83901163366579" lon="9.324083192510884"><ele>803.0</ele><time>2026-05-03T08:13:08Z</time></trkpt><trkpt lat="39.83910883839379" lon="9.324049421120854"><ele>803.0000000000001</ele><time>2026-05-03T08:13:10Z</time></trkpt><trkpt lat="39.839234815485476" lon="9.324051899655778"><ele>803.0</ele><time>2026-05-03T08:13:12Z</time></trkpt><trkpt lat="39.83930079717645" lon="9.324070591942982"><ele>803.0</ele><time>2026-05-03T08:13:13Z</time></trkpt><trkpt lat="39.839366629401454" lon="9.324084880564389"><ele>803.0</ele><time>2026-05-03T08:13:14Z</time></trkpt><trkpt lat="39.83943186726181" lon="9.324098694462482"><ele>803.0000000000001</ele><time>2026-05-03T08:13:15Z</time></trkpt><trkpt lat="39.83953235407344" lon="9.32408762414585"><ele>803.0</ele><time>2026-05-03T08:13:17Z</time></trkpt><trkpt lat="39.839623133720174" lon="9.324046431987703"><ele>803.6666666666667</ele><time>2026-05-03T08:13:19Z</time></trkpt><trkpt lat="39.83970106307804" lon="9.324034662740562"><ele>804.3333333333334</ele><time>2026-05-03T08:13:21Z</time></trkpt><trkpt lat="39.83976391011423" lon="9.323983291092897"><ele>805.0</ele><time>2026-05-03T08:13:23Z</time></trkpt><trkpt lat="39.83985509611939" lon="9.323941450276449"><ele>805.6666666666667</ele><time>2026-05-03T08:13:25Z</time></trkpt><trkpt lat="39.83987178504644" lon="9.323815469346819"><ele>806.3333333333334</ele><time>2026-05-03T08:13:27Z</time></trkpt><trkpt lat="39.839857293158644" lon="9.323725593065822"><ele>807.0</ele><time>2026-05-03T08:13:29Z</time></trkpt><trkpt lat="39.839840442463824" lon="9.323618154764617"><ele>807.0000000000001</ele><time>2026-05-03T08:13:32Z</time></trkpt><trkpt lat="39.83982563092066" lon="9.323533980573805"><ele>807.0</ele><time>2026-05-03T08:13:34Z</time></trkpt><trkpt lat="39.83980485874428" lon="9.32344588383174"><ele>807.0</ele><time>2026-05-03T08:13:36Z</time></trkpt><trkpt lat="39.83978636847427" lon="9.323356297460446"><ele>807.0</ele><time>2026-05-03T08:13:38Z</time></trkpt><trkpt lat="39.839764957861796" lon="9.32326575568102"><ele>807.0</ele><time>2026-05-03T08:13:40Z</time></trkpt><trkpt lat="39.83975445765964" lon="9.323177395447939"><ele>807.0000000000001</ele><time>2026-05-03T08:13:42Z</time></trkpt><trkpt lat="39.83974055779995" lon="9.323077771264863"><ele>807.0</ele><time>2026-05-03T08:13:44Z</time></trkpt><trkpt lat="39.839739219997924" lon="9.322984187543819"><ele>806.4000000000001</ele><time>2026-05-03T08:13:46Z</time></trkpt><trkpt lat="39.83976759547687" lon="9.32285521913917"><ele>805.8000000000001</ele><time>2026-05-03T08:13:48Z</time></trkpt><trkpt lat="39.83978258380054" lon="9.322703983714497"><ele>805.2</ele><time>2026-05-03T08:13:50Z</time></trkpt><trkpt lat="39.83977158211253" lon="9.32261911421569"><ele>804.6</ele><time>2026-05-03T08:13:51Z</time></trkpt><trkpt lat="39.83978642193095" lon="9.32247337501896"><ele>804.0</ele><time>2026-05-03T08:13:53Z</time></trkpt><trkpt lat="39.839799296602294" lon="9.322328249552053"><ele>804.0</ele><time>2026-05-03T08:13:55Z</time></trkpt><trkpt lat="39.839816872574936" lon="9.32223897063869"><ele>804.0</ele><time>2026-05-03T08:13:56Z</time></trkpt><trkpt lat="39.83983694981676" lon="9.322152761290546"><ele>804.0</ele><time>2026-05-03T08:13:57Z</time></trkpt><trkpt lat="39.83987585300104" lon="9.322048531806782"><ele>804.0</ele><time>2026-05-03T08:13:59Z</time></trkpt><trkpt lat="39.83992365022375" lon="9.321915937618899"><ele>804.0</ele><time>2026-05-03T08:14:01Z</time></trkpt><trkpt lat="39.83994950149899" lon="9.321839510395746"><ele>804.0</ele><time>2026-05-03T08:14:02Z</time></trkpt><trkpt lat="39.83996681268585" lon="9.321749350167721"><ele>804.0</ele><time>2026-05-03T08:14:03Z</time></trkpt><trkpt lat="39.84000058335516" lon="9.321666153418949"><ele>804.0</ele><time>2026-05-03T08:14:04Z</time></trkpt><trkpt lat="39.84004834752815" lon="9.32160194051097"><ele>804.0</ele><time>2026-05-03T08:14:05Z</time></trkpt><trkpt lat="39.84013559485902" lon="9.321495652797546"><ele>804.0</ele><time>2026-05-03T08:14:07Z</time></trkpt><trkpt lat="39.840183784603646" lon="9.321434781135245"><ele>804.0</ele><time>2026-05-03T08:14:08Z</time></trkpt><trkpt lat="39.840224843796" lon="9.321364111086302"><ele>804.0</ele><time>2026-05-03T08:14:09Z</time></trkpt><trkpt lat="39.840268309246305" lon="9.321227554914143"><ele>804.0</ele><time>2026-05-03T08:14:11Z</time></trkpt><trkpt lat="39.84031328554222" lon="9.321105362411593"><ele>804.0</ele><time>2026-05-03T08:14:13Z</time></trkpt><trkpt lat="39.84035935370246" lon="9.321002734456739"><ele>804.0</ele><time>2026-05-03T08:14:15Z</time></trkpt><trkpt lat="39.84040396544761" lon="9.320906980357748"><ele>804.0</ele><time>2026-05-03T08:14:17Z</time></trkpt><trkpt lat="39.840450726271946" lon="9.320796361300385"><ele>804.0</ele><time>2026-05-03T08:14:19Z</time></trkpt><trkpt lat="39.840506079792256" lon="9.320662968007502"><ele>801.6</ele><time>2026-05-03T08:14:21Z</time></trkpt><trkpt lat="39.84059811714407" lon="9.320561608072852"><ele>799.2</ele><time>2026-05-03T08:14:23Z</time></trkpt><trkpt lat="39.84068924291174" lon="9.320448859111641"><ele>796.8000000000001</ele><time>2026-05-03T08:14:25Z</time></trkpt><trkpt lat="39.840732062969856" lon="9.320367746210238"><ele>794.4000000000001</ele><time>2026-05-03T08:14:26Z</time></trkpt><trkpt lat="39.84076611087013" lon="9.320284558835306"><ele>792.0</ele><time>2026-05-03T08:14:27Z</time></trkpt><trkpt lat="39.84079387751755" lon="9.320210081986943"><ele>792.0</ele><time>2026-05-03T08:14:28Z</time></trkpt><trkpt lat="39.84082207349521" lon="9.320129488547233"><ele>792.0</ele><time>2026-05-03T08:14:29Z</time></trkpt><trkpt lat="39.84084185626511" lon="9.320048743273649"><ele>792.0</ele><time>2026-05-03T08:14:30Z</time></trkpt><trkpt lat="39.84086244951683" lon="9.31996535503232"><ele>792.0</ele><time>2026-05-03T08:14:31Z</time></trkpt><trkpt lat="39.84091111799809" lon="9.319828457850711"><ele>792.0</ele><time>2026-05-03T08:14:33Z</time></trkpt><trkpt lat="39.84095737412632" lon="9.319734246001717"><ele>792.0</ele><time>2026-05-03T08:14:35Z</time></trkpt><trkpt lat="39.84103314484712" lon="9.319684240167414"><ele>795.8</ele><time>2026-05-03T08:14:37Z</time></trkpt><trkpt lat="39.841111603283466" lon="9.319635216869127"><ele>799.6</ele><time>2026-05-03T08:14:39Z</time></trkpt><trkpt lat="39.8411516137836" lon="9.31951293491645"><ele>803.4</ele><time>2026-05-03T08:14:41Z</time></trkpt><trkpt lat="39.84114524189295" lon="9.319377182720745"><ele>807.1999999999999</ele><time>2026-05-03T08:14:43Z</time></trkpt><trkpt lat="39.84114172226762" lon="9.319294498922405"><ele>811.0</ele><time>2026-05-03T08:14:44Z</time></trkpt><trkpt lat="39.84113353065718" lon="9.319133533185292"><ele>811.0</ele><time>2026-05-03T08:14:46Z</time></trkpt><trkpt lat="39.841129680239966" lon="9.319040180515946"><ele>811.0</ele><time>2026-05-03T08:14:47Z</time></trkpt><trkpt lat="39.84112539523652" lon="9.31893880139163"><ele>811.0</ele><time>2026-05-03T08:14:47.999Z</time></trkpt><trkpt lat="39.841127776407696" lon="9.31884555603965"><ele>811.0</ele><time>2026-05-03T08:14:48.999Z</time></trkpt><trkpt lat="39.84113820702814" lon="9.31875849315401"><ele>811.0</ele><time>2026-05-03T08:14:49.999Z</time></trkpt><trkpt lat="39.84115977568083" lon="9.318671175558244"><ele>811.0</ele><time>2026-05-03T08:14:50.999Z</time></trkpt><trkpt lat="39.8411935929436" lon="9.318587188383999"><ele>811.0</ele><time>2026-05-03T08:14:52Z</time></trkpt><trkpt lat="39.84121843644563" lon="9.31850402208261"><ele>808.6666666666666</ele><time>2026-05-03T08:14:53Z</time></trkpt><trkpt lat="39.841241967752566" lon="9.318418091338339"><ele>806.3333333333333</ele><time>2026-05-03T08:14:54Z</time></trkpt><trkpt lat="39.8412762323363" lon="9.318306751186089"><ele>804.0</ele><time>2026-05-03T08:14:55Z</time></trkpt><trkpt lat="39.84133931895292" lon="9.318202752004133"><ele>801.6666666666667</ele><time>2026-05-03T08:14:56Z</time></trkpt><trkpt lat="39.841397404949156" lon="9.318103385478675"><ele>799.3333333333334</ele><time>2026-05-03T08:14:57Z</time></trkpt><trkpt lat="39.84145588471956" lon="9.318017763390637"><ele>797.0</ele><time>2026-05-03T08:14:58Z</time></trkpt><trkpt lat="39.84151682554408" lon="9.317935595771463"><ele>797.6666666666667</ele><time>2026-05-03T08:14:59Z</time></trkpt><trkpt lat="39.841577499459596" lon="9.317864441584913"><ele>798.3333333333334</ele><time>2026-05-03T08:15:00Z</time></trkpt><trkpt lat="39.84163594107026" lon="9.31779389808136"><ele>799.0</ele><time>2026-05-03T08:15:01Z</time></trkpt><trkpt lat="39.84170235942696" lon="9.317727649685562"><ele>799.6666666666667</ele><time>2026-05-03T08:15:02Z</time></trkpt><trkpt lat="39.84178239875962" lon="9.317656061734834"><ele>800.3333333333334</ele><time>2026-05-03T08:15:03Z</time></trkpt><trkpt lat="39.841860444905734" lon="9.317588352958827"><ele>801.0</ele><time>2026-05-03T08:15:04Z</time></trkpt><trkpt lat="39.84193303791296" lon="9.317526323345506"><ele>801.0</ele><time>2026-05-03T08:15:05Z</time></trkpt><trkpt lat="39.84199773637035" lon="9.31746731947864"><ele>801.0</ele><time>2026-05-03T08:15:06Z</time></trkpt><trkpt lat="39.84205120702572" lon="9.317410309439696"><ele>801.0</ele><time>2026-05-03T08:15:07Z</time></trkpt><trkpt lat="39.842081621788275" lon="9.317331840544412"><ele>801.0</ele><time>2026-05-03T08:15:08Z</time></trkpt><trkpt lat="39.842086380964595" lon="9.317245763625497"><ele>801.0</ele><time>2026-05-03T08:15:09Z</time></trkpt><trkpt lat="39.84206519804211" lon="9.317148227922374"><ele>801.0</ele><time>2026-05-03T08:15:10Z</time></trkpt><trkpt lat="39.84203533873717" lon="9.317038750800595"><ele>801.0</ele><time>2026-05-03T08:15:11Z</time></trkpt><trkpt lat="39.84202580753243" lon="9.316907380975339"><ele>799.5999999999999</ele><time>2026-05-03T08:15:12Z</time></trkpt><trkpt lat="39.84199389000952" lon="9.316789358758655"><ele>798.2</ele><time>2026-05-03T08:15:13Z</time></trkpt><trkpt lat="39.84198814396713" lon="9.316645560119555"><ele>796.8</ele><time>2026-05-03T08:15:14Z</time></trkpt><trkpt lat="39.84199462813269" lon="9.31650893307035"><ele>795.4000000000001</ele><time>2026-05-03T08:15:15Z</time></trkpt><trkpt lat="39.84201770943292" lon="9.316383464633079"><ele>794.0</ele><time>2026-05-03T08:15:16Z</time></trkpt><trkpt lat="39.842052057487834" lon="9.316263871193874"><ele>792.2</ele><time>2026-05-03T08:15:17Z</time></trkpt><trkpt lat="39.842086957116514" lon="9.316146174763507"><ele>790.4000000000001</ele><time>2026-05-03T08:15:18Z</time></trkpt><trkpt lat="39.84210804069851" lon="9.316021894421487"><ele>788.6</ele><time>2026-05-03T08:15:19Z</time></trkpt><trkpt lat="39.842076681207566" lon="9.3159000139634"><ele>786.8</ele><time>2026-05-03T08:15:20Z</time></trkpt><trkpt lat="39.8420622972268" lon="9.315777672844497"><ele>785.0</ele><time>2026-05-03T08:15:21Z</time></trkpt><trkpt lat="39.84205823540923" lon="9.31564582506007"><ele>781.75</ele><time>2026-05-03T08:15:22Z</time></trkpt><trkpt lat="39.842068398610046" lon="9.31550915856546"><ele>778.5</ele><time>2026-05-03T08:15:23Z</time></trkpt><trkpt lat="39.84209869997666" lon="9.315369177531272"><ele>775.25</ele><time>2026-05-03T08:15:24Z</time></trkpt><trkpt lat="39.842157919802325" lon="9.315224809884969"><ele>772.0</ele><time>2026-05-03T08:15:25Z</time></trkpt><trkpt lat="39.8422441149289" lon="9.31507193925952"><ele>772.0</ele><time>2026-05-03T08:15:26Z</time></trkpt><trkpt lat="39.84231243232832" lon="9.314932885017692"><ele>772.0</ele><time>2026-05-03T08:15:27Z</time></trkpt><trkpt lat="39.8423671250051" lon="9.314772246815513"><ele>772.0</ele><time>2026-05-03T08:15:28Z</time></trkpt><trkpt lat="39.84243101784717" lon="9.31462131007969"><ele>772.0</ele><time>2026-05-03T08:15:29Z</time></trkpt><trkpt lat="39.84245952563038" lon="9.314441017905056"><ele>769.4000000000001</ele><time>2026-05-03T08:15:30Z</time></trkpt><trkpt lat="39.84247474059764" lon="9.314281283583533"><ele>766.8000000000001</ele><time>2026-05-03T08:15:31Z</time></trkpt><trkpt lat="39.84248401181253" lon="9.314146262445306"><ele>764.2</ele><time>2026-05-03T08:15:32Z</time></trkpt><trkpt lat="39.84249179104562" lon="9.314032970404904"><ele>761.6</ele><time>2026-05-03T08:15:33Z</time></trkpt><trkpt lat="39.84249766947228" lon="9.313945024884875"><ele>759.0</ele><time>2026-05-03T08:15:34Z</time></trkpt><trkpt lat="39.84249615513168" lon="9.313803260964931"><ele>757.25</ele><time>2026-05-03T08:15:35Z</time></trkpt><trkpt lat="39.842521651560844" lon="9.313663743705877"><ele>755.5</ele><time>2026-05-03T08:15:36Z</time></trkpt><trkpt lat="39.84257575918744" lon="9.313517212470389"><ele>753.75</ele><time>2026-05-03T08:15:37Z</time></trkpt><trkpt lat="39.84267015738806" lon="9.3133664799935"><ele>752.0</ele><time>2026-05-03T08:15:38Z</time></trkpt><trkpt lat="39.84276472290784" lon="9.313217751959261"><ele>758.25</ele><time>2026-05-03T08:15:39Z</time></trkpt><trkpt lat="39.842823001006394" lon="9.313057791770605"><ele>764.5</ele><time>2026-05-03T08:15:40Z</time></trkpt><trkpt lat="39.84287434682083" lon="9.312887300666066"><ele>770.75</ele><time>2026-05-03T08:15:41Z</time></trkpt><trkpt lat="39.84292366600477" lon="9.312718563978226"><ele>777.0</ele><time>2026-05-03T08:15:42Z</time></trkpt><trkpt lat="39.84297296321288" lon="9.312554770099071"><ele>777.0</ele><time>2026-05-03T08:15:43Z</time></trkpt><trkpt lat="39.84301113846726" lon="9.31238925818867"><ele>777.0</ele><time>2026-05-03T08:15:44Z</time></trkpt><trkpt lat="39.84303003586041" lon="9.312232803080688"><ele>777.0</ele><time>2026-05-03T08:15:45Z</time></trkpt><trkpt lat="39.843032130568226" lon="9.312070757553977"><ele>777.0</ele><time>2026-05-03T08:15:46Z</time></trkpt><trkpt lat="39.84302647703843" lon="9.31190619720795"><ele>778.0</ele><time>2026-05-03T08:15:47Z</time></trkpt><trkpt lat="39.843010911482565" lon="9.311745827050311"><ele>779.0</ele><time>2026-05-03T08:15:48Z</time></trkpt><trkpt lat="39.84299173311157" lon="9.311601986939484"><ele>780.0</ele><time>2026-05-03T08:15:49Z</time></trkpt><trkpt lat="39.842981122608464" lon="9.311468713959888"><ele>781.0</ele><time>2026-05-03T08:15:50Z</time></trkpt><trkpt lat="39.84293745612358" lon="9.31135877210763"><ele>782.0</ele><time>2026-05-03T08:15:51Z</time></trkpt><trkpt lat="39.84286054950763" lon="9.311271847294371"><ele>782.6</ele><time>2026-05-03T08:15:52Z</time></trkpt><trkpt lat="39.84276636644234" lon="9.311229368611812"><ele>783.2</ele><time>2026-05-03T08:15:53Z</time></trkpt><trkpt lat="39.84267833383112" lon="9.311243420477885"><ele>783.8</ele><time>2026-05-03T08:15:54Z</time></trkpt><trkpt lat="39.84261201728662" lon="9.311320719757683"><ele>784.4</ele><time>2026-05-03T08:15:55Z</time></trkpt><trkpt lat="39.84258046852311" lon="9.311428731113098"><ele>785.0</ele><time>2026-05-03T08:15:56Z</time></trkpt><trkpt lat="39.842588179412225" lon="9.311550964928848"><ele>782.4</ele><time>2026-05-03T08:15:57Z</time></trkpt><trkpt lat="39.842578728111754" lon="9.311668590120574"><ele>779.8</ele><time>2026-05-03T08:15:58Z</time></trkpt><trkpt lat="39.8425713062397" lon="9.311798751862357"><ele>777.2</ele><time>2026-05-03T08:15:59Z</time></trkpt><trkpt lat="39.842555962396304" lon="9.311936262182924"><ele>774.6</ele><time>2026-05-03T08:16:00Z</time></trkpt><trkpt lat="39.842505807422036" lon="9.312077811925922"><ele>772.0</ele><time>2026-05-03T08:16:01Z</time></trkpt><trkpt lat="39.84242988265652" lon="9.312208236421286"><ele>769.2</ele><time>2026-05-03T08:16:02Z</time></trkpt><trkpt lat="39.8423351821813" lon="9.312309658641333"><ele>766.4000000000001</ele><time>2026-05-03T08:16:03Z</time></trkpt><trkpt lat="39.84222529716195" lon="9.312379246123708"><ele>763.5999999999999</ele><time>2026-05-03T08:16:04Z</time></trkpt><trkpt lat="39.84213160000368" lon="9.312382123648021"><ele>760.8</ele><time>2026-05-03T08:16:05Z</time></trkpt><trkpt lat="39.842024401990194" lon="9.312377036671318"><ele>758.0</ele><time>2026-05-03T08:16:06Z</time></trkpt><trkpt lat="39.841921877164964" lon="9.312350282565907"><ele>758.0</ele><time>2026-05-03T08:16:07Z</time></trkpt><trkpt lat="39.84180806486703" lon="9.312355972497766"><ele>758.0</ele><time>2026-05-03T08:16:08Z</time></trkpt><trkpt lat="39.84170270761292" lon="9.312428481694571"><ele>758.0</ele><time>2026-05-03T08:16:09Z</time></trkpt><trkpt lat="39.84162957370458" lon="9.312558890572856"><ele>758.0</ele><time>2026-05-03T08:16:10Z</time></trkpt><trkpt lat="39.841549555286896" lon="9.312680250205553"><ele>757.75</ele><time>2026-05-03T08:16:11Z</time></trkpt><trkpt lat="39.84146908906483" lon="9.312799182647687"><ele>757.5</ele><time>2026-05-03T08:16:12Z</time></trkpt><trkpt lat="39.84138176079098" lon="9.312914201000261"><ele>757.25</ele><time>2026-05-03T08:16:13Z</time></trkpt><trkpt lat="39.84128661235766" lon="9.313013965812381"><ele>757.0</ele><time>2026-05-03T08:16:14Z</time></trkpt><trkpt lat="39.84117852626245" lon="9.313078081331492"><ele>757.0</ele><time>2026-05-03T08:16:15Z</time></trkpt><trkpt lat="39.8410530975832" lon="9.313096262532962"><ele>757.0</ele><time>2026-05-03T08:16:16Z</time></trkpt><trkpt lat="39.84091921111886" lon="9.313102629141635"><ele>757.0</ele><time>2026-05-03T08:16:17Z</time></trkpt><trkpt lat="39.84078633232629" lon="9.313114993444257"><ele>757.0</ele><time>2026-05-03T08:16:18Z</time></trkpt><trkpt lat="39.84065642208798" lon="9.313120239160556"><ele>760.8</ele><time>2026-05-03T08:16:19Z</time></trkpt><trkpt lat="39.840539724132526" lon="9.313127664695278"><ele>764.6</ele><time>2026-05-03T08:16:20Z</time></trkpt><trkpt lat="39.84043339891433" lon="9.31314465106807"><ele>768.4</ele><time>2026-05-03T08:16:21Z</time></trkpt><trkpt lat="39.84033749941856" lon="9.313156275856851"><ele>772.1999999999999</ele><time>2026-05-03T08:16:22Z</time></trkpt><trkpt lat="39.840255884493345" lon="9.313241567436672"><ele>776.0</ele><time>2026-05-03T08:16:23Z</time></trkpt><trkpt lat="39.840203224533006" lon="9.313387728495695"><ele>776.0</ele><time>2026-05-03T08:16:24Z</time></trkpt><trkpt lat="39.84015979809181" lon="9.31352727710038"><ele>776.0</ele><time>2026-05-03T08:16:25Z</time></trkpt><trkpt lat="39.84009318429374" lon="9.313653548004588"><ele>776.0</ele><time>2026-05-03T08:16:26Z</time></trkpt><trkpt lat="39.840011917873355" lon="9.313784057346853"><ele>776.0</ele><time>2026-05-03T08:16:27Z</time></trkpt><trkpt lat="39.83992488692068" lon="9.31393134843211"><ele>778.5</ele><time>2026-05-03T08:16:28Z</time></trkpt><trkpt lat="39.839845744693505" lon="9.314071161619221"><ele>781.0</ele><time>2026-05-03T08:16:29Z</time></trkpt><trkpt lat="39.83976939861248" lon="9.314212148602644"><ele>783.5</ele><time>2026-05-03T08:16:30Z</time></trkpt><trkpt lat="39.839678496805234" lon="9.314351306892748"><ele>786.0</ele><time>2026-05-03T08:16:31Z</time></trkpt><trkpt lat="39.83956855036461" lon="9.314473140349605"><ele>786.0</ele><time>2026-05-03T08:16:32Z</time></trkpt><trkpt lat="39.83945415358979" lon="9.314574121253274"><ele>786.0</ele><time>2026-05-03T08:16:33Z</time></trkpt><trkpt lat="39.83933377015582" lon="9.314673096361727"><ele>786.0</ele><time>2026-05-03T08:16:34Z</time></trkpt><trkpt lat="39.83919955350313" lon="9.314761745936794"><ele>786.0</ele><time>2026-05-03T08:16:35Z</time></trkpt><trkpt lat="39.83905424955001" lon="9.314836883049063"><ele>787.0</ele><time>2026-05-03T08:16:36Z</time></trkpt><trkpt lat="39.838921309284444" lon="9.314901428204573"><ele>788.0</ele><time>2026-05-03T08:16:37Z</time></trkpt><trkpt lat="39.8387954465731" lon="9.314947994613762"><ele>789.0</ele><time>2026-05-03T08:16:38Z</time></trkpt><trkpt lat="39.83865978863712" lon="9.31496313466827"><ele>790.0</ele><time>2026-05-03T08:16:39Z</time></trkpt><trkpt lat="39.83852130175877" lon="9.314953733002227"><ele>794.0</ele><time>2026-05-03T08:16:40Z</time></trkpt><trkpt lat="39.83839391638395" lon="9.314935518583356"><ele>798.0</ele><time>2026-05-03T08:16:41Z</time></trkpt><trkpt lat="39.83827710546653" lon="9.314915302609197"><ele>802.0</ele><time>2026-05-03T08:16:42Z</time></trkpt><trkpt lat="39.8381663030235" lon="9.314881907661437"><ele>806.0</ele><time>2026-05-03T08:16:43Z</time></trkpt><trkpt lat="39.83805283324661" lon="9.314890255450427"><ele>806.0</ele><time>2026-05-03T08:16:44Z</time></trkpt><trkpt lat="39.83795195078025" lon="9.31494251771837"><ele>806.0</ele><time>2026-05-03T08:16:45Z</time></trkpt><trkpt lat="39.8378576940458" lon="9.315031303139634"><ele>806.0</ele><time>2026-05-03T08:16:46Z</time></trkpt><trkpt lat="39.83777095699861" lon="9.315136171170913"><ele>806.0</ele><time>2026-05-03T08:16:47Z</time></trkpt><trkpt lat="39.83768705591631" lon="9.315244074768058"><ele>807.5</ele><time>2026-05-03T08:16:48Z</time></trkpt><trkpt lat="39.837597193296844" lon="9.315311516170013"><ele>809.0</ele><time>2026-05-03T08:16:49Z</time></trkpt><trkpt lat="39.837484389495465" lon="9.315339175098444"><ele>810.5</ele><time>2026-05-03T08:16:50Z</time></trkpt><trkpt lat="39.83735875810674" lon="9.315284266094778"><ele>812.0</ele><time>2026-05-03T08:16:51Z</time></trkpt><trkpt lat="39.83726071365285" lon="9.315207821890265"><ele>812.0</ele><time>2026-05-03T08:16:52Z</time></trkpt><trkpt lat="39.837206606248344" lon="9.315126437474168"><ele>812.0</ele><time>2026-05-03T08:16:53Z</time></trkpt><trkpt lat="39.83717538654529" lon="9.315007707455619"><ele>812.0</ele><time>2026-05-03T08:16:54Z</time></trkpt><trkpt lat="39.83718968309104" lon="9.314879329305693"><ele>812.0</ele><time>2026-05-03T08:16:55Z</time></trkpt><trkpt lat="39.83723664790525" lon="9.314760420486524"><ele>812.0</ele><time>2026-05-03T08:16:56Z</time></trkpt><trkpt lat="39.83730932660604" lon="9.314642049836857"><ele>811.0</ele><time>2026-05-03T08:16:57Z</time></trkpt><trkpt lat="39.83740639379495" lon="9.31450852590212"><ele>810.0</ele><time>2026-05-03T08:16:58Z</time></trkpt><trkpt lat="39.837512077558884" lon="9.314367757104534"><ele>809.0</ele><time>2026-05-03T08:16:59Z</time></trkpt><trkpt lat="39.837616222249444" lon="9.314221318730537"><ele>808.0</ele><time>2026-05-03T08:17:00Z</time></trkpt><trkpt lat="39.83772903998965" lon="9.31407275389451"><ele>811.3333333333333</ele><time>2026-05-03T08:17:01Z</time></trkpt><trkpt lat="39.83784468277107" lon="9.31391179936402"><ele>814.6666666666667</ele><time>2026-05-03T08:17:02Z</time></trkpt><trkpt lat="39.83796244566679" lon="9.313743601379816"><ele>818.0</ele><time>2026-05-03T08:17:03Z</time></trkpt><trkpt lat="39.83808493687776" lon="9.313575108032575"><ele>818.0</ele><time>2026-05-03T08:17:04Z</time></trkpt><trkpt lat="39.838216921968574" lon="9.313420792829083"><ele>818.0</ele><time>2026-05-03T08:17:05Z</time></trkpt><trkpt lat="39.83835074720439" lon="9.313274810874864"><ele>818.0</ele><time>2026-05-03T08:17:06Z</time></trkpt><trkpt lat="39.83848539259999" lon="9.313129658673818"><ele>821.6666666666667</ele><time>2026-05-03T08:17:07Z</time></trkpt><trkpt lat="39.8386144393055" lon="9.312972172648665"><ele>825.3333333333333</ele><time>2026-05-03T08:17:08Z</time></trkpt><trkpt lat="39.83873733663127" lon="9.312784541888176"><ele>829.0</ele><time>2026-05-03T08:17:09Z</time></trkpt><trkpt lat="39.8388548820482" lon="9.312560119676938"><ele>829.0</ele><time>2026-05-03T08:17:10Z</time></trkpt><trkpt lat="39.83900328270344" lon="9.312321029974939"><ele>829.0</ele><time>2026-05-03T08:17:11Z</time></trkpt><trkpt lat="39.83912966598707" lon="9.312063832411432"><ele>827.0</ele><time>2026-05-03T08:17:12Z</time></trkpt><trkpt lat="39.839261517254045" lon="9.311839487864724"><ele>825.0</ele><time>2026-05-03T08:17:13Z</time></trkpt><trkpt lat="39.83938491517054" lon="9.311629306829785"><ele>823.0</ele><time>2026-05-03T08:17:14Z</time></trkpt><trkpt lat="39.839495635201004" lon="9.31140783527096"><ele>829.6666666666666</ele><time>2026-05-03T08:17:15Z</time></trkpt><trkpt lat="39.83958737348816" lon="9.311158234705086"><ele>836.3333333333333</ele><time>2026-05-03T08:17:16Z</time></trkpt><trkpt lat="39.83966914713643" lon="9.310893202043907"><ele>843.0</ele><time>2026-05-03T08:17:17Z</time></trkpt><trkpt lat="39.83974486091066" lon="9.310639969868166"><ele>844.0</ele><time>2026-05-03T08:17:18Z</time></trkpt><trkpt lat="39.839813803870044" lon="9.310423736684148"><ele>845.0</ele><time>2026-05-03T08:17:19Z</time></trkpt><trkpt lat="39.83987576474854" lon="9.310227575350137"><ele>846.0</ele><time>2026-05-03T08:17:20Z</time></trkpt><trkpt lat="39.83992107528619" lon="9.310059859834501"><ele>846.0</ele><time>2026-05-03T08:17:21Z</time></trkpt><trkpt lat="39.83995906693268" lon="9.309908046743143"><ele>846.0</ele><time>2026-05-03T08:17:22Z</time></trkpt><trkpt lat="39.83991507989941" lon="9.30974185301358"><ele>846.0</ele><time>2026-05-03T08:17:23Z</time></trkpt><trkpt lat="39.83983327864425" lon="9.309594923074894"><ele>846.0</ele><time>2026-05-03T08:17:24Z</time></trkpt><trkpt lat="39.83974545808485" lon="9.309455876356331"><ele>851.0</ele><time>2026-05-03T08:17:25Z</time></trkpt><trkpt lat="39.83963350953797" lon="9.30930690537324"><ele>856.0</ele><time>2026-05-03T08:17:26Z</time></trkpt><trkpt lat="39.839506847330505" lon="9.309159851129314"><ele>861.0</ele><time>2026-05-03T08:17:27Z</time></trkpt><trkpt lat="39.83940223743021" lon="9.30899201208324"><ele>863.6666666666667</ele><time>2026-05-03T08:17:28Z</time></trkpt><trkpt lat="39.83926901615514" lon="9.308851246046947"><ele>866.3333333333334</ele><time>2026-05-03T08:17:29Z</time></trkpt><trkpt lat="39.83912603667829" lon="9.308740915414873"><ele>869.0</ele><time>2026-05-03T08:17:30Z</time></trkpt><trkpt lat="39.83898498729889" lon="9.308660195150834"><ele>869.0</ele><time>2026-05-03T08:17:31Z</time></trkpt><trkpt lat="39.838842059701534" lon="9.30860289082266"><ele>869.0</ele><time>2026-05-03T08:17:32Z</time></trkpt><trkpt lat="39.838690947944336" lon="9.30858789681994"><ele>869.0</ele><time>2026-05-03T08:17:33Z</time></trkpt><trkpt lat="39.8385370522624" lon="9.30862963366264"><ele>867.0</ele><time>2026-05-03T08:17:34Z</time></trkpt><trkpt lat="39.83841113463241" lon="9.3086667579294"><ele>865.0</ele><time>2026-05-03T08:17:35Z</time></trkpt><trkpt lat="39.83829324435879" lon="9.308683934754043"><ele>863.0</ele><time>2026-05-03T08:17:36Z</time></trkpt><trkpt lat="39.838182971330205" lon="9.30861536975736"><ele>861.0</ele><time>2026-05-03T08:17:37Z</time></trkpt><trkpt lat="39.83807040417797" lon="9.308542236396475"><ele>861.0</ele><time>2026-05-03T08:17:38Z</time></trkpt><trkpt lat="39.837976689913965" lon="9.308403360371363"><ele>861.0</ele><time>2026-05-03T08:17:39Z</time></trkpt><trkpt lat="39.837895418585106" lon="9.308250399279881"><ele>861.0</ele><time>2026-05-03T08:17:40Z</time></trkpt><trkpt lat="39.83784771226875" lon="9.30809668114992"><ele>861.0</ele><time>2026-05-03T08:17:41Z</time></trkpt><trkpt lat="39.837829289822785" lon="9.307944955932012"><ele>863.0</ele><time>2026-05-03T08:17:42Z</time></trkpt><trkpt lat="39.83785301290879" lon="9.307787809445957"><ele>865.0</ele><time>2026-05-03T08:17:43Z</time></trkpt><trkpt lat="39.8379112235699" lon="9.307628618482063"><ele>867.0</ele><time>2026-05-03T08:17:44Z</time></trkpt><trkpt lat="39.83796882294562" lon="9.307450946645547"><ele>869.0</ele><time>2026-05-03T08:17:45Z</time></trkpt><trkpt lat="39.83804908685583" lon="9.307257167422648"><ele>867.25</ele><time>2026-05-03T08:17:46Z</time></trkpt><trkpt lat="39.8381255291345" lon="9.307059501137838"><ele>865.5</ele><time>2026-05-03T08:17:47Z</time></trkpt><trkpt lat="39.83819591896134" lon="9.306883753758267"><ele>863.75</ele><time>2026-05-03T08:17:48Z</time></trkpt><trkpt lat="39.83825450607336" lon="9.306757668067243"><ele>862.0</ele><time>2026-05-03T08:17:49Z</time></trkpt><trkpt lat="39.838318897323305" lon="9.306667230995918"><ele>862.0</ele><time>2026-05-03T08:17:50Z</time></trkpt><trkpt lat="39.83840436491605" lon="9.306604128785452"><ele>862.0</ele><time>2026-05-03T08:17:51Z</time></trkpt><trkpt lat="39.83849832703848" lon="9.30655143854503"><ele>862.0</ele><time>2026-05-03T08:17:52Z</time></trkpt><trkpt lat="39.83857384813698" lon="9.306462628773751"><ele>862.0</ele><time>2026-05-03T08:17:53Z</time></trkpt><trkpt lat="39.83862351045453" lon="9.30633986629378"><ele>862.0</ele><time>2026-05-03T08:17:54Z</time></trkpt><trkpt lat="39.838658571754046" lon="9.306167036736985"><ele>867.3333333333333</ele><time>2026-05-03T08:17:55Z</time></trkpt><trkpt lat="39.838677617085374" lon="9.30597548721772"><ele>872.6666666666667</ele><time>2026-05-03T08:17:56Z</time></trkpt><trkpt lat="39.838708394745034" lon="9.305766523979178"><ele>878.0</ele><time>2026-05-03T08:17:57Z</time></trkpt><trkpt lat="39.83874068294213" lon="9.305552553331594"><ele>878.0</ele><time>2026-05-03T08:17:58Z</time></trkpt><trkpt lat="39.83877629845975" lon="9.305334632568464"><ele>878.0</ele><time>2026-05-03T08:17:59Z</time></trkpt><trkpt lat="39.83880977859355" lon="9.305107220451564"><ele>878.0</ele><time>2026-05-03T08:18:00Z</time></trkpt><trkpt lat="39.838843997907134" lon="9.304874811416262"><ele>877.3333333333334</ele><time>2026-05-03T08:18:01Z</time></trkpt><trkpt lat="39.83887276393659" lon="9.30465941774642"><ele>876.6666666666667</ele><time>2026-05-03T08:18:02Z</time></trkpt><trkpt lat="39.838916066059994" lon="9.30444376383151"><ele>876.0</ele><time>2026-05-03T08:18:03Z</time></trkpt><trkpt lat="39.838989355681704" lon="9.304232644033599"><ele>876.0</ele><time>2026-05-03T08:18:04Z</time></trkpt><trkpt lat="39.83906806032158" lon="9.304020703277779"><ele>876.0</ele><time>2026-05-03T08:18:05Z</time></trkpt><trkpt lat="39.83913351803031" lon="9.303811931438428"><ele>876.0</ele><time>2026-05-03T08:18:06Z</time></trkpt><trkpt lat="39.839180439145615" lon="9.303601258242606"><ele>876.0</ele><time>2026-05-03T08:18:07Z</time></trkpt><trkpt lat="39.839198704897846" lon="9.303387408167795"><ele>876.0</ele><time>2026-05-03T08:18:08Z</time></trkpt><trkpt lat="39.839201996807596" lon="9.303187581345972"><ele>876.0</ele><time>2026-05-03T08:18:09Z</time></trkpt><trkpt lat="39.83920827231258" lon="9.303001329191238"><ele>876.0</ele><time>2026-05-03T08:18:10Z</time></trkpt><trkpt lat="39.83924909510802" lon="9.302832882308998"><ele>875.9999999999999</ele><time>2026-05-03T08:18:11Z</time></trkpt><trkpt lat="39.839299723388145" lon="9.302688095733615"><ele>875.9999999999999</ele><time>2026-05-03T08:18:12Z</time></trkpt><trkpt lat="39.839316702355944" lon="9.302561201768448"><ele>876.0</ele><time>2026-05-03T08:18:13Z</time></trkpt><trkpt lat="39.83930064002082" lon="9.302448625383512"><ele>876.0</ele><time>2026-05-03T08:18:14Z</time></trkpt><trkpt lat="39.839262991890244" lon="9.302355705875387"><ele>876.0</ele><time>2026-05-03T08:18:15Z</time></trkpt><trkpt lat="39.83917979442542" lon="9.302315727446286"><ele>875.9999999999999</ele><time>2026-05-03T08:18:16Z</time></trkpt><trkpt lat="39.839060331837125" lon="9.302319713185089"><ele>875.9999999999999</ele><time>2026-05-03T08:18:17Z</time></trkpt><trkpt lat="39.838941673941285" lon="9.302345508556373"><ele>876.0</ele><time>2026-05-03T08:18:18Z</time></trkpt><trkpt lat="39.838828710964115" lon="9.302301478939894"><ele>876.0</ele><time>2026-05-03T08:18:19Z</time></trkpt><trkpt lat="39.83872601744232" lon="9.30220985433572"><ele>880.0</ele><time>2026-05-03T08:18:20Z</time></trkpt><trkpt lat="39.83862335405082" lon="9.30215207599024"><ele>884.0</ele><time>2026-05-03T08:18:21Z</time></trkpt><trkpt lat="39.8385117287504" lon="9.302165717338982"><ele>888.0</ele><time>2026-05-03T08:18:22Z</time></trkpt><trkpt lat="39.83839558871552" lon="9.302210663749891"><ele>892.0</ele><time>2026-05-03T08:18:23Z</time></trkpt><trkpt lat="39.83825197304458" lon="9.30223816046117"><ele>892.0</ele><time>2026-05-03T08:18:24Z</time></trkpt><trkpt lat="39.83810981090846" lon="9.302231749211755"><ele>892.0</ele><time>2026-05-03T08:18:25Z</time></trkpt><trkpt lat="39.837967597573424" lon="9.302189739580122"><ele>892.0</ele><time>2026-05-03T08:18:26Z</time></trkpt><trkpt lat="39.83782842292863" lon="9.302109579988125"><ele>892.0</ele><time>2026-05-03T08:18:27Z</time></trkpt><trkpt lat="39.837700768603675" lon="9.301991251799185"><ele>887.6666666666666</ele><time>2026-05-03T08:18:28Z</time></trkpt><trkpt lat="39.837576339309734" lon="9.30184383603382"><ele>883.3333333333333</ele><time>2026-05-03T08:18:29Z</time></trkpt><trkpt lat="39.83746503860612" lon="9.301700691572288"><ele>879.0</ele><time>2026-05-03T08:18:30Z</time></trkpt><trkpt lat="39.837377654688254" lon="9.301561815712327"><ele>881.25</ele><time>2026-05-03T08:18:31Z</time></trkpt><trkpt lat="39.83732198146935" lon="9.301401002209662"><ele>883.5</ele><time>2026-05-03T08:18:32Z</time></trkpt><trkpt lat="39.83729212030203" lon="9.301213492302905"><ele>885.75</ele><time>2026-05-03T08:18:33Z</time></trkpt><trkpt lat="39.83725185443708" lon="9.301006022780665"><ele>888.0</ele><time>2026-05-03T08:18:34Z</time></trkpt><trkpt lat="39.83720331324736" lon="9.300814068738505"><ele>888.0</ele><time>2026-05-03T08:18:35Z</time></trkpt><trkpt lat="39.837172452715" lon="9.300655588284782"><ele>888.0</ele><time>2026-05-03T08:18:36Z</time></trkpt><trkpt lat="39.837168082339396" lon="9.30050545632797"><ele>888.0</ele><time>2026-05-03T08:18:37Z</time></trkpt><trkpt lat="39.83721151721091" lon="9.300361660616854"><ele>888.0</ele><time>2026-05-03T08:18:38Z</time></trkpt><trkpt lat="39.8372704517753" lon="9.300228043827005"><ele>889.75</ele><time>2026-05-03T08:18:39Z</time></trkpt><trkpt lat="39.83730832370003" lon="9.300100316838828"><ele>891.5</ele><time>2026-05-03T08:18:40Z</time></trkpt><trkpt lat="39.83728841715942" lon="9.299971180150022"><ele>893.25</ele><time>2026-05-03T08:18:41Z</time></trkpt><trkpt lat="39.837244021853536" lon="9.299837279264484"><ele>895.0</ele><time>2026-05-03T08:18:42Z</time></trkpt><trkpt lat="39.83713809342198" lon="9.299697709965733"><ele>897.75</ele><time>2026-05-03T08:18:43Z</time></trkpt><trkpt lat="39.83701814279163" lon="9.299603802894456"><ele>900.5</ele><time>2026-05-03T08:18:44Z</time></trkpt><trkpt lat="39.836939154404114" lon="9.299474307086587"><ele>903.25</ele><time>2026-05-03T08:18:45Z</time></trkpt><trkpt lat="39.8368829788728" lon="9.299321576002589"><ele>906.0</ele><time>2026-05-03T08:18:46Z</time></trkpt><trkpt lat="39.836876704507304" lon="9.29916759069505"><ele>906.0</ele><time>2026-05-03T08:18:47Z</time></trkpt><trkpt lat="39.83685137093303" lon="9.299033811884385"><ele>906.0</ele><time>2026-05-03T08:18:48Z</time></trkpt><trkpt lat="39.83677610758431" lon="9.298926030801153"><ele>906.0</ele><time>2026-05-03T08:18:49Z</time></trkpt><trkpt lat="39.83666540922055" lon="9.298859009992993"><ele>906.0</ele><time>2026-05-03T08:18:50Z</time></trkpt><trkpt lat="39.836524405090294" lon="9.298796410457497"><ele>905.0</ele><time>2026-05-03T08:18:51Z</time></trkpt><trkpt lat="39.836382519283795" lon="9.29877007962968"><ele>904.0</ele><time>2026-05-03T08:18:52Z</time></trkpt><trkpt lat="39.83624340069702" lon="9.298748067577428"><ele>903.0</ele><time>2026-05-03T08:18:53Z</time></trkpt><trkpt lat="39.83610228169134" lon="9.29871265551501"><ele>902.0</ele><time>2026-05-03T08:18:54Z</time></trkpt><trkpt lat="39.8359810768163" lon="9.298632287735948"><ele>901.25</ele><time>2026-05-03T08:18:55Z</time></trkpt><trkpt lat="39.835852113483895" lon="9.298602508183034"><ele>900.5</ele><time>2026-05-03T08:18:56Z</time></trkpt><trkpt lat="39.835710490600285" lon="9.298655107931655"><ele>899.75</ele><time>2026-05-03T08:18:57Z</time></trkpt><trkpt lat="39.835578190944375" lon="9.298733600634577"><ele>899.0</ele><time>2026-05-03T08:18:58Z</time></trkpt><trkpt lat="39.83544087878238" lon="9.298817339899383"><ele>899.0</ele><time>2026-05-03T08:18:59Z</time></trkpt><trkpt lat="39.835302562409424" lon="9.29889886828232"><ele>899.0</ele><time>2026-05-03T08:19:00Z</time></trkpt><trkpt lat="39.83518399799036" lon="9.298972249253886"><ele>899.0</ele><time>2026-05-03T08:19:01Z</time></trkpt><trkpt lat="39.83503929249065" lon="9.298973142773109"><ele>899.0</ele><time>2026-05-03T08:19:02Z</time></trkpt><trkpt lat="39.83489129577817" lon="9.298949803440857"><ele>903.3333333333334</ele><time>2026-05-03T08:19:03Z</time></trkpt><trkpt lat="39.83472297629352" lon="9.298905177816305"><ele>907.6666666666667</ele><time>2026-05-03T08:19:04Z</time></trkpt><trkpt lat="39.83454158473691" lon="9.298897678820623"><ele>912.0</ele><time>2026-05-03T08:19:05Z</time></trkpt><trkpt lat="39.83436535001708" lon="9.298874098654444"><ele>912.25</ele><time>2026-05-03T08:19:06Z</time></trkpt><trkpt lat="39.834209826884944" lon="9.298843981818516"><ele>912.5</ele><time>2026-05-03T08:19:07Z</time></trkpt><trkpt lat="39.834076916203514" lon="9.298791773146304"><ele>912.75</ele><time>2026-05-03T08:19:08Z</time></trkpt><trkpt lat="39.833942068901976" lon="9.298785007953954"><ele>913.0</ele><time>2026-05-03T08:19:09Z</time></trkpt><trkpt lat="39.83382640922933" lon="9.298853694129159"><ele>906.25</ele><time>2026-05-03T08:19:10Z</time></trkpt><trkpt lat="39.83374844975515" lon="9.298953501864835"><ele>899.5</ele><time>2026-05-03T08:19:11Z</time></trkpt><trkpt lat="39.83369521595974" lon="9.299132101529246"><ele>892.75</ele><time>2026-05-03T08:19:12Z</time></trkpt><trkpt lat="39.8336107358155" lon="9.299243123198218"><ele>886.0</ele><time>2026-05-03T08:19:13Z</time></trkpt><trkpt lat="39.83350035509729" lon="9.29932529020206"><ele>889.75</ele><time>2026-05-03T08:19:14Z</time></trkpt><trkpt lat="39.83336585215192" lon="9.299366792641344"><ele>893.5</ele><time>2026-05-03T08:19:15Z</time></trkpt><trkpt lat="39.83321205449186" lon="9.299348895559186"><ele>897.25</ele><time>2026-05-03T08:19:16Z</time></trkpt><trkpt lat="39.83306112199782" lon="9.29932412215967"><ele>901.0</ele><time>2026-05-03T08:19:17Z</time></trkpt><trkpt lat="39.832893792536666" lon="9.299284856661142"><ele>901.0</ele><time>2026-05-03T08:19:18Z</time></trkpt><trkpt lat="39.83272050927411" lon="9.299250466631754"><ele>901.0</ele><time>2026-05-03T08:19:19Z</time></trkpt><trkpt lat="39.83254128762446" lon="9.299250459657657"><ele>901.0</ele><time>2026-05-03T08:19:20Z</time></trkpt><trkpt lat="39.83237095605675" lon="9.299259328240488"><ele>901.6666666666666</ele><time>2026-05-03T08:19:21Z</time></trkpt><trkpt lat="39.83219265726596" lon="9.299252750662244"><ele>902.3333333333333</ele><time>2026-05-03T08:19:22Z</time></trkpt><trkpt lat="39.8320158519242" lon="9.299193585899548"><ele>903.0</ele><time>2026-05-03T08:19:23Z</time></trkpt><trkpt lat="39.83184651235721" lon="9.299140124819955"><ele>901.3333333333333</ele><time>2026-05-03T08:19:24Z</time></trkpt><trkpt lat="39.83168922586821" lon="9.299080190663084"><ele>899.6666666666666</ele><time>2026-05-03T08:19:25Z</time></trkpt><trkpt lat="39.831531983847476" lon="9.298989428013583"><ele>898.0</ele><time>2026-05-03T08:19:26Z</time></trkpt><trkpt lat="39.83138410153303" lon="9.298881907887667"><ele>902.6666666666666</ele><time>2026-05-03T08:19:27Z</time></trkpt><trkpt lat="39.83123941039287" lon="9.298783297789553"><ele>907.3333333333333</ele><time>2026-05-03T08:19:28Z</time></trkpt><trkpt lat="39.83109820257344" lon="9.298707923358233"><ele>912.0</ele><time>2026-05-03T08:19:29Z</time></trkpt><trkpt lat="39.83096459308302" lon="9.298643311570263"><ele>912.0</ele><time>2026-05-03T08:19:30Z</time></trkpt><trkpt lat="39.83082182562839" lon="9.298661757049606"><ele>912.0</ele><time>2026-05-03T08:19:31Z</time></trkpt><trkpt lat="39.83067015007507" lon="9.298678487112372"><ele>912.0</ele><time>2026-05-03T08:19:32Z</time></trkpt><trkpt lat="39.83052804709442" lon="9.298727846126384"><ele>912.0</ele><time>2026-05-03T08:19:33Z</time></trkpt><trkpt lat="39.83039926406907" lon="9.298767645667677"><ele>912.0</ele><time>2026-05-03T08:19:34Z</time></trkpt><trkpt lat="39.830270026875944" lon="9.298754924931524"><ele>912.0</ele><time>2026-05-03T08:19:35Z</time></trkpt><trkpt lat="39.83014985007517" lon="9.298716286487231"><ele>912.0</ele><time>2026-05-03T08:19:36Z</time></trkpt><trkpt lat="39.83003130528784" lon="9.29864085496572"><ele>912.0</ele><time>2026-05-03T08:19:37Z</time></trkpt><trkpt lat="39.829915818039865" lon="9.298540751513862"><ele>910.5</ele><time>2026-05-03T08:19:38Z</time></trkpt><trkpt lat="39.829817685737716" lon="9.298423995945603"><ele>909.0</ele><time>2026-05-03T08:19:39Z</time></trkpt><trkpt lat="39.8297496725224" lon="9.298280774403802"><ele>907.5</ele><time>2026-05-03T08:19:40Z</time></trkpt><trkpt lat="39.82972705665687" lon="9.298131104238866"><ele>906.0</ele><time>2026-05-03T08:19:41Z</time></trkpt><trkpt lat="39.82974525225728" lon="9.297990022747493"><ele>906.0</ele><time>2026-05-03T08:19:42Z</time></trkpt><trkpt lat="39.82978629632334" lon="9.297867196296512"><ele>905.9999999999999</ele><time>2026-05-03T08:19:43Z</time></trkpt><trkpt lat="39.82982482809237" lon="9.297740546274392"><ele>905.9999999999999</ele><time>2026-05-03T08:19:44Z</time></trkpt><trkpt lat="39.82985121324157" lon="9.29758888220313"><ele>906.0</ele><time>2026-05-03T08:19:45Z</time></trkpt><trkpt lat="39.82986355890995" lon="9.297440371051934"><ele>906.0</ele><time>2026-05-03T08:19:46Z</time></trkpt><trkpt lat="39.829862463619335" lon="9.297300024589731"><ele>907.75</ele><time>2026-05-03T08:19:47Z</time></trkpt><trkpt lat="39.82983283107733" lon="9.297174685431921"><ele>909.5</ele><time>2026-05-03T08:19:48Z</time></trkpt><trkpt lat="39.82976657490671" lon="9.297068965664256"><ele>911.25</ele><time>2026-05-03T08:19:49Z</time></trkpt><trkpt lat="39.82966833302446" lon="9.296975616240069"><ele>913.0</ele><time>2026-05-03T08:19:50Z</time></trkpt><trkpt lat="39.829585084284375" lon="9.296855661430879"><ele>913.0</ele><time>2026-05-03T08:19:51Z</time></trkpt><trkpt lat="39.82948418499533" lon="9.296755071296596"><ele>913.0</ele><time>2026-05-03T08:19:52Z</time></trkpt><trkpt lat="39.829399884634896" lon="9.296634224242723"><ele>913.0</ele><time>2026-05-03T08:19:53Z</time></trkpt><trkpt lat="39.82930744414509" lon="9.296521322048935"><ele>913.0</ele><time>2026-05-03T08:19:54Z</time></trkpt><trkpt lat="39.8292048984222" lon="9.296431183737408"><ele>909.5</ele><time>2026-05-03T08:19:55Z</time></trkpt><trkpt lat="39.829102638837504" lon="9.29634785661116"><ele>906.0</ele><time>2026-05-03T08:19:56Z</time></trkpt><trkpt lat="39.829010118338836" lon="9.296242111830228"><ele>902.5</ele><time>2026-05-03T08:19:57Z</time></trkpt><trkpt lat="39.82892839114987" lon="9.296100084807412"><ele>899.0</ele><time>2026-05-03T08:19:58Z</time></trkpt><trkpt lat="39.828855275016046" lon="9.295931546847331"><ele>899.0</ele><time>2026-05-03T08:19:59Z</time></trkpt><trkpt lat="39.82877473101838" lon="9.295758944180392"><ele>899.0</ele><time>2026-05-03T08:20:00Z</time></trkpt><trkpt lat="39.82866718124279" lon="9.295600434362148"><ele>899.0</ele><time>2026-05-03T08:20:01Z</time></trkpt><trkpt lat="39.828542909935905" lon="9.29544568389597"><ele>894.75</ele><time>2026-05-03T08:20:02Z</time></trkpt><trkpt lat="39.828419913250706" lon="9.29531761053498"><ele>890.5</ele><time>2026-05-03T08:20:03Z</time></trkpt><trkpt lat="39.82831419625981" lon="9.295228529400271"><ele>886.25</ele><time>2026-05-03T08:20:04Z</time></trkpt><trkpt lat="39.82823209384018" lon="9.295094232336377"><ele>882.0</ele><time>2026-05-03T08:20:05Z</time></trkpt><trkpt lat="39.828164528250355" lon="9.294951376078785"><ele>882.0</ele><time>2026-05-03T08:20:06Z</time></trkpt><trkpt lat="39.8281290916408" lon="9.294789984246997"><ele>882.0</ele><time>2026-05-03T08:20:07Z</time></trkpt><trkpt lat="39.82811624093316" lon="9.29462611768702"><ele>882.0</ele><time>2026-05-03T08:20:08Z</time></trkpt><trkpt lat="39.82813057087651" lon="9.294474900609627"><ele>882.0</ele><time>2026-05-03T08:20:09Z</time></trkpt><trkpt lat="39.82817774364422" lon="9.294345322884494"><ele>880.75</ele><time>2026-05-03T08:20:10Z</time></trkpt><trkpt lat="39.8282653406823" lon="9.294235842699358"><ele>879.5</ele><time>2026-05-03T08:20:11Z</time></trkpt><trkpt lat="39.828379970621235" lon="9.294122283816556"><ele>878.25</ele><time>2026-05-03T08:20:12Z</time></trkpt><trkpt lat="39.82848805424338" lon="9.293999616582362"><ele>877.0</ele><time>2026-05-03T08:20:13Z</time></trkpt><trkpt lat="39.82857014050985" lon="9.293865038535154"><ele>880.75</ele><time>2026-05-03T08:20:14Z</time></trkpt><trkpt lat="39.828620651479056" lon="9.293717161863096"><ele>884.5</ele><time>2026-05-03T08:20:15Z</time></trkpt><trkpt lat="39.828637929664225" lon="9.293561564136178"><ele>888.25</ele><time>2026-05-03T08:20:16Z</time></trkpt><trkpt lat="39.828623131279144" lon="9.293392443908646"><ele>892.0</ele><time>2026-05-03T08:20:17Z</time></trkpt><trkpt lat="39.82858587032047" lon="9.293229636101271"><ele>889.5</ele><time>2026-05-03T08:20:18Z</time></trkpt><trkpt lat="39.82851843443056" lon="9.293082626232795"><ele>887.0</ele><time>2026-05-03T08:20:19Z</time></trkpt><trkpt lat="39.828422596805524" lon="9.292965021134858"><ele>884.5</ele><time>2026-05-03T08:20:20Z</time></trkpt><trkpt lat="39.82831050817271" lon="9.292849963192126"><ele>882.0</ele><time>2026-05-03T08:20:21Z</time></trkpt><trkpt lat="39.828174982785285" lon="9.292778242070924"><ele>880.0</ele><time>2026-05-03T08:20:22Z</time></trkpt><trkpt lat="39.82802113978084" lon="9.292720668878477"><ele>878.0</ele><time>2026-05-03T08:20:23Z</time></trkpt><trkpt lat="39.82785969193448" lon="9.292686223290158"><ele>876.0</ele><time>2026-05-03T08:20:24Z</time></trkpt><trkpt lat="39.82768906131998" lon="9.292700392255496"><ele>874.0</ele><time>2026-05-03T08:20:25Z</time></trkpt><trkpt lat="39.827524989986294" lon="9.292696881583874"><ele>872.0</ele><time>2026-05-03T08:20:26Z</time></trkpt><trkpt lat="39.82735505035795" lon="9.292699833967701"><ele>870.0</ele><time>2026-05-03T08:20:27Z</time></trkpt><trkpt lat="39.82718770952552" lon="9.292699115553503"><ele>870.0</ele><time>2026-05-03T08:20:28Z</time></trkpt><trkpt lat="39.827029381788165" lon="9.29269549521079"><ele>870.0</ele><time>2026-05-03T08:20:29Z</time></trkpt><trkpt lat="39.82687320637845" lon="9.292684650509036"><ele>870.0</ele><time>2026-05-03T08:20:30Z</time></trkpt><trkpt lat="39.826716979852996" lon="9.292658287003954"><ele>869.75</ele><time>2026-05-03T08:20:31Z</time></trkpt><trkpt lat="39.82657394114422" lon="9.292600834394253"><ele>869.5</ele><time>2026-05-03T08:20:32Z</time></trkpt><trkpt lat="39.82644190914495" lon="9.29251460722767"><ele>869.25</ele><time>2026-05-03T08:20:33Z</time></trkpt><trkpt lat="39.82632400025129" lon="9.29238987771181"><ele>869.0</ele><time>2026-05-03T08:20:34Z</time></trkpt><trkpt lat="39.82620986193853" lon="9.29223308168985"><ele>869.0</ele><time>2026-05-03T08:20:35Z</time></trkpt><trkpt lat="39.82611146136725" lon="9.292053072918806"><ele>869.0</ele><time>2026-05-03T08:20:36Z</time></trkpt><trkpt lat="39.82601147131724" lon="9.29189273262114"><ele>869.0</ele><time>2026-05-03T08:20:37Z</time></trkpt><trkpt lat="39.825901836406764" lon="9.291723955492511"><ele>867.3333333333334</ele><time>2026-05-03T08:20:38Z</time></trkpt><trkpt lat="39.82580940183096" lon="9.291540833176906"><ele>865.6666666666667</ele><time>2026-05-03T08:20:39Z</time></trkpt><trkpt lat="39.82571628665665" lon="9.291357870470913"><ele>864.0</ele><time>2026-05-03T08:20:40Z</time></trkpt><trkpt lat="39.82562113613469" lon="9.291181799049108"><ele>864.0</ele><time>2026-05-03T08:20:41Z</time></trkpt><trkpt lat="39.82552530589047" lon="9.291009467723441"><ele>864.0</ele><time>2026-05-03T08:20:42Z</time></trkpt><trkpt lat="39.82543347438229" lon="9.290839329619846"><ele>864.0</ele><time>2026-05-03T08:20:43Z</time></trkpt><trkpt lat="39.825359103532506" lon="9.290662976808958"><ele>862.3333333333333</ele><time>2026-05-03T08:20:44Z</time></trkpt><trkpt lat="39.82530757102037" lon="9.29046939979728"><ele>860.6666666666666</ele><time>2026-05-03T08:20:45Z</time></trkpt><trkpt lat="39.82527100741733" lon="9.290266177731635"><ele>859.0</ele><time>2026-05-03T08:20:46Z</time></trkpt><trkpt lat="39.82522935868764" lon="9.290063651133913"><ele>859.0</ele><time>2026-05-03T08:20:47Z</time></trkpt><trkpt lat="39.82517125113649" lon="9.289870423035715"><ele>859.0</ele><time>2026-05-03T08:20:48Z</time></trkpt><trkpt lat="39.82512061341778" lon="9.289678471905964"><ele>859.0</ele><time>2026-05-03T08:20:49Z</time></trkpt><trkpt lat="39.82504935845944" lon="9.2895083860264"><ele>855.75</ele><time>2026-05-03T08:20:50Z</time></trkpt><trkpt lat="39.82501661027184" lon="9.289337029394616"><ele>852.5</ele><time>2026-05-03T08:20:51Z</time></trkpt><trkpt lat="39.82501118815514" lon="9.28917640171389"><ele>849.25</ele><time>2026-05-03T08:20:52Z</time></trkpt><trkpt lat="39.825028009006004" lon="9.289022861546263"><ele>846.0</ele><time>2026-05-03T08:20:53Z</time></trkpt><trkpt lat="39.82507623879781" lon="9.28889764461306"><ele>842.25</ele><time>2026-05-03T08:20:54Z</time></trkpt><trkpt lat="39.825147908372585" lon="9.288800010719141"><ele>838.5</ele><time>2026-05-03T08:20:55Z</time></trkpt><trkpt lat="39.825241807503254" lon="9.288737427239532"><ele>834.75</ele><time>2026-05-03T08:20:56Z</time></trkpt><trkpt lat="39.82535955411207" lon="9.288700913423604"><ele>831.0</ele><time>2026-05-03T08:20:57Z</time></trkpt><trkpt lat="39.82548949314132" lon="9.288676113827702"><ele>831.0</ele><time>2026-05-03T08:20:58Z</time></trkpt><trkpt lat="39.82562929743807" lon="9.288643416880618"><ele>831.0</ele><time>2026-05-03T08:20:59Z</time></trkpt><trkpt lat="39.825770124616376" lon="9.288625299920941"><ele>831.0</ele><time>2026-05-03T08:21:00Z</time></trkpt><trkpt lat="39.82590784461839" lon="9.288630907875135"><ele>831.0</ele><time>2026-05-03T08:21:01Z</time></trkpt><trkpt lat="39.82604617423035" lon="9.288663990831024"><ele>831.25</ele><time>2026-05-03T08:21:02Z</time></trkpt><trkpt lat="39.82618236156311" lon="9.288738519261914"><ele>831.5</ele><time>2026-05-03T08:21:03Z</time></trkpt><trkpt lat="39.82631054703971" lon="9.28883548595707"><ele>831.75</ele><time>2026-05-03T08:21:04Z</time></trkpt><trkpt lat="39.82643237352843" lon="9.288955758491499"><ele>832.0</ele><time>2026-05-03T08:21:05Z</time></trkpt><trkpt lat="39.826540852127664" lon="9.289104687545887"><ele>832.0</ele><time>2026-05-03T08:21:06Z</time></trkpt><trkpt lat="39.82663623948896" lon="9.28926122153387"><ele>832.0</ele><time>2026-05-03T08:21:07Z</time></trkpt><trkpt lat="39.826739270930304" lon="9.289391809041556"><ele>832.0</ele><time>2026-05-03T08:21:08Z</time></trkpt><trkpt lat="39.82684807430351" lon="9.289502377265505"><ele>832.0</ele><time>2026-05-03T08:21:09Z</time></trkpt><trkpt lat="39.826972532796475" lon="9.289599652241884"><ele>831.3333333333333</ele><time>2026-05-03T08:21:10Z</time></trkpt><trkpt lat="39.82711836398423" lon="9.289688852065343"><ele>830.6666666666667</ele><time>2026-05-03T08:21:11Z</time></trkpt><trkpt lat="39.827277631840126" lon="9.289797688210378"><ele>830.0</ele><time>2026-05-03T08:21:12Z</time></trkpt><trkpt lat="39.827443440809574" lon="9.289922947921365"><ele>830.0</ele><time>2026-05-03T08:21:13Z</time></trkpt><trkpt lat="39.82759231379695" lon="9.290044112940706"><ele>830.0</ele><time>2026-05-03T08:21:14Z</time></trkpt><trkpt lat="39.827740729197004" lon="9.29016048204513"><ele>830.0</ele><time>2026-05-03T08:21:15Z</time></trkpt><trkpt lat="39.82788314855088" lon="9.290264671083108"><ele>824.6666666666667</ele><time>2026-05-03T08:21:16Z</time></trkpt><trkpt lat="39.828052512791416" lon="9.290340926269199"><ele>819.3333333333333</ele><time>2026-05-03T08:21:17Z</time></trkpt><trkpt lat="39.82822283368959" lon="9.290411567273066"><ele>814.0</ele><time>2026-05-03T08:21:18Z</time></trkpt><trkpt lat="39.82839620681334" lon="9.290462284357996"><ele>815.3333333333333</ele><time>2026-05-03T08:21:19Z</time></trkpt><trkpt lat="39.82857464847771" lon="9.290504052278372"><ele>816.6666666666667</ele><time>2026-05-03T08:21:20Z</time></trkpt><trkpt lat="39.82876220038446" lon="9.290531472177923"><ele>818.0</ele><time>2026-05-03T08:21:21Z</time></trkpt><trkpt lat="39.82894326154245" lon="9.290546834612467"><ele>818.0</ele><time>2026-05-03T08:21:22Z</time></trkpt><trkpt lat="39.82909950159819" lon="9.290563919513732"><ele>818.0</ele><time>2026-05-03T08:21:23Z</time></trkpt><trkpt lat="39.82922963342805" lon="9.290562755082"><ele>818.0</ele><time>2026-05-03T08:21:24Z</time></trkpt><trkpt lat="39.82935155968948" lon="9.290539765272321"><ele>818.0</ele><time>2026-05-03T08:21:25Z</time></trkpt><trkpt lat="39.829443428576624" lon="9.290511977388167"><ele>818.0000000000001</ele><time>2026-05-03T08:21:26Z</time></trkpt><trkpt lat="39.82951551457339" lon="9.290457584001778"><ele>818.0</ele><time>2026-05-03T08:21:27Z</time></trkpt><trkpt lat="39.82955617090152" lon="9.290370700296197"><ele>818.0</ele><time>2026-05-03T08:21:28Z</time></trkpt><trkpt lat="39.829550934445784" lon="9.290268248439782"><ele>818.0</ele><time>2026-05-03T08:21:29Z</time></trkpt><trkpt lat="39.82950558237125" lon="9.29017741697546"><ele>818.0000000000001</ele><time>2026-05-03T08:21:30Z</time></trkpt><trkpt lat="39.82941962680882" lon="9.290117722747052"><ele>818.0</ele><time>2026-05-03T08:21:31Z</time></trkpt><trkpt lat="39.82930794263391" lon="9.290050688569172"><ele>818.0</ele><time>2026-05-03T08:21:32Z</time></trkpt><trkpt lat="39.82918948715077" lon="9.289946473258405"><ele>818.0</ele><time>2026-05-03T08:21:33Z</time></trkpt><trkpt lat="39.829085798677184" lon="9.289822785570836"><ele>818.0</ele><time>2026-05-03T08:21:34Z</time></trkpt><trkpt lat="39.82898598606508" lon="9.28971457226737"><ele>818.0</ele><time>2026-05-03T08:21:35Z</time></trkpt><trkpt lat="39.82887052333128" lon="9.289556776592296"><ele>822.3333333333334</ele><time>2026-05-03T08:21:36Z</time></trkpt><trkpt lat="39.82876867698542" lon="9.289378394028486"><ele>826.6666666666667</ele><time>2026-05-03T08:21:37Z</time></trkpt><trkpt lat="39.82866979972451" lon="9.289218999919827"><ele>831.0</ele><time>2026-05-03T08:21:38Z</time></trkpt><trkpt lat="39.828545812942956" lon="9.289057939823252"><ele>826.75</ele><time>2026-05-03T08:21:39Z</time></trkpt><trkpt lat="39.82842769761924" lon="9.28891653789923"><ele>822.5</ele><time>2026-05-03T08:21:40Z</time></trkpt><trkpt lat="39.82833447005985" lon="9.288789873445785"><ele>818.25</ele><time>2026-05-03T08:21:41Z</time></trkpt><trkpt lat="39.82826153270876" lon="9.288639833823304"><ele>814.0</ele><time>2026-05-03T08:21:42Z</time></trkpt><trkpt lat="39.82821694982161" lon="9.288452440747749"><ele>814.0</ele><time>2026-05-03T08:21:43Z</time></trkpt><trkpt lat="39.82816595367998" lon="9.288251103352355"><ele>814.0</ele><time>2026-05-03T08:21:44Z</time></trkpt><trkpt lat="39.828105334265594" lon="9.28806156006353"><ele>814.0</ele><time>2026-05-03T08:21:45Z</time></trkpt><trkpt lat="39.82806620868657" lon="9.287866088402742"><ele>814.0</ele><time>2026-05-03T08:21:46Z</time></trkpt><trkpt lat="39.82805781248224" lon="9.287657008439863"><ele>814.0</ele><time>2026-05-03T08:21:47Z</time></trkpt><trkpt lat="39.828078437003946" lon="9.287434363471347"><ele>814.0</ele><time>2026-05-03T08:21:48Z</time></trkpt><trkpt lat="39.82810074801315" lon="9.287225460446919"><ele>813.5</ele><time>2026-05-03T08:21:49Z</time></trkpt><trkpt lat="39.82810579752623" lon="9.287040648161236"><ele>813.0</ele><time>2026-05-03T08:21:50Z</time></trkpt><trkpt lat="39.82810391941115" lon="9.286886730585557"><ele>812.5</ele><time>2026-05-03T08:21:51Z</time></trkpt><trkpt lat="39.82810131739693" lon="9.286755973408383"><ele>812.0</ele><time>2026-05-03T08:21:52Z</time></trkpt><trkpt lat="39.82804395428825" lon="9.286654201928762"><ele>812.0</ele><time>2026-05-03T08:21:53Z</time></trkpt><trkpt lat="39.82795386364262" lon="9.286615046203774"><ele>812.0</ele><time>2026-05-03T08:21:54Z</time></trkpt><trkpt lat="39.827863596061654" lon="9.286586729997184"><ele>812.0</ele><time>2026-05-03T08:21:55Z</time></trkpt><trkpt lat="39.82776264020189" lon="9.28651209642107"><ele>812.0</ele><time>2026-05-03T08:21:56Z</time></trkpt><trkpt lat="39.82767272835015" lon="9.286389318471295"><ele>812.0</ele><time>2026-05-03T08:21:57Z</time></trkpt><trkpt lat="39.82761618670015" lon="9.286229960897495"><ele>808.25</ele><time>2026-05-03T08:21:58Z</time></trkpt><trkpt lat="39.82757167094295" lon="9.286057832211762"><ele>804.5</ele><time>2026-05-03T08:21:59Z</time></trkpt><trkpt lat="39.82752621847127" lon="9.285898786546763"><ele>800.75</ele><time>2026-05-03T08:22:00Z</time></trkpt><trkpt lat="39.8274269089738" lon="9.285772000448052"><ele>797.0</ele><time>2026-05-03T08:22:01Z</time></trkpt><trkpt lat="39.827310083378364" lon="9.285718739103068"><ele>797.0</ele><time>2026-05-03T08:22:02Z</time></trkpt><trkpt lat="39.827226662500514" lon="9.285630622426478"><ele>797.0</ele><time>2026-05-03T08:22:03Z</time></trkpt><trkpt lat="39.82716847834909" lon="9.285508991948502"><ele>797.0</ele><time>2026-05-03T08:22:04Z</time></trkpt><trkpt lat="39.82713146011272" lon="9.28534736558908"><ele>797.0</ele><time>2026-05-03T08:22:05Z</time></trkpt><trkpt lat="39.82713680209061" lon="9.285171736079706"><ele>798.0</ele><time>2026-05-03T08:22:06Z</time></trkpt><trkpt lat="39.82716349482832" lon="9.284987687625367"><ele>799.0</ele><time>2026-05-03T08:22:07Z</time></trkpt><trkpt lat="39.82718945946793" lon="9.284801534431455"><ele>800.0</ele><time>2026-05-03T08:22:08Z</time></trkpt><trkpt lat="39.827191401539494" lon="9.28461014542283"><ele>801.0</ele><time>2026-05-03T08:22:09Z</time></trkpt><trkpt lat="39.82717173402691" lon="9.284417229454839"><ele>801.0</ele><time>2026-05-03T08:22:10Z</time></trkpt><trkpt lat="39.82713898666287" lon="9.284247833394573"><ele>801.0</ele><time>2026-05-03T08:22:11Z</time></trkpt><trkpt lat="39.827101157002495" lon="9.284099333439283"><ele>801.0</ele><time>2026-05-03T08:22:12Z</time></trkpt><trkpt lat="39.82705675811259" lon="9.283958069733359"><ele>801.0</ele><time>2026-05-03T08:22:13Z</time></trkpt><trkpt lat="39.82694132977008" lon="9.283864512069533"><ele>798.5</ele><time>2026-05-03T08:22:14Z</time></trkpt><trkpt lat="39.82680530835509" lon="9.283789643053046"><ele>796.0</ele><time>2026-05-03T08:22:15Z</time></trkpt><trkpt lat="39.826698236048585" lon="9.283724138602757"><ele>793.5</ele><time>2026-05-03T08:22:16Z</time></trkpt><trkpt lat="39.82657609056344" lon="9.283592661055337"><ele>791.0</ele><time>2026-05-03T08:22:17Z</time></trkpt><trkpt lat="39.82644409486495" lon="9.283441352384587"><ele>791.0</ele><time>2026-05-03T08:22:18Z</time></trkpt><trkpt lat="39.82631230909002" lon="9.283289050033224"><ele>791.0</ele><time>2026-05-03T08:22:19Z</time></trkpt><trkpt lat="39.82616817514628" lon="9.283160386288776"><ele>791.0</ele><time>2026-05-03T08:22:20Z</time></trkpt><trkpt lat="39.826024779188984" lon="9.283061683426068"><ele>787.5</ele><time>2026-05-03T08:22:21Z</time></trkpt><trkpt lat="39.825884189117225" lon="9.282997223427254"><ele>784.0</ele><time>2026-05-03T08:22:22Z</time></trkpt><trkpt lat="39.82577708869993" lon="9.282902021343515"><ele>780.5</ele><time>2026-05-03T08:22:23Z</time></trkpt><trkpt lat="39.82569261517955" lon="9.282780795068907"><ele>777.0</ele><time>2026-05-03T08:22:24Z</time></trkpt><trkpt lat="39.825643606701675" lon="9.282640937004789"><ele>777.0</ele><time>2026-05-03T08:22:25Z</time></trkpt><trkpt lat="39.82563210638885" lon="9.282500229063563"><ele>777.0</ele><time>2026-05-03T08:22:26Z</time></trkpt><trkpt lat="39.825650422232684" lon="9.282371711965505"><ele>777.0</ele><time>2026-05-03T08:22:27Z</time></trkpt><trkpt lat="39.82570697889238" lon="9.282238456660819"><ele>777.0</ele><time>2026-05-03T08:22:28Z</time></trkpt><trkpt lat="39.825790105232024" lon="9.282085990798997"><ele>778.6666666666667</ele><time>2026-05-03T08:22:29Z</time></trkpt><trkpt lat="39.82588789771942" lon="9.281937963350039"><ele>780.3333333333334</ele><time>2026-05-03T08:22:30Z</time></trkpt><trkpt lat="39.82600159886812" lon="9.28177753640979"><ele>782.0</ele><time>2026-05-03T08:22:31Z</time></trkpt><trkpt lat="39.826112327543754" lon="9.281611522872524"><ele>782.0</ele><time>2026-05-03T08:22:32Z</time></trkpt><trkpt lat="39.82619939580645" lon="9.281438082192563"><ele>782.0</ele><time>2026-05-03T08:22:33Z</time></trkpt><trkpt lat="39.826268698630166" lon="9.281266922846811"><ele>782.0</ele><time>2026-05-03T08:22:34Z</time></trkpt><trkpt lat="39.82634197569759" lon="9.281111392191665"><ele>782.0</ele><time>2026-05-03T08:22:35Z</time></trkpt><trkpt lat="39.82642682086823" lon="9.280986463268517"><ele>778.25</ele><time>2026-05-03T08:22:36Z</time></trkpt><trkpt lat="39.82652898035579" lon="9.28089875605285"><ele>774.5</ele><time>2026-05-03T08:22:37Z</time></trkpt><trkpt lat="39.826661953401334" lon="9.280832508222572"><ele>770.75</ele><time>2026-05-03T08:22:38Z</time></trkpt><trkpt lat="39.82681092211559" lon="9.280808614010068"><ele>767.0</ele><time>2026-05-03T08:22:39Z</time></trkpt><trkpt lat="39.82697432570223" lon="9.280800334112605"><ele>767.0</ele><time>2026-05-03T08:22:40Z</time></trkpt><trkpt lat="39.8271409250023" lon="9.280773407502275"><ele>767.0</ele><time>2026-05-03T08:22:41Z</time></trkpt><trkpt lat="39.82730621305553" lon="9.280712056570849"><ele>767.0</ele><time>2026-05-03T08:22:42Z</time></trkpt><trkpt lat="39.82747429598781" lon="9.280623685771626"><ele>765.0</ele><time>2026-05-03T08:22:43Z</time></trkpt><trkpt lat="39.827630104382415" lon="9.280558638395748"><ele>763.0</ele><time>2026-05-03T08:22:44Z</time></trkpt><trkpt lat="39.82778405068605" lon="9.280521943767512"><ele>761.0</ele><time>2026-05-03T08:22:45Z</time></trkpt><trkpt lat="39.827929871514485" lon="9.28050168394071"><ele>761.0</ele><time>2026-05-03T08:22:46Z</time></trkpt><trkpt lat="39.82805339908841" lon="9.280520639759466"><ele>761.0</ele><time>2026-05-03T08:22:47Z</time></trkpt><trkpt lat="39.82816792129893" lon="9.280588268130563"><ele>761.0</ele><time>2026-05-03T08:22:48Z</time></trkpt><trkpt lat="39.82826991902102" lon="9.280682411422703"><ele>761.0</ele><time>2026-05-03T08:22:49Z</time></trkpt><trkpt lat="39.828356823221874" lon="9.280734926426812"><ele>761.8</ele><time>2026-05-03T08:22:50Z</time></trkpt><trkpt lat="39.82844693007462" lon="9.28073022677314"><ele>762.5999999999999</ele><time>2026-05-03T08:22:51Z</time></trkpt><trkpt lat="39.8285165992948" lon="9.280663368358077"><ele>763.4</ele><time>2026-05-03T08:22:52Z</time></trkpt><trkpt lat="39.8285741753572" lon="9.280547972155807"><ele>764.2</ele><time>2026-05-03T08:22:53Z</time></trkpt><trkpt lat="39.8285927041436" lon="9.280405884151193"><ele>765.0</ele><time>2026-05-03T08:22:54Z</time></trkpt><trkpt lat="39.82856804874028" lon="9.280260784932924"><ele>764.0</ele><time>2026-05-03T08:22:55Z</time></trkpt><trkpt lat="39.82851149371556" lon="9.280110931728775"><ele>763.0</ele><time>2026-05-03T08:22:56Z</time></trkpt><trkpt lat="39.82841697125614" lon="9.279954823354386"><ele>762.0</ele><time>2026-05-03T08:22:57Z</time></trkpt><trkpt lat="39.8282814508843" lon="9.279853177001891"><ele>761.0</ele><time>2026-05-03T08:22:58Z</time></trkpt><trkpt lat="39.82817153842416" lon="9.279740324023706"><ele>766.5</ele><time>2026-05-03T08:22:59Z</time></trkpt><trkpt lat="39.828047617328686" lon="9.279641113203914"><ele>772.0</ele><time>2026-05-03T08:23:00Z</time></trkpt><trkpt lat="39.82793278352691" lon="9.279549046157134"><ele>777.5</ele><time>2026-05-03T08:23:01Z</time></trkpt><trkpt lat="39.82779049688686" lon="9.27954890210964"><ele>783.0</ele><time>2026-05-03T08:23:02Z</time></trkpt><trkpt lat="39.827651050123514" lon="9.279542941893423"><ele>781.75</ele><time>2026-05-03T08:23:03Z</time></trkpt><trkpt lat="39.827501697235235" lon="9.27955475739381"><ele>780.5</ele><time>2026-05-03T08:23:04Z</time></trkpt><trkpt lat="39.827366123039056" lon="9.279554815766563"><ele>779.25</ele><time>2026-05-03T08:23:05Z</time></trkpt><trkpt lat="39.827230001357094" lon="9.279484356352"><ele>778.0</ele><time>2026-05-03T08:23:06Z</time></trkpt><trkpt lat="39.82710249747104" lon="9.279389333745263"><ele>778.0</ele><time>2026-05-03T08:23:07Z</time></trkpt><trkpt lat="39.82697512133269" lon="9.279286474348893"><ele>778.0</ele><time>2026-05-03T08:23:08Z</time></trkpt><trkpt lat="39.82684688487597" lon="9.279176113861434"><ele>778.0</ele><time>2026-05-03T08:23:09Z</time></trkpt><trkpt lat="39.82670108102451" lon="9.279100326590942"><ele>780.0</ele><time>2026-05-03T08:23:10Z</time></trkpt><trkpt lat="39.82654911048869" lon="9.279036505023132"><ele>782.0</ele><time>2026-05-03T08:23:11Z</time></trkpt><trkpt lat="39.82639302748768" lon="9.278976239549419"><ele>784.0</ele><time>2026-05-03T08:23:12Z</time></trkpt><trkpt lat="39.82624694693721" lon="9.278921636504078"><ele>784.0</ele><time>2026-05-03T08:23:13Z</time></trkpt><trkpt lat="39.82609616004756" lon="9.278891739869545"><ele>784.0</ele><time>2026-05-03T08:23:14Z</time></trkpt><trkpt lat="39.8259476459422" lon="9.278905503541003"><ele>784.0</ele><time>2026-05-03T08:23:15Z</time></trkpt><trkpt lat="39.825826979798705" lon="9.278942182119755"><ele>784.0</ele><time>2026-05-03T08:23:16Z</time></trkpt><trkpt lat="39.82572915872236" lon="9.278967282282595"><ele>782.6</ele><time>2026-05-03T08:23:17Z</time></trkpt><trkpt lat="39.825636289414945" lon="9.278951186286138"><ele>781.2</ele><time>2026-05-03T08:23:18Z</time></trkpt><trkpt lat="39.825566754800846" lon="9.278870605431628"><ele>779.8000000000001</ele><time>2026-05-03T08:23:19Z</time></trkpt><trkpt lat="39.82554439593555" lon="9.278789456247235"><ele>778.4000000000001</ele><time>2026-05-03T08:23:20Z</time></trkpt><trkpt lat="39.82558547890508" lon="9.2785982848513"><ele>777.0</ele><time>2026-05-03T08:23:22Z</time></trkpt><trkpt lat="39.82565471736402" lon="9.278486670432086"><ele>777.0</ele><time>2026-05-03T08:23:23Z</time></trkpt><trkpt lat="39.82574535337268" lon="9.278393815573157"><ele>777.0</ele><time>2026-05-03T08:23:24Z</time></trkpt><trkpt lat="39.82586117261427" lon="9.278312855386966"><ele>777.0</ele><time>2026-05-03T08:23:25Z</time></trkpt><trkpt lat="39.82599700041018" lon="9.278237811143518"><ele>777.0</ele><time>2026-05-03T08:23:26Z</time></trkpt><trkpt lat="39.826137450862916" lon="9.278180109523637"><ele>778.4000000000001</ele><time>2026-05-03T08:23:27Z</time></trkpt><trkpt lat="39.82626465802644" lon="9.278126275011344"><ele>779.8000000000001</ele><time>2026-05-03T08:23:28Z</time></trkpt><trkpt lat="39.8263513132597" lon="9.278064035819247"><ele>781.2</ele><time>2026-05-03T08:23:29Z</time></trkpt><trkpt lat="39.8263903172956" lon="9.277987518947834"><ele>782.6</ele><time>2026-05-03T08:23:30Z</time></trkpt><trkpt lat="39.82637824889194" lon="9.277833076156513"><ele>784.0</ele><time>2026-05-03T08:23:32Z</time></trkpt><trkpt lat="39.826338880334966" lon="9.277761606058384"><ele>784.4000000000001</ele><time>2026-05-03T08:23:33Z</time></trkpt><trkpt lat="39.82627385773565" lon="9.277682599109072"><ele>784.8</ele><time>2026-05-03T08:23:34Z</time></trkpt><trkpt lat="39.826182925445984" lon="9.27762743998385"><ele>785.2</ele><time>2026-05-03T08:23:35Z</time></trkpt><trkpt lat="39.82608483142086" lon="9.277573422802218"><ele>785.5999999999999</ele><time>2026-05-03T08:23:36Z</time></trkpt><trkpt lat="39.82598171927772" lon="9.277516565713874"><ele>786.0</ele><time>2026-05-03T08:23:37Z</time></trkpt><trkpt lat="39.82587958627863" lon="9.277475001129103"><ele>786.1999999999999</ele><time>2026-05-03T08:23:38Z</time></trkpt><trkpt lat="39.8257860218874" lon="9.277401257022161"><ele>786.4</ele><time>2026-05-03T08:23:39Z</time></trkpt><trkpt lat="39.82570617850084" lon="9.27731031860252"><ele>786.6</ele><time>2026-05-03T08:23:40Z</time></trkpt><trkpt lat="39.825640669032985" lon="9.277202175240951"><ele>786.8</ele><time>2026-05-03T08:23:41Z</time></trkpt><trkpt lat="39.825591667693274" lon="9.277082326570945"><ele>787.0</ele><time>2026-05-03T08:23:42Z</time></trkpt><trkpt lat="39.82557454359727" lon="9.276963269667451"><ele>787.0</ele><time>2026-05-03T08:23:43Z</time></trkpt><trkpt lat="39.82556135061945" lon="9.276869939561712"><ele>787.0</ele><time>2026-05-03T08:23:44Z</time></trkpt><trkpt lat="39.82569138992711" lon="9.276746518670718"><ele>787.0</ele><time>2026-05-03T08:23:46Z</time></trkpt><trkpt lat="39.82576891724182" lon="9.276730007767636"><ele>787.0</ele><time>2026-05-03T08:23:47Z</time></trkpt><trkpt lat="39.825860487935515" lon="9.2767191721613"><ele>787.0</ele><time>2026-05-03T08:23:48Z</time></trkpt><trkpt lat="39.82597050132727" lon="9.276698981979074"><ele>788.25</ele><time>2026-05-03T08:23:49Z</time></trkpt><trkpt lat="39.82608768742618" lon="9.27666942444382"><ele>789.5</ele><time>2026-05-03T08:23:50Z</time></trkpt><trkpt lat="39.826204966000134" lon="9.276636598475356"><ele>790.75</ele><time>2026-05-03T08:23:51Z</time></trkpt><trkpt lat="39.82633356889625" lon="9.276603557530994"><ele>792.0</ele><time>2026-05-03T08:23:52Z</time></trkpt><trkpt lat="39.826475213220625" lon="9.27657291652511"><ele>792.0</ele><time>2026-05-03T08:23:53Z</time></trkpt><trkpt lat="39.826627703566096" lon="9.27653996330201"><ele>792.0</ele><time>2026-05-03T08:23:54Z</time></trkpt><trkpt lat="39.8267948160735" lon="9.276500120643844"><ele>792.0</ele><time>2026-05-03T08:23:55Z</time></trkpt><trkpt lat="39.82697267671246" lon="9.276457599941233"><ele>794.0</ele><time>2026-05-03T08:23:56Z</time></trkpt><trkpt lat="39.827165074662794" lon="9.27640988072152"><ele>796.0</ele><time>2026-05-03T08:23:57Z</time></trkpt><trkpt lat="39.82736291351974" lon="9.276364240943227"><ele>798.0</ele><time>2026-05-03T08:23:58Z</time></trkpt><trkpt lat="39.827556226074826" lon="9.276315929642008"><ele>799.0</ele><time>2026-05-03T08:23:59Z</time></trkpt><trkpt lat="39.82775203014882" lon="9.276256615255987"><ele>800.0</ele><time>2026-05-03T08:24:00Z</time></trkpt><trkpt lat="39.82795203216268" lon="9.276174927636502"><ele>801.0</ele><time>2026-05-03T08:24:01Z</time></trkpt><trkpt lat="39.82815189210607" lon="9.276072697632221"><ele>801.0</ele><time>2026-05-03T08:24:02Z</time></trkpt><trkpt lat="39.828358619774335" lon="9.275952402915834"><ele>801.0</ele><time>2026-05-03T08:24:03Z</time></trkpt><trkpt lat="39.828562392114314" lon="9.275820580566075"><ele>801.5</ele><time>2026-05-03T08:24:04Z</time></trkpt><trkpt lat="39.828764950590035" lon="9.275653672186827"><ele>802.0</ele><time>2026-05-03T08:24:05Z</time></trkpt><trkpt lat="39.82894735489106" lon="9.27547370446119"><ele>802.0</ele><time>2026-05-03T08:24:06Z</time></trkpt><trkpt lat="39.82911207125903" lon="9.275307902992465"><ele>802.0</ele><time>2026-05-03T08:24:07Z</time></trkpt><trkpt lat="39.82927417249645" lon="9.275158672394037"><ele>802.0</ele><time>2026-05-03T08:24:08Z</time></trkpt><trkpt lat="39.82944730694358" lon="9.275023442948054"><ele>803.6666666666666</ele><time>2026-05-03T08:24:09Z</time></trkpt><trkpt lat="39.82962974118416" lon="9.274923848333254"><ele>805.3333333333333</ele><time>2026-05-03T08:24:10Z</time></trkpt><trkpt lat="39.8298310263447" lon="9.274851179595435"><ele>807.0</ele><time>2026-05-03T08:24:11Z</time></trkpt><trkpt lat="39.83004918126182" lon="9.274798671584103"><ele>805.0</ele><time>2026-05-03T08:24:12Z</time></trkpt><trkpt lat="39.83027295941891" lon="9.274753269707821"><ele>803.0</ele><time>2026-05-03T08:24:13Z</time></trkpt><trkpt lat="39.83049533450847" lon="9.274703002360612"><ele>803.0</ele><time>2026-05-03T08:24:14Z</time></trkpt><trkpt lat="39.83069820952504" lon="9.27465427208165"><ele>803.0</ele><time>2026-05-03T08:24:15Z</time></trkpt><trkpt lat="39.8308723220553" lon="9.27461901866616"><ele>803.0</ele><time>2026-05-03T08:24:16Z</time></trkpt><trkpt lat="39.83103381145552" lon="9.274602979698683"><ele>803.6666666666667</ele><time>2026-05-03T08:24:17Z</time></trkpt><trkpt lat="39.8312008805093" lon="9.274612458408434"><ele>804.3333333333333</ele><time>2026-05-03T08:24:18Z</time></trkpt><trkpt lat="39.83137451931553" lon="9.27466342252433"><ele>805.0</ele><time>2026-05-03T08:24:19Z</time></trkpt><trkpt lat="39.83155251843238" lon="9.274728339257553"><ele>806.0</ele><time>2026-05-03T08:24:20Z</time></trkpt><trkpt lat="39.831707610433185" lon="9.274782347546278"><ele>807.0</ele><time>2026-05-03T08:24:21Z</time></trkpt><trkpt lat="39.83186633445007" lon="9.27481384293414"><ele>808.0</ele><time>2026-05-03T08:24:22Z</time></trkpt><trkpt lat="39.83202341135571" lon="9.274822126179918"><ele>808.3333333333333</ele><time>2026-05-03T08:24:23Z</time></trkpt><trkpt lat="39.832179062160456" lon="9.274798598586456"><ele>808.6666666666667</ele><time>2026-05-03T08:24:24Z</time></trkpt><trkpt lat="39.83233002286383" lon="9.27473402176037"><ele>809.0</ele><time>2026-05-03T08:24:25Z</time></trkpt><trkpt lat="39.83249540455548" lon="9.274642821724449"><ele>809.3333333333334</ele><time>2026-05-03T08:24:26Z</time></trkpt><trkpt lat="39.83266254356693" lon="9.274537751893341"><ele>809.6666666666667</ele><time>2026-05-03T08:24:27Z</time></trkpt><trkpt lat="39.83284539360582" lon="9.274426033530684"><ele>810.0</ele><time>2026-05-03T08:24:28Z</time></trkpt><trkpt lat="39.83303651233649" lon="9.274308163711229"><ele>810.0</ele><time>2026-05-03T08:24:29Z</time></trkpt><trkpt lat="39.83323099868365" lon="9.274188600292067"><ele>810.0</ele><time>2026-05-03T08:24:30Z</time></trkpt><trkpt lat="39.83341407976711" lon="9.27408126377898"><ele>810.0</ele><time>2026-05-03T08:24:31Z</time></trkpt><trkpt lat="39.83359371306938" lon="9.273995483703388"><ele>809.0</ele><time>2026-05-03T08:24:32Z</time></trkpt><trkpt lat="39.83377822866729" lon="9.273937571894692"><ele>808.0</ele><time>2026-05-03T08:24:33Z</time></trkpt><trkpt lat="39.83396691133257" lon="9.273907337147374"><ele>807.0</ele><time>2026-05-03T08:24:34Z</time></trkpt><trkpt lat="39.83415211524414" lon="9.273896041074936"><ele>806.6666666666667</ele><time>2026-05-03T08:24:35Z</time></trkpt><trkpt lat="39.83434334651688" lon="9.273897181635501"><ele>806.3333333333334</ele><time>2026-05-03T08:24:36Z</time></trkpt><trkpt lat="39.834535962172325" lon="9.273893776551365"><ele>806.0</ele><time>2026-05-03T08:24:37Z</time></trkpt><trkpt lat="39.834723392342" lon="9.273891776318234"><ele>806.0</ele><time>2026-05-03T08:24:38Z</time></trkpt><trkpt lat="39.83490974288336" lon="9.2739140932658"><ele>806.0</ele><time>2026-05-03T08:24:39Z</time></trkpt><trkpt lat="39.83509996051959" lon="9.27397026877233"><ele>806.0</ele><time>2026-05-03T08:24:40Z</time></trkpt><trkpt lat="39.8352935769086" lon="9.274057717352605"><ele>807.6666666666667</ele><time>2026-05-03T08:24:41Z</time></trkpt><trkpt lat="39.83548700484594" lon="9.274152306459452"><ele>809.3333333333333</ele><time>2026-05-03T08:24:42Z</time></trkpt><trkpt lat="39.83568504512948" lon="9.274235857377544"><ele>811.0</ele><time>2026-05-03T08:24:43Z</time></trkpt><trkpt lat="39.8358922745286" lon="9.274305004063521"><ele>811.6666666666666</ele><time>2026-05-03T08:24:44Z</time></trkpt><trkpt lat="39.83609729708413" lon="9.274361446935371"><ele>812.3333333333333</ele><time>2026-05-03T08:24:45Z</time></trkpt><trkpt lat="39.836289086242374" lon="9.274414971707435"><ele>813.0</ele><time>2026-05-03T08:24:46Z</time></trkpt><trkpt lat="39.83647996129968" lon="9.274475007175038"><ele>813.0</ele><time>2026-05-03T08:24:47Z</time></trkpt><trkpt lat="39.83667477502223" lon="9.274557747320017"><ele>813.0</ele><time>2026-05-03T08:24:48Z</time></trkpt><trkpt lat="39.83686766477904" lon="9.274673350105456"><ele>813.0</ele><time>2026-05-03T08:24:49Z</time></trkpt><trkpt lat="39.83706282180111" lon="9.274805943570446"><ele>815.0</ele><time>2026-05-03T08:24:50Z</time></trkpt><trkpt lat="39.83726019543792" lon="9.274934774915392"><ele>817.0</ele><time>2026-05-03T08:24:51Z</time></trkpt><trkpt lat="39.837460332225795" lon="9.275050496223345"><ele>819.0</ele><time>2026-05-03T08:24:52Z</time></trkpt><trkpt lat="39.837667105445924" lon="9.275161511383375"><ele>821.5</ele><time>2026-05-03T08:24:53Z</time></trkpt><trkpt lat="39.83788170211538" lon="9.275269240393593"><ele>824.0</ele><time>2026-05-03T08:24:54Z</time></trkpt><trkpt lat="39.838091805379634" lon="9.275374404023642"><ele>824.0</ele><time>2026-05-03T08:24:55Z</time></trkpt><trkpt lat="39.838298997897596" lon="9.275478250064666"><ele>824.0</ele><time>2026-05-03T08:24:56Z</time></trkpt><trkpt lat="39.83850060314133" lon="9.275580628731133"><ele>824.0</ele><time>2026-05-03T08:24:57Z</time></trkpt><trkpt lat="39.83869420699026" lon="9.275678599247238"><ele>826.6666666666667</ele><time>2026-05-03T08:24:58Z</time></trkpt><trkpt lat="39.83888314463014" lon="9.27577603922192"><ele>829.3333333333333</ele><time>2026-05-03T08:24:59Z</time></trkpt><trkpt lat="39.839061859411906" lon="9.275866585624632"><ele>832.0</ele><time>2026-05-03T08:25:00Z</time></trkpt><trkpt lat="39.83923497102055" lon="9.275950243352076"><ele>833.0</ele><time>2026-05-03T08:25:01Z</time></trkpt><trkpt lat="39.83940196951012" lon="9.276019205041704"><ele>834.0</ele><time>2026-05-03T08:25:02Z</time></trkpt><trkpt lat="39.83956689444999" lon="9.27606767519653"><ele>835.0</ele><time>2026-05-03T08:25:03Z</time></trkpt><trkpt lat="39.83973672238723" lon="9.276088733542101"><ele>835.0</ele><time>2026-05-03T08:25:04Z</time></trkpt><trkpt lat="39.83991019278497" lon="9.276070402953154"><ele>835.0</ele><time>2026-05-03T08:25:05Z</time></trkpt><trkpt lat="39.84009629839374" lon="9.276026490975832"><ele>835.0</ele><time>2026-05-03T08:25:06Z</time></trkpt><trkpt lat="39.84029701297518" lon="9.275961269163824"><ele>837.6666666666666</ele><time>2026-05-03T08:25:07Z</time></trkpt><trkpt lat="39.840506035882676" lon="9.275886975874716"><ele>840.3333333333333</ele><time>2026-05-03T08:25:08Z</time></trkpt><trkpt lat="39.84071766137582" lon="9.275812791260645"><ele>843.0</ele><time>2026-05-03T08:25:09Z</time></trkpt><trkpt lat="39.84092303426754" lon="9.275744791599585"><ele>844.6666666666667</ele><time>2026-05-03T08:25:10Z</time></trkpt><trkpt lat="39.841120465956024" lon="9.275673859684336"><ele>846.3333333333334</ele><time>2026-05-03T08:25:11Z</time></trkpt><trkpt lat="39.84131510851043" lon="9.275604693046525"><ele>848.0</ele><time>2026-05-03T08:25:12Z</time></trkpt><trkpt lat="39.841501202711186" lon="9.275537022746304"><ele>845.0</ele><time>2026-05-03T08:25:13Z</time></trkpt><trkpt lat="39.8416752767726" lon="9.2754772470344"><ele>842.0</ele><time>2026-05-03T08:25:14Z</time></trkpt><trkpt lat="39.84184281005223" lon="9.2754212103306"><ele>839.0</ele><time>2026-05-03T08:25:15Z</time></trkpt><trkpt lat="39.84199811377099" lon="9.275372062310447"><ele>839.0</ele><time>2026-05-03T08:25:16Z</time></trkpt><trkpt lat="39.842138919225704" lon="9.275334040315562"><ele>839.0</ele><time>2026-05-03T08:25:17Z</time></trkpt><trkpt lat="39.84226824984348" lon="9.275320803541"><ele>839.0</ele><time>2026-05-03T08:25:18Z</time></trkpt><trkpt lat="39.842397929062344" lon="9.275319849323072"><ele>839.0</ele><time>2026-05-03T08:25:19Z</time></trkpt><trkpt lat="39.84252571580658" lon="9.275344983856145"><ele>836.75</ele><time>2026-05-03T08:25:20Z</time></trkpt><trkpt lat="39.842649876007954" lon="9.275379872490102"><ele>834.5</ele><time>2026-05-03T08:25:21Z</time></trkpt><trkpt lat="39.84276716937017" lon="9.27542142870402"><ele>832.25</ele><time>2026-05-03T08:25:22Z</time></trkpt><trkpt lat="39.842881973407465" lon="9.275466623905992"><ele>830.0</ele><time>2026-05-03T08:25:23Z</time></trkpt><trkpt lat="39.842998767945254" lon="9.275520832363929"><ele>830.0</ele><time>2026-05-03T08:25:24Z</time></trkpt><trkpt lat="39.843112981850645" lon="9.2755969242558"><ele>830.0</ele><time>2026-05-03T08:25:25Z</time></trkpt><trkpt lat="39.84322310036386" lon="9.275715548058805"><ele>830.0</ele><time>2026-05-03T08:25:26Z</time></trkpt><trkpt lat="39.843333847199574" lon="9.275873666754025"><ele>830.0</ele><time>2026-05-03T08:25:27Z</time></trkpt><trkpt lat="39.8434368921583" lon="9.276046473034402"><ele>826.3333333333334</ele><time>2026-05-03T08:25:28Z</time></trkpt><trkpt lat="39.84351527771282" lon="9.276219364069476"><ele>822.6666666666667</ele><time>2026-05-03T08:25:29Z</time></trkpt><trkpt lat="39.84358168258372" lon="9.27639818002811"><ele>819.0</ele><time>2026-05-03T08:25:30Z</time></trkpt><trkpt lat="39.843624329451806" lon="9.276581783801111"><ele>819.0</ele><time>2026-05-03T08:25:31Z</time></trkpt><trkpt lat="39.843642366404495" lon="9.276774875968618"><ele>819.0</ele><time>2026-05-03T08:25:32Z</time></trkpt><trkpt lat="39.8436279885362" lon="9.276971212284636"><ele>819.0</ele><time>2026-05-03T08:25:33Z</time></trkpt><trkpt lat="39.843586957898424" lon="9.277161164667111"><ele>816.3333333333333</ele><time>2026-05-03T08:25:34Z</time></trkpt><trkpt lat="39.84351413113854" lon="9.277355801310556"><ele>813.6666666666666</ele><time>2026-05-03T08:25:35Z</time></trkpt><trkpt lat="39.84340041066785" lon="9.277546506572918"><ele>811.0</ele><time>2026-05-03T08:25:36Z</time></trkpt><trkpt lat="39.84328940193494" lon="9.277740643722487"><ele>812.0</ele><time>2026-05-03T08:25:37Z</time></trkpt><trkpt lat="39.84317286867453" lon="9.277971211136412"><ele>813.0</ele><time>2026-05-03T08:25:38Z</time></trkpt><trkpt lat="39.843064438590396" lon="9.278179257089997"><ele>814.0</ele><time>2026-05-03T08:25:39Z</time></trkpt><trkpt lat="39.8429614970732" lon="9.278368080567608"><ele>814.0</ele><time>2026-05-03T08:25:40Z</time></trkpt><trkpt lat="39.842848537320336" lon="9.278548733274128"><ele>814.0</ele><time>2026-05-03T08:25:41Z</time></trkpt><trkpt lat="39.842725685723714" lon="9.278704960665609"><ele>814.0</ele><time>2026-05-03T08:25:42Z</time></trkpt><trkpt lat="39.84260557906175" lon="9.278847112998672"><ele>814.0</ele><time>2026-05-03T08:25:43Z</time></trkpt><trkpt lat="39.84248789652164" lon="9.278978433903083"><ele>814.0</ele><time>2026-05-03T08:25:44Z</time></trkpt><trkpt lat="39.842381333801384" lon="9.279108072567029"><ele>814.0</ele><time>2026-05-03T08:25:45Z</time></trkpt><trkpt lat="39.84230076040846" lon="9.279242521477917"><ele>814.0</ele><time>2026-05-03T08:25:46Z</time></trkpt><trkpt lat="39.8422469445259" lon="9.279380886919572"><ele>814.0</ele><time>2026-05-03T08:25:47Z</time></trkpt><trkpt lat="39.84222774789233" lon="9.27951183556078"><ele>814.0</ele><time>2026-05-03T08:25:48Z</time></trkpt><trkpt lat="39.84222198799736" lon="9.279637147197384"><ele>814.0</ele><time>2026-05-03T08:25:49Z</time></trkpt><trkpt lat="39.84230694439663" lon="9.279745199699812"><ele>814.0</ele><time>2026-05-03T08:25:50Z</time></trkpt><trkpt lat="39.84240078607536" lon="9.279811142202373"><ele>814.0</ele><time>2026-05-03T08:25:51Z</time></trkpt><trkpt lat="39.84252251180889" lon="9.279835851454768"><ele>811.3333333333333</ele><time>2026-05-03T08:25:52Z</time></trkpt><trkpt lat="39.84268746931896" lon="9.279837879407259"><ele>808.6666666666667</ele><time>2026-05-03T08:25:53Z</time></trkpt><trkpt lat="39.84285629042112" lon="9.279853572601802"><ele>806.0</ele><time>2026-05-03T08:25:54Z</time></trkpt><trkpt lat="39.843034403776606" lon="9.279871088957368"><ele>806.0</ele><time>2026-05-03T08:25:55Z</time></trkpt><trkpt lat="39.843216969802526" lon="9.279887816116759"><ele>806.0</ele><time>2026-05-03T08:25:56Z</time></trkpt><trkpt lat="39.84337625904545" lon="9.279897274241305"><ele>806.0</ele><time>2026-05-03T08:25:57Z</time></trkpt><trkpt lat="39.84351610136287" lon="9.279876418847678"><ele>804.5</ele><time>2026-05-03T08:25:58Z</time></trkpt><trkpt lat="39.843643816051475" lon="9.279844667972531"><ele>803.0</ele><time>2026-05-03T08:25:59Z</time></trkpt><trkpt lat="39.8437768550263" lon="9.279773616858533"><ele>801.5</ele><time>2026-05-03T08:26:00Z</time></trkpt><trkpt lat="39.84392318728653" lon="9.279657117461072"><ele>800.0</ele><time>2026-05-03T08:26:01Z</time></trkpt><trkpt lat="39.84409490021563" lon="9.279501168900428"><ele>801.0</ele><time>2026-05-03T08:26:02Z</time></trkpt><trkpt lat="39.844293943491266" lon="9.279312967558887"><ele>802.0</ele><time>2026-05-03T08:26:03Z</time></trkpt><trkpt lat="39.844498459200295" lon="9.279113641542104"><ele>795.0</ele><time>2026-05-03T08:26:04Z</time></trkpt><trkpt lat="39.84469569656614" lon="9.278915556582634"><ele>788.0</ele><time>2026-05-03T08:26:05Z</time></trkpt><trkpt lat="39.844867650091494" lon="9.278715232845684"><ele>788.0</ele><time>2026-05-03T08:26:06Z</time></trkpt><trkpt lat="39.84504509420907" lon="9.278565106243292"><ele>788.0</ele><time>2026-05-03T08:26:07Z</time></trkpt><trkpt lat="39.845207883771074" lon="9.278402051361587"><ele>788.0</ele><time>2026-05-03T08:26:08Z</time></trkpt><trkpt lat="39.845350481808936" lon="9.27819348676394"><ele>788.3333333333334</ele><time>2026-05-03T08:26:09Z</time></trkpt><trkpt lat="39.84548002031" lon="9.277953467158312"><ele>788.6666666666667</ele><time>2026-05-03T08:26:10Z</time></trkpt><trkpt lat="39.845601969592735" lon="9.27772246312666"><ele>789.0</ele><time>2026-05-03T08:26:11Z</time></trkpt><trkpt lat="39.84571116189839" lon="9.277515483122563"><ele>789.0</ele><time>2026-05-03T08:26:12Z</time></trkpt><trkpt lat="39.84579839644977" lon="9.277333365311605"><ele>789.0</ele><time>2026-05-03T08:26:13Z</time></trkpt><trkpt lat="39.84589842048244" lon="9.277192374750314"><ele>789.0</ele><time>2026-05-03T08:26:14Z</time></trkpt><trkpt lat="39.84600918447586" lon="9.277093775191412"><ele>789.0</ele><time>2026-05-03T08:26:15Z</time></trkpt><trkpt lat="39.8461452079952" lon="9.277018277023357"><ele>787.0</ele><time>2026-05-03T08:26:16Z</time></trkpt><trkpt lat="39.84629940404603" lon="9.27698908941936"><ele>785.0</ele><time>2026-05-03T08:26:17Z</time></trkpt><trkpt lat="39.84645546357487" lon="9.276961225827337"><ele>783.0</ele><time>2026-05-03T08:26:18Z</time></trkpt><trkpt lat="39.846582209573334" lon="9.276923867012606"><ele>781.0</ele><time>2026-05-03T08:26:19Z</time></trkpt><trkpt lat="39.84669808969813" lon="9.276871482028582"><ele>785.4</ele><time>2026-05-03T08:26:20Z</time></trkpt><trkpt lat="39.84679492044855" lon="9.276791397729054"><ele>789.8</ele><time>2026-05-03T08:26:21Z</time></trkpt><trkpt lat="39.84685793066054" lon="9.276671017412642"><ele>794.1999999999999</ele><time>2026-05-03T08:26:22Z</time></trkpt><trkpt lat="39.84689616116396" lon="9.276537407919346"><ele>798.5999999999999</ele><time>2026-05-03T08:26:23Z</time></trkpt><trkpt lat="39.84689262859696" lon="9.276393759545003"><ele>803.0</ele><time>2026-05-03T08:26:24Z</time></trkpt><trkpt lat="39.846850968031745" lon="9.27623530750562"><ele>803.0</ele><time>2026-05-03T08:26:25Z</time></trkpt><trkpt lat="39.84680466633326" lon="9.276061044111742"><ele>803.0</ele><time>2026-05-03T08:26:26Z</time></trkpt><trkpt lat="39.84680381891916" lon="9.275906796139335"><ele>803.0</ele><time>2026-05-03T08:26:27Z</time></trkpt><trkpt lat="39.84683737589923" lon="9.275762472709266"><ele>803.0</ele><time>2026-05-03T08:26:28Z</time></trkpt><trkpt lat="39.846914189858246" lon="9.275631447891023"><ele>799.6666666666667</ele><time>2026-05-03T08:26:29Z</time></trkpt><trkpt lat="39.84702275832413" lon="9.275493470046708"><ele>796.3333333333333</ele><time>2026-05-03T08:26:30Z</time></trkpt><trkpt lat="39.847158061738924" lon="9.275344533797359"><ele>793.0</ele><time>2026-05-03T08:26:31Z</time></trkpt><trkpt lat="39.8473083670171" lon="9.275183136303296"><ele>793.0</ele><time>2026-05-03T08:26:32Z</time></trkpt><trkpt lat="39.84746082367286" lon="9.275004200620783"><ele>793.0</ele><time>2026-05-03T08:26:33Z</time></trkpt><trkpt lat="39.84758101034801" lon="9.274862575372763"><ele>793.0</ele><time>2026-05-03T08:26:34Z</time></trkpt><trkpt lat="39.84771594713991" lon="9.274736528017256"><ele>794.25</ele><time>2026-05-03T08:26:35Z</time></trkpt><trkpt lat="39.84785223026093" lon="9.27463526545757"><ele>795.5</ele><time>2026-05-03T08:26:36Z</time></trkpt><trkpt lat="39.8479843157129" lon="9.2745727530321"><ele>796.75</ele><time>2026-05-03T08:26:37Z</time></trkpt><trkpt lat="39.8481224902843" lon="9.274551498240085"><ele>798.0</ele><time>2026-05-03T08:26:38Z</time></trkpt><trkpt lat="39.84825573284696" lon="9.274563990512435"><ele>798.0</ele><time>2026-05-03T08:26:39Z</time></trkpt><trkpt lat="39.848393401465856" lon="9.274617538864039"><ele>798.0</ele><time>2026-05-03T08:26:40Z</time></trkpt><trkpt lat="39.84853720196249" lon="9.274701912158852"><ele>798.0</ele><time>2026-05-03T08:26:41Z</time></trkpt><trkpt lat="39.8486877932016" lon="9.27481039326513"><ele>796.6666666666667</ele><time>2026-05-03T08:26:42Z</time></trkpt><trkpt lat="39.848838893030084" lon="9.274931127489195"><ele>795.3333333333334</ele><time>2026-05-03T08:26:43Z</time></trkpt><trkpt lat="39.8489839567548" lon="9.275027804583921"><ele>794.0</ele><time>2026-05-03T08:26:44Z</time></trkpt><trkpt lat="39.849112325863274" lon="9.275083001313574"><ele>794.0</ele><time>2026-05-03T08:26:45Z</time></trkpt><trkpt lat="39.849235274319064" lon="9.27509195697994"><ele>794.0</ele><time>2026-05-03T08:26:46Z</time></trkpt><trkpt lat="39.8493633656616" lon="9.275048756557132"><ele>794.0</ele><time>2026-05-03T08:26:47Z</time></trkpt><trkpt lat="39.84949721923987" lon="9.274956501832857"><ele>794.0</ele><time>2026-05-03T08:26:48Z</time></trkpt><trkpt lat="39.84964350295785" lon="9.27482707733552"><ele>787.6666666666667</ele><time>2026-05-03T08:26:49Z</time></trkpt><trkpt lat="39.849787597531225" lon="9.274716458001773"><ele>781.3333333333333</ele><time>2026-05-03T08:26:50Z</time></trkpt><trkpt lat="39.84993412917662" lon="9.274600884554834"><ele>775.0</ele><time>2026-05-03T08:26:51Z</time></trkpt><trkpt lat="39.850075023357405" lon="9.274493533948876"><ele>775.0</ele><time>2026-05-03T08:26:52Z</time></trkpt><trkpt lat="39.85021229171252" lon="9.274396071762466"><ele>775.0</ele><time>2026-05-03T08:26:53Z</time></trkpt><trkpt lat="39.85034548068397" lon="9.274308910147942"><ele>775.0</ele><time>2026-05-03T08:26:54Z</time></trkpt><trkpt lat="39.85047602939709" lon="9.27426630034007"><ele>775.0</ele><time>2026-05-03T08:26:55Z</time></trkpt><trkpt lat="39.85060902209615" lon="9.274271110114507"><ele>775.0</ele><time>2026-05-03T08:26:56Z</time></trkpt><trkpt lat="39.85074118833026" lon="9.274287615947186"><ele>775.0</ele><time>2026-05-03T08:26:57Z</time></trkpt><trkpt lat="39.850879758840044" lon="9.274314309772834"><ele>775.0</ele><time>2026-05-03T08:26:58Z</time></trkpt><trkpt lat="39.85103241672153" lon="9.274360800646207"><ele>775.0</ele><time>2026-05-03T08:26:59Z</time></trkpt><trkpt lat="39.85121067379519" lon="9.274409327535201"><ele>772.3333333333333</ele><time>2026-05-03T08:27:00Z</time></trkpt><trkpt lat="39.85140412118826" lon="9.274460270984099"><ele>769.6666666666666</ele><time>2026-05-03T08:27:01Z</time></trkpt><trkpt lat="39.8516055989738" lon="9.274516998051016"><ele>767.0</ele><time>2026-05-03T08:27:02Z</time></trkpt><trkpt lat="39.85180858329187" lon="9.274575183694589"><ele>767.0</ele><time>2026-05-03T08:27:03Z</time></trkpt><trkpt lat="39.851997612229354" lon="9.274639863452046"><ele>767.0</ele><time>2026-05-03T08:27:04Z</time></trkpt><trkpt lat="39.852160105747146" lon="9.274695291710739"><ele>767.0</ele><time>2026-05-03T08:27:05Z</time></trkpt><trkpt lat="39.852291809570495" lon="9.274745371966286"><ele>767.0</ele><time>2026-05-03T08:27:06Z</time></trkpt><trkpt lat="39.85240683345359" lon="9.274769402333098"><ele>767.0</ele><time>2026-05-03T08:27:07Z</time></trkpt><trkpt lat="39.85250955861505" lon="9.274746762085469"><ele>767.0</ele><time>2026-05-03T08:27:08Z</time></trkpt><trkpt lat="39.85260174749888" lon="9.274699681601497"><ele>767.0</ele><time>2026-05-03T08:27:09Z</time></trkpt><trkpt lat="39.85265590730719" lon="9.274548328218073"><ele>767.0</ele><time>2026-05-03T08:27:11Z</time></trkpt><trkpt lat="39.85263486184246" lon="9.274427406779706"><ele>767.0</ele><time>2026-05-03T08:27:12Z</time></trkpt><trkpt lat="39.85256982534251" lon="9.27428079465223"><ele>767.0</ele><time>2026-05-03T08:27:13Z</time></trkpt><trkpt lat="39.852483852073064" lon="9.274122695120973"><ele>767.0</ele><time>2026-05-03T08:27:14Z</time></trkpt><trkpt lat="39.85238528272145" lon="9.273933685334828"><ele>766.3333333333333</ele><time>2026-05-03T08:27:15Z</time></trkpt><trkpt lat="39.85229676313341" lon="9.273753169552801"><ele>765.6666666666666</ele><time>2026-05-03T08:27:16Z</time></trkpt><trkpt lat="39.85221831988729" lon="9.273571955056456"><ele>765.0</ele><time>2026-05-03T08:27:17Z</time></trkpt><trkpt lat="39.85216487166473" lon="9.273391671126365"><ele>765.0</ele><time>2026-05-03T08:27:18Z</time></trkpt><trkpt lat="39.85214849554975" lon="9.273211996453625"><ele>765.0</ele><time>2026-05-03T08:27:19Z</time></trkpt><trkpt lat="39.85217459123232" lon="9.273041521251418"><ele>765.0</ele><time>2026-05-03T08:27:20Z</time></trkpt><trkpt lat="39.85221520356067" lon="9.272884704621763"><ele>765.0</ele><time>2026-05-03T08:27:21Z</time></trkpt><trkpt lat="39.852385801480125" lon="9.273054109646528"><ele>765.0</ele><time>2026-05-03T08:27:22Z</time></trkpt><trkpt lat="39.85248406510299" lon="9.273075648768822"><ele>765.0</ele><time>2026-05-03T08:27:23Z</time></trkpt><trkpt lat="39.852604730399825" lon="9.273155991616436"><ele>765.0</ele><time>2026-05-03T08:27:24Z</time></trkpt><trkpt lat="39.852729566278086" lon="9.273245668493303"><ele>765.0</ele><time>2026-05-03T08:27:25Z</time></trkpt><trkpt lat="39.85287340080132" lon="9.273313122169478"><ele>764.6666666666666</ele><time>2026-05-03T08:27:26Z</time></trkpt><trkpt lat="39.85304204055518" lon="9.273328810821416"><ele>764.3333333333333</ele><time>2026-05-03T08:27:27Z</time></trkpt><trkpt lat="39.853227972917715" lon="9.273331789691861"><ele>764.0</ele><time>2026-05-03T08:27:28Z</time></trkpt><trkpt lat="39.85342097630879" lon="9.273360192196813"><ele>762.3333333333333</ele><time>2026-05-03T08:27:29Z</time></trkpt><trkpt lat="39.85361993101989" lon="9.273407544937857"><ele>760.6666666666666</ele><time>2026-05-03T08:27:30Z</time></trkpt><trkpt lat="39.85381527626652" lon="9.273460403155116"><ele>759.0</ele><time>2026-05-03T08:27:31Z</time></trkpt><trkpt lat="39.85400054899473" lon="9.273509739921394"><ele>759.0</ele><time>2026-05-03T08:27:32Z</time></trkpt><trkpt lat="39.85416073029356" lon="9.27354341528823"><ele>759.0</ele><time>2026-05-03T08:27:33Z</time></trkpt><trkpt lat="39.854308369837405" lon="9.273604110663353"><ele>759.0</ele><time>2026-05-03T08:27:34Z</time></trkpt><trkpt lat="39.85444230726404" lon="9.273713342477055"><ele>760.0</ele><time>2026-05-03T08:27:35Z</time></trkpt><trkpt lat="39.85455890170357" lon="9.273847909016082"><ele>761.0</ele><time>2026-05-03T08:27:36Z</time></trkpt><trkpt lat="39.85464703401064" lon="9.27401671547465"><ele>762.0</ele><time>2026-05-03T08:27:37Z</time></trkpt><trkpt lat="39.854726151588515" lon="9.2741680246166"><ele>763.5</ele><time>2026-05-03T08:27:38Z</time></trkpt><trkpt lat="39.85482742484187" lon="9.274261232519455"><ele>765.0</ele><time>2026-05-03T08:27:39Z</time></trkpt><trkpt lat="39.85493957895491" lon="9.274313943676534"><ele>766.5</ele><time>2026-05-03T08:27:40Z</time></trkpt><trkpt lat="39.855045694014905" lon="9.274320412096062"><ele>768.0</ele><time>2026-05-03T08:27:41Z</time></trkpt><trkpt lat="39.85516508329414" lon="9.274291776654591"><ele>769.75</ele><time>2026-05-03T08:27:42Z</time></trkpt><trkpt lat="39.855278922216804" lon="9.27422164902992"><ele>771.5</ele><time>2026-05-03T08:27:43Z</time></trkpt><trkpt lat="39.85537667512171" lon="9.274121162236787"><ele>773.25</ele><time>2026-05-03T08:27:44Z</time></trkpt><trkpt lat="39.85548970109203" lon="9.274004358157546"><ele>775.0</ele><time>2026-05-03T08:27:45Z</time></trkpt><trkpt lat="39.8556055111812" lon="9.273863722073354"><ele>775.0</ele><time>2026-05-03T08:27:46Z</time></trkpt><trkpt lat="39.85572615212756" lon="9.273720026595397"><ele>775.0</ele><time>2026-05-03T08:27:47Z</time></trkpt><trkpt lat="39.85585757589329" lon="9.2735587116396"><ele>775.0</ele><time>2026-05-03T08:27:48Z</time></trkpt><trkpt lat="39.85596630782006" lon="9.273413939706092"><ele>776.6666666666666</ele><time>2026-05-03T08:27:49Z</time></trkpt><trkpt lat="39.85606792728587" lon="9.273257850464832"><ele>778.3333333333333</ele><time>2026-05-03T08:27:50Z</time></trkpt><trkpt lat="39.856169957353195" lon="9.273114029092142"><ele>780.0</ele><time>2026-05-03T08:27:51Z</time></trkpt><trkpt lat="39.85628739692068" lon="9.272985290213995"><ele>780.0</ele><time>2026-05-03T08:27:52Z</time></trkpt><trkpt lat="39.85642760472491" lon="9.27289064442512"><ele>780.0</ele><time>2026-05-03T08:27:53Z</time></trkpt><trkpt lat="39.85657237038498" lon="9.272811217116136"><ele>780.0</ele><time>2026-05-03T08:27:54Z</time></trkpt><trkpt lat="39.85671080207179" lon="9.272712415161724"><ele>783.6666666666667</ele><time>2026-05-03T08:27:55Z</time></trkpt><trkpt lat="39.8568372631784" lon="9.272582135085191"><ele>787.3333333333334</ele><time>2026-05-03T08:27:56Z</time></trkpt><trkpt lat="39.8569652921668" lon="9.272413990442198"><ele>791.0</ele><time>2026-05-03T08:27:57Z</time></trkpt><trkpt lat="39.85709935732585" lon="9.272244480732258"><ele>791.0</ele><time>2026-05-03T08:27:58Z</time></trkpt><trkpt lat="39.85721669173603" lon="9.272060953440773"><ele>791.0</ele><time>2026-05-03T08:27:59Z</time></trkpt><trkpt lat="39.857325858564344" lon="9.271852796891483"><ele>791.0</ele><time>2026-05-03T08:28:00Z</time></trkpt><trkpt lat="39.85740311320372" lon="9.271674399930433"><ele>791.0</ele><time>2026-05-03T08:28:01Z</time></trkpt><trkpt lat="39.85745882819366" lon="9.271518472780413"><ele>791.0</ele><time>2026-05-03T08:28:02Z</time></trkpt><trkpt lat="39.85748279273373" lon="9.271355125722428"><ele>791.0</ele><time>2026-05-03T08:28:03Z</time></trkpt><trkpt lat="39.85747609505215" lon="9.271181543383937"><ele>791.0</ele><time>2026-05-03T08:28:04Z</time></trkpt><trkpt lat="39.857424430221016" lon="9.271005316181354"><ele>791.75</ele><time>2026-05-03T08:28:05Z</time></trkpt><trkpt lat="39.85735180084383" lon="9.270834820628568"><ele>792.5</ele><time>2026-05-03T08:28:06Z</time></trkpt><trkpt lat="39.857359402461334" lon="9.270697590399221"><ele>793.25</ele><time>2026-05-03T08:28:07Z</time></trkpt><trkpt lat="39.85736000379528" lon="9.270561714640197"><ele>794.0</ele><time>2026-05-03T08:28:08Z</time></trkpt><trkpt lat="39.857394568021796" lon="9.270420548378606"><ele>794.0</ele><time>2026-05-03T08:28:09Z</time></trkpt><trkpt lat="39.85746424420051" lon="9.27027650699697"><ele>794.0</ele><time>2026-05-03T08:28:10Z</time></trkpt><trkpt lat="39.857565334249" lon="9.270124590058554"><ele>794.0</ele><time>2026-05-03T08:28:11Z</time></trkpt><trkpt lat="39.857678851848966" lon="9.269976972458334"><ele>794.0</ele><time>2026-05-03T08:28:12Z</time></trkpt><trkpt lat="39.8578227997572" lon="9.269822615139057"><ele>794.0</ele><time>2026-05-03T08:28:13Z</time></trkpt><trkpt lat="39.85798603602202" lon="9.269675581013338"><ele>794.0</ele><time>2026-05-03T08:28:14Z</time></trkpt><trkpt lat="39.858141365338994" lon="9.269530500691504"><ele>794.0</ele><time>2026-05-03T08:28:15Z</time></trkpt><trkpt lat="39.858278837629534" lon="9.269369922379234"><ele>794.0</ele><time>2026-05-03T08:28:16Z</time></trkpt><trkpt lat="39.85839389298377" lon="9.269181341861385"><ele>794.0</ele><time>2026-05-03T08:28:17Z</time></trkpt><trkpt lat="39.85848668628144" lon="9.269007849277024"><ele>794.0</ele><time>2026-05-03T08:28:18Z</time></trkpt><trkpt lat="39.85857326037947" lon="9.268871074080257"><ele>792.0</ele><time>2026-05-03T08:28:19Z</time></trkpt><trkpt lat="39.858678828536476" lon="9.26877366356151"><ele>790.0</ele><time>2026-05-03T08:28:20Z</time></trkpt><trkpt lat="39.85879858320329" lon="9.268731150560928"><ele>788.0</ele><time>2026-05-03T08:28:21Z</time></trkpt><trkpt lat="39.858931997476596" lon="9.268714537683453"><ele>786.0</ele><time>2026-05-03T08:28:22Z</time></trkpt><trkpt lat="39.85907854280419" lon="9.268777766750109"><ele>786.0</ele><time>2026-05-03T08:28:23Z</time></trkpt><trkpt lat="39.859213175925944" lon="9.268893444687365"><ele>786.0</ele><time>2026-05-03T08:28:24Z</time></trkpt><trkpt lat="39.85933647622925" lon="9.269003823728266"><ele>786.0</ele><time>2026-05-03T08:28:25Z</time></trkpt><trkpt lat="39.859443348707345" lon="9.269106214693362"><ele>786.0</ele><time>2026-05-03T08:28:26Z</time></trkpt><trkpt lat="39.85956755001445" lon="9.269159293747064"><ele>787.0</ele><time>2026-05-03T08:28:27Z</time></trkpt><trkpt lat="39.85970414261013" lon="9.269165252765598"><ele>788.0</ele><time>2026-05-03T08:28:28Z</time></trkpt><trkpt lat="39.859835120967496" lon="9.26911926626687"><ele>789.0</ele><time>2026-05-03T08:28:29Z</time></trkpt><trkpt lat="39.859952230700735" lon="9.269032686866371"><ele>790.0</ele><time>2026-05-03T08:28:30Z</time></trkpt><trkpt lat="39.86005236331661" lon="9.268906088073763"><ele>794.25</ele><time>2026-05-03T08:28:31Z</time></trkpt><trkpt lat="39.86013243722124" lon="9.268754582575534"><ele>798.5</ele><time>2026-05-03T08:28:32Z</time></trkpt><trkpt lat="39.860191843291474" lon="9.26856978472771"><ele>802.75</ele><time>2026-05-03T08:28:33Z</time></trkpt><trkpt lat="39.860247758845794" lon="9.268392766374879"><ele>807.0</ele><time>2026-05-03T08:28:34Z</time></trkpt><trkpt lat="39.86030552506655" lon="9.268212096091526"><ele>804.6666666666667</ele><time>2026-05-03T08:28:35Z</time></trkpt><trkpt lat="39.86038414155574" lon="9.268031993595288"><ele>802.3333333333334</ele><time>2026-05-03T08:28:36Z</time></trkpt><trkpt lat="39.8604825081238" lon="9.267869121088896"><ele>800.0</ele><time>2026-05-03T08:28:37Z</time></trkpt><trkpt lat="39.86059431829639" lon="9.267716201922184"><ele>800.0</ele><time>2026-05-03T08:28:38Z</time></trkpt><trkpt lat="39.860708990066335" lon="9.267565809722884"><ele>800.0</ele><time>2026-05-03T08:28:39Z</time></trkpt><trkpt lat="39.86083921847488" lon="9.267435791327502"><ele>800.0</ele><time>2026-05-03T08:28:40Z</time></trkpt><trkpt lat="39.860987955893066" lon="9.267337236896585"><ele>801.3333333333334</ele><time>2026-05-03T08:28:41Z</time></trkpt><trkpt lat="39.86115579660896" lon="9.267248132407055"><ele>802.6666666666667</ele><time>2026-05-03T08:28:42Z</time></trkpt><trkpt lat="39.86133525873787" lon="9.267165708386388"><ele>804.0</ele><time>2026-05-03T08:28:43Z</time></trkpt><trkpt lat="39.861499924775984" lon="9.267076176330328"><ele>804.0</ele><time>2026-05-03T08:28:44Z</time></trkpt><trkpt lat="39.86164922173214" lon="9.266978098871245"><ele>804.0</ele><time>2026-05-03T08:28:45Z</time></trkpt><trkpt lat="39.86178204042731" lon="9.26684499851303"><ele>804.0</ele><time>2026-05-03T08:28:46Z</time></trkpt><trkpt lat="39.86189724729902" lon="9.26668334627167"><ele>808.3333333333333</ele><time>2026-05-03T08:28:47Z</time></trkpt><trkpt lat="39.862006470494485" lon="9.266490294896002"><ele>812.6666666666666</ele><time>2026-05-03T08:28:48Z</time></trkpt><trkpt lat="39.86211993050331" lon="9.266287957370366"><ele>817.0</ele><time>2026-05-03T08:28:49Z</time></trkpt><trkpt lat="39.86223402332057" lon="9.26611609522911"><ele>817.0</ele><time>2026-05-03T08:28:50Z</time></trkpt><trkpt lat="39.8623553263864" lon="9.265975090500417"><ele>817.0</ele><time>2026-05-03T08:28:51Z</time></trkpt><trkpt lat="39.862499327236634" lon="9.265864807587729"><ele>817.0</ele><time>2026-05-03T08:28:52Z</time></trkpt><trkpt lat="39.86265989422432" lon="9.26577868535379"><ele>818.3333333333333</ele><time>2026-05-03T08:28:53Z</time></trkpt><trkpt lat="39.86282481361187" lon="9.265700167273566"><ele>819.6666666666667</ele><time>2026-05-03T08:28:54Z</time></trkpt><trkpt lat="39.86300225595085" lon="9.265616608136924"><ele>821.0</ele><time>2026-05-03T08:28:55Z</time></trkpt><trkpt lat="39.8631755216754" lon="9.265534301521"><ele>821.0</ele><time>2026-05-03T08:28:56Z</time></trkpt><trkpt lat="39.86334436583638" lon="9.265455283334688"><ele>821.0</ele><time>2026-05-03T08:28:57Z</time></trkpt><trkpt lat="39.86351389090655" lon="9.265399047853588"><ele>821.0</ele><time>2026-05-03T08:28:58Z</time></trkpt><trkpt lat="39.86367822569706" lon="9.265384162860709"><ele>820.0</ele><time>2026-05-03T08:28:59Z</time></trkpt><trkpt lat="39.863843860350364" lon="9.265410444621619"><ele>819.0</ele><time>2026-05-03T08:29:00Z</time></trkpt><trkpt lat="39.86399517288704" lon="9.265403845716355"><ele>818.0</ele><time>2026-05-03T08:29:01Z</time></trkpt><trkpt lat="39.86413456626564" lon="9.265410570027763"><ele>816.6666666666667</ele><time>2026-05-03T08:29:02Z</time></trkpt><trkpt lat="39.864291119162004" lon="9.265398958463495"><ele>815.3333333333333</ele><time>2026-05-03T08:29:03Z</time></trkpt><trkpt lat="39.864454273386734" lon="9.265332256661939"><ele>814.0</ele><time>2026-05-03T08:29:04Z</time></trkpt><trkpt lat="39.8646052505347" lon="9.26526573772975"><ele>814.0</ele><time>2026-05-03T08:29:05Z</time></trkpt><trkpt lat="39.86475162757496" lon="9.265189868837302"><ele>814.0</ele><time>2026-05-03T08:29:06Z</time></trkpt><trkpt lat="39.86488441954629" lon="9.265090983561482"><ele>814.0</ele><time>2026-05-03T08:29:07Z</time></trkpt><trkpt lat="39.86500344252676" lon="9.26496693477267"><ele>814.0</ele><time>2026-05-03T08:29:08Z</time></trkpt><trkpt lat="39.86510861211319" lon="9.264830465821682"><ele>814.0</ele><time>2026-05-03T08:29:09Z</time></trkpt><trkpt lat="39.86520960745228" lon="9.264692113825063"><ele>814.0</ele><time>2026-05-03T08:29:10Z</time></trkpt><trkpt lat="39.865309249965314" lon="9.264574822040627"><ele>814.0</ele><time>2026-05-03T08:29:11Z</time></trkpt><trkpt lat="39.86541706809638" lon="9.264493900391878"><ele>810.0</ele><time>2026-05-03T08:29:12Z</time></trkpt><trkpt lat="39.86554621075261" lon="9.264469904360329"><ele>806.0</ele><time>2026-05-03T08:29:13Z</time></trkpt><trkpt lat="39.8656852800671" lon="9.26448518795792"><ele>802.0</ele><time>2026-05-03T08:29:14Z</time></trkpt><trkpt lat="39.865845632076024" lon="9.264503383897678"><ele>798.0</ele><time>2026-05-03T08:29:15Z</time></trkpt><trkpt lat="39.86600964491181" lon="9.264502571926519"><ele>797.0</ele><time>2026-05-03T08:29:16Z</time></trkpt><trkpt lat="39.86619269790138" lon="9.264481003699034"><ele>796.0</ele><time>2026-05-03T08:29:17Z</time></trkpt><trkpt lat="39.866373657283965" lon="9.264446540586366"><ele>795.0</ele><time>2026-05-03T08:29:18Z</time></trkpt><trkpt lat="39.866566711546675" lon="9.264412866266484"><ele>795.0</ele><time>2026-05-03T08:29:19Z</time></trkpt><trkpt lat="39.8667703416785" lon="9.264389968039229"><ele>795.0</ele><time>2026-05-03T08:29:20Z</time></trkpt><trkpt lat="39.866964746500166" lon="9.264379344237597"><ele>795.0</ele><time>2026-05-03T08:29:21Z</time></trkpt><trkpt lat="39.86715017817977" lon="9.26438316474432"><ele>794.6666666666667</ele><time>2026-05-03T08:29:22Z</time></trkpt><trkpt lat="39.867325298530005" lon="9.264385386757414"><ele>794.3333333333334</ele><time>2026-05-03T08:29:23Z</time></trkpt><trkpt lat="39.86749223263918" lon="9.264383651114793"><ele>794.0</ele><time>2026-05-03T08:29:24Z</time></trkpt><trkpt lat="39.86764334720096" lon="9.264395916621663"><ele>794.0</ele><time>2026-05-03T08:29:25Z</time></trkpt><trkpt lat="39.86778476302335" lon="9.264430434116498"><ele>794.0</ele><time>2026-05-03T08:29:26Z</time></trkpt><trkpt lat="39.86791110994084" lon="9.264504057787816"><ele>794.0</ele><time>2026-05-03T08:29:27Z</time></trkpt><trkpt lat="39.86802207592075" lon="9.26458615743153"><ele>794.0</ele><time>2026-05-03T08:29:28Z</time></trkpt><trkpt lat="39.8681259674438" lon="9.264625876298885"><ele>794.0</ele><time>2026-05-03T08:29:29Z</time></trkpt><trkpt lat="39.868234732821314" lon="9.264644184950756"><ele>794.0</ele><time>2026-05-03T08:29:30Z</time></trkpt><trkpt lat="39.86833845362044" lon="9.264563827890129"><ele>794.0</ele><time>2026-05-03T08:29:31Z</time></trkpt><trkpt lat="39.8684166172585" lon="9.264478198534734"><ele>794.0</ele><time>2026-05-03T08:29:32Z</time></trkpt><trkpt lat="39.86849058425476" lon="9.264370386081993"><ele>794.0</ele><time>2026-05-03T08:29:33Z</time></trkpt><trkpt lat="39.868500868132905" lon="9.264213048002377"><ele>796.5</ele><time>2026-05-03T08:29:34Z</time></trkpt><trkpt lat="39.868479878972366" lon="9.264060072144146"><ele>799.0</ele><time>2026-05-03T08:29:35Z</time></trkpt><trkpt lat="39.86841946051177" lon="9.263901396263039"><ele>801.5</ele><time>2026-05-03T08:29:36Z</time></trkpt><trkpt lat="39.86832778854683" lon="9.263768486303293"><ele>804.0</ele><time>2026-05-03T08:29:37Z</time></trkpt><trkpt lat="39.86820489404451" lon="9.263631998211201"><ele>804.0</ele><time>2026-05-03T08:29:38Z</time></trkpt><trkpt lat="39.86806894410759" lon="9.263523563498447"><ele>804.0</ele><time>2026-05-03T08:29:39Z</time></trkpt><trkpt lat="39.86796201104319" lon="9.263397460983285"><ele>804.0</ele><time>2026-05-03T08:29:40Z</time></trkpt><trkpt lat="39.86783118867747" lon="9.263278283061918"><ele>804.0</ele><time>2026-05-03T08:29:41Z</time></trkpt><trkpt lat="39.867746952744334" lon="9.263191509890197"><ele>804.0</ele><time>2026-05-03T08:29:42Z</time></trkpt><trkpt lat="39.86765820731944" lon="9.263052362574413"><ele>804.0</ele><time>2026-05-03T08:29:43Z</time></trkpt><trkpt lat="39.86763182963994" lon="9.2628966304843"><ele>804.0</ele><time>2026-05-03T08:29:44Z</time></trkpt><trkpt lat="39.86766794966337" lon="9.262808525456917"><ele>804.0</ele><time>2026-05-03T08:29:46Z</time></trkpt><trkpt lat="39.86775278738089" lon="9.262740867834141"><ele>803.25</ele><time>2026-05-03T08:29:47Z</time></trkpt><trkpt lat="39.86785674168135" lon="9.26270902206593"><ele>802.5</ele><time>2026-05-03T08:29:48Z</time></trkpt><trkpt lat="39.86798652760802" lon="9.26267906336683"><ele>801.75</ele><time>2026-05-03T08:29:49Z</time></trkpt><trkpt lat="39.8681337595031" lon="9.262642303421718"><ele>801.0</ele><time>2026-05-03T08:29:50Z</time></trkpt><trkpt lat="39.8682999530134" lon="9.262593589816328"><ele>806.0</ele><time>2026-05-03T08:29:51Z</time></trkpt><trkpt lat="39.8684821229261" lon="9.262548737457193"><ele>811.0</ele><time>2026-05-03T08:29:52Z</time></trkpt><trkpt lat="39.868678283111194" lon="9.262503862717315"><ele>816.0</ele><time>2026-05-03T08:29:53Z</time></trkpt><trkpt lat="39.86888505383913" lon="9.262451888834025"><ele>816.0</ele><time>2026-05-03T08:29:54Z</time></trkpt><trkpt lat="39.86908067482922" lon="9.262388759024867"><ele>816.0</ele><time>2026-05-03T08:29:55Z</time></trkpt><trkpt lat="39.869253291466784" lon="9.262295221553346"><ele>816.0</ele><time>2026-05-03T08:29:56Z</time></trkpt><trkpt lat="39.86941730194547" lon="9.262159326145806"><ele>816.0</ele><time>2026-05-03T08:29:57Z</time></trkpt><trkpt lat="39.869590494034426" lon="9.261987444806813"><ele>816.0</ele><time>2026-05-03T08:29:58Z</time></trkpt><trkpt lat="39.86975980144458" lon="9.261820851156003"><ele>816.0</ele><time>2026-05-03T08:29:59Z</time></trkpt><trkpt lat="39.869895943046345" lon="9.26168742874764"><ele>816.0</ele><time>2026-05-03T08:30:00Z</time></trkpt><trkpt lat="39.87004255966778" lon="9.261637243245728"><ele>816.0</ele><time>2026-05-03T08:30:01Z</time></trkpt><trkpt lat="39.87015536583037" lon="9.261522454055056"><ele>816.0</ele><time>2026-05-03T08:30:02Z</time></trkpt><trkpt lat="39.87009464495203" lon="9.261275405132146"><ele>817.0</ele><time>2026-05-03T08:30:03Z</time></trkpt><trkpt lat="39.87008244398288" lon="9.261086060790523"><ele>818.0</ele><time>2026-05-03T08:30:04Z</time></trkpt><trkpt lat="39.8700572442197" lon="9.260878166687112"><ele>819.0</ele><time>2026-05-03T08:30:05Z</time></trkpt><trkpt lat="39.870074252798275" lon="9.260708383625024"><ele>820.0</ele><time>2026-05-03T08:30:06Z</time></trkpt><trkpt lat="39.87015970007552" lon="9.260590169692044"><ele>820.0</ele><time>2026-05-03T08:30:07Z</time></trkpt><trkpt lat="39.870253257818014" lon="9.26044445679499"><ele>820.0</ele><time>2026-05-03T08:30:08Z</time></trkpt><trkpt lat="39.87036674328468" lon="9.260286850701057"><ele>820.0</ele><time>2026-05-03T08:30:09Z</time></trkpt><trkpt lat="39.87049165069227" lon="9.260125416353508"><ele>820.0</ele><time>2026-05-03T08:30:10Z</time></trkpt><trkpt lat="39.87062962659663" lon="9.259961466063812"><ele>820.0</ele><time>2026-05-03T08:30:11Z</time></trkpt><trkpt lat="39.87077335915514" lon="9.259789411069784"><ele>820.0</ele><time>2026-05-03T08:30:12Z</time></trkpt><trkpt lat="39.87093327973027" lon="9.25960504428047"><ele>821.6666666666666</ele><time>2026-05-03T08:30:13Z</time></trkpt><trkpt lat="39.871089095997995" lon="9.25941991089785"><ele>823.3333333333333</ele><time>2026-05-03T08:30:14Z</time></trkpt><trkpt lat="39.87124387025303" lon="9.259249627569213"><ele>825.0</ele><time>2026-05-03T08:30:15Z</time></trkpt><trkpt lat="39.871380146211855" lon="9.25908655247596"><ele>816.0</ele><time>2026-05-03T08:30:16Z</time></trkpt><trkpt lat="39.87149890299523" lon="9.258921520514972"><ele>807.0</ele><time>2026-05-03T08:30:17Z</time></trkpt><trkpt lat="39.87160026326767" lon="9.25872739815088"><ele>798.0</ele><time>2026-05-03T08:30:18Z</time></trkpt><trkpt lat="39.87167677877904" lon="9.25852614259085"><ele>798.0</ele><time>2026-05-03T08:30:19Z</time></trkpt><trkpt lat="39.871733696695465" lon="9.258332304710777"><ele>798.0</ele><time>2026-05-03T08:30:20Z</time></trkpt><trkpt lat="39.87177941017376" lon="9.258161162760626"><ele>798.0</ele><time>2026-05-03T08:30:21Z</time></trkpt><trkpt lat="39.871812040383915" lon="9.258029212070383"><ele>798.0</ele><time>2026-05-03T08:30:22Z</time></trkpt><trkpt lat="39.871848352099924" lon="9.25790750162371"><ele>797.0</ele><time>2026-05-03T08:30:23Z</time></trkpt><trkpt lat="39.8719060536535" lon="9.257798466862623"><ele>796.0</ele><time>2026-05-03T08:30:24Z</time></trkpt><trkpt lat="39.871945791916595" lon="9.257677810046241"><ele>795.0</ele><time>2026-05-03T08:30:25Z</time></trkpt><trkpt lat="39.87202195926219" lon="9.257587810984605"><ele>794.0</ele><time>2026-05-03T08:30:26Z</time></trkpt><trkpt lat="39.87211439958969" lon="9.257537206159084"><ele>793.0</ele><time>2026-05-03T08:30:27Z</time></trkpt><trkpt lat="39.872214257075456" lon="9.257525278601893"><ele>793.0</ele><time>2026-05-03T08:30:28Z</time></trkpt><trkpt lat="39.87233252834385" lon="9.257529499257647"><ele>793.0</ele><time>2026-05-03T08:30:29Z</time></trkpt><trkpt lat="39.87247362234096" lon="9.257536224999011"><ele>793.0</ele><time>2026-05-03T08:30:30Z</time></trkpt><trkpt lat="39.87262654171184" lon="9.257540622596402"><ele>793.0</ele><time>2026-05-03T08:30:31Z</time></trkpt><trkpt lat="39.872779024142915" lon="9.257554640230307"><ele>792.25</ele><time>2026-05-03T08:30:32Z</time></trkpt><trkpt lat="39.872929613302276" lon="9.25756119693693"><ele>791.5</ele><time>2026-05-03T08:30:33Z</time></trkpt><trkpt lat="39.87307298196736" lon="9.257562613490812"><ele>790.75</ele><time>2026-05-03T08:30:34Z</time></trkpt><trkpt lat="39.87321897667291" lon="9.257550362510319"><ele>790.0</ele><time>2026-05-03T08:30:35Z</time></trkpt><trkpt lat="39.873362399301506" lon="9.25751493524045"><ele>791.5</ele><time>2026-05-03T08:30:36Z</time></trkpt><trkpt lat="39.87351837688608" lon="9.257455229848576"><ele>793.0</ele><time>2026-05-03T08:30:37Z</time></trkpt><trkpt lat="39.87365616401452" lon="9.257409011999583"><ele>794.5</ele><time>2026-05-03T08:30:38Z</time></trkpt><trkpt lat="39.873798303959305" lon="9.257386894687212"><ele>796.0</ele><time>2026-05-03T08:30:39Z</time></trkpt><trkpt lat="39.873936812144954" lon="9.257380395904457"><ele>796.0</ele><time>2026-05-03T08:30:40Z</time></trkpt><trkpt lat="39.87406794417237" lon="9.25736875510333"><ele>796.0</ele><time>2026-05-03T08:30:41Z</time></trkpt><trkpt lat="39.87419219604283" lon="9.257354429742506"><ele>796.0</ele><time>2026-05-03T08:30:42Z</time></trkpt><trkpt lat="39.87430210574786" lon="9.257315709391602"><ele>796.0</ele><time>2026-05-03T08:30:43Z</time></trkpt><trkpt lat="39.8743843310668" lon="9.25723337219055"><ele>794.8</ele><time>2026-05-03T08:30:44Z</time></trkpt><trkpt lat="39.874441087967355" lon="9.25712999293713"><ele>793.5999999999999</ele><time>2026-05-03T08:30:45Z</time></trkpt><trkpt lat="39.87448087802142" lon="9.256992807428905"><ele>792.4</ele><time>2026-05-03T08:30:46Z</time></trkpt><trkpt lat="39.87449434999703" lon="9.25685335417869"><ele>791.2</ele><time>2026-05-03T08:30:47Z</time></trkpt><trkpt lat="39.874510429466696" lon="9.256714845270869"><ele>790.0</ele><time>2026-05-03T08:30:48Z</time></trkpt><trkpt lat="39.874540088875705" lon="9.256580894488408"><ele>790.0</ele><time>2026-05-03T08:30:49Z</time></trkpt><trkpt lat="39.874592493218394" lon="9.256466658210712"><ele>790.0</ele><time>2026-05-03T08:30:50Z</time></trkpt><trkpt lat="39.87467330541989" lon="9.256362200982771"><ele>790.0</ele><time>2026-05-03T08:30:51Z</time></trkpt><trkpt lat="39.87479079149031" lon="9.256274485785227"><ele>790.0</ele><time>2026-05-03T08:30:52Z</time></trkpt><trkpt lat="39.874905416347346" lon="9.2561911207542"><ele>784.5</ele><time>2026-05-03T08:30:53Z</time></trkpt><trkpt lat="39.87501365220302" lon="9.256128078774813"><ele>779.0</ele><time>2026-05-03T08:30:54Z</time></trkpt><trkpt lat="39.87512547569741" lon="9.256072656622202"><ele>773.5</ele><time>2026-05-03T08:30:55Z</time></trkpt><trkpt lat="39.87523183154091" lon="9.256018314190129"><ele>768.0</ele><time>2026-05-03T08:30:56Z</time></trkpt><trkpt lat="39.87534268453364" lon="9.25599151187661"><ele>766.5999999999999</ele><time>2026-05-03T08:30:57Z</time></trkpt><trkpt lat="39.8754554744379" lon="9.25601515693284"><ele>765.1999999999999</ele><time>2026-05-03T08:30:58Z</time></trkpt><trkpt lat="39.875561073819284" lon="9.256048128187198"><ele>763.8</ele><time>2026-05-03T08:30:59Z</time></trkpt><trkpt lat="39.87566483050755" lon="9.256081595623758"><ele>762.4</ele><time>2026-05-03T08:31:00Z</time></trkpt><trkpt lat="39.87576237773775" lon="9.256112936325462"><ele>761.0</ele><time>2026-05-03T08:31:01Z</time></trkpt><trkpt lat="39.875848630092186" lon="9.256145089883994"><ele>761.0</ele><time>2026-05-03T08:31:02Z</time></trkpt><trkpt lat="39.875934070640895" lon="9.25617843027894"><ele>761.0</ele><time>2026-05-03T08:31:03Z</time></trkpt><trkpt lat="39.87600962184483" lon="9.256199478623241"><ele>761.0</ele><time>2026-05-03T08:31:04Z</time></trkpt><trkpt lat="39.87608915298118" lon="9.256225863627748"><ele>761.0</ele><time>2026-05-03T08:31:05Z</time></trkpt><trkpt lat="39.87616592673311" lon="9.256268217183292"><ele>761.0</ele><time>2026-05-03T08:31:06Z</time></trkpt><trkpt lat="39.87624580940793" lon="9.256318752467191"><ele>761.0</ele><time>2026-05-03T08:31:07Z</time></trkpt><trkpt lat="39.87632621369212" lon="9.256380990931918"><ele>760.0</ele><time>2026-05-03T08:31:08Z</time></trkpt><trkpt lat="39.87640000078811" lon="9.25644170537044"><ele>759.0</ele><time>2026-05-03T08:31:09Z</time></trkpt><trkpt lat="39.876452048481056" lon="9.256492458052469"><ele>758.0</ele><time>2026-05-03T08:31:10Z</time></trkpt><trkpt lat="39.87651674238078" lon="9.256508164922886"><ele>757.0</ele><time>2026-05-03T08:31:11Z</time></trkpt><trkpt lat="39.876589640463564" lon="9.256515107823697"><ele>756.0</ele><time>2026-05-03T08:31:12Z</time></trkpt><trkpt lat="39.876662799392214" lon="9.256471416744303"><ele>755.0</ele><time>2026-05-03T08:31:13Z</time></trkpt><trkpt lat="39.876735530254074" lon="9.256401580134586"><ele>758.5</ele><time>2026-05-03T08:31:14Z</time></trkpt><trkpt lat="39.87679279112" lon="9.256298071483629"><ele>762.0</ele><time>2026-05-03T08:31:15Z</time></trkpt><trkpt lat="39.87683403015173" lon="9.25621501565941"><ele>765.5</ele><time>2026-05-03T08:31:16Z</time></trkpt><trkpt lat="39.876876694013426" lon="9.25612904950619"><ele>769.0</ele><time>2026-05-03T08:31:17Z</time></trkpt><trkpt lat="39.87691706859442" lon="9.256041828387875"><ele>772.5000000000001</ele><time>2026-05-03T08:31:18Z</time></trkpt><trkpt lat="39.8769590754957" lon="9.25596000750974"><ele>776.0</ele><time>2026-05-03T08:31:19Z</time></trkpt><trkpt lat="39.87699493476754" lon="9.255875208999676"><ele>776.0</ele><time>2026-05-03T08:31:20Z</time></trkpt><trkpt lat="39.877018098585694" lon="9.255790307676545"><ele>776.0</ele><time>2026-05-03T08:31:21Z</time></trkpt><trkpt lat="39.877035723434176" lon="9.255701324521016"><ele>776.0</ele><time>2026-05-03T08:31:22Z</time></trkpt><trkpt lat="39.87705188914373" lon="9.255614138924084"><ele>776.0</ele><time>2026-05-03T08:31:23Z</time></trkpt><trkpt lat="39.877059581849345" lon="9.255521109559202"><ele>776.0</ele><time>2026-05-03T08:31:24Z</time></trkpt><trkpt lat="39.87706561148541" lon="9.255417842269058"><ele>776.0</ele><time>2026-05-03T08:31:25Z</time></trkpt><trkpt lat="39.8770742091553" lon="9.25531464004894"><ele>776.0</ele><time>2026-05-03T08:31:26Z</time></trkpt><trkpt lat="39.877104787537014" lon="9.2552069440248"><ele>773.3333333333334</ele><time>2026-05-03T08:31:27Z</time></trkpt><trkpt lat="39.87715806775737" lon="9.255101316146307"><ele>770.6666666666667</ele><time>2026-05-03T08:31:28Z</time></trkpt><trkpt lat="39.87724287402397" lon="9.255012700865166"><ele>768.0</ele><time>2026-05-03T08:31:29Z</time></trkpt><trkpt lat="39.877288636107416" lon="9.254923045293332"><ele>765.3333333333334</ele><time>2026-05-03T08:31:30Z</time></trkpt><trkpt lat="39.877349948266264" lon="9.254844424112799"><ele>762.6666666666667</ele><time>2026-05-03T08:31:31Z</time></trkpt><trkpt lat="39.87740416450123" lon="9.254780884916169"><ele>760.0</ele><time>2026-05-03T08:31:32Z</time></trkpt><trkpt lat="39.877475444223776" lon="9.2547190043379"><ele>756.4</ele><time>2026-05-03T08:31:33Z</time></trkpt><trkpt lat="39.87755002280065" lon="9.254676902989647"><ele>752.8</ele><time>2026-05-03T08:31:34Z</time></trkpt><trkpt lat="39.87763560293063" lon="9.254651289922975"><ele>749.2</ele><time>2026-05-03T08:31:35Z</time></trkpt><trkpt lat="39.87774342484688" lon="9.254642732331945"><ele>745.6</ele><time>2026-05-03T08:31:36Z</time></trkpt><trkpt lat="39.87785125672347" lon="9.254628942475588"><ele>742.0</ele><time>2026-05-03T08:31:37Z</time></trkpt><trkpt lat="39.87798598000452" lon="9.254640656371043"><ele>742.0</ele><time>2026-05-03T08:31:38Z</time></trkpt><trkpt lat="39.87812825925203" lon="9.254623830576033"><ele>742.0</ele><time>2026-05-03T08:31:39Z</time></trkpt><trkpt lat="39.87827573357958" lon="9.254586758338524"><ele>742.0</ele><time>2026-05-03T08:31:40Z</time></trkpt><trkpt lat="39.87841577106383" lon="9.254561697307283"><ele>742.0</ele><time>2026-05-03T08:31:41Z</time></trkpt><trkpt lat="39.87854448011541" lon="9.254532038441997"><ele>744.6</ele><time>2026-05-03T08:31:42Z</time></trkpt><trkpt lat="39.87864153543836" lon="9.25450096350938"><ele>747.2</ele><time>2026-05-03T08:31:43Z</time></trkpt><trkpt lat="39.878727384222536" lon="9.254427451063059"><ele>749.8</ele><time>2026-05-03T08:31:44Z</time></trkpt><trkpt lat="39.87877565414999" lon="9.254311726587153"><ele>752.4</ele><time>2026-05-03T08:31:45Z</time></trkpt><trkpt lat="39.878793973437354" lon="9.254190044544522"><ele>755.0</ele><time>2026-05-03T08:31:46Z</time></trkpt><trkpt lat="39.8787828562914" lon="9.254054750580304"><ele>756.0</ele><time>2026-05-03T08:31:47Z</time></trkpt><trkpt lat="39.8787347579031" lon="9.253939090996207"><ele>757.0</ele><time>2026-05-03T08:31:48Z</time></trkpt><trkpt lat="39.87863956119881" lon="9.253857330469401"><ele>758.0</ele><time>2026-05-03T08:31:49Z</time></trkpt><trkpt lat="39.878521118630864" lon="9.25377882703091"><ele>759.0</ele><time>2026-05-03T08:31:50Z</time></trkpt><trkpt lat="39.87837765023402" lon="9.253731847557987"><ele>759.0</ele><time>2026-05-03T08:31:51Z</time></trkpt><trkpt lat="39.87825652433992" lon="9.253635391687505"><ele>759.0</ele><time>2026-05-03T08:31:52Z</time></trkpt><trkpt lat="39.87814609574099" lon="9.253491142181431"><ele>759.0</ele><time>2026-05-03T08:31:53Z</time></trkpt><trkpt lat="39.87805063428413" lon="9.253365054911312"><ele>759.0</ele><time>2026-05-03T08:31:54Z</time></trkpt><trkpt lat="39.87797917363799" lon="9.253225914769851"><ele>764.5</ele><time>2026-05-03T08:31:55Z</time></trkpt><trkpt lat="39.87792384397459" lon="9.253068931138307"><ele>770.0</ele><time>2026-05-03T08:31:56Z</time></trkpt><trkpt lat="39.87788666081735" lon="9.252890605493626"><ele>775.5</ele><time>2026-05-03T08:31:57Z</time></trkpt><trkpt lat="39.8778512044736" lon="9.252731315382588"><ele>781.0</ele><time>2026-05-03T08:31:58Z</time></trkpt><trkpt lat="39.87780222977925" lon="9.252606534962112"><ele>781.0</ele><time>2026-05-03T08:31:59Z</time></trkpt><trkpt lat="39.8777342091763" lon="9.252525938156937"><ele>781.0</ele><time>2026-05-03T08:32:00Z</time></trkpt><trkpt lat="39.87764218733025" lon="9.25248191248542"><ele>781.0</ele><time>2026-05-03T08:32:01Z</time></trkpt><trkpt lat="39.877536257738676" lon="9.25247956704195"><ele>781.0</ele><time>2026-05-03T08:32:02Z</time></trkpt><trkpt lat="39.87743748183835" lon="9.25250303816827"><ele>781.0</ele><time>2026-05-03T08:32:03Z</time></trkpt><trkpt lat="39.87737651767142" lon="9.25263091032063"><ele>775.75</ele><time>2026-05-03T08:32:04Z</time></trkpt><trkpt lat="39.877324780848426" lon="9.252765080896838"><ele>770.5</ele><time>2026-05-03T08:32:05Z</time></trkpt><trkpt lat="39.877267995687404" lon="9.252898159981088"><ele>765.25</ele><time>2026-05-03T08:32:06Z</time></trkpt><trkpt lat="39.87716781576059" lon="9.252992655324293"><ele>760.0</ele><time>2026-05-03T08:32:07Z</time></trkpt><trkpt lat="39.87706199663384" lon="9.253079820287452"><ele>762.6666666666667</ele><time>2026-05-03T08:32:08Z</time></trkpt><trkpt lat="39.876934363043105" lon="9.253171018985514"><ele>765.3333333333334</ele><time>2026-05-03T08:32:09Z</time></trkpt><trkpt lat="39.87679077336902" lon="9.253272923231622"><ele>768.0</ele><time>2026-05-03T08:32:10Z</time></trkpt><trkpt lat="39.87665483890732" lon="9.253374318854334"><ele>768.0</ele><time>2026-05-03T08:32:11Z</time></trkpt><trkpt lat="39.87651879530587" lon="9.253476032589878"><ele>768.0</ele><time>2026-05-03T08:32:12Z</time></trkpt><trkpt lat="39.87637870611441" lon="9.253571772911837"><ele>768.0</ele><time>2026-05-03T08:32:13Z</time></trkpt><trkpt lat="39.87622962581725" lon="9.253642840753216"><ele>768.0</ele><time>2026-05-03T08:32:14Z</time></trkpt><trkpt lat="39.876091823431075" lon="9.253689588694064"><ele>768.0</ele><time>2026-05-03T08:32:15Z</time></trkpt><trkpt lat="39.87596892834064" lon="9.253717898756161"><ele>768.0</ele><time>2026-05-03T08:32:16Z</time></trkpt><trkpt lat="39.87585780330413" lon="9.253733301173646"><ele>768.0</ele><time>2026-05-03T08:32:17Z</time></trkpt><trkpt lat="39.87575074081569" lon="9.25369674317874"><ele>769.0</ele><time>2026-05-03T08:32:18Z</time></trkpt><trkpt lat="39.87566430692967" lon="9.253606253210254"><ele>770.0</ele><time>2026-05-03T08:32:19Z</time></trkpt><trkpt lat="39.87561018764341" lon="9.253500439195651"><ele>771.0</ele><time>2026-05-03T08:32:20Z</time></trkpt><trkpt lat="39.87558083206601" lon="9.253375893000243"><ele>772.0</ele><time>2026-05-03T08:32:21Z</time></trkpt><trkpt lat="39.87557894454684" lon="9.25323472912611"><ele>773.0</ele><time>2026-05-03T08:32:22Z</time></trkpt><trkpt lat="39.87559130276769" lon="9.253078624414531"><ele>778.25</ele><time>2026-05-03T08:32:23Z</time></trkpt><trkpt lat="39.87559253380199" lon="9.25291264754818"><ele>783.5</ele><time>2026-05-03T08:32:24Z</time></trkpt><trkpt lat="39.87557804609333" lon="9.252757339899702"><ele>788.75</ele><time>2026-05-03T08:32:25Z</time></trkpt><trkpt lat="39.87553726545357" lon="9.252620563782925"><ele>794.0</ele><time>2026-05-03T08:32:26Z</time></trkpt><trkpt lat="39.875455549551546" lon="9.252504561916606"><ele>794.0</ele><time>2026-05-03T08:32:27Z</time></trkpt><trkpt lat="39.87535059078734" lon="9.25238454216661"><ele>794.0</ele><time>2026-05-03T08:32:28Z</time></trkpt><trkpt lat="39.87522966967104" lon="9.252322136631882"><ele>794.0</ele><time>2026-05-03T08:32:29Z</time></trkpt><trkpt lat="39.87510134387018" lon="9.252270557157434"><ele>794.0</ele><time>2026-05-03T08:32:30Z</time></trkpt><trkpt lat="39.87495546128883" lon="9.252227989323764"><ele>798.6666666666667</ele><time>2026-05-03T08:32:31Z</time></trkpt><trkpt lat="39.87479409006438" lon="9.252226495342693"><ele>803.3333333333333</ele><time>2026-05-03T08:32:32Z</time></trkpt><trkpt lat="39.87462925020241" lon="9.252228967794144"><ele>808.0</ele><time>2026-05-03T08:32:33Z</time></trkpt><trkpt lat="39.87445307615286" lon="9.252212119047721"><ele>810.3333333333333</ele><time>2026-05-03T08:32:34Z</time></trkpt><trkpt lat="39.87426957762317" lon="9.25217855247698"><ele>812.6666666666667</ele><time>2026-05-03T08:32:35Z</time></trkpt><trkpt lat="39.87410683991482" lon="9.25214674516021"><ele>815.0</ele><time>2026-05-03T08:32:36Z</time></trkpt><trkpt lat="39.8739486369429" lon="9.252120443085767"><ele>815.0</ele><time>2026-05-03T08:32:37Z</time></trkpt><trkpt lat="39.873785753912514" lon="9.25214801086171"><ele>815.0</ele><time>2026-05-03T08:32:38Z</time></trkpt><trkpt lat="39.87363356439655" lon="9.252205733089742"><ele>815.0</ele><time>2026-05-03T08:32:39Z</time></trkpt><trkpt lat="39.87348241760871" lon="9.252265790136533"><ele>805.5</ele><time>2026-05-03T08:32:40Z</time></trkpt><trkpt lat="39.87335359803701" lon="9.252316975594816"><ele>796.0</ele><time>2026-05-03T08:32:41Z</time></trkpt><trkpt lat="39.87324013470602" lon="9.252372529868705"><ele>786.5</ele><time>2026-05-03T08:32:42Z</time></trkpt><trkpt lat="39.8731340333048" lon="9.252361057160886"><ele>777.0</ele><time>2026-05-03T08:32:43Z</time></trkpt><trkpt lat="39.87304899281349" lon="9.252300727666057"><ele>782.0</ele><time>2026-05-03T08:32:44Z</time></trkpt><trkpt lat="39.872985774773284" lon="9.252198977164944"><ele>787.0</ele><time>2026-05-03T08:32:45Z</time></trkpt><trkpt lat="39.87294960792823" lon="9.252070960427234"><ele>792.0</ele><time>2026-05-03T08:32:46Z</time></trkpt><trkpt lat="39.87295093074087" lon="9.25193499190632"><ele>797.0</ele><time>2026-05-03T08:32:47Z</time></trkpt><trkpt lat="39.872973677048314" lon="9.251788933981112"><ele>802.0</ele><time>2026-05-03T08:32:48Z</time></trkpt><trkpt lat="39.87297399997686" lon="9.251640832283375"><ele>802.0</ele><time>2026-05-03T08:32:49Z</time></trkpt><trkpt lat="39.87293416752123" lon="9.251503238550628"><ele>802.0</ele><time>2026-05-03T08:32:50Z</time></trkpt><trkpt lat="39.872879663159004" lon="9.25135335736611"><ele>802.0</ele><time>2026-05-03T08:32:51Z</time></trkpt><trkpt lat="39.87276690092719" lon="9.251218373968308"><ele>802.0</ele><time>2026-05-03T08:32:52Z</time></trkpt><trkpt lat="39.87263441272753" lon="9.251088615589321"><ele>799.3333333333333</ele><time>2026-05-03T08:32:53Z</time></trkpt><trkpt lat="39.872519701063254" lon="9.251003178262938"><ele>796.6666666666667</ele><time>2026-05-03T08:32:54Z</time></trkpt><trkpt lat="39.87240517202483" lon="9.250862584912738"><ele>794.0</ele><time>2026-05-03T08:32:55Z</time></trkpt><trkpt lat="39.872267029003716" lon="9.250722011648069"><ele>800.6666666666667</ele><time>2026-05-03T08:32:56Z</time></trkpt><trkpt lat="39.872127654528875" lon="9.250576823981515"><ele>807.3333333333333</ele><time>2026-05-03T08:32:57Z</time></trkpt><trkpt lat="39.87199195364499" lon="9.250411460834712"><ele>814.0</ele><time>2026-05-03T08:32:58Z</time></trkpt><trkpt lat="39.87185508906673" lon="9.25024592064605"><ele>806.0</ele><time>2026-05-03T08:32:59Z</time></trkpt><trkpt lat="39.87172309757486" lon="9.25010241688498"><ele>798.0</ele><time>2026-05-03T08:33:00Z</time></trkpt><trkpt lat="39.8715904995641" lon="9.249978527464616"><ele>790.0</ele><time>2026-05-03T08:33:01Z</time></trkpt><trkpt lat="39.87145912253173" lon="9.249866419752227"><ele>793.5</ele><time>2026-05-03T08:33:02Z</time></trkpt><trkpt lat="39.87133535919146" lon="9.249755283425785"><ele>797.0</ele><time>2026-05-03T08:33:03Z</time></trkpt><trkpt lat="39.8712364711514" lon="9.249626254002733"><ele>800.5</ele><time>2026-05-03T08:33:04Z</time></trkpt><trkpt lat="39.871164744100604" lon="9.249470674431576"><ele>804.0</ele><time>2026-05-03T08:33:05Z</time></trkpt><trkpt lat="39.87110528553587" lon="9.249305020489805"><ele>804.0</ele><time>2026-05-03T08:33:06Z</time></trkpt><trkpt lat="39.871059417493065" lon="9.249123899886568"><ele>804.0</ele><time>2026-05-03T08:33:07Z</time></trkpt><trkpt lat="39.87103553381997" lon="9.24892594063524"><ele>804.0</ele><time>2026-05-03T08:33:08Z</time></trkpt><trkpt lat="39.87101230749453" lon="9.248722941652609"><ele>801.0</ele><time>2026-05-03T08:33:09Z</time></trkpt><trkpt lat="39.870986324533185" lon="9.248519416548337"><ele>798.0</ele><time>2026-05-03T08:33:10Z</time></trkpt><trkpt lat="39.870944791091446" lon="9.248318980545788"><ele>795.0</ele><time>2026-05-03T08:33:11Z</time></trkpt><trkpt lat="39.870882879277296" lon="9.248114278145108"><ele>795.0</ele><time>2026-05-03T08:33:12Z</time></trkpt><trkpt lat="39.87081596202603" lon="9.247904683468738"><ele>795.0</ele><time>2026-05-03T08:33:13Z</time></trkpt><trkpt lat="39.87072494780175" lon="9.247703574862921"><ele>795.0</ele><time>2026-05-03T08:33:14Z</time></trkpt><trkpt lat="39.870632113627344" lon="9.247510224547732"><ele>795.0</ele><time>2026-05-03T08:33:15Z</time></trkpt><trkpt lat="39.870543243376815" lon="9.247311587456466"><ele>795.0</ele><time>2026-05-03T08:33:16Z</time></trkpt><trkpt lat="39.870457074906604" lon="9.247109095761495"><ele>795.0</ele><time>2026-05-03T08:33:17Z</time></trkpt><trkpt lat="39.87037439481806" lon="9.246922995949511"><ele>797.3333333333333</ele><time>2026-05-03T08:33:18Z</time></trkpt><trkpt lat="39.8702960019715" lon="9.24674530019069"><ele>799.6666666666666</ele><time>2026-05-03T08:33:19Z</time></trkpt><trkpt lat="39.870230663219296" lon="9.24656776893253"><ele>802.0</ele><time>2026-05-03T08:33:20Z</time></trkpt><trkpt lat="39.87018398332951" lon="9.246386809250351"><ele>802.0</ele><time>2026-05-03T08:33:21Z</time></trkpt><trkpt lat="39.87015349404322" lon="9.246195584646124"><ele>802.0</ele><time>2026-05-03T08:33:22Z</time></trkpt><trkpt lat="39.87014597170864" lon="9.246000602386905"><ele>802.0</ele><time>2026-05-03T08:33:23Z</time></trkpt><trkpt lat="39.87014503328582" lon="9.24581090994993"><ele>802.0</ele><time>2026-05-03T08:33:24Z</time></trkpt><trkpt lat="39.87015567043291" lon="9.245635487087416"><ele>796.0</ele><time>2026-05-03T08:33:25Z</time></trkpt><trkpt lat="39.870183378814104" lon="9.245473520197757"><ele>790.0</ele><time>2026-05-03T08:33:26Z</time></trkpt><trkpt lat="39.870244484185086" lon="9.245332839546116"><ele>784.0</ele><time>2026-05-03T08:33:27Z</time></trkpt><trkpt lat="39.87033439428688" lon="9.24521720325827"><ele>778.0</ele><time>2026-05-03T08:33:28Z</time></trkpt><trkpt lat="39.87043715599491" lon="9.245123149516"><ele>778.0</ele><time>2026-05-03T08:33:29Z</time></trkpt><trkpt lat="39.87056026387533" lon="9.245055055560172"><ele>778.0</ele><time>2026-05-03T08:33:30Z</time></trkpt><trkpt lat="39.87069767694724" lon="9.245001420357829"><ele>778.0</ele><time>2026-05-03T08:33:31Z</time></trkpt><trkpt lat="39.87084888378611" lon="9.244946419191633"><ele>778.0</ele><time>2026-05-03T08:33:32Z</time></trkpt><trkpt lat="39.87100826922701" lon="9.244884899603804"><ele>779.25</ele><time>2026-05-03T08:33:33Z</time></trkpt><trkpt lat="39.87115832128969" lon="9.244831989094772"><ele>780.5</ele><time>2026-05-03T08:33:34Z</time></trkpt><trkpt lat="39.87129280285732" lon="9.244778957512477"><ele>781.75</ele><time>2026-05-03T08:33:35Z</time></trkpt><trkpt lat="39.87141437177387" lon="9.24471930822503"><ele>783.0</ele><time>2026-05-03T08:33:36Z</time></trkpt><trkpt lat="39.87150816077389" lon="9.244651104863577"><ele>783.0</ele><time>2026-05-03T08:33:37Z</time></trkpt><trkpt lat="39.871570006603925" lon="9.244556033888934"><ele>783.0</ele><time>2026-05-03T08:33:38Z</time></trkpt><trkpt lat="39.87160083134261" lon="9.244454932567184"><ele>783.0</ele><time>2026-05-03T08:33:39Z</time></trkpt><trkpt lat="39.87160410657151" lon="9.244348047592853"><ele>783.0</ele><time>2026-05-03T08:33:40Z</time></trkpt><trkpt lat="39.87157275361016" lon="9.244229462134236"><ele>783.0</ele><time>2026-05-03T08:33:41Z</time></trkpt><trkpt lat="39.87150274352668" lon="9.2441295228684"><ele>783.0</ele><time>2026-05-03T08:33:42Z</time></trkpt><trkpt lat="39.871403223525576" lon="9.244062992754408"><ele>783.0</ele><time>2026-05-03T08:33:43Z</time></trkpt><trkpt lat="39.87127114941655" lon="9.244025867590125"><ele>783.0</ele><time>2026-05-03T08:33:44Z</time></trkpt><trkpt lat="39.8711296101161" lon="9.24398029481446"><ele>783.0</ele><time>2026-05-03T08:33:45Z</time></trkpt><trkpt lat="39.87099405806461" lon="9.243929979650732"><ele>780.0</ele><time>2026-05-03T08:33:46Z</time></trkpt><trkpt lat="39.870868550541694" lon="9.24385927498161"><ele>777.0</ele><time>2026-05-03T08:33:47Z</time></trkpt><trkpt lat="39.87076383966906" lon="9.243759645181274"><ele>774.0</ele><time>2026-05-03T08:33:48Z</time></trkpt><trkpt lat="39.87068041111669" lon="9.24362265840037"><ele>771.0</ele><time>2026-05-03T08:33:49Z</time></trkpt><trkpt lat="39.87063031789428" lon="9.243470944232676"><ele>771.0</ele><time>2026-05-03T08:33:50Z</time></trkpt><trkpt lat="39.87058269013858" lon="9.243303975316227"><ele>771.0</ele><time>2026-05-03T08:33:51Z</time></trkpt><trkpt lat="39.87057271826418" lon="9.243123519906819"><ele>771.0</ele><time>2026-05-03T08:33:52Z</time></trkpt><trkpt lat="39.87057878244415" lon="9.24294137217854"><ele>771.0</ele><time>2026-05-03T08:33:53Z</time></trkpt><trkpt lat="39.870590033337244" lon="9.242744713790758"><ele>771.0</ele><time>2026-05-03T08:33:54Z</time></trkpt><trkpt lat="39.87060660298839" lon="9.24256535598892"><ele>771.0</ele><time>2026-05-03T08:33:55Z</time></trkpt><trkpt lat="39.87063401932482" lon="9.242379712747997"><ele>771.0</ele><time>2026-05-03T08:33:56Z</time></trkpt><trkpt lat="39.87068788198504" lon="9.242208708571583"><ele>771.0</ele><time>2026-05-03T08:33:57Z</time></trkpt><trkpt lat="39.870758646454426" lon="9.24206173436989"><ele>772.25</ele><time>2026-05-03T08:33:58Z</time></trkpt><trkpt lat="39.87082915467487" lon="9.24194757769632"><ele>773.5</ele><time>2026-05-03T08:33:59Z</time></trkpt><trkpt lat="39.87091053828307" lon="9.241845197720771"><ele>774.75</ele><time>2026-05-03T08:34:00Z</time></trkpt><trkpt lat="39.87099371971673" lon="9.241768178116846"><ele>776.0</ele><time>2026-05-03T08:34:01Z</time></trkpt><trkpt lat="39.87110855336167" lon="9.241684114006915"><ele>776.0</ele><time>2026-05-03T08:34:02Z</time></trkpt><trkpt lat="39.871216247811226" lon="9.241596672522062"><ele>776.0</ele><time>2026-05-03T08:34:03Z</time></trkpt><trkpt lat="39.87131046073224" lon="9.24152410786205"><ele>776.0</ele><time>2026-05-03T08:34:04Z</time></trkpt><trkpt lat="39.871386552268824" lon="9.241455692777842"><ele>776.0</ele><time>2026-05-03T08:34:05Z</time></trkpt><trkpt lat="39.87143696101269" lon="9.241368849313487"><ele>776.0</ele><time>2026-05-03T08:34:06Z</time></trkpt><trkpt lat="39.87147994970692" lon="9.24126108143024"><ele>774.75</ele><time>2026-05-03T08:34:07Z</time></trkpt><trkpt lat="39.87149556219952" lon="9.241099819395163"><ele>773.5</ele><time>2026-05-03T08:34:08Z</time></trkpt><trkpt lat="39.87145236702849" lon="9.240933885765454"><ele>772.25</ele><time>2026-05-03T08:34:09Z</time></trkpt><trkpt lat="39.871365750170874" lon="9.240811395364133"><ele>771.0</ele><time>2026-05-03T08:34:10Z</time></trkpt><trkpt lat="39.87127095176217" lon="9.24075882887714"><ele>771.0</ele><time>2026-05-03T08:34:11Z</time></trkpt><trkpt lat="39.87115981969293" lon="9.240737831695048"><ele>771.0</ele><time>2026-05-03T08:34:12Z</time></trkpt><trkpt lat="39.8710661361667" lon="9.240721178231572"><ele>771.0</ele><time>2026-05-03T08:34:13Z</time></trkpt><trkpt lat="39.87094672928623" lon="9.240700605530282"><ele>771.0</ele><time>2026-05-03T08:34:14Z</time></trkpt><trkpt lat="39.870837721247604" lon="9.240674721780536"><ele>771.0</ele><time>2026-05-03T08:34:15Z</time></trkpt><trkpt lat="39.87072566507943" lon="9.240652684154364"><ele>771.25</ele><time>2026-05-03T08:34:16Z</time></trkpt><trkpt lat="39.87063042377941" lon="9.240564678013264"><ele>771.5</ele><time>2026-05-03T08:34:17Z</time></trkpt><trkpt lat="39.87054241996858" lon="9.240451631842559"><ele>771.75</ele><time>2026-05-03T08:34:18Z</time></trkpt><trkpt lat="39.87045763052872" lon="9.240330785102758"><ele>772.0</ele><time>2026-05-03T08:34:19Z</time></trkpt><trkpt lat="39.870380340648495" lon="9.240212278404464"><ele>772.0</ele><time>2026-05-03T08:34:20Z</time></trkpt><trkpt lat="39.87030410658253" lon="9.240101913133946"><ele>772.0</ele><time>2026-05-03T08:34:21Z</time></trkpt><trkpt lat="39.87023216771231" lon="9.239996174223073"><ele>772.0</ele><time>2026-05-03T08:34:22Z</time></trkpt><trkpt lat="39.87016448190234" lon="9.239895067573144"><ele>772.0</ele><time>2026-05-03T08:34:23Z</time></trkpt><trkpt lat="39.87009654995288" lon="9.239799285886134"><ele>772.0</ele><time>2026-05-03T08:34:24Z</time></trkpt><trkpt lat="39.87002957151465" lon="9.239714195216337"><ele>770.9999999999999</ele><time>2026-05-03T08:34:25Z</time></trkpt><trkpt lat="39.86997643118522" lon="9.23961926140797"><ele>770.0</ele><time>2026-05-03T08:34:26Z</time></trkpt><trkpt lat="39.86990747501243" lon="9.239552926353708"><ele>769.0</ele><time>2026-05-03T08:34:27Z</time></trkpt><trkpt lat="39.869833818969134" lon="9.23950305775759"><ele>768.0</ele><time>2026-05-03T08:34:28Z</time></trkpt><trkpt lat="39.86975155323549" lon="9.239462621240527"><ele>767.0</ele><time>2026-05-03T08:34:29Z</time></trkpt><trkpt lat="39.86968055609095" lon="9.239431999148463"><ele>766.0</ele><time>2026-05-03T08:34:30Z</time></trkpt><trkpt lat="39.86960844668127" lon="9.239403354651992"><ele>766.0</ele><time>2026-05-03T08:34:31Z</time></trkpt><trkpt lat="39.869533616702725" lon="9.239379386486954"><ele>766.0</ele><time>2026-05-03T08:34:32Z</time></trkpt><trkpt lat="39.86945129708072" lon="9.239369557217975"><ele>766.0</ele><time>2026-05-03T08:34:33Z</time></trkpt><trkpt lat="39.86937229951465" lon="9.239330040365715"><ele>766.0</ele><time>2026-05-03T08:34:34Z</time></trkpt><trkpt lat="39.869295485590605" lon="9.23928230833672"><ele>766.0</ele><time>2026-05-03T08:34:35Z</time></trkpt><trkpt lat="39.86922065162541" lon="9.239227364161435"><ele>766.0</ele><time>2026-05-03T08:34:36Z</time></trkpt><trkpt lat="39.86914458553002" lon="9.239171482658108"><ele>766.1428571428571</ele><time>2026-05-03T08:34:37Z</time></trkpt><trkpt lat="39.86908061890357" lon="9.239119189025399"><ele>766.2857142857142</ele><time>2026-05-03T08:34:38Z</time></trkpt><trkpt lat="39.869022208013355" lon="9.239063768544144"><ele>766.4285714285714</ele><time>2026-05-03T08:34:39Z</time></trkpt><trkpt lat="39.86897055367158" lon="9.23900319700693"><ele>766.5714285714286</ele><time>2026-05-03T08:34:40Z</time></trkpt><trkpt lat="39.86891701359475" lon="9.238943328035777"><ele>766.7142857142858</ele><time>2026-05-03T08:34:41Z</time></trkpt><trkpt lat="39.868867369813316" lon="9.238888013134373"><ele>766.8571428571429</ele><time>2026-05-03T08:34:42Z</time></trkpt><trkpt lat="39.86881202477546" lon="9.238829232189204"><ele>767.0</ele><time>2026-05-03T08:34:43Z</time></trkpt><trkpt lat="39.8687547074078" lon="9.238761268041952"><ele>767.0</ele><time>2026-05-03T08:34:44Z</time></trkpt><trkpt lat="39.868693312088055" lon="9.23867350561542"><ele>767.0</ele><time>2026-05-03T08:34:45Z</time></trkpt><trkpt lat="39.86863312652496" lon="9.23861116199075"><ele>767.0</ele><time>2026-05-03T08:34:46Z</time></trkpt><trkpt lat="39.868567909362305" lon="9.238547137795305"><ele>767.0</ele><time>2026-05-03T08:34:47Z</time></trkpt><trkpt lat="39.8684997708131" lon="9.238488429949644"><ele>767.0</ele><time>2026-05-03T08:34:48Z</time></trkpt><trkpt lat="39.868432695341944" lon="9.238424523393121"><ele>767.0</ele><time>2026-05-03T08:34:49Z</time></trkpt><trkpt lat="39.86836585289976" lon="9.23836194233568"><ele>765.4285714285714</ele><time>2026-05-03T08:34:50Z</time></trkpt><trkpt lat="39.86830692270041" lon="9.238301363851045"><ele>763.8571428571429</ele><time>2026-05-03T08:34:51Z</time></trkpt><trkpt lat="39.86825305383644" lon="9.238242892167282"><ele>762.2857142857142</ele><time>2026-05-03T08:34:52Z</time></trkpt><trkpt lat="39.868203074005926" lon="9.238188759823888"><ele>760.7142857142858</ele><time>2026-05-03T08:34:53Z</time></trkpt><trkpt lat="39.8681499118025" lon="9.238120377433717"><ele>759.1428571428571</ele><time>2026-05-03T08:34:54Z</time></trkpt><trkpt lat="39.86811136174018" lon="9.238037774481723"><ele>757.5714285714286</ele><time>2026-05-03T08:34:55Z</time></trkpt><trkpt lat="39.86809538304267" lon="9.237933592548243"><ele>756.0</ele><time>2026-05-03T08:34:56Z</time></trkpt><trkpt lat="39.86810437300521" lon="9.23781827322107"><ele>755.6666666666666</ele><time>2026-05-03T08:34:57Z</time></trkpt><trkpt lat="39.86812425520068" lon="9.237707063159476"><ele>755.3333333333334</ele><time>2026-05-03T08:34:58Z</time></trkpt><trkpt lat="39.86814772451357" lon="9.237594116632902"><ele>755.0</ele><time>2026-05-03T08:34:59Z</time></trkpt><trkpt lat="39.86817568574536" lon="9.237494355127414"><ele>754.6666666666667</ele><time>2026-05-03T08:35:00Z</time></trkpt><trkpt lat="39.86821262479699" lon="9.237400185019736"><ele>754.3333333333334</ele><time>2026-05-03T08:35:01Z</time></trkpt><trkpt lat="39.86825821729009" lon="9.23731691558124"><ele>754.0</ele><time>2026-05-03T08:35:02Z</time></trkpt><trkpt lat="39.868305939937855" lon="9.237236348731475"><ele>754.0</ele><time>2026-05-03T08:35:03Z</time></trkpt><trkpt lat="39.86834575906692" lon="9.237142077264377"><ele>754.0</ele><time>2026-05-03T08:35:04Z</time></trkpt><trkpt lat="39.868383182916524" lon="9.237051712311423"><ele>754.0</ele><time>2026-05-03T08:35:05Z</time></trkpt><trkpt lat="39.868420725623096" lon="9.236965098519132"><ele>754.0</ele><time>2026-05-03T08:35:06Z</time></trkpt><trkpt lat="39.868450470602674" lon="9.236874574620899"><ele>754.0</ele><time>2026-05-03T08:35:07Z</time></trkpt><trkpt lat="39.86848855985233" lon="9.23678506257492"><ele>754.0</ele><time>2026-05-03T08:35:08Z</time></trkpt><trkpt lat="39.86853867106608" lon="9.236700087325787"><ele>754.0</ele><time>2026-05-03T08:35:09Z</time></trkpt><trkpt lat="39.868611356874986" lon="9.236634035457977"><ele>754.0</ele><time>2026-05-03T08:35:10Z</time></trkpt><trkpt lat="39.86868694043854" lon="9.236569947973122"><ele>754.0</ele><time>2026-05-03T08:35:11Z</time></trkpt><trkpt lat="39.86875854549253" lon="9.2365075751913"><ele>754.0</ele><time>2026-05-03T08:35:12Z</time></trkpt><trkpt lat="39.868830892251026" lon="9.236448379370723"><ele>754.0</ele><time>2026-05-03T08:35:13Z</time></trkpt><trkpt lat="39.86889499915986" lon="9.236388208395274"><ele>754.0</ele><time>2026-05-03T08:35:14Z</time></trkpt><trkpt lat="39.868978746353484" lon="9.236350797716474"><ele>753.6</ele><time>2026-05-03T08:35:15Z</time></trkpt><trkpt lat="39.86905993538962" lon="9.236286648604258"><ele>753.2</ele><time>2026-05-03T08:35:16Z</time></trkpt><trkpt lat="39.86914222626902" lon="9.236248551355144"><ele>752.8000000000001</ele><time>2026-05-03T08:35:17Z</time></trkpt><trkpt lat="39.8692189777507" lon="9.236196941367394"><ele>752.4000000000001</ele><time>2026-05-03T08:35:18Z</time></trkpt><trkpt lat="39.86929711595197" lon="9.236129436058924"><ele>752.0</ele><time>2026-05-03T08:35:19Z</time></trkpt><trkpt lat="39.86936911613854" lon="9.236058085513163"><ele>752.0</ele><time>2026-05-03T08:35:20Z</time></trkpt><trkpt lat="39.86943948685738" lon="9.235996363933106"><ele>752.0</ele><time>2026-05-03T08:35:21Z</time></trkpt><trkpt lat="39.869509334967766" lon="9.235940345987109"><ele>752.0</ele><time>2026-05-03T08:35:22Z</time></trkpt><trkpt lat="39.86958675514482" lon="9.235898519390402"><ele>752.0</ele><time>2026-05-03T08:35:23Z</time></trkpt><trkpt lat="39.86966605625882" lon="9.235859354336139"><ele>752.0</ele><time>2026-05-03T08:35:24Z</time></trkpt><trkpt lat="39.869742101094545" lon="9.235830097135397"><ele>752.0</ele><time>2026-05-03T08:35:25Z</time></trkpt><trkpt lat="39.86981048860828" lon="9.235794231040462"><ele>752.0</ele><time>2026-05-03T08:35:26Z</time></trkpt><trkpt lat="39.86986885687773" lon="9.23575253062722"><ele>752.0</ele><time>2026-05-03T08:35:27Z</time></trkpt><trkpt lat="39.86995044405081" lon="9.235625827028004"><ele>752.0</ele><time>2026-05-03T08:35:29Z</time></trkpt><trkpt lat="39.86998714134493" lon="9.23554090772449"><ele>752.0</ele><time>2026-05-03T08:35:30Z</time></trkpt><trkpt lat="39.87001683119403" lon="9.235437862025208"><ele>752.0</ele><time>2026-05-03T08:35:31Z</time></trkpt><trkpt lat="39.87003888287846" lon="9.235332753985583"><ele>752.0</ele><time>2026-05-03T08:35:32Z</time></trkpt><trkpt lat="39.87006933191373" lon="9.23523896270153"><ele>753.1666666666666</ele><time>2026-05-03T08:35:33Z</time></trkpt><trkpt lat="39.87010440585686" lon="9.235147110147093"><ele>754.3333333333333</ele><time>2026-05-03T08:35:34Z</time></trkpt><trkpt lat="39.87013815079012" lon="9.235057082821143"><ele>755.5</ele><time>2026-05-03T08:35:35Z</time></trkpt><trkpt lat="39.870166198690555" lon="9.23496689820404"><ele>756.6666666666666</ele><time>2026-05-03T08:35:36Z</time></trkpt><trkpt lat="39.87019666621084" lon="9.234872920169394"><ele>757.8333333333334</ele><time>2026-05-03T08:35:37Z</time></trkpt><trkpt lat="39.87023187846896" lon="9.234787298216457"><ele>759.0</ele><time>2026-05-03T08:35:38Z</time></trkpt><trkpt lat="39.87027231223557" lon="9.234700814355502"><ele>756.3333333333334</ele><time>2026-05-03T08:35:39Z</time></trkpt><trkpt lat="39.870324723414605" lon="9.234619052078191"><ele>753.6666666666666</ele><time>2026-05-03T08:35:40Z</time></trkpt><trkpt lat="39.87038927767769" lon="9.2345529303034"><ele>751.0</ele><time>2026-05-03T08:35:41Z</time></trkpt><trkpt lat="39.870444396298915" lon="9.234471320100099"><ele>748.3333333333333</ele><time>2026-05-03T08:35:42Z</time></trkpt><trkpt lat="39.870486778086665" lon="9.2343810095841"><ele>745.6666666666666</ele><time>2026-05-03T08:35:43Z</time></trkpt><trkpt lat="39.870506634060234" lon="9.23428395383789"><ele>743.0</ele><time>2026-05-03T08:35:44Z</time></trkpt><trkpt lat="39.870537571852495" lon="9.234202925820012"><ele>743.0</ele><time>2026-05-03T08:35:45Z</time></trkpt><trkpt lat="39.87056660915661" lon="9.234122953066963"><ele>743.0</ele><time>2026-05-03T08:35:46Z</time></trkpt><trkpt lat="39.87059901889084" lon="9.234050929117362"><ele>743.0</ele><time>2026-05-03T08:35:47Z</time></trkpt><trkpt lat="39.87067830724587" lon="9.233940834634117"><ele>743.0</ele><time>2026-05-03T08:35:49Z</time></trkpt><trkpt lat="39.8707477399547" lon="9.233844021467913"><ele>743.0</ele><time>2026-05-03T08:35:51Z</time></trkpt><trkpt lat="39.870814056757155" lon="9.233724860991959"><ele>739.5</ele><time>2026-05-03T08:35:53Z</time></trkpt><trkpt lat="39.87087050378842" lon="9.233680627062897"><ele>736.0</ele><time>2026-05-03T08:35:54Z</time></trkpt><trkpt lat="39.87090458710569" lon="9.233608964499906"><ele>732.5</ele><time>2026-05-03T08:35:55Z</time></trkpt><trkpt lat="39.870996353015165" lon="9.233501008077424"><ele>729.0</ele><time>2026-05-03T08:35:57Z</time></trkpt><trkpt lat="39.87104338089531" lon="9.233439426006493"><ele>725.5</ele><time>2026-05-03T08:35:58Z</time></trkpt><trkpt lat="39.87108208621515" lon="9.23337030451521"><ele>722.0</ele><time>2026-05-03T08:35:59Z</time></trkpt><trkpt lat="39.87112126200582" lon="9.233303298995422"><ele>722.0</ele><time>2026-05-03T08:36:00Z</time></trkpt><trkpt lat="39.87123781423562" lon="9.233267865674161"><ele>722.0</ele><time>2026-05-03T08:36:02Z</time></trkpt><trkpt lat="39.871299740403416" lon="9.233296141963628"><ele>722.0</ele><time>2026-05-03T08:36:03Z</time></trkpt><trkpt lat="39.87136288168343" lon="9.233349825011635"><ele>722.0</ele><time>2026-05-03T08:36:04Z</time></trkpt><trkpt lat="39.87142624369511" lon="9.233422039428921"><ele>722.0</ele><time>2026-05-03T08:36:05Z</time></trkpt><trkpt lat="39.871481854266534" lon="9.233512036386488"><ele>722.0</ele><time>2026-05-03T08:36:06Z</time></trkpt><trkpt lat="39.87153046805424" lon="9.233621743008337"><ele>722.0</ele><time>2026-05-03T08:36:07Z</time></trkpt><trkpt lat="39.87158420923858" lon="9.233741287118598"><ele>722.0</ele><time>2026-05-03T08:36:08Z</time></trkpt><trkpt lat="39.871648409264644" lon="9.233842722090174"><ele>722.0</ele><time>2026-05-03T08:36:09Z</time></trkpt><trkpt lat="39.87172117343756" lon="9.233919530383243"><ele>722.0</ele><time>2026-05-03T08:36:10Z</time></trkpt><trkpt lat="39.87180584162666" lon="9.23397058247661"><ele>722.0</ele><time>2026-05-03T08:36:11Z</time></trkpt><trkpt lat="39.871892302915256" lon="9.234009344764893"><ele>723.8</ele><time>2026-05-03T08:36:12Z</time></trkpt><trkpt lat="39.87199229751749" lon="9.233999077975044"><ele>725.6</ele><time>2026-05-03T08:36:13Z</time></trkpt><trkpt lat="39.872079469154606" lon="9.233971444017904"><ele>727.4</ele><time>2026-05-03T08:36:14Z</time></trkpt><trkpt lat="39.87218248694756" lon="9.23394582453782"><ele>729.1999999999999</ele><time>2026-05-03T08:36:15Z</time></trkpt><trkpt lat="39.87229054732481" lon="9.233916552388601"><ele>731.0</ele><time>2026-05-03T08:36:16Z</time></trkpt><trkpt lat="39.872408235129456" lon="9.23388613139905"><ele>725.25</ele><time>2026-05-03T08:36:17Z</time></trkpt><trkpt lat="39.87251963622669" lon="9.233856704544202"><ele>719.5</ele><time>2026-05-03T08:36:18Z</time></trkpt><trkpt lat="39.872636216181206" lon="9.233847241511182"><ele>713.75</ele><time>2026-05-03T08:36:19Z</time></trkpt><trkpt lat="39.87275626717578" lon="9.233860791124194"><ele>708.0</ele><time>2026-05-03T08:36:20Z</time></trkpt><trkpt lat="39.87287707960936" lon="9.233875663442305"><ele>708.0</ele><time>2026-05-03T08:36:21Z</time></trkpt><trkpt lat="39.8730031488835" lon="9.233873488229086"><ele>708.0</ele><time>2026-05-03T08:36:22Z</time></trkpt><trkpt lat="39.873131099535335" lon="9.233854193140102"><ele>708.0</ele><time>2026-05-03T08:36:23Z</time></trkpt><trkpt lat="39.87326449795462" lon="9.233818343882536"><ele>708.0</ele><time>2026-05-03T08:36:24Z</time></trkpt><trkpt lat="39.873400540698455" lon="9.233779467621027"><ele>709.75</ele><time>2026-05-03T08:36:25Z</time></trkpt><trkpt lat="39.873530708963735" lon="9.233741796174781"><ele>711.5</ele><time>2026-05-03T08:36:26Z</time></trkpt><trkpt lat="39.873656373648245" lon="9.23370699537345"><ele>713.25</ele><time>2026-05-03T08:36:27Z</time></trkpt><trkpt lat="39.87377726167679" lon="9.23368178406666"><ele>715.0</ele><time>2026-05-03T08:36:28Z</time></trkpt><trkpt lat="39.87389376232389" lon="9.233660836510142"><ele>715.0</ele><time>2026-05-03T08:36:29Z</time></trkpt><trkpt lat="39.87400573353356" lon="9.233657800420936"><ele>715.0</ele><time>2026-05-03T08:36:30Z</time></trkpt><trkpt lat="39.87411507375856" lon="9.233683908434331"><ele>715.0</ele><time>2026-05-03T08:36:31Z</time></trkpt><trkpt lat="39.8742177290014" lon="9.233726318704186"><ele>715.0</ele><time>2026-05-03T08:36:32Z</time></trkpt><trkpt lat="39.874317251667065" lon="9.233767214398048"><ele>715.0</ele><time>2026-05-03T08:36:33Z</time></trkpt><trkpt lat="39.87441766591155" lon="9.233794702581742"><ele>717.6</ele><time>2026-05-03T08:36:34Z</time></trkpt><trkpt lat="39.87451733170575" lon="9.2337870796281"><ele>720.2</ele><time>2026-05-03T08:36:35Z</time></trkpt><trkpt lat="39.87460816993082" lon="9.233751881951223"><ele>722.8</ele><time>2026-05-03T08:36:36Z</time></trkpt><trkpt lat="39.87468381429998" lon="9.23368855900715"><ele>725.4</ele><time>2026-05-03T08:36:37Z</time></trkpt><trkpt lat="39.87474510375369" lon="9.233600115709834"><ele>728.0</ele><time>2026-05-03T08:36:38Z</time></trkpt><trkpt lat="39.874785383945785" lon="9.233484941110202"><ele>728.0</ele><time>2026-05-03T08:36:39Z</time></trkpt><trkpt lat="39.874820989983974" lon="9.233352591604511"><ele>728.0</ele><time>2026-05-03T08:36:40Z</time></trkpt><trkpt lat="39.874817746066746" lon="9.23319968657037"><ele>728.0</ele><time>2026-05-03T08:36:41Z</time></trkpt><trkpt lat="39.87476611018241" lon="9.233052198137251"><ele>728.0</ele><time>2026-05-03T08:36:42Z</time></trkpt><trkpt lat="39.8747481359705" lon="9.232903327389101"><ele>730.25</ele><time>2026-05-03T08:36:43Z</time></trkpt><trkpt lat="39.87475507825497" lon="9.232751438191782"><ele>732.5</ele><time>2026-05-03T08:36:44Z</time></trkpt><trkpt lat="39.87478513359873" lon="9.232603882469219"><ele>734.75</ele><time>2026-05-03T08:36:45Z</time></trkpt><trkpt lat="39.87478114015955" lon="9.232455641006707"><ele>737.0</ele><time>2026-05-03T08:36:46Z</time></trkpt><trkpt lat="39.87474236538898" lon="9.23231728437551"><ele>739.75</ele><time>2026-05-03T08:36:47Z</time></trkpt><trkpt lat="39.87467746991666" lon="9.232198095606266"><ele>742.5</ele><time>2026-05-03T08:36:48Z</time></trkpt><trkpt lat="39.87457884606463" lon="9.232103595513154"><ele>745.25</ele><time>2026-05-03T08:36:49Z</time></trkpt><trkpt lat="39.87446237493636" lon="9.232034908565101"><ele>748.0</ele><time>2026-05-03T08:36:50Z</time></trkpt><trkpt lat="39.87434122428957" lon="9.231975129007376"><ele>746.25</ele><time>2026-05-03T08:36:51Z</time></trkpt><trkpt lat="39.8742216620907" lon="9.231917456555086"><ele>744.5</ele><time>2026-05-03T08:36:52Z</time></trkpt><trkpt lat="39.87409355343777" lon="9.231874552447671"><ele>742.75</ele><time>2026-05-03T08:36:53Z</time></trkpt><trkpt lat="39.87395872839879" lon="9.231879034150769"><ele>741.0</ele><time>2026-05-03T08:36:54Z</time></trkpt><trkpt lat="39.87382981888616" lon="9.231898041253357"><ele>741.0</ele><time>2026-05-03T08:36:55Z</time></trkpt><trkpt lat="39.87370424375049" lon="9.231917428044781"><ele>741.0</ele><time>2026-05-03T08:36:56Z</time></trkpt><trkpt lat="39.873591765389705" lon="9.231935676540239"><ele>741.0</ele><time>2026-05-03T08:36:57Z</time></trkpt><trkpt lat="39.87349121164841" lon="9.231893349446821"><ele>741.0</ele><time>2026-05-03T08:36:58Z</time></trkpt><trkpt lat="39.87339565455855" lon="9.23182190209501"><ele>739.5</ele><time>2026-05-03T08:36:59Z</time></trkpt><trkpt lat="39.87330418065732" lon="9.23173394951204"><ele>738.0</ele><time>2026-05-03T08:37:00Z</time></trkpt><trkpt lat="39.873221057728585" lon="9.23162968945805"><ele>736.5</ele><time>2026-05-03T08:37:01Z</time></trkpt><trkpt lat="39.873152923580136" lon="9.231513830502582"><ele>735.0</ele><time>2026-05-03T08:37:02Z</time></trkpt><trkpt lat="39.87309963147596" lon="9.23138403757846"><ele>739.0</ele><time>2026-05-03T08:37:03Z</time></trkpt><trkpt lat="39.87305418659307" lon="9.231243844648294"><ele>743.0</ele><time>2026-05-03T08:37:04Z</time></trkpt><trkpt lat="39.87301692940353" lon="9.231092082367296"><ele>747.0</ele><time>2026-05-03T08:37:05Z</time></trkpt><trkpt lat="39.872991337985866" lon="9.230931687006088"><ele>751.0</ele><time>2026-05-03T08:37:06Z</time></trkpt><trkpt lat="39.87298020858611" lon="9.230759091940493"><ele>752.25</ele><time>2026-05-03T08:37:07Z</time></trkpt><trkpt lat="39.87298176364878" lon="9.230578399537539"><ele>753.5</ele><time>2026-05-03T08:37:08Z</time></trkpt><trkpt lat="39.87298606088241" lon="9.230390602153557"><ele>754.75</ele><time>2026-05-03T08:37:09Z</time></trkpt><trkpt lat="39.87299338181076" lon="9.23020568172599"><ele>756.0</ele><time>2026-05-03T08:37:10Z</time></trkpt><trkpt lat="39.87301553949671" lon="9.230044603621359"><ele>756.0</ele><time>2026-05-03T08:37:11Z</time></trkpt><trkpt lat="39.87305313979146" lon="9.229902804956993"><ele>756.0</ele><time>2026-05-03T08:37:12Z</time></trkpt><trkpt lat="39.87308979984539" lon="9.229758250921538"><ele>756.0</ele><time>2026-05-03T08:37:13Z</time></trkpt><trkpt lat="39.87311991121442" lon="9.229614184053995"><ele>756.0</ele><time>2026-05-03T08:37:14Z</time></trkpt><trkpt lat="39.873137385851926" lon="9.229473296538803"><ele>758.25</ele><time>2026-05-03T08:37:15Z</time></trkpt><trkpt lat="39.87311187509638" lon="9.229327046859222"><ele>760.5</ele><time>2026-05-03T08:37:16Z</time></trkpt><trkpt lat="39.87305053625337" lon="9.229196629434567"><ele>762.75</ele><time>2026-05-03T08:37:17Z</time></trkpt><trkpt lat="39.87296680251376" lon="9.229093997101979"><ele>765.0</ele><time>2026-05-03T08:37:18Z</time></trkpt><trkpt lat="39.872851147574956" lon="9.229029225015896"><ele>765.0</ele><time>2026-05-03T08:37:19Z</time></trkpt><trkpt lat="39.872723045698" lon="9.228995565405384"><ele>765.0</ele><time>2026-05-03T08:37:20Z</time></trkpt><trkpt lat="39.87258759175687" lon="9.2289780966536"><ele>765.0</ele><time>2026-05-03T08:37:21Z</time></trkpt><trkpt lat="39.872451821497066" lon="9.22895746506913"><ele>765.0</ele><time>2026-05-03T08:37:22Z</time></trkpt><trkpt lat="39.87231135662983" lon="9.22895056030484"><ele>769.25</ele><time>2026-05-03T08:37:23Z</time></trkpt><trkpt lat="39.87217484376719" lon="9.228893325572333"><ele>773.5</ele><time>2026-05-03T08:37:24Z</time></trkpt><trkpt lat="39.87203557186407" lon="9.22885045941835"><ele>777.75</ele><time>2026-05-03T08:37:25Z</time></trkpt><trkpt lat="39.871906008254264" lon="9.228811516892895"><ele>782.0</ele><time>2026-05-03T08:37:26Z</time></trkpt><trkpt lat="39.871781578505185" lon="9.228774236298749"><ele>778.5</ele><time>2026-05-03T08:37:27Z</time></trkpt><trkpt lat="39.871657030958765" lon="9.228758232884038"><ele>775.0</ele><time>2026-05-03T08:37:28Z</time></trkpt><trkpt lat="39.871543015157734" lon="9.228706186921874"><ele>771.5</ele><time>2026-05-03T08:37:29Z</time></trkpt><trkpt lat="39.87143671797687" lon="9.228627820074705"><ele>768.0</ele><time>2026-05-03T08:37:30Z</time></trkpt><trkpt lat="39.8713436956494" lon="9.228525955065944"><ele>768.0</ele><time>2026-05-03T08:37:31Z</time></trkpt><trkpt lat="39.87126560453947" lon="9.228412380435"><ele>768.0</ele><time>2026-05-03T08:37:32Z</time></trkpt><trkpt lat="39.871199401905685" lon="9.228293683890522"><ele>768.0</ele><time>2026-05-03T08:37:33Z</time></trkpt><trkpt lat="39.871152447164604" lon="9.228158823613684"><ele>768.0</ele><time>2026-05-03T08:37:34Z</time></trkpt><trkpt lat="39.87112568787957" lon="9.228009108549271"><ele>771.75</ele><time>2026-05-03T08:37:35Z</time></trkpt><trkpt lat="39.871114353563" lon="9.22784858023422"><ele>775.5</ele><time>2026-05-03T08:37:36Z</time></trkpt><trkpt lat="39.87110371292425" lon="9.227688524347219"><ele>779.25</ele><time>2026-05-03T08:37:37Z</time></trkpt><trkpt lat="39.87107963438505" lon="9.227529494746799"><ele>783.0</ele><time>2026-05-03T08:37:38Z</time></trkpt><trkpt lat="39.871028821691525" lon="9.227370131185308"><ele>780.75</ele><time>2026-05-03T08:37:39Z</time></trkpt><trkpt lat="39.87098464381243" lon="9.22719201587684"><ele>778.5</ele><time>2026-05-03T08:37:40Z</time></trkpt><trkpt lat="39.87092459946548" lon="9.227018742267953"><ele>776.25</ele><time>2026-05-03T08:37:41Z</time></trkpt><trkpt lat="39.87085972280459" lon="9.226841460940108"><ele>774.0</ele><time>2026-05-03T08:37:42Z</time></trkpt><trkpt lat="39.87077645866493" lon="9.226668824074748"><ele>774.0</ele><time>2026-05-03T08:37:43Z</time></trkpt><trkpt lat="39.87070921238108" lon="9.226481503387035"><ele>774.0</ele><time>2026-05-03T08:37:44Z</time></trkpt><trkpt lat="39.87063699418527" lon="9.226303783658587"><ele>774.0</ele><time>2026-05-03T08:37:45Z</time></trkpt><trkpt lat="39.87055524235149" lon="9.226133994629999"><ele>778.25</ele><time>2026-05-03T08:37:46Z</time></trkpt><trkpt lat="39.8704690964945" lon="9.22599606296858"><ele>782.5</ele><time>2026-05-03T08:37:47Z</time></trkpt><trkpt lat="39.87036685744438" lon="9.225879745581867"><ele>786.75</ele><time>2026-05-03T08:37:48Z</time></trkpt><trkpt lat="39.87025224025484" lon="9.225760298046362"><ele>791.0</ele><time>2026-05-03T08:37:49Z</time></trkpt><trkpt lat="39.87014637073894" lon="9.225651747521395"><ele>789.5</ele><time>2026-05-03T08:37:50Z</time></trkpt><trkpt lat="39.870057756327256" lon="9.225548063782377"><ele>788.0</ele><time>2026-05-03T08:37:51Z</time></trkpt><trkpt lat="39.86996260718531" lon="9.225426053837115"><ele>786.5</ele><time>2026-05-03T08:37:52Z</time></trkpt><trkpt lat="39.86987403875966" lon="9.225310209746656"><ele>785.0</ele><time>2026-05-03T08:37:53Z</time></trkpt><trkpt lat="39.869787068767494" lon="9.225196715938548"><ele>785.0</ele><time>2026-05-03T08:37:54Z</time></trkpt><trkpt lat="39.86970274048473" lon="9.22508182540823"><ele>785.0</ele><time>2026-05-03T08:37:55Z</time></trkpt><trkpt lat="39.86963086479075" lon="9.224974252082772"><ele>785.0</ele><time>2026-05-03T08:37:56Z</time></trkpt><trkpt lat="39.86957509277077" lon="9.224868834088552"><ele>785.0</ele><time>2026-05-03T08:37:57Z</time></trkpt><trkpt lat="39.86953948636252" lon="9.224756626530658"><ele>785.0</ele><time>2026-05-03T08:37:58Z</time></trkpt><trkpt lat="39.86953214980382" lon="9.224632727632219"><ele>784.6</ele><time>2026-05-03T08:37:59Z</time></trkpt><trkpt lat="39.86955195901198" lon="9.22451116719804"><ele>784.2</ele><time>2026-05-03T08:38:00Z</time></trkpt><trkpt lat="39.869599858467346" lon="9.224398304008982"><ele>783.8</ele><time>2026-05-03T08:38:01Z</time></trkpt><trkpt lat="39.86966973030038" lon="9.224297311809742"><ele>783.4</ele><time>2026-05-03T08:38:02Z</time></trkpt><trkpt lat="39.86974172562272" lon="9.224181099056272"><ele>783.0</ele><time>2026-05-03T08:38:03Z</time></trkpt><trkpt lat="39.86980357376355" lon="9.224046307797177"><ele>784.0</ele><time>2026-05-03T08:38:04Z</time></trkpt><trkpt lat="39.86987538038024" lon="9.223924228863698"><ele>785.0</ele><time>2026-05-03T08:38:05Z</time></trkpt><trkpt lat="39.86995336471107" lon="9.22379032318154"><ele>786.0</ele><time>2026-05-03T08:38:06Z</time></trkpt><trkpt lat="39.87004011089287" lon="9.22364193904292"><ele>787.0</ele><time>2026-05-03T08:38:07Z</time></trkpt><trkpt lat="39.87013771156587" lon="9.223479121373183"><ele>787.0</ele><time>2026-05-03T08:38:08Z</time></trkpt><trkpt lat="39.87023226245469" lon="9.223311732791736"><ele>787.0</ele><time>2026-05-03T08:38:09Z</time></trkpt><trkpt lat="39.870327778426436" lon="9.223130363576802"><ele>787.0</ele><time>2026-05-03T08:38:10Z</time></trkpt><trkpt lat="39.8704194284288" lon="9.222941545179712"><ele>782.0</ele><time>2026-05-03T08:38:11Z</time></trkpt><trkpt lat="39.87051044031374" lon="9.222756791038291"><ele>777.0</ele><time>2026-05-03T08:38:12Z</time></trkpt><trkpt lat="39.87061044714786" lon="9.222569948955124"><ele>772.0</ele><time>2026-05-03T08:38:13Z</time></trkpt><trkpt lat="39.870728670061474" lon="9.22238382663398"><ele>770.6666666666666</ele><time>2026-05-03T08:38:14Z</time></trkpt><trkpt lat="39.87087632640615" lon="9.222206360449313"><ele>769.3333333333333</ele><time>2026-05-03T08:38:15Z</time></trkpt><trkpt lat="39.87104215131842" lon="9.222036642972764"><ele>768.0</ele><time>2026-05-03T08:38:16Z</time></trkpt><trkpt lat="39.87122256389755" lon="9.22185225605335"><ele>768.0</ele><time>2026-05-03T08:38:17Z</time></trkpt><trkpt lat="39.8714209100598" lon="9.221660054697859"><ele>768.0</ele><time>2026-05-03T08:38:18Z</time></trkpt><trkpt lat="39.87162219117748" lon="9.22146347294741"><ele>766.0</ele><time>2026-05-03T08:38:19Z</time></trkpt><trkpt lat="39.87181283903405" lon="9.221271706712537"><ele>764.0</ele><time>2026-05-03T08:38:20Z</time></trkpt><trkpt lat="39.87199758772883" lon="9.221086233779612"><ele>764.0</ele><time>2026-05-03T08:38:21Z</time></trkpt><trkpt lat="39.87217945190183" lon="9.220912161356841"><ele>764.0</ele><time>2026-05-03T08:38:22Z</time></trkpt><trkpt lat="39.87236683673544" lon="9.220739660161891"><ele>762.3333333333333</ele><time>2026-05-03T08:38:23Z</time></trkpt><trkpt lat="39.87255819480628" lon="9.22057564069503"><ele>760.6666666666666</ele><time>2026-05-03T08:38:24Z</time></trkpt><trkpt lat="39.87274224406449" lon="9.220435584017034"><ele>759.0</ele><time>2026-05-03T08:38:25Z</time></trkpt><trkpt lat="39.87290729627781" lon="9.220313700012408"><ele>759.0</ele><time>2026-05-03T08:38:26Z</time></trkpt><trkpt lat="39.87305807277962" lon="9.220187616155782"><ele>759.0</ele><time>2026-05-03T08:38:27Z</time></trkpt><trkpt lat="39.873185137077435" lon="9.2200631921859"><ele>759.0</ele><time>2026-05-03T08:38:28Z</time></trkpt><trkpt lat="39.87328802258113" lon="9.219934542826621"><ele>756.5</ele><time>2026-05-03T08:38:29Z</time></trkpt><trkpt lat="39.873370646298895" lon="9.219788377149966"><ele>754.0</ele><time>2026-05-03T08:38:30Z</time></trkpt><trkpt lat="39.87341778397417" lon="9.219626645151688"><ele>751.5</ele><time>2026-05-03T08:38:31Z</time></trkpt><trkpt lat="39.87343428441618" lon="9.219454774365245"><ele>749.0</ele><time>2026-05-03T08:38:32Z</time></trkpt><trkpt lat="39.87344739544726" lon="9.219279781324984"><ele>749.0</ele><time>2026-05-03T08:38:33Z</time></trkpt><trkpt lat="39.87341528480678" lon="9.219116311209692"><ele>749.0</ele><time>2026-05-03T08:38:34Z</time></trkpt><trkpt lat="39.87334151126754" lon="9.21896632732739"><ele>749.0</ele><time>2026-05-03T08:38:35Z</time></trkpt><trkpt lat="39.87326807186657" lon="9.218807185383282"><ele>749.0</ele><time>2026-05-03T08:38:36Z</time></trkpt><trkpt lat="39.87313814841218" lon="9.21869634237571"><ele>752.3333333333333</ele><time>2026-05-03T08:38:37Z</time></trkpt><trkpt lat="39.87299733837005" lon="9.218578832945683"><ele>755.6666666666666</ele><time>2026-05-03T08:38:38Z</time></trkpt><trkpt lat="39.87285364355857" lon="9.218460374186357"><ele>759.0</ele><time>2026-05-03T08:38:39Z</time></trkpt><trkpt lat="39.87271509237759" lon="9.218354892579757"><ele>754.5</ele><time>2026-05-03T08:38:40Z</time></trkpt><trkpt lat="39.87259234269458" lon="9.218234809364859"><ele>750.0</ele><time>2026-05-03T08:38:41Z</time></trkpt><trkpt lat="39.872485096852685" lon="9.218098000441131"><ele>745.5</ele><time>2026-05-03T08:38:42Z</time></trkpt><trkpt lat="39.872404375133335" lon="9.217940679369871"><ele>741.0</ele><time>2026-05-03T08:38:43Z</time></trkpt><trkpt lat="39.872352533999766" lon="9.217766831768651"><ele>741.0</ele><time>2026-05-03T08:38:44Z</time></trkpt><trkpt lat="39.87232988621464" lon="9.2175645737271"><ele>741.0</ele><time>2026-05-03T08:38:45Z</time></trkpt><trkpt lat="39.87232766537009" lon="9.217339943532036"><ele>741.0</ele><time>2026-05-03T08:38:46Z</time></trkpt><trkpt lat="39.87233324895091" lon="9.217094327945468"><ele>740.6666666666666</ele><time>2026-05-03T08:38:47Z</time></trkpt><trkpt lat="39.87233594951679" lon="9.216840361624731"><ele>740.3333333333333</ele><time>2026-05-03T08:38:48Z</time></trkpt><trkpt lat="39.87233844119654" lon="9.216566614824172"><ele>740.0</ele><time>2026-05-03T08:38:49Z</time></trkpt><trkpt lat="39.87234430450345" lon="9.216308058939312"><ele>737.6666666666666</ele><time>2026-05-03T08:38:50Z</time></trkpt><trkpt lat="39.872358364574474" lon="9.216063889940438"><ele>735.3333333333334</ele><time>2026-05-03T08:38:51Z</time></trkpt><trkpt lat="39.872384463468556" lon="9.215835824452135"><ele>733.0</ele><time>2026-05-03T08:38:52Z</time></trkpt><trkpt lat="39.87242491449001" lon="9.21561993758455"><ele>733.0</ele><time>2026-05-03T08:38:53Z</time></trkpt><trkpt lat="39.872478215838655" lon="9.215426387740722"><ele>733.0</ele><time>2026-05-03T08:38:54Z</time></trkpt><trkpt lat="39.87254374817588" lon="9.215252914790891"><ele>733.0</ele><time>2026-05-03T08:38:55Z</time></trkpt><trkpt lat="39.872623237762014" lon="9.21509915911036"><ele>733.0</ele><time>2026-05-03T08:38:56Z</time></trkpt><trkpt lat="39.87272138028997" lon="9.214976016826906"><ele>733.0</ele><time>2026-05-03T08:38:57Z</time></trkpt><trkpt lat="39.87283915525653" lon="9.21487809555375"><ele>733.0</ele><time>2026-05-03T08:38:58Z</time></trkpt><trkpt lat="39.87298035006339" lon="9.214807276943151"><ele>733.0</ele><time>2026-05-03T08:38:59Z</time></trkpt><trkpt lat="39.87313927083146" lon="9.214740855006202"><ele>730.6666666666667</ele><time>2026-05-03T08:39:00Z</time></trkpt><trkpt lat="39.87329642680135" lon="9.214669676719689"><ele>728.3333333333334</ele><time>2026-05-03T08:39:01Z</time></trkpt><trkpt lat="39.873432486432165" lon="9.214589163537738"><ele>726.0</ele><time>2026-05-03T08:39:02Z</time></trkpt><trkpt lat="39.87354438492167" lon="9.214489647932302"><ele>726.0</ele><time>2026-05-03T08:39:03Z</time></trkpt><trkpt lat="39.87363609819093" lon="9.214369539031763"><ele>726.0</ele><time>2026-05-03T08:39:04Z</time></trkpt><trkpt lat="39.873708570467784" lon="9.214238894311965"><ele>726.0</ele><time>2026-05-03T08:39:05Z</time></trkpt><trkpt lat="39.873765282584294" lon="9.214092354058195"><ele>726.0</ele><time>2026-05-03T08:39:06Z</time></trkpt><trkpt lat="39.87380288858407" lon="9.213949902499005"><ele>724.0</ele><time>2026-05-03T08:39:07Z</time></trkpt><trkpt lat="39.87380872330133" lon="9.213789552636069"><ele>722.0</ele><time>2026-05-03T08:39:08Z</time></trkpt><trkpt lat="39.873782204271116" lon="9.213623416005177"><ele>720.0</ele><time>2026-05-03T08:39:09Z</time></trkpt><trkpt lat="39.87372996352261" lon="9.213451911562492"><ele>718.0</ele><time>2026-05-03T08:39:10Z</time></trkpt><trkpt lat="39.87365549788768" lon="9.213297922471039"><ele>718.0</ele><time>2026-05-03T08:39:11Z</time></trkpt><trkpt lat="39.873562237045476" lon="9.213158770816506"><ele>718.0</ele><time>2026-05-03T08:39:12Z</time></trkpt><trkpt lat="39.87345781065861" lon="9.213057614527234"><ele>718.0</ele><time>2026-05-03T08:39:13Z</time></trkpt><trkpt lat="39.87332783932374" lon="9.212989183698223"><ele>718.0</ele><time>2026-05-03T08:39:14Z</time></trkpt><trkpt lat="39.87317049316183" lon="9.212937556440831"><ele>724.0</ele><time>2026-05-03T08:39:15Z</time></trkpt><trkpt lat="39.87300934814289" lon="9.21288973483781"><ele>730.0</ele><time>2026-05-03T08:39:16Z</time></trkpt><trkpt lat="39.87285416887724" lon="9.212837591090937"><ele>736.0</ele><time>2026-05-03T08:39:17Z</time></trkpt><trkpt lat="39.8727062691098" lon="9.21273646993201"><ele>737.6666666666667</ele><time>2026-05-03T08:39:18Z</time></trkpt><trkpt lat="39.8725638619334" lon="9.212611892326654"><ele>739.3333333333334</ele><time>2026-05-03T08:39:19Z</time></trkpt><trkpt lat="39.87242621418732" lon="9.21246905074498"><ele>741.0</ele><time>2026-05-03T08:39:20Z</time></trkpt><trkpt lat="39.87229776630536" lon="9.212301708997622"><ele>741.0</ele><time>2026-05-03T08:39:21Z</time></trkpt><trkpt lat="39.87216637875586" lon="9.212122002365083"><ele>741.0</ele><time>2026-05-03T08:39:22Z</time></trkpt><trkpt lat="39.872027985640635" lon="9.211929240971276"><ele>741.0</ele><time>2026-05-03T08:39:23Z</time></trkpt><trkpt lat="39.87188803877692" lon="9.211748816595154"><ele>734.0</ele><time>2026-05-03T08:39:24Z</time></trkpt><trkpt lat="39.87174823457768" lon="9.211567079831942"><ele>727.0</ele><time>2026-05-03T08:39:25Z</time></trkpt><trkpt lat="39.8716216982001" lon="9.211387771631497"><ele>720.0</ele><time>2026-05-03T08:39:26Z</time></trkpt><trkpt lat="39.871505757164016" lon="9.211202971435721"><ele>720.0</ele><time>2026-05-03T08:39:27Z</time></trkpt><trkpt lat="39.871406577132" lon="9.211005105481869"><ele>720.0</ele><time>2026-05-03T08:39:28Z</time></trkpt><trkpt lat="39.871328643544786" lon="9.21079003756157"><ele>720.0</ele><time>2026-05-03T08:39:29Z</time></trkpt><trkpt lat="39.8712575578164" lon="9.210573657150924"><ele>727.3333333333334</ele><time>2026-05-03T08:39:30Z</time></trkpt><trkpt lat="39.87118648607913" lon="9.21037376124908"><ele>734.6666666666667</ele><time>2026-05-03T08:39:31Z</time></trkpt><trkpt lat="39.871093160525774" lon="9.210192969458499"><ele>742.0</ele><time>2026-05-03T08:39:32Z</time></trkpt><trkpt lat="39.87099870814607" lon="9.210024675288928"><ele>739.0</ele><time>2026-05-03T08:39:33Z</time></trkpt><trkpt lat="39.87084276223402" lon="9.209820648505234"><ele>736.0</ele><time>2026-05-03T08:39:34Z</time></trkpt><trkpt lat="39.87068351640156" lon="9.209677904085087"><ele>733.0</ele><time>2026-05-03T08:39:35Z</time></trkpt><trkpt lat="39.870525591997755" lon="9.209548098269288"><ele>733.0</ele><time>2026-05-03T08:39:36Z</time></trkpt><trkpt lat="39.87038410059403" lon="9.209414288944595"><ele>733.0</ele><time>2026-05-03T08:39:37Z</time></trkpt><trkpt lat="39.870255097524115" lon="9.20928988520774"><ele>733.0</ele><time>2026-05-03T08:39:38Z</time></trkpt><trkpt lat="39.87013663606485" lon="9.209166275667108"><ele>723.6666666666667</ele><time>2026-05-03T08:39:39Z</time></trkpt><trkpt lat="39.870029835960985" lon="9.209023362142547"><ele>714.3333333333334</ele><time>2026-05-03T08:39:40Z</time></trkpt><trkpt lat="39.86993260633134" lon="9.20884506761641"><ele>705.0</ele><time>2026-05-03T08:39:41Z</time></trkpt><trkpt lat="39.869880273027846" lon="9.208632237128167"><ele>705.0</ele><time>2026-05-03T08:39:42Z</time></trkpt><trkpt lat="39.86982654881758" lon="9.208398072240126"><ele>705.0</ele><time>2026-05-03T08:39:43Z</time></trkpt><trkpt lat="39.86974887246084" lon="9.208144589245494"><ele>705.0</ele><time>2026-05-03T08:39:44Z</time></trkpt><trkpt lat="39.86964493729269" lon="9.207921206199293"><ele>708.6666666666666</ele><time>2026-05-03T08:39:45Z</time></trkpt><trkpt lat="39.86954719026037" lon="9.207687742024168"><ele>712.3333333333333</ele><time>2026-05-03T08:39:46Z</time></trkpt><trkpt lat="39.86944851748034" lon="9.207488336699818"><ele>716.0</ele><time>2026-05-03T08:39:47Z</time></trkpt><trkpt lat="39.86936096837897" lon="9.207307984994733"><ele>716.0</ele><time>2026-05-03T08:39:48Z</time></trkpt><trkpt lat="39.869292469717244" lon="9.207122442466908"><ele>716.0</ele><time>2026-05-03T08:39:49Z</time></trkpt><trkpt lat="39.8692730172707" lon="9.206931295694945"><ele>716.0</ele><time>2026-05-03T08:39:50Z</time></trkpt><trkpt lat="39.869275625718934" lon="9.20675419373441"><ele>716.0</ele><time>2026-05-03T08:39:51Z</time></trkpt><trkpt lat="39.86929374108769" lon="9.20658395630981"><ele>709.5</ele><time>2026-05-03T08:39:52Z</time></trkpt><trkpt lat="39.86932132191571" lon="9.206416278889687"><ele>703.0</ele><time>2026-05-03T08:39:53Z</time></trkpt><trkpt lat="39.86935670600548" lon="9.206248164727855"><ele>696.5</ele><time>2026-05-03T08:39:54Z</time></trkpt><trkpt lat="39.86941092108739" lon="9.20607468937979"><ele>690.0</ele><time>2026-05-03T08:39:55Z</time></trkpt><trkpt lat="39.86951901350026" lon="9.205923139278289"><ele>690.0</ele><time>2026-05-03T08:39:56Z</time></trkpt><trkpt lat="39.86962440840821" lon="9.205785910026668"><ele>690.0</ele><time>2026-05-03T08:39:57Z</time></trkpt><trkpt lat="39.8697475855959" lon="9.205666816569718"><ele>690.0</ele><time>2026-05-03T08:39:58Z</time></trkpt><trkpt lat="39.869893293980354" lon="9.205567982100657"><ele>684.0</ele><time>2026-05-03T08:39:59Z</time></trkpt><trkpt lat="39.87004956198215" lon="9.205475853693029"><ele>678.0</ele><time>2026-05-03T08:40:00Z</time></trkpt><trkpt lat="39.8702217962627" lon="9.20538969990806"><ele>672.0</ele><time>2026-05-03T08:40:01Z</time></trkpt><trkpt lat="39.87039643564833" lon="9.205311198194215"><ele>672.0</ele><time>2026-05-03T08:40:02Z</time></trkpt><trkpt lat="39.87057530960475" lon="9.205222773776793"><ele>672.0</ele><time>2026-05-03T08:40:03Z</time></trkpt><trkpt lat="39.87075971650531" lon="9.205115793770966"><ele>672.0</ele><time>2026-05-03T08:40:04Z</time></trkpt><trkpt lat="39.870939169131645" lon="9.204994432266643"><ele>670.0</ele><time>2026-05-03T08:40:05Z</time></trkpt><trkpt lat="39.871117036053626" lon="9.204863670326208"><ele>668.0</ele><time>2026-05-03T08:40:06Z</time></trkpt><trkpt lat="39.87129826533116" lon="9.204701703983167"><ele>666.0</ele><time>2026-05-03T08:40:07Z</time></trkpt><trkpt lat="39.87148144487133" lon="9.20452730454775"><ele>666.0</ele><time>2026-05-03T08:40:08Z</time></trkpt><trkpt lat="39.87167559533595" lon="9.204350438445728"><ele>666.0</ele><time>2026-05-03T08:40:09Z</time></trkpt><trkpt lat="39.87187106328723" lon="9.204170498438142"><ele>666.3333333333334</ele><time>2026-05-03T08:40:10Z</time></trkpt><trkpt lat="39.872053157467384" lon="9.204006809814686"><ele>666.6666666666667</ele><time>2026-05-03T08:40:11Z</time></trkpt><trkpt lat="39.87223707377717" lon="9.203845655544905"><ele>667.0</ele><time>2026-05-03T08:40:12Z</time></trkpt><trkpt lat="39.872410961930335" lon="9.20368837787984"><ele>667.0</ele><time>2026-05-03T08:40:13Z</time></trkpt><trkpt lat="39.8725811708786" lon="9.203538859778552"><ele>667.0</ele><time>2026-05-03T08:40:14Z</time></trkpt><trkpt lat="39.87275451318379" lon="9.203400061180124"><ele>667.0</ele><time>2026-05-03T08:40:15Z</time></trkpt><trkpt lat="39.87293996291744" lon="9.203272096944044"><ele>662.6666666666667</ele><time>2026-05-03T08:40:16Z</time></trkpt><trkpt lat="39.87313518710197" lon="9.203155099215634"><ele>658.3333333333334</ele><time>2026-05-03T08:40:17Z</time></trkpt><trkpt lat="39.87333539972238" lon="9.203045582407828"><ele>654.0</ele><time>2026-05-03T08:40:18Z</time></trkpt><trkpt lat="39.873530440788" lon="9.20293156015261"><ele>654.0</ele><time>2026-05-03T08:40:19Z</time></trkpt><trkpt lat="39.873715490556" lon="9.202824265487777"><ele>654.0</ele><time>2026-05-03T08:40:20Z</time></trkpt><trkpt lat="39.87389567435561" lon="9.20271942680013"><ele>654.0</ele><time>2026-05-03T08:40:21Z</time></trkpt><trkpt lat="39.874063140363916" lon="9.202621397131413"><ele>654.0</ele><time>2026-05-03T08:40:22Z</time></trkpt><trkpt lat="39.874218806610095" lon="9.202530893784175"><ele>654.0</ele><time>2026-05-03T08:40:23Z</time></trkpt><trkpt lat="39.874365506131895" lon="9.202472409443317"><ele>654.0</ele><time>2026-05-03T08:40:24Z</time></trkpt><trkpt lat="39.87451208637496" lon="9.20245882846603"><ele>653.6666666666666</ele><time>2026-05-03T08:40:25Z</time></trkpt><trkpt lat="39.874668241582945" lon="9.202480428183227"><ele>653.3333333333333</ele><time>2026-05-03T08:40:26Z</time></trkpt><trkpt lat="39.87482877961191" lon="9.202528051689123"><ele>653.0</ele><time>2026-05-03T08:40:27Z</time></trkpt><trkpt lat="39.87499492879826" lon="9.202579081323728"><ele>652.0</ele><time>2026-05-03T08:40:28Z</time></trkpt><trkpt lat="39.87517961043167" lon="9.202607142509928"><ele>651.0</ele><time>2026-05-03T08:40:29Z</time></trkpt><trkpt lat="39.87536938943143" lon="9.202632165084276"><ele>650.0</ele><time>2026-05-03T08:40:30Z</time></trkpt><trkpt lat="39.87556172129708" lon="9.20263625889113"><ele>650.0</ele><time>2026-05-03T08:40:31Z</time></trkpt><trkpt lat="39.875768846219174" lon="9.202611141847068"><ele>650.0</ele><time>2026-05-03T08:40:32Z</time></trkpt><trkpt lat="39.87598640272579" lon="9.202565098365163"><ele>650.0</ele><time>2026-05-03T08:40:33Z</time></trkpt><trkpt lat="39.87620602573069" lon="9.202520007054183"><ele>650.0</ele><time>2026-05-03T08:40:34Z</time></trkpt><trkpt lat="39.87642429055233" lon="9.202491920737808"><ele>650.0</ele><time>2026-05-03T08:40:35Z</time></trkpt><trkpt lat="39.876636302313685" lon="9.202457618190545"><ele>650.0</ele><time>2026-05-03T08:40:36Z</time></trkpt><trkpt lat="39.87684429745599" lon="9.202421553006342"><ele>650.6666666666666</ele><time>2026-05-03T08:40:37Z</time></trkpt><trkpt lat="39.87704033787065" lon="9.202371237161449"><ele>651.3333333333334</ele><time>2026-05-03T08:40:38Z</time></trkpt><trkpt lat="39.8772260663631" lon="9.202316860983734"><ele>652.0</ele><time>2026-05-03T08:40:39Z</time></trkpt><trkpt lat="39.87740921017574" lon="9.20225744219409"><ele>640.0</ele><time>2026-05-03T08:40:40Z</time></trkpt><trkpt lat="39.87758258805706" lon="9.20219165874504"><ele>628.0</ele><time>2026-05-03T08:40:41Z</time></trkpt><trkpt lat="39.87774302610121" lon="9.20212192204805"><ele>616.0</ele><time>2026-05-03T08:40:42Z</time></trkpt><trkpt lat="39.877892773610164" lon="9.202060578413269"><ele>616.0</ele><time>2026-05-03T08:40:43Z</time></trkpt><trkpt lat="39.878031458873565" lon="9.20200747336442"><ele>616.0</ele><time>2026-05-03T08:40:44Z</time></trkpt><trkpt lat="39.87816530446708" lon="9.201980149374107"><ele>616.0</ele><time>2026-05-03T08:40:45Z</time></trkpt><trkpt lat="39.87831175376662" lon="9.201981695684575"><ele>616.0</ele><time>2026-05-03T08:40:46Z</time></trkpt><trkpt lat="39.87846597512441" lon="9.20201386291442"><ele>612.6666666666667</ele><time>2026-05-03T08:40:47Z</time></trkpt><trkpt lat="39.87862495516232" lon="9.202068712264769"><ele>609.3333333333334</ele><time>2026-05-03T08:40:48Z</time></trkpt><trkpt lat="39.87879196645519" lon="9.202139778201188"><ele>606.0</ele><time>2026-05-03T08:40:49Z</time></trkpt><trkpt lat="39.87895101533581" lon="9.202215362042383"><ele>606.0</ele><time>2026-05-03T08:40:50Z</time></trkpt><trkpt lat="39.87909525937253" lon="9.202289080771669"><ele>606.0</ele><time>2026-05-03T08:40:51Z</time></trkpt><trkpt lat="39.87922665981635" lon="9.202374489874215"><ele>606.0</ele><time>2026-05-03T08:40:52Z</time></trkpt><trkpt lat="39.87934298777229" lon="9.202465399284282"><ele>606.0</ele><time>2026-05-03T08:40:53Z</time></trkpt><trkpt lat="39.879442083007106" lon="9.202567259973778"><ele>606.0</ele><time>2026-05-03T08:40:54Z</time></trkpt><trkpt lat="39.87951417145896" lon="9.20269986493627"><ele>606.0</ele><time>2026-05-03T08:40:55Z</time></trkpt><trkpt lat="39.87956810822299" lon="9.202858839218987"><ele>606.0</ele><time>2026-05-03T08:40:56Z</time></trkpt><trkpt lat="39.87960182035778" lon="9.20304342141438"><ele>606.0</ele><time>2026-05-03T08:40:57Z</time></trkpt><trkpt lat="39.87962304844813" lon="9.203251149318984"><ele>606.0</ele><time>2026-05-03T08:40:58Z</time></trkpt><trkpt lat="39.879640115229414" lon="9.203485309942096"><ele>606.0</ele><time>2026-05-03T08:40:59Z</time></trkpt><trkpt lat="39.87966004118173" lon="9.2037238254239"><ele>606.0</ele><time>2026-05-03T08:41:00Z</time></trkpt><trkpt lat="39.87969140495644" lon="9.203983125059715"><ele>608.3333333333334</ele><time>2026-05-03T08:41:01Z</time></trkpt><trkpt lat="39.87972995388651" lon="9.204236972882525"><ele>610.6666666666667</ele><time>2026-05-03T08:41:02Z</time></trkpt><trkpt lat="39.87977759212828" lon="9.204480946246008"><ele>613.0</ele><time>2026-05-03T08:41:03Z</time></trkpt><trkpt lat="39.879828402523934" lon="9.204715015509683"><ele>615.3333333333334</ele><time>2026-05-03T08:41:04Z</time></trkpt><trkpt lat="39.87988816434305" lon="9.204941806688561"><ele>617.6666666666666</ele><time>2026-05-03T08:41:05Z</time></trkpt><trkpt lat="39.8799551399924" lon="9.205162490067694"><ele>620.0</ele><time>2026-05-03T08:41:06Z</time></trkpt><trkpt lat="39.88002737147586" lon="9.205373251997901"><ele>610.0</ele><time>2026-05-03T08:41:07Z</time></trkpt><trkpt lat="39.880102460568715" lon="9.20557400316954"><ele>600.0</ele><time>2026-05-03T08:41:08Z</time></trkpt><trkpt lat="39.8801877245418" lon="9.205773481135004"><ele>590.0</ele><time>2026-05-03T08:41:09Z</time></trkpt><trkpt lat="39.88028458974384" lon="9.205965343552592"><ele>590.0</ele><time>2026-05-03T08:41:10Z</time></trkpt><trkpt lat="39.88038345359132" lon="9.206145411192544"><ele>590.0</ele><time>2026-05-03T08:41:11Z</time></trkpt><trkpt lat="39.88047492444823" lon="9.206316177815632"><ele>590.0</ele><time>2026-05-03T08:41:12Z</time></trkpt><trkpt lat="39.880567470495805" lon="9.206476171862148"><ele>592.5</ele><time>2026-05-03T08:41:13Z</time></trkpt><trkpt lat="39.88066703631119" lon="9.206615622929197"><ele>595.0</ele><time>2026-05-03T08:41:14Z</time></trkpt><trkpt lat="39.880784557433955" lon="9.206725556662429"><ele>597.5</ele><time>2026-05-03T08:41:15Z</time></trkpt><trkpt lat="39.880925042994456" lon="9.206817997526622"><ele>600.0</ele><time>2026-05-03T08:41:16Z</time></trkpt><trkpt lat="39.88108703227751" lon="9.206894443535008"><ele>600.0</ele><time>2026-05-03T08:41:17Z</time></trkpt><trkpt lat="39.88126470478863" lon="9.206951309006968"><ele>600.0</ele><time>2026-05-03T08:41:18Z</time></trkpt><trkpt lat="39.88143798259467" lon="9.207000596364706"><ele>600.0</ele><time>2026-05-03T08:41:19Z</time></trkpt><trkpt lat="39.88159665043587" lon="9.207030591903408"><ele>600.0</ele><time>2026-05-03T08:41:20Z</time></trkpt><trkpt lat="39.88174773362577" lon="9.20704462278246"><ele>600.0</ele><time>2026-05-03T08:41:21Z</time></trkpt><trkpt lat="39.881895876387645" lon="9.207017269141602"><ele>600.0</ele><time>2026-05-03T08:41:22Z</time></trkpt><trkpt lat="39.882054284064935" lon="9.206950379618066"><ele>601.0</ele><time>2026-05-03T08:41:23Z</time></trkpt><trkpt lat="39.88221447110693" lon="9.206873781700706"><ele>602.0</ele><time>2026-05-03T08:41:24Z</time></trkpt><trkpt lat="39.88238493298954" lon="9.206790591726751"><ele>603.0</ele><time>2026-05-03T08:41:25Z</time></trkpt><trkpt lat="39.88254991751491" lon="9.206715280671446"><ele>609.0</ele><time>2026-05-03T08:41:26Z</time></trkpt><trkpt lat="39.88270210889848" lon="9.206643563442618"><ele>615.0</ele><time>2026-05-03T08:41:27Z</time></trkpt><trkpt lat="39.88284564216342" lon="9.20657790106624"><ele>621.0</ele><time>2026-05-03T08:41:28Z</time></trkpt><trkpt lat="39.882970252075395" lon="9.20650571071018"><ele>617.0</ele><time>2026-05-03T08:41:29Z</time></trkpt><trkpt lat="39.883088648970094" lon="9.206411592743732"><ele>613.0</ele><time>2026-05-03T08:41:30Z</time></trkpt><trkpt lat="39.8831755413912" lon="9.206286272129974"><ele>609.0</ele><time>2026-05-03T08:41:31Z</time></trkpt><trkpt lat="39.883259140201986" lon="9.206129590578335"><ele>605.0</ele><time>2026-05-03T08:41:32Z</time></trkpt><trkpt lat="39.883321919759844" lon="9.205947320331319"><ele>605.0</ele><time>2026-05-03T08:41:33Z</time></trkpt><trkpt lat="39.88336500024242" lon="9.205758057049099"><ele>605.0</ele><time>2026-05-03T08:41:34Z</time></trkpt><trkpt lat="39.8833796802902" lon="9.205566647228597"><ele>605.0</ele><time>2026-05-03T08:41:35Z</time></trkpt><trkpt lat="39.88336702830497" lon="9.205357964386435"><ele>605.3333333333333</ele><time>2026-05-03T08:41:36Z</time></trkpt><trkpt lat="39.88332945994983" lon="9.205138267224797"><ele>605.6666666666666</ele><time>2026-05-03T08:41:37Z</time></trkpt><trkpt lat="39.88328965090459" lon="9.204897601244124"><ele>606.0</ele><time>2026-05-03T08:41:38Z</time></trkpt><trkpt lat="39.88325247066412" lon="9.204646373860575"><ele>606.0</ele><time>2026-05-03T08:41:39Z</time></trkpt><trkpt lat="39.88321488929421" lon="9.204390119186828"><ele>606.0</ele><time>2026-05-03T08:41:40Z</time></trkpt><trkpt lat="39.88317689955356" lon="9.204129907208673"><ele>606.0</ele><time>2026-05-03T08:41:41Z</time></trkpt><trkpt lat="39.883134925917396" lon="9.203868017255049"><ele>605.6666666666666</ele><time>2026-05-03T08:41:42Z</time></trkpt><trkpt lat="39.88309478299015" lon="9.203624867113575"><ele>605.3333333333333</ele><time>2026-05-03T08:41:43Z</time></trkpt><trkpt lat="39.88305628882297" lon="9.203401805976986"><ele>605.0</ele><time>2026-05-03T08:41:44Z</time></trkpt><trkpt lat="39.88302601276418" lon="9.203180849255595"><ele>602.3333333333333</ele><time>2026-05-03T08:41:45Z</time></trkpt><trkpt lat="39.883020531540886" lon="9.20297004862176"><ele>599.6666666666666</ele><time>2026-05-03T08:41:46Z</time></trkpt><trkpt lat="39.883042895789636" lon="9.202761815217492"><ele>597.0</ele><time>2026-05-03T08:41:47Z</time></trkpt><trkpt lat="39.88308927902943" lon="9.20254422439993"><ele>589.6666666666666</ele><time>2026-05-03T08:41:48Z</time></trkpt><trkpt lat="39.88316540686289" lon="9.202316834176223"><ele>582.3333333333333</ele><time>2026-05-03T08:41:49Z</time></trkpt><trkpt lat="39.88325626038398" lon="9.202087995154175"><ele>575.0</ele><time>2026-05-03T08:41:50Z</time></trkpt><trkpt lat="39.88335132461071" lon="9.20186197589701"><ele>590.3333333333333</ele><time>2026-05-03T08:41:51Z</time></trkpt><trkpt lat="39.88343643641744" lon="9.201645089680431"><ele>605.6666666666666</ele><time>2026-05-03T08:41:52Z</time></trkpt><trkpt lat="39.88350778605296" lon="9.201432551952022"><ele>621.0</ele><time>2026-05-03T08:41:53Z</time></trkpt><trkpt lat="39.88356358484836" lon="9.201228377287"><ele>621.0</ele><time>2026-05-03T08:41:54Z</time></trkpt><trkpt lat="39.8836269670846" lon="9.20102904122209"><ele>621.0</ele><time>2026-05-03T08:41:55Z</time></trkpt><trkpt lat="39.883631673302794" lon="9.200805598933295"><ele>621.0</ele><time>2026-05-03T08:41:56Z</time></trkpt><trkpt lat="39.88359178840017" lon="9.20059010648708"><ele>617.3333333333334</ele><time>2026-05-03T08:41:57Z</time></trkpt><trkpt lat="39.88356108577973" lon="9.200376418980674"><ele>613.6666666666667</ele><time>2026-05-03T08:41:58Z</time></trkpt><trkpt lat="39.883543471056534" lon="9.200160298887397"><ele>610.0</ele><time>2026-05-03T08:41:59Z</time></trkpt><trkpt lat="39.8835572070214" lon="9.199930410756775"><ele>604.3333333333334</ele><time>2026-05-03T08:42:00Z</time></trkpt><trkpt lat="39.883585976824975" lon="9.19970293248248"><ele>598.6666666666666</ele><time>2026-05-03T08:42:01Z</time></trkpt><trkpt lat="39.88363664040931" lon="9.199470332337977"><ele>593.0</ele><time>2026-05-03T08:42:02Z</time></trkpt><trkpt lat="39.88370118035014" lon="9.19926282877542"><ele>593.0</ele><time>2026-05-03T08:42:03Z</time></trkpt><trkpt lat="39.883763612719115" lon="9.199049481598488"><ele>593.0</ele><time>2026-05-03T08:42:04Z</time></trkpt><trkpt lat="39.883797592981296" lon="9.198844275889083"><ele>593.0</ele><time>2026-05-03T08:42:05Z</time></trkpt><trkpt lat="39.88379933560054" lon="9.19864070746274"><ele>589.6666666666666</ele><time>2026-05-03T08:42:06Z</time></trkpt><trkpt lat="39.883782060820415" lon="9.198436122091554"><ele>586.3333333333334</ele><time>2026-05-03T08:42:07Z</time></trkpt><trkpt lat="39.8837522275909" lon="9.198215525968612"><ele>583.0</ele><time>2026-05-03T08:42:07.999Z</time></trkpt><trkpt lat="39.88373429121916" lon="9.198008627042487"><ele>579.75</ele><time>2026-05-03T08:42:09Z</time></trkpt><trkpt lat="39.883733548185155" lon="9.197798425159954"><ele>576.5</ele><time>2026-05-03T08:42:10Z</time></trkpt><trkpt lat="39.883747560239975" lon="9.197607047646507"><ele>573.25</ele><time>2026-05-03T08:42:11Z</time></trkpt><trkpt lat="39.88377507478016" lon="9.19746100341477"><ele>570.0</ele><time>2026-05-03T08:42:12Z</time></trkpt><trkpt lat="39.88381931600901" lon="9.19734145007664"><ele>564.75</ele><time>2026-05-03T08:42:13Z</time></trkpt><trkpt lat="39.8838894114076" lon="9.197241123361927"><ele>559.5</ele><time>2026-05-03T08:42:14Z</time></trkpt><trkpt lat="39.88398044238918" lon="9.197147596451792"><ele>554.25</ele><time>2026-05-03T08:42:15Z</time></trkpt><trkpt lat="39.88409850761998" lon="9.197055499243442"><ele>549.0</ele><time>2026-05-03T08:42:16Z</time></trkpt><trkpt lat="39.88423377524801" lon="9.196959705209117"><ele>549.0</ele><time>2026-05-03T08:42:17Z</time></trkpt><trkpt lat="39.88436567517983" lon="9.19685023381636"><ele>549.0</ele><time>2026-05-03T08:42:18Z</time></trkpt><trkpt lat="39.88451920954835" lon="9.196731906518762"><ele>549.0</ele><time>2026-05-03T08:42:19Z</time></trkpt><trkpt lat="39.884686174168806" lon="9.196594219439048"><ele>546.6666666666666</ele><time>2026-05-03T08:42:20Z</time></trkpt><trkpt lat="39.88485536333439" lon="9.196478777818024"><ele>544.3333333333333</ele><time>2026-05-03T08:42:21Z</time></trkpt><trkpt lat="39.885028156776" lon="9.196343981104082"><ele>542.0</ele><time>2026-05-03T08:42:22Z</time></trkpt><trkpt lat="39.88519184179869" lon="9.196222694965329"><ele>542.0</ele><time>2026-05-03T08:42:23Z</time></trkpt><trkpt lat="39.88538743185303" lon="9.196081422679358"><ele>542.0</ele><time>2026-05-03T08:42:24Z</time></trkpt><trkpt lat="39.88557308521959" lon="9.19594513096216"><ele>542.0</ele><time>2026-05-03T08:42:25Z</time></trkpt><trkpt lat="39.88574544900442" lon="9.195812005723742"><ele>542.0</ele><time>2026-05-03T08:42:26Z</time></trkpt><trkpt lat="39.885908494952716" lon="9.195679917679868"><ele>542.0</ele><time>2026-05-03T08:42:27Z</time></trkpt><trkpt lat="39.88605404909344" lon="9.195560995159473"><ele>542.0</ele><time>2026-05-03T08:42:28Z</time></trkpt><trkpt lat="39.88619268388493" lon="9.19549014321368"><ele>536.25</ele><time>2026-05-03T08:42:29Z</time></trkpt><trkpt lat="39.8863332140586" lon="9.195449796579659"><ele>530.5</ele><time>2026-05-03T08:42:30Z</time></trkpt><trkpt lat="39.8864722773365" lon="9.19544144289947"><ele>524.75</ele><time>2026-05-03T08:42:31Z</time></trkpt><trkpt lat="39.88661239463391" lon="9.195456498897373"><ele>519.0</ele><time>2026-05-03T08:42:32Z</time></trkpt><trkpt lat="39.88675142821652" lon="9.195493530899885"><ele>520.6666666666666</ele><time>2026-05-03T08:42:33Z</time></trkpt><trkpt lat="39.88689653804981" lon="9.19557254404936"><ele>522.3333333333333</ele><time>2026-05-03T08:42:34Z</time></trkpt><trkpt lat="39.88706714398116" lon="9.195678485581656"><ele>524.0</ele><time>2026-05-03T08:42:35Z</time></trkpt><trkpt lat="39.887253143963356" lon="9.195793600536714"><ele>524.0</ele><time>2026-05-03T08:42:36Z</time></trkpt><trkpt lat="39.887440641171274" lon="9.195910619943598"><ele>524.0</ele><time>2026-05-03T08:42:37Z</time></trkpt><trkpt lat="39.887612681213575" lon="9.196018209735453"><ele>524.0</ele><time>2026-05-03T08:42:38Z</time></trkpt><trkpt lat="39.887774126023636" lon="9.196119173460938"><ele>521.5</ele><time>2026-05-03T08:42:39Z</time></trkpt><trkpt lat="39.887920264005615" lon="9.19621424482267"><ele>519.0</ele><time>2026-05-03T08:42:40Z</time></trkpt><trkpt lat="39.88802932353321" lon="9.196331842504295"><ele>516.5</ele><time>2026-05-03T08:42:41Z</time></trkpt><trkpt lat="39.888109046951996" lon="9.196470368338767"><ele>514.0</ele><time>2026-05-03T08:42:42Z</time></trkpt><trkpt lat="39.88815520827256" lon="9.196614624237027"><ele>514.0</ele><time>2026-05-03T08:42:43Z</time></trkpt><trkpt lat="39.88817881748894" lon="9.196796315607031"><ele>514.0</ele><time>2026-05-03T08:42:44Z</time></trkpt><trkpt lat="39.8882471471951" lon="9.196968520695417"><ele>514.0</ele><time>2026-05-03T08:42:45Z</time></trkpt><trkpt lat="39.88830383851927" lon="9.197102422584429"><ele>514.0</ele><time>2026-05-03T08:42:46Z</time></trkpt><trkpt lat="39.88839841523939" lon="9.197205527989976"><ele>514.75</ele><time>2026-05-03T08:42:47Z</time></trkpt><trkpt lat="39.888515076623634" lon="9.197272011222717"><ele>515.5</ele><time>2026-05-03T08:42:48Z</time></trkpt><trkpt lat="39.88864226280705" lon="9.197299930461469"><ele>516.25</ele><time>2026-05-03T08:42:49Z</time></trkpt><trkpt lat="39.888764546723664" lon="9.197290456919115"><ele>517.0</ele><time>2026-05-03T08:42:50Z</time></trkpt><trkpt lat="39.888878324047816" lon="9.19724005913826"><ele>517.0</ele><time>2026-05-03T08:42:51Z</time></trkpt><trkpt lat="39.888987284512986" lon="9.19715429002564"><ele>517.0</ele><time>2026-05-03T08:42:52Z</time></trkpt><trkpt lat="39.88909797910544" lon="9.197035368260117"><ele>517.0</ele><time>2026-05-03T08:42:53Z</time></trkpt><trkpt lat="39.889203068994895" lon="9.196907749164833"><ele>517.0</ele><time>2026-05-03T08:42:54Z</time></trkpt><trkpt lat="39.88928504857959" lon="9.196775310976129"><ele>525.25</ele><time>2026-05-03T08:42:55Z</time></trkpt><trkpt lat="39.8893473884016" lon="9.19663167215243"><ele>533.5</ele><time>2026-05-03T08:42:56Z</time></trkpt><trkpt lat="39.88939254088376" lon="9.196472081703277"><ele>541.75</ele><time>2026-05-03T08:42:57Z</time></trkpt><trkpt lat="39.88941812664292" lon="9.196306300609931"><ele>550.0</ele><time>2026-05-03T08:42:58Z</time></trkpt><trkpt lat="39.88941661560945" lon="9.196135708891564"><ele>550.0</ele><time>2026-05-03T08:42:59Z</time></trkpt><trkpt lat="39.889387447011984" lon="9.195961407541091"><ele>550.0</ele><time>2026-05-03T08:43:00Z</time></trkpt><trkpt lat="39.88934050024846" lon="9.195779273748977"><ele>550.0</ele><time>2026-05-03T08:43:01Z</time></trkpt><trkpt lat="39.88928569974662" lon="9.195579335408633"><ele>550.0</ele><time>2026-05-03T08:43:02Z</time></trkpt><trkpt lat="39.88923331726768" lon="9.195370414677818"><ele>536.6666666666667</ele><time>2026-05-03T08:43:03Z</time></trkpt><trkpt lat="39.889179065883404" lon="9.19515817247839"><ele>523.3333333333334</ele><time>2026-05-03T08:43:04Z</time></trkpt><trkpt lat="39.889131183440625" lon="9.194965219383509"><ele>510.0</ele><time>2026-05-03T08:43:05Z</time></trkpt><trkpt lat="39.889088407958525" lon="9.19479001563423"><ele>506.0</ele><time>2026-05-03T08:43:06Z</time></trkpt><trkpt lat="39.88905847387135" lon="9.19462421995554"><ele>502.0</ele><time>2026-05-03T08:43:07Z</time></trkpt><trkpt lat="39.88906070392123" lon="9.194465844272543"><ele>498.0</ele><time>2026-05-03T08:43:08Z</time></trkpt><trkpt lat="39.889096152711815" lon="9.194320785798892"><ele>494.0</ele><time>2026-05-03T08:43:09Z</time></trkpt><trkpt lat="39.8891622006659" lon="9.194192328174925"><ele>492.0</ele><time>2026-05-03T08:43:10Z</time></trkpt><trkpt lat="39.889260026632385" lon="9.19407400905192"><ele>490.0</ele><time>2026-05-03T08:43:11Z</time></trkpt><trkpt lat="39.889387481775834" lon="9.19396163230882"><ele>488.0</ele><time>2026-05-03T08:43:12Z</time></trkpt><trkpt lat="39.88953341064845" lon="9.193855500796015"><ele>488.0</ele><time>2026-05-03T08:43:13Z</time></trkpt><trkpt lat="39.88968502736323" lon="9.193715831881137"><ele>488.0</ele><time>2026-05-03T08:43:14Z</time></trkpt><trkpt lat="39.88983986248259" lon="9.193586362467917"><ele>488.0</ele><time>2026-05-03T08:43:15Z</time></trkpt><trkpt lat="39.8900014543864" lon="9.19344260195874"><ele>484.3333333333333</ele><time>2026-05-03T08:43:16Z</time></trkpt><trkpt lat="39.890173893319755" lon="9.193291113493313"><ele>480.66666666666663</ele><time>2026-05-03T08:43:17Z</time></trkpt><trkpt lat="39.89034609423272" lon="9.193143197365709"><ele>477.0</ele><time>2026-05-03T08:43:18Z</time></trkpt><trkpt lat="39.89052782959679" lon="9.192999812039345"><ele>477.0</ele><time>2026-05-03T08:43:19Z</time></trkpt><trkpt lat="39.89072113888536" lon="9.1928575964889"><ele>477.0</ele><time>2026-05-03T08:43:20Z</time></trkpt><trkpt lat="39.89091331015824" lon="9.192716115572589"><ele>477.0</ele><time>2026-05-03T08:43:21Z</time></trkpt><trkpt lat="39.89109344021169" lon="9.192586326465497"><ele>481.33333333333337</ele><time>2026-05-03T08:43:22Z</time></trkpt><trkpt lat="39.89126542457106" lon="9.192462179842838"><ele>485.6666666666667</ele><time>2026-05-03T08:43:23Z</time></trkpt><trkpt lat="39.8914268134888" lon="9.192349018460533"><ele>490.0</ele><time>2026-05-03T08:43:24Z</time></trkpt><trkpt lat="39.89157684684713" lon="9.1922453204881"><ele>481.0</ele><time>2026-05-03T08:43:25Z</time></trkpt><trkpt lat="39.891728931078134" lon="9.192170885120424"><ele>472.0</ele><time>2026-05-03T08:43:26Z</time></trkpt><trkpt lat="39.891883853153814" lon="9.192137261678281"><ele>463.0</ele><time>2026-05-03T08:43:27Z</time></trkpt><trkpt lat="39.892049616180806" lon="9.192136643477088"><ele>460.33333333333337</ele><time>2026-05-03T08:43:28Z</time></trkpt><trkpt lat="39.89222084670233" lon="9.19216804406646"><ele>457.66666666666663</ele><time>2026-05-03T08:43:29Z</time></trkpt><trkpt lat="39.892390175870894" lon="9.192233341486705"><ele>455.0</ele><time>2026-05-03T08:43:30Z</time></trkpt><trkpt lat="39.89256439959047" lon="9.192315046116342"><ele>443.3333333333333</ele><time>2026-05-03T08:43:31Z</time></trkpt><trkpt lat="39.89274268842693" lon="9.192390013559512"><ele>431.66666666666663</ele><time>2026-05-03T08:43:32Z</time></trkpt><trkpt lat="39.89292790405635" lon="9.192462142060041"><ele>420.0</ele><time>2026-05-03T08:43:33Z</time></trkpt><trkpt lat="39.89312191402348" lon="9.192537187510203"><ele>420.0</ele><time>2026-05-03T08:43:34Z</time></trkpt><trkpt lat="39.8933329415259" lon="9.192620799817707"><ele>420.0</ele><time>2026-05-03T08:43:35Z</time></trkpt><trkpt lat="39.893544336640915" lon="9.192705311175171"><ele>420.0</ele><time>2026-05-03T08:43:36Z</time></trkpt><trkpt lat="39.89376101801421" lon="9.192793509565934"><ele>401.5</ele><time>2026-05-03T08:43:37Z</time></trkpt><trkpt lat="39.89399085893528" lon="9.192888741796907"><ele>383.0</ele><time>2026-05-03T08:43:38Z</time></trkpt><trkpt lat="39.894223612926574" lon="9.192983582719986"><ele>387.5</ele><time>2026-05-03T08:43:39Z</time></trkpt><trkpt lat="39.89447068444916" lon="9.193081244524278"><ele>392.0</ele><time>2026-05-03T08:43:40Z</time></trkpt><trkpt lat="39.894724582806404" lon="9.1931800711447"><ele>392.0</ele><time>2026-05-03T08:43:41Z</time></trkpt><trkpt lat="39.894982195607874" lon="9.193279599689316"><ele>392.0</ele><time>2026-05-03T08:43:42Z</time></trkpt><trkpt lat="39.89524832953853" lon="9.193383167776052"><ele>398.0</ele><time>2026-05-03T08:43:43Z</time></trkpt><trkpt lat="39.89550975556976" lon="9.193482623986746"><ele>404.0</ele><time>2026-05-03T08:43:44Z</time></trkpt><trkpt lat="39.895762815460216" lon="9.193585352255864"><ele>413.0</ele><time>2026-05-03T08:43:45Z</time></trkpt><trkpt lat="39.896002777857" lon="9.19368496594833"><ele>422.0</ele><time>2026-05-03T08:43:46Z</time></trkpt><trkpt lat="39.89623141774383" lon="9.193780539572217"><ele>422.0</ele><time>2026-05-03T08:43:47Z</time></trkpt><trkpt lat="39.89643790431145" lon="9.193863503523234"><ele>422.0</ele><time>2026-05-03T08:43:48Z</time></trkpt><trkpt lat="39.89662714585949" lon="9.193936061971657"><ele>422.0</ele><time>2026-05-03T08:43:49Z</time></trkpt><trkpt lat="39.896795773729714" lon="9.193991903933584"><ele>439.0</ele><time>2026-05-03T08:43:50Z</time></trkpt><trkpt lat="39.89695110023831" lon="9.194026468202924"><ele>456.0</ele><time>2026-05-03T08:43:51Z</time></trkpt><trkpt lat="39.89709799047226" lon="9.194039315758047"><ele>473.0</ele><time>2026-05-03T08:43:52Z</time></trkpt><trkpt lat="39.89724493363557" lon="9.194016890461654"><ele>472.0</ele><time>2026-05-03T08:43:53Z</time></trkpt><trkpt lat="39.89739478781357" lon="9.193960393195672"><ele>471.0</ele><time>2026-05-03T08:43:54Z</time></trkpt><trkpt lat="39.89755155274423" lon="9.193869814619616"><ele>470.0</ele><time>2026-05-03T08:43:55Z</time></trkpt><trkpt lat="39.89771556799624" lon="9.193757004656916"><ele>470.0</ele><time>2026-05-03T08:43:56Z</time></trkpt><trkpt lat="39.89788408155237" lon="9.193626889710282"><ele>470.0</ele><time>2026-05-03T08:43:57Z</time></trkpt><trkpt lat="39.89806278515843" lon="9.193493830824373"><ele>470.0</ele><time>2026-05-03T08:43:58Z</time></trkpt><trkpt lat="39.89825299987827" lon="9.193332319271926"><ele>467.0</ele><time>2026-05-03T08:43:59Z</time></trkpt><trkpt lat="39.89844299154587" lon="9.193194479869828"><ele>464.0</ele><time>2026-05-03T08:44:00Z</time></trkpt><trkpt lat="39.89863813623056" lon="9.193053128792082"><ele>461.0</ele><time>2026-05-03T08:44:01Z</time></trkpt><trkpt lat="39.89882381378153" lon="9.192918011692663"><ele>461.0</ele><time>2026-05-03T08:44:02Z</time></trkpt><trkpt lat="39.898991738167595" lon="9.1928014766297"><ele>461.0</ele><time>2026-05-03T08:44:03Z</time></trkpt><trkpt lat="39.899142028445546" lon="9.192682860050608"><ele>461.0</ele><time>2026-05-03T08:44:04Z</time></trkpt><trkpt lat="39.89927848052663" lon="9.192567355443545"><ele>467.3333333333333</ele><time>2026-05-03T08:44:05Z</time></trkpt><trkpt lat="39.89940358662067" lon="9.192438892575895"><ele>473.66666666666663</ele><time>2026-05-03T08:44:06Z</time></trkpt><trkpt lat="39.899512907764404" lon="9.192294608924366"><ele>480.0</ele><time>2026-05-03T08:44:07Z</time></trkpt><trkpt lat="39.899613168636414" lon="9.192129119397425"><ele>480.0</ele><time>2026-05-03T08:44:08Z</time></trkpt><trkpt lat="39.89970511723846" lon="9.191950215838583"><ele>480.0</ele><time>2026-05-03T08:44:09Z</time></trkpt><trkpt lat="39.899784499905614" lon="9.191758086932952"><ele>480.0</ele><time>2026-05-03T08:44:10Z</time></trkpt><trkpt lat="39.899852228184216" lon="9.191537916939009"><ele>477.0</ele><time>2026-05-03T08:44:11Z</time></trkpt><trkpt lat="39.89991698613809" lon="9.191316887731444"><ele>474.0</ele><time>2026-05-03T08:44:12Z</time></trkpt><trkpt lat="39.89998111913583" lon="9.191095669721916"><ele>471.0</ele><time>2026-05-03T08:44:12.999Z</time></trkpt><trkpt lat="39.900049109388455" lon="9.190880558425583"><ele>476.66666666666663</ele><time>2026-05-03T08:44:13.999Z</time></trkpt><trkpt lat="39.900122353464305" lon="9.190695182450215"><ele>482.3333333333333</ele><time>2026-05-03T08:44:14.999Z</time></trkpt><trkpt lat="39.9002113320263" lon="9.190541747542854"><ele>488.0</ele><time>2026-05-03T08:44:15.999Z</time></trkpt><trkpt lat="39.90031494913205" lon="9.190407644763543"><ele>488.0</ele><time>2026-05-03T08:44:16.999Z</time></trkpt><trkpt lat="39.90042838098319" lon="9.190281851986201"><ele>488.0</ele><time>2026-05-03T08:44:17.999Z</time></trkpt><trkpt lat="39.90052854692333" lon="9.190175599380611"><ele>488.0</ele><time>2026-05-03T08:44:18.999Z</time></trkpt><trkpt lat="39.90061174317043" lon="9.190062640804301"><ele>488.0</ele><time>2026-05-03T08:44:19.999Z</time></trkpt><trkpt lat="39.90068840386458" lon="9.189930440156472"><ele>485.75</ele><time>2026-05-03T08:44:20.999Z</time></trkpt><trkpt lat="39.900751894397445" lon="9.189774644174769"><ele>483.5</ele><time>2026-05-03T08:44:21.999Z</time></trkpt><trkpt lat="39.90079560113821" lon="9.189615822102242"><ele>481.25</ele><time>2026-05-03T08:44:22.999Z</time></trkpt><trkpt lat="39.900864304539276" lon="9.189441002053933"><ele>479.0</ele><time>2026-05-03T08:44:24Z</time></trkpt><trkpt lat="39.90090977419194" lon="9.189238762560521"><ele>487.66666666666663</ele><time>2026-05-03T08:44:25Z</time></trkpt><trkpt lat="39.900964710858055" lon="9.189013833797956"><ele>496.33333333333337</ele><time>2026-05-03T08:44:26Z</time></trkpt><trkpt lat="39.901018487860675" lon="9.188808596558093"><ele>505.0</ele><time>2026-05-03T08:44:27Z</time></trkpt><trkpt lat="39.901074124873624" lon="9.18858317091334"><ele>505.6666666666667</ele><time>2026-05-03T08:44:28Z</time></trkpt><trkpt lat="39.901127031269795" lon="9.188382988651911"><ele>506.33333333333337</ele><time>2026-05-03T08:44:29Z</time></trkpt><trkpt lat="39.901155466420825" lon="9.188201990339483"><ele>507.0</ele><time>2026-05-03T08:44:30Z</time></trkpt><trkpt lat="39.901159369280066" lon="9.188007201318861"><ele>508.25</ele><time>2026-05-03T08:44:31Z</time></trkpt><trkpt lat="39.9011374793887" lon="9.18780816916854"><ele>509.5</ele><time>2026-05-03T08:44:32Z</time></trkpt><trkpt lat="39.901098608376266" lon="9.18763498569461"><ele>510.75</ele><time>2026-05-03T08:44:33Z</time></trkpt><trkpt lat="39.90106172566243" lon="9.187478152688355"><ele>512.0</ele><time>2026-05-03T08:44:34Z</time></trkpt><trkpt lat="39.901044091305394" lon="9.18734688745206"><ele>513.5</ele><time>2026-05-03T08:44:35Z</time></trkpt><trkpt lat="39.90105048009752" lon="9.187247722878194"><ele>515.0</ele><time>2026-05-03T08:44:36Z</time></trkpt><trkpt lat="39.90107882836169" lon="9.187166222480572"><ele>516.5</ele><time>2026-05-03T08:44:37Z</time></trkpt><trkpt lat="39.9011815549041" lon="9.18709694275536"><ele>518.0</ele><time>2026-05-03T08:44:39Z</time></trkpt><trkpt lat="39.90124469867762" lon="9.187107393668306"><ele>519.5</ele><time>2026-05-03T08:44:40Z</time></trkpt><trkpt lat="39.90129664470851" lon="9.187162768197737"><ele>521.0</ele><time>2026-05-03T08:44:41Z</time></trkpt><trkpt lat="39.90134069153127" lon="9.187254185456023"><ele>518.75</ele><time>2026-05-03T08:44:42Z</time></trkpt><trkpt lat="39.90135871234479" lon="9.187385585151853"><ele>516.5</ele><time>2026-05-03T08:44:43Z</time></trkpt><trkpt lat="39.901412120020396" lon="9.18753590991708"><ele>514.25</ele><time>2026-05-03T08:44:44Z</time></trkpt><trkpt lat="39.90145783371751" lon="9.187712636945434"><ele>512.0</ele><time>2026-05-03T08:44:45Z</time></trkpt><trkpt lat="39.90150079872472" lon="9.187912658971616"><ele>512.0</ele><time>2026-05-03T08:44:46Z</time></trkpt><trkpt lat="39.90154816331116" lon="9.188075909546383"><ele>512.0</ele><time>2026-05-03T08:44:47Z</time></trkpt><trkpt lat="39.901596053467735" lon="9.188248118674766"><ele>512.0</ele><time>2026-05-03T08:44:48Z</time></trkpt><trkpt lat="39.90165287037995" lon="9.188418640582567"><ele>512.0</ele><time>2026-05-03T08:44:49Z</time></trkpt><trkpt lat="39.90170667901857" lon="9.188602385908046"><ele>510.3333333333333</ele><time>2026-05-03T08:44:50Z</time></trkpt><trkpt lat="39.9017350986204" lon="9.188781496664088"><ele>508.66666666666663</ele><time>2026-05-03T08:44:51Z</time></trkpt><trkpt lat="39.9017775285199" lon="9.189017686588869"><ele>507.0</ele><time>2026-05-03T08:44:52Z</time></trkpt><trkpt lat="39.90178179194952" lon="9.189236005405919"><ele>506.33333333333337</ele><time>2026-05-03T08:44:53Z</time></trkpt><trkpt lat="39.901750706267826" lon="9.18945267542817"><ele>505.6666666666667</ele><time>2026-05-03T08:44:54Z</time></trkpt><trkpt lat="39.90173515861949" lon="9.189672801466127"><ele>505.0</ele><time>2026-05-03T08:44:55Z</time></trkpt><trkpt lat="39.90170040923629" lon="9.189890073141317"><ele>508.33333333333337</ele><time>2026-05-03T08:44:56Z</time></trkpt><trkpt lat="39.90165425315688" lon="9.190104978697708"><ele>511.66666666666663</ele><time>2026-05-03T08:44:57Z</time></trkpt><trkpt lat="39.90157450228303" lon="9.190315879609479"><ele>515.0</ele><time>2026-05-03T08:44:58Z</time></trkpt><trkpt lat="39.901486984688084" lon="9.190505054280719"><ele>519.3333333333333</ele><time>2026-05-03T08:44:59Z</time></trkpt><trkpt lat="39.90139439240442" lon="9.19069553790526"><ele>523.6666666666666</ele><time>2026-05-03T08:45:00Z</time></trkpt><trkpt lat="39.9013077670644" lon="9.190857791518438"><ele>528.0</ele><time>2026-05-03T08:45:01Z</time></trkpt><trkpt lat="39.90122518157273" lon="9.191003103136525"><ele>528.0</ele><time>2026-05-03T08:45:02Z</time></trkpt><trkpt lat="39.90116572161635" lon="9.191117411305914"><ele>528.0</ele><time>2026-05-03T08:45:03Z</time></trkpt><trkpt lat="39.90113397373415" lon="9.191223483502872"><ele>528.0</ele><time>2026-05-03T08:45:04Z</time></trkpt><trkpt lat="39.90113015326994" lon="9.19132274893813"><ele>528.0</ele><time>2026-05-03T08:45:05Z</time></trkpt><trkpt lat="39.90117736477612" lon="9.191427838262781"><ele>528.0</ele><time>2026-05-03T08:45:06Z</time></trkpt><trkpt lat="39.901270381338634" lon="9.191459909901075"><ele>528.0</ele><time>2026-05-03T08:45:07Z</time></trkpt><trkpt lat="39.90133183915083" lon="9.191427322509943"><ele>528.0</ele><time>2026-05-03T08:45:08Z</time></trkpt><trkpt lat="39.901394639753235" lon="9.191362397464935"><ele>528.0</ele><time>2026-05-03T08:45:09Z</time></trkpt><trkpt lat="39.90145155627295" lon="9.19124819878857"><ele>528.0</ele><time>2026-05-03T08:45:10Z</time></trkpt><trkpt lat="39.901508368101226" lon="9.191109071140625"><ele>528.0</ele><time>2026-05-03T08:45:11Z</time></trkpt><trkpt lat="39.90157708158924" lon="9.190938071927274"><ele>528.0</ele><time>2026-05-03T08:45:12Z</time></trkpt><trkpt lat="39.901658519028416" lon="9.190772033291772"><ele>528.0</ele><time>2026-05-03T08:45:13Z</time></trkpt><trkpt lat="39.90173194930976" lon="9.190602394121447"><ele>528.0</ele><time>2026-05-03T08:45:14Z</time></trkpt><trkpt lat="39.90181135896353" lon="9.190428992608865"><ele>532.0</ele><time>2026-05-03T08:45:15Z</time></trkpt><trkpt lat="39.90188212481447" lon="9.190270217342738"><ele>536.0</ele><time>2026-05-03T08:45:16Z</time></trkpt><trkpt lat="39.90198535244373" lon="9.19007071796866"><ele>540.0</ele><time>2026-05-03T08:45:17Z</time></trkpt><trkpt lat="39.90207000242607" lon="9.189889114805641"><ele>536.3333333333334</ele><time>2026-05-03T08:45:18Z</time></trkpt><trkpt lat="39.90218964467554" lon="9.189717606031099"><ele>532.6666666666667</ele><time>2026-05-03T08:45:19Z</time></trkpt><trkpt lat="39.90231687960261" lon="9.189557813553224"><ele>529.0</ele><time>2026-05-03T08:45:20Z</time></trkpt><trkpt lat="39.90245074304401" lon="9.189417373329224"><ele>529.0</ele><time>2026-05-03T08:45:21Z</time></trkpt><trkpt lat="39.90257899897404" lon="9.189285549490533"><ele>529.0</ele><time>2026-05-03T08:45:22Z</time></trkpt><trkpt lat="39.90267901571318" lon="9.189156089915231"><ele>529.0</ele><time>2026-05-03T08:45:23Z</time></trkpt><trkpt lat="39.90277651660406" lon="9.189048444275352"><ele>529.0</ele><time>2026-05-03T08:45:24Z</time></trkpt><trkpt lat="39.90285370110717" lon="9.188938742885558"><ele>537.25</ele><time>2026-05-03T08:45:25Z</time></trkpt><trkpt lat="39.90290093637936" lon="9.188811352263619"><ele>545.5</ele><time>2026-05-03T08:45:26Z</time></trkpt><trkpt lat="39.90293133387726" lon="9.188678805738121"><ele>553.75</ele><time>2026-05-03T08:45:27Z</time></trkpt><trkpt lat="39.90289026246504" lon="9.188528306100912"><ele>562.0</ele><time>2026-05-03T08:45:28Z</time></trkpt><trkpt lat="39.90282708128468" lon="9.188375507226572"><ele>562.0</ele><time>2026-05-03T08:45:29Z</time></trkpt><trkpt lat="39.902740484448906" lon="9.188216592067409"><ele>562.0</ele><time>2026-05-03T08:45:30Z</time></trkpt><trkpt lat="39.90264356337212" lon="9.188039680914526"><ele>562.0</ele><time>2026-05-03T08:45:31Z</time></trkpt><trkpt lat="39.902545298397136" lon="9.18784488245245"><ele>558.0</ele><time>2026-05-03T08:45:32Z</time></trkpt><trkpt lat="39.9024634563127" lon="9.187633870997239"><ele>554.0</ele><time>2026-05-03T08:45:33Z</time></trkpt><trkpt lat="39.902397721780474" lon="9.187434780338616"><ele>550.0</ele><time>2026-05-03T08:45:34Z</time></trkpt><trkpt lat="39.90233764402414" lon="9.187285842467725"><ele>550.0</ele><time>2026-05-03T08:45:35Z</time></trkpt><trkpt lat="39.90232831641983" lon="9.187158547591117"><ele>550.0</ele><time>2026-05-03T08:45:36Z</time></trkpt><trkpt lat="39.90232877691141" lon="9.187048046466577"><ele>550.0</ele><time>2026-05-03T08:45:37Z</time></trkpt><trkpt lat="39.90236552624198" lon="9.186976621395871"><ele>550.0</ele><time>2026-05-03T08:45:38Z</time></trkpt><trkpt lat="39.90243801459332" lon="9.18693898052699"><ele>550.0</ele><time>2026-05-03T08:45:39Z</time></trkpt><trkpt lat="39.9025158609878" lon="9.186919871195213"><ele>550.0</ele><time>2026-05-03T08:45:40Z</time></trkpt><trkpt lat="39.90264532119887" lon="9.187030021510477"><ele>554.8</ele><time>2026-05-03T08:45:42Z</time></trkpt><trkpt lat="39.902666587644475" lon="9.187137010285397"><ele>559.6</ele><time>2026-05-03T08:45:43Z</time></trkpt><trkpt lat="39.902687871552665" lon="9.187263274709842"><ele>564.4</ele><time>2026-05-03T08:45:44Z</time></trkpt><trkpt lat="39.90269854940145" lon="9.187413900398989"><ele>569.2</ele><time>2026-05-03T08:45:45Z</time></trkpt><trkpt lat="39.90271790648384" lon="9.187557035215878"><ele>574.0</ele><time>2026-05-03T08:45:46Z</time></trkpt><trkpt lat="39.902751281953826" lon="9.187708760274397"><ele>574.5</ele><time>2026-05-03T08:45:47Z</time></trkpt><trkpt lat="39.90279841359119" lon="9.187867904558908"><ele>575.0</ele><time>2026-05-03T08:45:48Z</time></trkpt><trkpt lat="39.90285905028132" lon="9.188023393217023"><ele>575.5</ele><time>2026-05-03T08:45:49Z</time></trkpt><trkpt lat="39.90293853395873" lon="9.188176805714052"><ele>576.0</ele><time>2026-05-03T08:45:50Z</time></trkpt><trkpt lat="39.903029949302116" lon="9.188325367913123"><ele>572.5</ele><time>2026-05-03T08:45:51Z</time></trkpt><trkpt lat="39.90311994996099" lon="9.188466177977125"><ele>569.0</ele><time>2026-05-03T08:45:52Z</time></trkpt><trkpt lat="39.903195384517986" lon="9.188601228953871"><ele>565.5</ele><time>2026-05-03T08:45:53Z</time></trkpt><trkpt lat="39.90322849644952" lon="9.188744775728432"><ele>562.0</ele><time>2026-05-03T08:45:54Z</time></trkpt><trkpt lat="39.90323209433096" lon="9.188898283834476"><ele>562.0</ele><time>2026-05-03T08:45:55Z</time></trkpt><trkpt lat="39.90317838839432" lon="9.18905951606142"><ele>562.0</ele><time>2026-05-03T08:45:56Z</time></trkpt><trkpt lat="39.90313777733974" lon="9.189238515996475"><ele>562.0</ele><time>2026-05-03T08:45:57Z</time></trkpt><trkpt lat="39.90309582718154" lon="9.189433426673752"><ele>562.0</ele><time>2026-05-03T08:45:58Z</time></trkpt><trkpt lat="39.903051942356214" lon="9.189626067867808"><ele>562.0</ele><time>2026-05-03T08:45:59Z</time></trkpt><trkpt lat="39.903002600247866" lon="9.189836630181203"><ele>562.0</ele><time>2026-05-03T08:46:00Z</time></trkpt><trkpt lat="39.90293670600627" lon="9.190042660112324"><ele>562.0</ele><time>2026-05-03T08:46:01Z</time></trkpt><trkpt lat="39.90284435426097" lon="9.190221499014367"><ele>564.4</ele><time>2026-05-03T08:46:02Z</time></trkpt><trkpt lat="39.90275456718556" lon="9.190364385793004"><ele>566.8000000000001</ele><time>2026-05-03T08:46:03Z</time></trkpt><trkpt lat="39.902685611738896" lon="9.190484890294032"><ele>569.2</ele><time>2026-05-03T08:46:04Z</time></trkpt><trkpt lat="39.902643022838944" lon="9.19058673391746"><ele>571.6</ele><time>2026-05-03T08:46:05Z</time></trkpt><trkpt lat="39.90264131518065" lon="9.190683301435525"><ele>574.0</ele><time>2026-05-03T08:46:06Z</time></trkpt><trkpt lat="39.90266191576513" lon="9.190797366504329"><ele>574.0</ele><time>2026-05-03T08:46:07Z</time></trkpt><trkpt lat="39.90272609018959" lon="9.190862929004997"><ele>574.0</ele><time>2026-05-03T08:46:08Z</time></trkpt><trkpt lat="39.90281865239107" lon="9.19088096474933"><ele>574.0</ele><time>2026-05-03T08:46:09Z</time></trkpt><trkpt lat="39.90289705001876" lon="9.19085326170753"><ele>574.0</ele><time>2026-05-03T08:46:10Z</time></trkpt><trkpt lat="39.9029577305726" lon="9.190764962042786"><ele>574.0</ele><time>2026-05-03T08:46:11Z</time></trkpt><trkpt lat="39.902997655480895" lon="9.190635730864686"><ele>574.0</ele><time>2026-05-03T08:46:12Z</time></trkpt><trkpt lat="39.903036463009" lon="9.190493967367889"><ele>574.0</ele><time>2026-05-03T08:46:13Z</time></trkpt><trkpt lat="39.903090325704916" lon="9.190325959054244"><ele>574.0</ele><time>2026-05-03T08:46:14Z</time></trkpt><trkpt lat="39.90316173530336" lon="9.190137821734211"><ele>574.0</ele><time>2026-05-03T08:46:15Z</time></trkpt><trkpt lat="39.903241917588666" lon="9.189933562884216"><ele>570.0</ele><time>2026-05-03T08:46:16Z</time></trkpt><trkpt lat="39.90333678987613" lon="9.189713584016344"><ele>566.0</ele><time>2026-05-03T08:46:17Z</time></trkpt><trkpt lat="39.90343984234151" lon="9.189480308864946"><ele>562.0</ele><time>2026-05-03T08:46:18Z</time></trkpt><trkpt lat="39.90354167204907" lon="9.189251394041332"><ele>571.0</ele><time>2026-05-03T08:46:18.999Z</time></trkpt><trkpt lat="39.90362269034059" lon="9.189052676689643"><ele>580.0</ele><time>2026-05-03T08:46:19.999Z</time></trkpt><trkpt lat="39.903678675645146" lon="9.188877028562482"><ele>589.0</ele><time>2026-05-03T08:46:20.999Z</time></trkpt><trkpt lat="39.90372576764884" lon="9.18872910508393"><ele>598.0</ele><time>2026-05-03T08:46:21.999Z</time></trkpt><trkpt lat="39.90368580577136" lon="9.18857337407042"><ele>598.0</ele><time>2026-05-03T08:46:22.999Z</time></trkpt><trkpt lat="39.90361787172181" lon="9.188441835653755"><ele>598.0</ele><time>2026-05-03T08:46:23.999Z</time></trkpt><trkpt lat="39.90352415032881" lon="9.188315463009618"><ele>598.0</ele><time>2026-05-03T08:46:24.999Z</time></trkpt><trkpt lat="39.90341525509806" lon="9.188193674820793"><ele>598.0</ele><time>2026-05-03T08:46:25.999Z</time></trkpt><trkpt lat="39.903318444353516" lon="9.188029856050829"><ele>592.5</ele><time>2026-05-03T08:46:26.999Z</time></trkpt><trkpt lat="39.9032711953513" lon="9.187856019168072"><ele>587.0</ele><time>2026-05-03T08:46:27.999Z</time></trkpt><trkpt lat="39.90323259067542" lon="9.18765965498993"><ele>581.5</ele><time>2026-05-03T08:46:28.999Z</time></trkpt><trkpt lat="39.90322195597874" lon="9.187474907764718"><ele>576.0</ele><time>2026-05-03T08:46:30Z</time></trkpt><trkpt lat="39.90321837963759" lon="9.187299782682379"><ele>575.5</ele><time>2026-05-03T08:46:31Z</time></trkpt><trkpt lat="39.903250937310396" lon="9.18711888446297"><ele>575.0</ele><time>2026-05-03T08:46:32Z</time></trkpt><trkpt lat="39.90330484571313" lon="9.18695617468163"><ele>574.5</ele><time>2026-05-03T08:46:33Z</time></trkpt><trkpt lat="39.90338394391992" lon="9.186823287990357"><ele>574.0</ele><time>2026-05-03T08:46:34Z</time></trkpt><trkpt lat="39.90349231087074" lon="9.186729860859518"><ele>580.0</ele><time>2026-05-03T08:46:35Z</time></trkpt><trkpt lat="39.90362180336429" lon="9.186662476742427"><ele>586.0</ele><time>2026-05-03T08:46:36Z</time></trkpt><trkpt lat="39.90375518441381" lon="9.186631663460185"><ele>592.0</ele><time>2026-05-03T08:46:37Z</time></trkpt><trkpt lat="39.90388548294774" lon="9.18660636980298"><ele>598.0</ele><time>2026-05-03T08:46:38Z</time></trkpt><trkpt lat="39.903992452425534" lon="9.18653533804393"><ele>596.25</ele><time>2026-05-03T08:46:39Z</time></trkpt><trkpt lat="39.90407222800864" lon="9.186403327744593"><ele>594.5</ele><time>2026-05-03T08:46:40Z</time></trkpt><trkpt lat="39.904124425402586" lon="9.186254804060752"><ele>592.75</ele><time>2026-05-03T08:46:41Z</time></trkpt><trkpt lat="39.90414161311767" lon="9.186074665236726"><ele>591.0</ele><time>2026-05-03T08:46:42Z</time></trkpt><trkpt lat="39.90412389870679" lon="9.185890711964921"><ele>591.0</ele><time>2026-05-03T08:46:43Z</time></trkpt><trkpt lat="39.904081658405296" lon="9.185682398851796"><ele>591.0</ele><time>2026-05-03T08:46:44Z</time></trkpt><trkpt lat="39.90407061851606" lon="9.185501410770234"><ele>591.0</ele><time>2026-05-03T08:46:45Z</time></trkpt><trkpt lat="39.90408885459354" lon="9.185344934149947"><ele>591.0</ele><time>2026-05-03T08:46:46Z</time></trkpt><trkpt lat="39.90412331901286" lon="9.185265935791973"><ele>590.6</ele><time>2026-05-03T08:46:47Z</time></trkpt><trkpt lat="39.9042096567277" lon="9.185210914229462"><ele>590.2</ele><time>2026-05-03T08:46:49Z</time></trkpt><trkpt lat="39.904266695629154" lon="9.185262421783612"><ele>589.8</ele><time>2026-05-03T08:46:51Z</time></trkpt><trkpt lat="39.90432117208987" lon="9.18539338211522"><ele>589.4</ele><time>2026-05-03T08:46:53Z</time></trkpt><trkpt lat="39.90432378791511" lon="9.185489284931078"><ele>589.0</ele><time>2026-05-03T08:46:54Z</time></trkpt><trkpt lat="39.90430311230637" lon="9.185612001888957"><ele>599.25</ele><time>2026-05-03T08:46:55Z</time></trkpt><trkpt lat="39.90429314019655" lon="9.185743092999143"><ele>609.5</ele><time>2026-05-03T08:46:56Z</time></trkpt><trkpt lat="39.904293209154666" lon="9.185889063037946"><ele>619.75</ele><time>2026-05-03T08:46:57Z</time></trkpt><trkpt lat="39.90431077003369" lon="9.186042811000503"><ele>630.0</ele><time>2026-05-03T08:46:58Z</time></trkpt><trkpt lat="39.90432826749513" lon="9.18620382675811"><ele>630.0</ele><time>2026-05-03T08:46:59Z</time></trkpt><trkpt lat="39.90433199361071" lon="9.186383225493984"><ele>630.0</ele><time>2026-05-03T08:47:00Z</time></trkpt><trkpt lat="39.90429363099838" lon="9.186548276978316"><ele>630.0</ele><time>2026-05-03T08:47:01Z</time></trkpt><trkpt lat="39.90424722219847" lon="9.18671843560206"><ele>630.0</ele><time>2026-05-03T08:47:02Z</time></trkpt><trkpt lat="39.904170057670285" lon="9.186879392741558"><ele>624.5</ele><time>2026-05-03T08:47:03Z</time></trkpt><trkpt lat="39.90410510976916" lon="9.18704999855904"><ele>619.0</ele><time>2026-05-03T08:47:04Z</time></trkpt><trkpt lat="39.90403052694488" lon="9.187186987907184"><ele>613.5</ele><time>2026-05-03T08:47:05Z</time></trkpt><trkpt lat="39.90397744519355" lon="9.18732718814357"><ele>608.0</ele><time>2026-05-03T08:47:06Z</time></trkpt><trkpt lat="39.90394874320887" lon="9.187471444624897"><ele>608.0</ele><time>2026-05-03T08:47:07Z</time></trkpt><trkpt lat="39.9039580049224" lon="9.187626926013193"><ele>608.0</ele><time>2026-05-03T08:47:08Z</time></trkpt><trkpt lat="39.90399667718497" lon="9.187772737501577"><ele>608.0</ele><time>2026-05-03T08:47:09Z</time></trkpt><trkpt lat="39.90407923090662" lon="9.18788539236161"><ele>608.0</ele><time>2026-05-03T08:47:10Z</time></trkpt><trkpt lat="39.90419800169182" lon="9.187967234200613"><ele>613.0</ele><time>2026-05-03T08:47:11Z</time></trkpt><trkpt lat="39.90431358183314" lon="9.1880575833153"><ele>618.0</ele><time>2026-05-03T08:47:12Z</time></trkpt><trkpt lat="39.90441050364457" lon="9.188142035014167"><ele>623.0</ele><time>2026-05-03T08:47:13Z</time></trkpt><trkpt lat="39.90444750760133" lon="9.18826557471361"><ele>628.0</ele><time>2026-05-03T08:47:14Z</time></trkpt><trkpt lat="39.90446214407125" lon="9.188390789560437"><ele>628.0</ele><time>2026-05-03T08:47:15Z</time></trkpt><trkpt lat="39.9044527473472" lon="9.188476702345373"><ele>628.0</ele><time>2026-05-03T08:47:16Z</time></trkpt><trkpt lat="39.90447475821298" lon="9.18858788983226"><ele>628.0</ele><time>2026-05-03T08:47:17Z</time></trkpt><trkpt lat="39.90453551849183" lon="9.1886545476707"><ele>628.0</ele><time>2026-05-03T08:47:18Z</time></trkpt><trkpt lat="39.904633768412694" lon="9.188652575990536"><ele>628.0</ele><time>2026-05-03T08:47:19Z</time></trkpt><trkpt lat="39.904703448127655" lon="9.188619608970606"><ele>628.0</ele><time>2026-05-03T08:47:20Z</time></trkpt><trkpt lat="39.904753580504355" lon="9.188543662172725"><ele>628.0</ele><time>2026-05-03T08:47:21Z</time></trkpt><trkpt lat="39.904778092323006" lon="9.188434321120631"><ele>628.0</ele><time>2026-05-03T08:47:22Z</time></trkpt><trkpt lat="39.90477853577749" lon="9.1882888736098"><ele>628.0</ele><time>2026-05-03T08:47:23Z</time></trkpt><trkpt lat="39.90475507127082" lon="9.18815863553254"><ele>628.0</ele><time>2026-05-03T08:47:24Z</time></trkpt><trkpt lat="39.90470004890527" lon="9.188034881897492"><ele>628.0</ele><time>2026-05-03T08:47:25Z</time></trkpt><trkpt lat="39.90462079962641" lon="9.187926025272327"><ele>629.5</ele><time>2026-05-03T08:47:26Z</time></trkpt><trkpt lat="39.90453193649639" lon="9.187811088591168"><ele>631.0</ele><time>2026-05-03T08:47:27Z</time></trkpt><trkpt lat="39.90446345382375" lon="9.187672813516018"><ele>632.5</ele><time>2026-05-03T08:47:28Z</time></trkpt><trkpt lat="39.90442877049722" lon="9.18753933700564"><ele>634.0</ele><time>2026-05-03T08:47:29Z</time></trkpt><trkpt lat="39.904446799014146" lon="9.187408539455253"><ele>633.75</ele><time>2026-05-03T08:47:30Z</time></trkpt><trkpt lat="39.90449651963214" lon="9.187282327387315"><ele>633.5</ele><time>2026-05-03T08:47:31Z</time></trkpt><trkpt lat="39.90458254223512" lon="9.187171695294573"><ele>633.25</ele><time>2026-05-03T08:47:32Z</time></trkpt><trkpt lat="39.904677622629094" lon="9.187039629473954"><ele>633.0</ele><time>2026-05-03T08:47:33Z</time></trkpt><trkpt lat="39.90477215311592" lon="9.186897217750465"><ele>633.0</ele><time>2026-05-03T08:47:34Z</time></trkpt><trkpt lat="39.904849969452115" lon="9.186732929084563"><ele>633.0</ele><time>2026-05-03T08:47:35Z</time></trkpt><trkpt lat="39.90490698966504" lon="9.186550366906054"><ele>633.0</ele><time>2026-05-03T08:47:36Z</time></trkpt><trkpt lat="39.904933078703024" lon="9.186353633624199"><ele>632.25</ele><time>2026-05-03T08:47:37Z</time></trkpt><trkpt lat="39.904931864674886" lon="9.186160375818066"><ele>631.5</ele><time>2026-05-03T08:47:38Z</time></trkpt><trkpt lat="39.904915488402814" lon="9.185959643284363"><ele>630.75</ele><time>2026-05-03T08:47:39Z</time></trkpt><trkpt lat="39.904926310173934" lon="9.185784124647546"><ele>630.0</ele><time>2026-05-03T08:47:40Z</time></trkpt><trkpt lat="39.904971602493035" lon="9.185630925304055"><ele>628.75</ele><time>2026-05-03T08:47:41Z</time></trkpt><trkpt lat="39.905044528509045" lon="9.185502221354295"><ele>627.5</ele><time>2026-05-03T08:47:42Z</time></trkpt><trkpt lat="39.905139538560604" lon="9.185404206378829"><ele>626.25</ele><time>2026-05-03T08:47:43Z</time></trkpt><trkpt lat="39.905256698363736" lon="9.185345802581965"><ele>625.0</ele><time>2026-05-03T08:47:44Z</time></trkpt><trkpt lat="39.905391311588886" lon="9.185313305514084"><ele>625.0</ele><time>2026-05-03T08:47:45Z</time></trkpt><trkpt lat="39.90553814477255" lon="9.185304806170995"><ele>625.0</ele><time>2026-05-03T08:47:46Z</time></trkpt><trkpt lat="39.905691682699164" lon="9.185297306670943"><ele>625.0</ele><time>2026-05-03T08:47:47Z</time></trkpt><trkpt lat="39.905846334683375" lon="9.185274175297122"><ele>628.6666666666667</ele><time>2026-05-03T08:47:48Z</time></trkpt><trkpt lat="39.905996762428146" lon="9.185227796208531"><ele>632.3333333333334</ele><time>2026-05-03T08:47:49Z</time></trkpt><trkpt lat="39.906139370807104" lon="9.18516561195874"><ele>636.0</ele><time>2026-05-03T08:47:50Z</time></trkpt><trkpt lat="39.90628194971604" lon="9.185118719523611"><ele>636.0</ele><time>2026-05-03T08:47:51Z</time></trkpt><trkpt lat="39.9064192653858" lon="9.185111179620211"><ele>636.0</ele><time>2026-05-03T08:47:52Z</time></trkpt><trkpt lat="39.9065467376561" lon="9.185144118502"><ele>636.0</ele><time>2026-05-03T08:47:53Z</time></trkpt><trkpt lat="39.90667319267285" lon="9.18521303881056"><ele>636.0</ele><time>2026-05-03T08:47:54Z</time></trkpt><trkpt lat="39.90678571306844" lon="9.185297151568562"><ele>634.0</ele><time>2026-05-03T08:47:55Z</time></trkpt><trkpt lat="39.90692848368234" lon="9.185397642168557"><ele>632.0</ele><time>2026-05-03T08:47:56Z</time></trkpt><trkpt lat="39.907062565116696" lon="9.185496617905027"><ele>630.0</ele><time>2026-05-03T08:47:57Z</time></trkpt><trkpt lat="39.90719328068192" lon="9.18559364472167"><ele>636.25</ele><time>2026-05-03T08:47:58Z</time></trkpt><trkpt lat="39.9073189093955" lon="9.185692051357776"><ele>642.5</ele><time>2026-05-03T08:47:59Z</time></trkpt><trkpt lat="39.90743799641076" lon="9.18579438295213"><ele>648.75</ele><time>2026-05-03T08:48:00Z</time></trkpt><trkpt lat="39.90754340303217" lon="9.185896079388348"><ele>655.0</ele><time>2026-05-03T08:48:01Z</time></trkpt><trkpt lat="39.907646311160725" lon="9.185995429420924"><ele>657.8333333333334</ele><time>2026-05-03T08:48:02Z</time></trkpt><trkpt lat="39.90774090912193" lon="9.186086258222375"><ele>660.6666666666667</ele><time>2026-05-03T08:48:03Z</time></trkpt><trkpt lat="39.907821357516866" lon="9.18614656609845"><ele>663.5</ele><time>2026-05-03T08:48:04Z</time></trkpt><trkpt lat="39.90788814970979" lon="9.186192110754854"><ele>666.3333333333334</ele><time>2026-05-03T08:48:05Z</time></trkpt><trkpt lat="39.90795847306304" lon="9.186186353532822"><ele>669.1666666666666</ele><time>2026-05-03T08:48:06Z</time></trkpt><trkpt lat="39.90799885416329" lon="9.186083805354794"><ele>672.0</ele><time>2026-05-03T08:48:07Z</time></trkpt><trkpt lat="39.908022877016045" lon="9.185923923699722"><ele>672.0</ele><time>2026-05-03T08:48:09Z</time></trkpt><trkpt lat="39.90803995806354" lon="9.185793717047549"><ele>672.0</ele><time>2026-05-03T08:48:10Z</time></trkpt><trkpt lat="39.90806521140629" lon="9.185663202629168"><ele>672.0</ele><time>2026-05-03T08:48:11Z</time></trkpt><trkpt lat="39.90810000871059" lon="9.185534628731677"><ele>672.0</ele><time>2026-05-03T08:48:12Z</time></trkpt><trkpt lat="39.90815092762132" lon="9.185389795899178"><ele>672.0</ele><time>2026-05-03T08:48:13Z</time></trkpt><trkpt lat="39.90817585945781" lon="9.185235741533033"><ele>671.25</ele><time>2026-05-03T08:48:14Z</time></trkpt><trkpt lat="39.90822335810279" lon="9.18512372783836"><ele>670.5</ele><time>2026-05-03T08:48:15Z</time></trkpt><trkpt lat="39.90827676766759" lon="9.184982065338493"><ele>669.75</ele><time>2026-05-03T08:48:16Z</time></trkpt><trkpt lat="39.90835971092419" lon="9.184853616193626"><ele>669.0</ele><time>2026-05-03T08:48:17Z</time></trkpt><trkpt lat="39.9084692610681" lon="9.184716821694538"><ele>669.0</ele><time>2026-05-03T08:48:18Z</time></trkpt><trkpt lat="39.908586286996304" lon="9.184602844275716"><ele>669.0</ele><time>2026-05-03T08:48:19Z</time></trkpt><trkpt lat="39.90870767755292" lon="9.18449717383538"><ele>669.0</ele><time>2026-05-03T08:48:20Z</time></trkpt><trkpt lat="39.90883466808607" lon="9.184390022931767"><ele>669.0</ele><time>2026-05-03T08:48:21Z</time></trkpt><trkpt lat="39.90895036759178" lon="9.184269324541477"><ele>669.0</ele><time>2026-05-03T08:48:22Z</time></trkpt><trkpt lat="39.90904371568567" lon="9.184154177354927"><ele>669.0</ele><time>2026-05-03T08:48:23Z</time></trkpt><trkpt lat="39.90913070281703" lon="9.184041986516634"><ele>669.0</ele><time>2026-05-03T08:48:24Z</time></trkpt><trkpt lat="39.90921171113798" lon="9.183971462399489"><ele>669.0</ele><time>2026-05-03T08:48:25Z</time></trkpt><trkpt lat="39.909296337977295" lon="9.18394477375935"><ele>669.0</ele><time>2026-05-03T08:48:26Z</time></trkpt><trkpt lat="39.909416455677395" lon="9.1839618687924"><ele>669.0</ele><time>2026-05-03T08:48:27Z</time></trkpt><trkpt lat="39.909522337563544" lon="9.184009346740933"><ele>669.0</ele><time>2026-05-03T08:48:28Z</time></trkpt><trkpt lat="39.909645575444124" lon="9.184080754404793"><ele>669.0</ele><time>2026-05-03T08:48:29Z</time></trkpt><trkpt lat="39.909758340593946" lon="9.18417177942563"><ele>669.0</ele><time>2026-05-03T08:48:30Z</time></trkpt><trkpt lat="39.90987607695463" lon="9.184276128732746"><ele>669.0</ele><time>2026-05-03T08:48:31Z</time></trkpt><trkpt lat="39.909988594416994" lon="9.184405907885692"><ele>669.0</ele><time>2026-05-03T08:48:32Z</time></trkpt><trkpt lat="39.910094373835996" lon="9.184541871241745"><ele>669.0</ele><time>2026-05-03T08:48:33Z</time></trkpt><trkpt lat="39.91020161874943" lon="9.184660073577318"><ele>669.0</ele><time>2026-05-03T08:48:34Z</time></trkpt><trkpt lat="39.91030201476442" lon="9.184778812596658"><ele>673.75</ele><time>2026-05-03T08:48:35Z</time></trkpt><trkpt lat="39.91040700881565" lon="9.184872876257684"><ele>678.5</ele><time>2026-05-03T08:48:36Z</time></trkpt><trkpt lat="39.910512736458635" lon="9.184912770494133"><ele>683.25</ele><time>2026-05-03T08:48:37Z</time></trkpt><trkpt lat="39.910626936333585" lon="9.184941847138376"><ele>688.0</ele><time>2026-05-03T08:48:38Z</time></trkpt><trkpt lat="39.910728358250445" lon="9.184942162250438"><ele>688.0</ele><time>2026-05-03T08:48:39Z</time></trkpt><trkpt lat="39.91084318577021" lon="9.184910749660904"><ele>688.0</ele><time>2026-05-03T08:48:40Z</time></trkpt><trkpt lat="39.91098480393103" lon="9.184868342592148"><ele>688.0</ele><time>2026-05-03T08:48:41Z</time></trkpt><trkpt lat="39.91113131292931" lon="9.184796254307644"><ele>688.0</ele><time>2026-05-03T08:48:42Z</time></trkpt><trkpt lat="39.911262431058134" lon="9.184748364003221"><ele>685.5</ele><time>2026-05-03T08:48:43Z</time></trkpt><trkpt lat="39.91141520482543" lon="9.184789245188934"><ele>683.0</ele><time>2026-05-03T08:48:45Z</time></trkpt><trkpt lat="39.9115328271532" lon="9.184734871789246"><ele>680.5</ele><time>2026-05-03T08:48:46Z</time></trkpt><trkpt lat="39.91160841954708" lon="9.184644511087535"><ele>678.0</ele><time>2026-05-03T08:48:47Z</time></trkpt><trkpt lat="39.91172368458366" lon="9.18461254158824"><ele>681.2</ele><time>2026-05-03T08:48:48Z</time></trkpt><trkpt lat="39.91181482259371" lon="9.184624066755982"><ele>684.4</ele><time>2026-05-03T08:48:49Z</time></trkpt><trkpt lat="39.911905417360394" lon="9.184667887553564"><ele>687.6</ele><time>2026-05-03T08:48:50Z</time></trkpt><trkpt lat="39.91199394441364" lon="9.184721751325302"><ele>690.8000000000001</ele><time>2026-05-03T08:48:51Z</time></trkpt><trkpt lat="39.91208801003673" lon="9.184772705250449"><ele>694.0</ele><time>2026-05-03T08:48:52Z</time></trkpt><trkpt lat="39.9121694462895" lon="9.184805884658651"><ele>694.0</ele><time>2026-05-03T08:48:53Z</time></trkpt><trkpt lat="39.91225313455925" lon="9.184792403143303"><ele>694.0</ele><time>2026-05-03T08:48:54Z</time></trkpt><trkpt lat="39.91233841262452" lon="9.184782046474396"><ele>694.0</ele><time>2026-05-03T08:48:55Z</time></trkpt><trkpt lat="39.912436168158884" lon="9.184694726669113"><ele>694.0</ele><time>2026-05-03T08:48:56Z</time></trkpt><trkpt lat="39.91252524918778" lon="9.184637661790516"><ele>694.0</ele><time>2026-05-03T08:48:57Z</time></trkpt><trkpt lat="39.91260903182286" lon="9.184576875478733"><ele>693.6666666666667</ele><time>2026-05-03T08:48:58Z</time></trkpt><trkpt lat="39.912676729099374" lon="9.18453778587192"><ele>693.3333333333334</ele><time>2026-05-03T08:48:59Z</time></trkpt><trkpt lat="39.9127470721635" lon="9.184467497598657"><ele>693.0</ele><time>2026-05-03T08:49:00Z</time></trkpt><trkpt lat="39.91283000956115" lon="9.184437265294726"><ele>692.6666666666666</ele><time>2026-05-03T08:49:01Z</time></trkpt><trkpt lat="39.9129049894886" lon="9.18439438299995"><ele>692.3333333333333</ele><time>2026-05-03T08:49:02Z</time></trkpt><trkpt lat="39.91296984813888" lon="9.184348148334081"><ele>692.0</ele><time>2026-05-03T08:49:03Z</time></trkpt><trkpt lat="39.91309549470137" lon="9.184345023481537"><ele>692.0</ele><time>2026-05-03T08:49:05Z</time></trkpt><trkpt lat="39.91316393012613" lon="9.184389831943504"><ele>692.0</ele><time>2026-05-03T08:49:06Z</time></trkpt><trkpt lat="39.913225288604956" lon="9.184478688307728"><ele>692.0</ele><time>2026-05-03T08:49:07Z</time></trkpt><trkpt lat="39.91329225086139" lon="9.184570440017726"><ele>692.0</ele><time>2026-05-03T08:49:08Z</time></trkpt><trkpt lat="39.91335318336547" lon="9.184693983088636"><ele>692.0</ele><time>2026-05-03T08:49:09Z</time></trkpt><trkpt lat="39.91342236685568" lon="9.184774850517856"><ele>693.0</ele><time>2026-05-03T08:49:10Z</time></trkpt><trkpt lat="39.91347665135032" lon="9.184862188418435"><ele>694.0</ele><time>2026-05-03T08:49:11Z</time></trkpt><trkpt lat="39.91353762261634" lon="9.184932544379608"><ele>695.0</ele><time>2026-05-03T08:49:12Z</time></trkpt><trkpt lat="39.913597638158016" lon="9.184991123256676"><ele>696.0</ele><time>2026-05-03T08:49:13Z</time></trkpt><trkpt lat="39.91367249405364" lon="9.185042457506901"><ele>697.0</ele><time>2026-05-03T08:49:14Z</time></trkpt><trkpt lat="39.91376662271665" lon="9.18507901242993"><ele>698.0</ele><time>2026-05-03T08:49:15Z</time></trkpt><trkpt lat="39.91385181167945" lon="9.185122211376923"><ele>698.0</ele><time>2026-05-03T08:49:16Z</time></trkpt><trkpt lat="39.91392753521266" lon="9.185172831388723"><ele>698.0</ele><time>2026-05-03T08:49:17Z</time></trkpt><trkpt lat="39.91400472122265" lon="9.185234440004981"><ele>698.0</ele><time>2026-05-03T08:49:18Z</time></trkpt><trkpt lat="39.91408648399499" lon="9.185303357121873"><ele>698.0</ele><time>2026-05-03T08:49:19Z</time></trkpt><trkpt lat="39.914174718192385" lon="9.185374430584766"><ele>698.0</ele><time>2026-05-03T08:49:20Z</time></trkpt><trkpt lat="39.914262535876034" lon="9.185442321163446"><ele>696.0</ele><time>2026-05-03T08:49:21Z</time></trkpt><trkpt lat="39.914351459629415" lon="9.185503414227766"><ele>694.0</ele><time>2026-05-03T08:49:22Z</time></trkpt><trkpt lat="39.914450107650964" lon="9.185552599897951"><ele>692.0</ele><time>2026-05-03T08:49:23Z</time></trkpt><trkpt lat="39.91455316338287" lon="9.185591022539377"><ele>690.0</ele><time>2026-05-03T08:49:24Z</time></trkpt><trkpt lat="39.914663747386776" lon="9.185606020787219"><ele>688.0</ele><time>2026-05-03T08:49:25Z</time></trkpt><trkpt lat="39.91478369982109" lon="9.185614796474683"><ele>688.0</ele><time>2026-05-03T08:49:26Z</time></trkpt><trkpt lat="39.914905615691346" lon="9.185622811620837"><ele>688.0</ele><time>2026-05-03T08:49:27Z</time></trkpt><trkpt lat="39.91504169098813" lon="9.185653485344972"><ele>688.0</ele><time>2026-05-03T08:49:28Z</time></trkpt><trkpt lat="39.91518860753748" lon="9.185682067022901"><ele>688.0</ele><time>2026-05-03T08:49:29Z</time></trkpt><trkpt lat="39.91533958139815" lon="9.185695709650695"><ele>690.75</ele><time>2026-05-03T08:49:30Z</time></trkpt><trkpt lat="39.915496399299954" lon="9.185691559780008"><ele>693.5</ele><time>2026-05-03T08:49:31Z</time></trkpt><trkpt lat="39.91562045096166" lon="9.185692328283183"><ele>696.25</ele><time>2026-05-03T08:49:32Z</time></trkpt><trkpt lat="39.91576755021667" lon="9.185694377313913"><ele>699.0</ele><time>2026-05-03T08:49:33Z</time></trkpt><trkpt lat="39.915909375486116" lon="9.185670695648035"><ele>699.0</ele><time>2026-05-03T08:49:34Z</time></trkpt><trkpt lat="39.916049614951646" lon="9.185641763147606"><ele>699.0</ele><time>2026-05-03T08:49:35Z</time></trkpt><trkpt lat="39.91618056927497" lon="9.185603519571949"><ele>699.0</ele><time>2026-05-03T08:49:36Z</time></trkpt><trkpt lat="39.916309596310306" lon="9.185568967301533"><ele>699.0</ele><time>2026-05-03T08:49:37Z</time></trkpt><trkpt lat="39.916433062164785" lon="9.185529780165934"><ele>699.0</ele><time>2026-05-03T08:49:38Z</time></trkpt><trkpt lat="39.91655903358592" lon="9.18548955049635"><ele>699.0</ele><time>2026-05-03T08:49:39Z</time></trkpt><trkpt lat="39.91668280612945" lon="9.185461025047939"><ele>699.0</ele><time>2026-05-03T08:49:40Z</time></trkpt><trkpt lat="39.91683466341095" lon="9.185434212115174"><ele>699.0</ele><time>2026-05-03T08:49:41Z</time></trkpt><trkpt lat="39.91693965035535" lon="9.185379453798106"><ele>702.0</ele><time>2026-05-03T08:49:42Z</time></trkpt><trkpt lat="39.9170734379987" lon="9.185314265959555"><ele>705.0</ele><time>2026-05-03T08:49:43Z</time></trkpt><trkpt lat="39.91719209549686" lon="9.185228845536983"><ele>708.0</ele><time>2026-05-03T08:49:44Z</time></trkpt><trkpt lat="39.91731162966339" lon="9.185145833901403"><ele>711.0</ele><time>2026-05-03T08:49:45Z</time></trkpt><trkpt lat="39.917439945658764" lon="9.185079268772633"><ele>711.0</ele><time>2026-05-03T08:49:46Z</time></trkpt><trkpt lat="39.91756723418213" lon="9.185024796174297"><ele>711.0</ele><time>2026-05-03T08:49:47Z</time></trkpt><trkpt lat="39.91768137660168" lon="9.184990465465106"><ele>711.0</ele><time>2026-05-03T08:49:48Z</time></trkpt><trkpt lat="39.91780526694345" lon="9.184998448648795"><ele>711.0</ele><time>2026-05-03T08:49:49Z</time></trkpt><trkpt lat="39.9179089078252" lon="9.185028773149098"><ele>711.5</ele><time>2026-05-03T08:49:50Z</time></trkpt><trkpt lat="39.91801069932519" lon="9.18509531421287"><ele>712.0</ele><time>2026-05-03T08:49:51Z</time></trkpt><trkpt lat="39.91809997588356" lon="9.185187088051364"><ele>712.5</ele><time>2026-05-03T08:49:52Z</time></trkpt><trkpt lat="39.91818185919469" lon="9.185298437881428"><ele>713.0</ele><time>2026-05-03T08:49:53Z</time></trkpt><trkpt lat="39.91827521447696" lon="9.185411195016572"><ele>713.0</ele><time>2026-05-03T08:49:54Z</time></trkpt><trkpt lat="39.91838952311594" lon="9.185475986546717"><ele>713.0</ele><time>2026-05-03T08:49:55Z</time></trkpt><trkpt lat="39.91851808614567" lon="9.185515642307637"><ele>713.0</ele><time>2026-05-03T08:49:56Z</time></trkpt><trkpt lat="39.91862776276318" lon="9.185575532952795"><ele>713.0</ele><time>2026-05-03T08:49:57Z</time></trkpt><trkpt lat="39.918788040792464" lon="9.185615763408409"><ele>711.0</ele><time>2026-05-03T08:49:58Z</time></trkpt><trkpt lat="39.91892324137355" lon="9.185664809773842"><ele>709.0</ele><time>2026-05-03T08:49:59Z</time></trkpt><trkpt lat="39.919057943629284" lon="9.185704293801619"><ele>707.0</ele><time>2026-05-03T08:50:00Z</time></trkpt><trkpt lat="39.91920616091681" lon="9.185736343189888"><ele>705.0</ele><time>2026-05-03T08:50:01Z</time></trkpt><trkpt lat="39.919345043501146" lon="9.185768581598504"><ele>709.5</ele><time>2026-05-03T08:50:02Z</time></trkpt><trkpt lat="39.91948448691278" lon="9.18581055673336"><ele>714.0</ele><time>2026-05-03T08:50:03Z</time></trkpt><trkpt lat="39.91962168163637" lon="9.185840227449026"><ele>718.5</ele><time>2026-05-03T08:50:04Z</time></trkpt><trkpt lat="39.91975749735903" lon="9.185868410283375"><ele>723.0</ele><time>2026-05-03T08:50:05Z</time></trkpt><trkpt lat="39.919884212546265" lon="9.185908869764067"><ele>723.0</ele><time>2026-05-03T08:50:06Z</time></trkpt><trkpt lat="39.92001499427891" lon="9.18596291551351"><ele>723.0</ele><time>2026-05-03T08:50:07Z</time></trkpt><trkpt lat="39.92014647718829" lon="9.18601573994893"><ele>723.0</ele><time>2026-05-03T08:50:08Z</time></trkpt><trkpt lat="39.92027655704553" lon="9.186080591061906"><ele>723.0</ele><time>2026-05-03T08:50:09Z</time></trkpt><trkpt lat="39.92040403210032" lon="9.18614377895696"><ele>722.0</ele><time>2026-05-03T08:50:10Z</time></trkpt><trkpt lat="39.92053875177032" lon="9.186201488640974"><ele>721.0</ele><time>2026-05-03T08:50:11Z</time></trkpt><trkpt lat="39.92066860557569" lon="9.18625540969499"><ele>720.0</ele><time>2026-05-03T08:50:12Z</time></trkpt><trkpt lat="39.920803668490706" lon="9.18631267473797"><ele>719.0</ele><time>2026-05-03T08:50:13Z</time></trkpt><trkpt lat="39.92093227524182" lon="9.186372973892304"><ele>717.75</ele><time>2026-05-03T08:50:14Z</time></trkpt><trkpt lat="39.92106820369094" lon="9.186411391798798"><ele>716.5</ele><time>2026-05-03T08:50:15Z</time></trkpt><trkpt lat="39.92120118276705" lon="9.186448031746233"><ele>715.25</ele><time>2026-05-03T08:50:16Z</time></trkpt><trkpt lat="39.92132842111496" lon="9.186478800870995"><ele>714.0</ele><time>2026-05-03T08:50:17Z</time></trkpt><trkpt lat="39.921452592879355" lon="9.186501327292325"><ele>716.0</ele><time>2026-05-03T08:50:18Z</time></trkpt><trkpt lat="39.92157001072979" lon="9.186530089830088"><ele>718.0</ele><time>2026-05-03T08:50:19Z</time></trkpt><trkpt lat="39.92168481880102" lon="9.186561121647081"><ele>720.0</ele><time>2026-05-03T08:50:20Z</time></trkpt><trkpt lat="39.92179852123122" lon="9.186598863658416"><ele>722.0</ele><time>2026-05-03T08:50:21Z</time></trkpt><trkpt lat="39.92190249776341" lon="9.186647618098165"><ele>722.0</ele><time>2026-05-03T08:50:22Z</time></trkpt><trkpt lat="39.922002373074406" lon="9.186728165647981"><ele>722.0</ele><time>2026-05-03T08:50:23Z</time></trkpt><trkpt lat="39.92207688945244" lon="9.186834355310653"><ele>722.0</ele><time>2026-05-03T08:50:24Z</time></trkpt><trkpt lat="39.92214407414934" lon="9.186957065176093"><ele>722.0</ele><time>2026-05-03T08:50:25Z</time></trkpt><trkpt lat="39.92220736734169" lon="9.187096247593491"><ele>722.0</ele><time>2026-05-03T08:50:26Z</time></trkpt><trkpt lat="39.92227220556645" lon="9.187243786693095"><ele>722.0</ele><time>2026-05-03T08:50:27Z</time></trkpt><trkpt lat="39.92235256490064" lon="9.187346652317665"><ele>722.0</ele><time>2026-05-03T08:50:28Z</time></trkpt><trkpt lat="39.922447172109024" lon="9.187449482745961"><ele>722.0</ele><time>2026-05-03T08:50:29Z</time></trkpt><trkpt lat="39.92255684227695" lon="9.187521613714798"><ele>721.75</ele><time>2026-05-03T08:50:30Z</time></trkpt><trkpt lat="39.92267482939399" lon="9.187563451690426"><ele>721.5</ele><time>2026-05-03T08:50:31Z</time></trkpt><trkpt lat="39.922796426823666" lon="9.187626350587944"><ele>721.25</ele><time>2026-05-03T08:50:32Z</time></trkpt><trkpt lat="39.922919804270904" lon="9.187737795233899"><ele>721.0</ele><time>2026-05-03T08:50:33Z</time></trkpt><trkpt lat="39.92304765883402" lon="9.187820614570919"><ele>721.0</ele><time>2026-05-03T08:50:34Z</time></trkpt><trkpt lat="39.92316761066529" lon="9.187942265358474"><ele>721.0</ele><time>2026-05-03T08:50:35Z</time></trkpt><trkpt lat="39.923270484069185" lon="9.188084102574093"><ele>721.0</ele><time>2026-05-03T08:50:36Z</time></trkpt><trkpt lat="39.92336043101809" lon="9.188238494146077"><ele>720.5</ele><time>2026-05-03T08:50:37Z</time></trkpt><trkpt lat="39.923443388613386" lon="9.188389491369387"><ele>720.0</ele><time>2026-05-03T08:50:38Z</time></trkpt><trkpt lat="39.92353424646362" lon="9.188536513078859"><ele>719.5</ele><time>2026-05-03T08:50:39Z</time></trkpt><trkpt lat="39.92362779744449" lon="9.188683053013973"><ele>719.0</ele><time>2026-05-03T08:50:40Z</time></trkpt><trkpt lat="39.92373663344536" lon="9.188804742368246"><ele>719.0</ele><time>2026-05-03T08:50:41Z</time></trkpt><trkpt lat="39.923858021963625" lon="9.188913625319024"><ele>719.0</ele><time>2026-05-03T08:50:42Z</time></trkpt><trkpt lat="39.924011847191736" lon="9.188995852735133"><ele>719.0</ele><time>2026-05-03T08:50:43Z</time></trkpt><trkpt lat="39.92413307346044" lon="9.189079517279668"><ele>723.3333333333333</ele><time>2026-05-03T08:50:44Z</time></trkpt><trkpt lat="39.92427465430138" lon="9.189182424939506"><ele>727.6666666666666</ele><time>2026-05-03T08:50:45Z</time></trkpt><trkpt lat="39.924427215394694" lon="9.18927251803725"><ele>732.0</ele><time>2026-05-03T08:50:46Z</time></trkpt><trkpt lat="39.924578853066" lon="9.189356793526736"><ele>732.0</ele><time>2026-05-03T08:50:47Z</time></trkpt><trkpt lat="39.92473216217312" lon="9.189431304610537"><ele>732.0</ele><time>2026-05-03T08:50:48Z</time></trkpt><trkpt lat="39.92488348872993" lon="9.189503456689334"><ele>732.0</ele><time>2026-05-03T08:50:49Z</time></trkpt><trkpt lat="39.924994756409376" lon="9.189586998691855"><ele>735.0</ele><time>2026-05-03T08:50:50Z</time></trkpt><trkpt lat="39.925146401106126" lon="9.189662123388917"><ele>738.0</ele><time>2026-05-03T08:50:51Z</time></trkpt><trkpt lat="39.92529228565942" lon="9.189725300452062"><ele>741.0</ele><time>2026-05-03T08:50:52Z</time></trkpt><trkpt lat="39.92541500261039" lon="9.189796556121411"><ele>744.0</ele><time>2026-05-03T08:50:53Z</time></trkpt><trkpt lat="39.925547030139874" lon="9.189842254444416"><ele>747.0</ele><time>2026-05-03T08:50:54Z</time></trkpt><trkpt lat="39.92565326445049" lon="9.18989749093874"><ele>750.0</ele><time>2026-05-03T08:50:55Z</time></trkpt><trkpt lat="39.92577662000769" lon="9.189897308614874"><ele>753.0</ele><time>2026-05-03T08:50:56Z</time></trkpt><trkpt lat="39.92590959010162" lon="9.189852895318259"><ele>757.5999999999999</ele><time>2026-05-03T08:50:57Z</time></trkpt><trkpt lat="39.92603111418299" lon="9.189813176490253"><ele>762.1999999999999</ele><time>2026-05-03T08:50:58Z</time></trkpt><trkpt lat="39.926127179003785" lon="9.189766171913258"><ele>766.8</ele><time>2026-05-03T08:50:59Z</time></trkpt><trkpt lat="39.92618477637615" lon="9.189690814676174"><ele>771.4</ele><time>2026-05-03T08:51:00Z</time></trkpt><trkpt lat="39.92622298476312" lon="9.189582338499314"><ele>776.0</ele><time>2026-05-03T08:51:01Z</time></trkpt><trkpt lat="39.926230301377515" lon="9.189464368907503"><ele>776.0</ele><time>2026-05-03T08:51:02Z</time></trkpt><trkpt lat="39.92619430196289" lon="9.189343947963977"><ele>776.0</ele><time>2026-05-03T08:51:03Z</time></trkpt><trkpt lat="39.92612075790857" lon="9.189227309435601"><ele>776.0</ele><time>2026-05-03T08:51:04Z</time></trkpt><trkpt lat="39.926036679857404" lon="9.189107346901435"><ele>776.0</ele><time>2026-05-03T08:51:05Z</time></trkpt><trkpt lat="39.92596853734227" lon="9.188975059752535"><ele>772.0</ele><time>2026-05-03T08:51:06Z</time></trkpt><trkpt lat="39.925883224215546" lon="9.18882477459179"><ele>768.0</ele><time>2026-05-03T08:51:07Z</time></trkpt><trkpt lat="39.92580018197525" lon="9.188684628769105"><ele>764.0</ele><time>2026-05-03T08:51:08Z</time></trkpt><trkpt lat="39.92571830282153" lon="9.188538950379028"><ele>760.0</ele><time>2026-05-03T08:51:09Z</time></trkpt><trkpt lat="39.92562270233632" lon="9.188396117835955"><ele>760.0</ele><time>2026-05-03T08:51:10Z</time></trkpt><trkpt lat="39.92553446198664" lon="9.188225732222138"><ele>760.0</ele><time>2026-05-03T08:51:11Z</time></trkpt><trkpt lat="39.925449304479145" lon="9.18804734815091"><ele>760.0</ele><time>2026-05-03T08:51:12Z</time></trkpt><trkpt lat="39.92538704890244" lon="9.187842818834396"><ele>763.6666666666667</ele><time>2026-05-03T08:51:13Z</time></trkpt><trkpt lat="39.925329624122384" lon="9.18763301996353"><ele>767.3333333333334</ele><time>2026-05-03T08:51:14Z</time></trkpt><trkpt lat="39.92528014034588" lon="9.187443480294558"><ele>771.0</ele><time>2026-05-03T08:51:15Z</time></trkpt><trkpt lat="39.925227527932776" lon="9.187282722108844"><ele>771.0</ele><time>2026-05-03T08:51:16Z</time></trkpt><trkpt lat="39.92519542392989" lon="9.187129757820992"><ele>771.0</ele><time>2026-05-03T08:51:17Z</time></trkpt><trkpt lat="39.925191021283254" lon="9.186994370163484"><ele>771.0</ele><time>2026-05-03T08:51:18Z</time></trkpt><trkpt lat="39.92520788819073" lon="9.186868058631307"><ele>771.0</ele><time>2026-05-03T08:51:19Z</time></trkpt><trkpt lat="39.92526340233026" lon="9.186761302075746"><ele>771.0</ele><time>2026-05-03T08:51:20Z</time></trkpt><trkpt lat="39.925362792925036" lon="9.186699925626746"><ele>771.0</ele><time>2026-05-03T08:51:21Z</time></trkpt><trkpt lat="39.92545657963359" lon="9.186600102750125"><ele>771.0</ele><time>2026-05-03T08:51:22Z</time></trkpt><trkpt lat="39.925594292789235" lon="9.186460643471872"><ele>771.0</ele><time>2026-05-03T08:51:23Z</time></trkpt><trkpt lat="39.925710251392694" lon="9.186327437683033"><ele>771.6666666666667</ele><time>2026-05-03T08:51:24Z</time></trkpt><trkpt lat="39.92580888104651" lon="9.186174115457174"><ele>772.3333333333334</ele><time>2026-05-03T08:51:25Z</time></trkpt><trkpt lat="39.92590334627593" lon="9.185996149031553"><ele>773.0</ele><time>2026-05-03T08:51:26Z</time></trkpt><trkpt lat="39.926009652858056" lon="9.185834775674856"><ele>773.0</ele><time>2026-05-03T08:51:27Z</time></trkpt><trkpt lat="39.92613845152318" lon="9.185692130192157"><ele>773.0</ele><time>2026-05-03T08:51:28Z</time></trkpt><trkpt lat="39.926301554598005" lon="9.185549954385445"><ele>773.0</ele><time>2026-05-03T08:51:29Z</time></trkpt><trkpt lat="39.92643664061587" lon="9.185444738497502"><ele>770.3333333333334</ele><time>2026-05-03T08:51:30Z</time></trkpt><trkpt lat="39.9265805439102" lon="9.185346697265393"><ele>767.6666666666667</ele><time>2026-05-03T08:51:31Z</time></trkpt><trkpt lat="39.926739055675675" lon="9.185282067538674"><ele>765.0</ele><time>2026-05-03T08:51:32Z</time></trkpt><trkpt lat="39.926916166098025" lon="9.185231610553668"><ele>765.0</ele><time>2026-05-03T08:51:33Z</time></trkpt><trkpt lat="39.92706775670591" lon="9.185179259861291"><ele>765.0</ele><time>2026-05-03T08:51:34Z</time></trkpt><trkpt lat="39.92722511513447" lon="9.185098915405371"><ele>765.0</ele><time>2026-05-03T08:51:35Z</time></trkpt><trkpt lat="39.92737366042708" lon="9.185002037394874"><ele>765.0</ele><time>2026-05-03T08:51:36Z</time></trkpt><trkpt lat="39.92752417454796" lon="9.184874461137806"><ele>765.0</ele><time>2026-05-03T08:51:37Z</time></trkpt><trkpt lat="39.927663089016995" lon="9.184749531825991"><ele>765.0</ele><time>2026-05-03T08:51:38Z</time></trkpt><trkpt lat="39.927783426321945" lon="9.184659083288848"><ele>766.6</ele><time>2026-05-03T08:51:39Z</time></trkpt><trkpt lat="39.92790029528379" lon="9.184562795356689"><ele>768.2</ele><time>2026-05-03T08:51:40Z</time></trkpt><trkpt lat="39.92799855743602" lon="9.184475771086554"><ele>769.8</ele><time>2026-05-03T08:51:41Z</time></trkpt><trkpt lat="39.92808010910805" lon="9.184387817495837"><ele>771.4</ele><time>2026-05-03T08:51:42Z</time></trkpt><trkpt lat="39.92811905698419" lon="9.184288052909345"><ele>773.0</ele><time>2026-05-03T08:51:43Z</time></trkpt><trkpt lat="39.92812683647578" lon="9.184167419594505"><ele>773.0</ele><time>2026-05-03T08:51:44Z</time></trkpt><trkpt lat="39.92809570228486" lon="9.184041901984884"><ele>773.0</ele><time>2026-05-03T08:51:45Z</time></trkpt><trkpt lat="39.928018196936556" lon="9.183944555808797"><ele>773.0</ele><time>2026-05-03T08:51:46Z</time></trkpt><trkpt lat="39.927901142836106" lon="9.18389345467477"><ele>773.0</ele><time>2026-05-03T08:51:47Z</time></trkpt><trkpt lat="39.927766411822425" lon="9.18387774658799"><ele>776.0</ele><time>2026-05-03T08:51:48Z</time></trkpt><trkpt lat="39.92763229070965" lon="9.18385687538353"><ele>779.0</ele><time>2026-05-03T08:51:49Z</time></trkpt><trkpt lat="39.927477878092866" lon="9.183830873840435"><ele>782.0</ele><time>2026-05-03T08:51:50Z</time></trkpt><trkpt lat="39.92730965005752" lon="9.183790999091414"><ele>782.0</ele><time>2026-05-03T08:51:51Z</time></trkpt><trkpt lat="39.92712599057781" lon="9.183737878103832"><ele>782.0</ele><time>2026-05-03T08:51:52Z</time></trkpt><trkpt lat="39.926934357618656" lon="9.183673608978362"><ele>782.0</ele><time>2026-05-03T08:51:53Z</time></trkpt><trkpt lat="39.92673673962867" lon="9.183603180092533"><ele>777.0</ele><time>2026-05-03T08:51:54Z</time></trkpt><trkpt lat="39.926532274594614" lon="9.183527662486206"><ele>772.0</ele><time>2026-05-03T08:51:55Z</time></trkpt><trkpt lat="39.92632284950683" lon="9.18344793650187"><ele>767.0</ele><time>2026-05-03T08:51:56Z</time></trkpt><trkpt lat="39.926123451605235" lon="9.183373371357561"><ele>767.0</ele><time>2026-05-03T08:51:57Z</time></trkpt><trkpt lat="39.925940606344724" lon="9.183308208122037"><ele>767.0</ele><time>2026-05-03T08:51:58Z</time></trkpt><trkpt lat="39.92578281602388" lon="9.183244975468332"><ele>767.0</ele><time>2026-05-03T08:51:59Z</time></trkpt><trkpt lat="39.9256451491741" lon="9.18317171915111"><ele>772.3333333333333</ele><time>2026-05-03T08:52:00Z</time></trkpt><trkpt lat="39.92551463003826" lon="9.183069972173552"><ele>777.6666666666666</ele><time>2026-05-03T08:52:01Z</time></trkpt><trkpt lat="39.925398772024415" lon="9.182926907650677"><ele>783.0</ele><time>2026-05-03T08:52:02Z</time></trkpt><trkpt lat="39.92529835921082" lon="9.182754586027029"><ele>783.0</ele><time>2026-05-03T08:52:03Z</time></trkpt><trkpt lat="39.92520389594462" lon="9.182590636399608"><ele>783.0</ele><time>2026-05-03T08:52:04Z</time></trkpt><trkpt lat="39.92510293669482" lon="9.182479563719818"><ele>783.0</ele><time>2026-05-03T08:52:05Z</time></trkpt><trkpt lat="39.92496085214028" lon="9.182393488914839"><ele>783.0</ele><time>2026-05-03T08:52:06Z</time></trkpt><trkpt lat="39.924802687929535" lon="9.18231005494751"><ele>784.3333333333333</ele><time>2026-05-03T08:52:07Z</time></trkpt><trkpt lat="39.924621446285244" lon="9.182247482276756"><ele>785.6666666666666</ele><time>2026-05-03T08:52:08Z</time></trkpt><trkpt lat="39.92445865092694" lon="9.182179572713364"><ele>787.0</ele><time>2026-05-03T08:52:09Z</time></trkpt><trkpt lat="39.92430616689994" lon="9.182126094498255"><ele>783.8</ele><time>2026-05-03T08:52:10Z</time></trkpt><trkpt lat="39.92418267310646" lon="9.182082259186034"><ele>780.6</ele><time>2026-05-03T08:52:11Z</time></trkpt><trkpt lat="39.92407626514118" lon="9.18203247797296"><ele>777.4</ele><time>2026-05-03T08:52:12Z</time></trkpt><trkpt lat="39.924007751497975" lon="9.181963877415471"><ele>774.1999999999999</ele><time>2026-05-03T08:52:13Z</time></trkpt><trkpt lat="39.92397119607555" lon="9.181864598026072"><ele>771.0</ele><time>2026-05-03T08:52:14Z</time></trkpt><trkpt lat="39.923960356341134" lon="9.18170969926668"><ele>771.0</ele><time>2026-05-03T08:52:15Z</time></trkpt><trkpt lat="39.92398766932943" lon="9.181576304091593"><ele>771.0</ele><time>2026-05-03T08:52:16Z</time></trkpt><trkpt lat="39.9240392058514" lon="9.181448947620815"><ele>771.0</ele><time>2026-05-03T08:52:17Z</time></trkpt><trkpt lat="39.92409920506969" lon="9.181311144609476"><ele>771.0</ele><time>2026-05-03T08:52:18Z</time></trkpt><trkpt lat="39.92417127542636" lon="9.181167713626314"><ele>775.6666666666667</ele><time>2026-05-03T08:52:19Z</time></trkpt><trkpt lat="39.924276732716" lon="9.181044858659527"><ele>780.3333333333334</ele><time>2026-05-03T08:52:20Z</time></trkpt><trkpt lat="39.92442688242606" lon="9.180907267561997"><ele>785.0</ele><time>2026-05-03T08:52:21Z</time></trkpt><trkpt lat="39.924598228313634" lon="9.18076983883994"><ele>777.3333333333334</ele><time>2026-05-03T08:52:22Z</time></trkpt><trkpt lat="39.92476352732102" lon="9.180635023480436"><ele>769.6666666666667</ele><time>2026-05-03T08:52:23Z</time></trkpt><trkpt lat="39.924913093814034" lon="9.180494911071628"><ele>762.0</ele><time>2026-05-03T08:52:24Z</time></trkpt><trkpt lat="39.92504785066256" lon="9.180326758241462"><ele>766.0</ele><time>2026-05-03T08:52:25Z</time></trkpt><trkpt lat="39.925170253123014" lon="9.180127806600986"><ele>770.0</ele><time>2026-05-03T08:52:26Z</time></trkpt><trkpt lat="39.92528676992279" lon="9.179923307011608"><ele>774.0</ele><time>2026-05-03T08:52:27Z</time></trkpt><trkpt lat="39.925415798152216" lon="9.179739466641648"><ele>774.0</ele><time>2026-05-03T08:52:28Z</time></trkpt><trkpt lat="39.92555880492941" lon="9.179591892457461"><ele>774.0</ele><time>2026-05-03T08:52:29Z</time></trkpt><trkpt lat="39.9257033288916" lon="9.179439414245218"><ele>774.0</ele><time>2026-05-03T08:52:30Z</time></trkpt><trkpt lat="39.92584014085901" lon="9.179253629637541"><ele>773.0</ele><time>2026-05-03T08:52:31Z</time></trkpt><trkpt lat="39.92595776225039" lon="9.179055667267905"><ele>772.0</ele><time>2026-05-03T08:52:32Z</time></trkpt><trkpt lat="39.926065875043285" lon="9.178875320088336"><ele>771.0</ele><time>2026-05-03T08:52:33Z</time></trkpt><trkpt lat="39.926182254872025" lon="9.17872232643792"><ele>771.0</ele><time>2026-05-03T08:52:34Z</time></trkpt><trkpt lat="39.926303819518125" lon="9.17858620719556"><ele>771.0</ele><time>2026-05-03T08:52:35Z</time></trkpt><trkpt lat="39.926442913845364" lon="9.178473046758528"><ele>771.0</ele><time>2026-05-03T08:52:36Z</time></trkpt><trkpt lat="39.92660439870748" lon="9.17838294006743"><ele>773.0</ele><time>2026-05-03T08:52:37Z</time></trkpt><trkpt lat="39.926777230861276" lon="9.178310081549022"><ele>775.0</ele><time>2026-05-03T08:52:38Z</time></trkpt><trkpt lat="39.92693185644567" lon="9.178246379182148"><ele>777.0</ele><time>2026-05-03T08:52:39Z</time></trkpt><trkpt lat="39.92706371568823" lon="9.178171449450767"><ele>777.0</ele><time>2026-05-03T08:52:40Z</time></trkpt><trkpt lat="39.92717724022169" lon="9.17806798327579"><ele>777.0</ele><time>2026-05-03T08:52:41Z</time></trkpt><trkpt lat="39.92726428920224" lon="9.17793126082135"><ele>777.0</ele><time>2026-05-03T08:52:42Z</time></trkpt><trkpt lat="39.92732378772263" lon="9.177766038444428"><ele>777.0</ele><time>2026-05-03T08:52:43Z</time></trkpt><trkpt lat="39.92734659095234" lon="9.17757447039512"><ele>777.0</ele><time>2026-05-03T08:52:44Z</time></trkpt><trkpt lat="39.92735854816215" lon="9.177405736052604"><ele>777.0</ele><time>2026-05-03T08:52:45Z</time></trkpt><trkpt lat="39.92740033856723" lon="9.17725847161145"><ele>777.0</ele><time>2026-05-03T08:52:46Z</time></trkpt><trkpt lat="39.92748890951031" lon="9.177138998328905"><ele>777.0</ele><time>2026-05-03T08:52:47Z</time></trkpt><trkpt lat="39.92760604072015" lon="9.177054192238753"><ele>774.0</ele><time>2026-05-03T08:52:48Z</time></trkpt><trkpt lat="39.927737334133205" lon="9.177012043835543"><ele>771.0</ele><time>2026-05-03T08:52:49Z</time></trkpt><trkpt lat="39.927900447048714" lon="9.176999931106277"><ele>768.0</ele><time>2026-05-03T08:52:50Z</time></trkpt><trkpt lat="39.92807715791297" lon="9.176955802570276"><ele>768.0</ele><time>2026-05-03T08:52:51Z</time></trkpt><trkpt lat="39.92825407741506" lon="9.17687183357752"><ele>768.0</ele><time>2026-05-03T08:52:52Z</time></trkpt><trkpt lat="39.92841435129626" lon="9.176755605192824"><ele>768.0</ele><time>2026-05-03T08:52:53Z</time></trkpt><trkpt lat="39.92856942901021" lon="9.176649910795915"><ele>770.3333333333333</ele><time>2026-05-03T08:52:54Z</time></trkpt><trkpt lat="39.928728262244924" lon="9.176593836206012"><ele>772.6666666666666</ele><time>2026-05-03T08:52:55Z</time></trkpt><trkpt lat="39.928876895992616" lon="9.17655734051511"><ele>775.0</ele><time>2026-05-03T08:52:56Z</time></trkpt><trkpt lat="39.92901253870605" lon="9.176559157865514"><ele>775.0</ele><time>2026-05-03T08:52:57Z</time></trkpt><trkpt lat="39.92914235748957" lon="9.176608728565986"><ele>775.0</ele><time>2026-05-03T08:52:58Z</time></trkpt><trkpt lat="39.929260918097384" lon="9.176711887048521"><ele>775.0</ele><time>2026-05-03T08:52:59Z</time></trkpt><trkpt lat="39.92935384495138" lon="9.176870094837007"><ele>775.0</ele><time>2026-05-03T08:53:00Z</time></trkpt><trkpt lat="39.929468205696416" lon="9.177019565419736"><ele>772.0</ele><time>2026-05-03T08:53:01Z</time></trkpt><trkpt lat="39.92956190869623" lon="9.177170891930741"><ele>769.0</ele><time>2026-05-03T08:53:02Z</time></trkpt><trkpt lat="39.92965599575135" lon="9.177295050027272"><ele>766.0</ele><time>2026-05-03T08:53:03Z</time></trkpt><trkpt lat="39.92976668320679" lon="9.177384486506234"><ele>763.0</ele><time>2026-05-03T08:53:04Z</time></trkpt><trkpt lat="39.929888502915574" lon="9.177419413837395"><ele>765.0</ele><time>2026-05-03T08:53:05Z</time></trkpt><trkpt lat="39.930029340677436" lon="9.177396704027846"><ele>767.0</ele><time>2026-05-03T08:53:06Z</time></trkpt><trkpt lat="39.93018969777555" lon="9.177352420388937"><ele>769.0</ele><time>2026-05-03T08:53:07Z</time></trkpt><trkpt lat="39.93036146998711" lon="9.177311706006405"><ele>769.0</ele><time>2026-05-03T08:53:08Z</time></trkpt><trkpt lat="39.93054409109467" lon="9.177293955845576"><ele>769.0</ele><time>2026-05-03T08:53:09Z</time></trkpt><trkpt lat="39.93072588355819" lon="9.177278661046405"><ele>769.0</ele><time>2026-05-03T08:53:10Z</time></trkpt><trkpt lat="39.930928161617544" lon="9.177264587658467"><ele>770.0</ele><time>2026-05-03T08:53:11Z</time></trkpt><trkpt lat="39.93113859191967" lon="9.177247690904718"><ele>771.0</ele><time>2026-05-03T08:53:12Z</time></trkpt><trkpt lat="39.93133670676973" lon="9.177235504101246"><ele>772.0</ele><time>2026-05-03T08:53:13Z</time></trkpt><trkpt lat="39.93151587538681" lon="9.177227755554476"><ele>772.0</ele><time>2026-05-03T08:53:14Z</time></trkpt><trkpt lat="39.93167506905184" lon="9.17722315026481"><ele>772.0</ele><time>2026-05-03T08:53:15Z</time></trkpt><trkpt lat="39.931811696595595" lon="9.177252822561554"><ele>772.0</ele><time>2026-05-03T08:53:16Z</time></trkpt><trkpt lat="39.93192427726124" lon="9.177313441566477"><ele>772.0</ele><time>2026-05-03T08:53:17Z</time></trkpt><trkpt lat="39.932007466556435" lon="9.177402669095748"><ele>775.25</ele><time>2026-05-03T08:53:18Z</time></trkpt><trkpt lat="39.932089816189226" lon="9.177527239708413"><ele>778.5</ele><time>2026-05-03T08:53:19Z</time></trkpt><trkpt lat="39.93218091245965" lon="9.177657696360855"><ele>781.75</ele><time>2026-05-03T08:53:20Z</time></trkpt><trkpt lat="39.932303666929236" lon="9.17775761537073"><ele>785.0</ele><time>2026-05-03T08:53:21Z</time></trkpt><trkpt lat="39.93243995288481" lon="9.177804855714998"><ele>781.75</ele><time>2026-05-03T08:53:22Z</time></trkpt><trkpt lat="39.93259120324885" lon="9.177813264055263"><ele>778.5</ele><time>2026-05-03T08:53:23Z</time></trkpt><trkpt lat="39.93271439403911" lon="9.177824593946884"><ele>775.25</ele><time>2026-05-03T08:53:24Z</time></trkpt><trkpt lat="39.93282050978358" lon="9.177873865207784"><ele>772.0</ele><time>2026-05-03T08:53:25Z</time></trkpt><trkpt lat="39.93292044952527" lon="9.177969987464639"><ele>772.0</ele><time>2026-05-03T08:53:26Z</time></trkpt><trkpt lat="39.93301035165733" lon="9.178111649594344"><ele>772.0</ele><time>2026-05-03T08:53:27Z</time></trkpt><trkpt lat="39.933080528369096" lon="9.178279434854526"><ele>772.0</ele><time>2026-05-03T08:53:28Z</time></trkpt><trkpt lat="39.933156161963964" lon="9.178464194313886"><ele>772.0</ele><time>2026-05-03T08:53:29Z</time></trkpt><trkpt lat="39.93322990136893" lon="9.17864764909155"><ele>776.0</ele><time>2026-05-03T08:53:30Z</time></trkpt><trkpt lat="39.9332943424307" lon="9.178815633462753"><ele>780.0</ele><time>2026-05-03T08:53:31Z</time></trkpt><trkpt lat="39.933331740708546" lon="9.178984336037635"><ele>784.0</ele><time>2026-05-03T08:53:32Z</time></trkpt><trkpt lat="39.93335680499609" lon="9.179141337656691"><ele>788.0</ele><time>2026-05-03T08:53:33Z</time></trkpt><trkpt lat="39.93339788731029" lon="9.179276724925547"><ele>790.5</ele><time>2026-05-03T08:53:34Z</time></trkpt><trkpt lat="39.9334721559019" lon="9.179387938378365"><ele>793.0</ele><time>2026-05-03T08:53:35Z</time></trkpt><trkpt lat="39.9335958039095" lon="9.179472843509334"><ele>795.5</ele><time>2026-05-03T08:53:36Z</time></trkpt><trkpt lat="39.93372957607713" lon="9.179509346697667"><ele>798.0</ele><time>2026-05-03T08:53:37Z</time></trkpt><trkpt lat="39.93386477684453" lon="9.179496197482552"><ele>798.0</ele><time>2026-05-03T08:53:38Z</time></trkpt><trkpt lat="39.93397792007207" lon="9.179461434052357"><ele>798.0</ele><time>2026-05-03T08:53:39Z</time></trkpt><trkpt lat="39.93408880584679" lon="9.179398694523442"><ele>798.0</ele><time>2026-05-03T08:53:40Z</time></trkpt><trkpt lat="39.9341733403919" lon="9.179289970058523"><ele>798.0</ele><time>2026-05-03T08:53:41Z</time></trkpt><trkpt lat="39.93422218962267" lon="9.179143225869863"><ele>805.3333333333333</ele><time>2026-05-03T08:53:42Z</time></trkpt><trkpt lat="39.93427268828738" lon="9.178979516797096"><ele>812.6666666666666</ele><time>2026-05-03T08:53:43Z</time></trkpt><trkpt lat="39.93432232956737" lon="9.178786698509645"><ele>820.0</ele><time>2026-05-03T08:53:44Z</time></trkpt><trkpt lat="39.93437775269161" lon="9.178585681471063"><ele>820.0</ele><time>2026-05-03T08:53:45Z</time></trkpt><trkpt lat="39.93443836600174" lon="9.178370698793548"><ele>820.0</ele><time>2026-05-03T08:53:46Z</time></trkpt><trkpt lat="39.934500145124275" lon="9.178137924220465"><ele>820.0</ele><time>2026-05-03T08:53:47Z</time></trkpt><trkpt lat="39.93455784130367" lon="9.177891660857926"><ele>817.0</ele><time>2026-05-03T08:53:48Z</time></trkpt><trkpt lat="39.934606354743714" lon="9.17765072997565"><ele>814.0</ele><time>2026-05-03T08:53:49Z</time></trkpt><trkpt lat="39.93465140662218" lon="9.177429543016602"><ele>811.0</ele><time>2026-05-03T08:53:50Z</time></trkpt><trkpt lat="39.93471091948702" lon="9.177233247556044"><ele>807.0</ele><time>2026-05-03T08:53:51Z</time></trkpt><trkpt lat="39.93473989904606" lon="9.17704596814843"><ele>803.0</ele><time>2026-05-03T08:53:52Z</time></trkpt><trkpt lat="39.93482404372041" lon="9.176900301180074"><ele>799.0</ele><time>2026-05-03T08:53:53Z</time></trkpt><trkpt lat="39.934906548475645" lon="9.176772950884448"><ele>795.0</ele><time>2026-05-03T08:53:54Z</time></trkpt><trkpt lat="39.93502935544868" lon="9.176716528475717"><ele>796.0</ele><time>2026-05-03T08:53:55Z</time></trkpt><trkpt lat="39.935163797323405" lon="9.176675185484356"><ele>797.0</ele><time>2026-05-03T08:53:56Z</time></trkpt><trkpt lat="39.93532069664932" lon="9.176644069194378"><ele>798.0</ele><time>2026-05-03T08:53:57Z</time></trkpt><trkpt lat="39.9354751721191" lon="9.176648159697274"><ele>798.0</ele><time>2026-05-03T08:53:58Z</time></trkpt><trkpt lat="39.93561919098552" lon="9.176671927524833"><ele>798.0</ele><time>2026-05-03T08:53:59Z</time></trkpt><trkpt lat="39.93575916154232" lon="9.17673828596517"><ele>798.0</ele><time>2026-05-03T08:54:00Z</time></trkpt><trkpt lat="39.935899735541454" lon="9.17684229312034"><ele>800.3333333333333</ele><time>2026-05-03T08:54:01Z</time></trkpt><trkpt lat="39.936038172039574" lon="9.1769813002476"><ele>802.6666666666666</ele><time>2026-05-03T08:54:02Z</time></trkpt><trkpt lat="39.93617437085278" lon="9.177152842786608"><ele>805.0</ele><time>2026-05-03T08:54:03Z</time></trkpt><trkpt lat="39.9363099616383" lon="9.177352688924561"><ele>805.0</ele><time>2026-05-03T08:54:04Z</time></trkpt><trkpt lat="39.93645472070633" lon="9.177555331521644"><ele>805.0</ele><time>2026-05-03T08:54:05Z</time></trkpt><trkpt lat="39.93660476895374" lon="9.177732964522981"><ele>805.0</ele><time>2026-05-03T08:54:06Z</time></trkpt><trkpt lat="39.93675203887279" lon="9.177879923571354"><ele>804.0</ele><time>2026-05-03T08:54:07Z</time></trkpt><trkpt lat="39.93689797768593" lon="9.178005880541383"><ele>803.0</ele><time>2026-05-03T08:54:08Z</time></trkpt><trkpt lat="39.937036420610674" lon="9.17813476540687"><ele>802.0</ele><time>2026-05-03T08:54:09Z</time></trkpt><trkpt lat="39.937161390969386" lon="9.178305168400835"><ele>802.0</ele><time>2026-05-03T08:54:10Z</time></trkpt><trkpt lat="39.93726746347656" lon="9.178483867963926"><ele>802.0</ele><time>2026-05-03T08:54:11Z</time></trkpt><trkpt lat="39.93735262986269" lon="9.178665483772889"><ele>802.0</ele><time>2026-05-03T08:54:12Z</time></trkpt><trkpt lat="39.93743001982594" lon="9.178862165675476"><ele>799.5</ele><time>2026-05-03T08:54:13Z</time></trkpt><trkpt lat="39.937459910402126" lon="9.179060754868757"><ele>797.0</ele><time>2026-05-03T08:54:14Z</time></trkpt><trkpt lat="39.937470596096055" lon="9.179247879706505"><ele>794.5</ele><time>2026-05-03T08:54:15Z</time></trkpt><trkpt lat="39.937498870623706" lon="9.179420173254817"><ele>792.0</ele><time>2026-05-03T08:54:16Z</time></trkpt><trkpt lat="39.937583833300266" lon="9.179573814138454"><ele>792.0</ele><time>2026-05-03T08:54:17Z</time></trkpt><trkpt lat="39.937695183857" lon="9.179700406291662"><ele>792.0</ele><time>2026-05-03T08:54:18Z</time></trkpt><trkpt lat="39.93783909580215" lon="9.179832174558587"><ele>792.0</ele><time>2026-05-03T08:54:19Z</time></trkpt><trkpt lat="39.93794832835612" lon="9.17995023926959"><ele>795.5</ele><time>2026-05-03T08:54:20Z</time></trkpt><trkpt lat="39.938030428571885" lon="9.180078128643467"><ele>799.0</ele><time>2026-05-03T08:54:21Z</time></trkpt><trkpt lat="39.93807689506555" lon="9.180230539904725"><ele>802.5</ele><time>2026-05-03T08:54:22.001Z</time></trkpt><trkpt lat="39.93808359804598" lon="9.180404939175993"><ele>806.0</ele><time>2026-05-03T08:54:23.001Z</time></trkpt><trkpt lat="39.93807291847271" lon="9.18059912676905"><ele>808.25</ele><time>2026-05-03T08:54:24.001Z</time></trkpt><trkpt lat="39.938080658113314" lon="9.180773460931293"><ele>810.5</ele><time>2026-05-03T08:54:25.001Z</time></trkpt><trkpt lat="39.93812083277263" lon="9.180935348225917"><ele>812.75</ele><time>2026-05-03T08:54:26.001Z</time></trkpt><trkpt lat="39.93821714061784" lon="9.18108494605779"><ele>815.0</ele><time>2026-05-03T08:54:27.001Z</time></trkpt><trkpt lat="39.93836649055922" lon="9.181213565529847"><ele>811.0</ele><time>2026-05-03T08:54:28.001Z</time></trkpt><trkpt lat="39.938499525841024" lon="9.181282747115159"><ele>807.0</ele><time>2026-05-03T08:54:29.001Z</time></trkpt><trkpt lat="39.93865956938829" lon="9.181317902227285"><ele>803.0</ele><time>2026-05-03T08:54:30.001Z</time></trkpt><trkpt lat="39.93880213679588" lon="9.181331342461794"><ele>799.0</ele><time>2026-05-03T08:54:31.001Z</time></trkpt><trkpt lat="39.938914320568685" lon="9.181376608120846"><ele>799.0</ele><time>2026-05-03T08:54:32.001Z</time></trkpt><trkpt lat="39.939032456178154" lon="9.181482056024727"><ele>799.0</ele><time>2026-05-03T08:54:33.001Z</time></trkpt><trkpt lat="39.93908857352562" lon="9.18161814305795"><ele>799.0</ele><time>2026-05-03T08:54:34.001Z</time></trkpt><trkpt lat="39.93911155238363" lon="9.181739035587622"><ele>799.0</ele><time>2026-05-03T08:54:35.001Z</time></trkpt><trkpt lat="39.93910370365605" lon="9.181880890196151"><ele>803.5</ele><time>2026-05-03T08:54:36.001Z</time></trkpt><trkpt lat="39.939051219268976" lon="9.182044950634626"><ele>808.0</ele><time>2026-05-03T08:54:37.001Z</time></trkpt><trkpt lat="39.938990703290976" lon="9.182212884400212"><ele>812.5</ele><time>2026-05-03T08:54:38.001Z</time></trkpt><trkpt lat="39.938947913726594" lon="9.182376897714654"><ele>817.0</ele><time>2026-05-03T08:54:39.001Z</time></trkpt><trkpt lat="39.93893026651617" lon="9.182536628678053"><ele>816.25</ele><time>2026-05-03T08:54:40.001Z</time></trkpt><trkpt lat="39.9389537263496" lon="9.182691895171049"><ele>815.5</ele><time>2026-05-03T08:54:41.001Z</time></trkpt><trkpt lat="39.93902294604494" lon="9.182833469082974"><ele>814.75</ele><time>2026-05-03T08:54:42.001Z</time></trkpt><trkpt lat="39.93913131859834" lon="9.182926516624509"><ele>814.0</ele><time>2026-05-03T08:54:43Z</time></trkpt><trkpt lat="39.93925591651972" lon="9.182985709116894"><ele>814.0</ele><time>2026-05-03T08:54:44Z</time></trkpt><trkpt lat="39.939389502968126" lon="9.182988854529887"><ele>814.0</ele><time>2026-05-03T08:54:45Z</time></trkpt><trkpt lat="39.93953503770223" lon="9.18295241459352"><ele>814.0</ele><time>2026-05-03T08:54:46Z</time></trkpt><trkpt lat="39.93967351137173" lon="9.18293017838417"><ele>814.0</ele><time>2026-05-03T08:54:47Z</time></trkpt><trkpt lat="39.93981400055631" lon="9.18297115546085"><ele>814.0</ele><time>2026-05-03T08:54:48Z</time></trkpt><trkpt lat="39.939961612061516" lon="9.183050174384734"><ele>814.0</ele><time>2026-05-03T08:54:49Z</time></trkpt><trkpt lat="39.94010268863941" lon="9.183161516832154"><ele>814.0</ele><time>2026-05-03T08:54:50Z</time></trkpt><trkpt lat="39.9402161737008" lon="9.183258384549642"><ele>813.0</ele><time>2026-05-03T08:54:51Z</time></trkpt><trkpt lat="39.940303007742806" lon="9.183410817013824"><ele>812.0</ele><time>2026-05-03T08:54:52Z</time></trkpt><trkpt lat="39.940365254575006" lon="9.183601586533111"><ele>811.0</ele><time>2026-05-03T08:54:53Z</time></trkpt><trkpt lat="39.94040309530919" lon="9.183796854518713"><ele>811.0</ele><time>2026-05-03T08:54:54Z</time></trkpt><trkpt lat="39.94039589384904" lon="9.18400698526822"><ele>811.0</ele><time>2026-05-03T08:54:55Z</time></trkpt><trkpt lat="39.94036452142968" lon="9.184239985800712"><ele>811.0</ele><time>2026-05-03T08:54:56Z</time></trkpt><trkpt lat="39.94034660835799" lon="9.184475374659385"><ele>814.0</ele><time>2026-05-03T08:54:57Z</time></trkpt><trkpt lat="39.94032435932954" lon="9.184708237868243"><ele>817.0</ele><time>2026-05-03T08:54:58Z</time></trkpt><trkpt lat="39.94031429009291" lon="9.184915421119111"><ele>820.0</ele><time>2026-05-03T08:54:59Z</time></trkpt><trkpt lat="39.94031196842841" lon="9.18510497145313"><ele>821.75</ele><time>2026-05-03T08:55:00Z</time></trkpt><trkpt lat="39.94036973056579" lon="9.185270959779885"><ele>823.5</ele><time>2026-05-03T08:55:01Z</time></trkpt><trkpt lat="39.94045283169362" lon="9.185403755859133"><ele>825.25</ele><time>2026-05-03T08:55:02Z</time></trkpt><trkpt lat="39.94057060977806" lon="9.185487006940663"><ele>827.0</ele><time>2026-05-03T08:55:03Z</time></trkpt><trkpt lat="39.94071425342907" lon="9.185521718046108"><ele>827.0</ele><time>2026-05-03T08:55:04Z</time></trkpt><trkpt lat="39.94083901072571" lon="9.185582678472397"><ele>827.0</ele><time>2026-05-03T08:55:05Z</time></trkpt><trkpt lat="39.94096118622463" lon="9.1856823559168"><ele>827.0</ele><time>2026-05-03T08:55:06Z</time></trkpt><trkpt lat="39.941057850540005" lon="9.18581871608279"><ele>827.0</ele><time>2026-05-03T08:55:07Z</time></trkpt><trkpt lat="39.941124003908726" lon="9.185979479854801"><ele>826.25</ele><time>2026-05-03T08:55:08Z</time></trkpt><trkpt lat="39.941158699118844" lon="9.186139914952442"><ele>825.5</ele><time>2026-05-03T08:55:09Z</time></trkpt><trkpt lat="39.9411537204727" lon="9.18629541406309"><ele>824.75</ele><time>2026-05-03T08:55:10Z</time></trkpt><trkpt lat="39.94109985060546" lon="9.186441948002813"><ele>824.0</ele><time>2026-05-03T08:55:11Z</time></trkpt><trkpt lat="39.941008427743846" lon="9.186567457871377"><ele>829.6666666666667</ele><time>2026-05-03T08:55:12Z</time></trkpt><trkpt lat="39.9408748281136" lon="9.186678836932668"><ele>835.3333333333333</ele><time>2026-05-03T08:55:13Z</time></trkpt><trkpt lat="39.94073758136856" lon="9.186798763937606"><ele>841.0</ele><time>2026-05-03T08:55:14Z</time></trkpt><trkpt lat="39.940623712753656" lon="9.186942801854626"><ele>841.0</ele><time>2026-05-03T08:55:15Z</time></trkpt><trkpt lat="39.94052456866418" lon="9.18710986376449"><ele>841.0</ele><time>2026-05-03T08:55:16Z</time></trkpt><trkpt lat="39.94044437534275" lon="9.187297580185406"><ele>841.0</ele><time>2026-05-03T08:55:17Z</time></trkpt><trkpt lat="39.94038483349455" lon="9.187477358134998"><ele>839.0</ele><time>2026-05-03T08:55:18Z</time></trkpt><trkpt lat="39.94033933622247" lon="9.187641011828259"><ele>837.0</ele><time>2026-05-03T08:55:19Z</time></trkpt><trkpt lat="39.94032511552811" lon="9.187792321694829"><ele>835.0</ele><time>2026-05-03T08:55:20Z</time></trkpt><trkpt lat="39.940348549073526" lon="9.187932991753831"><ele>833.0</ele><time>2026-05-03T08:55:21Z</time></trkpt><trkpt lat="39.94041194324063" lon="9.188050421819936"><ele>833.0</ele><time>2026-05-03T08:55:22Z</time></trkpt><trkpt lat="39.94051021194966" lon="9.188129270126117"><ele>833.0</ele><time>2026-05-03T08:55:23Z</time></trkpt><trkpt lat="39.94062558598023" lon="9.188149964391371"><ele>833.0</ele><time>2026-05-03T08:55:24Z</time></trkpt><trkpt lat="39.94075136782365" lon="9.188116243127906"><ele>833.0</ele><time>2026-05-03T08:55:25Z</time></trkpt><trkpt lat="39.94089738405711" lon="9.188057879442898"><ele>831.3333333333334</ele><time>2026-05-03T08:55:26Z</time></trkpt><trkpt lat="39.94105873762563" lon="9.187999927888699"><ele>829.6666666666667</ele><time>2026-05-03T08:55:27Z</time></trkpt><trkpt lat="39.94123355626739" lon="9.187963343927244"><ele>828.0</ele><time>2026-05-03T08:55:28Z</time></trkpt><trkpt lat="39.941418793958206" lon="9.187964781619693"><ele>828.0</ele><time>2026-05-03T08:55:29Z</time></trkpt><trkpt lat="39.941615993018466" lon="9.187993452641756"><ele>828.0</ele><time>2026-05-03T08:55:30Z</time></trkpt><trkpt lat="39.94180998870948" lon="9.1880336358406"><ele>828.0</ele><time>2026-05-03T08:55:31Z</time></trkpt><trkpt lat="39.94198814187371" lon="9.18806146432802"><ele>826.75</ele><time>2026-05-03T08:55:32Z</time></trkpt><trkpt lat="39.94213727968844" lon="9.188096241258165"><ele>825.5</ele><time>2026-05-03T08:55:33Z</time></trkpt><trkpt lat="39.94226575182528" lon="9.18815771653265"><ele>824.25</ele><time>2026-05-03T08:55:34Z</time></trkpt><trkpt lat="39.94238903229073" lon="9.188265764569667"><ele>823.0</ele><time>2026-05-03T08:55:35Z</time></trkpt><trkpt lat="39.94250033712039" lon="9.188412634109097"><ele>828.0</ele><time>2026-05-03T08:55:36Z</time></trkpt><trkpt lat="39.942607240554835" lon="9.18855522160706"><ele>833.0</ele><time>2026-05-03T08:55:37Z</time></trkpt><trkpt lat="39.942718837101125" lon="9.188689784029965"><ele>838.0</ele><time>2026-05-03T08:55:38Z</time></trkpt><trkpt lat="39.94280974160057" lon="9.188812569599849"><ele>843.0</ele><time>2026-05-03T08:55:39Z</time></trkpt><trkpt lat="39.942893073823754" lon="9.188901315395174"><ele>843.0</ele><time>2026-05-03T08:55:40Z</time></trkpt><trkpt lat="39.94297412094028" lon="9.18896424504731"><ele>843.0</ele><time>2026-05-03T08:55:41Z</time></trkpt><trkpt lat="39.94307154659034" lon="9.188963819187153"><ele>843.0</ele><time>2026-05-03T08:55:42Z</time></trkpt><trkpt lat="39.94318538180287" lon="9.18891447171687"><ele>843.0</ele><time>2026-05-03T08:55:43Z</time></trkpt><trkpt lat="39.94326453550064" lon="9.188783824173957"><ele>843.0</ele><time>2026-05-03T08:55:44Z</time></trkpt><trkpt lat="39.94326008939975" lon="9.188656113054337"><ele>843.0</ele><time>2026-05-03T08:55:45Z</time></trkpt><trkpt lat="39.94325603341464" lon="9.188519245056685"><ele>843.0</ele><time>2026-05-03T08:55:46Z</time></trkpt><trkpt lat="39.94324105669727" lon="9.188345993465704"><ele>843.0</ele><time>2026-05-03T08:55:47Z</time></trkpt><trkpt lat="39.943230084299486" lon="9.18815810730061"><ele>843.0</ele><time>2026-05-03T08:55:48Z</time></trkpt><trkpt lat="39.94323403758539" lon="9.187981510664528"><ele>842.0</ele><time>2026-05-03T08:55:49Z</time></trkpt><trkpt lat="39.943263963970985" lon="9.187819866876676"><ele>841.0</ele><time>2026-05-03T08:55:50Z</time></trkpt><trkpt lat="39.94333276459934" lon="9.187672448715627"><ele>840.0</ele><time>2026-05-03T08:55:51Z</time></trkpt><trkpt lat="39.9434055880898" lon="9.187516670366723"><ele>839.0</ele><time>2026-05-03T08:55:52Z</time></trkpt><trkpt lat="39.943459008891956" lon="9.187351245889658"><ele>850.6666666666667</ele><time>2026-05-03T08:55:53Z</time></trkpt><trkpt lat="39.94346075957485" lon="9.187151214419192"><ele>862.3333333333333</ele><time>2026-05-03T08:55:54Z</time></trkpt><trkpt lat="39.94343742493144" lon="9.186937780884255"><ele>874.0</ele><time>2026-05-03T08:55:55Z</time></trkpt><trkpt lat="39.94339786278555" lon="9.186702065893115"><ele>865.6666666666666</ele><time>2026-05-03T08:55:56Z</time></trkpt><trkpt lat="39.943335521416785" lon="9.186492191144056"><ele>857.3333333333333</ele><time>2026-05-03T08:55:57Z</time></trkpt><trkpt lat="39.943290673789164" lon="9.186291098724308"><ele>849.0</ele><time>2026-05-03T08:55:58Z</time></trkpt><trkpt lat="39.94326508834628" lon="9.186099166038927"><ele>849.0</ele><time>2026-05-03T08:55:59Z</time></trkpt><trkpt lat="39.9432576229232" lon="9.185890722456676"><ele>849.0</ele><time>2026-05-03T08:56:00Z</time></trkpt><trkpt lat="39.943271968647686" lon="9.185678153033992"><ele>849.0</ele><time>2026-05-03T08:56:01Z</time></trkpt><trkpt lat="39.94328944310866" lon="9.185453776307478"><ele>850.3333333333333</ele><time>2026-05-03T08:56:02Z</time></trkpt><trkpt lat="39.943288149114636" lon="9.185234456268303"><ele>851.6666666666666</ele><time>2026-05-03T08:56:03Z</time></trkpt><trkpt lat="39.943277783166884" lon="9.185034374439205"><ele>853.0</ele><time>2026-05-03T08:56:04Z</time></trkpt><trkpt lat="39.94323217203052" lon="9.184845264498453"><ele>856.0</ele><time>2026-05-03T08:56:05Z</time></trkpt><trkpt lat="39.94314709126782" lon="9.184672791905236"><ele>859.0</ele><time>2026-05-03T08:56:06Z</time></trkpt><trkpt lat="39.94303094945085" lon="9.18452941599881"><ele>862.0</ele><time>2026-05-03T08:56:07Z</time></trkpt><trkpt lat="39.942896125942326" lon="9.184457666375058"><ele>862.0</ele><time>2026-05-03T08:56:08Z</time></trkpt><trkpt lat="39.94278056546991" lon="9.184384002502734"><ele>862.0</ele><time>2026-05-03T08:56:09Z</time></trkpt><trkpt lat="39.942665013905824" lon="9.184338229053687"><ele>862.0</ele><time>2026-05-03T08:56:10Z</time></trkpt><trkpt lat="39.94258778550567" lon="9.18422978312546"><ele>862.0</ele><time>2026-05-03T08:56:11Z</time></trkpt><trkpt lat="39.94254083269031" lon="9.184087150715667"><ele>864.5</ele><time>2026-05-03T08:56:12Z</time></trkpt><trkpt lat="39.94252805295729" lon="9.183928573082667"><ele>867.0</ele><time>2026-05-03T08:56:13Z</time></trkpt><trkpt lat="39.94256138734903" lon="9.183758296007136"><ele>869.5</ele><time>2026-05-03T08:56:14Z</time></trkpt><trkpt lat="39.94261935745452" lon="9.183588296319988"><ele>872.0</ele><time>2026-05-03T08:56:15Z</time></trkpt><trkpt lat="39.94269629526316" lon="9.183415855893298"><ele>872.0</ele><time>2026-05-03T08:56:16Z</time></trkpt><trkpt lat="39.94276904861456" lon="9.183228345094973"><ele>872.0</ele><time>2026-05-03T08:56:17Z</time></trkpt><trkpt lat="39.942838407350195" lon="9.183024903042034"><ele>872.0</ele><time>2026-05-03T08:56:18Z</time></trkpt><trkpt lat="39.94289234813406" lon="9.18280156906711"><ele>870.6666666666667</ele><time>2026-05-03T08:56:19Z</time></trkpt><trkpt lat="39.94293344238425" lon="9.182576779244588"><ele>869.3333333333333</ele><time>2026-05-03T08:56:20Z</time></trkpt><trkpt lat="39.94295886259915" lon="9.182372358177165"><ele>868.0</ele><time>2026-05-03T08:56:21Z</time></trkpt><trkpt lat="39.94297358820072" lon="9.18218664081002"><ele>866.4</ele><time>2026-05-03T08:56:22Z</time></trkpt><trkpt lat="39.94297844797586" lon="9.182017117843328"><ele>864.8</ele><time>2026-05-03T08:56:23Z</time></trkpt><trkpt lat="39.94296373849172" lon="9.18186186293099"><ele>863.2</ele><time>2026-05-03T08:56:24Z</time></trkpt><trkpt lat="39.942959434438286" lon="9.181720876425123"><ele>861.6</ele><time>2026-05-03T08:56:25Z</time></trkpt><trkpt lat="39.94294420532101" lon="9.18160628020151"><ele>860.0</ele><time>2026-05-03T08:56:26Z</time></trkpt><trkpt lat="39.94293243281155" lon="9.181516575287771"><ele>860.0</ele><time>2026-05-03T08:56:27Z</time></trkpt><trkpt lat="39.94293180577237" lon="9.181428455144085"><ele>860.0</ele><time>2026-05-03T08:56:29Z</time></trkpt><trkpt lat="39.94309683791386" lon="9.181482612592896"><ele>860.0</ele><time>2026-05-03T08:56:38Z</time></trkpt><trkpt lat="39.94314330306622" lon="9.181549949829924"><ele>860.0</ele><time>2026-05-03T08:56:39Z</time></trkpt><trkpt lat="39.94305238235804" lon="9.181777366500782"><ele>860.0</ele><time>2026-05-03T08:56:40Z</time></trkpt><trkpt lat="39.94309009797115" lon="9.181913446520321"><ele>860.0</ele><time>2026-05-03T08:56:41Z</time></trkpt><trkpt lat="39.94310198617123" lon="9.182058827211003"><ele>860.0</ele><time>2026-05-03T08:56:42Z</time></trkpt><trkpt lat="39.94311785885143" lon="9.182223804536708"><ele>860.0</ele><time>2026-05-03T08:56:43Z</time></trkpt><trkpt lat="39.943118932259864" lon="9.182410328166458"><ele>862.0</ele><time>2026-05-03T08:56:44Z</time></trkpt><trkpt lat="39.943110240520085" lon="9.182596861056096"><ele>864.0</ele><time>2026-05-03T08:56:45Z</time></trkpt><trkpt lat="39.94308960820992" lon="9.182788635813997"><ele>866.0</ele><time>2026-05-03T08:56:46Z</time></trkpt><trkpt lat="39.94307053470872" lon="9.182975150042036"><ele>868.0</ele><time>2026-05-03T08:56:47Z</time></trkpt><trkpt lat="39.94305303535008" lon="9.183141157076339"><ele>869.0</ele><time>2026-05-03T08:56:48Z</time></trkpt><trkpt lat="39.943051508054836" lon="9.183290850956453"><ele>870.0</ele><time>2026-05-03T08:56:49Z</time></trkpt><trkpt lat="39.94307041339205" lon="9.183427957851881"><ele>871.0</ele><time>2026-05-03T08:56:50Z</time></trkpt><trkpt lat="39.94310936817897" lon="9.18357781103066"><ele>872.0</ele><time>2026-05-03T08:56:51Z</time></trkpt><trkpt lat="39.94320586860832" lon="9.183701574362267"><ele>872.0</ele><time>2026-05-03T08:56:52Z</time></trkpt><trkpt lat="39.94328799365936" lon="9.183815691893564"><ele>872.0</ele><time>2026-05-03T08:56:53Z</time></trkpt><trkpt lat="39.943390537918404" lon="9.18388771504223"><ele>872.0</ele><time>2026-05-03T08:56:54Z</time></trkpt><trkpt lat="39.94350559500742" lon="9.18392905511086"><ele>872.0</ele><time>2026-05-03T08:56:55Z</time></trkpt><trkpt lat="39.94362091405022" lon="9.183973122152333"><ele>869.0</ele><time>2026-05-03T08:56:56Z</time></trkpt><trkpt lat="39.94371473742493" lon="9.184043338604118"><ele>866.0</ele><time>2026-05-03T08:56:57Z</time></trkpt><trkpt lat="39.943784633486175" lon="9.184141756655052"><ele>863.0</ele><time>2026-05-03T08:56:58Z</time></trkpt><trkpt lat="39.94382554382564" lon="9.184284040692907"><ele>860.0</ele><time>2026-05-03T08:56:59Z</time></trkpt><trkpt lat="39.9439002235274" lon="9.184440408487378"><ele>860.0</ele><time>2026-05-03T08:57:00Z</time></trkpt><trkpt lat="39.94394899247262" lon="9.184637774882075"><ele>860.0</ele><time>2026-05-03T08:57:01Z</time></trkpt><trkpt lat="39.944028270476416" lon="9.184820388001912"><ele>860.0</ele><time>2026-05-03T08:57:02Z</time></trkpt><trkpt lat="39.944135779871026" lon="9.184992191502479"><ele>860.3333333333334</ele><time>2026-05-03T08:57:03Z</time></trkpt><trkpt lat="39.944284261617916" lon="9.185124611767254"><ele>860.6666666666667</ele><time>2026-05-03T08:57:04Z</time></trkpt><trkpt lat="39.9444250363733" lon="9.185269753120473"><ele>861.0</ele><time>2026-05-03T08:57:05Z</time></trkpt><trkpt lat="39.94455972486798" lon="9.185422805996614"><ele>861.0</ele><time>2026-05-03T08:57:06Z</time></trkpt><trkpt lat="39.94467900864005" lon="9.185587000927237"><ele>861.0</ele><time>2026-05-03T08:57:07Z</time></trkpt><trkpt lat="39.94479246731217" lon="9.185774762161511"><ele>861.0</ele><time>2026-05-03T08:57:08Z</time></trkpt><trkpt lat="39.9449037442293" lon="9.185966975591628"><ele>859.6666666666667</ele><time>2026-05-03T08:57:09Z</time></trkpt><trkpt lat="39.94501885793045" lon="9.186157174893518"><ele>858.3333333333334</ele><time>2026-05-03T08:57:10Z</time></trkpt><trkpt lat="39.94513523886864" lon="9.186339785358983"><ele>857.0</ele><time>2026-05-03T08:57:11Z</time></trkpt><trkpt lat="39.945253584893806" lon="9.186517645405742"><ele>863.3333333333334</ele><time>2026-05-03T08:57:12Z</time></trkpt><trkpt lat="39.94536095040395" lon="9.186711368781566"><ele>869.6666666666667</ele><time>2026-05-03T08:57:13Z</time></trkpt><trkpt lat="39.94545902444813" lon="9.186915372705267"><ele>876.0</ele><time>2026-05-03T08:57:14Z</time></trkpt><trkpt lat="39.94554512415013" lon="9.187122031662533"><ele>876.0</ele><time>2026-05-03T08:57:15Z</time></trkpt><trkpt lat="39.94562408052295" lon="9.187320574973228"><ele>876.0</ele><time>2026-05-03T08:57:16Z</time></trkpt><trkpt lat="39.94569242022381" lon="9.187512733395256"><ele>876.0</ele><time>2026-05-03T08:57:17Z</time></trkpt><trkpt lat="39.945751304218064" lon="9.18770710641877"><ele>876.6666666666667</ele><time>2026-05-03T08:57:18Z</time></trkpt><trkpt lat="39.94583404388832" lon="9.18788529098715"><ele>877.3333333333334</ele><time>2026-05-03T08:57:19Z</time></trkpt><trkpt lat="39.9459349126259" lon="9.188031521544712"><ele>878.0</ele><time>2026-05-03T08:57:20Z</time></trkpt><trkpt lat="39.94606466580939" lon="9.18816467276049"><ele>884.0</ele><time>2026-05-03T08:57:21Z</time></trkpt><trkpt lat="39.94621279868376" lon="9.188282095082593"><ele>890.0</ele><time>2026-05-03T08:57:22Z</time></trkpt><trkpt lat="39.94636897592733" lon="9.188399481967705"><ele>896.0</ele><time>2026-05-03T08:57:23Z</time></trkpt><trkpt lat="39.94652924099076" lon="9.188492076428892"><ele>896.0</ele><time>2026-05-03T08:57:24Z</time></trkpt><trkpt lat="39.9467014350344" lon="9.188554031367309"><ele>896.0</ele><time>2026-05-03T08:57:25Z</time></trkpt><trkpt lat="39.94685579271568" lon="9.188641347502031"><ele>896.0</ele><time>2026-05-03T08:57:26Z</time></trkpt><trkpt lat="39.94700226139736" lon="9.188748721423034"><ele>898.3333333333334</ele><time>2026-05-03T08:57:27Z</time></trkpt><trkpt lat="39.94714861675494" lon="9.188871916263615"><ele>900.6666666666667</ele><time>2026-05-03T08:57:28Z</time></trkpt><trkpt lat="39.94728658888226" lon="9.189005247163943"><ele>903.0</ele><time>2026-05-03T08:57:29Z</time></trkpt><trkpt lat="39.947411951122646" lon="9.189124884567521"><ele>903.0</ele><time>2026-05-03T08:57:30Z</time></trkpt><trkpt lat="39.947516176219054" lon="9.18922880640144"><ele>903.0</ele><time>2026-05-03T08:57:31Z</time></trkpt><trkpt lat="39.94760500753891" lon="9.189335798245736"><ele>903.0</ele><time>2026-05-03T08:57:32Z</time></trkpt><trkpt lat="39.94765960795486" lon="9.189452854099239"><ele>903.0</ele><time>2026-05-03T08:57:33Z</time></trkpt><trkpt lat="39.94769102191464" lon="9.18958928605083"><ele>899.0</ele><time>2026-05-03T08:57:34Z</time></trkpt><trkpt lat="39.947690303664906" lon="9.18973873266925"><ele>895.0</ele><time>2026-05-03T08:57:35Z</time></trkpt><trkpt lat="39.947666448298456" lon="9.189903040009508"><ele>891.0</ele><time>2026-05-03T08:57:36Z</time></trkpt><trkpt lat="39.947632326372634" lon="9.19008178945171"><ele>887.0</ele><time>2026-05-03T08:57:37Z</time></trkpt><trkpt lat="39.94758076837919" lon="9.19027703186203"><ele>896.0</ele><time>2026-05-03T08:57:38Z</time></trkpt><trkpt lat="39.94753423818339" lon="9.190498544681828"><ele>905.0</ele><time>2026-05-03T08:57:39Z</time></trkpt><trkpt lat="39.9475073732946" lon="9.190718110201432"><ele>914.0</ele><time>2026-05-03T08:57:40Z</time></trkpt><trkpt lat="39.947471988521826" lon="9.190905197110274"><ele>915.5</ele><time>2026-05-03T08:57:41Z</time></trkpt><trkpt lat="39.94744171747646" lon="9.19108308897072"><ele>917.0</ele><time>2026-05-03T08:57:42Z</time></trkpt><trkpt lat="39.94745704028754" lon="9.19127911430935"><ele>918.5</ele><time>2026-05-03T08:57:43Z</time></trkpt><trkpt lat="39.94751567473868" lon="9.191470220622664"><ele>920.0</ele><time>2026-05-03T08:57:44Z</time></trkpt><trkpt lat="39.94756601196506" lon="9.19167688860224"><ele>913.6666666666667</ele><time>2026-05-03T08:57:45Z</time></trkpt><trkpt lat="39.947599974682504" lon="9.191887073577774"><ele>907.3333333333333</ele><time>2026-05-03T08:57:46Z</time></trkpt><trkpt lat="39.94766399509704" lon="9.192080374503862"><ele>901.0</ele><time>2026-05-03T08:57:47Z</time></trkpt><trkpt lat="39.94770428999757" lon="9.192268591134944"><ele>903.5</ele><time>2026-05-03T08:57:48Z</time></trkpt><trkpt lat="39.94773809063056" lon="9.192440851802207"><ele>906.0</ele><time>2026-05-03T08:57:49Z</time></trkpt><trkpt lat="39.94776054754539" lon="9.192600414070172"><ele>908.5</ele><time>2026-05-03T08:57:50Z</time></trkpt><trkpt lat="39.947777787648846" lon="9.192745295266285"><ele>911.0</ele><time>2026-05-03T08:57:51Z</time></trkpt><trkpt lat="39.94778988983827" lon="9.192866861432515"><ele>911.0000000000001</ele><time>2026-05-03T08:57:52Z</time></trkpt><trkpt lat="39.94779661831281" lon="9.192984011936833"><ele>911.0</ele><time>2026-05-03T08:57:54Z</time></trkpt><trkpt lat="39.94780213902054" lon="9.19308713554023"><ele>911.0</ele><time>2026-05-03T08:59:17Z</time></trkpt><trkpt lat="39.947874750239876" lon="9.192992207006252"><ele>911.0</ele><time>2026-05-03T08:59:23Z</time></trkpt><trkpt lat="39.947829850543606" lon="9.192899773943115"><ele>911.0000000000001</ele><time>2026-05-03T08:59:25Z</time></trkpt><trkpt lat="39.94780792957994" lon="9.19281155567609"><ele>911.0</ele><time>2026-05-03T08:59:26Z</time></trkpt><trkpt lat="39.94780016991609" lon="9.192716355305025"><ele>911.0000000000001</ele><time>2026-05-03T08:59:27Z</time></trkpt><trkpt lat="39.947787596405796" lon="9.192613760137652"><ele>911.0</ele><time>2026-05-03T08:59:28Z</time></trkpt><trkpt lat="39.947778661263925" lon="9.192506695457336"><ele>911.0</ele><time>2026-05-03T08:59:29Z</time></trkpt><trkpt lat="39.94775720039044" lon="9.192391274821121"><ele>911.0</ele><time>2026-05-03T08:59:30Z</time></trkpt><trkpt lat="39.947731826789976" lon="9.192273313396797"><ele>911.0000000000001</ele><time>2026-05-03T08:59:31Z</time></trkpt><trkpt lat="39.94770732674332" lon="9.192160525813103"><ele>911.0</ele><time>2026-05-03T08:59:32Z</time></trkpt><trkpt lat="39.94768094907967" lon="9.19204259378654"><ele>912.8</ele><time>2026-05-03T08:59:33Z</time></trkpt><trkpt lat="39.94765091292485" lon="9.1919388606791"><ele>914.5999999999999</ele><time>2026-05-03T08:59:34Z</time></trkpt><trkpt lat="39.94762504323622" lon="9.1918069173759"><ele>916.4</ele><time>2026-05-03T08:59:35Z</time></trkpt><trkpt lat="39.94758996839574" lon="9.191659484371442"><ele>918.2</ele><time>2026-05-03T08:59:36Z</time></trkpt><trkpt lat="39.94755223158544" lon="9.191527271360455"><ele>920.0</ele><time>2026-05-03T08:59:37Z</time></trkpt><trkpt lat="39.9475173743829" lon="9.1913970884914"><ele>920.0</ele><time>2026-05-03T08:59:38Z</time></trkpt><trkpt lat="39.94748986123135" lon="9.191275535724426"><ele>920.0</ele><time>2026-05-03T08:59:39Z</time></trkpt><trkpt lat="39.947480886208204" lon="9.191148707049496"><ele>920.0</ele><time>2026-05-03T08:59:40Z</time></trkpt><trkpt lat="39.947487842393386" lon="9.190991467935614"><ele>920.0</ele><time>2026-05-03T08:59:41Z</time></trkpt><trkpt lat="39.94752481704373" lon="9.190801604579889"><ele>911.75</ele><time>2026-05-03T08:59:42Z</time></trkpt><trkpt lat="39.94755890112739" lon="9.190625180249217"><ele>903.5</ele><time>2026-05-03T08:59:43Z</time></trkpt><trkpt lat="39.94759903358486" lon="9.190421887585318"><ele>895.25</ele><time>2026-05-03T08:59:44Z</time></trkpt><trkpt lat="39.94764662639343" lon="9.190244278218925"><ele>887.0</ele><time>2026-05-03T08:59:45Z</time></trkpt><trkpt lat="39.94768087485963" lon="9.190062097539881"><ele>887.0</ele><time>2026-05-03T08:59:46Z</time></trkpt><trkpt lat="39.9477119193489" lon="9.189884180758133"><ele>887.0</ele><time>2026-05-03T08:59:47Z</time></trkpt><trkpt lat="39.94772643607338" lon="9.189725203736106"><ele>887.0</ele><time>2026-05-03T08:59:48Z</time></trkpt><trkpt lat="39.94772094890871" lon="9.189583139174205"><ele>887.0</ele><time>2026-05-03T08:59:49Z</time></trkpt><trkpt lat="39.947684297590094" lon="9.189452565320563"><ele>886.5</ele><time>2026-05-03T08:59:50Z</time></trkpt><trkpt lat="39.94761863169255" lon="9.189335269963662"><ele>886.0</ele><time>2026-05-03T08:59:51Z</time></trkpt><trkpt lat="39.94752966404906" lon="9.1892062447961"><ele>885.5</ele><time>2026-05-03T08:59:52Z</time></trkpt><trkpt lat="39.94741209464591" lon="9.189088295307549"><ele>885.0</ele><time>2026-05-03T08:59:53Z</time></trkpt><trkpt lat="39.94728636292132" lon="9.188987238044323"><ele>885.0</ele><time>2026-05-03T08:59:54Z</time></trkpt><trkpt lat="39.947162478642774" lon="9.188858609424367"><ele>885.0</ele><time>2026-05-03T08:59:55Z</time></trkpt><trkpt lat="39.947038239790515" lon="9.188724193875954"><ele>885.0</ele><time>2026-05-03T08:59:56Z</time></trkpt><trkpt lat="39.94688516420997" lon="9.188615796515368"><ele>885.0</ele><time>2026-05-03T08:59:57Z</time></trkpt><trkpt lat="39.94672073961901" lon="9.188534172949161"><ele>885.0</ele><time>2026-05-03T08:59:58Z</time></trkpt><trkpt lat="39.94654958610174" lon="9.188475178752379"><ele>885.0</ele><time>2026-05-03T08:59:59Z</time></trkpt><trkpt lat="39.946392382967254" lon="9.188380386894776"><ele>882.6666666666667</ele><time>2026-05-03T09:00:00Z</time></trkpt><trkpt lat="39.94625018821616" lon="9.18827699195097"><ele>880.3333333333334</ele><time>2026-05-03T09:00:01Z</time></trkpt><trkpt lat="39.94611900305308" lon="9.18817357867951"><ele>878.0</ele><time>2026-05-03T09:00:02Z</time></trkpt><trkpt lat="39.94599932963868" lon="9.18805146681779"><ele>878.0</ele><time>2026-05-03T09:00:03Z</time></trkpt><trkpt lat="39.945891722297915" lon="9.187910525913528"><ele>878.0</ele><time>2026-05-03T09:00:04Z</time></trkpt><trkpt lat="39.94580631588593" lon="9.187752124731778"><ele>878.0</ele><time>2026-05-03T09:00:05Z</time></trkpt><trkpt lat="39.94573116189689" lon="9.187556299812906"><ele>877.3333333333334</ele><time>2026-05-03T09:00:06Z</time></trkpt><trkpt lat="39.94565479934298" lon="9.187348949063244"><ele>876.6666666666667</ele><time>2026-05-03T09:00:07Z</time></trkpt><trkpt lat="39.94557424268541" lon="9.18714721297137"><ele>876.0</ele><time>2026-05-03T09:00:08Z</time></trkpt><trkpt lat="39.94547604090034" lon="9.186927131591272"><ele>876.0</ele><time>2026-05-03T09:00:09Z</time></trkpt><trkpt lat="39.94536628544159" lon="9.186706225128438"><ele>876.0</ele><time>2026-05-03T09:00:10Z</time></trkpt><trkpt lat="39.94525300739195" lon="9.18650050389893"><ele>876.0</ele><time>2026-05-03T09:00:11Z</time></trkpt><trkpt lat="39.945140325959464" lon="9.186304225716217"><ele>875.3333333333333</ele><time>2026-05-03T09:00:12Z</time></trkpt><trkpt lat="39.94502679129682" lon="9.186119667699913"><ele>874.6666666666666</ele><time>2026-05-03T09:00:13Z</time></trkpt><trkpt lat="39.944914204147416" lon="9.18594128962049"><ele>874.0</ele><time>2026-05-03T09:00:14Z</time></trkpt><trkpt lat="39.94480007140473" lon="9.18576730207738"><ele>869.6666666666666</ele><time>2026-05-03T09:00:15Z</time></trkpt><trkpt lat="39.94470803080111" lon="9.185580689265736"><ele>865.3333333333333</ele><time>2026-05-03T09:00:16Z</time></trkpt><trkpt lat="39.9445866306624" lon="9.185412036977644"><ele>861.0</ele><time>2026-05-03T09:00:17Z</time></trkpt><trkpt lat="39.94445028671663" lon="9.18526400337016"><ele>861.0</ele><time>2026-05-03T09:00:18Z</time></trkpt><trkpt lat="39.94432439176214" lon="9.185133312006728"><ele>861.0</ele><time>2026-05-03T09:00:19Z</time></trkpt><trkpt lat="39.94419621258271" lon="9.18502607150805"><ele>861.0</ele><time>2026-05-03T09:00:20Z</time></trkpt><trkpt lat="39.944103971423644" lon="9.184885468353988"><ele>860.75</ele><time>2026-05-03T09:00:21Z</time></trkpt><trkpt lat="39.94402772442692" lon="9.184728626862718"><ele>860.5</ele><time>2026-05-03T09:00:22Z</time></trkpt><trkpt lat="39.943956128186464" lon="9.184548944822275"><ele>860.25</ele><time>2026-05-03T09:00:23Z</time></trkpt><trkpt lat="39.94389843014956" lon="9.184385458949341"><ele>860.0</ele><time>2026-05-03T09:00:24Z</time></trkpt><trkpt lat="39.9438409237329" lon="9.18423559729881"><ele>860.0</ele><time>2026-05-03T09:00:25Z</time></trkpt><trkpt lat="39.943771883251465" lon="9.184108025601125"><ele>860.0</ele><time>2026-05-03T09:00:26Z</time></trkpt><trkpt lat="39.943695015739074" lon="9.183994964976373"><ele>860.0</ele><time>2026-05-03T09:00:27Z</time></trkpt><trkpt lat="39.94359363278696" lon="9.183925663012426"><ele>860.0</ele><time>2026-05-03T09:00:28Z</time></trkpt><trkpt lat="39.94348958776916" lon="9.183888315873926"><ele>859.8</ele><time>2026-05-03T09:00:29Z</time></trkpt><trkpt lat="39.943393307710785" lon="9.183867767301233"><ele>859.6</ele><time>2026-05-03T09:00:30Z</time></trkpt><trkpt lat="39.943310014909336" lon="9.183808038141894"><ele>859.4000000000001</ele><time>2026-05-03T09:00:31Z</time></trkpt><trkpt lat="39.94323763892875" lon="9.18373020299028"><ele>859.2</ele><time>2026-05-03T09:00:32Z</time></trkpt><trkpt lat="39.94317646452773" lon="9.183633734011096"><ele>859.0</ele><time>2026-05-03T09:00:33Z</time></trkpt><trkpt lat="39.943128881416186" lon="9.18352315386198"><ele>860.8000000000001</ele><time>2026-05-03T09:00:34Z</time></trkpt><trkpt lat="39.943096338982954" lon="9.183408952528207"><ele>862.6000000000001</ele><time>2026-05-03T09:00:35Z</time></trkpt><trkpt lat="39.94307985646736" lon="9.183275295405211"><ele>864.4</ele><time>2026-05-03T09:00:36Z</time></trkpt><trkpt lat="39.943077372882904" lon="9.183135739638862"><ele>866.2</ele><time>2026-05-03T09:00:37Z</time></trkpt><trkpt lat="39.9430927206034" lon="9.182986915635196"><ele>868.0</ele><time>2026-05-03T09:00:38Z</time></trkpt><trkpt lat="39.943114375894034" lon="9.18282426523938"><ele>868.0</ele><time>2026-05-03T09:00:39Z</time></trkpt><trkpt lat="39.94313111483451" lon="9.182665685447251"><ele>868.0</ele><time>2026-05-03T09:00:40Z</time></trkpt><trkpt lat="39.94314003618557" lon="9.182513225606073"><ele>868.0</ele><time>2026-05-03T09:00:41Z</time></trkpt><trkpt lat="39.94314305643021" lon="9.18236708754192"><ele>868.0</ele><time>2026-05-03T09:00:42Z</time></trkpt><trkpt lat="39.94313771665481" lon="9.182227160227873"><ele>866.4</ele><time>2026-05-03T09:00:43Z</time></trkpt><trkpt lat="39.94312845199774" lon="9.182093904729523"><ele>864.8</ele><time>2026-05-03T09:00:44Z</time></trkpt><trkpt lat="39.943111352632314" lon="9.181964320539956"><ele>863.2</ele><time>2026-05-03T09:00:45Z</time></trkpt><trkpt lat="39.9430912748326" lon="9.181837373607438"><ele>861.6</ele><time>2026-05-03T09:00:46Z</time></trkpt><trkpt lat="39.94307002516321" lon="9.181714699490767"><ele>860.0</ele><time>2026-05-03T09:00:47Z</time></trkpt><trkpt lat="39.94304292917082" lon="9.18160011462111"><ele>860.0000000000001</ele><time>2026-05-03T09:00:48Z</time></trkpt><trkpt lat="39.94303239833974" lon="9.181516152262668"><ele>860.0</ele><time>2026-05-03T09:00:49Z</time></trkpt><trkpt lat="39.94305078558654" lon="9.181431539358222"><ele>860.0</ele><time>2026-05-03T09:00:51Z</time></trkpt><trkpt lat="39.94308906253818" lon="9.181351036624465"><ele>860.0</ele><time>2026-05-03T09:00:54Z</time></trkpt><trkpt lat="39.94317043314544" lon="9.181456413067863"><ele>860.0000000000001</ele><time>2026-05-03T09:00:55Z</time></trkpt><trkpt lat="39.94324414621419" lon="9.181524907347557"><ele>860.0</ele><time>2026-05-03T09:00:56Z</time></trkpt><trkpt lat="39.94331370624249" lon="9.18161857905737"><ele>855.75</ele><time>2026-05-03T09:00:57Z</time></trkpt><trkpt lat="39.943398957473654" lon="9.18172703869394"><ele>851.5</ele><time>2026-05-03T09:00:58Z</time></trkpt><trkpt lat="39.94348759395083" lon="9.18183356315496"><ele>847.25</ele><time>2026-05-03T09:00:59Z</time></trkpt><trkpt lat="39.94358046686478" lon="9.181948500755729"><ele>843.0</ele><time>2026-05-03T09:01:00Z</time></trkpt><trkpt lat="39.943678958127734" lon="9.182068953004567"><ele>843.0</ele><time>2026-05-03T09:01:01Z</time></trkpt><trkpt lat="39.94378081303298" lon="9.182194081370383"><ele>843.0</ele><time>2026-05-03T09:01:02Z</time></trkpt><trkpt lat="39.943874949581485" lon="9.182313444756035"><ele>843.0</ele><time>2026-05-03T09:01:03Z</time></trkpt><trkpt lat="39.94395099031124" lon="9.182441448935956"><ele>843.0</ele><time>2026-05-03T09:01:04Z</time></trkpt><trkpt lat="39.94399772305282" lon="9.18257805696949"><ele>845.75</ele><time>2026-05-03T09:01:05Z</time></trkpt><trkpt lat="39.94401586657208" lon="9.182732662097816"><ele>848.5</ele><time>2026-05-03T09:01:06Z</time></trkpt><trkpt lat="39.94401342182346" lon="9.182884551673986"><ele>851.25</ele><time>2026-05-03T09:01:07Z</time></trkpt><trkpt lat="39.94399825388996" lon="9.183030431530248"><ele>854.0</ele><time>2026-05-03T09:01:08Z</time></trkpt><trkpt lat="39.943982109058" lon="9.183167501068764"><ele>855.25</ele><time>2026-05-03T09:01:09Z</time></trkpt><trkpt lat="39.94398021864322" lon="9.183296248052088"><ele>856.5</ele><time>2026-05-03T09:01:10Z</time></trkpt><trkpt lat="39.943993499657154" lon="9.183438955512559"><ele>857.75</ele><time>2026-05-03T09:01:11Z</time></trkpt><trkpt lat="39.94402485238764" lon="9.18359660321473"><ele>859.0</ele><time>2026-05-03T09:01:12Z</time></trkpt><trkpt lat="39.944065242993155" lon="9.183754159457763"><ele>859.0</ele><time>2026-05-03T09:01:13Z</time></trkpt><trkpt lat="39.9441026546289" lon="9.183903180843666"><ele>859.0000000000001</ele><time>2026-05-03T09:01:14Z</time></trkpt><trkpt lat="39.94413413375064" lon="9.184049732485585"><ele>859.0000000000001</ele><time>2026-05-03T09:01:15Z</time></trkpt><trkpt lat="39.944164714415614" lon="9.184185934313186"><ele>859.0</ele><time>2026-05-03T09:01:16Z</time></trkpt><trkpt lat="39.94419751859076" lon="9.18431359079624"><ele>859.0</ele><time>2026-05-03T09:01:17Z</time></trkpt><trkpt lat="39.944242565906876" lon="9.184445285689312"><ele>855.75</ele><time>2026-05-03T09:01:18Z</time></trkpt><trkpt lat="39.944312006184894" lon="9.184565054398364"><ele>852.5</ele><time>2026-05-03T09:01:19Z</time></trkpt><trkpt lat="39.944410177761995" lon="9.184662431830304"><ele>849.25</ele><time>2026-05-03T09:01:20Z</time></trkpt><trkpt lat="39.94454429449743" lon="9.184745756375786"><ele>846.0</ele><time>2026-05-03T09:01:21Z</time></trkpt><trkpt lat="39.944704664328086" lon="9.184827753488724"><ele>845.5</ele><time>2026-05-03T09:01:22Z</time></trkpt><trkpt lat="39.94483452519108" lon="9.184915221398814"><ele>845.0</ele><time>2026-05-03T09:01:23Z</time></trkpt><trkpt lat="39.94498918456172" lon="9.184978018531465"><ele>844.5</ele><time>2026-05-03T09:01:24Z</time></trkpt><trkpt lat="39.94507804289325" lon="9.185052879719818"><ele>844.0</ele><time>2026-05-03T09:01:25Z</time></trkpt><trkpt lat="39.94519034846859" lon="9.18514633553108"><ele>844.0</ele><time>2026-05-03T09:01:26Z</time></trkpt><trkpt lat="39.945287879414344" lon="9.18525993045896"><ele>844.0</ele><time>2026-05-03T09:01:27Z</time></trkpt><trkpt lat="39.945365963870046" lon="9.185385539216245"><ele>844.0</ele><time>2026-05-03T09:01:28Z</time></trkpt><trkpt lat="39.94543239054568" lon="9.185507838333436"><ele>844.0</ele><time>2026-05-03T09:01:29Z</time></trkpt><trkpt lat="39.94549445090064" lon="9.185622766234662"><ele>844.4000000000001</ele><time>2026-05-03T09:01:30Z</time></trkpt><trkpt lat="39.94556389682279" lon="9.185722265402006"><ele>844.8</ele><time>2026-05-03T09:01:31Z</time></trkpt><trkpt lat="39.945644056890615" lon="9.185802604450526"><ele>845.2</ele><time>2026-05-03T09:01:32Z</time></trkpt><trkpt lat="39.94573433796861" lon="9.185869741004499"><ele>845.5999999999999</ele><time>2026-05-03T09:01:33Z</time></trkpt><trkpt lat="39.94583151250862" lon="9.18590755933618"><ele>846.0</ele><time>2026-05-03T09:01:34Z</time></trkpt><trkpt lat="39.94593691033124" lon="9.185911759794948"><ele>846.0</ele><time>2026-05-03T09:01:35Z</time></trkpt><trkpt lat="39.94604472753423" lon="9.185898976481928"><ele>846.0</ele><time>2026-05-03T09:01:36Z</time></trkpt><trkpt lat="39.94614871654553" lon="9.1858908104289"><ele>846.0</ele><time>2026-05-03T09:01:37Z</time></trkpt><trkpt lat="39.94624581205927" lon="9.185917290252497"><ele>846.0</ele><time>2026-05-03T09:01:38Z</time></trkpt><trkpt lat="39.94634092988513" lon="9.185964114307634"><ele>846.0</ele><time>2026-05-03T09:01:39Z</time></trkpt><trkpt lat="39.94642618854467" lon="9.186024006731664"><ele>846.0</ele><time>2026-05-03T09:01:40Z</time></trkpt><trkpt lat="39.94649859212392" lon="9.186096589925915"><ele>846.0</ele><time>2026-05-03T09:01:41Z</time></trkpt><trkpt lat="39.946578719370905" lon="9.186165673477428"><ele>846.0</ele><time>2026-05-03T09:01:42Z</time></trkpt><trkpt lat="39.946671029176066" lon="9.186200046584759"><ele>846.0</ele><time>2026-05-03T09:01:43Z</time></trkpt><trkpt lat="39.94676739204866" lon="9.186202574928744"><ele>846.0</ele><time>2026-05-03T09:01:44Z</time></trkpt><trkpt lat="39.94685866131671" lon="9.186196288765624"><ele>845.5</ele><time>2026-05-03T09:01:45Z</time></trkpt><trkpt lat="39.94694083552269" lon="9.186155360045689"><ele>845.0</ele><time>2026-05-03T09:01:46Z</time></trkpt><trkpt lat="39.94701502016909" lon="9.186113407817002"><ele>844.5</ele><time>2026-05-03T09:01:47Z</time></trkpt><trkpt lat="39.9470849321784" lon="9.186073290781103"><ele>844.0</ele><time>2026-05-03T09:01:48Z</time></trkpt><trkpt lat="39.947154656685456" lon="9.18604240354477"><ele>843.5</ele><time>2026-05-03T09:01:49Z</time></trkpt><trkpt lat="39.9472300874716" lon="9.186020513829282"><ele>843.0</ele><time>2026-05-03T09:01:50Z</time></trkpt><trkpt lat="39.947301912708305" lon="9.186000083972935"><ele>843.0</ele><time>2026-05-03T09:01:51Z</time></trkpt><trkpt lat="39.94738559683552" lon="9.18598298786"><ele>843.0</ele><time>2026-05-03T09:01:52Z</time></trkpt><trkpt lat="39.94747986315142" lon="9.185991258874237"><ele>843.0</ele><time>2026-05-03T09:01:53Z</time></trkpt><trkpt lat="39.947559680783286" lon="9.18603871173255"><ele>843.0</ele><time>2026-05-03T09:01:54Z</time></trkpt><trkpt lat="39.94761253988931" lon="9.186116501012261"><ele>843.0</ele><time>2026-05-03T09:01:55Z</time></trkpt><trkpt lat="39.947638938740184" lon="9.186212048875294"><ele>843.0</ele><time>2026-05-03T09:01:56Z</time></trkpt><trkpt lat="39.9476467153237" lon="9.18631817589456"><ele>842.3333333333334</ele><time>2026-05-03T09:01:57Z</time></trkpt><trkpt lat="39.947655129362296" lon="9.18641709221618"><ele>841.6666666666667</ele><time>2026-05-03T09:01:58Z</time></trkpt><trkpt lat="39.947669204109424" lon="9.186504844326276"><ele>841.0</ele><time>2026-05-03T09:01:59Z</time></trkpt><trkpt lat="39.94769464367564" lon="9.186580821087073"><ele>840.3333333333334</ele><time>2026-05-03T09:02:00Z</time></trkpt><trkpt lat="39.94774483266057" lon="9.186668119895794"><ele>839.6666666666667</ele><time>2026-05-03T09:02:01Z</time></trkpt><trkpt lat="39.947829019424894" lon="9.186767160449659"><ele>839.0</ele><time>2026-05-03T09:02:02Z</time></trkpt><trkpt lat="39.947944751982206" lon="9.186876817062945"><ele>839.0</ele><time>2026-05-03T09:02:03Z</time></trkpt><trkpt lat="39.94806686081343" lon="9.18697209350009"><ele>839.0</ele><time>2026-05-03T09:02:04Z</time></trkpt><trkpt lat="39.94817848213751" lon="9.187053338318819"><ele>839.0</ele><time>2026-05-03T09:02:05Z</time></trkpt><trkpt lat="39.94828537764114" lon="9.187133478958154"><ele>839.0</ele><time>2026-05-03T09:02:06Z</time></trkpt><trkpt lat="39.94839898474353" lon="9.187216235759498"><ele>838.25</ele><time>2026-05-03T09:02:07Z</time></trkpt><trkpt lat="39.94850367183121" lon="9.187298881600848"><ele>837.5</ele><time>2026-05-03T09:02:08Z</time></trkpt><trkpt lat="39.948599283026134" lon="9.187381493596476"><ele>836.75</ele><time>2026-05-03T09:02:09Z</time></trkpt><trkpt lat="39.94869411179484" lon="9.187459438820557"><ele>836.0</ele><time>2026-05-03T09:02:10Z</time></trkpt><trkpt lat="39.94877941274333" lon="9.187539590551484"><ele>836.0</ele><time>2026-05-03T09:02:11Z</time></trkpt><trkpt lat="39.94885987344087" lon="9.187619840725795"><ele>836.0</ele><time>2026-05-03T09:02:12Z</time></trkpt><trkpt lat="39.948934639727405" lon="9.187708779505014"><ele>836.0</ele><time>2026-05-03T09:02:13Z</time></trkpt><trkpt lat="39.949004237122004" lon="9.187830924532795"><ele>836.0</ele><time>2026-05-03T09:02:14Z</time></trkpt><trkpt lat="39.94905733159194" lon="9.187950737763806"><ele>836.0</ele><time>2026-05-03T09:02:15Z</time></trkpt><trkpt lat="39.94908735829577" lon="9.188080647982245"><ele>837.4</ele><time>2026-05-03T09:02:16Z</time></trkpt><trkpt lat="39.949150913957574" lon="9.188184909420388"><ele>838.8</ele><time>2026-05-03T09:02:17Z</time></trkpt><trkpt lat="39.949193190987245" lon="9.188298377275775"><ele>840.1999999999999</ele><time>2026-05-03T09:02:18Z</time></trkpt><trkpt lat="39.949240770123374" lon="9.18841457811768"><ele>841.5999999999999</ele><time>2026-05-03T09:02:19Z</time></trkpt><trkpt lat="39.94928317227103" lon="9.188539541140935"><ele>843.0</ele><time>2026-05-03T09:02:20Z</time></trkpt><trkpt lat="39.94931505230025" lon="9.188676098411847"><ele>840.2</ele><time>2026-05-03T09:02:21Z</time></trkpt><trkpt lat="39.949340126402944" lon="9.188814087044985"><ele>837.4</ele><time>2026-05-03T09:02:22Z</time></trkpt><trkpt lat="39.94935066271767" lon="9.188963994344109"><ele>834.6</ele><time>2026-05-03T09:02:23Z</time></trkpt><trkpt lat="39.949379471160825" lon="9.189103072079687"><ele>831.8000000000001</ele><time>2026-05-03T09:02:24Z</time></trkpt><trkpt lat="39.94941760486489" lon="9.1892235277765"><ele>829.0</ele><time>2026-05-03T09:02:25Z</time></trkpt><trkpt lat="39.94947397257583" lon="9.189344199668051"><ele>829.0</ele><time>2026-05-03T09:02:26Z</time></trkpt><trkpt lat="39.949544728691585" lon="9.189463622853113"><ele>829.0</ele><time>2026-05-03T09:02:27Z</time></trkpt><trkpt lat="39.94962841602865" lon="9.18958992850612"><ele>829.0</ele><time>2026-05-03T09:02:28Z</time></trkpt><trkpt lat="39.94972413958783" lon="9.18972780928603"><ele>829.0</ele><time>2026-05-03T09:02:29Z</time></trkpt><trkpt lat="39.94982646024089" lon="9.189872211885243"><ele>831.0</ele><time>2026-05-03T09:02:30Z</time></trkpt><trkpt lat="39.949935643064606" lon="9.190017673567294"><ele>833.0</ele><time>2026-05-03T09:02:31Z</time></trkpt><trkpt lat="39.95006591957399" lon="9.190156237198808"><ele>835.0</ele><time>2026-05-03T09:02:32Z</time></trkpt><trkpt lat="39.95021258814909" lon="9.190251839557943"><ele>833.3333333333333</ele><time>2026-05-03T09:02:33Z</time></trkpt><trkpt lat="39.95032623704575" lon="9.190379839826178"><ele>831.6666666666667</ele><time>2026-05-03T09:02:34Z</time></trkpt><trkpt lat="39.95041430272239" lon="9.190534697255611"><ele>830.0</ele><time>2026-05-03T09:02:35Z</time></trkpt><trkpt lat="39.95048394230213" lon="9.190732291225784"><ele>830.0</ele><time>2026-05-03T09:02:36Z</time></trkpt><trkpt lat="39.950553561801115" lon="9.190913022742206"><ele>830.0</ele><time>2026-05-03T09:02:37Z</time></trkpt><trkpt lat="39.95066318211395" lon="9.19105897855445"><ele>830.0</ele><time>2026-05-03T09:02:38Z</time></trkpt><trkpt lat="39.95079391155874" lon="9.191199148794322"><ele>827.6666666666667</ele><time>2026-05-03T09:02:39Z</time></trkpt><trkpt lat="39.9509156946555" lon="9.191335035664235"><ele>825.3333333333333</ele><time>2026-05-03T09:02:40Z</time></trkpt><trkpt lat="39.95103351326122" lon="9.191463210887251"><ele>823.0</ele><time>2026-05-03T09:02:41Z</time></trkpt><trkpt lat="39.95115555257566" lon="9.19159239343929"><ele>823.0</ele><time>2026-05-03T09:02:42Z</time></trkpt><trkpt lat="39.95128277136697" lon="9.1917183642281"><ele>823.0</ele><time>2026-05-03T09:02:43Z</time></trkpt><trkpt lat="39.95140610409937" lon="9.191835188272918"><ele>823.0</ele><time>2026-05-03T09:02:44Z</time></trkpt><trkpt lat="39.95153354485599" lon="9.191944798129697"><ele>823.0</ele><time>2026-05-03T09:02:45Z</time></trkpt><trkpt lat="39.95164921407953" lon="9.19205744920553"><ele>823.0</ele><time>2026-05-03T09:02:46Z</time></trkpt><trkpt lat="39.9517443918798" lon="9.192188769365679"><ele>823.0</ele><time>2026-05-03T09:02:47Z</time></trkpt><trkpt lat="39.951824951773425" lon="9.192346881747202"><ele>823.0</ele><time>2026-05-03T09:02:48Z</time></trkpt><trkpt lat="39.9519009808102" lon="9.19250920569088"><ele>819.5</ele><time>2026-05-03T09:02:49Z</time></trkpt><trkpt lat="39.95197165270334" lon="9.192670607078748"><ele>816.0</ele><time>2026-05-03T09:02:50Z</time></trkpt><trkpt lat="39.95205718183661" lon="9.192794447350154"><ele>812.5</ele><time>2026-05-03T09:02:51Z</time></trkpt><trkpt lat="39.95212429636611" lon="9.192932697069747"><ele>809.0</ele><time>2026-05-03T09:02:52Z</time></trkpt><trkpt lat="39.95216224480075" lon="9.19308219721"><ele>809.75</ele><time>2026-05-03T09:02:53Z</time></trkpt><trkpt lat="39.9521743144044" lon="9.193247707389247"><ele>810.5</ele><time>2026-05-03T09:02:54Z</time></trkpt><trkpt lat="39.952181546904136" lon="9.193422444120833"><ele>811.25</ele><time>2026-05-03T09:02:55Z</time></trkpt><trkpt lat="39.952194042627646" lon="9.193609070464817"><ele>812.0</ele><time>2026-05-03T09:02:56Z</time></trkpt><trkpt lat="39.95221729354754" lon="9.193791069265403"><ele>812.0</ele><time>2026-05-03T09:02:57Z</time></trkpt><trkpt lat="39.95224495812328" lon="9.193968660432956"><ele>812.0</ele><time>2026-05-03T09:02:58Z</time></trkpt><trkpt lat="39.95226161082744" lon="9.19414672479242"><ele>812.0</ele><time>2026-05-03T09:02:59Z</time></trkpt><trkpt lat="39.95226078194862" lon="9.194323217139196"><ele>812.0</ele><time>2026-05-03T09:03:00Z</time></trkpt><trkpt lat="39.95225215974519" lon="9.194488795031752"><ele>812.25</ele><time>2026-05-03T09:03:01Z</time></trkpt><trkpt lat="39.952261380075385" lon="9.194644867642744"><ele>812.5</ele><time>2026-05-03T09:03:02Z</time></trkpt><trkpt lat="39.95230330730382" lon="9.194774431087351"><ele>812.75</ele><time>2026-05-03T09:03:03Z</time></trkpt><trkpt lat="39.95237981482603" lon="9.19486878868501"><ele>813.0</ele><time>2026-05-03T09:03:04Z</time></trkpt><trkpt lat="39.95248403220869" lon="9.19493665541332"><ele>809.25</ele><time>2026-05-03T09:03:05Z</time></trkpt><trkpt lat="39.952590820382284" lon="9.195012897875522"><ele>805.5</ele><time>2026-05-03T09:03:06Z</time></trkpt><trkpt lat="39.95269784623818" lon="9.19511922768304"><ele>801.75</ele><time>2026-05-03T09:03:07.001Z</time></trkpt><trkpt lat="39.95278562033827" lon="9.195245415087626"><ele>798.0</ele><time>2026-05-03T09:03:08.001Z</time></trkpt><trkpt lat="39.95284359786833" lon="9.195381686871048"><ele>798.0</ele><time>2026-05-03T09:03:09.001Z</time></trkpt><trkpt lat="39.95286612576226" lon="9.195527643779076"><ele>798.0</ele><time>2026-05-03T09:03:10.001Z</time></trkpt><trkpt lat="39.952856129510025" lon="9.195671555691801"><ele>798.0</ele><time>2026-05-03T09:03:11.001Z</time></trkpt><trkpt lat="39.95280290563306" lon="9.195812130329564"><ele>798.0</ele><time>2026-05-03T09:03:12.001Z</time></trkpt><trkpt lat="39.95278327516324" lon="9.19595906486626"><ele>798.5999999999999</ele><time>2026-05-03T09:03:13.001Z</time></trkpt><trkpt lat="39.95282224692259" lon="9.196100217197177"><ele>799.1999999999999</ele><time>2026-05-03T09:03:14.001Z</time></trkpt><trkpt lat="39.9528674483744" lon="9.196220387655574"><ele>799.8</ele><time>2026-05-03T09:03:15.001Z</time></trkpt><trkpt lat="39.95292407254579" lon="9.196345434717573"><ele>800.4</ele><time>2026-05-03T09:03:16.001Z</time></trkpt><trkpt lat="39.95294527173963" lon="9.19649025169839"><ele>801.0</ele><time>2026-05-03T09:03:17Z</time></trkpt><trkpt lat="39.952942004643575" lon="9.196627204901242"><ele>801.5999999999999</ele><time>2026-05-03T09:03:18Z</time></trkpt><trkpt lat="39.95291340204252" lon="9.196756593474047"><ele>802.2</ele><time>2026-05-03T09:03:19Z</time></trkpt><trkpt lat="39.95290478937731" lon="9.196877398079849"><ele>802.8</ele><time>2026-05-03T09:03:20Z</time></trkpt><trkpt lat="39.952913423708544" lon="9.196982368236492"><ele>803.4000000000001</ele><time>2026-05-03T09:03:21Z</time></trkpt><trkpt lat="39.95296017898187" lon="9.197079536626537"><ele>804.0</ele><time>2026-05-03T09:03:22Z</time></trkpt><trkpt lat="39.95303471434101" lon="9.197153689939201"><ele>804.0</ele><time>2026-05-03T09:03:23Z</time></trkpt><trkpt lat="39.953128104887284" lon="9.19719687456206"><ele>804.0</ele><time>2026-05-03T09:03:24Z</time></trkpt><trkpt lat="39.95321258532995" lon="9.19726408770344"><ele>804.0</ele><time>2026-05-03T09:03:25Z</time></trkpt><trkpt lat="39.95330018222864" lon="9.197338103589518"><ele>804.0</ele><time>2026-05-03T09:03:26Z</time></trkpt><trkpt lat="39.95337145585397" lon="9.197432313119373"><ele>804.0</ele><time>2026-05-03T09:03:27Z</time></trkpt><trkpt lat="39.953444812712526" lon="9.197520208394627"><ele>803.6</ele><time>2026-05-03T09:03:28Z</time></trkpt><trkpt lat="39.95352350794452" lon="9.197615099032989"><ele>803.2</ele><time>2026-05-03T09:03:29Z</time></trkpt><trkpt lat="39.953605928774515" lon="9.19771431640175"><ele>802.8000000000001</ele><time>2026-05-03T09:03:30Z</time></trkpt><trkpt lat="39.95369230797998" lon="9.197811248674311"><ele>802.4000000000001</ele><time>2026-05-03T09:03:31Z</time></trkpt><trkpt lat="39.95377357297714" lon="9.197898673596574"><ele>802.0</ele><time>2026-05-03T09:03:32Z</time></trkpt><trkpt lat="39.953849161911705" lon="9.197979630298368"><ele>802.0</ele><time>2026-05-03T09:03:33Z</time></trkpt><trkpt lat="39.95392325981926" lon="9.198060550998118"><ele>802.0</ele><time>2026-05-03T09:03:34Z</time></trkpt><trkpt lat="39.95398827053096" lon="9.198148317610064"><ele>802.0</ele><time>2026-05-03T09:03:35Z</time></trkpt><trkpt lat="39.954038334772754" lon="9.198247068542123"><ele>802.0</ele><time>2026-05-03T09:03:36Z</time></trkpt><trkpt lat="39.954086917425705" lon="9.198351859213327"><ele>802.0</ele><time>2026-05-03T09:03:37Z</time></trkpt><trkpt lat="39.95414184069197" lon="9.19844402109256"><ele>803.8333333333333</ele><time>2026-05-03T09:03:38Z</time></trkpt><trkpt lat="39.95418996309153" lon="9.198531208926752"><ele>805.6666666666666</ele><time>2026-05-03T09:03:39Z</time></trkpt><trkpt lat="39.95424538389397" lon="9.198599514536754"><ele>807.5</ele><time>2026-05-03T09:03:40Z</time></trkpt><trkpt lat="39.95432359762547" lon="9.198583708854112"><ele>809.3333333333333</ele><time>2026-05-03T09:03:41Z</time></trkpt><trkpt lat="39.9543864155971" lon="9.198558590085076"><ele>811.1666666666666</ele><time>2026-05-03T09:03:42Z</time></trkpt><trkpt lat="39.95449356702417" lon="9.198467028125881"><ele>813.0</ele><time>2026-05-03T09:03:44Z</time></trkpt><trkpt lat="39.95455231006114" lon="9.198414885822558"><ele>812.8</ele><time>2026-05-03T09:03:45Z</time></trkpt><trkpt lat="39.95459130292947" lon="9.198300742826731"><ele>812.5999999999999</ele><time>2026-05-03T09:03:46Z</time></trkpt><trkpt lat="39.95462951994417" lon="9.198188018128223"><ele>812.4000000000001</ele><time>2026-05-03T09:03:47Z</time></trkpt><trkpt lat="39.954676163753426" lon="9.198064788512742"><ele>812.2</ele><time>2026-05-03T09:03:48Z</time></trkpt><trkpt lat="39.954721652053315" lon="9.197950264946877"><ele>812.0</ele><time>2026-05-03T09:03:49Z</time></trkpt><trkpt lat="39.95476364804792" lon="9.197850383417338"><ele>812.0000000000001</ele><time>2026-05-03T09:03:50Z</time></trkpt><trkpt lat="39.95480073046519" lon="9.19775845005772"><ele>812.0</ele><time>2026-05-03T09:03:51Z</time></trkpt><trkpt lat="39.95483937133069" lon="9.197665282544797"><ele>812.0</ele><time>2026-05-03T09:03:52Z</time></trkpt><trkpt lat="39.95488185261566" lon="9.197582552508612"><ele>812.0</ele><time>2026-05-03T09:03:53Z</time></trkpt><trkpt lat="39.95492840743687" lon="9.19749714223192"><ele>812.0000000000001</ele><time>2026-05-03T09:03:54Z</time></trkpt><trkpt lat="39.95498150944534" lon="9.197422764911858"><ele>812.0</ele><time>2026-05-03T09:03:55Z</time></trkpt><trkpt lat="39.95503099252594" lon="9.197354132904481"><ele>810.0000000000001</ele><time>2026-05-03T09:03:56Z</time></trkpt><trkpt lat="39.95507964170426" lon="9.197292497028352"><ele>808.0</ele><time>2026-05-03T09:03:57Z</time></trkpt><trkpt lat="39.95512687242001" lon="9.197233962193458"><ele>806.0</ele><time>2026-05-03T09:03:58Z</time></trkpt><trkpt lat="39.955162379781086" lon="9.197165939264359"><ele>804.0</ele><time>2026-05-03T09:03:59Z</time></trkpt><trkpt lat="39.95526854618847" lon="9.197093041276451"><ele>802.0000000000001</ele><time>2026-05-03T09:04:01Z</time></trkpt><trkpt lat="39.9553565889517" lon="9.197036468041011"><ele>800.0</ele><time>2026-05-03T09:04:03Z</time></trkpt><trkpt lat="39.95542205014725" lon="9.197028901513688"><ele>800.0</ele><time>2026-05-03T09:04:04Z</time></trkpt><trkpt lat="39.95549375402748" lon="9.197004878981007"><ele>800.0</ele><time>2026-05-03T09:04:05Z</time></trkpt><trkpt lat="39.95559496936121" lon="9.196970309178365"><ele>800.0</ele><time>2026-05-03T09:04:07Z</time></trkpt><trkpt lat="39.95570468251419" lon="9.196896302480361"><ele>800.0</ele><time>2026-05-03T09:04:09Z</time></trkpt><trkpt lat="39.9557871785075" lon="9.196783995324985"><ele>800.0</ele><time>2026-05-03T09:04:37.001Z</time></trkpt><trkpt lat="39.955843588378094" lon="9.196742100214538"><ele>800.4285714285714</ele><time>2026-05-03T09:04:38.001Z</time></trkpt><trkpt lat="39.95590528977668" lon="9.196722337868662"><ele>800.8571428571429</ele><time>2026-05-03T09:04:39.001Z</time></trkpt><trkpt lat="39.95595542421756" lon="9.196660834747297"><ele>801.2857142857142</ele><time>2026-05-03T09:04:40.001Z</time></trkpt><trkpt lat="39.9560212978535" lon="9.196612175868852"><ele>801.7142857142858</ele><time>2026-05-03T09:04:41.001Z</time></trkpt><trkpt lat="39.95608863835903" lon="9.196571033255267"><ele>802.1428571428571</ele><time>2026-05-03T09:04:42.001Z</time></trkpt><trkpt lat="39.9561687569178" lon="9.196560816612116"><ele>802.5714285714286</ele><time>2026-05-03T09:04:43.001Z</time></trkpt><trkpt lat="39.95624368551737" lon="9.196514691367295"><ele>803.0</ele><time>2026-05-03T09:04:44.001Z</time></trkpt><trkpt lat="39.956329591802096" lon="9.196495729372382"><ele>799.3333333333334</ele><time>2026-05-03T09:04:45.001Z</time></trkpt><trkpt lat="39.95640959747186" lon="9.196482295971265"><ele>795.6666666666667</ele><time>2026-05-03T09:04:46.001Z</time></trkpt><trkpt lat="39.956495774266834" lon="9.19647197006971"><ele>792.0</ele><time>2026-05-03T09:04:47.001Z</time></trkpt><trkpt lat="39.95658131861603" lon="9.196462051131874"><ele>788.3333333333333</ele><time>2026-05-03T09:04:48.001Z</time></trkpt><trkpt lat="39.95667233700247" lon="9.196443083782812"><ele>784.6666666666666</ele><time>2026-05-03T09:04:49.001Z</time></trkpt><trkpt lat="39.9567714683167" lon="9.196439767529405"><ele>781.0</ele><time>2026-05-03T09:04:50.001Z</time></trkpt><trkpt lat="39.956874274137384" lon="9.196445942529163"><ele>779.8</ele><time>2026-05-03T09:04:51.001Z</time></trkpt><trkpt lat="39.95696873222729" lon="9.196443857789587"><ele>778.5999999999999</ele><time>2026-05-03T09:04:52.001Z</time></trkpt><trkpt lat="39.95707128032205" lon="9.196445506978993"><ele>777.4</ele><time>2026-05-03T09:04:53.001Z</time></trkpt><trkpt lat="39.95717318044222" lon="9.196447306048599"><ele>776.2</ele><time>2026-05-03T09:04:54.001Z</time></trkpt><trkpt lat="39.9572716335011" lon="9.196452527986418"><ele>775.0</ele><time>2026-05-03T09:04:55.001Z</time></trkpt><trkpt lat="39.957367254048904" lon="9.196455202319472"><ele>775.0</ele><time>2026-05-03T09:04:56.001Z</time></trkpt><trkpt lat="39.95746039786416" lon="9.196467032832839"><ele>775.0</ele><time>2026-05-03T09:04:57.001Z</time></trkpt><trkpt lat="39.95755292063437" lon="9.196465122750821"><ele>775.0</ele><time>2026-05-03T09:04:58.001Z</time></trkpt><trkpt lat="39.957641962572126" lon="9.196478112602838"><ele>775.0</ele><time>2026-05-03T09:04:59.001Z</time></trkpt><trkpt lat="39.95772648655043" lon="9.196513842978607"><ele>775.0</ele><time>2026-05-03T09:05:00.001Z</time></trkpt><trkpt lat="39.9578137084929" lon="9.196568346933018"><ele>776.5</ele><time>2026-05-03T09:05:01.001Z</time></trkpt><trkpt lat="39.957898303467914" lon="9.196653983713905"><ele>778.0</ele><time>2026-05-03T09:05:02.001Z</time></trkpt><trkpt lat="39.95797950181796" lon="9.196749748905448"><ele>779.5</ele><time>2026-05-03T09:05:03.001Z</time></trkpt><trkpt lat="39.9580683018457" lon="9.196847237932984"><ele>781.0</ele><time>2026-05-03T09:05:04.001Z</time></trkpt><trkpt lat="39.958160035641455" lon="9.196946238447314"><ele>781.0</ele><time>2026-05-03T09:05:05.001Z</time></trkpt><trkpt lat="39.95824976874497" lon="9.1970436444334"><ele>781.0</ele><time>2026-05-03T09:05:06.001Z</time></trkpt><trkpt lat="39.958341051157184" lon="9.197138293110115"><ele>781.0</ele><time>2026-05-03T09:05:07.001Z</time></trkpt><trkpt lat="39.958424467977004" lon="9.197235431570093"><ele>781.0</ele><time>2026-05-03T09:05:08.001Z</time></trkpt><trkpt lat="39.95850085190314" lon="9.197334536802424"><ele>782.4</ele><time>2026-05-03T09:05:09.001Z</time></trkpt><trkpt lat="39.958582256981806" lon="9.197428695600061"><ele>783.8</ele><time>2026-05-03T09:05:10.001Z</time></trkpt><trkpt lat="39.958671206988505" lon="9.197499006502104"><ele>785.1999999999999</ele><time>2026-05-03T09:05:11.001Z</time></trkpt><trkpt lat="39.95877381551308" lon="9.197535179746781"><ele>786.5999999999999</ele><time>2026-05-03T09:05:12.001Z</time></trkpt><trkpt lat="39.9588658846384" lon="9.197534257355263"><ele>788.0</ele><time>2026-05-03T09:05:13.001Z</time></trkpt><trkpt lat="39.95895075596335" lon="9.197491338164602"><ele>788.0</ele><time>2026-05-03T09:05:14.001Z</time></trkpt><trkpt lat="39.95903036867402" lon="9.197422545389125"><ele>788.0</ele><time>2026-05-03T09:05:15.001Z</time></trkpt><trkpt lat="39.95910751013937" lon="9.197332313333442"><ele>788.0</ele><time>2026-05-03T09:05:16.001Z</time></trkpt><trkpt lat="39.95918228474898" lon="9.197235993303925"><ele>788.0</ele><time>2026-05-03T09:05:17.001Z</time></trkpt><trkpt lat="39.95926088955213" lon="9.19712355126338"><ele>788.0</ele><time>2026-05-03T09:05:18.001Z</time></trkpt><trkpt lat="39.95933311321841" lon="9.197007247144258"><ele>790.5</ele><time>2026-05-03T09:05:19.001Z</time></trkpt><trkpt lat="39.95940195376093" lon="9.196886757949281"><ele>793.0</ele><time>2026-05-03T09:05:20.001Z</time></trkpt><trkpt lat="39.95947232750965" lon="9.196765211744344"><ele>795.5</ele><time>2026-05-03T09:05:21.001Z</time></trkpt><trkpt lat="39.95954275265777" lon="9.19664588977331"><ele>798.0</ele><time>2026-05-03T09:05:22.001Z</time></trkpt><trkpt lat="39.9596130385387" lon="9.196525935829568"><ele>795.5999999999999</ele><time>2026-05-03T09:05:23.001Z</time></trkpt><trkpt lat="39.95967213057117" lon="9.196400228635579"><ele>793.1999999999999</ele><time>2026-05-03T09:05:24.001Z</time></trkpt><trkpt lat="39.95971153067657" lon="9.196260158757083"><ele>790.8</ele><time>2026-05-03T09:05:25.001Z</time></trkpt><trkpt lat="39.959722541747105" lon="9.196117175109585"><ele>788.4</ele><time>2026-05-03T09:05:26.001Z</time></trkpt><trkpt lat="39.95970714361295" lon="9.195978673632222"><ele>786.0</ele><time>2026-05-03T09:05:27.001Z</time></trkpt><trkpt lat="39.95966721304158" lon="9.195839338356123"><ele>786.0</ele><time>2026-05-03T09:05:28.001Z</time></trkpt><trkpt lat="39.95960257797068" lon="9.195704026728118"><ele>786.0</ele><time>2026-05-03T09:05:29.001Z</time></trkpt><trkpt lat="39.95951752137077" lon="9.195575186545689"><ele>786.0</ele><time>2026-05-03T09:05:30.001Z</time></trkpt><trkpt lat="39.9594265113506" lon="9.195445158794492"><ele>786.0</ele><time>2026-05-03T09:05:31.001Z</time></trkpt><trkpt lat="39.95934013864345" lon="9.195315956007134"><ele>787.0</ele><time>2026-05-03T09:05:32.001Z</time></trkpt><trkpt lat="39.95925771233367" lon="9.195182646041848"><ele>788.0</ele><time>2026-05-03T09:05:33.001Z</time></trkpt><trkpt lat="39.95918528198723" lon="9.195036269691165"><ele>789.0</ele><time>2026-05-03T09:05:34.001Z</time></trkpt><trkpt lat="39.95911244991098" lon="9.194882778071293"><ele>790.0</ele><time>2026-05-03T09:05:35.001Z</time></trkpt><trkpt lat="39.95903060632962" lon="9.194742424440228"><ele>788.0</ele><time>2026-05-03T09:05:36.001Z</time></trkpt><trkpt lat="39.958936055189014" lon="9.194609159054222"><ele>786.0</ele><time>2026-05-03T09:05:37.001Z</time></trkpt><trkpt lat="39.95882930006353" lon="9.194482429286685"><ele>784.0</ele><time>2026-05-03T09:05:38.001Z</time></trkpt><trkpt lat="39.95872207020406" lon="9.194357218039869"><ele>782.0</ele><time>2026-05-03T09:05:39.001Z</time></trkpt><trkpt lat="39.958618733117454" lon="9.194235386005998"><ele>782.0</ele><time>2026-05-03T09:05:40.001Z</time></trkpt><trkpt lat="39.95851844424662" lon="9.194126283042953"><ele>782.0</ele><time>2026-05-03T09:05:41.001Z</time></trkpt><trkpt lat="39.9584108737713" lon="9.194010402160334"><ele>782.0</ele><time>2026-05-03T09:05:42.001Z</time></trkpt><trkpt lat="39.95829836811091" lon="9.193881227147994"><ele>782.0</ele><time>2026-05-03T09:05:43Z</time></trkpt><trkpt lat="39.95819053185784" lon="9.19375865333028"><ele>779.75</ele><time>2026-05-03T09:05:44Z</time></trkpt><trkpt lat="39.95808307312281" lon="9.1936452448059"><ele>777.5</ele><time>2026-05-03T09:05:45Z</time></trkpt><trkpt lat="39.95797587834837" lon="9.193538906166985"><ele>775.25</ele><time>2026-05-03T09:05:46Z</time></trkpt><trkpt lat="39.957871218977026" lon="9.19343933554174"><ele>773.0</ele><time>2026-05-03T09:05:47Z</time></trkpt><trkpt lat="39.95776564101848" lon="9.193343347256857"><ele>773.0</ele><time>2026-05-03T09:05:48Z</time></trkpt><trkpt lat="39.957670326641676" lon="9.193233333082745"><ele>773.0</ele><time>2026-05-03T09:05:49Z</time></trkpt><trkpt lat="39.95759000230215" lon="9.19311131603234"><ele>773.0</ele><time>2026-05-03T09:05:50Z</time></trkpt><trkpt lat="39.95752562124643" lon="9.192982433935235"><ele>773.0</ele><time>2026-05-03T09:05:51Z</time></trkpt><trkpt lat="39.95747656604038" lon="9.192849215277818"><ele>770.5999999999999</ele><time>2026-05-03T09:05:52Z</time></trkpt><trkpt lat="39.95743338105569" lon="9.192713961611512"><ele>768.1999999999999</ele><time>2026-05-03T09:05:53Z</time></trkpt><trkpt lat="39.95739362430084" lon="9.19257884940385"><ele>765.8</ele><time>2026-05-03T09:05:54Z</time></trkpt><trkpt lat="39.957351241743524" lon="9.19244574838225"><ele>763.4</ele><time>2026-05-03T09:05:55Z</time></trkpt><trkpt lat="39.95730821210783" lon="9.19231652147451"><ele>761.0</ele><time>2026-05-03T09:05:56Z</time></trkpt><trkpt lat="39.95726185494233" lon="9.192191449032196"><ele>761.0</ele><time>2026-05-03T09:05:57Z</time></trkpt><trkpt lat="39.95721208001448" lon="9.192069025617995"><ele>761.0</ele><time>2026-05-03T09:05:58Z</time></trkpt><trkpt lat="39.957151280665336" lon="9.191960209470905"><ele>761.0</ele><time>2026-05-03T09:05:59Z</time></trkpt><trkpt lat="39.957075817874106" lon="9.191876136895052"><ele>761.0</ele><time>2026-05-03T09:06:00Z</time></trkpt><trkpt lat="39.95699026562815" lon="9.191804592624626"><ele>761.0</ele><time>2026-05-03T09:06:01Z</time></trkpt><trkpt lat="39.95689499343144" lon="9.191742416998519"><ele>761.0</ele><time>2026-05-03T09:06:02Z</time></trkpt><trkpt lat="39.95680462494133" lon="9.191686208902444"><ele>761.0</ele><time>2026-05-03T09:06:03Z</time></trkpt><trkpt lat="39.956720691947126" lon="9.191627568158323"><ele>761.0</ele><time>2026-05-03T09:06:04Z</time></trkpt><trkpt lat="39.95665357189359" lon="9.19154329354533"><ele>761.0</ele><time>2026-05-03T09:06:05Z</time></trkpt><trkpt lat="39.95661278023262" lon="9.191429067893816"><ele>761.0</ele><time>2026-05-03T09:06:06Z</time></trkpt><trkpt lat="39.95659897569741" lon="9.191306761827102"><ele>756.5999999999999</ele><time>2026-05-03T09:06:07Z</time></trkpt><trkpt lat="39.95661282797799" lon="9.191178881424158"><ele>752.2</ele><time>2026-05-03T09:06:08Z</time></trkpt><trkpt lat="39.956641763956306" lon="9.191057500576154"><ele>747.8</ele><time>2026-05-03T09:06:09Z</time></trkpt><trkpt lat="39.956672829802706" lon="9.190933152428743"><ele>743.4000000000001</ele><time>2026-05-03T09:06:10Z</time></trkpt><trkpt lat="39.95668281135387" lon="9.19080428808329"><ele>739.0</ele><time>2026-05-03T09:06:11Z</time></trkpt><trkpt lat="39.95665257884436" lon="9.190680836242919"><ele>740.0</ele><time>2026-05-03T09:06:12Z</time></trkpt><trkpt lat="39.956588492432566" lon="9.190569721478221"><ele>741.0</ele><time>2026-05-03T09:06:13Z</time></trkpt><trkpt lat="39.956522096301235" lon="9.190464397682545"><ele>742.0</ele><time>2026-05-03T09:06:14Z</time></trkpt><trkpt lat="39.95649019130738" lon="9.190339250895844"><ele>743.0</ele><time>2026-05-03T09:06:15Z</time></trkpt><trkpt lat="39.956483529181" lon="9.190204540899158"><ele>744.0</ele><time>2026-05-03T09:06:16Z</time></trkpt><trkpt lat="39.95646008013103" lon="9.19005067376705"><ele>744.0</ele><time>2026-05-03T09:06:17Z</time></trkpt><trkpt lat="39.95642476025285" lon="9.189909784885948"><ele>744.0</ele><time>2026-05-03T09:06:18Z</time></trkpt><trkpt lat="39.95638859610747" lon="9.189773535752296"><ele>744.0</ele><time>2026-05-03T09:06:19Z</time></trkpt><trkpt lat="39.95635666272145" lon="9.189634125277212"><ele>744.0</ele><time>2026-05-03T09:06:20Z</time></trkpt><trkpt lat="39.95633605772645" lon="9.189489124190676"><ele>744.0</ele><time>2026-05-03T09:06:21Z</time></trkpt><trkpt lat="39.95633042945552" lon="9.18934573136129"><ele>744.0</ele><time>2026-05-03T09:06:22Z</time></trkpt><trkpt lat="39.956328249782466" lon="9.189206274647299"><ele>744.0</ele><time>2026-05-03T09:06:23Z</time></trkpt><trkpt lat="39.956330072355826" lon="9.189069684040726"><ele>744.0</ele><time>2026-05-03T09:06:24Z</time></trkpt><trkpt lat="39.95632857746936" lon="9.188936169558476"><ele>744.0</ele><time>2026-05-03T09:06:25Z</time></trkpt><trkpt lat="39.95632308046424" lon="9.188798259086001"><ele>744.0</ele><time>2026-05-03T09:06:26Z</time></trkpt><trkpt lat="39.95631472700015" lon="9.188650261114642"><ele>744.0</ele><time>2026-05-03T09:06:27Z</time></trkpt><trkpt lat="39.95630123864591" lon="9.188480401473369"><ele>744.0</ele><time>2026-05-03T09:06:28Z</time></trkpt><trkpt lat="39.95628533438229" lon="9.188311375207771"><ele>744.0</ele><time>2026-05-03T09:06:29Z</time></trkpt><trkpt lat="39.956263136769195" lon="9.188136192764253"><ele>744.0</ele><time>2026-05-03T09:06:30Z</time></trkpt><trkpt lat="39.95622948876766" lon="9.187954029942842"><ele>744.0</ele><time>2026-05-03T09:06:31Z</time></trkpt><trkpt lat="39.95618750997538" lon="9.18777610251019"><ele>744.0</ele><time>2026-05-03T09:06:32Z</time></trkpt><trkpt lat="39.95613730526111" lon="9.187598576330712"><ele>744.0</ele><time>2026-05-03T09:06:33Z</time></trkpt><trkpt lat="39.95608643614655" lon="9.187431320836325"><ele>744.0</ele><time>2026-05-03T09:06:34Z</time></trkpt><trkpt lat="39.95604540376206" lon="9.187259968431999"><ele>743.5</ele><time>2026-05-03T09:06:35Z</time></trkpt><trkpt lat="39.9560237771219" lon="9.187085383235368"><ele>743.0</ele><time>2026-05-03T09:06:36Z</time></trkpt><trkpt lat="39.956022195494675" lon="9.18691489966352"><ele>742.5</ele><time>2026-05-03T09:06:37Z</time></trkpt><trkpt lat="39.95604743014014" lon="9.186739926349924"><ele>742.0</ele><time>2026-05-03T09:06:38Z</time></trkpt><trkpt lat="39.956091041114846" lon="9.18656530515329"><ele>741.5</ele><time>2026-05-03T09:06:39Z</time></trkpt><trkpt lat="39.956139625991746" lon="9.186399555771786"><ele>741.0</ele><time>2026-05-03T09:06:40Z</time></trkpt><trkpt lat="39.95616697048929" lon="9.186234701942205"><ele>740.5</ele><time>2026-05-03T09:06:41Z</time></trkpt><trkpt lat="39.95616646909944" lon="9.186078688255247"><ele>740.0</ele><time>2026-05-03T09:06:42Z</time></trkpt><trkpt lat="39.95612819273079" lon="9.185920739976925"><ele>740.0</ele><time>2026-05-03T09:06:43Z</time></trkpt><trkpt lat="39.95607433451803" lon="9.185767195205068"><ele>740.0</ele><time>2026-05-03T09:06:44Z</time></trkpt><trkpt lat="39.95603649168211" lon="9.185601908470483"><ele>740.0</ele><time>2026-05-03T09:06:45Z</time></trkpt><trkpt lat="39.95601924056612" lon="9.185404486561582"><ele>740.0</ele><time>2026-05-03T09:06:46Z</time></trkpt><trkpt lat="39.95600767512661" lon="9.185211956684832"><ele>738.25</ele><time>2026-05-03T09:06:47Z</time></trkpt><trkpt lat="39.9559823396914" lon="9.185014481465705"><ele>736.5</ele><time>2026-05-03T09:06:48Z</time></trkpt><trkpt lat="39.95595708084558" lon="9.184831749390304"><ele>734.75</ele><time>2026-05-03T09:06:49Z</time></trkpt><trkpt lat="39.955952413521146" lon="9.184658486490646"><ele>733.0</ele><time>2026-05-03T09:06:50Z</time></trkpt><trkpt lat="39.95597997620518" lon="9.18449427208861"><ele>729.5</ele><time>2026-05-03T09:06:51Z</time></trkpt><trkpt lat="39.95603321640251" lon="9.184340128414943"><ele>726.0</ele><time>2026-05-03T09:06:52Z</time></trkpt><trkpt lat="39.95611156685341" lon="9.184198594474218"><ele>722.5</ele><time>2026-05-03T09:06:53Z</time></trkpt><trkpt lat="39.95621245855794" lon="9.184090610765484"><ele>719.0</ele><time>2026-05-03T09:06:54Z</time></trkpt><trkpt lat="39.95632608176601" lon="9.18399970942724"><ele>716.0</ele><time>2026-05-03T09:06:55Z</time></trkpt><trkpt lat="39.95642294672753" lon="9.183886167748755"><ele>713.0</ele><time>2026-05-03T09:06:56Z</time></trkpt><trkpt lat="39.956492848982805" lon="9.183744597002256"><ele>710.0</ele><time>2026-05-03T09:06:57Z</time></trkpt><trkpt lat="39.95653717669122" lon="9.183579283711648"><ele>707.0</ele><time>2026-05-03T09:06:58Z</time></trkpt><trkpt lat="39.95655702237243" lon="9.183399590123734"><ele>707.0</ele><time>2026-05-03T09:06:59Z</time></trkpt><trkpt lat="39.95655316214469" lon="9.183212290929045"><ele>707.0</ele><time>2026-05-03T09:07:00Z</time></trkpt><trkpt lat="39.95652951724161" lon="9.18303231648216"><ele>707.0</ele><time>2026-05-03T09:07:01Z</time></trkpt><trkpt lat="39.95648949686576" lon="9.182868497943968"><ele>707.0</ele><time>2026-05-03T09:07:02Z</time></trkpt><trkpt lat="39.956461943434384" lon="9.182724554021709"><ele>705.0</ele><time>2026-05-03T09:07:03Z</time></trkpt><trkpt lat="39.95647233664704" lon="9.182591176809849"><ele>703.0</ele><time>2026-05-03T09:07:04Z</time></trkpt><trkpt lat="39.95652380905419" lon="9.18246178712764"><ele>701.0</ele><time>2026-05-03T09:07:05Z</time></trkpt><trkpt lat="39.95661587191764" lon="9.182346760058657"><ele>699.0</ele><time>2026-05-03T09:07:06Z</time></trkpt><trkpt lat="39.95672846784624" lon="9.182238794344066"><ele>696.0</ele><time>2026-05-03T09:07:07Z</time></trkpt><trkpt lat="39.95683401111578" lon="9.182132537027112"><ele>693.0</ele><time>2026-05-03T09:07:08Z</time></trkpt><trkpt lat="39.95694236772893" lon="9.182032201638588"><ele>690.0</ele><time>2026-05-03T09:07:09Z</time></trkpt><trkpt lat="39.95705033750588" lon="9.181955011068718"><ele>687.0</ele><time>2026-05-03T09:07:10Z</time></trkpt><trkpt lat="39.95714373822728" lon="9.1818889742626"><ele>687.0</ele><time>2026-05-03T09:07:11Z</time></trkpt><trkpt lat="39.95723458004692" lon="9.181853381287285"><ele>687.0</ele><time>2026-05-03T09:07:12Z</time></trkpt><trkpt lat="39.95732555706988" lon="9.18185095808051"><ele>687.0</ele><time>2026-05-03T09:07:13Z</time></trkpt><trkpt lat="39.95741025161861" lon="9.181886050379939"><ele>687.0</ele><time>2026-05-03T09:07:14Z</time></trkpt><trkpt lat="39.957486731077" lon="9.181948212123372"><ele>687.0</ele><time>2026-05-03T09:07:15Z</time></trkpt><trkpt lat="39.95755244331228" lon="9.182030416264702"><ele>684.2</ele><time>2026-05-03T09:07:16Z</time></trkpt><trkpt lat="39.957579905052626" lon="9.182138749336241"><ele>681.4000000000001</ele><time>2026-05-03T09:07:17Z</time></trkpt><trkpt lat="39.9576134313532" lon="9.18224181991287"><ele>678.5999999999999</ele><time>2026-05-03T09:07:18Z</time></trkpt><trkpt lat="39.957645863374" lon="9.182351828131132"><ele>675.8</ele><time>2026-05-03T09:07:19Z</time></trkpt><trkpt lat="39.95769388437087" lon="9.18247432655064"><ele>673.0</ele><time>2026-05-03T09:07:20Z</time></trkpt><trkpt lat="39.95777209503833" lon="9.182573794610693"><ele>673.0</ele><time>2026-05-03T09:07:21Z</time></trkpt><trkpt lat="39.95786317191797" lon="9.182668734650123"><ele>673.0</ele><time>2026-05-03T09:07:22Z</time></trkpt><trkpt lat="39.95796840840895" lon="9.182754595789559"><ele>673.0</ele><time>2026-05-03T09:07:23Z</time></trkpt><trkpt lat="39.95807015441275" lon="9.182851099441901"><ele>673.0</ele><time>2026-05-03T09:07:24Z</time></trkpt><trkpt lat="39.95815702330353" lon="9.182975637185336"><ele>673.0</ele><time>2026-05-03T09:07:25Z</time></trkpt><trkpt lat="39.95825205273784" lon="9.183093203826981"><ele>673.0</ele><time>2026-05-03T09:07:26Z</time></trkpt><trkpt lat="39.95834893969519" lon="9.183208706802395"><ele>673.0</ele><time>2026-05-03T09:07:27Z</time></trkpt><trkpt lat="39.9584835835506" lon="9.183258668155235"><ele>673.0</ele><time>2026-05-03T09:07:28Z</time></trkpt><trkpt lat="39.95861414640221" lon="9.183300928014749"><ele>673.4</ele><time>2026-05-03T09:07:29Z</time></trkpt><trkpt lat="39.95874172403051" lon="9.183325558294289"><ele>673.8</ele><time>2026-05-03T09:07:30Z</time></trkpt><trkpt lat="39.9588556276034" lon="9.183335557633892"><ele>674.2</ele><time>2026-05-03T09:07:31Z</time></trkpt><trkpt lat="39.95895470566398" lon="9.183339117004333"><ele>674.6</ele><time>2026-05-03T09:07:32Z</time></trkpt><trkpt lat="39.95904486665848" lon="9.183342325875431"><ele>675.0</ele><time>2026-05-03T09:07:33Z</time></trkpt><trkpt lat="39.959132294427015" lon="9.183348473867122"><ele>675.0</ele><time>2026-05-03T09:07:34Z</time></trkpt><trkpt lat="39.959196646255286" lon="9.183374604690018"><ele>675.0</ele><time>2026-05-03T09:07:35Z</time></trkpt><trkpt lat="39.959262901811286" lon="9.18341436602507"><ele>675.0</ele><time>2026-05-03T09:07:36Z</time></trkpt><trkpt lat="39.95932232813415" lon="9.183470405672308"><ele>675.0</ele><time>2026-05-03T09:07:37Z</time></trkpt><trkpt lat="39.959377836584984" lon="9.183545825312082"><ele>675.0</ele><time>2026-05-03T09:07:39Z</time></trkpt><trkpt lat="39.959440465716796" lon="9.183566025669982"><ele>675.0</ele><time>2026-05-03T09:07:43Z</time></trkpt><trkpt lat="39.95937181185563" lon="9.18348692305229"><ele>675.0</ele><time>2026-05-03T09:07:47Z</time></trkpt><trkpt lat="39.959316715276735" lon="9.183426065309876"><ele>675.0</ele><time>2026-05-03T09:07:48Z</time></trkpt><trkpt lat="39.95924411383645" lon="9.183386742500293"><ele>675.0</ele><time>2026-05-03T09:07:49Z</time></trkpt><trkpt lat="39.95917246245904" lon="9.183351351829057"><ele>675.0</ele><time>2026-05-03T09:07:50Z</time></trkpt><trkpt lat="39.959075201148565" lon="9.183330641877845"><ele>675.0</ele><time>2026-05-03T09:07:51Z</time></trkpt><trkpt lat="39.95896510982744" lon="9.183321037501864"><ele>675.0</ele><time>2026-05-03T09:07:52Z</time></trkpt><trkpt lat="39.95885371270729" lon="9.183330124995331"><ele>675.0</ele><time>2026-05-03T09:07:53Z</time></trkpt><trkpt lat="39.95874457861789" lon="9.183332831349997"><ele>675.0</ele><time>2026-05-03T09:07:54Z</time></trkpt><trkpt lat="39.95865518610133" lon="9.183302413129448"><ele>675.0</ele><time>2026-05-03T09:07:55Z</time></trkpt><trkpt lat="39.95858954843979" lon="9.183242839945928"><ele>675.0</ele><time>2026-05-03T09:07:56Z</time></trkpt><trkpt lat="39.958534687602885" lon="9.183172818004476"><ele>675.0</ele><time>2026-05-03T09:07:57Z</time></trkpt><trkpt lat="39.95846271267302" lon="9.1830921406473"><ele>674.6</ele><time>2026-05-03T09:07:58Z</time></trkpt><trkpt lat="39.95838996929499" lon="9.183019703792187"><ele>674.2</ele><time>2026-05-03T09:07:59Z</time></trkpt><trkpt lat="39.95831669460103" lon="9.18294634880047"><ele>673.8</ele><time>2026-05-03T09:08:00Z</time></trkpt><trkpt lat="39.95825139832255" lon="9.182857156680006"><ele>673.4</ele><time>2026-05-03T09:08:01Z</time></trkpt><trkpt lat="39.95819357486806" lon="9.182746656458274"><ele>673.0</ele><time>2026-05-03T09:08:02Z</time></trkpt><trkpt lat="39.95813316002906" lon="9.182639687152438"><ele>673.0</ele><time>2026-05-03T09:08:03Z</time></trkpt><trkpt lat="39.958078343349534" lon="9.182537226075901"><ele>673.0</ele><time>2026-05-03T09:08:04Z</time></trkpt><trkpt lat="39.958034541951086" lon="9.18244257968268"><ele>673.0</ele><time>2026-05-03T09:08:05Z</time></trkpt><trkpt lat="39.958007510526876" lon="9.182340285675243"><ele>673.0</ele><time>2026-05-03T09:08:06Z</time></trkpt><trkpt lat="39.95799720714223" lon="9.182225634802496"><ele>673.0</ele><time>2026-05-03T09:08:07Z</time></trkpt><trkpt lat="39.95800185306392" lon="9.182111483257627"><ele>673.0</ele><time>2026-05-03T09:08:08Z</time></trkpt><trkpt lat="39.958026601894254" lon="9.181992383674553"><ele>670.8</ele><time>2026-05-03T09:08:09Z</time></trkpt><trkpt lat="39.95807008356456" lon="9.181861620838475"><ele>668.5999999999999</ele><time>2026-05-03T09:08:10Z</time></trkpt><trkpt lat="39.958101801718456" lon="9.181745548371234"><ele>666.4000000000001</ele><time>2026-05-03T09:08:11Z</time></trkpt><trkpt lat="39.958113413819945" lon="9.18163007261898"><ele>664.2</ele><time>2026-05-03T09:08:12Z</time></trkpt><trkpt lat="39.95811183136876" lon="9.18151790042026"><ele>662.0</ele><time>2026-05-03T09:08:13Z</time></trkpt><trkpt lat="39.95808424336664" lon="9.181401661327726"><ele>659.5</ele><time>2026-05-03T09:08:14Z</time></trkpt><trkpt lat="39.95804025922328" lon="9.181278305742794"><ele>657.0</ele><time>2026-05-03T09:08:15Z</time></trkpt><trkpt lat="39.957984113722524" lon="9.181140378671302"><ele>654.5</ele><time>2026-05-03T09:08:16Z</time></trkpt><trkpt lat="39.95793699361334" lon="9.180988599699425"><ele>652.0</ele><time>2026-05-03T09:08:17Z</time></trkpt><trkpt lat="39.9578984884829" lon="9.180833190651109"><ele>651.75</ele><time>2026-05-03T09:08:18Z</time></trkpt><trkpt lat="39.95787373637688" lon="9.180671921157904"><ele>651.5</ele><time>2026-05-03T09:08:19Z</time></trkpt><trkpt lat="39.95785710700314" lon="9.18051145520978"><ele>651.25</ele><time>2026-05-03T09:08:20Z</time></trkpt><trkpt lat="39.95784007632535" lon="9.180357000496727"><ele>651.0</ele><time>2026-05-03T09:08:21Z</time></trkpt><trkpt lat="39.95781881172571" lon="9.18022309523196"><ele>651.0</ele><time>2026-05-03T09:08:22Z</time></trkpt><trkpt lat="39.95777872387535" lon="9.180108425482429"><ele>651.0</ele><time>2026-05-03T09:08:23Z</time></trkpt><trkpt lat="39.957713224947376" lon="9.18001709664382"><ele>651.0</ele><time>2026-05-03T09:08:24Z</time></trkpt><trkpt lat="39.9576401267983" lon="9.179907024520823"><ele>651.0</ele><time>2026-05-03T09:08:25Z</time></trkpt><trkpt lat="39.95754244050835" lon="9.179814222525831"><ele>651.0</ele><time>2026-05-03T09:08:26Z</time></trkpt><trkpt lat="39.957435315107496" lon="9.179698681538678"><ele>649.0</ele><time>2026-05-03T09:08:27Z</time></trkpt><trkpt lat="39.957329096128724" lon="9.179579219959885"><ele>647.0</ele><time>2026-05-03T09:08:28Z</time></trkpt><trkpt lat="39.95721079086128" lon="9.179449233614124"><ele>645.0</ele><time>2026-05-03T09:08:29Z</time></trkpt><trkpt lat="39.957081238356295" lon="9.179308608926824"><ele>645.0</ele><time>2026-05-03T09:08:30Z</time></trkpt><trkpt lat="39.95693271170443" lon="9.179171082690523"><ele>645.0</ele><time>2026-05-03T09:08:31Z</time></trkpt><trkpt lat="39.95679134199659" lon="9.179012531994655"><ele>645.0</ele><time>2026-05-03T09:08:32Z</time></trkpt><trkpt lat="39.95664682123456" lon="9.178856233855477"><ele>648.0</ele><time>2026-05-03T09:08:33Z</time></trkpt><trkpt lat="39.95650168448339" lon="9.178697594456871"><ele>651.0</ele><time>2026-05-03T09:08:34Z</time></trkpt><trkpt lat="39.95635856326287" lon="9.178541047226279"><ele>654.0</ele><time>2026-05-03T09:08:35Z</time></trkpt><trkpt lat="39.956225948231804" lon="9.17838593794696"><ele>654.0</ele><time>2026-05-03T09:08:36Z</time></trkpt><trkpt lat="39.95610837327147" lon="9.178229049487845"><ele>654.0</ele><time>2026-05-03T09:08:37Z</time></trkpt><trkpt lat="39.956002491110574" lon="9.178076744540634"><ele>654.0</ele><time>2026-05-03T09:08:38Z</time></trkpt><trkpt lat="39.95590824738433" lon="9.17792712263336"><ele>656.75</ele><time>2026-05-03T09:08:39Z</time></trkpt><trkpt lat="39.955830944107106" lon="9.177785365244223"><ele>659.5</ele><time>2026-05-03T09:08:40Z</time></trkpt><trkpt lat="39.955776295982" lon="9.177645042985107"><ele>662.25</ele><time>2026-05-03T09:08:41Z</time></trkpt><trkpt lat="39.955758756237344" lon="9.177499450513425"><ele>665.0</ele><time>2026-05-03T09:08:42Z</time></trkpt><trkpt lat="39.955775409716246" lon="9.177352521830402"><ele>668.0</ele><time>2026-05-03T09:08:43Z</time></trkpt><trkpt lat="39.9558188049462" lon="9.177199382121334"><ele>671.0</ele><time>2026-05-03T09:08:44Z</time></trkpt><trkpt lat="39.95587682384247" lon="9.177047063685963"><ele>674.0</ele><time>2026-05-03T09:08:45Z</time></trkpt><trkpt lat="39.95594603806328" lon="9.176934661390513"><ele>677.0</ele><time>2026-05-03T09:08:46Z</time></trkpt><trkpt lat="39.95603338626988" lon="9.176862605037662"><ele>678.2</ele><time>2026-05-03T09:08:47Z</time></trkpt><trkpt lat="39.95613801565216" lon="9.176836811482376"><ele>679.4000000000001</ele><time>2026-05-03T09:08:48Z</time></trkpt><trkpt lat="39.95623896282644" lon="9.176846016715388"><ele>680.5999999999999</ele><time>2026-05-03T09:08:49Z</time></trkpt><trkpt lat="39.95633322055221" lon="9.17689024147354"><ele>681.8</ele><time>2026-05-03T09:08:50Z</time></trkpt><trkpt lat="39.95640941526649" lon="9.176955665181117"><ele>683.0</ele><time>2026-05-03T09:08:51Z</time></trkpt><trkpt lat="39.95647744542071" lon="9.177030393294901"><ele>683.0</ele><time>2026-05-03T09:08:52Z</time></trkpt><trkpt lat="39.956548952786505" lon="9.17711134100994"><ele>683.0</ele><time>2026-05-03T09:08:53Z</time></trkpt><trkpt lat="39.95661866255559" lon="9.177190791932029"><ele>683.0</ele><time>2026-05-03T09:08:54Z</time></trkpt><trkpt lat="39.95669548834859" lon="9.177276641291623"><ele>683.0</ele><time>2026-05-03T09:08:55Z</time></trkpt><trkpt lat="39.95678187948331" lon="9.17736017075049"><ele>683.0</ele><time>2026-05-03T09:08:56Z</time></trkpt><trkpt lat="39.95688123891709" lon="9.177431853621181"><ele>680.5</ele><time>2026-05-03T09:08:57Z</time></trkpt><trkpt lat="39.95699432304572" lon="9.177481962537437"><ele>678.0</ele><time>2026-05-03T09:08:58Z</time></trkpt><trkpt lat="39.95711799281457" lon="9.177501065961797"><ele>675.5</ele><time>2026-05-03T09:08:59Z</time></trkpt><trkpt lat="39.95724601528627" lon="9.17747719011062"><ele>673.0</ele><time>2026-05-03T09:09:00Z</time></trkpt><trkpt lat="39.95737915671953" lon="9.177416057446067"><ele>678.0</ele><time>2026-05-03T09:09:01Z</time></trkpt><trkpt lat="39.95750046003264" lon="9.177337373194785"><ele>683.0</ele><time>2026-05-03T09:09:02Z</time></trkpt><trkpt lat="39.95762636621369" lon="9.177256619900254"><ele>688.0</ele><time>2026-05-03T09:09:03Z</time></trkpt><trkpt lat="39.95777171387046" lon="9.177176688864321"><ele>693.0</ele><time>2026-05-03T09:09:04Z</time></trkpt><trkpt lat="39.95792026597475" lon="9.177105635911307"><ele>693.0</ele><time>2026-05-03T09:09:05Z</time></trkpt><trkpt lat="39.9580757516241" lon="9.177025716933018"><ele>693.0</ele><time>2026-05-03T09:09:06Z</time></trkpt><trkpt lat="39.95822374513029" lon="9.17693443383497"><ele>693.0</ele><time>2026-05-03T09:09:07Z</time></trkpt><trkpt lat="39.95836732651116" lon="9.176829994076522"><ele>694.5</ele><time>2026-05-03T09:09:08Z</time></trkpt><trkpt lat="39.95850479825517" lon="9.176731623694169"><ele>696.0</ele><time>2026-05-03T09:09:09Z</time></trkpt><trkpt lat="39.958637474671065" lon="9.176650371937031"><ele>697.5</ele><time>2026-05-03T09:09:10Z</time></trkpt><trkpt lat="39.95876857937094" lon="9.176592890917995"><ele>699.0</ele><time>2026-05-03T09:09:11Z</time></trkpt><trkpt lat="39.95889585612259" lon="9.176581835172245"><ele>699.0</ele><time>2026-05-03T09:09:12Z</time></trkpt><trkpt lat="39.95900975689501" lon="9.176609290082498"><ele>699.0</ele><time>2026-05-03T09:09:13Z</time></trkpt><trkpt lat="39.95911407828124" lon="9.176682027954643"><ele>699.0</ele><time>2026-05-03T09:09:14Z</time></trkpt><trkpt lat="39.959212965312176" lon="9.176776381653152"><ele>699.0</ele><time>2026-05-03T09:09:15Z</time></trkpt><trkpt lat="39.9593212676907" lon="9.176881746185796"><ele>708.3333333333334</ele><time>2026-05-03T09:09:16Z</time></trkpt><trkpt lat="39.959434399222786" lon="9.176997092237983"><ele>717.6666666666667</ele><time>2026-05-03T09:09:17Z</time></trkpt><trkpt lat="39.959555654161825" lon="9.177127362002938"><ele>727.0</ele><time>2026-05-03T09:09:18Z</time></trkpt><trkpt lat="39.959682023912904" lon="9.177260243568305"><ele>728.6666666666667</ele><time>2026-05-03T09:09:19Z</time></trkpt><trkpt lat="39.9598127826706" lon="9.177400416237058"><ele>730.3333333333334</ele><time>2026-05-03T09:09:20Z</time></trkpt><trkpt lat="39.95993923260821" lon="9.177547996728382"><ele>732.0</ele><time>2026-05-03T09:09:21Z</time></trkpt><trkpt lat="39.96005826493137" lon="9.177721734665093"><ele>732.0</ele><time>2026-05-03T09:09:22Z</time></trkpt><trkpt lat="39.96017764004743" lon="9.17791735950619"><ele>732.0</ele><time>2026-05-03T09:09:23Z</time></trkpt><trkpt lat="39.960298562532536" lon="9.178110643748125"><ele>732.0</ele><time>2026-05-03T09:09:24Z</time></trkpt><trkpt lat="39.96041770483275" lon="9.17828073521346"><ele>723.3333333333334</ele><time>2026-05-03T09:09:24.999Z</time></trkpt><trkpt lat="39.96054218926812" lon="9.178427413857907"><ele>714.6666666666667</ele><time>2026-05-03T09:09:25.999Z</time></trkpt><trkpt lat="39.960682133673636" lon="9.178543130548794"><ele>706.0</ele><time>2026-05-03T09:09:26.999Z</time></trkpt><trkpt lat="39.96083550257988" lon="9.178622339312287"><ele>709.0</ele><time>2026-05-03T09:09:27.999Z</time></trkpt><trkpt lat="39.961000849444375" lon="9.178673013540326"><ele>712.0</ele><time>2026-05-03T09:09:28.999Z</time></trkpt><trkpt lat="39.96117433886524" lon="9.178684713922737"><ele>715.0</ele><time>2026-05-03T09:09:29.999Z</time></trkpt><trkpt lat="39.961360266169464" lon="9.178659533829522"><ele>715.0</ele><time>2026-05-03T09:09:30.999Z</time></trkpt><trkpt lat="39.961563029146234" lon="9.17861800997318"><ele>715.0</ele><time>2026-05-03T09:09:31.999Z</time></trkpt><trkpt lat="39.961770475524595" lon="9.17857290867222"><ele>715.0</ele><time>2026-05-03T09:09:32.999Z</time></trkpt><trkpt lat="39.96198777672042" lon="9.178525357227636"><ele>715.6666666666667</ele><time>2026-05-03T09:09:33.999Z</time></trkpt><trkpt lat="39.962205316741176" lon="9.178474251356981"><ele>716.3333333333334</ele><time>2026-05-03T09:09:34.999Z</time></trkpt><trkpt lat="39.96240801515115" lon="9.178426444709672"><ele>717.0</ele><time>2026-05-03T09:09:35.999Z</time></trkpt><trkpt lat="39.962604844046666" lon="9.178372184709524"><ele>714.0</ele><time>2026-05-03T09:09:36.999Z</time></trkpt><trkpt lat="39.962792736304195" lon="9.178307725041654"><ele>711.0</ele><time>2026-05-03T09:09:37.999Z</time></trkpt><trkpt lat="39.96297061625021" lon="9.178231723142652"><ele>708.0</ele><time>2026-05-03T09:09:38.999Z</time></trkpt><trkpt lat="39.96313938049997" lon="9.178145549461151"><ele>709.0</ele><time>2026-05-03T09:09:39.999Z</time></trkpt><trkpt lat="39.96329960219865" lon="9.178041001200675"><ele>710.0</ele><time>2026-05-03T09:09:40.999Z</time></trkpt><trkpt lat="39.96346114900969" lon="9.177899106761323"><ele>711.0</ele><time>2026-05-03T09:09:41.999Z</time></trkpt><trkpt lat="39.96362530070249" lon="9.177734829990152"><ele>711.0</ele><time>2026-05-03T09:09:42.999Z</time></trkpt><trkpt lat="39.96378582262454" lon="9.177545094807277"><ele>711.0</ele><time>2026-05-03T09:09:43.999Z</time></trkpt><trkpt lat="39.963960374705245" lon="9.177353152001851"><ele>711.0</ele><time>2026-05-03T09:09:44.999Z</time></trkpt><trkpt lat="39.964139806432996" lon="9.177159725498623"><ele>714.0</ele><time>2026-05-03T09:09:45.999Z</time></trkpt><trkpt lat="39.96431941485948" lon="9.176971824875064"><ele>717.0</ele><time>2026-05-03T09:09:46.999Z</time></trkpt><trkpt lat="39.96448327117185" lon="9.176791549120468"><ele>720.0</ele><time>2026-05-03T09:09:47.999Z</time></trkpt><trkpt lat="39.964637076959086" lon="9.176623027720337"><ele>721.3333333333334</ele><time>2026-05-03T09:09:48.999Z</time></trkpt><trkpt lat="39.96477225161356" lon="9.176462267779902"><ele>722.6666666666667</ele><time>2026-05-03T09:09:49.999Z</time></trkpt><trkpt lat="39.964880699010806" lon="9.176295543279704"><ele>724.0</ele><time>2026-05-03T09:09:50.999Z</time></trkpt><trkpt lat="39.964962180296006" lon="9.176118358333227"><ele>724.0</ele><time>2026-05-03T09:09:51.999Z</time></trkpt><trkpt lat="39.96502358854229" lon="9.175924671266412"><ele>724.0</ele><time>2026-05-03T09:09:53Z</time></trkpt><trkpt lat="39.965053030601624" lon="9.175712275618176"><ele>724.0</ele><time>2026-05-03T09:09:54Z</time></trkpt><trkpt lat="39.96507241602266" lon="9.17548905386174"><ele>717.0</ele><time>2026-05-03T09:09:55Z</time></trkpt><trkpt lat="39.965075910777635" lon="9.17525900684514"><ele>710.0</ele><time>2026-05-03T09:09:56Z</time></trkpt><trkpt lat="39.96507673852164" lon="9.175023711373564"><ele>703.0</ele><time>2026-05-03T09:09:57Z</time></trkpt><trkpt lat="39.96507316546409" lon="9.174784477271062"><ele>702.3333333333334</ele><time>2026-05-03T09:09:58Z</time></trkpt><trkpt lat="39.96506036348208" lon="9.174548192112418"><ele>701.6666666666666</ele><time>2026-05-03T09:09:59Z</time></trkpt><trkpt lat="39.96502705202531" lon="9.174318563963277"><ele>701.0</ele><time>2026-05-03T09:10:00Z</time></trkpt><trkpt lat="39.96497201931912" lon="9.174091576020617"><ele>708.0</ele><time>2026-05-03T09:10:01Z</time></trkpt><trkpt lat="39.96489497159354" lon="9.173866062189218"><ele>715.0</ele><time>2026-05-03T09:10:02Z</time></trkpt><trkpt lat="39.96480099491823" lon="9.173642516344016"><ele>722.0</ele><time>2026-05-03T09:10:03Z</time></trkpt><trkpt lat="39.964705711013174" lon="9.173428866408262"><ele>722.0</ele><time>2026-05-03T09:10:04Z</time></trkpt><trkpt lat="39.96462125222073" lon="9.173230337012367"><ele>722.0</ele><time>2026-05-03T09:10:05Z</time></trkpt><trkpt lat="39.964538050945805" lon="9.173046655740768"><ele>722.0</ele><time>2026-05-03T09:10:06Z</time></trkpt><trkpt lat="39.96445666131752" lon="9.172889860637365"><ele>724.75</ele><time>2026-05-03T09:10:07Z</time></trkpt><trkpt lat="39.96436791514224" lon="9.172757836324022"><ele>727.5</ele><time>2026-05-03T09:10:08Z</time></trkpt><trkpt lat="39.964262912644315" lon="9.172653298117798"><ele>730.25</ele><time>2026-05-03T09:10:09Z</time></trkpt><trkpt lat="39.96412998405256" lon="9.172582959304806"><ele>733.0</ele><time>2026-05-03T09:10:10Z</time></trkpt><trkpt lat="39.96397837982613" lon="9.172532454268259"><ele>733.0</ele><time>2026-05-03T09:10:11Z</time></trkpt><trkpt lat="39.96381296321452" lon="9.17250377680954"><ele>733.0</ele><time>2026-05-03T09:10:12Z</time></trkpt><trkpt lat="39.96365145949383" lon="9.172447079320216"><ele>733.0</ele><time>2026-05-03T09:10:13Z</time></trkpt><trkpt lat="39.96349483413959" lon="9.172420241927503"><ele>733.0</ele><time>2026-05-03T09:10:14Z</time></trkpt><trkpt lat="39.963347719097435" lon="9.172330428995576"><ele>733.0</ele><time>2026-05-03T09:10:15Z</time></trkpt><trkpt lat="39.963206238797326" lon="9.172215678849428"><ele>733.0</ele><time>2026-05-03T09:10:16Z</time></trkpt><trkpt lat="39.963072085101494" lon="9.172082857773827"><ele>733.0</ele><time>2026-05-03T09:10:17Z</time></trkpt><trkpt lat="39.96294338852862" lon="9.171922149227816"><ele>733.0</ele><time>2026-05-03T09:10:18Z</time></trkpt><trkpt lat="39.962819023013466" lon="9.171758266214791"><ele>733.0</ele><time>2026-05-03T09:10:19Z</time></trkpt><trkpt lat="39.96269551016423" lon="9.171593412925384"><ele>731.3333333333334</ele><time>2026-05-03T09:10:20Z</time></trkpt><trkpt lat="39.96256069853045" lon="9.171421335560645"><ele>729.6666666666666</ele><time>2026-05-03T09:10:21Z</time></trkpt><trkpt lat="39.962439887706424" lon="9.171261200025407"><ele>728.0</ele><time>2026-05-03T09:10:22Z</time></trkpt><trkpt lat="39.96233512044604" lon="9.171096116085609"><ele>735.6666666666666</ele><time>2026-05-03T09:10:23Z</time></trkpt><trkpt lat="39.96225834165079" lon="9.170914594395738"><ele>743.3333333333334</ele><time>2026-05-03T09:10:24Z</time></trkpt><trkpt lat="39.96219759165669" lon="9.170718750660956"><ele>751.0</ele><time>2026-05-03T09:10:25Z</time></trkpt><trkpt lat="39.96216765109451" lon="9.170508853234036"><ele>752.25</ele><time>2026-05-03T09:10:26Z</time></trkpt><trkpt lat="39.962159306021036" lon="9.170308842944406"><ele>753.5</ele><time>2026-05-03T09:10:27Z</time></trkpt><trkpt lat="39.962172677163" lon="9.170120229138567"><ele>754.75</ele><time>2026-05-03T09:10:28Z</time></trkpt><trkpt lat="39.96220833778548" lon="9.169952329945602"><ele>756.0</ele><time>2026-05-03T09:10:29Z</time></trkpt><trkpt lat="39.96226083462212" lon="9.169789969978698"><ele>759.6666666666666</ele><time>2026-05-03T09:10:30Z</time></trkpt><trkpt lat="39.962325515015515" lon="9.16963117573548"><ele>763.3333333333333</ele><time>2026-05-03T09:10:31Z</time></trkpt><trkpt lat="39.96240907576667" lon="9.169457835484621"><ele>767.0</ele><time>2026-05-03T09:10:32Z</time></trkpt><trkpt lat="39.96251383891866" lon="9.169287049634338"><ele>767.3333333333333</ele><time>2026-05-03T09:10:33Z</time></trkpt><trkpt lat="39.96264993405826" lon="9.169117509306087"><ele>767.6666666666666</ele><time>2026-05-03T09:10:34Z</time></trkpt><trkpt lat="39.962787544280914" lon="9.168955550959435"><ele>768.0</ele><time>2026-05-03T09:10:35Z</time></trkpt><trkpt lat="39.96293488512153" lon="9.168786337684066"><ele>768.0</ele><time>2026-05-03T09:10:36Z</time></trkpt><trkpt lat="39.963085852667085" lon="9.168613627661614"><ele>768.0</ele><time>2026-05-03T09:10:37Z</time></trkpt><trkpt lat="39.96323426651455" lon="9.168435177728187"><ele>768.0</ele><time>2026-05-03T09:10:38Z</time></trkpt><trkpt lat="39.96336962046747" lon="9.168262510645244"><ele>766.6666666666666</ele><time>2026-05-03T09:10:39Z</time></trkpt><trkpt lat="39.96349084186421" lon="9.168073404367572"><ele>765.3333333333333</ele><time>2026-05-03T09:10:40Z</time></trkpt><trkpt lat="39.96359159219353" lon="9.167864340861605"><ele>764.0</ele><time>2026-05-03T09:10:41Z</time></trkpt><trkpt lat="39.96367116707028" lon="9.167638056196468"><ele>764.0</ele><time>2026-05-03T09:10:42Z</time></trkpt><trkpt lat="39.96373606098491" lon="9.167389076624369"><ele>764.0</ele><time>2026-05-03T09:10:43Z</time></trkpt><trkpt lat="39.96378934764227" lon="9.167145693195256"><ele>764.0</ele><time>2026-05-03T09:10:44Z</time></trkpt><trkpt lat="39.96382181891941" lon="9.16691387266079"><ele>764.3333333333333</ele><time>2026-05-03T09:10:45Z</time></trkpt><trkpt lat="39.96382473022875" lon="9.166690083480947"><ele>764.6666666666666</ele><time>2026-05-03T09:10:46Z</time></trkpt><trkpt lat="39.963797058476196" lon="9.166475284127873"><ele>765.0</ele><time>2026-05-03T09:10:47Z</time></trkpt><trkpt lat="39.96373797960695" lon="9.16626628857457"><ele>762.3333333333334</ele><time>2026-05-03T09:10:48Z</time></trkpt><trkpt lat="39.96364538355514" lon="9.166066921065402"><ele>759.6666666666667</ele><time>2026-05-03T09:10:49Z</time></trkpt><trkpt lat="39.963516141771805" lon="9.165876717785663"><ele>757.0</ele><time>2026-05-03T09:10:50Z</time></trkpt><trkpt lat="39.96336449318987" lon="9.165680228238202"><ele>761.3333333333334</ele><time>2026-05-03T09:10:51Z</time></trkpt><trkpt lat="39.9632272583314" lon="9.165493535490729"><ele>765.6666666666667</ele><time>2026-05-03T09:10:52Z</time></trkpt><trkpt lat="39.96310555920195" lon="9.165321368654526"><ele>770.0</ele><time>2026-05-03T09:10:53Z</time></trkpt><trkpt lat="39.963019635130195" lon="9.16516023328618"><ele>770.0</ele><time>2026-05-03T09:10:54Z</time></trkpt><trkpt lat="39.962972796879455" lon="9.164992678374396"><ele>770.0</ele><time>2026-05-03T09:10:55Z</time></trkpt><trkpt lat="39.9629660756012" lon="9.164835459282946"><ele>770.0</ele><time>2026-05-03T09:10:56Z</time></trkpt><trkpt lat="39.9629952892891" lon="9.164678250903098"><ele>770.0</ele><time>2026-05-03T09:10:57Z</time></trkpt><trkpt lat="39.963071721851776" lon="9.164534918642644"><ele>771.0</ele><time>2026-05-03T09:10:58Z</time></trkpt><trkpt lat="39.963174406552085" lon="9.164417537046504"><ele>772.0</ele><time>2026-05-03T09:10:59Z</time></trkpt><trkpt lat="39.963299034713316" lon="9.164323115816828"><ele>773.0</ele><time>2026-05-03T09:11:00Z</time></trkpt><trkpt lat="39.96345093593699" lon="9.164242307813248"><ele>774.0</ele><time>2026-05-03T09:11:01Z</time></trkpt><trkpt lat="39.9636203060483" lon="9.164189561587305"><ele>774.0</ele><time>2026-05-03T09:11:02Z</time></trkpt><trkpt lat="39.96377696026407" lon="9.164098553731122"><ele>774.0</ele><time>2026-05-03T09:11:03Z</time></trkpt><trkpt lat="39.96394390911997" lon="9.164029749998454"><ele>774.0</ele><time>2026-05-03T09:11:04Z</time></trkpt><trkpt lat="39.96411228186419" lon="9.163973810646855"><ele>785.6666666666667</ele><time>2026-05-03T09:11:05Z</time></trkpt><trkpt lat="39.96427454253243" lon="9.163948429126044"><ele>797.3333333333334</ele><time>2026-05-03T09:11:06Z</time></trkpt><trkpt lat="39.96444142731874" lon="9.163962293286074"><ele>809.0</ele><time>2026-05-03T09:11:07Z</time></trkpt><trkpt lat="39.964603670069614" lon="9.16401803544221"><ele>799.0</ele><time>2026-05-03T09:11:08Z</time></trkpt><trkpt lat="39.964765715729946" lon="9.164076206537912"><ele>789.0</ele><time>2026-05-03T09:11:09Z</time></trkpt><trkpt lat="39.964925693610624" lon="9.164133149126403"><ele>779.0</ele><time>2026-05-03T09:11:10Z</time></trkpt><trkpt lat="39.965074321847126" lon="9.164162775099717"><ele>779.0</ele><time>2026-05-03T09:11:11Z</time></trkpt><trkpt lat="39.965250097028935" lon="9.164133984249096"><ele>779.0</ele><time>2026-05-03T09:11:12Z</time></trkpt><trkpt lat="39.965429872861655" lon="9.164050761022319"><ele>779.0</ele><time>2026-05-03T09:11:13Z</time></trkpt><trkpt lat="39.96558024161111" lon="9.163949360094858"><ele>777.3333333333334</ele><time>2026-05-03T09:11:14Z</time></trkpt><trkpt lat="39.965723154545515" lon="9.163830563956886"><ele>775.6666666666667</ele><time>2026-05-03T09:11:15Z</time></trkpt><trkpt lat="39.96584532680343" lon="9.163668395644597"><ele>774.0</ele><time>2026-05-03T09:11:16Z</time></trkpt><trkpt lat="39.965957694034046" lon="9.163469334602343"><ele>774.0</ele><time>2026-05-03T09:11:17Z</time></trkpt><trkpt lat="39.966071604904485" lon="9.16325522742405"><ele>774.0</ele><time>2026-05-03T09:11:18Z</time></trkpt><trkpt lat="39.96618627620602" lon="9.163032564341792"><ele>774.0</ele><time>2026-05-03T09:11:19Z</time></trkpt><trkpt lat="39.96629027743094" lon="9.162832070957053"><ele>778.3333333333333</ele><time>2026-05-03T09:11:20Z</time></trkpt><trkpt lat="39.966395533207844" lon="9.162631604865785"><ele>782.6666666666666</ele><time>2026-05-03T09:11:21Z</time></trkpt><trkpt lat="39.9664938664043" lon="9.16244079881775"><ele>787.0</ele><time>2026-05-03T09:11:22Z</time></trkpt><trkpt lat="39.966575767451715" lon="9.162247118180314"><ele>789.0</ele><time>2026-05-03T09:11:23Z</time></trkpt><trkpt lat="39.96664429481964" lon="9.162025766297127"><ele>791.0</ele><time>2026-05-03T09:11:24Z</time></trkpt><trkpt lat="39.966695428847274" lon="9.161780953862634"><ele>793.0</ele><time>2026-05-03T09:11:25Z</time></trkpt><trkpt lat="39.96673340166229" lon="9.16151184350547"><ele>794.0</ele><time>2026-05-03T09:11:26Z</time></trkpt><trkpt lat="39.96677110176442" lon="9.16123759498918"><ele>795.0</ele><time>2026-05-03T09:11:27Z</time></trkpt><trkpt lat="39.96681615121301" lon="9.160959482826868"><ele>796.0</ele><time>2026-05-03T09:11:28Z</time></trkpt><trkpt lat="39.96687733188721" lon="9.160678570480748"><ele>796.0</ele><time>2026-05-03T09:11:29Z</time></trkpt><trkpt lat="39.966946096645714" lon="9.160398404421365"><ele>796.0</ele><time>2026-05-03T09:11:30Z</time></trkpt><trkpt lat="39.96701475244257" lon="9.160115121521082"><ele>787.0</ele><time>2026-05-03T09:11:30.998Z</time></trkpt><trkpt lat="39.96708994640044" lon="9.159829970867577"><ele>778.0</ele><time>2026-05-03T09:11:31.998Z</time></trkpt><trkpt lat="39.96716143177899" lon="9.159550044784163"><ele>778.0</ele><time>2026-05-03T09:11:32.998Z</time></trkpt><trkpt lat="39.96722805596868" lon="9.159279416660105"><ele>778.0</ele><time>2026-05-03T09:11:33.998Z</time></trkpt><trkpt lat="39.96728719293722" lon="9.159012214787175"><ele>778.0</ele><time>2026-05-03T09:11:34.998Z</time></trkpt><trkpt lat="39.96735259920535" lon="9.158758448932083"><ele>777.6666666666666</ele><time>2026-05-03T09:11:35.998Z</time></trkpt><trkpt lat="39.96741799681951" lon="9.158512456380377"><ele>777.3333333333333</ele><time>2026-05-03T09:11:36.999Z</time></trkpt><trkpt lat="39.96748766236383" lon="9.158274460527618"><ele>777.0</ele><time>2026-05-03T09:11:37.999Z</time></trkpt><trkpt lat="39.967576060123584" lon="9.158035660541598"><ele>777.0</ele><time>2026-05-03T09:11:38.999Z</time></trkpt><trkpt lat="39.96768236899954" lon="9.157805770602929"><ele>777.0</ele><time>2026-05-03T09:11:39.999Z</time></trkpt><trkpt lat="39.967782720814284" lon="9.157575454714216"><ele>777.0</ele><time>2026-05-03T09:11:40.999Z</time></trkpt><trkpt lat="39.967871072338134" lon="9.157336588660174"><ele>772.0</ele><time>2026-05-03T09:11:41.999Z</time></trkpt><trkpt lat="39.967955235083714" lon="9.157090702671985"><ele>767.0</ele><time>2026-05-03T09:11:42.999Z</time></trkpt><trkpt lat="39.96802580742154" lon="9.156831250272845"><ele>762.0</ele><time>2026-05-03T09:11:43.999Z</time></trkpt><trkpt lat="39.96808605776916" lon="9.156553315169614"><ele>758.3333333333334</ele><time>2026-05-03T09:11:44.999Z</time></trkpt><trkpt lat="39.96814417046266" lon="9.156279945541373"><ele>754.6666666666667</ele><time>2026-05-03T09:11:45.999Z</time></trkpt><trkpt lat="39.96820114909342" lon="9.15601358963825"><ele>751.0</ele><time>2026-05-03T09:11:46.999Z</time></trkpt><trkpt lat="39.96825697843376" lon="9.155758209418758"><ele>751.3333333333334</ele><time>2026-05-03T09:11:47.999Z</time></trkpt><trkpt lat="39.968307561510926" lon="9.155518745839203"><ele>751.6666666666666</ele><time>2026-05-03T09:11:48.999Z</time></trkpt><trkpt lat="39.9683512617249" lon="9.155285669418461"><ele>752.0</ele><time>2026-05-03T09:11:49.999Z</time></trkpt><trkpt lat="39.968391518368186" lon="9.155072208122316"><ele>752.0</ele><time>2026-05-03T09:11:50.999Z</time></trkpt><trkpt lat="39.96844027430705" lon="9.154878655467487"><ele>752.0</ele><time>2026-05-03T09:11:51.999Z</time></trkpt><trkpt lat="39.96850578425114" lon="9.154713090943188"><ele>752.0</ele><time>2026-05-03T09:11:52.999Z</time></trkpt><trkpt lat="39.968586034713134" lon="9.154569392909403"><ele>752.0</ele><time>2026-05-03T09:11:53.999Z</time></trkpt><trkpt lat="39.96868818798565" lon="9.15444355827416"><ele>746.6666666666666</ele><time>2026-05-03T09:11:54.999Z</time></trkpt><trkpt lat="39.96881524778418" lon="9.154332252939673"><ele>741.3333333333334</ele><time>2026-05-03T09:11:55.999Z</time></trkpt><trkpt lat="39.96896021155988" lon="9.154225893579031"><ele>736.0</ele><time>2026-05-03T09:11:56.999Z</time></trkpt><trkpt lat="39.96911280610546" lon="9.154103367515532"><ele>734.0</ele><time>2026-05-03T09:11:57.999Z</time></trkpt><trkpt lat="39.96926523416021" lon="9.153985313506535"><ele>732.0</ele><time>2026-05-03T09:11:58.999Z</time></trkpt><trkpt lat="39.96941387509583" lon="9.153866508755769"><ele>730.0</ele><time>2026-05-03T09:11:59.999Z</time></trkpt><trkpt lat="39.96955096355874" lon="9.153757619226093"><ele>730.0</ele><time>2026-05-03T09:12:00.999Z</time></trkpt><trkpt lat="39.96967563200982" lon="9.153650079927596"><ele>730.0</ele><time>2026-05-03T09:12:01.999Z</time></trkpt><trkpt lat="39.9697778453567" lon="9.153528260550667"><ele>730.0</ele><time>2026-05-03T09:12:02.999Z</time></trkpt><trkpt lat="39.96985509705282" lon="9.153380166715914"><ele>730.0</ele><time>2026-05-03T09:12:03.999Z</time></trkpt><trkpt lat="39.96990581344998" lon="9.153206483612257"><ele>728.3333333333334</ele><time>2026-05-03T09:12:04.999Z</time></trkpt><trkpt lat="39.969924919137924" lon="9.15300713942882"><ele>726.6666666666666</ele><time>2026-05-03T09:12:05.999Z</time></trkpt><trkpt lat="39.96992176916247" lon="9.152795957725553"><ele>725.0</ele><time>2026-05-03T09:12:06.999Z</time></trkpt><trkpt lat="39.96991399838143" lon="9.152566294871358"><ele>724.3333333333333</ele><time>2026-05-03T09:12:07.999Z</time></trkpt><trkpt lat="39.96990782558449" lon="9.152327303116596"><ele>723.6666666666666</ele><time>2026-05-03T09:12:08.999Z</time></trkpt><trkpt lat="39.969901021213936" lon="9.152072070949785"><ele>723.0</ele><time>2026-05-03T09:12:09.999Z</time></trkpt><trkpt lat="39.96989683018868" lon="9.151816100703044"><ele>723.0</ele><time>2026-05-03T09:12:10.999Z</time></trkpt><trkpt lat="39.96989611649697" lon="9.151572939395987"><ele>723.0</ele><time>2026-05-03T09:12:11.999Z</time></trkpt><trkpt lat="39.96988655627844" lon="9.151354186260933"><ele>723.0</ele><time>2026-05-03T09:12:12.999Z</time></trkpt><trkpt lat="39.96986202129933" lon="9.151153172603253"><ele>722.25</ele><time>2026-05-03T09:12:13.999Z</time></trkpt><trkpt lat="39.969817081432495" lon="9.150971854832123"><ele>721.5</ele><time>2026-05-03T09:12:14.999Z</time></trkpt><trkpt lat="39.969742733142496" lon="9.150819821345593"><ele>720.75</ele><time>2026-05-03T09:12:15.999Z</time></trkpt><trkpt lat="39.969640563766504" lon="9.150693850376939"><ele>720.0</ele><time>2026-05-03T09:12:16.999Z</time></trkpt><trkpt lat="39.96950594958831" lon="9.150594220312412"><ele>721.3333333333334</ele><time>2026-05-03T09:12:17.999Z</time></trkpt><trkpt lat="39.969352497408906" lon="9.150504074292376"><ele>722.6666666666667</ele><time>2026-05-03T09:12:18.999Z</time></trkpt><trkpt lat="39.96918615763943" lon="9.150414053226054"><ele>724.0</ele><time>2026-05-03T09:12:19.999Z</time></trkpt><trkpt lat="39.96901984535331" lon="9.150317597057253"><ele>724.0</ele><time>2026-05-03T09:12:20.999Z</time></trkpt><trkpt lat="39.968865844504556" lon="9.150226920334982"><ele>724.0</ele><time>2026-05-03T09:12:21.999Z</time></trkpt><trkpt lat="39.968719760918816" lon="9.150139965771888"><ele>724.0</ele><time>2026-05-03T09:12:22.999Z</time></trkpt><trkpt lat="39.968593730327584" lon="9.150036539414053"><ele>724.0</ele><time>2026-05-03T09:12:23.999Z</time></trkpt><trkpt lat="39.96849573870349" lon="9.149910904646077"><ele>724.0</ele><time>2026-05-03T09:12:24.999Z</time></trkpt><trkpt lat="39.968430423879774" lon="9.149761585290163"><ele>724.0</ele><time>2026-05-03T09:12:25.999Z</time></trkpt><trkpt lat="39.96839402384386" lon="9.14959404759494"><ele>724.0</ele><time>2026-05-03T09:12:27Z</time></trkpt><trkpt lat="39.96838552299808" lon="9.149403413011472"><ele>727.6666666666667</ele><time>2026-05-03T09:12:28Z</time></trkpt><trkpt lat="39.968386969716825" lon="9.149194019285801"><ele>731.3333333333334</ele><time>2026-05-03T09:12:29Z</time></trkpt><trkpt lat="39.96837994106892" lon="9.1489553721568"><ele>735.0</ele><time>2026-05-03T09:12:30Z</time></trkpt><trkpt lat="39.968368665260776" lon="9.148698402660347"><ele>735.0</ele><time>2026-05-03T09:12:31Z</time></trkpt><trkpt lat="39.96836016426836" lon="9.14841206517082"><ele>735.0</ele><time>2026-05-03T09:12:32Z</time></trkpt><trkpt lat="39.96834878255541" lon="9.148114558307945"><ele>735.0</ele><time>2026-05-03T09:12:33Z</time></trkpt><trkpt lat="39.968335917547456" lon="9.147828266228341"><ele>721.3333333333334</ele><time>2026-05-03T09:12:34Z</time></trkpt><trkpt lat="39.96832798952761" lon="9.147547841894937"><ele>707.6666666666667</ele><time>2026-05-03T09:12:35Z</time></trkpt><trkpt lat="39.96832686978958" lon="9.147276176696765"><ele>694.0</ele><time>2026-05-03T09:12:36Z</time></trkpt><trkpt lat="39.968337451174925" lon="9.14701075313682"><ele>691.0</ele><time>2026-05-03T09:12:37Z</time></trkpt><trkpt lat="39.96835276368948" lon="9.146759975433007"><ele>688.0</ele><time>2026-05-03T09:12:38Z</time></trkpt><trkpt lat="39.968364425755304" lon="9.146534302702358"><ele>685.0</ele><time>2026-05-03T09:12:39Z</time></trkpt><trkpt lat="39.96835780371145" lon="9.146324862970019"><ele>685.0</ele><time>2026-05-03T09:12:40Z</time></trkpt><trkpt lat="39.96832278547464" lon="9.14612755443531"><ele>685.0</ele><time>2026-05-03T09:12:41Z</time></trkpt><trkpt lat="39.96825008105594" lon="9.145939072520438"><ele>685.0</ele><time>2026-05-03T09:12:42Z</time></trkpt><trkpt lat="39.96815054514144" lon="9.145750826386868"><ele>688.6666666666667</ele><time>2026-05-03T09:12:43Z</time></trkpt><trkpt lat="39.968045429555445" lon="9.145548277880698"><ele>692.3333333333334</ele><time>2026-05-03T09:12:44Z</time></trkpt><trkpt lat="39.967950181185955" lon="9.145315333988028"><ele>696.0</ele><time>2026-05-03T09:12:45Z</time></trkpt><trkpt lat="39.9678665247789" lon="9.145053890583029"><ele>697.0</ele><time>2026-05-03T09:12:46Z</time></trkpt><trkpt lat="39.967791547256624" lon="9.144795917480083"><ele>698.0</ele><time>2026-05-03T09:12:47Z</time></trkpt><trkpt lat="39.96772744828912" lon="9.144518966622059"><ele>699.0</ele><time>2026-05-03T09:12:48Z</time></trkpt><trkpt lat="39.96765506165532" lon="9.144252017122701"><ele>698.3333333333334</ele><time>2026-05-03T09:12:49Z</time></trkpt><trkpt lat="39.967580717456535" lon="9.143993925560197"><ele>697.6666666666667</ele><time>2026-05-03T09:12:50Z</time></trkpt><trkpt lat="39.96750195096942" lon="9.143755017709308"><ele>697.0</ele><time>2026-05-03T09:12:51Z</time></trkpt><trkpt lat="39.96741044215778" lon="9.143538414022895"><ele>691.6666666666667</ele><time>2026-05-03T09:12:52Z</time></trkpt><trkpt lat="39.96732081752018" lon="9.14332939888455"><ele>686.3333333333334</ele><time>2026-05-03T09:12:53Z</time></trkpt><trkpt lat="39.9672080604595" lon="9.143134726495662"><ele>681.0</ele><time>2026-05-03T09:12:54Z</time></trkpt><trkpt lat="39.967078542177575" lon="9.142944030941575"><ele>681.0</ele><time>2026-05-03T09:12:55Z</time></trkpt><trkpt lat="39.96695713217236" lon="9.142726121361367"><ele>681.0</ele><time>2026-05-03T09:12:56Z</time></trkpt><trkpt lat="39.96682610040709" lon="9.142501281468785"><ele>681.0</ele><time>2026-05-03T09:12:57Z</time></trkpt><trkpt lat="39.9666958202495" lon="9.142283029934246"><ele>676.3333333333334</ele><time>2026-05-03T09:12:58Z</time></trkpt><trkpt lat="39.96656332318104" lon="9.142057147758496"><ele>671.6666666666667</ele><time>2026-05-03T09:12:59Z</time></trkpt><trkpt lat="39.96643601672143" lon="9.141839896179738"><ele>667.0</ele><time>2026-05-03T09:13:00Z</time></trkpt><trkpt lat="39.966313950865036" lon="9.141636343609559"><ele>669.0</ele><time>2026-05-03T09:13:01Z</time></trkpt><trkpt lat="39.966199458084446" lon="9.141434053019049"><ele>671.0</ele><time>2026-05-03T09:13:02Z</time></trkpt><trkpt lat="39.96610059700744" lon="9.14123026609925"><ele>673.0</ele><time>2026-05-03T09:13:03Z</time></trkpt><trkpt lat="39.96601851008749" lon="9.141016672733187"><ele>673.0</ele><time>2026-05-03T09:13:04Z</time></trkpt><trkpt lat="39.965949654276685" lon="9.140811937204873"><ele>673.0</ele><time>2026-05-03T09:13:05Z</time></trkpt><trkpt lat="39.96588162801664" lon="9.140632680821843"><ele>673.0</ele><time>2026-05-03T09:13:06Z</time></trkpt><trkpt lat="39.96581659333895" lon="9.140464385078431"><ele>669.6666666666667</ele><time>2026-05-03T09:13:07Z</time></trkpt><trkpt lat="39.96570643076099" lon="9.140327138869209"><ele>666.3333333333334</ele><time>2026-05-03T09:13:08Z</time></trkpt><trkpt lat="39.965553058925906" lon="9.140240474243418"><ele>663.0</ele><time>2026-05-03T09:13:09Z</time></trkpt><trkpt lat="39.96539581739455" lon="9.140130896890401"><ele>663.0</ele><time>2026-05-03T09:13:10Z</time></trkpt><trkpt lat="39.965229867973534" lon="9.140017132467701"><ele>663.0</ele><time>2026-05-03T09:13:11Z</time></trkpt><trkpt lat="39.96507314300872" lon="9.139911901634632"><ele>663.0</ele><time>2026-05-03T09:13:12Z</time></trkpt><trkpt lat="39.96493088214608" lon="9.13981733673587"><ele>662.25</ele><time>2026-05-03T09:13:13Z</time></trkpt><trkpt lat="39.96480640884445" lon="9.139717298644399"><ele>661.5</ele><time>2026-05-03T09:13:14Z</time></trkpt><trkpt lat="39.964673754744894" lon="9.139660064615729"><ele>660.75</ele><time>2026-05-03T09:13:15Z</time></trkpt><trkpt lat="39.96453314004687" lon="9.13964949279482"><ele>660.0</ele><time>2026-05-03T09:13:16Z</time></trkpt><trkpt lat="39.96438767978699" lon="9.139688179583546"><ele>660.0</ele><time>2026-05-03T09:13:17Z</time></trkpt><trkpt lat="39.9642441546536" lon="9.13976243172799"><ele>660.0</ele><time>2026-05-03T09:13:18Z</time></trkpt><trkpt lat="39.96408349323289" lon="9.139850440873548"><ele>660.0</ele><time>2026-05-03T09:13:19Z</time></trkpt><trkpt lat="39.96390479181663" lon="9.139948312612598"><ele>651.6666666666666</ele><time>2026-05-03T09:13:20Z</time></trkpt><trkpt lat="39.96372747665664" lon="9.14004624707867"><ele>643.3333333333333</ele><time>2026-05-03T09:13:21Z</time></trkpt><trkpt lat="39.96355349683505" lon="9.140142339348044"><ele>635.0</ele><time>2026-05-03T09:13:22Z</time></trkpt><trkpt lat="39.96340738894148" lon="9.140222795160073"><ele>635.75</ele><time>2026-05-03T09:13:23Z</time></trkpt><trkpt lat="39.9632828003434" lon="9.140311739976369"><ele>636.5</ele><time>2026-05-03T09:13:24Z</time></trkpt><trkpt lat="39.96315062961286" lon="9.140339680092046"><ele>637.25</ele><time>2026-05-03T09:13:25Z</time></trkpt><trkpt lat="39.96301826204702" lon="9.140328054616662"><ele>638.0</ele><time>2026-05-03T09:13:26Z</time></trkpt><trkpt lat="39.96288269522911" lon="9.140274113671778"><ele>638.0</ele><time>2026-05-03T09:13:27Z</time></trkpt><trkpt lat="39.96274545514591" lon="9.14018747520933"><ele>638.0</ele><time>2026-05-03T09:13:28Z</time></trkpt><trkpt lat="39.96259876407262" lon="9.14007295522856"><ele>638.0</ele><time>2026-05-03T09:13:29Z</time></trkpt><trkpt lat="39.96244906973618" lon="9.139975402405506"><ele>641.0</ele><time>2026-05-03T09:13:30Z</time></trkpt><trkpt lat="39.96230097900061" lon="9.139888260762453"><ele>644.0</ele><time>2026-05-03T09:13:31Z</time></trkpt><trkpt lat="39.962145333192275" lon="9.13985785413163"><ele>647.0</ele><time>2026-05-03T09:13:32Z</time></trkpt><trkpt lat="39.961983737225964" lon="9.139873113935527"><ele>638.6666666666666</ele><time>2026-05-03T09:13:33Z</time></trkpt><trkpt lat="39.96182378584221" lon="9.139939268798669"><ele>630.3333333333334</ele><time>2026-05-03T09:13:34Z</time></trkpt><trkpt lat="39.96166337027805" lon="9.140019857819055"><ele>622.0</ele><time>2026-05-03T09:13:35Z</time></trkpt><trkpt lat="39.9615090841048" lon="9.140095746366619"><ele>619.3333333333334</ele><time>2026-05-03T09:13:36Z</time></trkpt><trkpt lat="39.961360408915674" lon="9.14018290353939"><ele>616.6666666666666</ele><time>2026-05-03T09:13:36.999Z</time></trkpt><trkpt lat="39.96119366588529" lon="9.140204802477918"><ele>614.0</ele><time>2026-05-03T09:13:37.999Z</time></trkpt><trkpt lat="39.96102629610991" lon="9.140192027328183"><ele>614.0</ele><time>2026-05-03T09:13:38.999Z</time></trkpt><trkpt lat="39.96086429805155" lon="9.140143641071608"><ele>614.0</ele><time>2026-05-03T09:13:39.999Z</time></trkpt><trkpt lat="39.96070654445932" lon="9.140064270526157"><ele>614.0</ele><time>2026-05-03T09:13:40.999Z</time></trkpt><trkpt lat="39.96055103615989" lon="9.139956603674438"><ele>624.3333333333333</ele><time>2026-05-03T09:13:41.999Z</time></trkpt><trkpt lat="39.96038818754016" lon="9.139834595814612"><ele>634.6666666666666</ele><time>2026-05-03T09:13:42.999Z</time></trkpt><trkpt lat="39.96022052506076" lon="9.139708117631802"><ele>645.0</ele><time>2026-05-03T09:13:43.999Z</time></trkpt><trkpt lat="39.96005613159936" lon="9.139587865316349"><ele>635.3333333333334</ele><time>2026-05-03T09:13:44.999Z</time></trkpt><trkpt lat="39.959888979103354" lon="9.139469852339225"><ele>625.6666666666667</ele><time>2026-05-03T09:13:45.999Z</time></trkpt><trkpt lat="39.9597263346485" lon="9.139351080870203"><ele>616.0</ele><time>2026-05-03T09:13:46.999Z</time></trkpt><trkpt lat="39.959566040707614" lon="9.139213694498258"><ele>616.0</ele><time>2026-05-03T09:13:47.999Z</time></trkpt><trkpt lat="39.959416487984676" lon="9.139055853495277"><ele>616.0</ele><time>2026-05-03T09:13:48.999Z</time></trkpt><trkpt lat="39.95926754968711" lon="9.138889065334439"><ele>616.0</ele><time>2026-05-03T09:13:49.999Z</time></trkpt><trkpt lat="39.95912698731709" lon="9.138718164608195"><ele>612.3333333333334</ele><time>2026-05-03T09:13:50.999Z</time></trkpt><trkpt lat="39.95898603209999" lon="9.138557544670368"><ele>608.6666666666666</ele><time>2026-05-03T09:13:51.999Z</time></trkpt><trkpt lat="39.95883292792106" lon="9.13842020924873"><ele>605.0</ele><time>2026-05-03T09:13:52.999Z</time></trkpt><trkpt lat="39.95867726622726" lon="9.138285737568172"><ele>604.6666666666666</ele><time>2026-05-03T09:13:53.999Z</time></trkpt><trkpt lat="39.95849757485656" lon="9.13819572588015"><ele>604.3333333333334</ele><time>2026-05-03T09:13:54.999Z</time></trkpt><trkpt lat="39.958310380235375" lon="9.138133899929196"><ele>604.0</ele><time>2026-05-03T09:13:55.999Z</time></trkpt><trkpt lat="39.958125267775735" lon="9.138051660207426"><ele>604.0</ele><time>2026-05-03T09:13:56.999Z</time></trkpt><trkpt lat="39.957935981715714" lon="9.13796802130283"><ele>604.0</ele><time>2026-05-03T09:13:57.999Z</time></trkpt><trkpt lat="39.9577528624384" lon="9.137885692678807"><ele>604.0</ele><time>2026-05-03T09:13:58.999Z</time></trkpt><trkpt lat="39.95757221713656" lon="9.137807217704964"><ele>597.6666666666667</ele><time>2026-05-03T09:13:59.999Z</time></trkpt><trkpt lat="39.957393105507" lon="9.137732776095708"><ele>591.3333333333334</ele><time>2026-05-03T09:14:00.999Z</time></trkpt><trkpt lat="39.95722026319466" lon="9.13764061583376"><ele>585.0</ele><time>2026-05-03T09:14:01.999Z</time></trkpt><trkpt lat="39.95705231904329" lon="9.137525580770609"><ele>585.0</ele><time>2026-05-03T09:14:02.999Z</time></trkpt><trkpt lat="39.95689053665999" lon="9.137386484384464"><ele>585.0</ele><time>2026-05-03T09:14:03.999Z</time></trkpt><trkpt lat="39.95673186916156" lon="9.137236369870132"><ele>585.0</ele><time>2026-05-03T09:14:04.999Z</time></trkpt><trkpt lat="39.95657362850056" lon="9.13708215604805"><ele>586.6666666666666</ele><time>2026-05-03T09:14:05.999Z</time></trkpt><trkpt lat="39.95641229256099" lon="9.13693250541519"><ele>588.3333333333333</ele><time>2026-05-03T09:14:07Z</time></trkpt><trkpt lat="39.95623637771326" lon="9.136798360957227"><ele>590.0</ele><time>2026-05-03T09:14:08Z</time></trkpt><trkpt lat="39.95604729845674" lon="9.136680710297085"><ele>589.3333333333333</ele><time>2026-05-03T09:14:09Z</time></trkpt><trkpt lat="39.95586008016156" lon="9.136583376106692"><ele>588.6666666666666</ele><time>2026-05-03T09:14:10Z</time></trkpt><trkpt lat="39.955685404325315" lon="9.136476299389855"><ele>588.0</ele><time>2026-05-03T09:14:11Z</time></trkpt><trkpt lat="39.95551110296458" lon="9.136396760498686"><ele>588.0</ele><time>2026-05-03T09:14:12Z</time></trkpt><trkpt lat="39.955346514743766" lon="9.136318760451708"><ele>588.0</ele><time>2026-05-03T09:14:13Z</time></trkpt><trkpt lat="39.955192222822944" lon="9.13624092284184"><ele>588.0</ele><time>2026-05-03T09:14:14Z</time></trkpt><trkpt lat="39.95504365712275" lon="9.136162199380825"><ele>579.6666666666666</ele><time>2026-05-03T09:14:15Z</time></trkpt><trkpt lat="39.95490296719528" lon="9.136076472941744"><ele>571.3333333333333</ele><time>2026-05-03T09:14:16Z</time></trkpt><trkpt lat="39.95478826997063" lon="9.135935473546377"><ele>563.0</ele><time>2026-05-03T09:14:17Z</time></trkpt><trkpt lat="39.95469130785018" lon="9.135760155316854"><ele>565.6666666666666</ele><time>2026-05-03T09:14:18Z</time></trkpt><trkpt lat="39.954600439948265" lon="9.135575888328296"><ele>568.3333333333334</ele><time>2026-05-03T09:14:19Z</time></trkpt><trkpt lat="39.95450967842919" lon="9.135400918435657"><ele>571.0</ele><time>2026-05-03T09:14:20Z</time></trkpt><trkpt lat="39.95440661149003" lon="9.135250374325492"><ele>571.0</ele><time>2026-05-03T09:14:21Z</time></trkpt><trkpt lat="39.95428005604762" lon="9.13512188105958"><ele>571.0</ele><time>2026-05-03T09:14:22Z</time></trkpt><trkpt lat="39.954124985987335" lon="9.13502200020344"><ele>571.0</ele><time>2026-05-03T09:14:23Z</time></trkpt><trkpt lat="39.95395476515328" lon="9.134938991433707"><ele>572.0</ele><time>2026-05-03T09:14:24Z</time></trkpt><trkpt lat="39.9537820549771" lon="9.134860453589091"><ele>573.0</ele><time>2026-05-03T09:14:25Z</time></trkpt><trkpt lat="39.9536177404117" lon="9.134783180223812"><ele>574.0</ele><time>2026-05-03T09:14:26Z</time></trkpt><trkpt lat="39.953466037298575" lon="9.134710197437961"><ele>567.75</ele><time>2026-05-03T09:14:27Z</time></trkpt><trkpt lat="39.95332671674479" lon="9.134637405609263"><ele>561.5</ele><time>2026-05-03T09:14:28Z</time></trkpt><trkpt lat="39.953208726491226" lon="9.134545192543271"><ele>555.25</ele><time>2026-05-03T09:14:29Z</time></trkpt><trkpt lat="39.95311429336985" lon="9.134419083716603"><ele>549.0</ele><time>2026-05-03T09:14:30Z</time></trkpt><trkpt lat="39.95305218197085" lon="9.134276839183102"><ele>549.0</ele><time>2026-05-03T09:14:31Z</time></trkpt><trkpt lat="39.95302061006261" lon="9.134114947286507"><ele>549.0</ele><time>2026-05-03T09:14:32Z</time></trkpt><trkpt lat="39.95302145773188" lon="9.1339606520259"><ele>549.0</ele><time>2026-05-03T09:14:33Z</time></trkpt><trkpt lat="39.953066479400064" lon="9.13382399715037"><ele>549.0</ele><time>2026-05-03T09:14:34Z</time></trkpt><trkpt lat="39.953128999617526" lon="9.133675661209612"><ele>546.0</ele><time>2026-05-03T09:14:35Z</time></trkpt><trkpt lat="39.9532060011932" lon="9.133532767486347"><ele>543.0</ele><time>2026-05-03T09:14:36Z</time></trkpt><trkpt lat="39.953299596423506" lon="9.133369506214105"><ele>540.0</ele><time>2026-05-03T09:14:37Z</time></trkpt><trkpt lat="39.95340038505548" lon="9.13319849046854"><ele>541.25</ele><time>2026-05-03T09:14:38Z</time></trkpt><trkpt lat="39.95349800334909" lon="9.133033760979062"><ele>542.5</ele><time>2026-05-03T09:14:39Z</time></trkpt><trkpt lat="39.95358306432142" lon="9.13287832606116"><ele>543.75</ele><time>2026-05-03T09:14:40Z</time></trkpt><trkpt lat="39.953647442262074" lon="9.132744101745072"><ele>545.0</ele><time>2026-05-03T09:14:41Z</time></trkpt><trkpt lat="39.95372277753153" lon="9.132361870512554"><ele>545.0</ele><time>2026-05-03T09:14:42Z</time></trkpt><trkpt lat="39.953744023323296" lon="9.13215114503993"><ele>545.0</ele><time>2026-05-03T09:14:43Z</time></trkpt><trkpt lat="39.95373069203282" lon="9.131921216923061"><ele>545.0</ele><time>2026-05-03T09:14:44Z</time></trkpt><trkpt lat="39.95368675140003" lon="9.131686221499649"><ele>540.6666666666666</ele><time>2026-05-03T09:14:45Z</time></trkpt><trkpt lat="39.95364071845516" lon="9.131471036692464"><ele>536.3333333333334</ele><time>2026-05-03T09:14:46Z</time></trkpt><trkpt lat="39.95362376156394" lon="9.131264150880126"><ele>532.0</ele><time>2026-05-03T09:14:47Z</time></trkpt><trkpt lat="39.95366453137069" lon="9.131070282754868"><ele>532.0</ele><time>2026-05-03T09:14:48Z</time></trkpt><trkpt lat="39.95373120912433" lon="9.130884380699221"><ele>532.0</ele><time>2026-05-03T09:14:49Z</time></trkpt><trkpt lat="39.95382403810087" lon="9.13070429628933"><ele>532.0</ele><time>2026-05-03T09:14:50Z</time></trkpt><trkpt lat="39.953922099354884" lon="9.130519335668735"><ele>529.0</ele><time>2026-05-03T09:14:51Z</time></trkpt><trkpt lat="39.953990325019916" lon="9.130314451599594"><ele>526.0</ele><time>2026-05-03T09:14:52Z</time></trkpt><trkpt lat="39.95406369486968" lon="9.130096428238105"><ele>523.0</ele><time>2026-05-03T09:14:53Z</time></trkpt><trkpt lat="39.9541152641582" lon="9.129876965097816"><ele>522.6666666666667</ele><time>2026-05-03T09:14:54Z</time></trkpt><trkpt lat="39.954158568052456" lon="9.129671976398665"><ele>522.3333333333334</ele><time>2026-05-03T09:14:55Z</time></trkpt><trkpt lat="39.9542038190165" lon="9.129456006397776"><ele>522.0</ele><time>2026-05-03T09:14:56Z</time></trkpt><trkpt lat="39.95418328993463" lon="9.129290304414162"><ele>522.0</ele><time>2026-05-03T09:14:57Z</time></trkpt><trkpt lat="39.95410992414978" lon="9.12913982404429"><ele>522.0</ele><time>2026-05-03T09:14:58Z</time></trkpt><trkpt lat="39.95402613418063" lon="9.128978886594403"><ele>522.0</ele><time>2026-05-03T09:14:59Z</time></trkpt><trkpt lat="39.95389853550373" lon="9.128841287987086"><ele>524.3333333333334</ele><time>2026-05-03T09:15:00Z</time></trkpt><trkpt lat="39.95375276306535" lon="9.12868854913214"><ele>526.6666666666667</ele><time>2026-05-03T09:15:01Z</time></trkpt><trkpt lat="39.953616447632974" lon="9.128538964880562"><ele>529.0</ele><time>2026-05-03T09:15:02Z</time></trkpt><trkpt lat="39.953507875363854" lon="9.128387916607233"><ele>522.6666666666667</ele><time>2026-05-03T09:15:03Z</time></trkpt><trkpt lat="39.95344762094616" lon="9.128205448868101"><ele>516.3333333333334</ele><time>2026-05-03T09:15:04Z</time></trkpt><trkpt lat="39.95342717952015" lon="9.128006723983967"><ele>510.0</ele><time>2026-05-03T09:15:05Z</time></trkpt><trkpt lat="39.95342221366946" lon="9.127778156110633"><ele>510.0</ele><time>2026-05-03T09:15:06Z</time></trkpt><trkpt lat="39.95341545270075" lon="9.12754038036579"><ele>510.0</ele><time>2026-05-03T09:15:07Z</time></trkpt><trkpt lat="39.95340918255895" lon="9.127311802062392"><ele>510.0</ele><time>2026-05-03T09:15:08Z</time></trkpt><trkpt lat="39.95340516487885" lon="9.127103479030959"><ele>507.5</ele><time>2026-05-03T09:15:09Z</time></trkpt><trkpt lat="39.95340762595998" lon="9.126913245824229"><ele>505.0</ele><time>2026-05-03T09:15:10Z</time></trkpt><trkpt lat="39.953427708235495" lon="9.126729200409525"><ele>502.5</ele><time>2026-05-03T09:15:11Z</time></trkpt><trkpt lat="39.953471603213316" lon="9.126530925102497"><ele>500.0</ele><time>2026-05-03T09:15:12Z</time></trkpt><trkpt lat="39.953541387439536" lon="9.126345650065131"><ele>500.0</ele><time>2026-05-03T09:15:13Z</time></trkpt><trkpt lat="39.95364611128656" lon="9.126176960230588"><ele>500.0</ele><time>2026-05-03T09:15:14Z</time></trkpt><trkpt lat="39.95377246227126" lon="9.126011952564053"><ele>500.0</ele><time>2026-05-03T09:15:15Z</time></trkpt><trkpt lat="39.953924005303165" lon="9.12585292303593"><ele>498.3333333333333</ele><time>2026-05-03T09:15:16Z</time></trkpt><trkpt lat="39.954087793609546" lon="9.125685454556882"><ele>496.66666666666663</ele><time>2026-05-03T09:15:17Z</time></trkpt><trkpt lat="39.95424022709227" lon="9.12550731732202"><ele>495.0</ele><time>2026-05-03T09:15:18Z</time></trkpt><trkpt lat="39.95440388717065" lon="9.125331539139838"><ele>495.0</ele><time>2026-05-03T09:15:19Z</time></trkpt><trkpt lat="39.95457153534386" lon="9.125140496444494"><ele>495.0</ele><time>2026-05-03T09:15:20Z</time></trkpt><trkpt lat="39.95474364210971" lon="9.124950948901835"><ele>495.0</ele><time>2026-05-03T09:15:21Z</time></trkpt><trkpt lat="39.95491531905037" lon="9.124763656310225"><ele>493.66666666666663</ele><time>2026-05-03T09:15:22Z</time></trkpt><trkpt lat="39.955073089127104" lon="9.124584699600442"><ele>492.3333333333333</ele><time>2026-05-03T09:15:23Z</time></trkpt><trkpt lat="39.95522649567959" lon="9.124416839730067"><ele>491.0</ele><time>2026-05-03T09:15:24Z</time></trkpt><trkpt lat="39.95536891560394" lon="9.124254489539204"><ele>491.0</ele><time>2026-05-03T09:15:25Z</time></trkpt><trkpt lat="39.95550616359595" lon="9.12410705394407"><ele>491.0</ele><time>2026-05-03T09:15:26.001Z</time></trkpt><trkpt lat="39.95565006777954" lon="9.123969030776125"><ele>491.0</ele><time>2026-05-03T09:15:27.001Z</time></trkpt><trkpt lat="39.955801400441594" lon="9.123876349904066"><ele>498.3333333333333</ele><time>2026-05-03T09:15:28.001Z</time></trkpt><trkpt lat="39.955957299284094" lon="9.123831184720537"><ele>505.66666666666663</ele><time>2026-05-03T09:15:29.001Z</time></trkpt><trkpt lat="39.956106812395035" lon="9.123839289592652"><ele>513.0</ele><time>2026-05-03T09:15:30.001Z</time></trkpt><trkpt lat="39.95627353717133" lon="9.123876434754118"><ele>513.0</ele><time>2026-05-03T09:15:31.001Z</time></trkpt><trkpt lat="39.95645494438531" lon="9.123903696352803"><ele>513.0</ele><time>2026-05-03T09:15:32.001Z</time></trkpt><trkpt lat="39.956624066793886" lon="9.123930050126626"><ele>513.0</ele><time>2026-05-03T09:15:33.001Z</time></trkpt><trkpt lat="39.95679523771545" lon="9.123954861180104"><ele>509.5</ele><time>2026-05-03T09:15:34.001Z</time></trkpt><trkpt lat="39.956951927927335" lon="9.123978751194056"><ele>506.0</ele><time>2026-05-03T09:15:35.001Z</time></trkpt><trkpt lat="39.95710307354081" lon="9.123988041523607"><ele>502.5</ele><time>2026-05-03T09:15:36.001Z</time></trkpt><trkpt lat="39.95724166772874" lon="9.123977857665174"><ele>499.0</ele><time>2026-05-03T09:15:37.001Z</time></trkpt><trkpt lat="39.95736522989591" lon="9.123933968114674"><ele>499.0</ele><time>2026-05-03T09:15:38.001Z</time></trkpt><trkpt lat="39.95748412171096" lon="9.12384949593609"><ele>499.0</ele><time>2026-05-03T09:15:39.001Z</time></trkpt><trkpt lat="39.95758743873172" lon="9.123716956400067"><ele>499.0</ele><time>2026-05-03T09:15:40.001Z</time></trkpt><trkpt lat="39.95765784446983" lon="9.123555528569398"><ele>499.0</ele><time>2026-05-03T09:15:41.001Z</time></trkpt><trkpt lat="39.95768832481897" lon="9.123374114529721"><ele>488.6666666666667</ele><time>2026-05-03T09:15:42.001Z</time></trkpt><trkpt lat="39.95768179955125" lon="9.12318080065771"><ele>478.33333333333337</ele><time>2026-05-03T09:15:42.999Z</time></trkpt><trkpt lat="39.95763513262495" lon="9.122996514077716"><ele>468.0</ele><time>2026-05-03T09:15:43.999Z</time></trkpt><trkpt lat="39.9575646986781" lon="9.122800393540263"><ele>471.66666666666663</ele><time>2026-05-03T09:15:44.999Z</time></trkpt><trkpt lat="39.95749967334373" lon="9.122579758176057"><ele>475.3333333333333</ele><time>2026-05-03T09:15:45.999Z</time></trkpt><trkpt lat="39.95743505119381" lon="9.122341287678529"><ele>479.0</ele><time>2026-05-03T09:15:46.999Z</time></trkpt><trkpt lat="39.95736490962078" lon="9.12207756765782"><ele>479.0</ele><time>2026-05-03T09:15:47.999Z</time></trkpt><trkpt lat="39.95729319984573" lon="9.12181690003294"><ele>479.0</ele><time>2026-05-03T09:15:48.999Z</time></trkpt><trkpt lat="39.95721720715454" lon="9.121556124502229"><ele>479.0</ele><time>2026-05-03T09:15:49.999Z</time></trkpt><trkpt lat="39.957149537610945" lon="9.121312999179445"><ele>475.3333333333333</ele><time>2026-05-03T09:15:50.999Z</time></trkpt><trkpt lat="39.9570894241518" lon="9.121080689273743"><ele>471.66666666666663</ele><time>2026-05-03T09:15:51.999Z</time></trkpt><trkpt lat="39.95702434927494" lon="9.120864201640295"><ele>468.0</ele><time>2026-05-03T09:15:52.999Z</time></trkpt><trkpt lat="39.95695643047672" lon="9.120663076793491"><ele>468.0</ele><time>2026-05-03T09:15:53.999Z</time></trkpt><trkpt lat="39.95690266791256" lon="9.120455607237915"><ele>468.0</ele><time>2026-05-03T09:15:54.999Z</time></trkpt><trkpt lat="39.95686898374724" lon="9.120243705725116"><ele>468.0</ele><time>2026-05-03T09:15:55.999Z</time></trkpt><trkpt lat="39.95687004673266" lon="9.120024829952536"><ele>468.66666666666663</ele><time>2026-05-03T09:15:56.999Z</time></trkpt><trkpt lat="39.956917634163005" lon="9.119818673664495"><ele>469.3333333333333</ele><time>2026-05-03T09:15:57.999Z</time></trkpt><trkpt lat="39.95698118559632" lon="9.119600823194952"><ele>470.0</ele><time>2026-05-03T09:15:59Z</time></trkpt><trkpt lat="39.95706837066138" lon="9.119392794891182"><ele>470.0</ele><time>2026-05-03T09:16:00Z</time></trkpt><trkpt lat="39.957169467352905" lon="9.119182669995041"><ele>470.0</ele><time>2026-05-03T09:16:01Z</time></trkpt><trkpt lat="39.957271149987704" lon="9.118965674628445"><ele>470.0</ele><time>2026-05-03T09:16:02Z</time></trkpt><trkpt lat="39.95736624675605" lon="9.118757945412765"><ele>472.3333333333333</ele><time>2026-05-03T09:16:03Z</time></trkpt><trkpt lat="39.95745074253897" lon="9.118564638776716"><ele>474.66666666666663</ele><time>2026-05-03T09:16:04Z</time></trkpt><trkpt lat="39.957529942211366" lon="9.118367474280202"><ele>477.0</ele><time>2026-05-03T09:16:05Z</time></trkpt><trkpt lat="39.95758786767291" lon="9.118158077621416"><ele>469.0</ele><time>2026-05-03T09:16:06Z</time></trkpt><trkpt lat="39.95762280475738" lon="9.11794072951176"><ele>461.0</ele><time>2026-05-03T09:16:07Z</time></trkpt><trkpt lat="39.957632008898536" lon="9.117715955415738"><ele>453.0</ele><time>2026-05-03T09:16:08Z</time></trkpt><trkpt lat="39.95760837633483" lon="9.117490676846534"><ele>451.66666666666663</ele><time>2026-05-03T09:16:09Z</time></trkpt><trkpt lat="39.957552673269575" lon="9.117259828147366"><ele>450.3333333333333</ele><time>2026-05-03T09:16:10Z</time></trkpt><trkpt lat="39.95748191597667" lon="9.117014526900645"><ele>449.0</ele><time>2026-05-03T09:16:11Z</time></trkpt><trkpt lat="39.9574075561512" lon="9.116756131685472"><ele>456.66666666666663</ele><time>2026-05-03T09:16:12Z</time></trkpt><trkpt lat="39.95734259614084" lon="9.11651685568494"><ele>464.33333333333337</ele><time>2026-05-03T09:16:13Z</time></trkpt><trkpt lat="39.9572946303655" lon="9.116313523452328"><ele>472.0</ele><time>2026-05-03T09:16:14Z</time></trkpt><trkpt lat="39.9572670497666" lon="9.116127402370491"><ele>472.0</ele><time>2026-05-03T09:16:15Z</time></trkpt><trkpt lat="39.95727296347694" lon="9.115958757486673"><ele>472.0</ele><time>2026-05-03T09:16:16Z</time></trkpt><trkpt lat="39.9573166635194" lon="9.115802425079082"><ele>472.0</ele><time>2026-05-03T09:16:17Z</time></trkpt><trkpt lat="39.957394239396415" lon="9.115669878435734"><ele>472.0</ele><time>2026-05-03T09:16:18Z</time></trkpt><trkpt lat="39.95748826655523" lon="9.11554552316712"><ele>473.5</ele><time>2026-05-03T09:16:19Z</time></trkpt><trkpt lat="39.95760231811655" lon="9.115477234251303"><ele>475.0</ele><time>2026-05-03T09:16:20Z</time></trkpt><trkpt lat="39.9577355040404" lon="9.115445374704365"><ele>476.5</ele><time>2026-05-03T09:16:21Z</time></trkpt><trkpt lat="39.95786558245755" lon="9.115470024319059"><ele>478.0</ele><time>2026-05-03T09:16:22Z</time></trkpt><trkpt lat="39.95800184468346" lon="9.11552368442435"><ele>478.0</ele><time>2026-05-03T09:16:23Z</time></trkpt><trkpt lat="39.958134225319974" lon="9.11553877304407"><ele>478.0</ele><time>2026-05-03T09:16:24Z</time></trkpt><trkpt lat="39.958265344323735" lon="9.115496803578477"><ele>478.0</ele><time>2026-05-03T09:16:25Z</time></trkpt><trkpt lat="39.95838833313515" lon="9.115413348754998"><ele>478.0</ele><time>2026-05-03T09:16:26Z</time></trkpt><trkpt lat="39.958498227792994" lon="9.115291958104006"><ele>468.6666666666667</ele><time>2026-05-03T09:16:27Z</time></trkpt><trkpt lat="39.9585725859919" lon="9.115133574772385"><ele>459.33333333333337</ele><time>2026-05-03T09:16:28Z</time></trkpt><trkpt lat="39.9586209634807" lon="9.114948984508672"><ele>450.0</ele><time>2026-05-03T09:16:29Z</time></trkpt><trkpt lat="39.95862275651422" lon="9.114735790390808"><ele>450.33333333333337</ele><time>2026-05-03T09:16:30Z</time></trkpt><trkpt lat="39.958611500368185" lon="9.114512085006446"><ele>450.6666666666667</ele><time>2026-05-03T09:16:31Z</time></trkpt><trkpt lat="39.95860232733488" lon="9.114284262324373"><ele>451.0</ele><time>2026-05-03T09:16:32Z</time></trkpt><trkpt lat="39.95861277585749" lon="9.114063898715957"><ele>451.0</ele><time>2026-05-03T09:16:33Z</time></trkpt><trkpt lat="39.95865528178977" lon="9.113842653002523"><ele>451.0</ele><time>2026-05-03T09:16:34Z</time></trkpt><trkpt lat="39.95872858805889" lon="9.113631177517242"><ele>451.0</ele><time>2026-05-03T09:16:35Z</time></trkpt><trkpt lat="39.95883008101702" lon="9.113440195929169"><ele>451.0</ele><time>2026-05-03T09:16:36Z</time></trkpt><trkpt lat="39.958955696513364" lon="9.113250964598945"><ele>451.0</ele><time>2026-05-03T09:16:37Z</time></trkpt><trkpt lat="39.95909088771305" lon="9.113053427408186"><ele>451.0</ele><time>2026-05-03T09:16:38Z</time></trkpt><trkpt lat="39.9592236698834" lon="9.112854476030593"><ele>454.0</ele><time>2026-05-03T09:16:39Z</time></trkpt><trkpt lat="39.95937224177196" lon="9.11263110511648"><ele>457.0</ele><time>2026-05-03T09:16:40Z</time></trkpt><trkpt lat="39.95952845816966" lon="9.112401967834048"><ele>457.0</ele><time>2026-05-03T09:16:41Z</time></trkpt><trkpt lat="39.959685161132455" lon="9.112168289424968"><ele>457.0</ele><time>2026-05-03T09:16:42Z</time></trkpt><trkpt lat="39.95984818591947" lon="9.111917320000323"><ele>457.0</ele><time>2026-05-03T09:16:43Z</time></trkpt><trkpt lat="39.960024143430815" lon="9.111651285075268"><ele>457.0</ele><time>2026-05-03T09:16:44Z</time></trkpt><trkpt lat="39.96019632664494" lon="9.111391038069076"><ele>446.0</ele><time>2026-05-03T09:16:45Z</time></trkpt><trkpt lat="39.96036091705661" lon="9.111149325965826"><ele>435.0</ele><time>2026-05-03T09:16:46Z</time></trkpt><trkpt lat="39.960515099690035" lon="9.11091147634375"><ele>440.0</ele><time>2026-05-03T09:16:47Z</time></trkpt><trkpt lat="39.96065279590739" lon="9.11067227651963"><ele>445.0</ele><time>2026-05-03T09:16:48Z</time></trkpt><trkpt lat="39.960767361340565" lon="9.11041977842437"><ele>445.0</ele><time>2026-05-03T09:16:49Z</time></trkpt><trkpt lat="39.960860096919774" lon="9.110153102169999"><ele>445.0</ele><time>2026-05-03T09:16:50Z</time></trkpt><trkpt lat="39.96093931508529" lon="9.109895017181397"><ele>445.0</ele><time>2026-05-03T09:16:51Z</time></trkpt><trkpt lat="39.96101331958909" lon="9.109655177509339"><ele>440.0</ele><time>2026-05-03T09:16:52Z</time></trkpt><trkpt lat="39.96109355158048" lon="9.109451071566943"><ele>435.0</ele><time>2026-05-03T09:16:53Z</time></trkpt><trkpt lat="39.96118915670355" lon="9.10928178652584"><ele>430.0</ele><time>2026-05-03T09:16:54Z</time></trkpt><trkpt lat="39.961309422660825" lon="9.109144751056567"><ele>428.6666666666667</ele><time>2026-05-03T09:16:55Z</time></trkpt><trkpt lat="39.961451909114594" lon="9.109043774988146"><ele>427.33333333333337</ele><time>2026-05-03T09:16:56Z</time></trkpt><trkpt lat="39.96162153141194" lon="9.108974283724285"><ele>426.0</ele><time>2026-05-03T09:16:57Z</time></trkpt><trkpt lat="39.96180006077129" lon="9.10892977103614"><ele>426.0</ele><time>2026-05-03T09:16:58Z</time></trkpt><trkpt lat="39.96201418437784" lon="9.108908035325207"><ele>426.0</ele><time>2026-05-03T09:16:59Z</time></trkpt><trkpt lat="39.96223174012241" lon="9.10887741129798"><ele>426.0</ele><time>2026-05-03T09:17:00Z</time></trkpt><trkpt lat="39.96244747080521" lon="9.108845736746279"><ele>429.33333333333337</ele><time>2026-05-03T09:17:01Z</time></trkpt><trkpt lat="39.962653364767256" lon="9.108814706446609"><ele>432.6666666666667</ele><time>2026-05-03T09:17:02Z</time></trkpt><trkpt lat="39.96285208852786" lon="9.1087809332075"><ele>436.0</ele><time>2026-05-03T09:17:03Z</time></trkpt><trkpt lat="39.96303112469039" lon="9.108743794429945"><ele>436.0</ele><time>2026-05-03T09:17:04Z</time></trkpt><trkpt lat="39.963195086432755" lon="9.108695876253833"><ele>436.0</ele><time>2026-05-03T09:17:05.001Z</time></trkpt><trkpt lat="39.96334380357124" lon="9.108629360294822"><ele>436.0</ele><time>2026-05-03T09:17:06.001Z</time></trkpt><trkpt lat="39.96347042064017" lon="9.108525686253957"><ele>441.0</ele><time>2026-05-03T09:17:07.001Z</time></trkpt><trkpt lat="39.96357657835017" lon="9.108375827064046"><ele>446.0</ele><time>2026-05-03T09:17:08.001Z</time></trkpt><trkpt lat="39.963654380587165" lon="9.10819675939247"><ele>451.0</ele><time>2026-05-03T09:17:09.001Z</time></trkpt><trkpt lat="39.96369857693888" lon="9.107994228511567"><ele>452.0</ele><time>2026-05-03T09:17:10.001Z</time></trkpt><trkpt lat="39.963706777530234" lon="9.107777015680565"><ele>453.0</ele><time>2026-05-03T09:17:11.001Z</time></trkpt><trkpt lat="39.96368189153793" lon="9.107558115035856"><ele>454.0</ele><time>2026-05-03T09:17:12.001Z</time></trkpt><trkpt lat="39.96367296192882" lon="9.107334933901424"><ele>451.33333333333337</ele><time>2026-05-03T09:17:13.001Z</time></trkpt><trkpt lat="39.963702385469965" lon="9.107121897030222"><ele>448.66666666666663</ele><time>2026-05-03T09:17:14.001Z</time></trkpt><trkpt lat="39.9637598597799" lon="9.10691569213101"><ele>446.0</ele><time>2026-05-03T09:17:15.001Z</time></trkpt><trkpt lat="39.96384643339102" lon="9.106735920995131"><ele>439.66666666666663</ele><time>2026-05-03T09:17:16.001Z</time></trkpt><trkpt lat="39.963951638851476" lon="9.106568228561716"><ele>433.33333333333337</ele><time>2026-05-03T09:17:17.001Z</time></trkpt><trkpt lat="39.96409021373622" lon="9.106438386360374"><ele>427.0</ele><time>2026-05-03T09:17:18.001Z</time></trkpt><trkpt lat="39.96424050408396" lon="9.10633917992237"><ele>426.6666666666667</ele><time>2026-05-03T09:17:19.001Z</time></trkpt><trkpt lat="39.964404480770476" lon="9.106276448810805"><ele>426.33333333333337</ele><time>2026-05-03T09:17:20.001Z</time></trkpt><trkpt lat="39.964577853287814" lon="9.106256520146248"><ele>426.0</ele><time>2026-05-03T09:17:21.001Z</time></trkpt><trkpt lat="39.96475620701286" lon="9.10629140249216"><ele>426.0</ele><time>2026-05-03T09:17:22.001Z</time></trkpt><trkpt lat="39.96493722584176" lon="9.106363405179605"><ele>426.0</ele><time>2026-05-03T09:17:23.001Z</time></trkpt><trkpt lat="39.965122848196046" lon="9.106448835592788"><ele>426.0</ele><time>2026-05-03T09:17:24.001Z</time></trkpt><trkpt lat="39.96531950102944" lon="9.106538471429424"><ele>424.66666666666663</ele><time>2026-05-03T09:17:25.001Z</time></trkpt><trkpt lat="39.96552758776157" lon="9.10662708097369"><ele>423.3333333333333</ele><time>2026-05-03T09:17:26.001Z</time></trkpt><trkpt lat="39.96574128029682" lon="9.106724386160911"><ele>422.0</ele><time>2026-05-03T09:17:27.001Z</time></trkpt><trkpt lat="39.96594934542767" lon="9.10682039773909"><ele>422.0</ele><time>2026-05-03T09:17:28.001Z</time></trkpt><trkpt lat="39.9661427265204" lon="9.106905725259422"><ele>422.0</ele><time>2026-05-03T09:17:29.001Z</time></trkpt><trkpt lat="39.96632120135445" lon="9.10698762029822"><ele>422.0</ele><time>2026-05-03T09:17:30.001Z</time></trkpt><trkpt lat="39.96648653037445" lon="9.107072196639631"><ele>422.0</ele><time>2026-05-03T09:17:31.001Z</time></trkpt><trkpt lat="39.96663834641547" lon="9.107136363589994"><ele>422.0</ele><time>2026-05-03T09:17:32.001Z</time></trkpt><trkpt lat="39.96678090242438" lon="9.107178750819948"><ele>422.0</ele><time>2026-05-03T09:17:33.001Z</time></trkpt><trkpt lat="39.96691541105656" lon="9.107186107049644"><ele>422.0</ele><time>2026-05-03T09:17:34.001Z</time></trkpt><trkpt lat="39.96704952382238" lon="9.107157952284494"><ele>423.5</ele><time>2026-05-03T09:17:35.001Z</time></trkpt><trkpt lat="39.96718007426736" lon="9.10707751382803"><ele>425.0</ele><time>2026-05-03T09:17:36.001Z</time></trkpt><trkpt lat="39.96729626666603" lon="9.106961090048008"><ele>426.5</ele><time>2026-05-03T09:17:37.001Z</time></trkpt><trkpt lat="39.96739803708748" lon="9.106810220979341"><ele>428.0</ele><time>2026-05-03T09:17:38.001Z</time></trkpt><trkpt lat="39.96752125599227" lon="9.106652746740416"><ele>424.5</ele><time>2026-05-03T09:17:39.001Z</time></trkpt><trkpt lat="39.967610790046" lon="9.106492898565675"><ele>421.0</ele><time>2026-05-03T09:17:40.001Z</time></trkpt><trkpt lat="39.96770317670873" lon="9.106364059352252"><ele>417.5</ele><time>2026-05-03T09:17:41.001Z</time></trkpt><trkpt lat="39.96776572197488" lon="9.10620743865147"><ele>414.0</ele><time>2026-05-03T09:17:42.001Z</time></trkpt><trkpt lat="39.96779744932145" lon="9.106035954109757"><ele>414.0</ele><time>2026-05-03T09:17:43.001Z</time></trkpt><trkpt lat="39.967798418925284" lon="9.105859677179765"><ele>414.0</ele><time>2026-05-03T09:17:44.001Z</time></trkpt><trkpt lat="39.96775162401133" lon="9.105669511046576"><ele>414.0</ele><time>2026-05-03T09:17:45.001Z</time></trkpt><trkpt lat="39.96767661044353" lon="9.105492511681241"><ele>414.0</ele><time>2026-05-03T09:17:46.001Z</time></trkpt><trkpt lat="39.967586683162985" lon="9.105319251198544"><ele>415.33333333333337</ele><time>2026-05-03T09:17:47.001Z</time></trkpt><trkpt lat="39.967478988919765" lon="9.10514953600721"><ele>416.6666666666667</ele><time>2026-05-03T09:17:48.001Z</time></trkpt><trkpt lat="39.96739295831138" lon="9.104977599199112"><ele>418.0</ele><time>2026-05-03T09:17:48.999Z</time></trkpt><trkpt lat="39.96732041761952" lon="9.104806521534572"><ele>419.0</ele><time>2026-05-03T09:17:49.999Z</time></trkpt><trkpt lat="39.96727489868599" lon="9.104621026275414"><ele>420.0</ele><time>2026-05-03T09:17:50.999Z</time></trkpt><trkpt lat="39.9672551687155" lon="9.104430360171715"><ele>421.0</ele><time>2026-05-03T09:17:51.999Z</time></trkpt><trkpt lat="39.96725875637334" lon="9.104233131822012"><ele>422.0</ele><time>2026-05-03T09:17:52.999Z</time></trkpt><trkpt lat="39.9672876805828" lon="9.104040034508479"><ele>422.0</ele><time>2026-05-03T09:17:53.999Z</time></trkpt><trkpt lat="39.96734200889005" lon="9.103852902117742"><ele>422.0</ele><time>2026-05-03T09:17:54.999Z</time></trkpt><trkpt lat="39.9674166741093" lon="9.103680006406249"><ele>422.0</ele><time>2026-05-03T09:17:55.999Z</time></trkpt><trkpt lat="39.96752809789299" lon="9.10352932563722"><ele>423.3333333333333</ele><time>2026-05-03T09:17:56.999Z</time></trkpt><trkpt lat="39.9676554087985" lon="9.103397964118097"><ele>424.66666666666663</ele><time>2026-05-03T09:17:57.999Z</time></trkpt><trkpt lat="39.967790457903085" lon="9.103269871824816"><ele>426.0</ele><time>2026-05-03T09:17:58.999Z</time></trkpt><trkpt lat="39.967931886887165" lon="9.10313994802858"><ele>426.0</ele><time>2026-05-03T09:17:59.999Z</time></trkpt><trkpt lat="39.968077120838764" lon="9.103007021758389"><ele>426.0</ele><time>2026-05-03T09:18:00.999Z</time></trkpt><trkpt lat="39.9682204853958" lon="9.102876802729142"><ele>426.0</ele><time>2026-05-03T09:18:01.999Z</time></trkpt><trkpt lat="39.96835392696085" lon="9.102756769736306"><ele>433.5</ele><time>2026-05-03T09:18:02.999Z</time></trkpt><trkpt lat="39.96848350936605" lon="9.102640234717088"><ele>441.0</ele><time>2026-05-03T09:18:03.999Z</time></trkpt><trkpt lat="39.968597595039675" lon="9.10252916456709"><ele>448.5</ele><time>2026-05-03T09:18:04.999Z</time></trkpt><trkpt lat="39.96869569159289" lon="9.10240225153791"><ele>456.0</ele><time>2026-05-03T09:18:05.999Z</time></trkpt><trkpt lat="39.968797370912036" lon="9.102238189989926"><ele>456.0</ele><time>2026-05-03T09:18:06.999Z</time></trkpt><trkpt lat="39.968888589117654" lon="9.102062736881475"><ele>456.0</ele><time>2026-05-03T09:18:07.999Z</time></trkpt><trkpt lat="39.968907102533905" lon="9.101870521915169"><ele>456.0</ele><time>2026-05-03T09:18:08.999Z</time></trkpt><trkpt lat="39.96889760374053" lon="9.10166547761627"><ele>456.66666666666663</ele><time>2026-05-03T09:18:09.999Z</time></trkpt><trkpt lat="39.9688801739538" lon="9.101434034555385"><ele>457.3333333333333</ele><time>2026-05-03T09:18:10.999Z</time></trkpt><trkpt lat="39.968872636566786" lon="9.101189779824415"><ele>458.0</ele><time>2026-05-03T09:18:11.999Z</time></trkpt><trkpt lat="39.96886385230689" lon="9.100952893824866"><ele>456.0</ele><time>2026-05-03T09:18:12.999Z</time></trkpt><trkpt lat="39.968854159836695" lon="9.100742752777814"><ele>454.0</ele><time>2026-05-03T09:18:13.999Z</time></trkpt><trkpt lat="39.968858568129356" lon="9.100553018083227"><ele>452.0</ele><time>2026-05-03T09:18:14.999Z</time></trkpt><trkpt lat="39.968893150282646" lon="9.100372022826416"><ele>452.0</ele><time>2026-05-03T09:18:15.999Z</time></trkpt><trkpt lat="39.96898370028126" lon="9.100227488359577"><ele>452.0</ele><time>2026-05-03T09:18:16.999Z</time></trkpt><trkpt lat="39.96908505442559" lon="9.100112545099417"><ele>452.0</ele><time>2026-05-03T09:18:18Z</time></trkpt><trkpt lat="39.96920186226377" lon="9.100001400288248"><ele>452.0</ele><time>2026-05-03T09:18:19Z</time></trkpt><trkpt lat="39.969326759836974" lon="9.099883581223594"><ele>462.0</ele><time>2026-05-03T09:18:20Z</time></trkpt><trkpt lat="39.969430358078355" lon="9.099738949190016"><ele>472.0</ele><time>2026-05-03T09:18:21Z</time></trkpt><trkpt lat="39.96952525745774" lon="9.09958948848312"><ele>482.0</ele><time>2026-05-03T09:18:22Z</time></trkpt><trkpt lat="39.96959143996756" lon="9.099412967914617"><ele>482.0</ele><time>2026-05-03T09:18:23Z</time></trkpt><trkpt lat="39.96962373700891" lon="9.099222979676272"><ele>482.0</ele><time>2026-05-03T09:18:24Z</time></trkpt><trkpt lat="39.969629126581665" lon="9.099018085613054"><ele>482.0</ele><time>2026-05-03T09:18:25Z</time></trkpt><trkpt lat="39.969605820823915" lon="9.098817338017403"><ele>484.3333333333333</ele><time>2026-05-03T09:18:26Z</time></trkpt><trkpt lat="39.96954589446425" lon="9.098628763341486"><ele>486.66666666666663</ele><time>2026-05-03T09:18:27Z</time></trkpt><trkpt lat="39.96945346254615" lon="9.098452916503563"><ele>489.0</ele><time>2026-05-03T09:18:28Z</time></trkpt><trkpt lat="39.969343149902905" lon="9.098293270003891"><ele>491.66666666666663</ele><time>2026-05-03T09:18:29Z</time></trkpt><trkpt lat="39.96921997919811" lon="9.098140143301688"><ele>494.3333333333333</ele><time>2026-05-03T09:18:30Z</time></trkpt><trkpt lat="39.969080639193834" lon="9.09799163690386"><ele>497.0</ele><time>2026-05-03T09:18:31Z</time></trkpt><trkpt lat="39.96897070190119" lon="9.097829304194"><ele>492.66666666666663</ele><time>2026-05-03T09:18:32Z</time></trkpt><trkpt lat="39.96886401876229" lon="9.097671833269812"><ele>488.33333333333337</ele><time>2026-05-03T09:18:33Z</time></trkpt><trkpt lat="39.968759893980454" lon="9.097501415186162"><ele>484.0</ele><time>2026-05-03T09:18:34Z</time></trkpt><trkpt lat="39.968671636550766" lon="9.09732659682853"><ele>484.0</ele><time>2026-05-03T09:18:35Z</time></trkpt><trkpt lat="39.9686195240323" lon="9.097147597841216"><ele>484.0</ele><time>2026-05-03T09:18:36Z</time></trkpt><trkpt lat="39.9685789174454" lon="9.096961615823416"><ele>484.0</ele><time>2026-05-03T09:18:37Z</time></trkpt><trkpt lat="39.96857322163022" lon="9.096764890661131"><ele>484.0</ele><time>2026-05-03T09:18:38Z</time></trkpt><trkpt lat="39.96858816515362" lon="9.096568354065843"><ele>486.33333333333337</ele><time>2026-05-03T09:18:39Z</time></trkpt><trkpt lat="39.96862562322522" lon="9.096373107490558"><ele>488.66666666666663</ele><time>2026-05-03T09:18:40Z</time></trkpt><trkpt lat="39.96867741719508" lon="9.096164274395772"><ele>491.0</ele><time>2026-05-03T09:18:41Z</time></trkpt><trkpt lat="39.96873964214425" lon="9.095948969205525"><ele>491.0</ele><time>2026-05-03T09:18:42Z</time></trkpt><trkpt lat="39.96879681083073" lon="9.095734137206614"><ele>491.0</ele><time>2026-05-03T09:18:43Z</time></trkpt><trkpt lat="39.96885383350763" lon="9.095518417525533"><ele>491.0</ele><time>2026-05-03T09:18:44Z</time></trkpt><trkpt lat="39.968912201468555" lon="9.095295679632818"><ele>491.0</ele><time>2026-05-03T09:18:45Z</time></trkpt><trkpt lat="39.96897449965229" lon="9.09506393711011"><ele>491.0</ele><time>2026-05-03T09:18:46Z</time></trkpt><trkpt lat="39.969036648429395" lon="9.094842557343538"><ele>491.0</ele><time>2026-05-03T09:18:47Z</time></trkpt><trkpt lat="39.96909603990259" lon="9.094635598202158"><ele>490.66666666666663</ele><time>2026-05-03T09:18:48Z</time></trkpt><trkpt lat="39.96914099048208" lon="9.094429959912624"><ele>490.33333333333337</ele><time>2026-05-03T09:18:49Z</time></trkpt><trkpt lat="39.96915916635495" lon="9.094223313852225"><ele>490.0</ele><time>2026-05-03T09:18:50Z</time></trkpt><trkpt lat="39.969153614596934" lon="9.094015106520562"><ele>492.0</ele><time>2026-05-03T09:18:51Z</time></trkpt><trkpt lat="39.96910245728989" lon="9.093798102919799"><ele>494.0</ele><time>2026-05-03T09:18:52Z</time></trkpt><trkpt lat="39.96903432263739" lon="9.09356982461062"><ele>496.0</ele><time>2026-05-03T09:18:53Z</time></trkpt><trkpt lat="39.96896560689128" lon="9.09334027612825"><ele>498.6666666666667</ele><time>2026-05-03T09:18:54Z</time></trkpt><trkpt lat="39.96890818297277" lon="9.09313351418023"><ele>501.33333333333337</ele><time>2026-05-03T09:18:55Z</time></trkpt><trkpt lat="39.968851312457005" lon="9.092946997756753"><ele>504.0</ele><time>2026-05-03T09:18:56Z</time></trkpt><trkpt lat="39.96881613023075" lon="9.092757286426002"><ele>504.0</ele><time>2026-05-03T09:18:57Z</time></trkpt><trkpt lat="39.96880657131517" lon="9.09256724378538"><ele>504.0</ele><time>2026-05-03T09:18:58Z</time></trkpt><trkpt lat="39.96882961116384" lon="9.09237692534033"><ele>504.0</ele><time>2026-05-03T09:18:59Z</time></trkpt><trkpt lat="39.96888321360137" lon="9.092200184092606"><ele>504.0</ele><time>2026-05-03T09:19:00Z</time></trkpt><trkpt lat="39.96896738833957" lon="9.092042737250434"><ele>503.66666666666663</ele><time>2026-05-03T09:19:01Z</time></trkpt><trkpt lat="39.96906272687093" lon="9.09188926483692"><ele>503.3333333333333</ele><time>2026-05-03T09:19:02Z</time></trkpt><trkpt lat="39.9691757107954" lon="9.09174759772403"><ele>503.0</ele><time>2026-05-03T09:19:03Z</time></trkpt><trkpt lat="39.9692901412529" lon="9.091604021730108"><ele>502.66666666666663</ele><time>2026-05-03T09:19:04Z</time></trkpt><trkpt lat="39.96940737665029" lon="9.091473092844822"><ele>502.33333333333337</ele><time>2026-05-03T09:19:05Z</time></trkpt><trkpt lat="39.96952828952879" lon="9.091357270223654"><ele>502.0</ele><time>2026-05-03T09:19:06Z</time></trkpt><trkpt lat="39.96966553673488" lon="9.091271580648375"><ele>502.0</ele><time>2026-05-03T09:19:07Z</time></trkpt><trkpt lat="39.96979658367906" lon="9.091225480561022"><ele>502.0</ele><time>2026-05-03T09:19:08Z</time></trkpt><trkpt lat="39.969928448395784" lon="9.091216574816976"><ele>502.0</ele><time>2026-05-03T09:19:09Z</time></trkpt><trkpt lat="39.97006433117248" lon="9.09124621345737"><ele>502.0</ele><time>2026-05-03T09:19:10Z</time></trkpt><trkpt lat="39.970201894063834" lon="9.091298904771627"><ele>501.0</ele><time>2026-05-03T09:19:11Z</time></trkpt><trkpt lat="39.97034001664017" lon="9.091365136435186"><ele>500.0</ele><time>2026-05-03T09:19:12Z</time></trkpt><trkpt lat="39.97048883171402" lon="9.091438775629065"><ele>499.0</ele><time>2026-05-03T09:19:13Z</time></trkpt><trkpt lat="39.97064307443382" lon="9.091508707833148"><ele>499.0</ele><time>2026-05-03T09:19:14.001Z</time></trkpt><trkpt lat="39.970789294684224" lon="9.091576939354011"><ele>499.0</ele><time>2026-05-03T09:19:15.001Z</time></trkpt><trkpt lat="39.97092676200207" lon="9.091648375935403"><ele>499.0</ele><time>2026-05-03T09:19:16.001Z</time></trkpt><trkpt lat="39.97106440240206" lon="9.091686705825584"><ele>499.0</ele><time>2026-05-03T09:19:17.001Z</time></trkpt><trkpt lat="39.971191153595434" lon="9.09168304848332"><ele>503.0</ele><time>2026-05-03T09:19:18.001Z</time></trkpt><trkpt lat="39.9713144800714" lon="9.091648241898321"><ele>507.0</ele><time>2026-05-03T09:19:19.001Z</time></trkpt><trkpt lat="39.97143265485505" lon="9.091570531500437"><ele>511.0</ele><time>2026-05-03T09:19:20.001Z</time></trkpt><trkpt lat="39.9715355251888" lon="9.09146923830313"><ele>515.0</ele><time>2026-05-03T09:19:21.001Z</time></trkpt><trkpt lat="39.97161493812514" lon="9.091331171229006"><ele>515.0</ele><time>2026-05-03T09:19:22.001Z</time></trkpt><trkpt lat="39.97168243750191" lon="9.091153440293128"><ele>515.0</ele><time>2026-05-03T09:19:23.001Z</time></trkpt><trkpt lat="39.97173271163386" lon="9.09094922894915"><ele>515.0</ele><time>2026-05-03T09:19:24.001Z</time></trkpt><trkpt lat="39.97178744909997" lon="9.09074342670268"><ele>528.3333333333333</ele><time>2026-05-03T09:19:25.001Z</time></trkpt><trkpt lat="39.971854711663475" lon="9.09053307665079"><ele>541.6666666666666</ele><time>2026-05-03T09:19:26.001Z</time></trkpt><trkpt lat="39.971914449157254" lon="9.090329199106813"><ele>555.0</ele><time>2026-05-03T09:19:27.001Z</time></trkpt><trkpt lat="39.97196041450626" lon="9.09013004088967"><ele>555.0</ele><time>2026-05-03T09:19:28.001Z</time></trkpt><trkpt lat="39.9719774683719" lon="9.089926798720555"><ele>555.0</ele><time>2026-05-03T09:19:29.001Z</time></trkpt><trkpt lat="39.971966952356986" lon="9.089723302104067"><ele>555.0</ele><time>2026-05-03T09:19:30.001Z</time></trkpt><trkpt lat="39.97192281769258" lon="9.089519503207802"><ele>556.3333333333334</ele><time>2026-05-03T09:19:31.001Z</time></trkpt><trkpt lat="39.97185545950912" lon="9.089324133090283"><ele>557.6666666666667</ele><time>2026-05-03T09:19:32.001Z</time></trkpt><trkpt lat="39.97177637453863" lon="9.08911801890716"><ele>559.0</ele><time>2026-05-03T09:19:33.001Z</time></trkpt><trkpt lat="39.97169144922201" lon="9.088891493187871"><ele>555.3333333333334</ele><time>2026-05-03T09:19:34.001Z</time></trkpt><trkpt lat="39.971618943556265" lon="9.088677093245757"><ele>551.6666666666666</ele><time>2026-05-03T09:19:35.001Z</time></trkpt><trkpt lat="39.97155258361766" lon="9.0884366089355"><ele>548.0</ele><time>2026-05-03T09:19:36.001Z</time></trkpt><trkpt lat="39.971492095064995" lon="9.088187592128579"><ele>548.0</ele><time>2026-05-03T09:19:37.001Z</time></trkpt><trkpt lat="39.97143533138668" lon="9.087941637878174"><ele>548.0</ele><time>2026-05-03T09:19:38.001Z</time></trkpt><trkpt lat="39.97137664403549" lon="9.087690927304205"><ele>548.0</ele><time>2026-05-03T09:19:39.001Z</time></trkpt><trkpt lat="39.971297309222884" lon="9.087469725211005"><ele>551.0</ele><time>2026-05-03T09:19:40.001Z</time></trkpt><trkpt lat="39.97120341699384" lon="9.087272167801006"><ele>554.0</ele><time>2026-05-03T09:19:41.001Z</time></trkpt><trkpt lat="39.971098315163346" lon="9.087096492054163"><ele>557.0</ele><time>2026-05-03T09:19:42.001Z</time></trkpt><trkpt lat="39.97100018227575" lon="9.086922383377514"><ele>557.0</ele><time>2026-05-03T09:19:43.001Z</time></trkpt><trkpt lat="39.97092700585314" lon="9.086755404624796"><ele>557.0</ele><time>2026-05-03T09:19:44.001Z</time></trkpt><trkpt lat="39.97089110747432" lon="9.08657694466628"><ele>557.0</ele><time>2026-05-03T09:19:45.001Z</time></trkpt><trkpt lat="39.97087278234574" lon="9.086380755719007"><ele>557.0</ele><time>2026-05-03T09:19:46.001Z</time></trkpt><trkpt lat="39.97088877405823" lon="9.086205633765772"><ele>555.0</ele><time>2026-05-03T09:19:47.001Z</time></trkpt><trkpt lat="39.97093095961491" lon="9.086034004668264"><ele>553.0</ele><time>2026-05-03T09:19:48.001Z</time></trkpt><trkpt lat="39.97099610485084" lon="9.085875719429984"><ele>551.0</ele><time>2026-05-03T09:19:49.001Z</time></trkpt><trkpt lat="39.971087755783074" lon="9.085731025178818"><ele>549.0</ele><time>2026-05-03T09:19:50.001Z</time></trkpt><trkpt lat="39.97120354387608" lon="9.085612175270674"><ele>540.0</ele><time>2026-05-03T09:19:51.001Z</time></trkpt><trkpt lat="39.971335512271686" lon="9.08553327551909"><ele>531.0</ele><time>2026-05-03T09:19:52.001Z</time></trkpt><trkpt lat="39.97148162074277" lon="9.085482428419095"><ele>522.0</ele><time>2026-05-03T09:19:53.001Z</time></trkpt><trkpt lat="39.971637334907555" lon="9.085459453753794"><ele>525.6666666666666</ele><time>2026-05-03T09:19:54.001Z</time></trkpt><trkpt lat="39.9718066638048" lon="9.08543434379936"><ele>529.3333333333333</ele><time>2026-05-03T09:19:54.999Z</time></trkpt><trkpt lat="39.97199686395591" lon="9.085406524956783"><ele>533.0</ele><time>2026-05-03T09:19:55.999Z</time></trkpt><trkpt lat="39.97218072944693" lon="9.085377843629214"><ele>533.0</ele><time>2026-05-03T09:19:56.999Z</time></trkpt><trkpt lat="39.972352076454854" lon="9.08535046102419"><ele>533.0</ele><time>2026-05-03T09:19:57.999Z</time></trkpt><trkpt lat="39.97249910788206" lon="9.085311766917705"><ele>533.0</ele><time>2026-05-03T09:19:58.999Z</time></trkpt><trkpt lat="39.972626714107676" lon="9.085246945100952"><ele>536.5</ele><time>2026-05-03T09:19:59.999Z</time></trkpt><trkpt lat="39.97274663032403" lon="9.085136792904647"><ele>540.0</ele><time>2026-05-03T09:20:00.999Z</time></trkpt><trkpt lat="39.97284007562287" lon="9.084983896494386"><ele>543.5</ele><time>2026-05-03T09:20:01.999Z</time></trkpt><trkpt lat="39.97289380160004" lon="9.084801085758428"><ele>547.0</ele><time>2026-05-03T09:20:02.999Z</time></trkpt><trkpt lat="39.97296403060723" lon="9.08458453907438"><ele>547.0</ele><time>2026-05-03T09:20:03.999Z</time></trkpt><trkpt lat="39.973029598361826" lon="9.084365108946635"><ele>547.0</ele><time>2026-05-03T09:20:04.999Z</time></trkpt><trkpt lat="39.97310600724178" lon="9.084153920475197"><ele>547.0</ele><time>2026-05-03T09:20:06Z</time></trkpt><trkpt lat="39.97316780242756" lon="9.083962579559403"><ele>547.75</ele><time>2026-05-03T09:20:07Z</time></trkpt><trkpt lat="39.97320540828585" lon="9.083775374023638"><ele>548.5</ele><time>2026-05-03T09:20:08Z</time></trkpt><trkpt lat="39.97320706237733" lon="9.083587710651829"><ele>549.25</ele><time>2026-05-03T09:20:09Z</time></trkpt><trkpt lat="39.97316452127586" lon="9.083404307730287"><ele>550.0</ele><time>2026-05-03T09:20:10Z</time></trkpt><trkpt lat="39.97310207734199" lon="9.08320859467391"><ele>552.6666666666667</ele><time>2026-05-03T09:20:11Z</time></trkpt><trkpt lat="39.97302803940533" lon="9.083005648684347"><ele>555.3333333333334</ele><time>2026-05-03T09:20:12Z</time></trkpt><trkpt lat="39.97296808811332" lon="9.082817210701107"><ele>558.0</ele><time>2026-05-03T09:20:13Z</time></trkpt><trkpt lat="39.97292530799847" lon="9.08264791464055"><ele>558.0</ele><time>2026-05-03T09:20:14Z</time></trkpt><trkpt lat="39.97292717244815" lon="9.082470317350094"><ele>558.0</ele><time>2026-05-03T09:20:15Z</time></trkpt><trkpt lat="39.97295243773682" lon="9.082285441282087"><ele>558.0</ele><time>2026-05-03T09:20:16Z</time></trkpt><trkpt lat="39.97301073103455" lon="9.082104070008802"><ele>558.0</ele><time>2026-05-03T09:20:17Z</time></trkpt><trkpt lat="39.97307825660787" lon="9.081910044220571"><ele>556.6666666666666</ele><time>2026-05-03T09:20:18Z</time></trkpt><trkpt lat="39.9731455103531" lon="9.08169956267881"><ele>555.3333333333333</ele><time>2026-05-03T09:20:19Z</time></trkpt><trkpt lat="39.97320841526188" lon="9.081481393954304"><ele>554.0</ele><time>2026-05-03T09:20:20Z</time></trkpt><trkpt lat="39.973279523296895" lon="9.081241092872125"><ele>560.0</ele><time>2026-05-03T09:20:21Z</time></trkpt><trkpt lat="39.97335680207514" lon="9.080997760788543"><ele>566.0</ele><time>2026-05-03T09:20:22Z</time></trkpt><trkpt lat="39.973432289612106" lon="9.080746179383704"><ele>572.0</ele><time>2026-05-03T09:20:23Z</time></trkpt><trkpt lat="39.97351635108627" lon="9.080480798433634"><ele>572.0</ele><time>2026-05-03T09:20:24Z</time></trkpt><trkpt lat="39.973598529263086" lon="9.080216866657622"><ele>572.0</ele><time>2026-05-03T09:20:25Z</time></trkpt><trkpt lat="39.97368901319591" lon="9.07994646099508"><ele>572.0</ele><time>2026-05-03T09:20:26Z</time></trkpt><trkpt lat="39.973770144329926" lon="9.079666370345201"><ele>570.0</ele><time>2026-05-03T09:20:27Z</time></trkpt><trkpt lat="39.97385673115886" lon="9.079402876737609"><ele>568.0</ele><time>2026-05-03T09:20:28Z</time></trkpt><trkpt lat="39.97394157419272" lon="9.079150948043427"><ele>566.0</ele><time>2026-05-03T09:20:29Z</time></trkpt><trkpt lat="39.97401397029691" lon="9.078921283243762"><ele>566.0</ele><time>2026-05-03T09:20:30Z</time></trkpt><trkpt lat="39.974079289205" lon="9.0787082836417"><ele>566.0</ele><time>2026-05-03T09:20:31Z</time></trkpt><trkpt lat="39.974125805906624" lon="9.078510614008195"><ele>566.0</ele><time>2026-05-03T09:20:32Z</time></trkpt><trkpt lat="39.97414551984837" lon="9.078329362088787"><ele>570.75</ele><time>2026-05-03T09:20:33Z</time></trkpt><trkpt lat="39.974120399727575" lon="9.078159406827812"><ele>575.5</ele><time>2026-05-03T09:20:34Z</time></trkpt><trkpt lat="39.97406133271135" lon="9.078001507172186"><ele>580.25</ele><time>2026-05-03T09:20:35Z</time></trkpt><trkpt lat="39.973962655650176" lon="9.077841867789884"><ele>585.0</ele><time>2026-05-03T09:20:36Z</time></trkpt><trkpt lat="39.97385144972655" lon="9.077659934852358"><ele>585.0</ele><time>2026-05-03T09:20:37Z</time></trkpt><trkpt lat="39.97373703969761" lon="9.077471153125686"><ele>585.0</ele><time>2026-05-03T09:20:38Z</time></trkpt><trkpt lat="39.97362843220644" lon="9.077297990472088"><ele>585.0</ele><time>2026-05-03T09:20:39Z</time></trkpt><trkpt lat="39.97354502444489" lon="9.077119776174682"><ele>592.6666666666666</ele><time>2026-05-03T09:20:40Z</time></trkpt><trkpt lat="39.97349438757867" lon="9.076941831932427"><ele>600.3333333333333</ele><time>2026-05-03T09:20:41Z</time></trkpt><trkpt lat="39.973467124313956" lon="9.07674698201135"><ele>608.0</ele><time>2026-05-03T09:20:42Z</time></trkpt><trkpt lat="39.97345042745654" lon="9.076529529620075"><ele>610.6666666666666</ele><time>2026-05-03T09:20:43Z</time></trkpt><trkpt lat="39.973440301205414" lon="9.076307841287852"><ele>613.3333333333334</ele><time>2026-05-03T09:20:44Z</time></trkpt><trkpt lat="39.97341751291973" lon="9.076088893153113"><ele>616.0</ele><time>2026-05-03T09:20:45Z</time></trkpt><trkpt lat="39.973403561111375" lon="9.075885221631415"><ele>613.75</ele><time>2026-05-03T09:20:46Z</time></trkpt><trkpt lat="39.973409101704334" lon="9.075696666012696"><ele>611.5</ele><time>2026-05-03T09:20:47Z</time></trkpt><trkpt lat="39.973446042563346" lon="9.075517847151653"><ele>609.25</ele><time>2026-05-03T09:20:48Z</time></trkpt><trkpt lat="39.97350629626806" lon="9.075369539497377"><ele>607.0</ele><time>2026-05-03T09:20:49Z</time></trkpt><trkpt lat="39.97358044004833" lon="9.075253553114528"><ele>607.0</ele><time>2026-05-03T09:20:50Z</time></trkpt><trkpt lat="39.97366317937005" lon="9.075143245147224"><ele>607.0</ele><time>2026-05-03T09:20:51Z</time></trkpt><trkpt lat="39.973736757987915" lon="9.075039347379885"><ele>607.0</ele><time>2026-05-03T09:20:52Z</time></trkpt><trkpt lat="39.9738334462254" lon="9.07491182041608"><ele>607.0</ele><time>2026-05-03T09:20:53Z</time></trkpt><trkpt lat="39.973934677733716" lon="9.074777363926316"><ele>602.3333333333334</ele><time>2026-05-03T09:20:54Z</time></trkpt><trkpt lat="39.97403513176439" lon="9.074641257735431"><ele>597.6666666666666</ele><time>2026-05-03T09:20:55Z</time></trkpt><trkpt lat="39.97413175268421" lon="9.074497839825622"><ele>593.0</ele><time>2026-05-03T09:20:56Z</time></trkpt><trkpt lat="39.97423419492943" lon="9.07433300845246"><ele>604.3333333333333</ele><time>2026-05-03T09:20:57Z</time></trkpt><trkpt lat="39.97432877162473" lon="9.074157016795263"><ele>615.6666666666666</ele><time>2026-05-03T09:20:58Z</time></trkpt><trkpt lat="39.974421326816724" lon="9.073979199835337"><ele>627.0</ele><time>2026-05-03T09:20:59Z</time></trkpt><trkpt lat="39.974500815898445" lon="9.073790419722167"><ele>627.0</ele><time>2026-05-03T09:21:00Z</time></trkpt><trkpt lat="39.974558384821385" lon="9.073587146126645"><ele>627.0</ele><time>2026-05-03T09:21:01Z</time></trkpt><trkpt lat="39.97460504562937" lon="9.073377288804766"><ele>627.0</ele><time>2026-05-03T09:21:02Z</time></trkpt><trkpt lat="39.97463176220371" lon="9.073149161882853"><ele>625.6666666666666</ele><time>2026-05-03T09:21:03Z</time></trkpt><trkpt lat="39.97465860419013" lon="9.072921866085327"><ele>624.3333333333333</ele><time>2026-05-03T09:21:04.001Z</time></trkpt><trkpt lat="39.9746855696004" lon="9.072685157625415"><ele>623.0</ele><time>2026-05-03T09:21:05.001Z</time></trkpt><trkpt lat="39.97471742147127" lon="9.07244104022163"><ele>622.0</ele><time>2026-05-03T09:21:06.001Z</time></trkpt><trkpt lat="39.97474858796822" lon="9.072200656623654"><ele>621.0</ele><time>2026-05-03T09:21:07.001Z</time></trkpt><trkpt lat="39.97477605795365" lon="9.071956826834638"><ele>620.0</ele><time>2026-05-03T09:21:08.001Z</time></trkpt><trkpt lat="39.9748216291028" lon="9.071733672817771"><ele>618.0</ele><time>2026-05-03T09:21:09.001Z</time></trkpt><trkpt lat="39.97488020478837" lon="9.071529299053568"><ele>616.0</ele><time>2026-05-03T09:21:10.001Z</time></trkpt><trkpt lat="39.97494800484674" lon="9.071331693203568"><ele>614.0</ele><time>2026-05-03T09:21:11.001Z</time></trkpt><trkpt lat="39.975020097267894" lon="9.071154124472612"><ele>616.25</ele><time>2026-05-03T09:21:12.001Z</time></trkpt><trkpt lat="39.97509971075946" lon="9.07100212099066"><ele>618.5</ele><time>2026-05-03T09:21:13.001Z</time></trkpt><trkpt lat="39.975188189636015" lon="9.070878356258666"><ele>620.75</ele><time>2026-05-03T09:21:14.001Z</time></trkpt><trkpt lat="39.97530008955968" lon="9.070781923749417"><ele>623.0</ele><time>2026-05-03T09:21:15.001Z</time></trkpt><trkpt lat="39.975425169304344" lon="9.070708772525757"><ele>618.0</ele><time>2026-05-03T09:21:16.001Z</time></trkpt><trkpt lat="39.975565424589895" lon="9.070650371530146"><ele>613.0</ele><time>2026-05-03T09:21:17.001Z</time></trkpt><trkpt lat="39.97571728493905" lon="9.070575343655625"><ele>608.0</ele><time>2026-05-03T09:21:18.001Z</time></trkpt><trkpt lat="39.97587705042939" lon="9.07050826374784"><ele>608.0</ele><time>2026-05-03T09:21:19.001Z</time></trkpt><trkpt lat="39.97603027488566" lon="9.070453800629469"><ele>608.0</ele><time>2026-05-03T09:21:20.001Z</time></trkpt><trkpt lat="39.97618387254094" lon="9.070397529975489"><ele>608.0</ele><time>2026-05-03T09:21:21.001Z</time></trkpt><trkpt lat="39.97635698268653" lon="9.070333948462647"><ele>608.0</ele><time>2026-05-03T09:21:22.001Z</time></trkpt><trkpt lat="39.976511596697385" lon="9.070269608930213"><ele>608.0</ele><time>2026-05-03T09:21:23.001Z</time></trkpt><trkpt lat="39.976647689193655" lon="9.070198986376216"><ele>608.0</ele><time>2026-05-03T09:21:24.001Z</time></trkpt><trkpt lat="39.976762936664564" lon="9.070100932628117"><ele>608.0</ele><time>2026-05-03T09:21:25.001Z</time></trkpt><trkpt lat="39.97686359609853" lon="9.0699761929247"><ele>610.6666666666666</ele><time>2026-05-03T09:21:26.001Z</time></trkpt><trkpt lat="39.97694077353813" lon="9.069818658089428"><ele>613.3333333333334</ele><time>2026-05-03T09:21:27.001Z</time></trkpt><trkpt lat="39.976986742026575" lon="9.069627864930714"><ele>616.0</ele><time>2026-05-03T09:21:28.001Z</time></trkpt><trkpt lat="39.97701467028141" lon="9.069430019433984"><ele>616.0</ele><time>2026-05-03T09:21:29.001Z</time></trkpt><trkpt lat="39.97703231986684" lon="9.069249236675246"><ele>616.0</ele><time>2026-05-03T09:21:30.001Z</time></trkpt><trkpt lat="39.977059882429856" lon="9.069082397363019"><ele>616.0</ele><time>2026-05-03T09:21:31.001Z</time></trkpt><trkpt lat="39.97710810484938" lon="9.068939088139313"><ele>616.0</ele><time>2026-05-03T09:21:32.001Z</time></trkpt><trkpt lat="39.97718053136608" lon="9.06882061382931"><ele>612.75</ele><time>2026-05-03T09:21:33.001Z</time></trkpt><trkpt lat="39.977281111069445" lon="9.06871345361401"><ele>609.5</ele><time>2026-05-03T09:21:34.001Z</time></trkpt><trkpt lat="39.97740991654809" lon="9.068639016339576"><ele>606.25</ele><time>2026-05-03T09:21:35.001Z</time></trkpt><trkpt lat="39.97755324431971" lon="9.068597434175203"><ele>603.0</ele><time>2026-05-03T09:21:36.001Z</time></trkpt><trkpt lat="39.977707803919714" lon="9.068545036499897"><ele>603.0</ele><time>2026-05-03T09:21:37.001Z</time></trkpt><trkpt lat="39.977881302123045" lon="9.068496858951214"><ele>603.0</ele><time>2026-05-03T09:21:38.001Z</time></trkpt><trkpt lat="39.97805825893603" lon="9.068379483838417"><ele>603.0</ele><time>2026-05-03T09:21:39.001Z</time></trkpt><trkpt lat="39.97819836137307" lon="9.068230271696253"><ele>599.5</ele><time>2026-05-03T09:21:40.001Z</time></trkpt><trkpt lat="39.97834025361665" lon="9.068132107491273"><ele>596.0</ele><time>2026-05-03T09:21:41.001Z</time></trkpt><trkpt lat="39.97846975966983" lon="9.06807679205427"><ele>592.5</ele><time>2026-05-03T09:21:42.001Z</time></trkpt><trkpt lat="39.978596128297035" lon="9.068064221554213"><ele>589.0</ele><time>2026-05-03T09:21:43.001Z</time></trkpt><trkpt lat="39.97871606500018" lon="9.06809499778267"><ele>589.0</ele><time>2026-05-03T09:21:44.001Z</time></trkpt><trkpt lat="39.97882576020293" lon="9.068167745622096"><ele>589.0</ele><time>2026-05-03T09:21:45.001Z</time></trkpt><trkpt lat="39.97892183432658" lon="9.068279543515084"><ele>589.0</ele><time>2026-05-03T09:21:46.001Z</time></trkpt><trkpt lat="39.978990425248234" lon="9.068416026545028"><ele>589.0</ele><time>2026-05-03T09:21:47.001Z</time></trkpt><trkpt lat="39.97902763829037" lon="9.06856609229721"><ele>589.75</ele><time>2026-05-03T09:21:48.001Z</time></trkpt><trkpt lat="39.979024644832755" lon="9.068727083509259"><ele>590.5</ele><time>2026-05-03T09:21:49.001Z</time></trkpt><trkpt lat="39.97897770418371" lon="9.068906694661079"><ele>591.25</ele><time>2026-05-03T09:21:50.001Z</time></trkpt><trkpt lat="39.978931239369786" lon="9.069120312872094"><ele>592.0</ele><time>2026-05-03T09:21:51.001Z</time></trkpt><trkpt lat="39.97888536666766" lon="9.06933946639237"><ele>592.0</ele><time>2026-05-03T09:21:52.001Z</time></trkpt><trkpt lat="39.978853890184595" lon="9.069571664554829"><ele>592.0</ele><time>2026-05-03T09:21:53.001Z</time></trkpt><trkpt lat="39.97881052950636" lon="9.069779568380763"><ele>592.0</ele><time>2026-05-03T09:21:54.001Z</time></trkpt><trkpt lat="39.97876363225188" lon="9.069956056807563"><ele>590.0</ele><time>2026-05-03T09:21:55.001Z</time></trkpt><trkpt lat="39.978757529025145" lon="9.070138652307172"><ele>588.0</ele><time>2026-05-03T09:21:56.001Z</time></trkpt><trkpt lat="39.97879002951828" lon="9.07034841514347"><ele>586.0</ele><time>2026-05-03T09:21:57.001Z</time></trkpt><trkpt lat="39.97888049237334" lon="9.070528799939996"><ele>586.0</ele><time>2026-05-03T09:21:58.001Z</time></trkpt><trkpt lat="39.978968812336525" lon="9.070720432987075"><ele>586.0</ele><time>2026-05-03T09:21:59.001Z</time></trkpt><trkpt lat="39.97905263971854" lon="9.070915378629431"><ele>586.0</ele><time>2026-05-03T09:22:00.001Z</time></trkpt><trkpt lat="39.979161194940495" lon="9.07109638529964"><ele>581.0</ele><time>2026-05-03T09:22:01Z</time></trkpt><trkpt lat="39.97922838704236" lon="9.071270140621547"><ele>576.0</ele><time>2026-05-03T09:22:02Z</time></trkpt><trkpt lat="39.97932204880898" lon="9.071402512476512"><ele>571.0</ele><time>2026-05-03T09:22:03Z</time></trkpt><trkpt lat="39.979441920980406" lon="9.071503512136735"><ele>566.0</ele><time>2026-05-03T09:22:04Z</time></trkpt><trkpt lat="39.97959291358402" lon="9.071564222724746"><ele>564.3333333333333</ele><time>2026-05-03T09:22:05Z</time></trkpt><trkpt lat="39.97976504352413" lon="9.07161055922281"><ele>562.6666666666666</ele><time>2026-05-03T09:22:06Z</time></trkpt><trkpt lat="39.97992051338022" lon="9.071658200175763"><ele>561.0</ele><time>2026-05-03T09:22:07Z</time></trkpt><trkpt lat="39.98007281063003" lon="9.071731830862413"><ele>561.0</ele><time>2026-05-03T09:22:08Z</time></trkpt><trkpt lat="39.980227898019784" lon="9.07187465977334"><ele>561.0</ele><time>2026-05-03T09:22:09Z</time></trkpt><trkpt lat="39.98038337985874" lon="9.072034829443911"><ele>561.0</ele><time>2026-05-03T09:22:10Z</time></trkpt><trkpt lat="39.980528212078546" lon="9.072192260929375"><ele>561.0</ele><time>2026-05-03T09:22:11Z</time></trkpt><trkpt lat="39.98066788906597" lon="9.07233993786831"><ele>561.0</ele><time>2026-05-03T09:22:12Z</time></trkpt><trkpt lat="39.980805109336046" lon="9.072475787157726"><ele>561.0</ele><time>2026-05-03T09:22:13Z</time></trkpt><trkpt lat="39.98094074037412" lon="9.07260577854843"><ele>560.3333333333334</ele><time>2026-05-03T09:22:14Z</time></trkpt><trkpt lat="39.981084623526556" lon="9.072713088533643"><ele>559.6666666666667</ele><time>2026-05-03T09:22:15Z</time></trkpt><trkpt lat="39.981243834456336" lon="9.072789116346224"><ele>559.0</ele><time>2026-05-03T09:22:16Z</time></trkpt><trkpt lat="39.98142214804417" lon="9.072838787968035"><ele>559.0</ele><time>2026-05-03T09:22:17Z</time></trkpt><trkpt lat="39.981611175890265" lon="9.072872694426005"><ele>559.0</ele><time>2026-05-03T09:22:18Z</time></trkpt><trkpt lat="39.98178971522856" lon="9.072906510901763"><ele>559.0</ele><time>2026-05-03T09:22:19Z</time></trkpt><trkpt lat="39.981956818315226" lon="9.07294052976821"><ele>557.0</ele><time>2026-05-03T09:22:20Z</time></trkpt><trkpt lat="39.982122644188806" lon="9.072971881430027"><ele>555.0</ele><time>2026-05-03T09:22:21Z</time></trkpt><trkpt lat="39.98228196627318" lon="9.073005657898708"><ele>553.0</ele><time>2026-05-03T09:22:22Z</time></trkpt><trkpt lat="39.98242987743863" lon="9.073045918792072"><ele>550.25</ele><time>2026-05-03T09:22:23Z</time></trkpt><trkpt lat="39.98255901260029" lon="9.073112241361187"><ele>547.5</ele><time>2026-05-03T09:22:24Z</time></trkpt><trkpt lat="39.982678351555535" lon="9.073210070877513"><ele>544.75</ele><time>2026-05-03T09:22:25Z</time></trkpt><trkpt lat="39.98277837321128" lon="9.07335528469471"><ele>542.0</ele><time>2026-05-03T09:22:26Z</time></trkpt><trkpt lat="39.98286378472852" lon="9.073546125027734"><ele>542.0</ele><time>2026-05-03T09:22:27Z</time></trkpt><trkpt lat="39.98297864199617" lon="9.073759836371982"><ele>542.0</ele><time>2026-05-03T09:22:28Z</time></trkpt><trkpt lat="39.983084071934364" lon="9.073968099029761"><ele>542.0</ele><time>2026-05-03T09:22:29Z</time></trkpt><trkpt lat="39.98318432342884" lon="9.074168685603881"><ele>543.3333333333333</ele><time>2026-05-03T09:22:30Z</time></trkpt><trkpt lat="39.98328476947965" lon="9.074372835501617"><ele>544.6666666666666</ele><time>2026-05-03T09:22:31Z</time></trkpt><trkpt lat="39.98339710663293" lon="9.074594528294975"><ele>546.0</ele><time>2026-05-03T09:22:32Z</time></trkpt><trkpt lat="39.98351124640892" lon="9.074826225814103"><ele>543.6666666666666</ele><time>2026-05-03T09:22:33Z</time></trkpt><trkpt lat="39.9836245299124" lon="9.075059852609472"><ele>541.3333333333333</ele><time>2026-05-03T09:22:34Z</time></trkpt><trkpt lat="39.983737330350365" lon="9.075292526383096"><ele>539.0</ele><time>2026-05-03T09:22:35Z</time></trkpt><trkpt lat="39.983848629159624" lon="9.075521428727814"><ele>539.0</ele><time>2026-05-03T09:22:36Z</time></trkpt><trkpt lat="39.98396078692563" lon="9.075747362623908"><ele>539.0</ele><time>2026-05-03T09:22:37Z</time></trkpt><trkpt lat="39.98407251121639" lon="9.075968662783016"><ele>539.0</ele><time>2026-05-03T09:22:38Z</time></trkpt><trkpt lat="39.98417998688716" lon="9.076180265855687"><ele>536.3333333333333</ele><time>2026-05-03T09:22:39.001Z</time></trkpt><trkpt lat="39.98427798902311" lon="9.076380528716529"><ele>533.6666666666666</ele><time>2026-05-03T09:22:40.001Z</time></trkpt><trkpt lat="39.98437093727206" lon="9.0765694109359"><ele>531.0</ele><time>2026-05-03T09:22:41.001Z</time></trkpt><trkpt lat="39.98445610129574" lon="9.07673372833286"><ele>531.0</ele><time>2026-05-03T09:22:42.001Z</time></trkpt><trkpt lat="39.98455644255165" lon="9.076878342777743"><ele>531.0</ele><time>2026-05-03T09:22:43.001Z</time></trkpt><trkpt lat="39.984674135209715" lon="9.076995911357402"><ele>531.0</ele><time>2026-05-03T09:22:44.001Z</time></trkpt><trkpt lat="39.98482407833165" lon="9.077064710964835"><ele>531.0</ele><time>2026-05-03T09:22:45.001Z</time></trkpt><trkpt lat="39.98498443437012" lon="9.077130836362889"><ele>531.0</ele><time>2026-05-03T09:22:46.001Z</time></trkpt><trkpt lat="39.98514045277084" lon="9.077164802540354"><ele>531.0</ele><time>2026-05-03T09:22:47.001Z</time></trkpt><trkpt lat="39.98529676249138" lon="9.077206916079245"><ele>528.5</ele><time>2026-05-03T09:22:48.001Z</time></trkpt><trkpt lat="39.98544163995595" lon="9.077232385789877"><ele>526.0</ele><time>2026-05-03T09:22:49.001Z</time></trkpt><trkpt lat="39.98558111446865" lon="9.077225272041986"><ele>523.5</ele><time>2026-05-03T09:22:50.001Z</time></trkpt><trkpt lat="39.98571592785367" lon="9.07719734707652"><ele>521.0</ele><time>2026-05-03T09:22:51.001Z</time></trkpt><trkpt lat="39.985843752744664" lon="9.07714466740744"><ele>520.25</ele><time>2026-05-03T09:22:52.001Z</time></trkpt><trkpt lat="39.98596114463256" lon="9.077067879973045"><ele>519.5</ele><time>2026-05-03T09:22:53.001Z</time></trkpt><trkpt lat="39.986062451376604" lon="9.076964897552488"><ele>518.75</ele><time>2026-05-03T09:22:54.001Z</time></trkpt><trkpt lat="39.98615024220606" lon="9.076844354783303"><ele>518.0</ele><time>2026-05-03T09:22:55.001Z</time></trkpt><trkpt lat="39.98622598505676" lon="9.07670857814581"><ele>516.25</ele><time>2026-05-03T09:22:56.001Z</time></trkpt><trkpt lat="39.986296161524216" lon="9.07656790217367"><ele>514.5</ele><time>2026-05-03T09:22:57.001Z</time></trkpt><trkpt lat="39.98635866241389" lon="9.07642331299891"><ele>512.75</ele><time>2026-05-03T09:22:58.001Z</time></trkpt><trkpt lat="39.98641915389761" lon="9.076280286132913"><ele>511.0</ele><time>2026-05-03T09:22:59.001Z</time></trkpt><trkpt lat="39.98648221087641" lon="9.076139466794928"><ele>511.0</ele><time>2026-05-03T09:23:00.001Z</time></trkpt><trkpt lat="39.986543630434554" lon="9.076001311259247"><ele>511.0</ele><time>2026-05-03T09:23:01.001Z</time></trkpt><trkpt lat="39.98660244430779" lon="9.075863347356481"><ele>511.0</ele><time>2026-05-03T09:23:02.001Z</time></trkpt><trkpt lat="39.98665966196109" lon="9.075727027000646"><ele>511.0</ele><time>2026-05-03T09:23:03.001Z</time></trkpt><trkpt lat="39.98671496071382" lon="9.07559087590456"><ele>509.0</ele><time>2026-05-03T09:23:04.001Z</time></trkpt><trkpt lat="39.98676888841665" lon="9.075456582390476"><ele>507.0</ele><time>2026-05-03T09:23:05.001Z</time></trkpt><trkpt lat="39.98682338736907" lon="9.075325883133944"><ele>505.0</ele><time>2026-05-03T09:23:06.001Z</time></trkpt><trkpt lat="39.986878245346" lon="9.075197055728163"><ele>503.0</ele><time>2026-05-03T09:23:07.001Z</time></trkpt><trkpt lat="39.98693068751375" lon="9.07507236565175"><ele>503.0</ele><time>2026-05-03T09:23:08.001Z</time></trkpt><trkpt lat="39.9869845038793" lon="9.074948799316008"><ele>502.99999999999994</ele><time>2026-05-03T09:23:09.001Z</time></trkpt><trkpt lat="39.98703613737358" lon="9.074825599342628"><ele>502.99999999999994</ele><time>2026-05-03T09:23:10.001Z</time></trkpt><trkpt lat="39.98709098073248" lon="9.074700234495383"><ele>503.0</ele><time>2026-05-03T09:23:11.001Z</time></trkpt><trkpt lat="39.987144360247015" lon="9.074574411855858"><ele>503.0</ele><time>2026-05-03T09:23:12.001Z</time></trkpt><trkpt lat="39.9871971965285" lon="9.0744469897266"><ele>502.75</ele><time>2026-05-03T09:23:13.001Z</time></trkpt><trkpt lat="39.9872526133524" lon="9.074314048533521"><ele>502.5</ele><time>2026-05-03T09:23:14.001Z</time></trkpt><trkpt lat="39.98731172928831" lon="9.0741775995865"><ele>502.25</ele><time>2026-05-03T09:23:15.001Z</time></trkpt><trkpt lat="39.9873721585844" lon="9.0740349837001"><ele>502.0</ele><time>2026-05-03T09:23:16.001Z</time></trkpt><trkpt lat="39.98743020855722" lon="9.073898083632916"><ele>502.40000000000003</ele><time>2026-05-03T09:23:17.001Z</time></trkpt><trkpt lat="39.987484337496234" lon="9.073768011254243"><ele>502.80000000000007</ele><time>2026-05-03T09:23:18.001Z</time></trkpt><trkpt lat="39.98753726179832" lon="9.073638448659132"><ele>503.2</ele><time>2026-05-03T09:23:19.001Z</time></trkpt><trkpt lat="39.98758714228436" lon="9.073517661641839"><ele>503.6</ele><time>2026-05-03T09:23:20.001Z</time></trkpt><trkpt lat="39.98764820190104" lon="9.07339766582104"><ele>504.0</ele><time>2026-05-03T09:23:21.001Z</time></trkpt><trkpt lat="39.987718648441955" lon="9.073291296811984"><ele>507.79999999999995</ele><time>2026-05-03T09:23:22.001Z</time></trkpt><trkpt lat="39.98777265111505" lon="9.07319296864668"><ele>511.59999999999997</ele><time>2026-05-03T09:23:23.001Z</time></trkpt><trkpt lat="39.987877861866274" lon="9.073163724225434"><ele>515.4</ele><time>2026-05-03T09:23:24.001Z</time></trkpt><trkpt lat="39.98795524317007" lon="9.07314476771158"><ele>519.1999999999999</ele><time>2026-05-03T09:23:25.001Z</time></trkpt><trkpt lat="39.988041201984785" lon="9.073148221994092"><ele>523.0</ele><time>2026-05-03T09:23:26.001Z</time></trkpt><trkpt lat="39.98812921002745" lon="9.073157353895713"><ele>523.0</ele><time>2026-05-03T09:23:27.001Z</time></trkpt><trkpt lat="39.988206125434466" lon="9.073246836697443"><ele>523.0</ele><time>2026-05-03T09:23:28.001Z</time></trkpt><trkpt lat="39.98827239378214" lon="9.073349592294118"><ele>523.0</ele><time>2026-05-03T09:23:29.001Z</time></trkpt><trkpt lat="39.98832323446195" lon="9.073464781694893"><ele>523.0</ele><time>2026-05-03T09:23:30.001Z</time></trkpt><trkpt lat="39.98835949231983" lon="9.073579986978201"><ele>523.0</ele><time>2026-05-03T09:23:31.001Z</time></trkpt><trkpt lat="39.98836440014391" lon="9.073698593442215"><ele>521.8</ele><time>2026-05-03T09:23:32.001Z</time></trkpt><trkpt lat="39.98834139439053" lon="9.073807755590245"><ele>520.5999999999999</ele><time>2026-05-03T09:23:33.001Z</time></trkpt><trkpt lat="39.98831832578619" lon="9.0739232268955"><ele>519.4000000000001</ele><time>2026-05-03T09:23:34.001Z</time></trkpt><trkpt lat="39.98832076859843" lon="9.074041327458618"><ele>518.2</ele><time>2026-05-03T09:23:35.001Z</time></trkpt><trkpt lat="39.98834313455459" lon="9.074159300235781"><ele>517.0</ele><time>2026-05-03T09:23:36.001Z</time></trkpt><trkpt lat="39.98838828937179" lon="9.07427453815394"><ele>519.8000000000001</ele><time>2026-05-03T09:23:37.001Z</time></trkpt><trkpt lat="39.9884478734841" lon="9.074388600877311"><ele>522.6</ele><time>2026-05-03T09:23:38.001Z</time></trkpt><trkpt lat="39.98852064382779" lon="9.074490057662528"><ele>525.4000000000001</ele><time>2026-05-03T09:23:39.001Z</time></trkpt><trkpt lat="39.98860823423493" lon="9.074572249997013"><ele>528.2</ele><time>2026-05-03T09:23:40.002Z</time></trkpt><trkpt lat="39.98870560902959" lon="9.074631673879072"><ele>531.0</ele><time>2026-05-03T09:23:41.002Z</time></trkpt><trkpt lat="39.98880602895379" lon="9.074677758868765"><ele>531.0</ele><time>2026-05-03T09:23:42.002Z</time></trkpt><trkpt lat="39.98890711594505" lon="9.074734800458891"><ele>531.0</ele><time>2026-05-03T09:23:43.002Z</time></trkpt><trkpt lat="39.98900763933473" lon="9.074773927057814"><ele>531.0</ele><time>2026-05-03T09:23:44.002Z</time></trkpt><trkpt lat="39.9891028648888" lon="9.074836319553885"><ele>531.0</ele><time>2026-05-03T09:23:45.002Z</time></trkpt><trkpt lat="39.98920170088008" lon="9.074894843928751"><ele>531.0</ele><time>2026-05-03T09:23:46.002Z</time></trkpt><trkpt lat="39.98930650373816" lon="9.074956496810138"><ele>531.6</ele><time>2026-05-03T09:23:47.002Z</time></trkpt><trkpt lat="39.98940466733433" lon="9.075013122631345"><ele>532.2</ele><time>2026-05-03T09:23:48.002Z</time></trkpt><trkpt lat="39.989503263857586" lon="9.075071838374551"><ele>532.8</ele><time>2026-05-03T09:23:49.002Z</time></trkpt><trkpt lat="39.9895940737883" lon="9.075132041963553"><ele>533.4</ele><time>2026-05-03T09:23:50.002Z</time></trkpt><trkpt lat="39.989672561365" lon="9.075201013700953"><ele>534.0</ele><time>2026-05-03T09:23:51.002Z</time></trkpt><trkpt lat="39.98974279959979" lon="9.075284293942541"><ele>534.0</ele><time>2026-05-03T09:23:52.002Z</time></trkpt><trkpt lat="39.989816008625255" lon="9.075372595803723"><ele>534.0</ele><time>2026-05-03T09:23:53.002Z</time></trkpt><trkpt lat="39.98988798217098" lon="9.075476684534005"><ele>534.0</ele><time>2026-05-03T09:23:54.002Z</time></trkpt><trkpt lat="39.98996014988071" lon="9.075583393515378"><ele>534.0</ele><time>2026-05-03T09:23:55.002Z</time></trkpt><trkpt lat="39.990037431945765" lon="9.075692178842049"><ele>534.0</ele><time>2026-05-03T09:23:56.002Z</time></trkpt><trkpt lat="39.99011272616394" lon="9.07580373913936"><ele>535.25</ele><time>2026-05-03T09:23:57.002Z</time></trkpt><trkpt lat="39.9901903194916" lon="9.07591435361538"><ele>536.5</ele><time>2026-05-03T09:23:58.002Z</time></trkpt><trkpt lat="39.99026448432736" lon="9.076023103915007"><ele>537.75</ele><time>2026-05-03T09:23:59.002Z</time></trkpt><trkpt lat="39.99033948842778" lon="9.076134008392795"><ele>539.0</ele><time>2026-05-03T09:24:00.002Z</time></trkpt><trkpt lat="39.99041322183684" lon="9.076243163230975"><ele>539.0</ele><time>2026-05-03T09:24:01.002Z</time></trkpt><trkpt lat="39.990491539441514" lon="9.076332237930549"><ele>539.0</ele><time>2026-05-03T09:24:02.002Z</time></trkpt><trkpt lat="39.99058062749827" lon="9.076394081282347"><ele>539.0</ele><time>2026-05-03T09:24:03.002Z</time></trkpt><trkpt lat="39.99066513978583" lon="9.076430080588416"><ele>539.0</ele><time>2026-05-03T09:24:04.002Z</time></trkpt><trkpt lat="39.99074913824449" lon="9.076456643176696"><ele>539.0</ele><time>2026-05-03T09:24:05.002Z</time></trkpt><trkpt lat="39.99083247069432" lon="9.07646810323381"><ele>540.8</ele><time>2026-05-03T09:24:06.002Z</time></trkpt><trkpt lat="39.990921500159914" lon="9.07648101035142"><ele>542.5999999999999</ele><time>2026-05-03T09:24:07Z</time></trkpt><trkpt lat="39.99101912853419" lon="9.076512092701213"><ele>544.4</ele><time>2026-05-03T09:24:08Z</time></trkpt><trkpt lat="39.99111223092929" lon="9.076527898411534"><ele>546.1999999999999</ele><time>2026-05-03T09:24:09Z</time></trkpt><trkpt lat="39.99120069391106" lon="9.076527938893042"><ele>548.0</ele><time>2026-05-03T09:24:10Z</time></trkpt><trkpt lat="39.991298415301564" lon="9.07652347522023"><ele>548.0</ele><time>2026-05-03T09:24:11Z</time></trkpt><trkpt lat="39.9913959214363" lon="9.076508645619207"><ele>548.0</ele><time>2026-05-03T09:24:12Z</time></trkpt><trkpt lat="39.99149986920931" lon="9.076495838749688"><ele>548.0</ele><time>2026-05-03T09:24:13Z</time></trkpt><trkpt lat="39.991598263711786" lon="9.076482318574673"><ele>548.0</ele><time>2026-05-03T09:24:14Z</time></trkpt><trkpt lat="39.99169384069049" lon="9.07647420801249"><ele>548.0</ele><time>2026-05-03T09:24:15Z</time></trkpt><trkpt lat="39.99178629719616" lon="9.076467225601387"><ele>549.6</ele><time>2026-05-03T09:24:16Z</time></trkpt><trkpt lat="39.99187746261663" lon="9.076465082094574"><ele>551.1999999999999</ele><time>2026-05-03T09:24:17Z</time></trkpt><trkpt lat="39.99196832745102" lon="9.076457922479626"><ele>552.8</ele><time>2026-05-03T09:24:18Z</time></trkpt><trkpt lat="39.992060993461216" lon="9.076451592639742"><ele>554.4</ele><time>2026-05-03T09:24:19Z</time></trkpt><trkpt lat="39.99215446821241" lon="9.076441941069271"><ele>556.0</ele><time>2026-05-03T09:24:20Z</time></trkpt><trkpt lat="39.99225143851233" lon="9.07642923299833"><ele>556.0</ele><time>2026-05-03T09:24:21Z</time></trkpt><trkpt lat="39.992346925993445" lon="9.076416024818359"><ele>556.0</ele><time>2026-05-03T09:24:22Z</time></trkpt><trkpt lat="39.99244464500058" lon="9.076403837086675"><ele>556.0</ele><time>2026-05-03T09:24:23Z</time></trkpt><trkpt lat="39.99254609206727" lon="9.076399847670242"><ele>556.0</ele><time>2026-05-03T09:24:24Z</time></trkpt><trkpt lat="39.992640644326244" lon="9.076397185976173"><ele>556.0</ele><time>2026-05-03T09:24:25Z</time></trkpt><trkpt lat="39.99272621794301" lon="9.076420633697623"><ele>556.0</ele><time>2026-05-03T09:24:26Z</time></trkpt><trkpt lat="39.99280513894783" lon="9.076454297102947"><ele>556.0</ele><time>2026-05-03T09:24:27Z</time></trkpt><trkpt lat="39.99287956327064" lon="9.076502756742446"><ele>556.0</ele><time>2026-05-03T09:24:28Z</time></trkpt><trkpt lat="39.992944641215814" lon="9.076555168675098"><ele>556.0</ele><time>2026-05-03T09:24:29Z</time></trkpt><trkpt lat="39.993001725620374" lon="9.07659842912541"><ele>556.0</ele><time>2026-05-03T09:24:30Z</time></trkpt><trkpt lat="39.99305854983919" lon="9.076637047508028"><ele>556.0</ele><time>2026-05-03T09:24:31Z</time></trkpt><trkpt lat="39.993122053796775" lon="9.076679035577714"><ele>556.0</ele><time>2026-05-03T09:24:32Z</time></trkpt><trkpt lat="39.99319058070638" lon="9.076724275272056"><ele>556.0</ele><time>2026-05-03T09:24:33Z</time></trkpt><trkpt lat="39.993258115197776" lon="9.076761812058523"><ele>556.0</ele><time>2026-05-03T09:24:34Z</time></trkpt><trkpt lat="39.993320389116974" lon="9.076795406117373"><ele>556.0</ele><time>2026-05-03T09:24:35Z</time></trkpt><trkpt lat="39.99342908322857" lon="9.07684892943986"><ele>556.0</ele><time>2026-05-03T09:24:37.001Z</time></trkpt><trkpt lat="39.99353234271336" lon="9.076927537504256"><ele>556.0</ele><time>2026-05-03T09:24:39.001Z</time></trkpt><trkpt lat="39.993597637291806" lon="9.076978570279488"><ele>555.4</ele><time>2026-05-03T09:24:40.001Z</time></trkpt><trkpt lat="39.99366577754286" lon="9.077045173465562"><ele>554.8</ele><time>2026-05-03T09:24:41.001Z</time></trkpt><trkpt lat="39.99374190074461" lon="9.077116855456346"><ele>554.1999999999999</ele><time>2026-05-03T09:24:42.001Z</time></trkpt><trkpt lat="39.99382470399084" lon="9.077199340878847"><ele>553.6</ele><time>2026-05-03T09:24:43.001Z</time></trkpt><trkpt lat="39.993900881824864" lon="9.077282629451837"><ele>553.0</ele><time>2026-05-03T09:24:44.001Z</time></trkpt><trkpt lat="39.993974201373376" lon="9.077360812198359"><ele>553.3333333333334</ele><time>2026-05-03T09:24:45.001Z</time></trkpt><trkpt lat="39.9940487778589" lon="9.077435938817079"><ele>553.6666666666667</ele><time>2026-05-03T09:24:46.001Z</time></trkpt><trkpt lat="39.99411756366035" lon="9.077509480242927"><ele>554.0</ele><time>2026-05-03T09:24:47.001Z</time></trkpt><trkpt lat="39.994183238372756" lon="9.07757292409768"><ele>554.3333333333334</ele><time>2026-05-03T09:24:48.001Z</time></trkpt><trkpt lat="39.99423593286344" lon="9.07762269663366"><ele>554.6666666666666</ele><time>2026-05-03T09:24:49.001Z</time></trkpt><trkpt lat="39.99429936776461" lon="9.077692372315756"><ele>555.0</ele><time>2026-05-03T09:24:51.001Z</time></trkpt><trkpt lat="39.99437536274009" lon="9.077692790652828"><ele>555.0</ele><time>2026-05-03T09:24:54.001Z</time></trkpt><trkpt lat="39.99438308724889" lon="9.077602686544713"><ele>555.0</ele><time>2026-05-03T09:24:57.001Z</time></trkpt><trkpt lat="39.99428785782417" lon="9.077668236698532"><ele>555.0</ele><time>2026-05-03T09:24:59.001Z</time></trkpt><trkpt lat="39.99422044678136" lon="9.07764623979507"><ele>555.0</ele><time>2026-05-03T09:25:00.001Z</time></trkpt><trkpt lat="39.99412320920783" lon="9.07767513952138"><ele>555.0</ele><time>2026-05-03T09:25:02.001Z</time></trkpt><trkpt lat="39.99405265359478" lon="9.07767671380262"><ele>555.0</ele><time>2026-05-03T09:25:03.001Z</time></trkpt><trkpt lat="39.99398250775063" lon="9.077678278959082"><ele>555.0</ele><time>2026-05-03T09:25:04.001Z</time></trkpt><trkpt lat="39.9938257129051" lon="9.077668249950985"><ele>555.0</ele><time>2026-05-03T09:25:06.001Z</time></trkpt><trkpt lat="39.99374758654073" lon="9.07765053250549"><ele>555.0</ele><time>2026-05-03T09:25:07.001Z</time></trkpt><trkpt lat="39.99367809380638" lon="9.077013778095393"><ele>555.2</ele><time>2026-05-03T09:25:08.001Z</time></trkpt><trkpt lat="39.993602784836206" lon="9.076932508457691"><ele>555.4</ele><time>2026-05-03T09:25:09.001Z</time></trkpt><trkpt lat="39.99351749232806" lon="9.076855313711235"><ele>555.6</ele><time>2026-05-03T09:25:10.001Z</time></trkpt><trkpt lat="39.99342280671654" lon="9.076793626288493"><ele>555.8</ele><time>2026-05-03T09:25:11.001Z</time></trkpt><trkpt lat="39.99332921534431" lon="9.076740511854007"><ele>556.0</ele><time>2026-05-03T09:25:12.001Z</time></trkpt><trkpt lat="39.993244566925114" lon="9.076688013006018"><ele>556.0</ele><time>2026-05-03T09:25:13.001Z</time></trkpt><trkpt lat="39.99316518692998" lon="9.076636402306967"><ele>556.0</ele><time>2026-05-03T09:25:14.001Z</time></trkpt><trkpt lat="39.99309398008921" lon="9.07659010538985"><ele>556.0</ele><time>2026-05-03T09:25:15.001Z</time></trkpt><trkpt lat="39.99303248446108" lon="9.076550122524644"><ele>556.0</ele><time>2026-05-03T09:25:16.001Z</time></trkpt><trkpt lat="39.99296848304339" lon="9.076477548907091"><ele>556.0</ele><time>2026-05-03T09:25:18.001Z</time></trkpt><trkpt lat="39.992977378584094" lon="9.076356444252719"><ele>556.0</ele><time>2026-05-03T09:25:20.001Z</time></trkpt><trkpt lat="39.993023626099756" lon="9.076239128336567"><ele>555.8333333333334</ele><time>2026-05-03T09:25:22.001Z</time></trkpt><trkpt lat="39.99309074902667" lon="9.076127157936199"><ele>555.6666666666667</ele><time>2026-05-03T09:25:24.001Z</time></trkpt><trkpt lat="39.99315102789395" lon="9.076043632896702"><ele>555.5</ele><time>2026-05-03T09:25:26.001Z</time></trkpt><trkpt lat="39.99319792984604" lon="9.075988683027997"><ele>555.3333333333334</ele><time>2026-05-03T09:25:30.001Z</time></trkpt><trkpt lat="39.99315940829524" lon="9.075907003219372"><ele>555.1666666666666</ele><time>2026-05-03T09:29:27.001Z</time></trkpt><trkpt lat="39.99320113770368" lon="9.075843272399409"><ele>555.0</ele><time>2026-05-03T09:29:29.001Z</time></trkpt><trkpt lat="39.993265771968694" lon="9.075801480727511"><ele>553.8</ele><time>2026-05-03T09:29:30.001Z</time></trkpt><trkpt lat="39.993328485616246" lon="9.075751861548005"><ele>552.6</ele><time>2026-05-03T09:29:31.001Z</time></trkpt><trkpt lat="39.99339372531519" lon="9.075686635862304"><ele>551.4</ele><time>2026-05-03T09:29:32.001Z</time></trkpt><trkpt lat="39.99345585319517" lon="9.075595244226642"><ele>550.2</ele><time>2026-05-03T09:29:33.001Z</time></trkpt><trkpt lat="39.993496488663126" lon="9.075468323219193"><ele>549.0</ele><time>2026-05-03T09:29:34.001Z</time></trkpt><trkpt lat="39.99351753519053" lon="9.075321236556738"><ele>546.8</ele><time>2026-05-03T09:29:35.001Z</time></trkpt><trkpt lat="39.99352882160509" lon="9.075163244446522"><ele>544.5999999999999</ele><time>2026-05-03T09:29:36.001Z</time></trkpt><trkpt lat="39.99353856532462" lon="9.07501104580964"><ele>542.4</ele><time>2026-05-03T09:29:37.001Z</time></trkpt><trkpt lat="39.99353821463035" lon="9.074882248524768"><ele>540.1999999999999</ele><time>2026-05-03T09:29:38.001Z</time></trkpt><trkpt lat="39.99351949381964" lon="9.07476997687297"><ele>538.0</ele><time>2026-05-03T09:29:39.001Z</time></trkpt><trkpt lat="39.99347081245935" lon="9.074667529542442"><ele>538.1666666666667</ele><time>2026-05-03T09:29:40.001Z</time></trkpt><trkpt lat="39.993396216102774" lon="9.074585636776543"><ele>538.3333333333334</ele><time>2026-05-03T09:29:41.001Z</time></trkpt><trkpt lat="39.99331519081457" lon="9.074532589463299"><ele>538.5</ele><time>2026-05-03T09:29:42.001Z</time></trkpt><trkpt lat="39.99323683861172" lon="9.074489319890825"><ele>538.6666666666666</ele><time>2026-05-03T09:29:43.001Z</time></trkpt><trkpt lat="39.99315724442637" lon="9.074446425842645"><ele>538.8333333333333</ele><time>2026-05-03T09:29:44.001Z</time></trkpt><trkpt lat="39.993082316654295" lon="9.07440909452952"><ele>539.0</ele><time>2026-05-03T09:29:45.001Z</time></trkpt><trkpt lat="39.99301128166137" lon="9.074367130841617"><ele>539.0</ele><time>2026-05-03T09:29:46.001Z</time></trkpt><trkpt lat="39.99294142676389" lon="9.0743176740202"><ele>539.0</ele><time>2026-05-03T09:29:47.001Z</time></trkpt><trkpt lat="39.99287922222134" lon="9.074251437856567"><ele>539.0</ele><time>2026-05-03T09:29:48.001Z</time></trkpt><trkpt lat="39.99282836323979" lon="9.0741758715043"><ele>539.0</ele><time>2026-05-03T09:29:49.001Z</time></trkpt><trkpt lat="39.992796062373124" lon="9.074078687686294"><ele>539.0</ele><time>2026-05-03T09:29:50.001Z</time></trkpt><trkpt lat="39.99277384253122" lon="9.073970210107557"><ele>539.0</ele><time>2026-05-03T09:29:51.001Z</time></trkpt><trkpt lat="39.99276137125782" lon="9.073841099626739"><ele>537.2</ele><time>2026-05-03T09:29:52.001Z</time></trkpt><trkpt lat="39.99274755228174" lon="9.073709983936634"><ele>535.4</ele><time>2026-05-03T09:29:53.001Z</time></trkpt><trkpt lat="39.99273153275227" lon="9.07358219604143"><ele>533.6</ele><time>2026-05-03T09:29:54.001Z</time></trkpt><trkpt lat="39.99269794790962" lon="9.07345365088857"><ele>531.8</ele><time>2026-05-03T09:29:55.001Z</time></trkpt><trkpt lat="39.992638545552886" lon="9.073332136089375"><ele>530.0</ele><time>2026-05-03T09:29:56.001Z</time></trkpt><trkpt lat="39.99256827601737" lon="9.073206054558911"><ele>530.75</ele><time>2026-05-03T09:29:57.001Z</time></trkpt><trkpt lat="39.992475389157605" lon="9.073102294714019"><ele>531.5</ele><time>2026-05-03T09:29:58.001Z</time></trkpt><trkpt lat="39.99237369642464" lon="9.073005953005078"><ele>532.25</ele><time>2026-05-03T09:29:59.001Z</time></trkpt><trkpt lat="39.9922884702891" lon="9.072889261662056"><ele>533.0</ele><time>2026-05-03T09:30:00.001Z</time></trkpt><trkpt lat="39.99222058464945" lon="9.072764469759262"><ele>533.0</ele><time>2026-05-03T09:30:01.001Z</time></trkpt><trkpt lat="39.99217323654727" lon="9.072630553107576"><ele>533.0</ele><time>2026-05-03T09:30:02.001Z</time></trkpt><trkpt lat="39.992129848645135" lon="9.072502213539794"><ele>533.0</ele><time>2026-05-03T09:30:03.001Z</time></trkpt><trkpt lat="39.9920865339929" lon="9.072382392456877"><ele>533.0</ele><time>2026-05-03T09:30:04.001Z</time></trkpt><trkpt lat="39.99203588978765" lon="9.072266417894415"><ele>533.0</ele><time>2026-05-03T09:30:05.001Z</time></trkpt><trkpt lat="39.99198092212482" lon="9.072158451534447"><ele>531.8</ele><time>2026-05-03T09:30:06.001Z</time></trkpt><trkpt lat="39.99192122872494" lon="9.072058956754859"><ele>530.5999999999999</ele><time>2026-05-03T09:30:07.001Z</time></trkpt><trkpt lat="39.99185885820386" lon="9.071967197447854"><ele>529.4000000000001</ele><time>2026-05-03T09:30:08.001Z</time></trkpt><trkpt lat="39.99179807228369" lon="9.07187848031034"><ele>528.2</ele><time>2026-05-03T09:30:09.001Z</time></trkpt><trkpt lat="39.991738841412776" lon="9.071788071434833"><ele>527.0</ele><time>2026-05-03T09:30:10.001Z</time></trkpt><trkpt lat="39.9916772211683" lon="9.071691899709414"><ele>526.4</ele><time>2026-05-03T09:30:11.001Z</time></trkpt><trkpt lat="39.99161274273471" lon="9.071593323637062"><ele>525.8000000000001</ele><time>2026-05-03T09:30:12.001Z</time></trkpt><trkpt lat="39.99154650476464" lon="9.0714916398612"><ele>525.2</ele><time>2026-05-03T09:30:13.001Z</time></trkpt><trkpt lat="39.991480949923755" lon="9.071384772966272"><ele>524.6</ele><time>2026-05-03T09:30:14.001Z</time></trkpt><trkpt lat="39.99142377597212" lon="9.071270009687163"><ele>524.0</ele><time>2026-05-03T09:30:15.001Z</time></trkpt><trkpt lat="39.991385344787076" lon="9.071143191803179"><ele>524.0</ele><time>2026-05-03T09:30:16.001Z</time></trkpt><trkpt lat="39.99135756632967" lon="9.071006391795729"><ele>524.0</ele><time>2026-05-03T09:30:17.001Z</time></trkpt><trkpt lat="39.9913331067263" lon="9.07087410117509"><ele>524.0</ele><time>2026-05-03T09:30:18.001Z</time></trkpt><trkpt lat="39.99130384946176" lon="9.07075282496365"><ele>524.0</ele><time>2026-05-03T09:30:19.001Z</time></trkpt><trkpt lat="39.991278296497896" lon="9.070631875380354"><ele>524.0</ele><time>2026-05-03T09:30:20.001Z</time></trkpt><trkpt lat="39.991197889319395" lon="9.070540861934452"><ele>523.4</ele><time>2026-05-03T09:30:21.001Z</time></trkpt><trkpt lat="39.99113747252185" lon="9.07043648801207"><ele>522.8</ele><time>2026-05-03T09:30:22.001Z</time></trkpt><trkpt lat="39.99105747783101" lon="9.070352987609922"><ele>522.2</ele><time>2026-05-03T09:30:23.001Z</time></trkpt><trkpt lat="39.990962620109215" lon="9.070262044632845"><ele>521.6</ele><time>2026-05-03T09:30:24.002Z</time></trkpt><trkpt lat="39.990853726998814" lon="9.070183319931687"><ele>521.0</ele><time>2026-05-03T09:30:25Z</time></trkpt><trkpt lat="39.990755992000146" lon="9.070083120240854"><ele>521.0</ele><time>2026-05-03T09:30:26Z</time></trkpt><trkpt lat="39.990670137690564" lon="9.069969775995364"><ele>521.0</ele><time>2026-05-03T09:30:27Z</time></trkpt><trkpt lat="39.990600649420806" lon="9.069830400068216"><ele>521.0</ele><time>2026-05-03T09:30:28Z</time></trkpt><trkpt lat="39.99054851514054" lon="9.069658366888943"><ele>521.0</ele><time>2026-05-03T09:30:29Z</time></trkpt><trkpt lat="39.990509876217" lon="9.069463049135425"><ele>519.6666666666666</ele><time>2026-05-03T09:30:30Z</time></trkpt><trkpt lat="39.99047128270411" lon="9.069263551154418"><ele>518.3333333333334</ele><time>2026-05-03T09:30:31Z</time></trkpt><trkpt lat="39.99043944506357" lon="9.069071564441423"><ele>517.0</ele><time>2026-05-03T09:30:32Z</time></trkpt><trkpt lat="39.990423570208236" lon="9.068882562124672"><ele>516.0</ele><time>2026-05-03T09:30:33Z</time></trkpt><trkpt lat="39.990408355991015" lon="9.068697079141113"><ele>515.0</ele><time>2026-05-03T09:30:34Z</time></trkpt><trkpt lat="39.99038930176111" lon="9.068520846899876"><ele>514.0</ele><time>2026-05-03T09:30:35Z</time></trkpt><trkpt lat="39.99036525630613" lon="9.068366173857509"><ele>513.0</ele><time>2026-05-03T09:30:36Z</time></trkpt><trkpt lat="39.99032259316284" lon="9.068224378410173"><ele>511.5</ele><time>2026-05-03T09:30:37Z</time></trkpt><trkpt lat="39.990255259251654" lon="9.068102329844645"><ele>510.0</ele><time>2026-05-03T09:30:38Z</time></trkpt><trkpt lat="39.990170632766265" lon="9.06798780227431"><ele>508.5</ele><time>2026-05-03T09:30:39Z</time></trkpt><trkpt lat="39.99004824425373" lon="9.067918073895482"><ele>507.0</ele><time>2026-05-03T09:30:40Z</time></trkpt><trkpt lat="39.98991595769013" lon="9.067875828164471"><ele>507.0</ele><time>2026-05-03T09:30:41Z</time></trkpt><trkpt lat="39.9897791112451" lon="9.067866443153202"><ele>507.0</ele><time>2026-05-03T09:30:42Z</time></trkpt><trkpt lat="39.989663428204594" lon="9.067830587831352"><ele>507.0</ele><time>2026-05-03T09:30:43Z</time></trkpt><trkpt lat="39.98956758890065" lon="9.06777809038838"><ele>507.0</ele><time>2026-05-03T09:30:44Z</time></trkpt><trkpt lat="39.989491353732966" lon="9.067687592019082"><ele>507.0</ele><time>2026-05-03T09:30:45Z</time></trkpt><trkpt lat="39.98944650723142" lon="9.0675720684906"><ele>507.00000000000006</ele><time>2026-05-03T09:30:46Z</time></trkpt><trkpt lat="39.989440023122796" lon="9.067448656713415"><ele>507.00000000000006</ele><time>2026-05-03T09:30:47Z</time></trkpt><trkpt lat="39.98946748798884" lon="9.067331255450652"><ele>507.0</ele><time>2026-05-03T09:30:48Z</time></trkpt><trkpt lat="39.98951881086132" lon="9.067231903825515"><ele>507.0</ele><time>2026-05-03T09:30:49Z</time></trkpt><trkpt lat="39.98957807177819" lon="9.067140115880324"><ele>506.20000000000005</ele><time>2026-05-03T09:30:50Z</time></trkpt><trkpt lat="39.98963100997318" lon="9.067030797830569"><ele>505.40000000000003</ele><time>2026-05-03T09:30:51Z</time></trkpt><trkpt lat="39.98967905108938" lon="9.066921146313907"><ele>504.59999999999997</ele><time>2026-05-03T09:30:52Z</time></trkpt><trkpt lat="39.989716635216816" lon="9.066801505979102"><ele>503.79999999999995</ele><time>2026-05-03T09:30:53Z</time></trkpt><trkpt lat="39.98974724687324" lon="9.066666892016361"><ele>503.0</ele><time>2026-05-03T09:30:54Z</time></trkpt><trkpt lat="39.98976820156571" lon="9.066537167949917"><ele>502.49999999999994</ele><time>2026-05-03T09:30:55Z</time></trkpt><trkpt lat="39.98977992578811" lon="9.066417679674041"><ele>502.0</ele><time>2026-05-03T09:30:56Z</time></trkpt><trkpt lat="39.989770255336765" lon="9.06630424379616"><ele>501.5</ele><time>2026-05-03T09:30:57Z</time></trkpt><trkpt lat="39.98973730582649" lon="9.066201310718562"><ele>501.0</ele><time>2026-05-03T09:30:58Z</time></trkpt><trkpt lat="39.989683885880645" lon="9.066106726520264"><ele>500.49999999999994</ele><time>2026-05-03T09:30:59Z</time></trkpt><trkpt lat="39.98962120519804" lon="9.066025792378463"><ele>500.0</ele><time>2026-05-03T09:31:00Z</time></trkpt><trkpt lat="39.98955618941632" lon="9.065950335546681"><ele>500.0</ele><time>2026-05-03T09:31:01Z</time></trkpt><trkpt lat="39.98950405465967" lon="9.065866793333193"><ele>500.0</ele><time>2026-05-03T09:31:02Z</time></trkpt><trkpt lat="39.98947196888205" lon="9.065765594132358"><ele>500.0</ele><time>2026-05-03T09:31:03Z</time></trkpt><trkpt lat="39.98946856665669" lon="9.065641867225187"><ele>500.0</ele><time>2026-05-03T09:31:04Z</time></trkpt><trkpt lat="39.989507863422666" lon="9.065520222943551"><ele>500.0</ele><time>2026-05-03T09:31:05Z</time></trkpt><trkpt lat="39.98956344567676" lon="9.065394498211907"><ele>500.0</ele><time>2026-05-03T09:31:06Z</time></trkpt><trkpt lat="39.989619332589754" lon="9.065248066928188"><ele>500.0</ele><time>2026-05-03T09:31:07Z</time></trkpt><trkpt lat="39.989648518088565" lon="9.065091637295168"><ele>500.0</ele><time>2026-05-03T09:31:08Z</time></trkpt><trkpt lat="39.9896640938332" lon="9.064931623204254"><ele>500.0</ele><time>2026-05-03T09:31:09Z</time></trkpt><trkpt lat="39.98967669114925" lon="9.064783322687083"><ele>500.0</ele><time>2026-05-03T09:31:10Z</time></trkpt><trkpt lat="39.98970529017127" lon="9.064635472900392"><ele>500.0</ele><time>2026-05-03T09:31:11Z</time></trkpt><trkpt lat="39.98976046449117" lon="9.064491472551863"><ele>500.0</ele><time>2026-05-03T09:31:12Z</time></trkpt><trkpt lat="39.98983611415894" lon="9.06435947687242"><ele>500.0</ele><time>2026-05-03T09:31:13Z</time></trkpt><trkpt lat="39.98992961391934" lon="9.06421414936767"><ele>503.25</ele><time>2026-05-03T09:31:14Z</time></trkpt><trkpt lat="39.99003054263626" lon="9.064067317784856"><ele>506.5</ele><time>2026-05-03T09:31:15Z</time></trkpt><trkpt lat="39.990125602539514" lon="9.063925137755401"><ele>509.75</ele><time>2026-05-03T09:31:16Z</time></trkpt><trkpt lat="39.99020135603639" lon="9.063782531133903"><ele>513.0</ele><time>2026-05-03T09:31:17Z</time></trkpt><trkpt lat="39.9902473104126" lon="9.063626266303832"><ele>513.0</ele><time>2026-05-03T09:31:18.001Z</time></trkpt><trkpt lat="39.99025690098197" lon="9.063461110338988"><ele>513.0</ele><time>2026-05-03T09:31:19.001Z</time></trkpt><trkpt lat="39.99023500672437" lon="9.063290815245095"><ele>513.0</ele><time>2026-05-03T09:31:20.001Z</time></trkpt><trkpt lat="39.990187783436284" lon="9.063118435411337"><ele>513.0</ele><time>2026-05-03T09:31:21.001Z</time></trkpt><trkpt lat="39.990130797531165" lon="9.062944035276848"><ele>513.25</ele><time>2026-05-03T09:31:22.001Z</time></trkpt><trkpt lat="39.99007556677735" lon="9.062781232831401"><ele>513.5</ele><time>2026-05-03T09:31:23.001Z</time></trkpt><trkpt lat="39.99002872481037" lon="9.06262783660871"><ele>513.75</ele><time>2026-05-03T09:31:24.001Z</time></trkpt><trkpt lat="39.989982473422145" lon="9.062470495713656"><ele>514.0</ele><time>2026-05-03T09:31:25.001Z</time></trkpt><trkpt lat="39.98992775890572" lon="9.062306088295456"><ele>513.25</ele><time>2026-05-03T09:31:26.001Z</time></trkpt><trkpt lat="39.989870573557155" lon="9.06213546582256"><ele>512.5</ele><time>2026-05-03T09:31:27.001Z</time></trkpt><trkpt lat="39.98980835795008" lon="9.06196459063916"><ele>511.75</ele><time>2026-05-03T09:31:28.001Z</time></trkpt><trkpt lat="39.9897209840398" lon="9.061799204789764"><ele>511.0</ele><time>2026-05-03T09:31:29.001Z</time></trkpt><trkpt lat="39.98962037636261" lon="9.061646250715496"><ele>512.75</ele><time>2026-05-03T09:31:30.001Z</time></trkpt><trkpt lat="39.9895155969685" lon="9.061497960091621"><ele>514.5</ele><time>2026-05-03T09:31:31.001Z</time></trkpt><trkpt lat="39.989409457242544" lon="9.061361717158787"><ele>516.25</ele><time>2026-05-03T09:31:32.001Z</time></trkpt><trkpt lat="39.98931741689427" lon="9.061235010309387"><ele>518.0</ele><time>2026-05-03T09:31:33.001Z</time></trkpt><trkpt lat="39.98924455986831" lon="9.061091058776043"><ele>518.0</ele><time>2026-05-03T09:31:34.001Z</time></trkpt><trkpt lat="39.9891900183422" lon="9.060930969507611"><ele>518.0</ele><time>2026-05-03T09:31:35.001Z</time></trkpt><trkpt lat="39.989176937615" lon="9.060767290289661"><ele>518.0</ele><time>2026-05-03T09:31:36.001Z</time></trkpt><trkpt lat="39.98919320560672" lon="9.06058967848876"><ele>518.0</ele><time>2026-05-03T09:31:37.001Z</time></trkpt><trkpt lat="39.989240086590286" lon="9.060421754007441"><ele>517.6</ele><time>2026-05-03T09:31:38.001Z</time></trkpt><trkpt lat="39.98930432007497" lon="9.06027760207393"><ele>517.1999999999999</ele><time>2026-05-03T09:31:39.001Z</time></trkpt><trkpt lat="39.989379010914064" lon="9.060179679424136"><ele>516.8</ele><time>2026-05-03T09:31:40.001Z</time></trkpt><trkpt lat="39.989472344604486" lon="9.060101035334148"><ele>516.4</ele><time>2026-05-03T09:31:41.001Z</time></trkpt><trkpt lat="39.989560273989724" lon="9.060055545609973"><ele>516.0</ele><time>2026-05-03T09:31:42.001Z</time></trkpt><trkpt lat="39.98967890068345" lon="9.05997967471027"><ele>516.3333333333334</ele><time>2026-05-03T09:31:43.001Z</time></trkpt><trkpt lat="39.989801990634675" lon="9.059879761141458"><ele>516.6666666666667</ele><time>2026-05-03T09:31:44.001Z</time></trkpt><trkpt lat="39.989940270384025" lon="9.059762328244434"><ele>517.0</ele><time>2026-05-03T09:31:45.001Z</time></trkpt><trkpt lat="39.990076262002034" lon="9.059654947310197"><ele>517.0</ele><time>2026-05-03T09:31:46.001Z</time></trkpt><trkpt lat="39.9902033195851" lon="9.059552093425971"><ele>517.0</ele><time>2026-05-03T09:31:47.001Z</time></trkpt><trkpt lat="39.99033425492941" lon="9.05944144497357"><ele>517.0</ele><time>2026-05-03T09:31:48.001Z</time></trkpt><trkpt lat="39.99046493967338" lon="9.05933570903884"><ele>517.0</ele><time>2026-05-03T09:31:49.001Z</time></trkpt><trkpt lat="39.99058532058332" lon="9.059248805073093"><ele>517.0</ele><time>2026-05-03T09:31:50.001Z</time></trkpt><trkpt lat="39.99071256642923" lon="9.059192549300509"><ele>517.0</ele><time>2026-05-03T09:31:51.001Z</time></trkpt><trkpt lat="39.99085000762112" lon="9.059164448860185"><ele>517.0</ele><time>2026-05-03T09:31:52.001Z</time></trkpt><trkpt lat="39.991003856018644" lon="9.059143310778415"><ele>518.0</ele><time>2026-05-03T09:31:53.001Z</time></trkpt><trkpt lat="39.99114957729753" lon="9.059136433500475"><ele>519.0</ele><time>2026-05-03T09:31:54.001Z</time></trkpt><trkpt lat="39.99136777886866" lon="9.059156094593249"><ele>520.0</ele><time>2026-05-03T09:31:55.001Z</time></trkpt><trkpt lat="39.991546607615376" lon="9.059200287371116"><ele>521.5</ele><time>2026-05-03T09:31:56.001Z</time></trkpt><trkpt lat="39.991702435103846" lon="9.05925404078913"><ele>523.0</ele><time>2026-05-03T09:31:57.001Z</time></trkpt><trkpt lat="39.9918418065531" lon="9.059296314114833"><ele>524.5</ele><time>2026-05-03T09:31:58.001Z</time></trkpt><trkpt lat="39.99196640876707" lon="9.05933035139937"><ele>526.0</ele><time>2026-05-03T09:31:59.001Z</time></trkpt><trkpt lat="39.99208814285286" lon="9.05933162413894"><ele>526.0</ele><time>2026-05-03T09:32:00.001Z</time></trkpt><trkpt lat="39.992196687460186" lon="9.0592925420084"><ele>526.0</ele><time>2026-05-03T09:32:01.001Z</time></trkpt><trkpt lat="39.99228895137753" lon="9.059198732201104"><ele>526.0</ele><time>2026-05-03T09:32:02.001Z</time></trkpt><trkpt lat="39.99236920306993" lon="9.05907713688007"><ele>526.0</ele><time>2026-05-03T09:32:03.001Z</time></trkpt><trkpt lat="39.992403505848365" lon="9.058901058670315"><ele>525.3333333333334</ele><time>2026-05-03T09:32:04.001Z</time></trkpt><trkpt lat="39.992435164063835" lon="9.058690597796794"><ele>524.6666666666666</ele><time>2026-05-03T09:32:05.001Z</time></trkpt><trkpt lat="39.99246447389562" lon="9.058484737149818"><ele>524.0</ele><time>2026-05-03T09:32:06.001Z</time></trkpt><trkpt lat="39.99249579092975" lon="9.058268671928124"><ele>528.3333333333333</ele><time>2026-05-03T09:32:07.001Z</time></trkpt><trkpt lat="39.99253553590613" lon="9.058017621063527"><ele>532.6666666666666</ele><time>2026-05-03T09:32:08.001Z</time></trkpt><trkpt lat="39.992579696476476" lon="9.057746563596105"><ele>537.0</ele><time>2026-05-03T09:32:09.001Z</time></trkpt><trkpt lat="39.99263152611743" lon="9.057457421411147"><ele>535.6666666666666</ele><time>2026-05-03T09:32:10.001Z</time></trkpt><trkpt lat="39.99267510828802" lon="9.057231104961934"><ele>534.3333333333333</ele><time>2026-05-03T09:32:12.001Z</time></trkpt><trkpt lat="39.99271718388349" lon="9.056987433765661"><ele>533.0</ele><time>2026-05-03T09:32:13.001Z</time></trkpt><trkpt lat="39.99275652543323" lon="9.056742365658177"><ele>531.3333333333333</ele><time>2026-05-03T09:32:14.001Z</time></trkpt><trkpt lat="39.992796913541326" lon="9.05649834876297"><ele>529.6666666666666</ele><time>2026-05-03T09:32:15.002Z</time></trkpt><trkpt lat="39.99284882672594" lon="9.056244635307518"><ele>528.0</ele><time>2026-05-03T09:32:16.002Z</time></trkpt><trkpt lat="39.99289688877945" lon="9.05597876945694"><ele>528.0</ele><time>2026-05-03T09:32:17.002Z</time></trkpt><trkpt lat="39.992943760999154" lon="9.055731544173943"><ele>528.0</ele><time>2026-05-03T09:32:18.002Z</time></trkpt><trkpt lat="39.99298774044415" lon="9.055478301129595"><ele>528.0</ele><time>2026-05-03T09:32:19.002Z</time></trkpt><trkpt lat="39.99302576009214" lon="9.05523389795282"><ele>528.0</ele><time>2026-05-03T09:32:20.002Z</time></trkpt><trkpt lat="39.99306355236352" lon="9.054993970220037"><ele>528.0</ele><time>2026-05-03T09:32:21.002Z</time></trkpt><trkpt lat="39.99309919441477" lon="9.054773571223954"><ele>528.0</ele><time>2026-05-03T09:32:22.002Z</time></trkpt><trkpt lat="39.9931281247509" lon="9.05456920092654"><ele>527.0</ele><time>2026-05-03T09:32:23.002Z</time></trkpt><trkpt lat="39.99315414971394" lon="9.054368697647762"><ele>526.0</ele><time>2026-05-03T09:32:24.002Z</time></trkpt><trkpt lat="39.99318396399552" lon="9.054167174097635"><ele>525.0</ele><time>2026-05-03T09:32:25.002Z</time></trkpt><trkpt lat="39.99321726407129" lon="9.053964837122024"><ele>524.0</ele><time>2026-05-03T09:32:26.002Z</time></trkpt><trkpt lat="39.99326406162778" lon="9.053762647660088"><ele>523.0</ele><time>2026-05-03T09:32:27.002Z</time></trkpt><trkpt lat="39.99333860612545" lon="9.053562521170944"><ele>522.0</ele><time>2026-05-03T09:32:28.002Z</time></trkpt><trkpt lat="39.993427685933305" lon="9.053375333248578"><ele>519.0</ele><time>2026-05-03T09:32:29.002Z</time></trkpt><trkpt lat="39.99351337666361" lon="9.05318961727693"><ele>516.0</ele><time>2026-05-03T09:32:30.002Z</time></trkpt><trkpt lat="39.99359140030189" lon="9.053009623327817"><ele>513.0</ele><time>2026-05-03T09:32:31.001Z</time></trkpt><trkpt lat="39.9936722436743" lon="9.052843233299669"><ele>513.0</ele><time>2026-05-03T09:32:32.001Z</time></trkpt><trkpt lat="39.99377465085326" lon="9.052735195005267"><ele>513.0</ele><time>2026-05-03T09:32:33.001Z</time></trkpt><trkpt lat="39.99387785682679" lon="9.052620736411466"><ele>513.0</ele><time>2026-05-03T09:32:34.001Z</time></trkpt><trkpt lat="39.993986007373344" lon="9.052529193801343"><ele>513.0</ele><time>2026-05-03T09:32:35.001Z</time></trkpt><trkpt lat="39.994093998063825" lon="9.052451957299075"><ele>512.0</ele><time>2026-05-03T09:32:36.001Z</time></trkpt><trkpt lat="39.99420229317575" lon="9.052409606794173"><ele>511.0</ele><time>2026-05-03T09:32:37.001Z</time></trkpt><trkpt lat="39.994311651445564" lon="9.052417247140598"><ele>510.0</ele><time>2026-05-03T09:32:38.001Z</time></trkpt><trkpt lat="39.994428139089784" lon="9.052455878175527"><ele>509.0</ele><time>2026-05-03T09:32:39.001Z</time></trkpt><trkpt lat="39.99455624459896" lon="9.052503162517498"><ele>509.0</ele><time>2026-05-03T09:32:40.001Z</time></trkpt><trkpt lat="39.994714178957544" lon="9.052539085907116"><ele>509.0</ele><time>2026-05-03T09:32:41.001Z</time></trkpt><trkpt lat="39.994851419695934" lon="9.052510877272093"><ele>509.0</ele><time>2026-05-03T09:32:42.001Z</time></trkpt><trkpt lat="39.994978305916106" lon="9.052435111176306"><ele>509.0</ele><time>2026-05-03T09:32:43.001Z</time></trkpt><trkpt lat="39.99510249167937" lon="9.052339065795058"><ele>509.5</ele><time>2026-05-03T09:32:44.001Z</time></trkpt><trkpt lat="39.99522280938312" lon="9.052243253062509"><ele>510.0</ele><time>2026-05-03T09:32:45.001Z</time></trkpt><trkpt lat="39.99532125749735" lon="9.052145821818955"><ele>510.5</ele><time>2026-05-03T09:32:46.001Z</time></trkpt><trkpt lat="39.995395554272996" lon="9.052025951685389"><ele>511.0</ele><time>2026-05-03T09:32:47.001Z</time></trkpt><trkpt lat="39.99543455388932" lon="9.051885557393007"><ele>511.0</ele><time>2026-05-03T09:32:48.001Z</time></trkpt><trkpt lat="39.99544161057096" lon="9.05173472794705"><ele>511.0</ele><time>2026-05-03T09:32:49.001Z</time></trkpt><trkpt lat="39.995407426848125" lon="9.051578045656552"><ele>511.0</ele><time>2026-05-03T09:32:50.001Z</time></trkpt><trkpt lat="39.995350505860415" lon="9.051419680034279"><ele>511.0</ele><time>2026-05-03T09:32:51.001Z</time></trkpt><trkpt lat="39.99529462629625" lon="9.051259008129865"><ele>511.0</ele><time>2026-05-03T09:32:52.001Z</time></trkpt><trkpt lat="39.99524447732736" lon="9.05108833107364"><ele>511.0</ele><time>2026-05-03T09:32:53.001Z</time></trkpt><trkpt lat="39.995182317200616" lon="9.050910619617124"><ele>511.0</ele><time>2026-05-03T09:32:54.001Z</time></trkpt><trkpt lat="39.9951221638011" lon="9.050733685195501"><ele>511.0</ele><time>2026-05-03T09:32:55.001Z</time></trkpt><trkpt lat="39.99505779707071" lon="9.05055970473071"><ele>508.6666666666667</ele><time>2026-05-03T09:32:56.001Z</time></trkpt><trkpt lat="39.99499494701053" lon="9.050380575291996"><ele>506.33333333333337</ele><time>2026-05-03T09:32:57.001Z</time></trkpt><trkpt lat="39.99493254170249" lon="9.050196823257737"><ele>504.0</ele><time>2026-05-03T09:32:58.001Z</time></trkpt><trkpt lat="39.994873912986435" lon="9.050011304621021"><ele>504.5</ele><time>2026-05-03T09:32:59.001Z</time></trkpt><trkpt lat="39.99481763165912" lon="9.049835406488793"><ele>505.0</ele><time>2026-05-03T09:33:00.001Z</time></trkpt><trkpt lat="39.99475630567842" lon="9.049652231446824"><ele>505.5</ele><time>2026-05-03T09:33:01.001Z</time></trkpt><trkpt lat="39.994707519649" lon="9.049468024763025"><ele>506.0</ele><time>2026-05-03T09:33:02.001Z</time></trkpt><trkpt lat="39.994647104093424" lon="9.049284534714543"><ele>506.66666666666663</ele><time>2026-05-03T09:33:03.001Z</time></trkpt><trkpt lat="39.99459272209265" lon="9.049094420404112"><ele>507.33333333333337</ele><time>2026-05-03T09:33:04.001Z</time></trkpt><trkpt lat="39.99453516535059" lon="9.048903966473649"><ele>508.0</ele><time>2026-05-03T09:33:05.001Z</time></trkpt><trkpt lat="39.99448073570664" lon="9.04870589967591"><ele>508.0</ele><time>2026-05-03T09:33:06.001Z</time></trkpt><trkpt lat="39.994413794924704" lon="9.048515217944027"><ele>508.0</ele><time>2026-05-03T09:33:07.001Z</time></trkpt><trkpt lat="39.994349684602696" lon="9.048313704287326"><ele>508.0</ele><time>2026-05-03T09:33:08.001Z</time></trkpt><trkpt lat="39.99429958962948" lon="9.048110838306474"><ele>508.5</ele><time>2026-05-03T09:33:09.001Z</time></trkpt><trkpt lat="39.99425251949742" lon="9.047926178535656"><ele>509.0</ele><time>2026-05-03T09:33:10.001Z</time></trkpt><trkpt lat="39.99420328647431" lon="9.047746995788604"><ele>509.5</ele><time>2026-05-03T09:33:11.001Z</time></trkpt><trkpt lat="39.99416196025023" lon="9.047578651536767"><ele>510.0</ele><time>2026-05-03T09:33:12.001Z</time></trkpt><trkpt lat="39.99412711986203" lon="9.047430156377484"><ele>509.1666666666667</ele><time>2026-05-03T09:33:13.001Z</time></trkpt><trkpt lat="39.9941072919871" lon="9.047314989993984"><ele>508.33333333333337</ele><time>2026-05-03T09:33:14.001Z</time></trkpt><trkpt lat="39.99410362811944" lon="9.047230881777232"><ele>507.5</ele><time>2026-05-03T09:33:15.001Z</time></trkpt><trkpt lat="39.99412209169898" lon="9.04714366789582"><ele>506.6666666666667</ele><time>2026-05-03T09:33:16.001Z</time></trkpt><trkpt lat="39.99414239144212" lon="9.047062622432644"><ele>505.83333333333337</ele><time>2026-05-03T09:33:17.001Z</time></trkpt><trkpt lat="39.994196639929754" lon="9.046925510131233"><ele>505.0</ele><time>2026-05-03T09:33:19.001Z</time></trkpt><trkpt lat="39.9942024521925" lon="9.0468276657265"><ele>505.0</ele><time>2026-05-03T09:33:20.001Z</time></trkpt><trkpt lat="39.99427771253012" lon="9.046738368394832"><ele>505.0</ele><time>2026-05-03T09:33:21.001Z</time></trkpt><trkpt lat="39.99435171597349" lon="9.046628817918965"><ele>505.0</ele><time>2026-05-03T09:33:22.001Z</time></trkpt><trkpt lat="39.99443979593988" lon="9.046503253098578"><ele>505.0</ele><time>2026-05-03T09:33:23.001Z</time></trkpt><trkpt lat="39.99453361178437" lon="9.046363618203923"><ele>503.0</ele><time>2026-05-03T09:33:24.001Z</time></trkpt><trkpt lat="39.994635723498874" lon="9.046220677601871"><ele>501.0</ele><time>2026-05-03T09:33:25.001Z</time></trkpt><trkpt lat="39.994753811257155" lon="9.046068708446535"><ele>499.0</ele><time>2026-05-03T09:33:26.001Z</time></trkpt><trkpt lat="39.99488587840189" lon="9.045917287634047"><ele>496.6666666666667</ele><time>2026-05-03T09:33:27.001Z</time></trkpt><trkpt lat="39.995045510056215" lon="9.045770193591688"><ele>494.33333333333337</ele><time>2026-05-03T09:33:28.001Z</time></trkpt><trkpt lat="39.9952254969161" lon="9.045634689388056"><ele>492.0</ele><time>2026-05-03T09:33:29.001Z</time></trkpt><trkpt lat="39.99542206835232" lon="9.045517630128467"><ele>492.0</ele><time>2026-05-03T09:33:30.001Z</time></trkpt><trkpt lat="39.995637253350075" lon="9.045414741120297"><ele>492.0</ele><time>2026-05-03T09:33:31.001Z</time></trkpt><trkpt lat="39.99585993562453" lon="9.04533111055896"><ele>490.33333333333337</ele><time>2026-05-03T09:33:32.001Z</time></trkpt><trkpt lat="39.99608299198968" lon="9.04526015699577"><ele>488.6666666666667</ele><time>2026-05-03T09:33:33.001Z</time></trkpt><trkpt lat="39.99629686181996" lon="9.045200482425095"><ele>487.0</ele><time>2026-05-03T09:33:34.001Z</time></trkpt><trkpt lat="39.996510813879105" lon="9.0451450144557"><ele>485.6666666666667</ele><time>2026-05-03T09:33:35.001Z</time></trkpt><trkpt lat="39.99672323850378" lon="9.045095904938961"><ele>484.33333333333337</ele><time>2026-05-03T09:33:36.001Z</time></trkpt><trkpt lat="39.9969490720416" lon="9.04506241957953"><ele>483.0</ele><time>2026-05-03T09:33:37.001Z</time></trkpt><trkpt lat="39.997173935922035" lon="9.04504640992251"><ele>483.0</ele><time>2026-05-03T09:33:38.001Z</time></trkpt><trkpt lat="39.9973922079667" lon="9.045037138454822"><ele>483.0</ele><time>2026-05-03T09:33:39.001Z</time></trkpt><trkpt lat="39.99759967608597" lon="9.045022485375647"><ele>483.0</ele><time>2026-05-03T09:33:40.001Z</time></trkpt><trkpt lat="39.9977987008177" lon="9.044997405358334"><ele>481.33333333333337</ele><time>2026-05-03T09:33:41.001Z</time></trkpt><trkpt lat="39.99797362034379" lon="9.044955218663777"><ele>479.6666666666667</ele><time>2026-05-03T09:33:42.001Z</time></trkpt><trkpt lat="39.99813204833375" lon="9.044881079850569"><ele>478.0</ele><time>2026-05-03T09:33:43.001Z</time></trkpt><trkpt lat="39.99829401564364" lon="9.044768210743197"><ele>477.6666666666667</ele><time>2026-05-03T09:33:44.001Z</time></trkpt><trkpt lat="39.99845477725663" lon="9.044621057303772"><ele>477.33333333333337</ele><time>2026-05-03T09:33:45.001Z</time></trkpt><trkpt lat="39.99862414558127" lon="9.044453482443355"><ele>477.0</ele><time>2026-05-03T09:33:46.001Z</time></trkpt><trkpt lat="39.99878552543296" lon="9.044273806406766"><ele>477.33333333333337</ele><time>2026-05-03T09:33:47.001Z</time></trkpt><trkpt lat="39.998947080917894" lon="9.044103947987725"><ele>477.6666666666667</ele><time>2026-05-03T09:33:48.001Z</time></trkpt><trkpt lat="39.99910756702754" lon="9.043941184172763"><ele>478.0</ele><time>2026-05-03T09:33:49.001Z</time></trkpt><trkpt lat="39.99928775931667" lon="9.043771167042369"><ele>476.6666666666667</ele><time>2026-05-03T09:33:50.001Z</time></trkpt><trkpt lat="39.99941239857045" lon="9.043642704643567"><ele>475.33333333333337</ele><time>2026-05-03T09:33:51.001Z</time></trkpt><trkpt lat="39.99955851881595" lon="9.043481020996033"><ele>474.0</ele><time>2026-05-03T09:33:52.001Z</time></trkpt><trkpt lat="39.99971609978832" lon="9.043347426860963"><ele>474.33333333333337</ele><time>2026-05-03T09:33:53.001Z</time></trkpt><trkpt lat="39.99988930173338" lon="9.043237676717897"><ele>474.6666666666667</ele><time>2026-05-03T09:33:54.001Z</time></trkpt><trkpt lat="40.0000686675129" lon="9.043138215736352"><ele>475.0</ele><time>2026-05-03T09:33:55.002Z</time></trkpt><trkpt lat="40.00025804097798" lon="9.043052616603324"><ele>475.0</ele><time>2026-05-03T09:33:56.002Z</time></trkpt><trkpt lat="40.00045244958517" lon="9.042967302023746"><ele>475.0</ele><time>2026-05-03T09:33:57.002Z</time></trkpt><trkpt lat="40.00065388306686" lon="9.042885135045859"><ele>475.0</ele><time>2026-05-03T09:33:58.002Z</time></trkpt><trkpt lat="40.0008474579239" lon="9.042814127029459"><ele>472.6666666666667</ele><time>2026-05-03T09:33:59.002Z</time></trkpt><trkpt lat="40.00106069079077" lon="9.042740681601634"><ele>470.33333333333337</ele><time>2026-05-03T09:34:00.002Z</time></trkpt><trkpt lat="40.00124547242721" lon="9.04266796879574"><ele>468.0</ele><time>2026-05-03T09:34:01.002Z</time></trkpt><trkpt lat="40.00143586623582" lon="9.042598813725855"><ele>468.0</ele><time>2026-05-03T09:34:02.002Z</time></trkpt><trkpt lat="40.00162319554876" lon="9.042506065399307"><ele>468.0</ele><time>2026-05-03T09:34:03.002Z</time></trkpt><trkpt lat="40.0017962217192" lon="9.042387347554723"><ele>468.0</ele><time>2026-05-03T09:34:04.002Z</time></trkpt><trkpt lat="40.001967305790586" lon="9.042247088778009"><ele>468.0</ele><time>2026-05-03T09:34:05.002Z</time></trkpt><trkpt lat="40.00213187938775" lon="9.04208272533282"><ele>468.0</ele><time>2026-05-03T09:34:06.002Z</time></trkpt><trkpt lat="40.00230333519035" lon="9.041900935482406"><ele>468.0</ele><time>2026-05-03T09:34:07.002Z</time></trkpt><trkpt lat="40.002465138289544" lon="9.041725162929007"><ele>466.0</ele><time>2026-05-03T09:34:08.002Z</time></trkpt><trkpt lat="40.00263655465748" lon="9.041540674561759"><ele>464.0</ele><time>2026-05-03T09:34:09.002Z</time></trkpt><trkpt lat="40.00280451353909" lon="9.041349924269502"><ele>462.0</ele><time>2026-05-03T09:34:10.002Z</time></trkpt><trkpt lat="40.002959870774184" lon="9.04113187879523"><ele>462.0</ele><time>2026-05-03T09:34:11.002Z</time></trkpt><trkpt lat="40.003103249923925" lon="9.040895242423922"><ele>462.0</ele><time>2026-05-03T09:34:12.002Z</time></trkpt><trkpt lat="40.0032443542797" lon="9.040653222223986"><ele>460.66666666666663</ele><time>2026-05-03T09:34:13.002Z</time></trkpt><trkpt lat="40.00337426831875" lon="9.040424048485963"><ele>459.3333333333333</ele><time>2026-05-03T09:34:14.002Z</time></trkpt><trkpt lat="40.00349479829576" lon="9.040210117470517"><ele>458.0</ele><time>2026-05-03T09:34:15.002Z</time></trkpt><trkpt lat="40.00361276568702" lon="9.04001232122011"><ele>458.0</ele><time>2026-05-03T09:34:16.002Z</time></trkpt><trkpt lat="40.00374101673383" lon="9.039829160126603"><ele>458.0</ele><time>2026-05-03T09:34:17.002Z</time></trkpt><trkpt lat="40.00388397473445" lon="9.039659988749513"><ele>458.0</ele><time>2026-05-03T09:34:18.002Z</time></trkpt><trkpt lat="40.00404742810938" lon="9.039500400133067"><ele>457.66666666666663</ele><time>2026-05-03T09:34:19.002Z</time></trkpt><trkpt lat="40.00421782433817" lon="9.039354933835318"><ele>457.33333333333337</ele><time>2026-05-03T09:34:20.002Z</time></trkpt><trkpt lat="40.004390648373956" lon="9.039217965910465"><ele>457.0</ele><time>2026-05-03T09:34:21.002Z</time></trkpt><trkpt lat="40.00457809949633" lon="9.039092154366797"><ele>457.0</ele><time>2026-05-03T09:34:22.002Z</time></trkpt><trkpt lat="40.004777013585745" lon="9.03897242605506"><ele>457.0</ele><time>2026-05-03T09:34:23.002Z</time></trkpt><trkpt lat="40.004988398549735" lon="9.03886534850526"><ele>457.0</ele><time>2026-05-03T09:34:24.002Z</time></trkpt><trkpt lat="40.005201647671086" lon="9.038755338365572"><ele>455.33333333333337</ele><time>2026-05-03T09:34:25.002Z</time></trkpt><trkpt lat="40.005403830267234" lon="9.038646102660067"><ele>453.66666666666663</ele><time>2026-05-03T09:34:26.002Z</time></trkpt><trkpt lat="40.005592922994325" lon="9.038541795926"><ele>452.0</ele><time>2026-05-03T09:34:27.002Z</time></trkpt><trkpt lat="40.00577404499197" lon="9.038446078161464"><ele>451.66666666666663</ele><time>2026-05-03T09:34:28.002Z</time></trkpt><trkpt lat="40.00594498363011" lon="9.038367277562552"><ele>451.33333333333337</ele><time>2026-05-03T09:34:29.002Z</time></trkpt><trkpt lat="40.00610580551605" lon="9.03831968082587"><ele>451.0</ele><time>2026-05-03T09:34:30.002Z</time></trkpt><trkpt lat="40.00625667095772" lon="9.038303955754264"><ele>451.0</ele><time>2026-05-03T09:34:31.002Z</time></trkpt><trkpt lat="40.006402910046994" lon="9.038314949186903"><ele>451.0</ele><time>2026-05-03T09:34:32.002Z</time></trkpt><trkpt lat="40.00654795758159" lon="9.03836846607856"><ele>451.0</ele><time>2026-05-03T09:34:33.002Z</time></trkpt><trkpt lat="40.006704627129416" lon="9.038456240160006"><ele>451.25</ele><time>2026-05-03T09:34:34.002Z</time></trkpt><trkpt lat="40.00685276456232" lon="9.038540536815079"><ele>451.5</ele><time>2026-05-03T09:34:35.002Z</time></trkpt><trkpt lat="40.006979881080774" lon="9.038612708276295"><ele>451.75</ele><time>2026-05-03T09:34:36.002Z</time></trkpt><trkpt lat="40.00709056958573" lon="9.03867219670853"><ele>452.0</ele><time>2026-05-03T09:34:37.001Z</time></trkpt><trkpt lat="40.007192390710614" lon="9.038715913576134"><ele>452.0</ele><time>2026-05-03T09:34:38.001Z</time></trkpt><trkpt lat="40.007265265349986" lon="9.038737806147868"><ele>452.00000000000006</ele><time>2026-05-03T09:34:39.001Z</time></trkpt><trkpt lat="40.007352472198185" lon="9.038736897564696"><ele>452.00000000000006</ele><time>2026-05-03T09:34:41.001Z</time></trkpt><trkpt lat="40.00745663390052" lon="9.038610756001011"><ele>452.0</ele><time>2026-05-03T09:34:43.001Z</time></trkpt><trkpt lat="40.00750870060911" lon="9.038475903073968"><ele>452.0</ele><time>2026-05-03T09:34:44.001Z</time></trkpt><trkpt lat="40.007563038700354" lon="9.038326699414709"><ele>451.0</ele><time>2026-05-03T09:34:45.001Z</time></trkpt><trkpt lat="40.00762261874985" lon="9.03815010818396"><ele>450.0</ele><time>2026-05-03T09:34:46.001Z</time></trkpt><trkpt lat="40.007695506636644" lon="9.037959216987486"><ele>449.0</ele><time>2026-05-03T09:34:47.001Z</time></trkpt><trkpt lat="40.00777342105511" lon="9.037744387668983"><ele>449.0</ele><time>2026-05-03T09:34:48.001Z</time></trkpt><trkpt lat="40.007860998336135" lon="9.03751920416584"><ele>449.0</ele><time>2026-05-03T09:34:49.001Z</time></trkpt><trkpt lat="40.00794979171637" lon="9.037286341884522"><ele>449.0</ele><time>2026-05-03T09:34:50.001Z</time></trkpt><trkpt lat="40.00803889820334" lon="9.037058136445635"><ele>448.0</ele><time>2026-05-03T09:34:51.001Z</time></trkpt><trkpt lat="40.00812391684332" lon="9.036842917569366"><ele>447.0</ele><time>2026-05-03T09:34:52.001Z</time></trkpt><trkpt lat="40.008213288272216" lon="9.03665021603985"><ele>446.0</ele><time>2026-05-03T09:34:53.001Z</time></trkpt><trkpt lat="40.008323714198546" lon="9.03647312380447"><ele>446.3333333333333</ele><time>2026-05-03T09:34:54.001Z</time></trkpt><trkpt lat="40.008459279534605" lon="9.036311661131668"><ele>446.66666666666663</ele><time>2026-05-03T09:34:55.001Z</time></trkpt><trkpt lat="40.008625151137366" lon="9.036161086067684"><ele>447.0</ele><time>2026-05-03T09:34:56.001Z</time></trkpt><trkpt lat="40.00881332900183" lon="9.03600698292889"><ele>447.0</ele><time>2026-05-03T09:34:57.001Z</time></trkpt><trkpt lat="40.00900119787299" lon="9.035846535418719"><ele>447.0</ele><time>2026-05-03T09:34:58.001Z</time></trkpt><trkpt lat="40.00919152304223" lon="9.03568436969361"><ele>445.0</ele><time>2026-05-03T09:34:59.001Z</time></trkpt><trkpt lat="40.009397191266544" lon="9.035518660658695"><ele>443.0</ele><time>2026-05-03T09:35:00.001Z</time></trkpt><trkpt lat="40.00959328643247" lon="9.035362918446882"><ele>443.0</ele><time>2026-05-03T09:35:01.001Z</time></trkpt><trkpt lat="40.0097739185856" lon="9.035216649886856"><ele>443.0</ele><time>2026-05-03T09:35:02.001Z</time></trkpt><trkpt lat="40.00992448729046" lon="9.035057773042896"><ele>443.0</ele><time>2026-05-03T09:35:03.001Z</time></trkpt><trkpt lat="40.01004384034359" lon="9.034904048820088"><ele>442.3333333333333</ele><time>2026-05-03T09:35:04.001Z</time></trkpt><trkpt lat="40.01012836590777" lon="9.034726787538713"><ele>441.66666666666663</ele><time>2026-05-03T09:35:05.001Z</time></trkpt><trkpt lat="40.01017338044729" lon="9.034532140713429"><ele>441.0</ele><time>2026-05-03T09:35:06.001Z</time></trkpt><trkpt lat="40.01018647766365" lon="9.034333267880712"><ele>440.66666666666663</ele><time>2026-05-03T09:35:07.001Z</time></trkpt><trkpt lat="40.010162738486365" lon="9.034117813783412"><ele>440.3333333333333</ele><time>2026-05-03T09:35:08.001Z</time></trkpt><trkpt lat="40.01011941524174" lon="9.033898728354472"><ele>440.0</ele><time>2026-05-03T09:35:09.001Z</time></trkpt><trkpt lat="40.01007817545015" lon="9.033659243384387"><ele>442.0</ele><time>2026-05-03T09:35:10.001Z</time></trkpt><trkpt lat="40.00998773735779" lon="9.033392253587788"><ele>444.0</ele><time>2026-05-03T09:35:11.001Z</time></trkpt><trkpt lat="40.009931982839326" lon="9.03309379348731"><ele>444.0</ele><time>2026-05-03T09:35:12.001Z</time></trkpt><trkpt lat="40.009838039098156" lon="9.032811703800409"><ele>444.0</ele><time>2026-05-03T09:35:13.001Z</time></trkpt><trkpt lat="40.00975505799686" lon="9.03249991254685"><ele>443.5</ele><time>2026-05-03T09:35:14.001Z</time></trkpt><trkpt lat="40.00966098031952" lon="9.03217640018881"><ele>443.0</ele><time>2026-05-03T09:35:15.001Z</time></trkpt><trkpt lat="40.00956995028717" lon="9.031852718755161"><ele>442.0</ele><time>2026-05-03T09:35:16.001Z</time></trkpt><trkpt lat="40.009464463614" lon="9.031525717181301"><ele>441.0</ele><time>2026-05-03T09:35:17.001Z</time></trkpt><trkpt lat="40.00939133675717" lon="9.031234317783095"><ele>441.0</ele><time>2026-05-03T09:35:18.001Z</time></trkpt><trkpt lat="40.00932363999288" lon="9.030966696816243"><ele>441.0</ele><time>2026-05-03T09:35:19.001Z</time></trkpt><trkpt lat="40.0092503052636" lon="9.030706129407726"><ele>441.0</ele><time>2026-05-03T09:35:20.001Z</time></trkpt><trkpt lat="40.00918073370546" lon="9.030463307732516"><ele>441.0</ele><time>2026-05-03T09:35:21.001Z</time></trkpt><trkpt lat="40.00911646880081" lon="9.03023544796604"><ele>441.0</ele><time>2026-05-03T09:35:22.001Z</time></trkpt><trkpt lat="40.00908008732177" lon="9.030030210683163"><ele>441.0</ele><time>2026-05-03T09:35:23.001Z</time></trkpt><trkpt lat="40.0090600888223" lon="9.029852019048366"><ele>441.0</ele><time>2026-05-03T09:35:24.001Z</time></trkpt><trkpt lat="40.00907991365597" lon="9.02968495648065"><ele>441.0</ele><time>2026-05-03T09:35:25.001Z</time></trkpt><trkpt lat="40.00913613069291" lon="9.029510748442314"><ele>441.0</ele><time>2026-05-03T09:35:26.001Z</time></trkpt><trkpt lat="40.00921016946329" lon="9.029295842917028"><ele>437.33333333333337</ele><time>2026-05-03T09:35:27.001Z</time></trkpt><trkpt lat="40.00929471159054" lon="9.029056545622922"><ele>433.6666666666667</ele><time>2026-05-03T09:35:28.001Z</time></trkpt><trkpt lat="40.00938357182555" lon="9.02879980337852"><ele>430.0</ele><time>2026-05-03T09:35:29.001Z</time></trkpt><trkpt lat="40.00948267355904" lon="9.028529147312026"><ele>429.6666666666667</ele><time>2026-05-03T09:35:30.001Z</time></trkpt><trkpt lat="40.009538551166166" lon="9.028309186908766"><ele>429.33333333333337</ele><time>2026-05-03T09:35:31.001Z</time></trkpt><trkpt lat="40.00956957154693" lon="9.028095795699148"><ele>429.0</ele><time>2026-05-03T09:35:32.001Z</time></trkpt><trkpt lat="40.00958026249745" lon="9.027875171992426"><ele>429.0</ele><time>2026-05-03T09:35:33.001Z</time></trkpt><trkpt lat="40.009562914465974" lon="9.02762269171113"><ele>429.0</ele><time>2026-05-03T09:35:34.001Z</time></trkpt><trkpt lat="40.00952498846329" lon="9.027344929250823"><ele>429.0</ele><time>2026-05-03T09:35:35.001Z</time></trkpt><trkpt lat="40.00949751165987" lon="9.027059838626581"><ele>429.5</ele><time>2026-05-03T09:35:36.001Z</time></trkpt><trkpt lat="40.009473719268826" lon="9.0267639219996"><ele>430.0</ele><time>2026-05-03T09:35:37.001Z</time></trkpt><trkpt lat="40.009450903109446" lon="9.026453001026201"><ele>428.6666666666667</ele><time>2026-05-03T09:35:38.001Z</time></trkpt><trkpt lat="40.009443126852304" lon="9.02621002877023"><ele>427.33333333333337</ele><time>2026-05-03T09:35:39.001Z</time></trkpt><trkpt lat="40.00943806322979" lon="9.025949705687392"><ele>426.0</ele><time>2026-05-03T09:35:40.001Z</time></trkpt><trkpt lat="40.00940657400491" lon="9.025749473435992"><ele>425.5</ele><time>2026-05-03T09:35:41.001Z</time></trkpt><trkpt lat="40.00939808948245" lon="9.025554661096251"><ele>425.0</ele><time>2026-05-03T09:35:42.001Z</time></trkpt><trkpt lat="40.00941582379475" lon="9.025383270287247"><ele>424.5</ele><time>2026-05-03T09:35:43.001Z</time></trkpt><trkpt lat="40.00946243462649" lon="9.025207529349851"><ele>424.0</ele><time>2026-05-03T09:35:44.001Z</time></trkpt><trkpt lat="40.00954086444791" lon="9.025040850565567"><ele>423.75</ele><time>2026-05-03T09:35:45.001Z</time></trkpt><trkpt lat="40.00963120184862" lon="9.024887722738578"><ele>423.5</ele><time>2026-05-03T09:35:46.001Z</time></trkpt><trkpt lat="40.009740945872906" lon="9.024736112775171"><ele>423.25</ele><time>2026-05-03T09:35:47.001Z</time></trkpt><trkpt lat="40.00974943568661" lon="9.024622249149019"><ele>423.0</ele><time>2026-05-03T09:35:48.001Z</time></trkpt><trkpt lat="40.00974931031115" lon="9.024489000492279"><ele>423.0</ele><time>2026-05-03T09:35:49.001Z</time></trkpt><trkpt lat="40.00970045747099" lon="9.024370530940555"><ele>423.0</ele><time>2026-05-03T09:35:50.001Z</time></trkpt><trkpt lat="40.009618256535454" lon="9.024242270872778"><ele>423.0</ele><time>2026-05-03T09:35:51.001Z</time></trkpt><trkpt lat="40.00951699654743" lon="9.02410645601248"><ele>423.0</ele><time>2026-05-03T09:35:52.001Z</time></trkpt><trkpt lat="40.0094112411384" lon="9.023947289923852"><ele>423.66666666666663</ele><time>2026-05-03T09:35:53.001Z</time></trkpt><trkpt lat="40.00930105547856" lon="9.023775258150808"><ele>424.3333333333333</ele><time>2026-05-03T09:35:54.001Z</time></trkpt><trkpt lat="40.009185812407694" lon="9.023598767377267"><ele>425.0</ele><time>2026-05-03T09:35:55.001Z</time></trkpt><trkpt lat="40.00907030456462" lon="9.023393880556602"><ele>426.0</ele><time>2026-05-03T09:35:56.001Z</time></trkpt><trkpt lat="40.00894128441141" lon="9.023231406278446"><ele>427.0</ele><time>2026-05-03T09:35:57.001Z</time></trkpt><trkpt lat="40.00884218587726" lon="9.023066813022083"><ele>428.0</ele><time>2026-05-03T09:35:58.001Z</time></trkpt><trkpt lat="40.00875336824521" lon="9.022899464900389"><ele>428.0</ele><time>2026-05-03T09:35:59.001Z</time></trkpt><trkpt lat="40.008692926605335" lon="9.022730174514573"><ele>428.0</ele><time>2026-05-03T09:36:00.001Z</time></trkpt><trkpt lat="40.00867144575905" lon="9.022538059713646"><ele>428.0</ele><time>2026-05-03T09:36:01.001Z</time></trkpt><trkpt lat="40.00868568213482" lon="9.022342917591306"><ele>428.0</ele><time>2026-05-03T09:36:02.001Z</time></trkpt><trkpt lat="40.00867493482443" lon="9.022137201104535"><ele>429.3333333333333</ele><time>2026-05-03T09:36:03.001Z</time></trkpt><trkpt lat="40.00865316166577" lon="9.021948326978638"><ele>430.66666666666663</ele><time>2026-05-03T09:36:04.001Z</time></trkpt><trkpt lat="40.00857846913067" lon="9.021755129831375"><ele>432.0</ele><time>2026-05-03T09:36:05.001Z</time></trkpt><trkpt lat="40.00848218740479" lon="9.021553094331056"><ele>432.75</ele><time>2026-05-03T09:36:06.001Z</time></trkpt><trkpt lat="40.00839978879907" lon="9.021373369386477"><ele>433.5</ele><time>2026-05-03T09:36:07.001Z</time></trkpt><trkpt lat="40.008346471176" lon="9.021210634113078"><ele>434.25</ele><time>2026-05-03T09:36:08.001Z</time></trkpt><trkpt lat="40.008333260507605" lon="9.021057769541251"><ele>435.0</ele><time>2026-05-03T09:36:09.001Z</time></trkpt><trkpt lat="40.0083495700129" lon="9.020909375684857"><ele>432.75</ele><time>2026-05-03T09:36:10.001Z</time></trkpt><trkpt lat="40.00840565729726" lon="9.020775138233818"><ele>430.5</ele><time>2026-05-03T09:36:11.001Z</time></trkpt><trkpt lat="40.0084990377354" lon="9.020651354926505"><ele>428.25</ele><time>2026-05-03T09:36:12.001Z</time></trkpt><trkpt lat="40.008604236753186" lon="9.020539782820105"><ele>426.0</ele><time>2026-05-03T09:36:13.001Z</time></trkpt><trkpt lat="40.00873101230868" lon="9.02041567856516"><ele>426.0</ele><time>2026-05-03T09:36:14.002Z</time></trkpt><trkpt lat="40.00886897358082" lon="9.020301091250088"><ele>426.0</ele><time>2026-05-03T09:36:15.002Z</time></trkpt><trkpt lat="40.009019632587965" lon="9.020198212998366"><ele>426.0</ele><time>2026-05-03T09:36:16.002Z</time></trkpt><trkpt lat="40.00918165075794" lon="9.02008679432606"><ele>429.0</ele><time>2026-05-03T09:36:17.002Z</time></trkpt><trkpt lat="40.009340643404926" lon="9.019982447406706"><ele>432.0</ele><time>2026-05-03T09:36:18.002Z</time></trkpt><trkpt lat="40.009499188238536" lon="9.019872672417952"><ele>435.0</ele><time>2026-05-03T09:36:19.002Z</time></trkpt><trkpt lat="40.00966726404617" lon="9.019747229672753"><ele>435.0</ele><time>2026-05-03T09:36:20.002Z</time></trkpt><trkpt lat="40.009843615973544" lon="9.019631164848377"><ele>435.0</ele><time>2026-05-03T09:36:21.002Z</time></trkpt><trkpt lat="40.01002669548523" lon="9.019512348259315"><ele>435.0</ele><time>2026-05-03T09:36:22.002Z</time></trkpt><trkpt lat="40.01019008416836" lon="9.019399197282642"><ele>439.0</ele><time>2026-05-03T09:36:23.002Z</time></trkpt><trkpt lat="40.01035677698184" lon="9.019283329444502"><ele>443.0</ele><time>2026-05-03T09:36:24.002Z</time></trkpt><trkpt lat="40.010513769878756" lon="9.019172184793542"><ele>447.0</ele><time>2026-05-03T09:36:25.002Z</time></trkpt><trkpt lat="40.01065297694864" lon="9.019048606292834"><ele>447.0</ele><time>2026-05-03T09:36:26.002Z</time></trkpt><trkpt lat="40.010767153419195" lon="9.018900000518084"><ele>447.0</ele><time>2026-05-03T09:36:27.002Z</time></trkpt><trkpt lat="40.01086131852789" lon="9.018724912880437"><ele>447.0</ele><time>2026-05-03T09:36:28.002Z</time></trkpt><trkpt lat="40.010945594038034" lon="9.018512834292936"><ele>454.0</ele><time>2026-05-03T09:36:29.002Z</time></trkpt><trkpt lat="40.011022459968835" lon="9.018279700749131"><ele>461.0</ele><time>2026-05-03T09:36:30.002Z</time></trkpt><trkpt lat="40.01110304554763" lon="9.018044037037678"><ele>468.0</ele><time>2026-05-03T09:36:31.002Z</time></trkpt><trkpt lat="40.011192013067834" lon="9.017806716712334"><ele>468.0</ele><time>2026-05-03T09:36:32.002Z</time></trkpt><trkpt lat="40.011273264073864" lon="9.017589761709752"><ele>468.0</ele><time>2026-05-03T09:36:33.002Z</time></trkpt><trkpt lat="40.0113632363047" lon="9.017400739595828"><ele>468.0</ele><time>2026-05-03T09:36:34.002Z</time></trkpt><trkpt lat="40.01147489960614" lon="9.017244274691613"><ele>471.0</ele><time>2026-05-03T09:36:35.002Z</time></trkpt><trkpt lat="40.011606408659915" lon="9.017130752450235"><ele>474.0</ele><time>2026-05-03T09:36:36.002Z</time></trkpt><trkpt lat="40.01175785614841" lon="9.017059673281013"><ele>477.0</ele><time>2026-05-03T09:36:37.002Z</time></trkpt><trkpt lat="40.01193527276483" lon="9.017026746924687"><ele>477.0</ele><time>2026-05-03T09:36:38.002Z</time></trkpt><trkpt lat="40.01211827048687" lon="9.016996747710378"><ele>477.0</ele><time>2026-05-03T09:36:39.002Z</time></trkpt><trkpt lat="40.012307636629956" lon="9.016968793695236"><ele>477.0</ele><time>2026-05-03T09:36:40.002Z</time></trkpt><trkpt lat="40.01248138574264" lon="9.01694124061934"><ele>476.5</ele><time>2026-05-03T09:36:41.002Z</time></trkpt><trkpt lat="40.012629896723325" lon="9.016903833843605"><ele>476.0</ele><time>2026-05-03T09:36:42.002Z</time></trkpt><trkpt lat="40.01277019390432" lon="9.016850873344497"><ele>475.5</ele><time>2026-05-03T09:36:43Z</time></trkpt><trkpt lat="40.012892967850554" lon="9.016771084962539"><ele>475.0</ele><time>2026-05-03T09:36:44Z</time></trkpt><trkpt lat="40.0129996553274" lon="9.016657579472469"><ele>475.75</ele><time>2026-05-03T09:36:45Z</time></trkpt><trkpt lat="40.01307023617022" lon="9.016510051901047"><ele>476.5</ele><time>2026-05-03T09:36:46Z</time></trkpt><trkpt lat="40.013117032851106" lon="9.016355559558116"><ele>477.25</ele><time>2026-05-03T09:36:47Z</time></trkpt><trkpt lat="40.01311147611803" lon="9.016191928393345"><ele>478.0</ele><time>2026-05-03T09:36:48Z</time></trkpt><trkpt lat="40.01308492348994" lon="9.016008676881977"><ele>474.5</ele><time>2026-05-03T09:36:49Z</time></trkpt><trkpt lat="40.013067495632434" lon="9.01581510757363"><ele>471.0</ele><time>2026-05-03T09:36:50Z</time></trkpt><trkpt lat="40.013083142239225" lon="9.01564467444688"><ele>467.5</ele><time>2026-05-03T09:36:51Z</time></trkpt><trkpt lat="40.01313460186597" lon="9.015491013104098"><ele>464.0</ele><time>2026-05-03T09:36:52Z</time></trkpt><trkpt lat="40.01323530586219" lon="9.01535912033025"><ele>464.66666666666663</ele><time>2026-05-03T09:36:53Z</time></trkpt><trkpt lat="40.01336976167992" lon="9.015223634572022"><ele>465.33333333333337</ele><time>2026-05-03T09:36:54Z</time></trkpt><trkpt lat="40.01351199192565" lon="9.01507552559105"><ele>466.0</ele><time>2026-05-03T09:36:55Z</time></trkpt><trkpt lat="40.013644205040265" lon="9.014921174317552"><ele>466.0</ele><time>2026-05-03T09:36:56Z</time></trkpt><trkpt lat="40.013751958987875" lon="9.014773558139272"><ele>466.0</ele><time>2026-05-03T09:36:57Z</time></trkpt><trkpt lat="40.01382736686608" lon="9.014610998892133"><ele>466.0</ele><time>2026-05-03T09:36:58Z</time></trkpt><trkpt lat="40.01386490713799" lon="9.014434976549158"><ele>466.0</ele><time>2026-05-03T09:36:59Z</time></trkpt><trkpt lat="40.013880438344245" lon="9.014260870837047"><ele>466.75</ele><time>2026-05-03T09:37:00Z</time></trkpt><trkpt lat="40.01390133199165" lon="9.01409820284543"><ele>467.5</ele><time>2026-05-03T09:37:01Z</time></trkpt><trkpt lat="40.01397472474225" lon="9.013971399493714"><ele>468.25</ele><time>2026-05-03T09:37:02Z</time></trkpt><trkpt lat="40.01408137774953" lon="9.013876691626932"><ele>469.0</ele><time>2026-05-03T09:37:03Z</time></trkpt><trkpt lat="40.014212281509536" lon="9.013799280027145"><ele>469.0</ele><time>2026-05-03T09:37:04Z</time></trkpt><trkpt lat="40.014355420931196" lon="9.013698435252591"><ele>469.0</ele><time>2026-05-03T09:37:05Z</time></trkpt><trkpt lat="40.01450744900301" lon="9.01354935211852"><ele>469.0</ele><time>2026-05-03T09:37:06Z</time></trkpt><trkpt lat="40.014621388082524" lon="9.013389537986352"><ele>471.0</ele><time>2026-05-03T09:37:07Z</time></trkpt><trkpt lat="40.01471728573469" lon="9.01323544058811"><ele>473.0</ele><time>2026-05-03T09:37:08Z</time></trkpt><trkpt lat="40.014784451913094" lon="9.0130721287744"><ele>475.0</ele><time>2026-05-03T09:37:09Z</time></trkpt><trkpt lat="40.014816122598766" lon="9.012900691571666"><ele>477.0</ele><time>2026-05-03T09:37:10Z</time></trkpt><trkpt lat="40.014812568303626" lon="9.012729809871141"><ele>477.0</ele><time>2026-05-03T09:37:11Z</time></trkpt><trkpt lat="40.01476635248166" lon="9.012564032247578"><ele>477.0</ele><time>2026-05-03T09:37:12Z</time></trkpt><trkpt lat="40.01469666192014" lon="9.012388953183391"><ele>477.0</ele><time>2026-05-03T09:37:13Z</time></trkpt><trkpt lat="40.01465936060316" lon="9.01222575794684"><ele>477.0</ele><time>2026-05-03T09:37:14Z</time></trkpt><trkpt lat="40.0146700431299" lon="9.012051144240383"><ele>480.0</ele><time>2026-05-03T09:37:15Z</time></trkpt><trkpt lat="40.01471666450411" lon="9.01185125076582"><ele>483.0</ele><time>2026-05-03T09:37:16Z</time></trkpt><trkpt lat="40.01474285183557" lon="9.011671072139734"><ele>486.0</ele><time>2026-05-03T09:37:17Z</time></trkpt><trkpt lat="40.014783783786996" lon="9.011466506081971"><ele>486.0</ele><time>2026-05-03T09:37:18Z</time></trkpt><trkpt lat="40.014832417117795" lon="9.01124824527541"><ele>486.0</ele><time>2026-05-03T09:37:19Z</time></trkpt><trkpt lat="40.01489167732187" lon="9.011042303432172"><ele>486.0</ele><time>2026-05-03T09:37:20Z</time></trkpt><trkpt lat="40.01497402610806" lon="9.01082750509949"><ele>482.33333333333337</ele><time>2026-05-03T09:37:21Z</time></trkpt><trkpt lat="40.015059184461926" lon="9.01061337543161"><ele>478.6666666666667</ele><time>2026-05-03T09:37:22Z</time></trkpt><trkpt lat="40.01516065785024" lon="9.01039591656172"><ele>475.0</ele><time>2026-05-03T09:37:23Z</time></trkpt><trkpt lat="40.01525279616204" lon="9.010201951998257"><ele>475.0</ele><time>2026-05-03T09:37:24Z</time></trkpt><trkpt lat="40.01533540312347" lon="9.010025496835913"><ele>475.0</ele><time>2026-05-03T09:37:25Z</time></trkpt><trkpt lat="40.015428297162934" lon="9.0098731586814"><ele>475.0</ele><time>2026-05-03T09:37:26.001Z</time></trkpt><trkpt lat="40.01554202302727" lon="9.009736356646954"><ele>477.0</ele><time>2026-05-03T09:37:27.001Z</time></trkpt><trkpt lat="40.01567331881677" lon="9.009625670383137"><ele>479.0</ele><time>2026-05-03T09:37:28.001Z</time></trkpt><trkpt lat="40.015818945605204" lon="9.009556175656126"><ele>481.0</ele><time>2026-05-03T09:37:29.001Z</time></trkpt><trkpt lat="40.015987640214995" lon="9.00951334062837"><ele>481.0</ele><time>2026-05-03T09:37:30.001Z</time></trkpt><trkpt lat="40.01616858685288" lon="9.009477527460747"><ele>481.0</ele><time>2026-05-03T09:37:31.001Z</time></trkpt><trkpt lat="40.01636200818343" lon="9.009437718467574"><ele>481.0</ele><time>2026-05-03T09:37:32.001Z</time></trkpt><trkpt lat="40.016555590139" lon="9.00938571757216"><ele>479.33333333333337</ele><time>2026-05-03T09:37:33.001Z</time></trkpt><trkpt lat="40.01676539284753" lon="9.009319998555581"><ele>477.66666666666663</ele><time>2026-05-03T09:37:34.001Z</time></trkpt><trkpt lat="40.0169873020948" lon="9.009250077951261"><ele>476.0</ele><time>2026-05-03T09:37:35.001Z</time></trkpt><trkpt lat="40.017199448543785" lon="9.009192732056986"><ele>483.5</ele><time>2026-05-03T09:37:36.001Z</time></trkpt><trkpt lat="40.01741033625837" lon="9.009125458906809"><ele>491.0</ele><time>2026-05-03T09:37:37.001Z</time></trkpt><trkpt lat="40.01764585320142" lon="9.009059040795895"><ele>491.0</ele><time>2026-05-03T09:37:38.001Z</time></trkpt><trkpt lat="40.01787354569239" lon="9.00899268745218"><ele>491.0</ele><time>2026-05-03T09:37:39.001Z</time></trkpt><trkpt lat="40.01808452229785" lon="9.008937543723055"><ele>491.0</ele><time>2026-05-03T09:37:40.001Z</time></trkpt><trkpt lat="40.0182991424576" lon="9.008856822129028"><ele>487.0</ele><time>2026-05-03T09:37:41.001Z</time></trkpt><trkpt lat="40.01851735801141" lon="9.008748152722319"><ele>483.0</ele><time>2026-05-03T09:37:42.001Z</time></trkpt><trkpt lat="40.018734063912596" lon="9.008629315221587"><ele>483.0</ele><time>2026-05-03T09:37:43.001Z</time></trkpt><trkpt lat="40.0189631590172" lon="9.008509650849815"><ele>483.0</ele><time>2026-05-03T09:37:44.001Z</time></trkpt><trkpt lat="40.01917740466965" lon="9.008366821031064"><ele>486.0</ele><time>2026-05-03T09:37:45.001Z</time></trkpt><trkpt lat="40.019388983903475" lon="9.008278456292368"><ele>489.0</ele><time>2026-05-03T09:37:46.001Z</time></trkpt><trkpt lat="40.01958149520741" lon="9.00815992375854"><ele>492.0</ele><time>2026-05-03T09:37:47.001Z</time></trkpt><trkpt lat="40.019767244452424" lon="9.008078213738537"><ele>492.0</ele><time>2026-05-03T09:37:48.001Z</time></trkpt><trkpt lat="40.019949525343655" lon="9.008002200661121"><ele>492.0</ele><time>2026-05-03T09:37:49.001Z</time></trkpt><trkpt lat="40.020106385408035" lon="9.007943493255242"><ele>492.0</ele><time>2026-05-03T09:37:50.001Z</time></trkpt><trkpt lat="40.02024435850088" lon="9.007877294257641"><ele>491.40000000000003</ele><time>2026-05-03T09:37:51.001Z</time></trkpt><trkpt lat="40.02036327766489" lon="9.007800902541724"><ele>490.80000000000007</ele><time>2026-05-03T09:37:52.001Z</time></trkpt><trkpt lat="40.02045043640432" lon="9.007716938554172"><ele>490.2</ele><time>2026-05-03T09:37:53.001Z</time></trkpt><trkpt lat="40.02050498883846" lon="9.00761331494448"><ele>489.6</ele><time>2026-05-03T09:37:54.001Z</time></trkpt><trkpt lat="40.02051962614271" lon="9.007494304322645"><ele>489.0</ele><time>2026-05-03T09:37:55.001Z</time></trkpt><trkpt lat="40.02050512535718" lon="9.00736838700985"><ele>489.0</ele><time>2026-05-03T09:37:56.001Z</time></trkpt><trkpt lat="40.0204183665144" lon="9.007269798040454"><ele>489.0</ele><time>2026-05-03T09:37:57.001Z</time></trkpt><trkpt lat="40.0203148957502" lon="9.00719139245567"><ele>489.0</ele><time>2026-05-03T09:37:58.001Z</time></trkpt><trkpt lat="40.02019091666029" lon="9.007125094448249"><ele>489.0</ele><time>2026-05-03T09:37:59.001Z</time></trkpt><trkpt lat="40.020062243621126" lon="9.007036060471876"><ele>492.66666666666663</ele><time>2026-05-03T09:38:00.001Z</time></trkpt><trkpt lat="40.01993915543023" lon="9.00691583691603"><ele>496.3333333333333</ele><time>2026-05-03T09:38:01.001Z</time></trkpt><trkpt lat="40.019814252402945" lon="9.006763442747578"><ele>500.0</ele><time>2026-05-03T09:38:02.001Z</time></trkpt><trkpt lat="40.01970978547589" lon="9.006584359677072"><ele>500.0</ele><time>2026-05-03T09:38:03.001Z</time></trkpt><trkpt lat="40.01957531446102" lon="9.006410658997122"><ele>500.0</ele><time>2026-05-03T09:38:04.001Z</time></trkpt><trkpt lat="40.019495910371994" lon="9.006222994495149"><ele>500.0</ele><time>2026-05-03T09:38:05.001Z</time></trkpt><trkpt lat="40.019438879944936" lon="9.006027746429504"><ele>501.3333333333333</ele><time>2026-05-03T09:38:06.001Z</time></trkpt><trkpt lat="40.01941583739956" lon="9.005821831990955"><ele>502.66666666666663</ele><time>2026-05-03T09:38:07.001Z</time></trkpt><trkpt lat="40.019418875119996" lon="9.005626310723756"><ele>504.0</ele><time>2026-05-03T09:38:08.001Z</time></trkpt><trkpt lat="40.01945614916065" lon="9.005432030625505"><ele>504.0</ele><time>2026-05-03T09:38:09.001Z</time></trkpt><trkpt lat="40.01952260520658" lon="9.00523733862375"><ele>504.0</ele><time>2026-05-03T09:38:10.001Z</time></trkpt><trkpt lat="40.019600927963275" lon="9.005026014403072"><ele>504.0</ele><time>2026-05-03T09:38:11.001Z</time></trkpt><trkpt lat="40.01969730071097" lon="9.004810464877378"><ele>507.0</ele><time>2026-05-03T09:38:12.001Z</time></trkpt><trkpt lat="40.019787690312256" lon="9.004611551311124"><ele>510.0</ele><time>2026-05-03T09:38:13.001Z</time></trkpt><trkpt lat="40.01986125876738" lon="9.004418283633786"><ele>513.0</ele><time>2026-05-03T09:38:14.001Z</time></trkpt><trkpt lat="40.019923857889566" lon="9.00421558138996"><ele>512.0</ele><time>2026-05-03T09:38:15.001Z</time></trkpt><trkpt lat="40.019979412692905" lon="9.003993880657712"><ele>511.0</ele><time>2026-05-03T09:38:16.001Z</time></trkpt><trkpt lat="40.02001505253197" lon="9.003768878075217"><ele>510.0</ele><time>2026-05-03T09:38:17.001Z</time></trkpt><trkpt lat="40.02002714904555" lon="9.003534355897385"><ele>506.66666666666663</ele><time>2026-05-03T09:38:18.001Z</time></trkpt><trkpt lat="40.02001760898805" lon="9.003283314494402"><ele>503.3333333333333</ele><time>2026-05-03T09:38:19.001Z</time></trkpt><trkpt lat="40.01998990283047" lon="9.003021069988229"><ele>500.0</ele><time>2026-05-03T09:38:20.001Z</time></trkpt><trkpt lat="40.01994933469418" lon="9.002773347735086"><ele>500.0</ele><time>2026-05-03T09:38:21.001Z</time></trkpt><trkpt lat="40.01991438787438" lon="9.002534723817504"><ele>500.0</ele><time>2026-05-03T09:38:22.001Z</time></trkpt><trkpt lat="40.01983867982464" lon="9.002299698997186"><ele>500.0</ele><time>2026-05-03T09:38:23.001Z</time></trkpt><trkpt lat="40.01973831680032" lon="9.002102483162089"><ele>498.3333333333333</ele><time>2026-05-03T09:38:24.001Z</time></trkpt><trkpt lat="40.0196843252147" lon="9.001884923196377"><ele>496.66666666666663</ele><time>2026-05-03T09:38:25.001Z</time></trkpt><trkpt lat="40.0196597568903" lon="9.001646919982754"><ele>495.0</ele><time>2026-05-03T09:38:26.001Z</time></trkpt><trkpt lat="40.01963714742047" lon="9.001418397011296"><ele>495.0</ele><time>2026-05-03T09:38:27.001Z</time></trkpt><trkpt lat="40.019606813091464" lon="9.001203357318337"><ele>495.0</ele><time>2026-05-03T09:38:28.001Z</time></trkpt><trkpt lat="40.01959317173773" lon="9.001011104341028"><ele>495.0</ele><time>2026-05-03T09:38:29.001Z</time></trkpt><trkpt lat="40.01961329444346" lon="9.000834657362063"><ele>496.75</ele><time>2026-05-03T09:38:30.001Z</time></trkpt><trkpt lat="40.019661478794944" lon="9.000675088982513"><ele>498.5</ele><time>2026-05-03T09:38:31.001Z</time></trkpt><trkpt lat="40.01974140139789" lon="9.000523213590965"><ele>500.25</ele><time>2026-05-03T09:38:32.001Z</time></trkpt><trkpt lat="40.01983416028161" lon="9.000390883416586"><ele>502.0</ele><time>2026-05-03T09:38:33.001Z</time></trkpt><trkpt lat="40.01993489089685" lon="9.00024664748617"><ele>500.5</ele><time>2026-05-03T09:38:34.001Z</time></trkpt><trkpt lat="40.02001459108481" lon="9.000101198008805"><ele>499.0</ele><time>2026-05-03T09:38:35.001Z</time></trkpt><trkpt lat="40.020062278136336" lon="8.999946743463266"><ele>497.5</ele><time>2026-05-03T09:38:36.001Z</time></trkpt><trkpt lat="40.020076361947204" lon="8.999799768355164"><ele>496.0</ele><time>2026-05-03T09:38:37.001Z</time></trkpt><trkpt lat="40.02004631638077" lon="8.999650497751801"><ele>496.0</ele><time>2026-05-03T09:38:38.001Z</time></trkpt><trkpt lat="40.01998373588444" lon="8.999510995744666"><ele>496.0</ele><time>2026-05-03T09:38:39.001Z</time></trkpt><trkpt lat="40.019889101033236" lon="8.999377614811166"><ele>496.0</ele><time>2026-05-03T09:38:40.001Z</time></trkpt><trkpt lat="40.019822722872235" lon="8.999240312559113"><ele>496.0</ele><time>2026-05-03T09:38:41.001Z</time></trkpt><trkpt lat="40.01979507017031" lon="8.999091092729406"><ele>497.0</ele><time>2026-05-03T09:38:42.001Z</time></trkpt><trkpt lat="40.01979020256067" lon="8.998937198022379"><ele>498.0</ele><time>2026-05-03T09:38:43.001Z</time></trkpt><trkpt lat="40.01981314985361" lon="8.998773361587515"><ele>499.0</ele><time>2026-05-03T09:38:44.001Z</time></trkpt><trkpt lat="40.01987052106784" lon="8.99860964622046"><ele>500.0</ele><time>2026-05-03T09:38:45.001Z</time></trkpt><trkpt lat="40.01994700007662" lon="8.998444782636005"><ele>498.66666666666663</ele><time>2026-05-03T09:38:46.001Z</time></trkpt><trkpt lat="40.02003421639255" lon="8.998276345993427"><ele>497.33333333333337</ele><time>2026-05-03T09:38:47.001Z</time></trkpt><trkpt lat="40.020140534425344" lon="8.998110426987223"><ele>496.0</ele><time>2026-05-03T09:38:48.002Z</time></trkpt><trkpt lat="40.020269072851804" lon="8.997956185165211"><ele>496.0</ele><time>2026-05-03T09:38:49Z</time></trkpt><trkpt lat="40.020424377201444" lon="8.997810248671657"><ele>496.0</ele><time>2026-05-03T09:38:50Z</time></trkpt><trkpt lat="40.02057899672108" lon="8.99767991477517"><ele>496.0</ele><time>2026-05-03T09:38:51Z</time></trkpt><trkpt lat="40.02074158964832" lon="8.997550943051582"><ele>495.6666666666667</ele><time>2026-05-03T09:38:52Z</time></trkpt><trkpt lat="40.02090815859327" lon="8.997416719520718"><ele>495.33333333333337</ele><time>2026-05-03T09:38:53Z</time></trkpt><trkpt lat="40.02107829089006" lon="8.99726748632965"><ele>495.0</ele><time>2026-05-03T09:38:54Z</time></trkpt><trkpt lat="40.021241608623065" lon="8.997098264914019"><ele>495.0</ele><time>2026-05-03T09:38:55Z</time></trkpt><trkpt lat="40.021413785953364" lon="8.996915352179142"><ele>495.0</ele><time>2026-05-03T09:38:56Z</time></trkpt><trkpt lat="40.02158923003328" lon="8.996724851546883"><ele>498.0</ele><time>2026-05-03T09:38:57Z</time></trkpt><trkpt lat="40.02175864801508" lon="8.99654077540955"><ele>501.0</ele><time>2026-05-03T09:38:58Z</time></trkpt><trkpt lat="40.0219419609726" lon="8.996346294379302"><ele>501.0</ele><time>2026-05-03T09:38:59Z</time></trkpt><trkpt lat="40.022125582738205" lon="8.99615255162265"><ele>501.0</ele><time>2026-05-03T09:39:00Z</time></trkpt><trkpt lat="40.02230371245583" lon="8.995962765680305"><ele>502.0</ele><time>2026-05-03T09:39:01Z</time></trkpt><trkpt lat="40.02247352126536" lon="8.995782169874962"><ele>503.0</ele><time>2026-05-03T09:39:02Z</time></trkpt><trkpt lat="40.02268180343943" lon="8.995545059936438"><ele>503.0</ele><time>2026-05-03T09:39:03Z</time></trkpt><trkpt lat="40.02286036142749" lon="8.995347266900987"><ele>503.0</ele><time>2026-05-03T09:39:04Z</time></trkpt><trkpt lat="40.02304739734922" lon="8.995149076878516"><ele>505.3333333333333</ele><time>2026-05-03T09:39:05Z</time></trkpt><trkpt lat="40.02322056637613" lon="8.994966453782192"><ele>507.66666666666663</ele><time>2026-05-03T09:39:06Z</time></trkpt><trkpt lat="40.02337801442216" lon="8.99480372034547"><ele>510.0</ele><time>2026-05-03T09:39:07Z</time></trkpt><trkpt lat="40.023528417832786" lon="8.994652615930368"><ele>510.0</ele><time>2026-05-03T09:39:08Z</time></trkpt><trkpt lat="40.02367792270686" lon="8.994530144920068"><ele>510.0</ele><time>2026-05-03T09:39:09Z</time></trkpt><trkpt lat="40.02384131658435" lon="8.994481525466869"><ele>510.0</ele><time>2026-05-03T09:39:10Z</time></trkpt><trkpt lat="40.02401039319048" lon="8.994464936069113"><ele>509.66666666666663</ele><time>2026-05-03T09:39:11Z</time></trkpt><trkpt lat="40.02420750311475" lon="8.994436899895975"><ele>509.3333333333333</ele><time>2026-05-03T09:39:12Z</time></trkpt><trkpt lat="40.02441244200487" lon="8.994369904031887"><ele>509.0</ele><time>2026-05-03T09:39:13Z</time></trkpt><trkpt lat="40.024629006974365" lon="8.99433778059714"><ele>509.0</ele><time>2026-05-03T09:39:14Z</time></trkpt><trkpt lat="40.02483256307874" lon="8.99431207681169"><ele>509.0</ele><time>2026-05-03T09:39:15Z</time></trkpt><trkpt lat="40.025013235224556" lon="8.994303380387661"><ele>509.0</ele><time>2026-05-03T09:39:16Z</time></trkpt><trkpt lat="40.02518050855953" lon="8.994306111285011"><ele>509.5</ele><time>2026-05-03T09:39:17Z</time></trkpt><trkpt lat="40.02531691356702" lon="8.994315863017762"><ele>510.0</ele><time>2026-05-03T09:39:18Z</time></trkpt><trkpt lat="40.02543712998162" lon="8.994288534937887"><ele>510.5</ele><time>2026-05-03T09:39:19Z</time></trkpt><trkpt lat="40.02553677655654" lon="8.99420893948967"><ele>511.0</ele><time>2026-05-03T09:39:20Z</time></trkpt><trkpt lat="40.025618276180644" lon="8.994070143178574"><ele>514.3333333333334</ele><time>2026-05-03T09:39:21Z</time></trkpt><trkpt lat="40.025694506507485" lon="8.99387284770818"><ele>517.6666666666666</ele><time>2026-05-03T09:39:22Z</time></trkpt><trkpt lat="40.02578869385194" lon="8.993650028818791"><ele>521.0</ele><time>2026-05-03T09:39:23Z</time></trkpt><trkpt lat="40.02589731093647" lon="8.993422826763567"><ele>524.6666666666666</ele><time>2026-05-03T09:39:24Z</time></trkpt><trkpt lat="40.02600928920648" lon="8.993194289917124"><ele>528.3333333333334</ele><time>2026-05-03T09:39:25Z</time></trkpt><trkpt lat="40.02612717463296" lon="8.992990164463745"><ele>532.0</ele><time>2026-05-03T09:39:26Z</time></trkpt><trkpt lat="40.0262531001184" lon="8.99278685930809"><ele>532.0</ele><time>2026-05-03T09:39:27Z</time></trkpt><trkpt lat="40.02638736672301" lon="8.99260371912257"><ele>532.0</ele><time>2026-05-03T09:39:28Z</time></trkpt><trkpt lat="40.026533562688016" lon="8.992443068602157"><ele>532.0</ele><time>2026-05-03T09:39:29Z</time></trkpt><trkpt lat="40.026689266823944" lon="8.992330835886587"><ele>533.0</ele><time>2026-05-03T09:39:30Z</time></trkpt><trkpt lat="40.02684340041421" lon="8.992249340781793"><ele>534.0</ele><time>2026-05-03T09:39:31Z</time></trkpt><trkpt lat="40.02699188965135" lon="8.992212907111895"><ele>535.0</ele><time>2026-05-03T09:39:32Z</time></trkpt><trkpt lat="40.027129502228824" lon="8.992215258361634"><ele>535.0</ele><time>2026-05-03T09:39:33Z</time></trkpt><trkpt lat="40.027273809241485" lon="8.992266394578229"><ele>535.0</ele><time>2026-05-03T09:39:34Z</time></trkpt><trkpt lat="40.02740157492239" lon="8.992313604434718"><ele>535.0</ele><time>2026-05-03T09:39:35Z</time></trkpt><trkpt lat="40.027518521541865" lon="8.992334570209604"><ele>535.0</ele><time>2026-05-03T09:39:36Z</time></trkpt><trkpt lat="40.02762718684631" lon="8.99230556097378"><ele>535.5</ele><time>2026-05-03T09:39:37Z</time></trkpt><trkpt lat="40.027726631526214" lon="8.992219824341182"><ele>536.0</ele><time>2026-05-03T09:39:38Z</time></trkpt><trkpt lat="40.02781889942025" lon="8.992082734358963"><ele>536.5</ele><time>2026-05-03T09:39:39Z</time></trkpt><trkpt lat="40.027923031386685" lon="8.991926664576479"><ele>537.0</ele><time>2026-05-03T09:39:40Z</time></trkpt><trkpt lat="40.02803935248196" lon="8.991766827868648"><ele>539.3333333333334</ele><time>2026-05-03T09:39:41Z</time></trkpt><trkpt lat="40.02816467014178" lon="8.991593246558935"><ele>541.6666666666667</ele><time>2026-05-03T09:39:42Z</time></trkpt><trkpt lat="40.02827778443556" lon="8.99140664409218"><ele>544.0</ele><time>2026-05-03T09:39:43Z</time></trkpt><trkpt lat="40.028376111592465" lon="8.991212746969488"><ele>544.0</ele><time>2026-05-03T09:39:44Z</time></trkpt><trkpt lat="40.028480519580775" lon="8.990996578689188"><ele>544.0</ele><time>2026-05-03T09:39:45Z</time></trkpt><trkpt lat="40.02856231912224" lon="8.990781105468244"><ele>544.0</ele><time>2026-05-03T09:39:46Z</time></trkpt><trkpt lat="40.02861571760763" lon="8.99055623162731"><ele>545.6666666666667</ele><time>2026-05-03T09:39:47.001Z</time></trkpt><trkpt lat="40.02865292939926" lon="8.990304807806961"><ele>547.3333333333334</ele><time>2026-05-03T09:39:48.001Z</time></trkpt><trkpt lat="40.02869775560757" lon="8.990067370450484"><ele>549.0</ele><time>2026-05-03T09:39:49.001Z</time></trkpt><trkpt lat="40.02876362267684" lon="8.98985835846018"><ele>550.0</ele><time>2026-05-03T09:39:50.001Z</time></trkpt><trkpt lat="40.028856258667" lon="8.989678091671719"><ele>551.0</ele><time>2026-05-03T09:39:51.001Z</time></trkpt><trkpt lat="40.02897369106646" lon="8.989541199637676"><ele>552.0</ele><time>2026-05-03T09:39:52.001Z</time></trkpt><trkpt lat="40.029105439829905" lon="8.98944328559005"><ele>553.0</ele><time>2026-05-03T09:39:53.001Z</time></trkpt><trkpt lat="40.02926219423769" lon="8.989349789827532"><ele>554.0</ele><time>2026-05-03T09:39:54.001Z</time></trkpt><trkpt lat="40.02942615002796" lon="8.989256505493794"><ele>555.0</ele><time>2026-05-03T09:39:55.001Z</time></trkpt><trkpt lat="40.029588440688926" lon="8.98914037430097"><ele>555.0</ele><time>2026-05-03T09:39:56.001Z</time></trkpt><trkpt lat="40.0297422175494" lon="8.988996102179044"><ele>555.0</ele><time>2026-05-03T09:39:57.001Z</time></trkpt><trkpt lat="40.02990255000664" lon="8.988838019747389"><ele>555.0</ele><time>2026-05-03T09:39:58.001Z</time></trkpt><trkpt lat="40.03006489948596" lon="8.988668797845648"><ele>553.3333333333334</ele><time>2026-05-03T09:39:59.001Z</time></trkpt><trkpt lat="40.030210087506575" lon="8.988508710116546"><ele>551.6666666666667</ele><time>2026-05-03T09:40:00.001Z</time></trkpt><trkpt lat="40.03034721187408" lon="8.988383772436295"><ele>550.0</ele><time>2026-05-03T09:40:01.001Z</time></trkpt><trkpt lat="40.03047482271591" lon="8.98829795335966"><ele>553.0</ele><time>2026-05-03T09:40:02.001Z</time></trkpt><trkpt lat="40.030618191723626" lon="8.988255974417676"><ele>556.0</ele><time>2026-05-03T09:40:03.001Z</time></trkpt><trkpt lat="40.03077196463334" lon="8.988262281659637"><ele>559.0</ele><time>2026-05-03T09:40:04.001Z</time></trkpt><trkpt lat="40.030931635144206" lon="8.988298979492109"><ele>559.0</ele><time>2026-05-03T09:40:05.001Z</time></trkpt><trkpt lat="40.03108832779031" lon="8.988343690947012"><ele>559.0</ele><time>2026-05-03T09:40:06.001Z</time></trkpt><trkpt lat="40.03124192876981" lon="8.988357268695967"><ele>559.0</ele><time>2026-05-03T09:40:07.001Z</time></trkpt><trkpt lat="40.03140302142085" lon="8.988325264300839"><ele>559.0</ele><time>2026-05-03T09:40:08.001Z</time></trkpt><trkpt lat="40.031577544358164" lon="8.988264557302996"><ele>559.0</ele><time>2026-05-03T09:40:09.001Z</time></trkpt><trkpt lat="40.031734383118724" lon="8.988205708438786"><ele>559.0</ele><time>2026-05-03T09:40:10.001Z</time></trkpt><trkpt lat="40.03189429843306" lon="8.988156030360425"><ele>560.6666666666667</ele><time>2026-05-03T09:40:11.001Z</time></trkpt><trkpt lat="40.0320489467571" lon="8.988117784935348"><ele>562.3333333333334</ele><time>2026-05-03T09:40:12.001Z</time></trkpt><trkpt lat="40.03219614226465" lon="8.988076178089612"><ele>564.0</ele><time>2026-05-03T09:40:13.001Z</time></trkpt><trkpt lat="40.03233487466615" lon="8.988036943002054"><ele>564.0</ele><time>2026-05-03T09:40:14.001Z</time></trkpt><trkpt lat="40.032470407895424" lon="8.987985940799929"><ele>564.0</ele><time>2026-05-03T09:40:15.001Z</time></trkpt><trkpt lat="40.03259588908415" lon="8.987938350601596"><ele>564.0</ele><time>2026-05-03T09:40:16.001Z</time></trkpt><trkpt lat="40.03272630623941" lon="8.987901479843522"><ele>564.0</ele><time>2026-05-03T09:40:17.001Z</time></trkpt><trkpt lat="40.03284670581" lon="8.987871016918158"><ele>565.0</ele><time>2026-05-03T09:40:18.001Z</time></trkpt><trkpt lat="40.03297369671462" lon="8.987875355611399"><ele>566.0</ele><time>2026-05-03T09:40:19.001Z</time></trkpt><trkpt lat="40.03310200220593" lon="8.98788379414803"><ele>567.0</ele><time>2026-05-03T09:40:20.001Z</time></trkpt><trkpt lat="40.03322899125059" lon="8.987892861616476"><ele>568.0</ele><time>2026-05-03T09:40:21.001Z</time></trkpt><trkpt lat="40.03335931435245" lon="8.987896673240924"><ele>569.25</ele><time>2026-05-03T09:40:22.001Z</time></trkpt><trkpt lat="40.03349104326715" lon="8.987894508836037"><ele>570.5</ele><time>2026-05-03T09:40:23.001Z</time></trkpt><trkpt lat="40.03361422669215" lon="8.987883009156773"><ele>571.75</ele><time>2026-05-03T09:40:24.001Z</time></trkpt><trkpt lat="40.03373975387418" lon="8.987845820101839"><ele>573.0</ele><time>2026-05-03T09:40:25.001Z</time></trkpt><trkpt lat="40.033860786327885" lon="8.987795325547943"><ele>573.0</ele><time>2026-05-03T09:40:26.001Z</time></trkpt><trkpt lat="40.033981643290595" lon="8.987739793550606"><ele>573.0</ele><time>2026-05-03T09:40:27.001Z</time></trkpt><trkpt lat="40.034103363699764" lon="8.987690903437816"><ele>573.0</ele><time>2026-05-03T09:40:28.001Z</time></trkpt><trkpt lat="40.03421790841167" lon="8.987627664891486"><ele>573.0</ele><time>2026-05-03T09:40:29.001Z</time></trkpt><trkpt lat="40.03433104998591" lon="8.987569185042432"><ele>573.5</ele><time>2026-05-03T09:40:30.001Z</time></trkpt><trkpt lat="40.03444136501721" lon="8.987516494874049"><ele>574.0</ele><time>2026-05-03T09:40:31.001Z</time></trkpt><trkpt lat="40.03454350434232" lon="8.987460001578821"><ele>574.5</ele><time>2026-05-03T09:40:32.001Z</time></trkpt><trkpt lat="40.034651982141625" lon="8.987413265582035"><ele>575.0</ele><time>2026-05-03T09:40:33.001Z</time></trkpt><trkpt lat="40.03476436911634" lon="8.987373843131127"><ele>575.6</ele><time>2026-05-03T09:40:34.001Z</time></trkpt><trkpt lat="40.03486183606572" lon="8.987307372021125"><ele>576.2</ele><time>2026-05-03T09:40:35.001Z</time></trkpt><trkpt lat="40.034962988365166" lon="8.987251909521014"><ele>576.8</ele><time>2026-05-03T09:40:36.001Z</time></trkpt><trkpt lat="40.03506846104312" lon="8.987203303488586"><ele>577.4</ele><time>2026-05-03T09:40:37.001Z</time></trkpt><trkpt lat="40.03516266610089" lon="8.987162164237414"><ele>578.0</ele><time>2026-05-03T09:40:38.001Z</time></trkpt><trkpt lat="40.035249432481194" lon="8.987111296674412"><ele>579.1999999999999</ele><time>2026-05-03T09:40:39.001Z</time></trkpt><trkpt lat="40.035318862033954" lon="8.987040340599316"><ele>580.4</ele><time>2026-05-03T09:40:40.001Z</time></trkpt><trkpt lat="40.035374520099545" lon="8.986939057920983"><ele>581.5999999999999</ele><time>2026-05-03T09:40:41.001Z</time></trkpt><trkpt lat="40.03541506481255" lon="8.986817201637221"><ele>582.8</ele><time>2026-05-03T09:40:42.001Z</time></trkpt><trkpt lat="40.03544067731853" lon="8.986704975968257"><ele>584.0</ele><time>2026-05-03T09:40:43.001Z</time></trkpt><trkpt lat="40.03545662972523" lon="8.98660735593078"><ele>584.4</ele><time>2026-05-03T09:40:44.001Z</time></trkpt><trkpt lat="40.035478843189374" lon="8.98643778922823"><ele>584.8</ele><time>2026-05-03T09:40:46.001Z</time></trkpt><trkpt lat="40.0354958565812" lon="8.986265009796421"><ele>585.2</ele><time>2026-05-03T09:40:48.001Z</time></trkpt><trkpt lat="40.03551768248089" lon="8.986175024263677"><ele>585.6</ele><time>2026-05-03T09:40:49.001Z</time></trkpt><trkpt lat="40.03552847768019" lon="8.986057758280353"><ele>586.0</ele><time>2026-05-03T09:40:50.001Z</time></trkpt><trkpt lat="40.03554478875957" lon="8.985927110884873"><ele>587.0</ele><time>2026-05-03T09:40:51.001Z</time></trkpt><trkpt lat="40.03555391466735" lon="8.98579775750922"><ele>588.0</ele><time>2026-05-03T09:40:52.001Z</time></trkpt><trkpt lat="40.03557651450557" lon="8.985677137037987"><ele>589.0</ele><time>2026-05-03T09:40:53.001Z</time></trkpt><trkpt lat="40.03559697543523" lon="8.985553160972707"><ele>590.0</ele><time>2026-05-03T09:40:54.001Z</time></trkpt><trkpt lat="40.03562559142645" lon="8.985434728432427"><ele>591.0</ele><time>2026-05-03T09:40:55Z</time></trkpt><trkpt lat="40.03566864667576" lon="8.98533482616416"><ele>591.0</ele><time>2026-05-03T09:40:56Z</time></trkpt><trkpt lat="40.03572814354851" lon="8.985244687883329"><ele>591.0</ele><time>2026-05-03T09:40:57Z</time></trkpt><trkpt lat="40.03581379263913" lon="8.985181165187424"><ele>591.0</ele><time>2026-05-03T09:40:58Z</time></trkpt><trkpt lat="40.03590478963733" lon="8.98512522536631"><ele>591.0</ele><time>2026-05-03T09:40:59Z</time></trkpt><trkpt lat="40.036011554336426" lon="8.985083297112306"><ele>591.0</ele><time>2026-05-03T09:41:00Z</time></trkpt><trkpt lat="40.0361121499796" lon="8.985027438083229"><ele>591.75</ele><time>2026-05-03T09:41:01Z</time></trkpt><trkpt lat="40.036218025852705" lon="8.984959860427008"><ele>592.5</ele><time>2026-05-03T09:41:02Z</time></trkpt><trkpt lat="40.036327486139" lon="8.984897774480523"><ele>593.25</ele><time>2026-05-03T09:41:03Z</time></trkpt><trkpt lat="40.03642974421472" lon="8.984829821622148"><ele>594.0</ele><time>2026-05-03T09:41:04Z</time></trkpt><trkpt lat="40.03654096380782" lon="8.984761079025276"><ele>594.25</ele><time>2026-05-03T09:41:05Z</time></trkpt><trkpt lat="40.03665266101987" lon="8.984687367900472"><ele>594.5</ele><time>2026-05-03T09:41:06Z</time></trkpt><trkpt lat="40.03677828157139" lon="8.984619713094313"><ele>594.75</ele><time>2026-05-03T09:41:07Z</time></trkpt><trkpt lat="40.03690609930614" lon="8.984548239455178"><ele>595.0</ele><time>2026-05-03T09:41:08Z</time></trkpt><trkpt lat="40.03702190209872" lon="8.984488699926143"><ele>595.0</ele><time>2026-05-03T09:41:09Z</time></trkpt><trkpt lat="40.037129109519725" lon="8.98442780528563"><ele>595.0</ele><time>2026-05-03T09:41:10Z</time></trkpt><trkpt lat="40.03723412633564" lon="8.984360049246963"><ele>595.0</ele><time>2026-05-03T09:41:11Z</time></trkpt><trkpt lat="40.03734333267476" lon="8.984290847099583"><ele>595.0</ele><time>2026-05-03T09:41:12Z</time></trkpt><trkpt lat="40.03742089406023" lon="8.98415514940244"><ele>595.75</ele><time>2026-05-03T09:41:13Z</time></trkpt><trkpt lat="40.037490284707715" lon="8.984032337687161"><ele>596.5</ele><time>2026-05-03T09:41:14Z</time></trkpt><trkpt lat="40.03755191101912" lon="8.9839069167776"><ele>597.25</ele><time>2026-05-03T09:41:15Z</time></trkpt><trkpt lat="40.03760491928123" lon="8.98377582632195"><ele>598.0</ele><time>2026-05-03T09:41:16Z</time></trkpt><trkpt lat="40.03765636091964" lon="8.983640935813156"><ele>598.0</ele><time>2026-05-03T09:41:17Z</time></trkpt><trkpt lat="40.037710035867946" lon="8.983508528464357"><ele>598.0</ele><time>2026-05-03T09:41:18Z</time></trkpt><trkpt lat="40.03777106125086" lon="8.983370779663273"><ele>598.0</ele><time>2026-05-03T09:41:19Z</time></trkpt><trkpt lat="40.03783671580606" lon="8.98323694107698"><ele>598.0</ele><time>2026-05-03T09:41:20Z</time></trkpt><trkpt lat="40.037904297425285" lon="8.9831016703269"><ele>596.75</ele><time>2026-05-03T09:41:21Z</time></trkpt><trkpt lat="40.037983279743074" lon="8.982975659584351"><ele>595.5</ele><time>2026-05-03T09:41:22Z</time></trkpt><trkpt lat="40.03806462164267" lon="8.982848692741912"><ele>594.25</ele><time>2026-05-03T09:41:23Z</time></trkpt><trkpt lat="40.03814857623913" lon="8.982738863591228"><ele>593.0</ele><time>2026-05-03T09:41:24Z</time></trkpt><trkpt lat="40.038228825281564" lon="8.982620854807365"><ele>594.1999999999999</ele><time>2026-05-03T09:41:25Z</time></trkpt><trkpt lat="40.038315457441264" lon="8.982514362929173"><ele>595.4</ele><time>2026-05-03T09:41:26Z</time></trkpt><trkpt lat="40.038404946743704" lon="8.9824227697294"><ele>596.5999999999999</ele><time>2026-05-03T09:41:27Z</time></trkpt><trkpt lat="40.03849189647478" lon="8.982333972063428"><ele>597.8</ele><time>2026-05-03T09:41:28Z</time></trkpt><trkpt lat="40.03856419045211" lon="8.982241361573571"><ele>599.0</ele><time>2026-05-03T09:41:29Z</time></trkpt><trkpt lat="40.038613682844925" lon="8.982122931907835"><ele>599.0</ele><time>2026-05-03T09:41:30Z</time></trkpt><trkpt lat="40.038633943454954" lon="8.981991568327949"><ele>599.0</ele><time>2026-05-03T09:41:31Z</time></trkpt><trkpt lat="40.03861987279271" lon="8.981847539091246"><ele>599.0</ele><time>2026-05-03T09:41:32Z</time></trkpt><trkpt lat="40.03859028213022" lon="8.981705424687508"><ele>599.0</ele><time>2026-05-03T09:41:33Z</time></trkpt><trkpt lat="40.03855093323365" lon="8.981563442271414"><ele>599.0</ele><time>2026-05-03T09:41:34Z</time></trkpt><trkpt lat="40.03851045705517" lon="8.981431172067676"><ele>599.0</ele><time>2026-05-03T09:41:35Z</time></trkpt><trkpt lat="40.038474715117474" lon="8.981300743247074"><ele>599.0</ele><time>2026-05-03T09:41:36Z</time></trkpt><trkpt lat="40.038439360544466" lon="8.981179778317124"><ele>599.0</ele><time>2026-05-03T09:41:37Z</time></trkpt><trkpt lat="40.03841015898138" lon="8.98106603491803"><ele>599.0</ele><time>2026-05-03T09:41:38Z</time></trkpt><trkpt lat="40.03838149287545" lon="8.98095741931527"><ele>599.0</ele><time>2026-05-03T09:41:39Z</time></trkpt><trkpt lat="40.03834993441565" lon="8.980847078344341"><ele>599.0</ele><time>2026-05-03T09:41:40.001Z</time></trkpt><trkpt lat="40.03831956780594" lon="8.980750073094296"><ele>599.0</ele><time>2026-05-03T09:41:41.001Z</time></trkpt><trkpt lat="40.03829393755144" lon="8.980658696149307"><ele>599.0</ele><time>2026-05-03T09:41:42.001Z</time></trkpt><trkpt lat="40.0382762151132" lon="8.980577720763653"><ele>599.0</ele><time>2026-05-03T09:41:43.001Z</time></trkpt><trkpt lat="40.03828910647095" lon="8.98042503805778"><ele>599.0</ele><time>2026-05-03T09:41:45.001Z</time></trkpt><trkpt lat="40.03833714981104" lon="8.98033148452747"><ele>599.0</ele><time>2026-05-03T09:41:46.001Z</time></trkpt><trkpt lat="40.0384063349622" lon="8.98024170008243"><ele>599.0</ele><time>2026-05-03T09:41:47.001Z</time></trkpt><trkpt lat="40.03848902997328" lon="8.980157021563773"><ele>599.0</ele><time>2026-05-03T09:41:48.001Z</time></trkpt><trkpt lat="40.03857074457807" lon="8.98008425878683"><ele>599.0</ele><time>2026-05-03T09:41:49.001Z</time></trkpt><trkpt lat="40.0386633814962" lon="8.979996562673604"><ele>599.0</ele><time>2026-05-03T09:41:50.001Z</time></trkpt><trkpt lat="40.03875941999949" lon="8.979896588005944"><ele>599.0</ele><time>2026-05-03T09:41:51.001Z</time></trkpt><trkpt lat="40.038854098666334" lon="8.979781166154515"><ele>598.25</ele><time>2026-05-03T09:41:52.001Z</time></trkpt><trkpt lat="40.03895025873332" lon="8.979652825383798"><ele>597.5</ele><time>2026-05-03T09:41:53.001Z</time></trkpt><trkpt lat="40.03904357212026" lon="8.979520024739987"><ele>596.75</ele><time>2026-05-03T09:41:54.001Z</time></trkpt><trkpt lat="40.039138720570605" lon="8.97936888541132"><ele>596.0</ele><time>2026-05-03T09:41:55.001Z</time></trkpt><trkpt lat="40.03922428928226" lon="8.979201201720128"><ele>595.6666666666666</ele><time>2026-05-03T09:41:56.001Z</time></trkpt><trkpt lat="40.03928719945915" lon="8.979017431540084"><ele>595.3333333333334</ele><time>2026-05-03T09:41:57.001Z</time></trkpt><trkpt lat="40.039332512049576" lon="8.978807884649855"><ele>595.0</ele><time>2026-05-03T09:41:58.001Z</time></trkpt><trkpt lat="40.03936889448532" lon="8.97859234328083"><ele>595.0</ele><time>2026-05-03T09:41:59.001Z</time></trkpt><trkpt lat="40.03940449430284" lon="8.978369360358599"><ele>595.0</ele><time>2026-05-03T09:42:00.001Z</time></trkpt><trkpt lat="40.03942874315894" lon="8.978136590870436"><ele>595.0</ele><time>2026-05-03T09:42:01.001Z</time></trkpt><trkpt lat="40.03944791865129" lon="8.977900744270851"><ele>592.6666666666667</ele><time>2026-05-03T09:42:02.001Z</time></trkpt><trkpt lat="40.03946651917458" lon="8.97766329367196"><ele>590.3333333333334</ele><time>2026-05-03T09:42:03.001Z</time></trkpt><trkpt lat="40.03948674444379" lon="8.97742971949232"><ele>588.0</ele><time>2026-05-03T09:42:04.001Z</time></trkpt><trkpt lat="40.03951029579522" lon="8.977196628188109"><ele>586.0</ele><time>2026-05-03T09:42:05.001Z</time></trkpt><trkpt lat="40.03953710264129" lon="8.976970226611828"><ele>584.0</ele><time>2026-05-03T09:42:06.001Z</time></trkpt><trkpt lat="40.03957373065002" lon="8.976748149076238"><ele>582.0</ele><time>2026-05-03T09:42:07.001Z</time></trkpt><trkpt lat="40.03962577619546" lon="8.976529715881064"><ele>580.0</ele><time>2026-05-03T09:42:08.001Z</time></trkpt><trkpt lat="40.03969996637504" lon="8.976313345177253"><ele>578.0</ele><time>2026-05-03T09:42:09.001Z</time></trkpt><trkpt lat="40.039791808411735" lon="8.976111911979755"><ele>576.0</ele><time>2026-05-03T09:42:10.001Z</time></trkpt><trkpt lat="40.039877629232656" lon="8.975909301023396"><ele>572.6666666666666</ele><time>2026-05-03T09:42:11.001Z</time></trkpt><trkpt lat="40.03996539750343" lon="8.975690823367865"><ele>569.3333333333333</ele><time>2026-05-03T09:42:12.001Z</time></trkpt><trkpt lat="40.03998558815077" lon="8.975453157771108"><ele>566.0</ele><time>2026-05-03T09:42:13.001Z</time></trkpt><trkpt lat="40.04001806510366" lon="8.975231110343074"><ele>573.0</ele><time>2026-05-03T09:42:14.001Z</time></trkpt><trkpt lat="40.04004529770016" lon="8.974996099017726"><ele>580.0</ele><time>2026-05-03T09:42:15.001Z</time></trkpt><trkpt lat="40.04005871565578" lon="8.974760128063028"><ele>587.0</ele><time>2026-05-03T09:42:16.001Z</time></trkpt><trkpt lat="40.04006082315156" lon="8.974520611849382"><ele>587.0</ele><time>2026-05-03T09:42:17.001Z</time></trkpt><trkpt lat="40.0400604369924" lon="8.974289722088574"><ele>587.0</ele><time>2026-05-03T09:42:18.001Z</time></trkpt><trkpt lat="40.04006371296056" lon="8.97407306603035"><ele>587.0</ele><time>2026-05-03T09:42:19.001Z</time></trkpt><trkpt lat="40.040067986087955" lon="8.973873800726631"><ele>586.25</ele><time>2026-05-03T09:42:20.001Z</time></trkpt><trkpt lat="40.04008679426866" lon="8.973689135815173"><ele>585.5</ele><time>2026-05-03T09:42:21.001Z</time></trkpt><trkpt lat="40.04012195858162" lon="8.973523099563417"><ele>584.75</ele><time>2026-05-03T09:42:22.001Z</time></trkpt><trkpt lat="40.040145069374475" lon="8.973375934284338"><ele>584.0</ele><time>2026-05-03T09:42:23.001Z</time></trkpt><trkpt lat="40.040146558067995" lon="8.973228035150669"><ele>583.75</ele><time>2026-05-03T09:42:24.001Z</time></trkpt><trkpt lat="40.04011093572293" lon="8.973087859649942"><ele>583.5</ele><time>2026-05-03T09:42:25.001Z</time></trkpt><trkpt lat="40.04004156871869" lon="8.972958487519652"><ele>583.25</ele><time>2026-05-03T09:42:26.001Z</time></trkpt><trkpt lat="40.03995577562724" lon="8.97283467129863"><ele>583.0</ele><time>2026-05-03T09:42:27.001Z</time></trkpt><trkpt lat="40.03986360852226" lon="8.972730273049132"><ele>582.5</ele><time>2026-05-03T09:42:28.001Z</time></trkpt><trkpt lat="40.039771460466774" lon="8.972629019001918"><ele>582.0</ele><time>2026-05-03T09:42:29.001Z</time></trkpt><trkpt lat="40.03965468919483" lon="8.972575983920539"><ele>581.5</ele><time>2026-05-03T09:42:30.001Z</time></trkpt><trkpt lat="40.03952048122441" lon="8.972549906063453"><ele>581.0</ele><time>2026-05-03T09:42:31.001Z</time></trkpt><trkpt lat="40.03937612248423" lon="8.972542629828155"><ele>581.0</ele><time>2026-05-03T09:42:32.001Z</time></trkpt><trkpt lat="40.03923972840507" lon="8.972551396020068"><ele>581.0</ele><time>2026-05-03T09:42:33.001Z</time></trkpt><trkpt lat="40.03909834966717" lon="8.972530717886482"><ele>581.0</ele><time>2026-05-03T09:42:34.001Z</time></trkpt><trkpt lat="40.03895284670146" lon="8.972492317087706"><ele>581.0</ele><time>2026-05-03T09:42:35.001Z</time></trkpt><trkpt lat="40.03881574018528" lon="8.972431064948953"><ele>580.6666666666666</ele><time>2026-05-03T09:42:36.001Z</time></trkpt><trkpt lat="40.038693251588775" lon="8.972332570264811"><ele>580.3333333333334</ele><time>2026-05-03T09:42:37.001Z</time></trkpt><trkpt lat="40.03858721577778" lon="8.972192373168477"><ele>580.0</ele><time>2026-05-03T09:42:38.001Z</time></trkpt><trkpt lat="40.038487395459924" lon="8.972023029101125"><ele>580.0</ele><time>2026-05-03T09:42:39.001Z</time></trkpt><trkpt lat="40.0383873244792" lon="8.971834209723603"><ele>580.0</ele><time>2026-05-03T09:42:40.001Z</time></trkpt><trkpt lat="40.03829748547974" lon="8.971647100935131"><ele>580.0</ele><time>2026-05-03T09:42:41.001Z</time></trkpt><trkpt lat="40.038216381660334" lon="8.971460263701546"><ele>580.6666666666667</ele><time>2026-05-03T09:42:42.001Z</time></trkpt><trkpt lat="40.03814989239117" lon="8.9712691719093"><ele>581.3333333333334</ele><time>2026-05-03T09:42:43.001Z</time></trkpt><trkpt lat="40.038107012325376" lon="8.971072048447049"><ele>582.0</ele><time>2026-05-03T09:42:44.001Z</time></trkpt><trkpt lat="40.038075868162785" lon="8.97088061803382"><ele>579.25</ele><time>2026-05-03T09:42:45.001Z</time></trkpt><trkpt lat="40.03804169938403" lon="8.970697066540456"><ele>576.5</ele><time>2026-05-03T09:42:46.001Z</time></trkpt><trkpt lat="40.037985306970995" lon="8.970537358872205"><ele>573.75</ele><time>2026-05-03T09:42:47.001Z</time></trkpt><trkpt lat="40.03791745734678" lon="8.970379159380796"><ele>571.0</ele><time>2026-05-03T09:42:48.001Z</time></trkpt><trkpt lat="40.037795448776606" lon="8.970271701609416"><ele>571.0</ele><time>2026-05-03T09:42:49.001Z</time></trkpt><trkpt lat="40.037679559564694" lon="8.970175204171282"><ele>571.0</ele><time>2026-05-03T09:42:50.001Z</time></trkpt><trkpt lat="40.03757627743387" lon="8.970086431480906"><ele>571.0</ele><time>2026-05-03T09:42:51.001Z</time></trkpt><trkpt lat="40.03750195719517" lon="8.969990456924103"><ele>571.0</ele><time>2026-05-03T09:42:52.001Z</time></trkpt><trkpt lat="40.03746663469673" lon="8.969890165142074"><ele>568.6666666666667</ele><time>2026-05-03T09:42:53.001Z</time></trkpt><trkpt lat="40.03747882079515" lon="8.969785264998984"><ele>566.3333333333334</ele><time>2026-05-03T09:42:54.001Z</time></trkpt><trkpt lat="40.03752595799155" lon="8.96970403094905"><ele>564.0</ele><time>2026-05-03T09:42:55.001Z</time></trkpt><trkpt lat="40.03760311904116" lon="8.969677494956947"><ele>561.6666666666666</ele><time>2026-05-03T09:42:56.001Z</time></trkpt><trkpt lat="40.03768755556435" lon="8.969710017957132"><ele>559.3333333333333</ele><time>2026-05-03T09:42:57.002Z</time></trkpt><trkpt lat="40.037773138234535" lon="8.969772197143692"><ele>557.0</ele><time>2026-05-03T09:42:58.002Z</time></trkpt><trkpt lat="40.03786449714693" lon="8.969872975655365"><ele>557.0</ele><time>2026-05-03T09:42:59.002Z</time></trkpt><trkpt lat="40.037967220692735" lon="8.969986996389201"><ele>557.0</ele><time>2026-05-03T09:43:00.002Z</time></trkpt><trkpt lat="40.03808578696607" lon="8.970097496463746"><ele>557.0</ele><time>2026-05-03T09:43:01.001Z</time></trkpt><trkpt lat="40.03821712553688" lon="8.97017906578262"><ele>557.0</ele><time>2026-05-03T09:43:02.001Z</time></trkpt><trkpt lat="40.03834330131765" lon="8.970215084150395"><ele>557.6</ele><time>2026-05-03T09:43:03.001Z</time></trkpt><trkpt lat="40.03847634334061" lon="8.970237438606782"><ele>558.2</ele><time>2026-05-03T09:43:04.001Z</time></trkpt><trkpt lat="40.03858448198859" lon="8.97027095423647"><ele>558.8</ele><time>2026-05-03T09:43:05.001Z</time></trkpt><trkpt lat="40.038663318743055" lon="8.97033858225521"><ele>559.4</ele><time>2026-05-03T09:43:06.001Z</time></trkpt><trkpt lat="40.03871532714316" lon="8.970442362162666"><ele>560.0</ele><time>2026-05-03T09:43:07.001Z</time></trkpt><trkpt lat="40.03871612637076" lon="8.970579876986628"><ele>560.0</ele><time>2026-05-03T09:43:08.001Z</time></trkpt><trkpt lat="40.03873822446828" lon="8.970737951112815"><ele>560.0</ele><time>2026-05-03T09:43:09.001Z</time></trkpt><trkpt lat="40.03877335606881" lon="8.97089863592317"><ele>560.0</ele><time>2026-05-03T09:43:10.001Z</time></trkpt><trkpt lat="40.03883012854946" lon="8.971062987925578"><ele>560.0</ele><time>2026-05-03T09:43:11.001Z</time></trkpt><trkpt lat="40.038903315986886" lon="8.971206505864105"><ele>561.4</ele><time>2026-05-03T09:43:12.001Z</time></trkpt><trkpt lat="40.03897713849855" lon="8.97130011997451"><ele>562.8</ele><time>2026-05-03T09:43:13.001Z</time></trkpt><trkpt lat="40.039060885503204" lon="8.971350541443089"><ele>564.2</ele><time>2026-05-03T09:43:14.001Z</time></trkpt><trkpt lat="40.03915592001384" lon="8.971345560374582"><ele>565.6</ele><time>2026-05-03T09:43:15.001Z</time></trkpt><trkpt lat="40.039263826382744" lon="8.971287407754959"><ele>567.0</ele><time>2026-05-03T09:43:16.001Z</time></trkpt><trkpt lat="40.03937634530078" lon="8.971204085846908"><ele>563.5</ele><time>2026-05-03T09:43:17.001Z</time></trkpt><trkpt lat="40.03948591331716" lon="8.971136793688373"><ele>560.0</ele><time>2026-05-03T09:43:18.001Z</time></trkpt><trkpt lat="40.039611292473566" lon="8.971092613208032"><ele>556.5</ele><time>2026-05-03T09:43:19.001Z</time></trkpt><trkpt lat="40.039747443427714" lon="8.97110669690071"><ele>553.0</ele><time>2026-05-03T09:43:20.001Z</time></trkpt><trkpt lat="40.039871692960475" lon="8.971159728579101"><ele>553.0</ele><time>2026-05-03T09:43:21.001Z</time></trkpt><trkpt lat="40.03997558922762" lon="8.971246857692584"><ele>553.0</ele><time>2026-05-03T09:43:22.001Z</time></trkpt><trkpt lat="40.04006502733096" lon="8.971317752881303"><ele>553.0</ele><time>2026-05-03T09:43:23.001Z</time></trkpt><trkpt lat="40.04017033022875" lon="8.971334223945746"><ele>553.0</ele><time>2026-05-03T09:43:24.001Z</time></trkpt><trkpt lat="40.04026575483777" lon="8.971307444384246"><ele>553.0</ele><time>2026-05-03T09:43:25.001Z</time></trkpt><trkpt lat="40.04035013702397" lon="8.971233634409648"><ele>553.0</ele><time>2026-05-03T09:43:26.001Z</time></trkpt><trkpt lat="40.04041561249474" lon="8.971119754608813"><ele>553.0</ele><time>2026-05-03T09:43:27.001Z</time></trkpt><trkpt lat="40.0404665814139" lon="8.970970016645218"><ele>553.0</ele><time>2026-05-03T09:43:28.001Z</time></trkpt><trkpt lat="40.04049137378775" lon="8.97079701203248"><ele>553.0</ele><time>2026-05-03T09:43:29.001Z</time></trkpt><trkpt lat="40.04048085560865" lon="8.97063894999145"><ele>547.75</ele><time>2026-05-03T09:43:30.001Z</time></trkpt><trkpt lat="40.04044324192966" lon="8.970468270303302"><ele>542.5</ele><time>2026-05-03T09:43:31.001Z</time></trkpt><trkpt lat="40.040405445366105" lon="8.970279302125801"><ele>537.25</ele><time>2026-05-03T09:43:32.001Z</time></trkpt><trkpt lat="40.040373271239076" lon="8.970077752808995"><ele>532.0</ele><time>2026-05-03T09:43:33.001Z</time></trkpt><trkpt lat="40.04037240433105" lon="8.969864965811647"><ele>528.75</ele><time>2026-05-03T09:43:34.001Z</time></trkpt><trkpt lat="40.04037090955248" lon="8.969664491846222"><ele>525.5</ele><time>2026-05-03T09:43:35.001Z</time></trkpt><trkpt lat="40.0403638081094" lon="8.969482600607785"><ele>522.25</ele><time>2026-05-03T09:43:36.001Z</time></trkpt><trkpt lat="40.04036771589779" lon="8.96932285128692"><ele>519.0</ele><time>2026-05-03T09:43:37.001Z</time></trkpt><trkpt lat="40.04039935743973" lon="8.969181913882563"><ele>517.0</ele><time>2026-05-03T09:43:38.001Z</time></trkpt><trkpt lat="40.040461765696506" lon="8.969073503605905"><ele>515.0</ele><time>2026-05-03T09:43:39.001Z</time></trkpt><trkpt lat="40.040553235758" lon="8.969003683118919"><ele>513.0</ele><time>2026-05-03T09:43:40.001Z</time></trkpt><trkpt lat="40.04066747924174" lon="8.968972924788583"><ele>511.0</ele><time>2026-05-03T09:43:41.001Z</time></trkpt><trkpt lat="40.040805684545525" lon="8.968959901795307"><ele>515.25</ele><time>2026-05-03T09:43:42.001Z</time></trkpt><trkpt lat="40.04093985737987" lon="8.968945569042084"><ele>519.5</ele><time>2026-05-03T09:43:43.001Z</time></trkpt><trkpt lat="40.04106642504724" lon="8.968923968136998"><ele>523.75</ele><time>2026-05-03T09:43:44.001Z</time></trkpt><trkpt lat="40.041174995660924" lon="8.9688818641371"><ele>528.0</ele><time>2026-05-03T09:43:45.001Z</time></trkpt><trkpt lat="40.041255748531675" lon="8.968795960910136"><ele>528.0</ele><time>2026-05-03T09:43:46.001Z</time></trkpt><trkpt lat="40.041301821981065" lon="8.968673407745229"><ele>528.0</ele><time>2026-05-03T09:43:47.001Z</time></trkpt><trkpt lat="40.04130607749736" lon="8.968537271583328"><ele>528.0</ele><time>2026-05-03T09:43:48.001Z</time></trkpt><trkpt lat="40.04127967789213" lon="8.968393924278702"><ele>528.0</ele><time>2026-05-03T09:43:49.001Z</time></trkpt><trkpt lat="40.04126489515081" lon="8.968244856075849"><ele>528.0</ele><time>2026-05-03T09:43:50.001Z</time></trkpt><trkpt lat="40.04128914139827" lon="8.968105045902886"><ele>527.4</ele><time>2026-05-03T09:43:51.001Z</time></trkpt><trkpt lat="40.04134804959937" lon="8.967995975088071"><ele>526.8</ele><time>2026-05-03T09:43:52.001Z</time></trkpt><trkpt lat="40.0414333121333" lon="8.96792467044466"><ele>526.2</ele><time>2026-05-03T09:43:53.001Z</time></trkpt><trkpt lat="40.04154367159715" lon="8.967884262829308"><ele>525.6</ele><time>2026-05-03T09:43:54.001Z</time></trkpt><trkpt lat="40.04167000811096" lon="8.967855336160431"><ele>525.0</ele><time>2026-05-03T09:43:55.001Z</time></trkpt><trkpt lat="40.041815983637164" lon="8.967828276320175"><ele>525.0</ele><time>2026-05-03T09:43:56.001Z</time></trkpt><trkpt lat="40.04195927695225" lon="8.96779731248341"><ele>525.0</ele><time>2026-05-03T09:43:57.001Z</time></trkpt><trkpt lat="40.0421133940322" lon="8.967783568332841"><ele>525.0</ele><time>2026-05-03T09:43:58.001Z</time></trkpt><trkpt lat="40.04225883815076" lon="8.967781593308214"><ele>525.0</ele><time>2026-05-03T09:43:59.001Z</time></trkpt><trkpt lat="40.04238666647583" lon="8.96778710212037"><ele>526.0</ele><time>2026-05-03T09:44:00.001Z</time></trkpt><trkpt lat="40.04249059447763" lon="8.967770583470497"><ele>527.0</ele><time>2026-05-03T09:44:01.001Z</time></trkpt><trkpt lat="40.04257905011256" lon="8.967721407213046"><ele>528.0</ele><time>2026-05-03T09:44:02.001Z</time></trkpt><trkpt lat="40.04263051428876" lon="8.967623991402007"><ele>529.0</ele><time>2026-05-03T09:44:03.001Z</time></trkpt><trkpt lat="40.042644232954835" lon="8.96749811214239"><ele>530.0</ele><time>2026-05-03T09:44:04.001Z</time></trkpt><trkpt lat="40.042636513692166" lon="8.96734920903534"><ele>526.6</ele><time>2026-05-03T09:44:05.001Z</time></trkpt><trkpt lat="40.04262920421571" lon="8.967201061527572"><ele>523.2</ele><time>2026-05-03T09:44:06.001Z</time></trkpt><trkpt lat="40.042646093942636" lon="8.967065230177393"><ele>519.8</ele><time>2026-05-03T09:44:07.001Z</time></trkpt><trkpt lat="40.042695636824895" lon="8.966942987199804"><ele>516.4</ele><time>2026-05-03T09:44:08.001Z</time></trkpt><trkpt lat="40.042774978733156" lon="8.966836708258993"><ele>513.0</ele><time>2026-05-03T09:44:09.001Z</time></trkpt><trkpt lat="40.04288225061908" lon="8.966743362922593"><ele>512.0</ele><time>2026-05-03T09:44:10.001Z</time></trkpt><trkpt lat="40.0429814723157" lon="8.966661107264596"><ele>511.0</ele><time>2026-05-03T09:44:11.001Z</time></trkpt><trkpt lat="40.04306328034922" lon="8.966608198865647"><ele>510.0</ele><time>2026-05-03T09:44:12.001Z</time></trkpt><trkpt lat="40.043133785058465" lon="8.966588114016657"><ele>509.0</ele><time>2026-05-03T09:44:13.001Z</time></trkpt><trkpt lat="40.04321943678512" lon="8.966562210385947"><ele>508.0</ele><time>2026-05-03T09:44:15.001Z</time></trkpt><trkpt lat="40.04328521190246" lon="8.966545733217375"><ele>507.0</ele><time>2026-05-03T09:44:17.001Z</time></trkpt><trkpt lat="40.04337315978205" lon="8.966529211184264"><ele>507.0</ele><time>2026-05-03T09:45:49.001Z</time></trkpt><trkpt lat="40.04344109970328" lon="8.966516991247959"><ele>507.00000000000006</ele><time>2026-05-03T09:45:50.001Z</time></trkpt><trkpt lat="40.04352752587085" lon="8.966510636507165"><ele>507.00000000000006</ele><time>2026-05-03T09:45:51.001Z</time></trkpt><trkpt lat="40.043635869210576" lon="8.966491815650526"><ele>507.0</ele><time>2026-05-03T09:45:52.001Z</time></trkpt><trkpt lat="40.043742069627655" lon="8.96647435918089"><ele>507.0</ele><time>2026-05-03T09:45:53.001Z</time></trkpt><trkpt lat="40.043870959291986" lon="8.966464810962881"><ele>507.0</ele><time>2026-05-03T09:45:54.001Z</time></trkpt><trkpt lat="40.04400339397799" lon="8.96648503125361"><ele>507.0</ele><time>2026-05-03T09:45:55.001Z</time></trkpt><trkpt lat="40.04414951033226" lon="8.966536268284957"><ele>507.0</ele><time>2026-05-03T09:45:56.001Z</time></trkpt><trkpt lat="40.044288384225545" lon="8.966618103704988"><ele>507.0</ele><time>2026-05-03T09:45:57.001Z</time></trkpt><trkpt lat="40.044410307463934" lon="8.966729184124477"><ele>512.6666666666666</ele><time>2026-05-03T09:45:58.001Z</time></trkpt><trkpt lat="40.0445307175154" lon="8.966887357920179"><ele>518.3333333333333</ele><time>2026-05-03T09:45:59.001Z</time></trkpt><trkpt lat="40.04464503030812" lon="8.967068178707466"><ele>524.0</ele><time>2026-05-03T09:46:00.001Z</time></trkpt><trkpt lat="40.04474496823584" lon="8.967221552357515"><ele>524.0</ele><time>2026-05-03T09:46:01.001Z</time></trkpt><trkpt lat="40.04483042592493" lon="8.967351227198835"><ele>524.0</ele><time>2026-05-03T09:46:02.001Z</time></trkpt><trkpt lat="40.04491299612559" lon="8.967443456520334"><ele>524.0</ele><time>2026-05-03T09:46:03.001Z</time></trkpt><trkpt lat="40.04499872800864" lon="8.967491493745829"><ele>524.0</ele><time>2026-05-03T09:46:04.001Z</time></trkpt><trkpt lat="40.0450868925138" lon="8.967478172144999"><ele>524.0</ele><time>2026-05-03T09:46:05.001Z</time></trkpt><trkpt lat="40.045167282904714" lon="8.967411200698017"><ele>519.2</ele><time>2026-05-03T09:46:06.001Z</time></trkpt><trkpt lat="40.04522294709775" lon="8.967307167735038"><ele>514.4</ele><time>2026-05-03T09:46:07.001Z</time></trkpt><trkpt lat="40.045247302997474" lon="8.967179394713783"><ele>509.6</ele><time>2026-05-03T09:46:08.001Z</time></trkpt><trkpt lat="40.04524100818931" lon="8.967047763516279"><ele>504.8</ele><time>2026-05-03T09:46:09.001Z</time></trkpt><trkpt lat="40.04519953672291" lon="8.96690874800935"><ele>500.0</ele><time>2026-05-03T09:46:10.001Z</time></trkpt><trkpt lat="40.04514376699804" lon="8.966747600188787"><ele>499.0</ele><time>2026-05-03T09:46:11.001Z</time></trkpt><trkpt lat="40.04508680559469" lon="8.966573707202462"><ele>498.0</ele><time>2026-05-03T09:46:12.001Z</time></trkpt><trkpt lat="40.04503478776317" lon="8.966397614852289"><ele>497.0</ele><time>2026-05-03T09:46:13.001Z</time></trkpt><trkpt lat="40.044984572010186" lon="8.966211241752218"><ele>496.0</ele><time>2026-05-03T09:46:14.001Z</time></trkpt><trkpt lat="40.04492324606634" lon="8.966015023529271"><ele>494.0</ele><time>2026-05-03T09:46:15.001Z</time></trkpt><trkpt lat="40.04487214845447" lon="8.965836900325531"><ele>492.0</ele><time>2026-05-03T09:46:16.001Z</time></trkpt><trkpt lat="40.04476852800888" lon="8.965691811605591"><ele>490.0</ele><time>2026-05-03T09:46:17.001Z</time></trkpt><trkpt lat="40.044637342382764" lon="8.965590486457998"><ele>490.0</ele><time>2026-05-03T09:46:18.001Z</time></trkpt><trkpt lat="40.044511600222414" lon="8.965516532727591"><ele>490.0</ele><time>2026-05-03T09:46:19.001Z</time></trkpt><trkpt lat="40.0444314576457" lon="8.96541520160983"><ele>490.0</ele><time>2026-05-03T09:46:20.001Z</time></trkpt><trkpt lat="40.04439063705141" lon="8.965307539937044"><ele>490.0</ele><time>2026-05-03T09:46:21.001Z</time></trkpt><trkpt lat="40.04438850428963" lon="8.965200557525495"><ele>490.0</ele><time>2026-05-03T09:46:22.001Z</time></trkpt><trkpt lat="40.04442743479389" lon="8.96509855011956"><ele>490.5</ele><time>2026-05-03T09:46:23.001Z</time></trkpt><trkpt lat="40.04450055126576" lon="8.965001827852424"><ele>491.0</ele><time>2026-05-03T09:46:24.001Z</time></trkpt><trkpt lat="40.04460281065205" lon="8.964905967267551"><ele>491.5</ele><time>2026-05-03T09:46:25.001Z</time></trkpt><trkpt lat="40.044733135492216" lon="8.964816595082961"><ele>492.0</ele><time>2026-05-03T09:46:26.001Z</time></trkpt><trkpt lat="40.04488645464622" lon="8.964730249109028"><ele>497.33333333333337</ele><time>2026-05-03T09:46:27.001Z</time></trkpt><trkpt lat="40.04503346332231" lon="8.964650999476982"><ele>502.6666666666667</ele><time>2026-05-03T09:46:28.001Z</time></trkpt><trkpt lat="40.04520658526706" lon="8.964556462992876"><ele>508.0</ele><time>2026-05-03T09:46:29.001Z</time></trkpt><trkpt lat="40.04537161653198" lon="8.964497567244276"><ele>508.0</ele><time>2026-05-03T09:46:30.001Z</time></trkpt><trkpt lat="40.04552084437479" lon="8.964457604143407"><ele>508.0</ele><time>2026-05-03T09:46:31.001Z</time></trkpt><trkpt lat="40.04565876289751" lon="8.964392406209766"><ele>508.0</ele><time>2026-05-03T09:46:32.001Z</time></trkpt><trkpt lat="40.04578082949024" lon="8.964278454364782"><ele>508.0</ele><time>2026-05-03T09:46:33.001Z</time></trkpt><trkpt lat="40.04588553763632" lon="8.96412815548311"><ele>508.6666666666667</ele><time>2026-05-03T09:46:34.001Z</time></trkpt><trkpt lat="40.04596190577457" lon="8.963949289358556"><ele>509.33333333333337</ele><time>2026-05-03T09:46:35.001Z</time></trkpt><trkpt lat="40.046022075856676" lon="8.963742331266387"><ele>510.0</ele><time>2026-05-03T09:46:36.001Z</time></trkpt><trkpt lat="40.046078191336974" lon="8.963523210291052"><ele>510.25</ele><time>2026-05-03T09:46:37.001Z</time></trkpt><trkpt lat="40.04613157912719" lon="8.963330647184888"><ele>510.5</ele><time>2026-05-03T09:46:38.001Z</time></trkpt><trkpt lat="40.046198502282216" lon="8.96316368505399"><ele>510.75</ele><time>2026-05-03T09:46:39.001Z</time></trkpt><trkpt lat="40.04628407451973" lon="8.96302170634901"><ele>511.0</ele><time>2026-05-03T09:46:40.001Z</time></trkpt><trkpt lat="40.04640146705969" lon="8.962915948576796"><ele>511.0</ele><time>2026-05-03T09:46:41.001Z</time></trkpt><trkpt lat="40.0465466042975" lon="8.962819100557416"><ele>511.0</ele><time>2026-05-03T09:46:42.001Z</time></trkpt><trkpt lat="40.04669691418962" lon="8.962705057596672"><ele>511.0</ele><time>2026-05-03T09:46:43.001Z</time></trkpt><trkpt lat="40.04682002106795" lon="8.962566718025073"><ele>511.0</ele><time>2026-05-03T09:46:44.001Z</time></trkpt><trkpt lat="40.04692110539945" lon="8.962413840301659"><ele>511.0</ele><time>2026-05-03T09:46:45.001Z</time></trkpt><trkpt lat="40.046996746500625" lon="8.962242074129128"><ele>511.0</ele><time>2026-05-03T09:46:46.001Z</time></trkpt><trkpt lat="40.04705495279796" lon="8.962046557735762"><ele>511.0</ele><time>2026-05-03T09:46:47.001Z</time></trkpt><trkpt lat="40.04708075200966" lon="8.961837555580336"><ele>511.0</ele><time>2026-05-03T09:46:48.001Z</time></trkpt><trkpt lat="40.04707748227834" lon="8.961618887167393"><ele>511.0</ele><time>2026-05-03T09:46:49.001Z</time></trkpt><trkpt lat="40.047057239033315" lon="8.96139421889977"><ele>511.33333333333337</ele><time>2026-05-03T09:46:50.001Z</time></trkpt><trkpt lat="40.04698231902551" lon="8.96118367736632"><ele>511.66666666666663</ele><time>2026-05-03T09:46:51.001Z</time></trkpt><trkpt lat="40.04691111099081" lon="8.960961006632948"><ele>512.0</ele><time>2026-05-03T09:46:52.001Z</time></trkpt><trkpt lat="40.04683023407742" lon="8.960726916554478"><ele>512.0</ele><time>2026-05-03T09:46:53.001Z</time></trkpt><trkpt lat="40.04675919893162" lon="8.960482607830526"><ele>512.0</ele><time>2026-05-03T09:46:54.001Z</time></trkpt><trkpt lat="40.046710125976254" lon="8.96021158889234"><ele>512.0</ele><time>2026-05-03T09:46:55.001Z</time></trkpt><trkpt lat="40.046680398173834" lon="8.95992990484142"><ele>513.6666666666666</ele><time>2026-05-03T09:46:56.001Z</time></trkpt><trkpt lat="40.04665293890571" lon="8.959650822990064"><ele>515.3333333333334</ele><time>2026-05-03T09:46:57.001Z</time></trkpt><trkpt lat="40.04662500116736" lon="8.959373033874783"><ele>517.0</ele><time>2026-05-03T09:46:58.001Z</time></trkpt><trkpt lat="40.04659065299975" lon="8.959082602712332"><ele>515.6666666666667</ele><time>2026-05-03T09:46:59.001Z</time></trkpt><trkpt lat="40.04655513051842" lon="8.95881236851033"><ele>514.3333333333334</ele><time>2026-05-03T09:47:00.001Z</time></trkpt><trkpt lat="40.046523603944095" lon="8.95857593677265"><ele>513.0</ele><time>2026-05-03T09:47:01.001Z</time></trkpt><trkpt lat="40.046504490669875" lon="8.958367527170218"><ele>513.0</ele><time>2026-05-03T09:47:02.001Z</time></trkpt><trkpt lat="40.04651282448315" lon="8.95817887730433"><ele>513.0</ele><time>2026-05-03T09:47:03.001Z</time></trkpt><trkpt lat="40.046549341463034" lon="8.958002697525169"><ele>513.0</ele><time>2026-05-03T09:47:04.001Z</time></trkpt><trkpt lat="40.04661853873732" lon="8.957835895319391"><ele>513.0</ele><time>2026-05-03T09:47:05.001Z</time></trkpt><trkpt lat="40.04671001389822" lon="8.957658734724685"><ele>514.6666666666666</ele><time>2026-05-03T09:47:06.001Z</time></trkpt><trkpt lat="40.04680910473051" lon="8.957474657880635"><ele>516.3333333333333</ele><time>2026-05-03T09:47:07.001Z</time></trkpt><trkpt lat="40.04690249340363" lon="8.957273131970702"><ele>518.0</ele><time>2026-05-03T09:47:08.001Z</time></trkpt><trkpt lat="40.04698802091396" lon="8.95707175949026"><ele>518.0</ele><time>2026-05-03T09:47:09.001Z</time></trkpt><trkpt lat="40.04707926139979" lon="8.956864110019664"><ele>518.0</ele><time>2026-05-03T09:47:10.001Z</time></trkpt><trkpt lat="40.04716541626521" lon="8.956671357056061"><ele>518.0</ele><time>2026-05-03T09:47:11.001Z</time></trkpt><trkpt lat="40.0472386267556" lon="8.95649191852508"><ele>517.4</ele><time>2026-05-03T09:47:12.001Z</time></trkpt><trkpt lat="40.04728830936462" lon="8.956334591237736"><ele>516.8</ele><time>2026-05-03T09:47:13.001Z</time></trkpt><trkpt lat="40.04730508378668" lon="8.95619431590392"><ele>516.2</ele><time>2026-05-03T09:47:14.001Z</time></trkpt><trkpt lat="40.04730130383699" lon="8.956069733184151"><ele>515.6</ele><time>2026-05-03T09:47:15.001Z</time></trkpt><trkpt lat="40.04724073716938" lon="8.955963683247326"><ele>515.0</ele><time>2026-05-03T09:47:16.001Z</time></trkpt><trkpt lat="40.04713698047124" lon="8.955885334106503"><ele>516.2</ele><time>2026-05-03T09:47:17.001Z</time></trkpt><trkpt lat="40.04701676980241" lon="8.955848765079798"><ele>517.4</ele><time>2026-05-03T09:47:18.001Z</time></trkpt><trkpt lat="40.04689999093709" lon="8.95582585911519"><ele>518.6</ele><time>2026-05-03T09:47:19.001Z</time></trkpt><trkpt lat="40.04679323718954" lon="8.955816802682799"><ele>519.8</ele><time>2026-05-03T09:47:20.001Z</time></trkpt><trkpt lat="40.046708337594055" lon="8.955748095680507"><ele>521.0</ele><time>2026-05-03T09:47:21.001Z</time></trkpt><trkpt lat="40.04665425366816" lon="8.955655790990386"><ele>521.0</ele><time>2026-05-03T09:47:22.001Z</time></trkpt><trkpt lat="40.04663286918864" lon="8.95553042936511"><ele>521.0</ele><time>2026-05-03T09:47:23.001Z</time></trkpt><trkpt lat="40.046636996510074" lon="8.955380077972473"><ele>521.0</ele><time>2026-05-03T09:47:24.001Z</time></trkpt><trkpt lat="40.04663109754499" lon="8.955219758832216"><ele>521.0</ele><time>2026-05-03T09:47:25.001Z</time></trkpt><trkpt lat="40.04659961796952" lon="8.955053202084354"><ele>522.6666666666666</ele><time>2026-05-03T09:47:26.001Z</time></trkpt><trkpt lat="40.04656568081373" lon="8.954853582313847"><ele>524.3333333333334</ele><time>2026-05-03T09:47:27.001Z</time></trkpt><trkpt lat="40.04650723828417" lon="8.954672292219604"><ele>526.0</ele><time>2026-05-03T09:47:28.001Z</time></trkpt><trkpt lat="40.046417450320966" lon="8.95447966759326"><ele>526.0</ele><time>2026-05-03T09:47:29.001Z</time></trkpt><trkpt lat="40.04630299102257" lon="8.954294012064047"><ele>526.0</ele><time>2026-05-03T09:47:30.001Z</time></trkpt><trkpt lat="40.046193887090716" lon="8.954143990818965"><ele>526.0</ele><time>2026-05-03T09:47:31.001Z</time></trkpt><trkpt lat="40.04613143571131" lon="8.953989522784173"><ele>527.2</ele><time>2026-05-03T09:47:32.001Z</time></trkpt><trkpt lat="40.04611153099732" lon="8.953851459339457"><ele>528.4000000000001</ele><time>2026-05-03T09:47:33.001Z</time></trkpt><trkpt lat="40.046129780512125" lon="8.953706033390866"><ele>529.6</ele><time>2026-05-03T09:47:34.001Z</time></trkpt><trkpt lat="40.04620077084616" lon="8.953596256085875"><ele>530.8000000000001</ele><time>2026-05-03T09:47:35.001Z</time></trkpt><trkpt lat="40.046296497859444" lon="8.953517916991006"><ele>532.0</ele><time>2026-05-03T09:47:36.001Z</time></trkpt><trkpt lat="40.04642427229955" lon="8.953467279948898"><ele>532.0</ele><time>2026-05-03T09:47:37.001Z</time></trkpt><trkpt lat="40.04657075800186" lon="8.95340550880874"><ele>532.0</ele><time>2026-05-03T09:47:38.001Z</time></trkpt><trkpt lat="40.04670617365058" lon="8.953314383366907"><ele>532.0</ele><time>2026-05-03T09:47:39.001Z</time></trkpt><trkpt lat="40.04682375086957" lon="8.9531853639974"><ele>534.3333333333334</ele><time>2026-05-03T09:47:40.001Z</time></trkpt><trkpt lat="40.04691668265478" lon="8.95303079461221"><ele>536.6666666666666</ele><time>2026-05-03T09:47:41.001Z</time></trkpt><trkpt lat="40.046972190039476" lon="8.95284965014075"><ele>539.0</ele><time>2026-05-03T09:47:42.001Z</time></trkpt><trkpt lat="40.04700459616527" lon="8.952627523062928"><ele>537.6666666666666</ele><time>2026-05-03T09:47:43.001Z</time></trkpt><trkpt lat="40.04701650007679" lon="8.952371929572033"><ele>536.3333333333334</ele><time>2026-05-03T09:47:44.001Z</time></trkpt><trkpt lat="40.04702391960372" lon="8.952129957555853"><ele>535.0</ele><time>2026-05-03T09:47:45.001Z</time></trkpt><trkpt lat="40.04704203379911" lon="8.951935117527592"><ele>535.0</ele><time>2026-05-03T09:47:46.001Z</time></trkpt><trkpt lat="40.04707525454653" lon="8.95176640042908"><ele>535.0</ele><time>2026-05-03T09:47:47.001Z</time></trkpt><trkpt lat="40.0471394106815" lon="8.951647016999997"><ele>535.0</ele><time>2026-05-03T09:47:48.001Z</time></trkpt><trkpt lat="40.04723987258879" lon="8.951556440500335"><ele>535.0</ele><time>2026-05-03T09:47:49.001Z</time></trkpt><trkpt lat="40.04737197401577" lon="8.951491312438051"><ele>539.3333333333334</ele><time>2026-05-03T09:47:50.001Z</time></trkpt><trkpt lat="40.04752766243595" lon="8.95141921902074"><ele>543.6666666666666</ele><time>2026-05-03T09:47:51.001Z</time></trkpt><trkpt lat="40.04769670008509" lon="8.951325577405319"><ele>548.0</ele><time>2026-05-03T09:47:52.001Z</time></trkpt><trkpt lat="40.04785763578561" lon="8.951229556114296"><ele>548.0</ele><time>2026-05-03T09:47:53.001Z</time></trkpt><trkpt lat="40.048023682508884" lon="8.951145962925382"><ele>548.0</ele><time>2026-05-03T09:47:54.001Z</time></trkpt><trkpt lat="40.04817360550727" lon="8.951073134654987"><ele>548.0</ele><time>2026-05-03T09:47:55.001Z</time></trkpt><trkpt lat="40.04829347035936" lon="8.950995046986971"><ele>548.5</ele><time>2026-05-03T09:47:56.001Z</time></trkpt><trkpt lat="40.04838786312545" lon="8.95088168110825"><ele>549.0</ele><time>2026-05-03T09:47:57.001Z</time></trkpt><trkpt lat="40.04843323945042" lon="8.95074142667164"><ele>549.5</ele><time>2026-05-03T09:47:58.001Z</time></trkpt><trkpt lat="40.04844663713672" lon="8.950577537467861"><ele>550.0</ele><time>2026-05-03T09:47:59.001Z</time></trkpt><trkpt lat="40.048458589141156" lon="8.950406362468037"><ele>550.0</ele><time>2026-05-03T09:48:00.001Z</time></trkpt><trkpt lat="40.04849413971699" lon="8.950251399605438"><ele>550.0</ele><time>2026-05-03T09:48:01.001Z</time></trkpt><trkpt lat="40.048570795714255" lon="8.950108693672947"><ele>550.0</ele><time>2026-05-03T09:48:02.001Z</time></trkpt><trkpt lat="40.04868416488413" lon="8.9499821455167"><ele>550.0</ele><time>2026-05-03T09:48:03.001Z</time></trkpt><trkpt lat="40.048801621696825" lon="8.949858783981528"><ele>549.5</ele><time>2026-05-03T09:48:04.001Z</time></trkpt><trkpt lat="40.0488901477966" lon="8.949723934794948"><ele>549.0</ele><time>2026-05-03T09:48:05.001Z</time></trkpt><trkpt lat="40.048938509611794" lon="8.949564133595103"><ele>548.5</ele><time>2026-05-03T09:48:06.001Z</time></trkpt><trkpt lat="40.04895985512801" lon="8.949370940920595"><ele>548.0</ele><time>2026-05-03T09:48:07.001Z</time></trkpt><trkpt lat="40.048976447120246" lon="8.949178451495314"><ele>546.75</ele><time>2026-05-03T09:48:08.001Z</time></trkpt><trkpt lat="40.04902504236545" lon="8.94902452520622"><ele>545.5</ele><time>2026-05-03T09:48:09.001Z</time></trkpt><trkpt lat="40.04910107057945" lon="8.948917418379567"><ele>544.25</ele><time>2026-05-03T09:48:10.001Z</time></trkpt><trkpt lat="40.04920659466413" lon="8.948847403712534"><ele>543.0</ele><time>2026-05-03T09:48:11.001Z</time></trkpt><trkpt lat="40.049335879134745" lon="8.948807155725044"><ele>548.0</ele><time>2026-05-03T09:48:12.001Z</time></trkpt><trkpt lat="40.049475049077664" lon="8.94880464662408"><ele>553.0</ele><time>2026-05-03T09:48:13.001Z</time></trkpt><trkpt lat="40.04962361465663" lon="8.948845287488991"><ele>558.0</ele><time>2026-05-03T09:48:14.001Z</time></trkpt><trkpt lat="40.049770043009424" lon="8.948897473739583"><ele>563.0</ele><time>2026-05-03T09:48:15.001Z</time></trkpt><trkpt lat="40.049915296550196" lon="8.948951455913743"><ele>566.3333333333333</ele><time>2026-05-03T09:48:16.001Z</time></trkpt><trkpt lat="40.05008977312304" lon="8.94888601975156"><ele>569.6666666666666</ele><time>2026-05-03T09:48:17.001Z</time></trkpt><trkpt lat="40.050240438865124" lon="8.948800035030054"><ele>573.0</ele><time>2026-05-03T09:48:18.001Z</time></trkpt><trkpt lat="40.05039884670093" lon="8.948702330736982"><ele>573.0</ele><time>2026-05-03T09:48:19.001Z</time></trkpt><trkpt lat="40.050559650511275" lon="8.948602712564279"><ele>573.0</ele><time>2026-05-03T09:48:20.001Z</time></trkpt><trkpt lat="40.05070813483058" lon="8.948505778031901"><ele>573.0</ele><time>2026-05-03T09:48:21.001Z</time></trkpt><trkpt lat="40.05083736304056" lon="8.948398393487555"><ele>572.0</ele><time>2026-05-03T09:48:22.001Z</time></trkpt><trkpt lat="40.050948905514986" lon="8.948257869912418"><ele>571.0</ele><time>2026-05-03T09:48:23.001Z</time></trkpt><trkpt lat="40.051028204714015" lon="8.948084853607103"><ele>570.0</ele><time>2026-05-03T09:48:24.001Z</time></trkpt><trkpt lat="40.05107532055044" lon="8.947883027436035"><ele>570.0</ele><time>2026-05-03T09:48:25.001Z</time></trkpt><trkpt lat="40.051119340559175" lon="8.947654755310442"><ele>570.0</ele><time>2026-05-03T09:48:26.001Z</time></trkpt><trkpt lat="40.05118640119647" lon="8.94742223562296"><ele>570.0</ele><time>2026-05-03T09:48:27.001Z</time></trkpt><trkpt lat="40.05127601905737" lon="8.947183911305956"><ele>568.3333333333334</ele><time>2026-05-03T09:48:28.001Z</time></trkpt><trkpt lat="40.0513777930816" lon="8.946953000519057"><ele>566.6666666666667</ele><time>2026-05-03T09:48:29.001Z</time></trkpt><trkpt lat="40.051491008752244" lon="8.946746715892708"><ele>565.0</ele><time>2026-05-03T09:48:30.001Z</time></trkpt><trkpt lat="40.05162013368377" lon="8.946566724051863"><ele>569.3333333333334</ele><time>2026-05-03T09:48:31.001Z</time></trkpt><trkpt lat="40.05177401933256" lon="8.946404034158611"><ele>573.6666666666666</ele><time>2026-05-03T09:48:32.001Z</time></trkpt><trkpt lat="40.05191959243024" lon="8.946255348585547"><ele>578.0</ele><time>2026-05-03T09:48:33.001Z</time></trkpt><trkpt lat="40.052047363814644" lon="8.946112871936842"><ele>578.0</ele><time>2026-05-03T09:48:34.001Z</time></trkpt><trkpt lat="40.05214812628525" lon="8.945967953504933"><ele>578.0</ele><time>2026-05-03T09:48:35.001Z</time></trkpt><trkpt lat="40.05221918623595" lon="8.945804577904061"><ele>578.0</ele><time>2026-05-03T09:48:36.001Z</time></trkpt><trkpt lat="40.05224770372188" lon="8.945618504905568"><ele>578.0</ele><time>2026-05-03T09:48:37.001Z</time></trkpt><trkpt lat="40.05222326723793" lon="8.945441534299931"><ele>574.75</ele><time>2026-05-03T09:48:38.001Z</time></trkpt><trkpt lat="40.05220474741824" lon="8.945255136470456"><ele>571.5</ele><time>2026-05-03T09:48:39.001Z</time></trkpt><trkpt lat="40.05221533196807" lon="8.945061724836373"><ele>568.25</ele><time>2026-05-03T09:48:40.001Z</time></trkpt><trkpt lat="40.05226526708739" lon="8.944880508870364"><ele>565.0</ele><time>2026-05-03T09:48:41.001Z</time></trkpt><trkpt lat="40.05235302790995" lon="8.944712286640062"><ele>572.3333333333334</ele><time>2026-05-03T09:48:42.001Z</time></trkpt><trkpt lat="40.05246341283814" lon="8.94455713016591"><ele>579.6666666666666</ele><time>2026-05-03T09:48:43.001Z</time></trkpt><trkpt lat="40.052576753136485" lon="8.944398584293237"><ele>587.0</ele><time>2026-05-03T09:48:44.001Z</time></trkpt><trkpt lat="40.052679309068786" lon="8.944224396316686"><ele>584.6666666666666</ele><time>2026-05-03T09:48:45.001Z</time></trkpt><trkpt lat="40.05276228473184" lon="8.944047533226966"><ele>582.3333333333334</ele><time>2026-05-03T09:48:46.001Z</time></trkpt><trkpt lat="40.05283001319188" lon="8.943872356618987"><ele>580.0</ele><time>2026-05-03T09:48:47.001Z</time></trkpt><trkpt lat="40.052873081595486" lon="8.943684216249519"><ele>580.0</ele><time>2026-05-03T09:48:48.001Z</time></trkpt><trkpt lat="40.05288867286335" lon="8.943479226099093"><ele>580.0</ele><time>2026-05-03T09:48:49.001Z</time></trkpt><trkpt lat="40.05288886285601" lon="8.943255650383641"><ele>580.0</ele><time>2026-05-03T09:48:50.001Z</time></trkpt><trkpt lat="40.052886740804624" lon="8.94302687686667"><ele>582.6666666666667</ele><time>2026-05-03T09:48:51.001Z</time></trkpt><trkpt lat="40.05288779687273" lon="8.942789583567679"><ele>585.3333333333334</ele><time>2026-05-03T09:48:52.001Z</time></trkpt><trkpt lat="40.05288828999827" lon="8.942557737621053"><ele>588.0</ele><time>2026-05-03T09:48:53.001Z</time></trkpt><trkpt lat="40.052890950838744" lon="8.942338910128493"><ele>589.0</ele><time>2026-05-03T09:48:54.001Z</time></trkpt><trkpt lat="40.052890735247615" lon="8.9421433500787"><ele>590.0</ele><time>2026-05-03T09:48:55.001Z</time></trkpt><trkpt lat="40.05288043721891" lon="8.941965164287403"><ele>591.0</ele><time>2026-05-03T09:48:56.001Z</time></trkpt><trkpt lat="40.05287156199883" lon="8.941811940130629"><ele>592.0</ele><time>2026-05-03T09:48:57.001Z</time></trkpt><trkpt lat="40.05279159434611" lon="8.941703226556687"><ele>590.0</ele><time>2026-05-03T09:48:58.001Z</time></trkpt><trkpt lat="40.05271384918249" lon="8.941598722137899"><ele>588.0</ele><time>2026-05-03T09:48:59.001Z</time></trkpt><trkpt lat="40.052577490354466" lon="8.941546498031096"><ele>586.0</ele><time>2026-05-03T09:49:00.001Z</time></trkpt><trkpt lat="40.05242924952583" lon="8.941504003609174"><ele>584.0</ele><time>2026-05-03T09:49:01.001Z</time></trkpt><trkpt lat="40.052260855647305" lon="8.941428989104919"><ele>584.0</ele><time>2026-05-03T09:49:02.001Z</time></trkpt><trkpt lat="40.05207188935643" lon="8.941381862712412"><ele>584.0</ele><time>2026-05-03T09:49:03.001Z</time></trkpt><trkpt lat="40.051879599632436" lon="8.941308715552791"><ele>584.0</ele><time>2026-05-03T09:49:04.001Z</time></trkpt><trkpt lat="40.05168345635063" lon="8.941240887286785"><ele>585.0</ele><time>2026-05-03T09:49:05.001Z</time></trkpt><trkpt lat="40.05149812265182" lon="8.941177291073332"><ele>586.0</ele><time>2026-05-03T09:49:06.001Z</time></trkpt><trkpt lat="40.05132534737616" lon="8.941115638625398"><ele>587.0</ele><time>2026-05-03T09:49:07.001Z</time></trkpt><trkpt lat="40.05116238179113" lon="8.941046104087388"><ele>587.0</ele><time>2026-05-03T09:49:08.001Z</time></trkpt><trkpt lat="40.05101091682891" lon="8.940953571811898"><ele>587.0</ele><time>2026-05-03T09:49:09.001Z</time></trkpt><trkpt lat="40.050870399698944" lon="8.940832254264608"><ele>587.0</ele><time>2026-05-03T09:49:10.001Z</time></trkpt><trkpt lat="40.050746286080305" lon="8.940693653345667"><ele>586.3333333333333</ele><time>2026-05-03T09:49:11.001Z</time></trkpt><trkpt lat="40.0506165772298" lon="8.940567555627842"><ele>585.6666666666666</ele><time>2026-05-03T09:49:12.001Z</time></trkpt><trkpt lat="40.05049377064411" lon="8.940438923075535"><ele>585.0</ele><time>2026-05-03T09:49:13.001Z</time></trkpt><trkpt lat="40.05035007293625" lon="8.940367963783991"><ele>585.0</ele><time>2026-05-03T09:49:14.001Z</time></trkpt><trkpt lat="40.05021543074149" lon="8.940316644530778"><ele>585.0</ele><time>2026-05-03T09:49:15.001Z</time></trkpt><trkpt lat="40.050089357932585" lon="8.940264879614295"><ele>585.0</ele><time>2026-05-03T09:49:16.001Z</time></trkpt><trkpt lat="40.04999964261043" lon="8.940149863214494"><ele>585.0</ele><time>2026-05-03T09:49:17.001Z</time></trkpt><trkpt lat="40.04994541841332" lon="8.940000751616452"><ele>582.25</ele><time>2026-05-03T09:49:18.001Z</time></trkpt><trkpt lat="40.04991713035607" lon="8.939823326424703"><ele>579.5</ele><time>2026-05-03T09:49:19Z</time></trkpt><trkpt lat="40.049909246712" lon="8.939655394749826"><ele>576.75</ele><time>2026-05-03T09:49:20Z</time></trkpt><trkpt lat="40.04993140245495" lon="8.939492053178075"><ele>574.0</ele><time>2026-05-03T09:49:21Z</time></trkpt><trkpt lat="40.050003962137204" lon="8.939336653020128"><ele>574.6666666666667</ele><time>2026-05-03T09:49:22Z</time></trkpt><trkpt lat="40.050105784263394" lon="8.939173558583807"><ele>575.3333333333334</ele><time>2026-05-03T09:49:23Z</time></trkpt><trkpt lat="40.05020769789801" lon="8.939015221166171"><ele>576.0</ele><time>2026-05-03T09:49:24Z</time></trkpt><trkpt lat="40.05028724872228" lon="8.938869502565963"><ele>576.0</ele><time>2026-05-03T09:49:25Z</time></trkpt><trkpt lat="40.05033174334844" lon="8.938715226227382"><ele>576.0</ele><time>2026-05-03T09:49:26Z</time></trkpt><trkpt lat="40.05033848552552" lon="8.93853879935276"><ele>576.0</ele><time>2026-05-03T09:49:27Z</time></trkpt><trkpt lat="40.05031358567974" lon="8.938347727634527"><ele>576.0</ele><time>2026-05-03T09:49:28Z</time></trkpt><trkpt lat="40.050286207770135" lon="8.938146084194676"><ele>576.3333333333334</ele><time>2026-05-03T09:49:29Z</time></trkpt><trkpt lat="40.05026118804508" lon="8.93792316392084"><ele>576.6666666666667</ele><time>2026-05-03T09:49:30Z</time></trkpt><trkpt lat="40.05023266847424" lon="8.937674738448223"><ele>577.0</ele><time>2026-05-03T09:49:31Z</time></trkpt><trkpt lat="40.050200097065215" lon="8.93743526489168"><ele>577.0</ele><time>2026-05-03T09:49:32Z</time></trkpt><trkpt lat="40.05015754801117" lon="8.93717758829701"><ele>577.0</ele><time>2026-05-03T09:49:33Z</time></trkpt><trkpt lat="40.05011106766012" lon="8.936937294095541"><ele>577.0</ele><time>2026-05-03T09:49:34Z</time></trkpt><trkpt lat="40.05006317890087" lon="8.936716353382012"><ele>578.3333333333334</ele><time>2026-05-03T09:49:35Z</time></trkpt><trkpt lat="40.05000605929961" lon="8.936500815506822"><ele>579.6666666666666</ele><time>2026-05-03T09:49:36Z</time></trkpt><trkpt lat="40.04992496012808" lon="8.936320123925412"><ele>581.0</ele><time>2026-05-03T09:49:37Z</time></trkpt><trkpt lat="40.04981595450562" lon="8.936163868818605"><ele>581.0</ele><time>2026-05-03T09:49:38Z</time></trkpt><trkpt lat="40.04967442668264" lon="8.936043800412625"><ele>581.0</ele><time>2026-05-03T09:49:39Z</time></trkpt><trkpt lat="40.049468521295765" lon="8.936022686374798"><ele>581.0</ele><time>2026-05-03T09:49:41Z</time></trkpt><trkpt lat="40.049299052597306" lon="8.935945257949763"><ele>578.0</ele><time>2026-05-03T09:49:42Z</time></trkpt><trkpt lat="40.049118718977944" lon="8.9358725470309"><ele>575.0</ele><time>2026-05-03T09:49:43Z</time></trkpt><trkpt lat="40.04894252387654" lon="8.935806878262406"><ele>572.0</ele><time>2026-05-03T09:49:44Z</time></trkpt><trkpt lat="40.04875613789392" lon="8.935728089250135"><ele>572.0</ele><time>2026-05-03T09:49:45Z</time></trkpt><trkpt lat="40.048576213276384" lon="8.935650953588173"><ele>572.0</ele><time>2026-05-03T09:49:46Z</time></trkpt><trkpt lat="40.04842716791974" lon="8.935585538241389"><ele>572.0</ele><time>2026-05-03T09:49:47Z</time></trkpt><trkpt lat="40.04826585171315" lon="8.935547596663751"><ele>571.3333333333333</ele><time>2026-05-03T09:49:48Z</time></trkpt><trkpt lat="40.04808914920521" lon="8.935536951306258"><ele>570.6666666666666</ele><time>2026-05-03T09:49:49Z</time></trkpt><trkpt lat="40.04790216778387" lon="8.93556082829188"><ele>570.0</ele><time>2026-05-03T09:49:50Z</time></trkpt><trkpt lat="40.047713654166124" lon="8.935616367296513"><ele>570.0</ele><time>2026-05-03T09:49:51Z</time></trkpt><trkpt lat="40.04752191395758" lon="8.93569875741912"><ele>570.0</ele><time>2026-05-03T09:49:52Z</time></trkpt><trkpt lat="40.04732923229061" lon="8.935772733937345"><ele>570.0</ele><time>2026-05-03T09:49:53Z</time></trkpt><trkpt lat="40.04712660601196" lon="8.935845414681124"><ele>572.0</ele><time>2026-05-03T09:49:54Z</time></trkpt><trkpt lat="40.04696104414572" lon="8.935917101558088"><ele>574.0</ele><time>2026-05-03T09:49:55Z</time></trkpt><trkpt lat="40.04678188511988" lon="8.935968926316928"><ele>576.0</ele><time>2026-05-03T09:49:56Z</time></trkpt><trkpt lat="40.04659875893266" lon="8.935977439762533"><ele>576.0</ele><time>2026-05-03T09:49:57Z</time></trkpt><trkpt lat="40.04642486862153" lon="8.936001324897887"><ele>576.0</ele><time>2026-05-03T09:49:58Z</time></trkpt><trkpt lat="40.04625324176061" lon="8.93604195218888"><ele>576.0</ele><time>2026-05-03T09:49:59Z</time></trkpt><trkpt lat="40.046082999542755" lon="8.936062481937041"><ele>576.0</ele><time>2026-05-03T09:50:00Z</time></trkpt><trkpt lat="40.045915785743325" lon="8.936046416266898"><ele>576.0</ele><time>2026-05-03T09:50:01Z</time></trkpt><trkpt lat="40.04576335478158" lon="8.936016773425212"><ele>576.0</ele><time>2026-05-03T09:50:02Z</time></trkpt><trkpt lat="40.0456014950891" lon="8.935982236130904"><ele>577.3333333333334</ele><time>2026-05-03T09:50:03Z</time></trkpt><trkpt lat="40.04544445996067" lon="8.93591129201658"><ele>578.6666666666667</ele><time>2026-05-03T09:50:04Z</time></trkpt><trkpt lat="40.045281892727445" lon="8.935834574104543"><ele>580.0</ele><time>2026-05-03T09:50:05Z</time></trkpt><trkpt lat="40.04512523478003" lon="8.935732253635889"><ele>574.6666666666667</ele><time>2026-05-03T09:50:06Z</time></trkpt><trkpt lat="40.04497455661462" lon="8.935628930615573"><ele>569.3333333333334</ele><time>2026-05-03T09:50:07Z</time></trkpt><trkpt lat="40.04484408683982" lon="8.935524792554657"><ele>564.0</ele><time>2026-05-03T09:50:08Z</time></trkpt><trkpt lat="40.0447132512819" lon="8.935409379829727"><ele>564.0</ele><time>2026-05-03T09:50:09Z</time></trkpt><trkpt lat="40.04459113466947" lon="8.935333130732703"><ele>564.0</ele><time>2026-05-03T09:50:10Z</time></trkpt><trkpt lat="40.04446434197001" lon="8.935242591059504"><ele>564.0</ele><time>2026-05-03T09:50:11Z</time></trkpt><trkpt lat="40.04434960541589" lon="8.935131656084783"><ele>564.0</ele><time>2026-05-03T09:50:12Z</time></trkpt><trkpt lat="40.04423434992596" lon="8.935043515496668"><ele>561.0</ele><time>2026-05-03T09:50:13Z</time></trkpt><trkpt lat="40.04412643635829" lon="8.934949132001991"><ele>558.0</ele><time>2026-05-03T09:50:14Z</time></trkpt><trkpt lat="40.04403095109491" lon="8.934841385152481"><ele>555.0</ele><time>2026-05-03T09:50:15Z</time></trkpt><trkpt lat="40.04395829751535" lon="8.934676894652794"><ele>552.0</ele><time>2026-05-03T09:50:16Z</time></trkpt><trkpt lat="40.04389719390448" lon="8.934482010173147"><ele>552.0</ele><time>2026-05-03T09:50:17Z</time></trkpt><trkpt lat="40.04383434562457" lon="8.934279287959182"><ele>552.0</ele><time>2026-05-03T09:50:18Z</time></trkpt><trkpt lat="40.04377493225779" lon="8.934061548448504"><ele>552.0</ele><time>2026-05-03T09:50:19Z</time></trkpt><trkpt lat="40.043704579699394" lon="8.933841337556995"><ele>550.6666666666666</ele><time>2026-05-03T09:50:20Z</time></trkpt><trkpt lat="40.04363650600531" lon="8.933611983655785"><ele>549.3333333333333</ele><time>2026-05-03T09:50:21Z</time></trkpt><trkpt lat="40.04353301801581" lon="8.933394293065092"><ele>548.0</ele><time>2026-05-03T09:50:22Z</time></trkpt><trkpt lat="40.04340879364771" lon="8.933184934671843"><ele>547.0</ele><time>2026-05-03T09:50:23Z</time></trkpt><trkpt lat="40.04329296120856" lon="8.932992832975316"><ele>546.0</ele><time>2026-05-03T09:50:24Z</time></trkpt><trkpt lat="40.04316614005202" lon="8.93278343091361"><ele>545.0</ele><time>2026-05-03T09:50:25Z</time></trkpt><trkpt lat="40.04303914151916" lon="8.932575167165066"><ele>545.0</ele><time>2026-05-03T09:50:26Z</time></trkpt><trkpt lat="40.04292003371725" lon="8.932380010059383"><ele>545.0</ele><time>2026-05-03T09:50:27Z</time></trkpt><trkpt lat="40.04280550998405" lon="8.932192363919196"><ele>545.0</ele><time>2026-05-03T09:50:28Z</time></trkpt><trkpt lat="40.04269453547068" lon="8.932010532896676"><ele>545.0</ele><time>2026-05-03T09:50:29Z</time></trkpt><trkpt lat="40.04258694843886" lon="8.931833324708531"><ele>545.0</ele><time>2026-05-03T09:50:30Z</time></trkpt><trkpt lat="40.042477368912614" lon="8.931676184686413"><ele>545.0</ele><time>2026-05-03T09:50:31Z</time></trkpt><trkpt lat="40.042407755999605" lon="8.931499377066547"><ele>546.6666666666666</ele><time>2026-05-03T09:50:32Z</time></trkpt><trkpt lat="40.04236514050087" lon="8.93129058949799"><ele>548.3333333333334</ele><time>2026-05-03T09:50:33Z</time></trkpt><trkpt lat="40.042333636758705" lon="8.931074221929075"><ele>550.0</ele><time>2026-05-03T09:50:34Z</time></trkpt><trkpt lat="40.042285382843716" lon="8.93084568605998"><ele>550.0</ele><time>2026-05-03T09:50:35Z</time></trkpt><trkpt lat="40.04217695572934" lon="8.930633745681197"><ele>550.0</ele><time>2026-05-03T09:50:36Z</time></trkpt><trkpt lat="40.04207436486499" lon="8.93041428920743"><ele>550.0</ele><time>2026-05-03T09:50:37Z</time></trkpt><trkpt lat="40.04197272941385" lon="8.930192773221924"><ele>545.6666666666667</ele><time>2026-05-03T09:50:38Z</time></trkpt><trkpt lat="40.04186705319706" lon="8.929962413042592"><ele>541.3333333333334</ele><time>2026-05-03T09:50:39Z</time></trkpt><trkpt lat="40.041751363168736" lon="8.929741427709686"><ele>537.0</ele><time>2026-05-03T09:50:40Z</time></trkpt><trkpt lat="40.04163325563191" lon="8.929517222598632"><ele>536.3333333333334</ele><time>2026-05-03T09:50:41Z</time></trkpt><trkpt lat="40.04149424741263" lon="8.929332861258537"><ele>535.6666666666667</ele><time>2026-05-03T09:50:42Z</time></trkpt><trkpt lat="40.041355239495246" lon="8.92916823600712"><ele>535.0</ele><time>2026-05-03T09:50:43Z</time></trkpt><trkpt lat="40.041208807760825" lon="8.92901672907219"><ele>535.0</ele><time>2026-05-03T09:50:44Z</time></trkpt><trkpt lat="40.04109986288946" lon="8.928834297113895"><ele>535.0</ele><time>2026-05-03T09:50:45Z</time></trkpt><trkpt lat="40.04100755966085" lon="8.928628241981343"><ele>535.0</ele><time>2026-05-03T09:50:46Z</time></trkpt><trkpt lat="40.04093401263141" lon="8.92839777333609"><ele>535.3333333333334</ele><time>2026-05-03T09:50:47Z</time></trkpt><trkpt lat="40.04087190608361" lon="8.928164348648824"><ele>535.6666666666666</ele><time>2026-05-03T09:50:48Z</time></trkpt><trkpt lat="40.04079824615486" lon="8.927953836127214"><ele>536.0</ele><time>2026-05-03T09:50:49Z</time></trkpt><trkpt lat="40.040700416702315" lon="8.92776851679949"><ele>536.0</ele><time>2026-05-03T09:50:50Z</time></trkpt><trkpt lat="40.04058212598181" lon="8.927612429576541"><ele>536.0</ele><time>2026-05-03T09:50:51Z</time></trkpt><trkpt lat="40.040447039517574" lon="8.927486552435216"><ele>536.0</ele><time>2026-05-03T09:50:52Z</time></trkpt><trkpt lat="40.040288538171716" lon="8.927403103245174"><ele>536.6666666666666</ele><time>2026-05-03T09:50:53Z</time></trkpt><trkpt lat="40.040115369035775" lon="8.927349862382389"><ele>537.3333333333334</ele><time>2026-05-03T09:50:54Z</time></trkpt><trkpt lat="40.03992577571131" lon="8.92726683076659"><ele>538.0</ele><time>2026-05-03T09:50:55Z</time></trkpt><trkpt lat="40.039771146157385" lon="8.927153196978596"><ele>538.0</ele><time>2026-05-03T09:50:56Z</time></trkpt><trkpt lat="40.03961833231383" lon="8.927004232100694"><ele>538.0</ele><time>2026-05-03T09:50:57Z</time></trkpt><trkpt lat="40.039464735317964" lon="8.926828220579985"><ele>538.0</ele><time>2026-05-03T09:50:58Z</time></trkpt><trkpt lat="40.03931214270303" lon="8.926665606417727"><ele>535.3333333333334</ele><time>2026-05-03T09:50:59Z</time></trkpt><trkpt lat="40.03916964748056" lon="8.926508238521091"><ele>532.6666666666666</ele><time>2026-05-03T09:51:00Z</time></trkpt><trkpt lat="40.039039710660425" lon="8.926350812740857"><ele>530.0</ele><time>2026-05-03T09:51:01Z</time></trkpt><trkpt lat="40.03890762644303" lon="8.926207705353276"><ele>530.0</ele><time>2026-05-03T09:51:02Z</time></trkpt><trkpt lat="40.038784524774094" lon="8.926070295427005"><ele>530.0</ele><time>2026-05-03T09:51:03Z</time></trkpt><trkpt lat="40.038663655484605" lon="8.92594346315448"><ele>530.0</ele><time>2026-05-03T09:51:04Z</time></trkpt><trkpt lat="40.03855696642181" lon="8.925798156799116"><ele>525.75</ele><time>2026-05-03T09:51:05Z</time></trkpt><trkpt lat="40.03843275754363" lon="8.925685158069538"><ele>521.5</ele><time>2026-05-03T09:51:06Z</time></trkpt><trkpt lat="40.03833095061957" lon="8.925557237669228"><ele>517.25</ele><time>2026-05-03T09:51:07Z</time></trkpt><trkpt lat="40.03824697007419" lon="8.92543824257526"><ele>513.0</ele><time>2026-05-03T09:51:08Z</time></trkpt><trkpt lat="40.038194749392126" lon="8.92532952854386"><ele>513.0</ele><time>2026-05-03T09:51:09Z</time></trkpt><trkpt lat="40.03817601405528" lon="8.925234959597693"><ele>513.0</ele><time>2026-05-03T09:51:10Z</time></trkpt><trkpt lat="40.038190797192044" lon="8.925151985138129"><ele>513.0</ele><time>2026-05-03T09:51:11Z</time></trkpt><trkpt lat="40.03828159771444" lon="8.925074710781123"><ele>513.0</ele><time>2026-05-03T09:51:13Z</time></trkpt><trkpt lat="40.038396359028695" lon="8.925007036302432"><ele>513.0</ele><time>2026-05-03T09:51:15Z</time></trkpt><trkpt lat="40.03851097501446" lon="8.925099923027815"><ele>513.0</ele><time>2026-05-03T09:51:16Z</time></trkpt><trkpt lat="40.03861015763048" lon="8.925129588965302"><ele>513.0</ele><time>2026-05-03T09:51:17Z</time></trkpt><trkpt lat="40.038730275032634" lon="8.925168066787515"><ele>513.0</ele><time>2026-05-03T09:51:18Z</time></trkpt><trkpt lat="40.038872789525826" lon="8.925213146244502"><ele>513.0</ele><time>2026-05-03T09:51:19.001Z</time></trkpt><trkpt lat="40.03902122286487" lon="8.925261751222148"><ele>510.66666666666663</ele><time>2026-05-03T09:51:20.001Z</time></trkpt><trkpt lat="40.039173415484505" lon="8.925326862096437"><ele>508.3333333333333</ele><time>2026-05-03T09:51:21.001Z</time></trkpt><trkpt lat="40.039314053186615" lon="8.925397659197802"><ele>506.0</ele><time>2026-05-03T09:51:22.001Z</time></trkpt><trkpt lat="40.039452013707496" lon="8.92545222670613"><ele>506.0</ele><time>2026-05-03T09:51:23.001Z</time></trkpt><trkpt lat="40.039583943775284" lon="8.9254696370218"><ele>506.0</ele><time>2026-05-03T09:51:24.001Z</time></trkpt><trkpt lat="40.03971401794402" lon="8.92544035731884"><ele>506.0</ele><time>2026-05-03T09:51:25Z</time></trkpt><trkpt lat="40.03985102069311" lon="8.925367122128359"><ele>506.0</ele><time>2026-05-03T09:51:26Z</time></trkpt><trkpt lat="40.03998296676175" lon="8.925257294869127"><ele>504.0</ele><time>2026-05-03T09:51:27Z</time></trkpt><trkpt lat="40.04012764097092" lon="8.925141498985614"><ele>502.0</ele><time>2026-05-03T09:51:28Z</time></trkpt><trkpt lat="40.04026710996758" lon="8.925025172052939"><ele>500.0</ele><time>2026-05-03T09:51:29Z</time></trkpt><trkpt lat="40.04040367700336" lon="8.924911651086404"><ele>498.3333333333333</ele><time>2026-05-03T09:51:30Z</time></trkpt><trkpt lat="40.04053795375341" lon="8.924804133426973"><ele>496.66666666666663</ele><time>2026-05-03T09:51:31Z</time></trkpt><trkpt lat="40.040668387446914" lon="8.924704467199643"><ele>495.0</ele><time>2026-05-03T09:51:32Z</time></trkpt><trkpt lat="40.04079110091422" lon="8.924603810264932"><ele>495.0</ele><time>2026-05-03T09:51:33Z</time></trkpt><trkpt lat="40.04090926760717" lon="8.924505436405765"><ele>495.0</ele><time>2026-05-03T09:51:34Z</time></trkpt><trkpt lat="40.04101835560626" lon="8.92441881693521"><ele>495.0</ele><time>2026-05-03T09:51:35Z</time></trkpt><trkpt lat="40.041122813755656" lon="8.924363467990084"><ele>495.0</ele><time>2026-05-03T09:51:36Z</time></trkpt><trkpt lat="40.04123948783751" lon="8.924328777348272"><ele>495.0</ele><time>2026-05-03T09:51:37Z</time></trkpt><trkpt lat="40.041358966973746" lon="8.924335472432572"><ele>495.0</ele><time>2026-05-03T09:51:38Z</time></trkpt><trkpt lat="40.04147571668436" lon="8.92437959446806"><ele>495.0</ele><time>2026-05-03T09:51:39Z</time></trkpt><trkpt lat="40.04157890977922" lon="8.924459762406217"><ele>495.0</ele><time>2026-05-03T09:51:40Z</time></trkpt><trkpt lat="40.04167444364156" lon="8.92455836009519"><ele>492.4</ele><time>2026-05-03T09:51:41Z</time></trkpt><trkpt lat="40.04175673450534" lon="8.924672566603723"><ele>489.8</ele><time>2026-05-03T09:51:42Z</time></trkpt><trkpt lat="40.041836724276955" lon="8.924767114580783"><ele>487.20000000000005</ele><time>2026-05-03T09:51:43Z</time></trkpt><trkpt lat="40.041921566689254" lon="8.924834796374416"><ele>484.6</ele><time>2026-05-03T09:51:44Z</time></trkpt><trkpt lat="40.04202397483939" lon="8.924850953294031"><ele>482.0</ele><time>2026-05-03T09:51:45Z</time></trkpt><trkpt lat="40.04212023237183" lon="8.92482806254884"><ele>482.0</ele><time>2026-05-03T09:51:46Z</time></trkpt><trkpt lat="40.042207198960405" lon="8.9247466536954"><ele>482.0</ele><time>2026-05-03T09:51:47Z</time></trkpt><trkpt lat="40.04228785102329" lon="8.924625096303185"><ele>482.0</ele><time>2026-05-03T09:51:48Z</time></trkpt><trkpt lat="40.04236019511911" lon="8.924467457229133"><ele>482.0</ele><time>2026-05-03T09:51:49Z</time></trkpt><trkpt lat="40.04243187438816" lon="8.924309464568577"><ele>476.66666666666663</ele><time>2026-05-03T09:51:50Z</time></trkpt><trkpt lat="40.042506650075815" lon="8.924134933388995"><ele>471.33333333333337</ele><time>2026-05-03T09:51:51Z</time></trkpt><trkpt lat="40.042593097311936" lon="8.923948785200713"><ele>466.0</ele><time>2026-05-03T09:51:52Z</time></trkpt><trkpt lat="40.04268004939104" lon="8.923768436668205"><ele>466.0</ele><time>2026-05-03T09:51:53Z</time></trkpt><trkpt lat="40.04276879646797" lon="8.923578579062445"><ele>466.0</ele><time>2026-05-03T09:51:54Z</time></trkpt><trkpt lat="40.04285394671606" lon="8.92337199126184"><ele>466.0</ele><time>2026-05-03T09:51:55Z</time></trkpt><trkpt lat="40.04292293717113" lon="8.923145908556858"><ele>461.33333333333337</ele><time>2026-05-03T09:51:56Z</time></trkpt><trkpt lat="40.042978227601544" lon="8.92291090559545"><ele>456.66666666666663</ele><time>2026-05-03T09:51:57Z</time></trkpt><trkpt lat="40.043024481824766" lon="8.922669627383959"><ele>452.0</ele><time>2026-05-03T09:51:58Z</time></trkpt><trkpt lat="40.04306964046852" lon="8.922444296736517"><ele>449.0</ele><time>2026-05-03T09:51:59Z</time></trkpt><trkpt lat="40.04311623487088" lon="8.922233320259545"><ele>446.0</ele><time>2026-05-03T09:52:00Z</time></trkpt><trkpt lat="40.04317553764209" lon="8.922031465363055"><ele>443.0</ele><time>2026-05-03T09:52:01Z</time></trkpt><trkpt lat="40.04324901339955" lon="8.92184429838554"><ele>445.0</ele><time>2026-05-03T09:52:02Z</time></trkpt><trkpt lat="40.04334737469177" lon="8.921659072690224"><ele>447.0</ele><time>2026-05-03T09:52:03Z</time></trkpt><trkpt lat="40.0434587321641" lon="8.921476525724653"><ele>449.0</ele><time>2026-05-03T09:52:04Z</time></trkpt><trkpt lat="40.043569774617964" lon="8.921300196612625"><ele>449.0</ele><time>2026-05-03T09:52:05Z</time></trkpt><trkpt lat="40.04369343263818" lon="8.921120045370646"><ele>449.0</ele><time>2026-05-03T09:52:06Z</time></trkpt><trkpt lat="40.04382902611208" lon="8.920938767706062"><ele>449.0</ele><time>2026-05-03T09:52:07Z</time></trkpt><trkpt lat="40.04397887706794" lon="8.920766574653419"><ele>446.0</ele><time>2026-05-03T09:52:08Z</time></trkpt><trkpt lat="40.04412218580162" lon="8.92060339830224"><ele>443.0</ele><time>2026-05-03T09:52:09Z</time></trkpt><trkpt lat="40.044269463003154" lon="8.920428629642519"><ele>440.0</ele><time>2026-05-03T09:52:10Z</time></trkpt><trkpt lat="40.04440833022988" lon="8.920257650868532"><ele>440.0</ele><time>2026-05-03T09:52:11Z</time></trkpt><trkpt lat="40.04454317339677" lon="8.920098880889995"><ele>440.0</ele><time>2026-05-03T09:52:12Z</time></trkpt><trkpt lat="40.04467076186116" lon="8.919940419000886"><ele>440.0</ele><time>2026-05-03T09:52:13Z</time></trkpt><trkpt lat="40.044797990039385" lon="8.919792131661545"><ele>438.0</ele><time>2026-05-03T09:52:14Z</time></trkpt><trkpt lat="40.04492193545838" lon="8.919652983625499"><ele>436.0</ele><time>2026-05-03T09:52:15Z</time></trkpt><trkpt lat="40.04505154294725" lon="8.91953753540114"><ele>434.0</ele><time>2026-05-03T09:52:16Z</time></trkpt><trkpt lat="40.04519716975538" lon="8.919425400964633"><ele>434.0</ele><time>2026-05-03T09:52:17Z</time></trkpt><trkpt lat="40.045358470779895" lon="8.919327320371073"><ele>434.0</ele><time>2026-05-03T09:52:18Z</time></trkpt><trkpt lat="40.045511282335845" lon="8.919235335805856"><ele>434.0</ele><time>2026-05-03T09:52:19Z</time></trkpt><trkpt lat="40.04566184318977" lon="8.919147858245983"><ele>432.25</ele><time>2026-05-03T09:52:20Z</time></trkpt><trkpt lat="40.045800631877505" lon="8.919075066305107"><ele>430.5</ele><time>2026-05-03T09:52:21Z</time></trkpt><trkpt lat="40.0459370687133" lon="8.919026241608698"><ele>428.75</ele><time>2026-05-03T09:52:22Z</time></trkpt><trkpt lat="40.046074070059625" lon="8.919004691580772"><ele>427.0</ele><time>2026-05-03T09:52:23Z</time></trkpt><trkpt lat="40.04620950962798" lon="8.919017415897262"><ele>427.0</ele><time>2026-05-03T09:52:24Z</time></trkpt><trkpt lat="40.04634432312522" lon="8.919045450456883"><ele>427.0</ele><time>2026-05-03T09:52:25Z</time></trkpt><trkpt lat="40.04647920746775" lon="8.919083731878652"><ele>427.0</ele><time>2026-05-03T09:52:26Z</time></trkpt><trkpt lat="40.04661658814893" lon="8.919125382792906"><ele>427.0</ele><time>2026-05-03T09:52:27Z</time></trkpt><trkpt lat="40.046749287154896" lon="8.91915621550787"><ele>426.0</ele><time>2026-05-03T09:52:28Z</time></trkpt><trkpt lat="40.046878216605855" lon="8.919166418583156"><ele>425.0</ele><time>2026-05-03T09:52:29Z</time></trkpt><trkpt lat="40.04699102450581" lon="8.919142884534596"><ele>424.0</ele><time>2026-05-03T09:52:30Z</time></trkpt><trkpt lat="40.047096938094704" lon="8.919065430970011"><ele>423.0</ele><time>2026-05-03T09:52:31Z</time></trkpt><trkpt lat="40.04718415570491" lon="8.918936129366118"><ele>423.0</ele><time>2026-05-03T09:52:32Z</time></trkpt><trkpt lat="40.0472597433524" lon="8.918768032433368"><ele>423.0</ele><time>2026-05-03T09:52:33Z</time></trkpt><trkpt lat="40.04733120333023" lon="8.91857410754858"><ele>423.0</ele><time>2026-05-03T09:52:34Z</time></trkpt><trkpt lat="40.04740810594596" lon="8.91837204086127"><ele>420.66666666666663</ele><time>2026-05-03T09:52:35Z</time></trkpt><trkpt lat="40.047485371695295" lon="8.918176685753782"><ele>418.3333333333333</ele><time>2026-05-03T09:52:36Z</time></trkpt><trkpt lat="40.04755717125083" lon="8.917997677622873"><ele>416.0</ele><time>2026-05-03T09:52:37Z</time></trkpt><trkpt lat="40.04762030158277" lon="8.91782877987649"><ele>416.0</ele><time>2026-05-03T09:52:38Z</time></trkpt><trkpt lat="40.04766676911534" lon="8.91765941550813"><ele>416.0</ele><time>2026-05-03T09:52:39Z</time></trkpt><trkpt lat="40.04768424168715" lon="8.917487837207107"><ele>416.0</ele><time>2026-05-03T09:52:40Z</time></trkpt><trkpt lat="40.04767925637413" lon="8.917314982248435"><ele>416.0</ele><time>2026-05-03T09:52:41Z</time></trkpt><trkpt lat="40.047620509161106" lon="8.917147537198012"><ele>416.66666666666663</ele><time>2026-05-03T09:52:42Z</time></trkpt><trkpt lat="40.04753388758279" lon="8.916992384715444"><ele>417.33333333333337</ele><time>2026-05-03T09:52:43Z</time></trkpt><trkpt lat="40.047439545754365" lon="8.916838718695645"><ele>418.0</ele><time>2026-05-03T09:52:44Z</time></trkpt><trkpt lat="40.04734275170616" lon="8.916681058752335"><ele>420.0</ele><time>2026-05-03T09:52:45Z</time></trkpt><trkpt lat="40.047244241717934" lon="8.91652060392537"><ele>422.0</ele><time>2026-05-03T09:52:46Z</time></trkpt><trkpt lat="40.04714626928494" lon="8.916361024290262"><ele>424.0</ele><time>2026-05-03T09:52:47Z</time></trkpt><trkpt lat="40.04704757223717" lon="8.916204551454822"><ele>424.0</ele><time>2026-05-03T09:52:48Z</time></trkpt><trkpt lat="40.04693459933229" lon="8.916051771343506"><ele>424.0</ele><time>2026-05-03T09:52:49Z</time></trkpt><trkpt lat="40.04683109068039" lon="8.915876110025218"><ele>424.0</ele><time>2026-05-03T09:52:50Z</time></trkpt><trkpt lat="40.04672848150319" lon="8.915705682024447"><ele>421.0</ele><time>2026-05-03T09:52:51Z</time></trkpt><trkpt lat="40.046624039285504" lon="8.915542008174645"><ele>418.0</ele><time>2026-05-03T09:52:52Z</time></trkpt><trkpt lat="40.046527993385126" lon="8.915371731533053"><ele>415.0</ele><time>2026-05-03T09:52:53Z</time></trkpt><trkpt lat="40.04645454227894" lon="8.91518901164271"><ele>415.6666666666667</ele><time>2026-05-03T09:52:54Z</time></trkpt><trkpt lat="40.04640349750274" lon="8.91498660967339"><ele>416.33333333333337</ele><time>2026-05-03T09:52:55Z</time></trkpt><trkpt lat="40.04637667342154" lon="8.914767564956762"><ele>417.0</ele><time>2026-05-03T09:52:56Z</time></trkpt><trkpt lat="40.04634623914314" lon="8.914546135383459"><ele>417.0</ele><time>2026-05-03T09:52:57Z</time></trkpt><trkpt lat="40.04631272143131" lon="8.914328161430467"><ele>417.0</ele><time>2026-05-03T09:52:58Z</time></trkpt><trkpt lat="40.04623143993895" lon="8.91412718201692"><ele>417.0</ele><time>2026-05-03T09:52:59Z</time></trkpt><trkpt lat="40.04612828514656" lon="8.9139334586475"><ele>418.0</ele><time>2026-05-03T09:53:00Z</time></trkpt><trkpt lat="40.04601950601091" lon="8.91374722642596"><ele>419.0</ele><time>2026-05-03T09:53:01Z</time></trkpt><trkpt lat="40.04590940998147" lon="8.913586630458637"><ele>420.0</ele><time>2026-05-03T09:53:02Z</time></trkpt><trkpt lat="40.045824731781835" lon="8.913426681430627"><ele>418.25</ele><time>2026-05-03T09:53:03Z</time></trkpt><trkpt lat="40.04576610952933" lon="8.913273755596638"><ele>416.5</ele><time>2026-05-03T09:53:04Z</time></trkpt><trkpt lat="40.045738336173216" lon="8.91311730115266"><ele>414.75</ele><time>2026-05-03T09:53:05Z</time></trkpt><trkpt lat="40.0457438305229" lon="8.912955013112944"><ele>413.0</ele><time>2026-05-03T09:53:06.001Z</time></trkpt><trkpt lat="40.0457652411449" lon="8.912803480987373"><ele>413.0</ele><time>2026-05-03T09:53:07.001Z</time></trkpt><trkpt lat="40.04577352932948" lon="8.912657373162517"><ele>413.0</ele><time>2026-05-03T09:53:08.001Z</time></trkpt><trkpt lat="40.04575524565391" lon="8.91251465666858"><ele>413.0</ele><time>2026-05-03T09:53:09.001Z</time></trkpt><trkpt lat="40.045709112325866" lon="8.912385832116431"><ele>413.0</ele><time>2026-05-03T09:53:10.001Z</time></trkpt><trkpt lat="40.04565198090899" lon="8.912262843737475"><ele>413.0</ele><time>2026-05-03T09:53:11.001Z</time></trkpt><trkpt lat="40.04560360511164" lon="8.912138266042186"><ele>413.59999999999997</ele><time>2026-05-03T09:53:12.001Z</time></trkpt><trkpt lat="40.04558121819235" lon="8.912008164429746"><ele>414.2</ele><time>2026-05-03T09:53:13.001Z</time></trkpt><trkpt lat="40.04558939741853" lon="8.91188220979408"><ele>414.8</ele><time>2026-05-03T09:53:14.001Z</time></trkpt><trkpt lat="40.04561741708246" lon="8.911761019051744"><ele>415.4</ele><time>2026-05-03T09:53:15.001Z</time></trkpt><trkpt lat="40.04567502612934" lon="8.911657319278063"><ele>416.0</ele><time>2026-05-03T09:53:16.001Z</time></trkpt><trkpt lat="40.045746075692826" lon="8.911560250410233"><ele>416.75</ele><time>2026-05-03T09:53:17.001Z</time></trkpt><trkpt lat="40.04584029181058" lon="8.9114486443297"><ele>417.5</ele><time>2026-05-03T09:53:18.001Z</time></trkpt><trkpt lat="40.04594029429949" lon="8.911324692598457"><ele>418.25</ele><time>2026-05-03T09:53:19.001Z</time></trkpt><trkpt lat="40.04604647800865" lon="8.911188772178702"><ele>419.0</ele><time>2026-05-03T09:53:20.001Z</time></trkpt><trkpt lat="40.04614505748975" lon="8.911044688247099"><ele>417.0</ele><time>2026-05-03T09:53:21.001Z</time></trkpt><trkpt lat="40.04623414896039" lon="8.910875848842181"><ele>415.0</ele><time>2026-05-03T09:53:22.001Z</time></trkpt><trkpt lat="40.04630950332552" lon="8.910699994608025"><ele>413.0</ele><time>2026-05-03T09:53:23.001Z</time></trkpt><trkpt lat="40.046384675352954" lon="8.910525637079347"><ele>413.0</ele><time>2026-05-03T09:53:24.001Z</time></trkpt><trkpt lat="40.04647549584854" lon="8.910359998847744"><ele>413.0</ele><time>2026-05-03T09:53:25.001Z</time></trkpt><trkpt lat="40.046579039329465" lon="8.9102113568693"><ele>413.0</ele><time>2026-05-03T09:53:26.001Z</time></trkpt><trkpt lat="40.046693751083694" lon="8.91007098312976"><ele>410.66666666666663</ele><time>2026-05-03T09:53:27.001Z</time></trkpt><trkpt lat="40.04681903078331" lon="8.909927393762988"><ele>408.33333333333337</ele><time>2026-05-03T09:53:28.001Z</time></trkpt><trkpt lat="40.04694964655977" lon="8.909766581500605"><ele>406.0</ele><time>2026-05-03T09:53:29.001Z</time></trkpt><trkpt lat="40.04706645883024" lon="8.909592761766351"><ele>406.0</ele><time>2026-05-03T09:53:30.001Z</time></trkpt><trkpt lat="40.047168797759696" lon="8.909398565240945"><ele>406.0</ele><time>2026-05-03T09:53:31Z</time></trkpt><trkpt lat="40.04725565762207" lon="8.909183849759762"><ele>406.0</ele><time>2026-05-03T09:53:32Z</time></trkpt><trkpt lat="40.047332995434374" lon="8.908941797941768"><ele>407.0</ele><time>2026-05-03T09:53:33Z</time></trkpt><trkpt lat="40.04740659989238" lon="8.908683150618382"><ele>408.0</ele><time>2026-05-03T09:53:34Z</time></trkpt><trkpt lat="40.04748014322755" lon="8.908425494236155"><ele>409.0</ele><time>2026-05-03T09:53:35Z</time></trkpt><trkpt lat="40.047553412819745" lon="8.9081561263153"><ele>406.33333333333337</ele><time>2026-05-03T09:53:36Z</time></trkpt><trkpt lat="40.04762478188984" lon="8.907903509559347"><ele>403.66666666666663</ele><time>2026-05-03T09:53:37Z</time></trkpt><trkpt lat="40.04768751678494" lon="8.907666350311034"><ele>401.0</ele><time>2026-05-03T09:53:38Z</time></trkpt><trkpt lat="40.04773238727766" lon="8.907430566711037"><ele>398.66666666666663</ele><time>2026-05-03T09:53:39Z</time></trkpt><trkpt lat="40.04776172468136" lon="8.907184909738872"><ele>396.33333333333337</ele><time>2026-05-03T09:53:40Z</time></trkpt><trkpt lat="40.04777271249106" lon="8.906942591818014"><ele>394.0</ele><time>2026-05-03T09:53:41Z</time></trkpt><trkpt lat="40.0477714117569" lon="8.906700930673672"><ele>391.33333333333337</ele><time>2026-05-03T09:53:42Z</time></trkpt><trkpt lat="40.04774889394486" lon="8.906462864811028"><ele>388.66666666666663</ele><time>2026-05-03T09:53:43Z</time></trkpt><trkpt lat="40.04770578398091" lon="8.906215415391259"><ele>386.0</ele><time>2026-05-03T09:53:44Z</time></trkpt><trkpt lat="40.04764901855506" lon="8.905966514017818"><ele>384.66666666666663</ele><time>2026-05-03T09:53:45Z</time></trkpt><trkpt lat="40.04759400741806" lon="8.90572767499031"><ele>383.3333333333333</ele><time>2026-05-03T09:53:46Z</time></trkpt><trkpt lat="40.047551676174784" lon="8.905491323994701"><ele>382.0</ele><time>2026-05-03T09:53:47Z</time></trkpt><trkpt lat="40.047513634860266" lon="8.905242483154334"><ele>382.0</ele><time>2026-05-03T09:53:48Z</time></trkpt><trkpt lat="40.04747594469481" lon="8.904972207086397"><ele>382.0</ele><time>2026-05-03T09:53:49Z</time></trkpt><trkpt lat="40.04744638410356" lon="8.904673240832656"><ele>382.0</ele><time>2026-05-03T09:53:50Z</time></trkpt><trkpt lat="40.0474186535953" lon="8.904383580467762"><ele>376.0</ele><time>2026-05-03T09:53:51Z</time></trkpt><trkpt lat="40.047393058050666" lon="8.904103450661125"><ele>370.0</ele><time>2026-05-03T09:53:52Z</time></trkpt><trkpt lat="40.04736610946458" lon="8.903829482099525"><ele>364.0</ele><time>2026-05-03T09:53:53Z</time></trkpt><trkpt lat="40.04734302262797" lon="8.90357599230049"><ele>363.0</ele><time>2026-05-03T09:53:54Z</time></trkpt><trkpt lat="40.04732295413729" lon="8.903337844662987"><ele>362.0</ele><time>2026-05-03T09:53:55Z</time></trkpt><trkpt lat="40.047303833252215" lon="8.903109545596498"><ele>361.0</ele><time>2026-05-03T09:53:56Z</time></trkpt><trkpt lat="40.0472878930847" lon="8.902890680862829"><ele>361.0</ele><time>2026-05-03T09:53:57Z</time></trkpt><trkpt lat="40.04728588504252" lon="8.902674004150212"><ele>361.0</ele><time>2026-05-03T09:53:58Z</time></trkpt><trkpt lat="40.047295670297835" lon="8.902462704029436"><ele>361.0</ele><time>2026-05-03T09:53:59Z</time></trkpt><trkpt lat="40.047320435618424" lon="8.90225407586073"><ele>359.66666666666663</ele><time>2026-05-03T09:54:00Z</time></trkpt><trkpt lat="40.04735724697833" lon="8.902051467582886"><ele>358.3333333333333</ele><time>2026-05-03T09:54:01Z</time></trkpt><trkpt lat="40.04740837026251" lon="8.90185553313615"><ele>357.0</ele><time>2026-05-03T09:54:02Z</time></trkpt><trkpt lat="40.047462115357" lon="8.901678985749456"><ele>354.5</ele><time>2026-05-03T09:54:03Z</time></trkpt><trkpt lat="40.047519929036795" lon="8.901520008301043"><ele>352.0</ele><time>2026-05-03T09:54:04Z</time></trkpt><trkpt lat="40.04758002440313" lon="8.90137710806124"><ele>349.5</ele><time>2026-05-03T09:54:05Z</time></trkpt><trkpt lat="40.04764613256041" lon="8.901258551193768"><ele>347.0</ele><time>2026-05-03T09:54:06Z</time></trkpt><trkpt lat="40.04772049905005" lon="8.901142250128345"><ele>347.0</ele><time>2026-05-03T09:54:07Z</time></trkpt><trkpt lat="40.047797450214574" lon="8.901024013803339"><ele>347.0</ele><time>2026-05-03T09:54:08Z</time></trkpt><trkpt lat="40.04787238905764" lon="8.900882254485877"><ele>347.0</ele><time>2026-05-03T09:54:09Z</time></trkpt><trkpt lat="40.047937322119914" lon="8.900719978068063"><ele>347.0</ele><time>2026-05-03T09:54:10Z</time></trkpt><trkpt lat="40.04798945015318" lon="8.900555167882068"><ele>344.5</ele><time>2026-05-03T09:54:11Z</time></trkpt><trkpt lat="40.04804682053676" lon="8.9003983254672"><ele>342.0</ele><time>2026-05-03T09:54:12Z</time></trkpt><trkpt lat="40.04809955844782" lon="8.9002499299081"><ele>339.5</ele><time>2026-05-03T09:54:13Z</time></trkpt><trkpt lat="40.04815430449441" lon="8.900123677553847"><ele>337.0</ele><time>2026-05-03T09:54:14Z</time></trkpt><trkpt lat="40.04822418217541" lon="8.900009849791568"><ele>337.0</ele><time>2026-05-03T09:54:15Z</time></trkpt><trkpt lat="40.04830755996828" lon="8.899898538302052"><ele>337.0</ele><time>2026-05-03T09:54:16Z</time></trkpt><trkpt lat="40.04841254389455" lon="8.899795381513156"><ele>337.0</ele><time>2026-05-03T09:54:17Z</time></trkpt><trkpt lat="40.048538142192605" lon="8.899691589663199"><ele>337.0</ele><time>2026-05-03T09:54:18Z</time></trkpt><trkpt lat="40.04866111735425" lon="8.899598571830982"><ele>337.0</ele><time>2026-05-03T09:54:19Z</time></trkpt><trkpt lat="40.04876842489412" lon="8.899511783795123"><ele>337.0</ele><time>2026-05-03T09:54:20Z</time></trkpt><trkpt lat="40.04885761978579" lon="8.899421138103603"><ele>337.0</ele><time>2026-05-03T09:54:21Z</time></trkpt><trkpt lat="40.04892544435587" lon="8.89930286842213"><ele>337.0</ele><time>2026-05-03T09:54:22Z</time></trkpt><trkpt lat="40.04896668424753" lon="8.899162603348051"><ele>333.0</ele><time>2026-05-03T09:54:23Z</time></trkpt><trkpt lat="40.048985708852925" lon="8.898993925945822"><ele>329.0</ele><time>2026-05-03T09:54:24Z</time></trkpt><trkpt lat="40.04899388640249" lon="8.898804100389249"><ele>325.0</ele><time>2026-05-03T09:54:25Z</time></trkpt><trkpt lat="40.048999580646125" lon="8.898601315795522"><ele>321.0</ele><time>2026-05-03T09:54:26Z</time></trkpt><trkpt lat="40.04900743260374" lon="8.898388746998867"><ele>319.6666666666667</ele><time>2026-05-03T09:54:27Z</time></trkpt><trkpt lat="40.04901548966465" lon="8.89817910541495"><ele>318.33333333333337</ele><time>2026-05-03T09:54:28Z</time></trkpt><trkpt lat="40.049028199075856" lon="8.89796680289321"><ele>317.0</ele><time>2026-05-03T09:54:29Z</time></trkpt><trkpt lat="40.04903899690101" lon="8.897766318516345"><ele>317.33333333333337</ele><time>2026-05-03T09:54:30Z</time></trkpt><trkpt lat="40.04905783453381" lon="8.897569489013504"><ele>317.6666666666667</ele><time>2026-05-03T09:54:31Z</time></trkpt><trkpt lat="40.049090958887014" lon="8.897371245080011"><ele>318.0</ele><time>2026-05-03T09:54:32Z</time></trkpt><trkpt lat="40.049141442130036" lon="8.897178468089223"><ele>318.0</ele><time>2026-05-03T09:54:33Z</time></trkpt><trkpt lat="40.049206981655864" lon="8.897001397230625"><ele>318.0</ele><time>2026-05-03T09:54:34Z</time></trkpt><trkpt lat="40.04929031795288" lon="8.896820948050676"><ele>318.0</ele><time>2026-05-03T09:54:35Z</time></trkpt><trkpt lat="40.049398529420515" lon="8.896640432274364"><ele>314.6666666666667</ele><time>2026-05-03T09:54:36Z</time></trkpt><trkpt lat="40.049512854597324" lon="8.896459980982742"><ele>311.33333333333337</ele><time>2026-05-03T09:54:37Z</time></trkpt><trkpt lat="40.04962097316495" lon="8.89628812436142"><ele>308.0</ele><time>2026-05-03T09:54:38Z</time></trkpt><trkpt lat="40.0497172004131" lon="8.896132921249725"><ele>308.0</ele><time>2026-05-03T09:54:39Z</time></trkpt><trkpt lat="40.04980651305721" lon="8.895977976815333"><ele>308.0</ele><time>2026-05-03T09:54:40Z</time></trkpt><trkpt lat="40.04987439050876" lon="8.895832474403587"><ele>308.0</ele><time>2026-05-03T09:54:41Z</time></trkpt><trkpt lat="40.04991502293902" lon="8.895671891541399"><ele>308.0</ele><time>2026-05-03T09:54:42Z</time></trkpt><trkpt lat="40.04992808908821" lon="8.895509451144898"><ele>306.5</ele><time>2026-05-03T09:54:43Z</time></trkpt><trkpt lat="40.04991628698385" lon="8.895358144522287"><ele>305.0</ele><time>2026-05-03T09:54:44Z</time></trkpt><trkpt lat="40.04987186427588" lon="8.89520708576632"><ele>303.5</ele><time>2026-05-03T09:54:45Z</time></trkpt><trkpt lat="40.04979742178673" lon="8.895066107087485"><ele>302.0</ele><time>2026-05-03T09:54:46Z</time></trkpt><trkpt lat="40.049706866199024" lon="8.894941112184553"><ele>300.8</ele><time>2026-05-03T09:54:47Z</time></trkpt><trkpt lat="40.04962460193032" lon="8.894832738078854"><ele>299.6</ele><time>2026-05-03T09:54:48Z</time></trkpt><trkpt lat="40.049523040112355" lon="8.894781326930842"><ele>298.40000000000003</ele><time>2026-05-03T09:54:49Z</time></trkpt><trkpt lat="40.04941611019335" lon="8.894787383609842"><ele>297.2</ele><time>2026-05-03T09:54:50Z</time></trkpt><trkpt lat="40.04931385117492" lon="8.894853300293743"><ele>296.0</ele><time>2026-05-03T09:54:51Z</time></trkpt><trkpt lat="40.049217426415055" lon="8.894969852423863"><ele>296.0</ele><time>2026-05-03T09:54:52Z</time></trkpt><trkpt lat="40.04913920946444" lon="8.895085781794682"><ele>296.0</ele><time>2026-05-03T09:54:53Z</time></trkpt><trkpt lat="40.04907398935844" lon="8.895168788674429"><ele>296.0</ele><time>2026-05-03T09:54:54Z</time></trkpt><trkpt lat="40.04899298530025" lon="8.895159233575773"><ele>296.0</ele><time>2026-05-03T09:54:55Z</time></trkpt><trkpt lat="40.048904598552916" lon="8.895054272628014"><ele>296.0</ele><time>2026-05-03T09:54:57Z</time></trkpt><trkpt lat="40.04887522419551" lon="8.894949948955013"><ele>297.0</ele><time>2026-05-03T09:54:58Z</time></trkpt><trkpt lat="40.04890072185039" lon="8.894823770324262"><ele>298.0</ele><time>2026-05-03T09:54:59Z</time></trkpt><trkpt lat="40.048902258761544" lon="8.894664869896236"><ele>299.0</ele><time>2026-05-03T09:55:00Z</time></trkpt><trkpt lat="40.04890289348535" lon="8.894517359957625"><ele>300.0</ele><time>2026-05-03T09:55:01.001Z</time></trkpt><trkpt lat="40.04889497192309" lon="8.894355378265379"><ele>298.5</ele><time>2026-05-03T09:55:02.001Z</time></trkpt><trkpt lat="40.04884735012812" lon="8.894176985862396"><ele>297.0</ele><time>2026-05-03T09:55:03.001Z</time></trkpt><trkpt lat="40.04879029465748" lon="8.894018638531547"><ele>295.5</ele><time>2026-05-03T09:55:04.001Z</time></trkpt><trkpt lat="40.04874561647769" lon="8.893866641224728"><ele>294.0</ele><time>2026-05-03T09:55:05.001Z</time></trkpt><trkpt lat="40.048751486176975" lon="8.893712595187043"><ele>294.0</ele><time>2026-05-03T09:55:06.001Z</time></trkpt><trkpt lat="40.04879066033774" lon="8.893551087411195"><ele>294.0</ele><time>2026-05-03T09:55:07.001Z</time></trkpt><trkpt lat="40.048846921861966" lon="8.893377716300977"><ele>294.0</ele><time>2026-05-03T09:55:08.001Z</time></trkpt><trkpt lat="40.048882960879695" lon="8.893226312703597"><ele>294.0</ele><time>2026-05-03T09:55:09.001Z</time></trkpt><trkpt lat="40.04889810944506" lon="8.893081860866662"><ele>292.0</ele><time>2026-05-03T09:55:10.001Z</time></trkpt><trkpt lat="40.04885208686358" lon="8.892934249802712"><ele>290.0</ele><time>2026-05-03T09:55:11.001Z</time></trkpt><trkpt lat="40.04877298865102" lon="8.892783903199046"><ele>288.0</ele><time>2026-05-03T09:55:12.001Z</time></trkpt><trkpt lat="40.048695197352615" lon="8.892632657627166"><ele>286.0</ele><time>2026-05-03T09:55:13.001Z</time></trkpt><trkpt lat="40.04862801127601" lon="8.892519285421344"><ele>282.25</ele><time>2026-05-03T09:55:14.001Z</time></trkpt><trkpt lat="40.04854232742424" lon="8.892438561293643"><ele>278.5</ele><time>2026-05-03T09:55:15.001Z</time></trkpt><trkpt lat="40.04844082729321" lon="8.892409745622489"><ele>274.75</ele><time>2026-05-03T09:55:16.001Z</time></trkpt><trkpt lat="40.04832584120558" lon="8.8924572601954"><ele>271.0</ele><time>2026-05-03T09:55:17.001Z</time></trkpt><trkpt lat="40.04821790701238" lon="8.892561244301847"><ele>273.0</ele><time>2026-05-03T09:55:18.001Z</time></trkpt><trkpt lat="40.04809528735051" lon="8.892626953922303"><ele>275.0</ele><time>2026-05-03T09:55:19.001Z</time></trkpt><trkpt lat="40.047975156530235" lon="8.892730723092393"><ele>277.0</ele><time>2026-05-03T09:55:20.001Z</time></trkpt><trkpt lat="40.04783141759081" lon="8.89278758316866"><ele>279.0</ele><time>2026-05-03T09:55:21.001Z</time></trkpt><trkpt lat="40.047686801002165" lon="8.892804782741948"><ele>279.0</ele><time>2026-05-03T09:55:22.001Z</time></trkpt><trkpt lat="40.04752056125814" lon="8.892796668381663"><ele>279.0</ele><time>2026-05-03T09:55:23.001Z</time></trkpt><trkpt lat="40.04736950934837" lon="8.892780563670467"><ele>279.0</ele><time>2026-05-03T09:55:24.001Z</time></trkpt><trkpt lat="40.047235499413986" lon="8.892780224842138"><ele>273.75</ele><time>2026-05-03T09:55:25.001Z</time></trkpt><trkpt lat="40.047108632775156" lon="8.892765973700106"><ele>268.5</ele><time>2026-05-03T09:55:26.001Z</time></trkpt><trkpt lat="40.04697937677815" lon="8.892831516213292"><ele>263.25</ele><time>2026-05-03T09:55:27.001Z</time></trkpt><trkpt lat="40.046865925660384" lon="8.892973780147061"><ele>258.0</ele><time>2026-05-03T09:55:28.001Z</time></trkpt><trkpt lat="40.04674749332822" lon="8.893075621073121"><ele>258.0</ele><time>2026-05-03T09:55:29.001Z</time></trkpt><trkpt lat="40.046653099004736" lon="8.893189432365558"><ele>258.0</ele><time>2026-05-03T09:55:30.001Z</time></trkpt><trkpt lat="40.04658405053677" lon="8.893321261765305"><ele>258.0</ele><time>2026-05-03T09:55:31.001Z</time></trkpt><trkpt lat="40.04656456180599" lon="8.893482176049677"><ele>258.0</ele><time>2026-05-03T09:55:32.001Z</time></trkpt><trkpt lat="40.04654664276437" lon="8.893669324084033"><ele>256.5</ele><time>2026-05-03T09:55:33.001Z</time></trkpt><trkpt lat="40.04654005996443" lon="8.893839560018401"><ele>255.0</ele><time>2026-05-03T09:55:34.001Z</time></trkpt><trkpt lat="40.04651903803142" lon="8.893976500481443"><ele>253.5</ele><time>2026-05-03T09:55:35.001Z</time></trkpt><trkpt lat="40.04646294131488" lon="8.894092856508665"><ele>252.0</ele><time>2026-05-03T09:55:36.001Z</time></trkpt><trkpt lat="40.04636978526495" lon="8.894205677797364"><ele>256.5</ele><time>2026-05-03T09:55:37Z</time></trkpt><trkpt lat="40.046260565482726" lon="8.894331044407963"><ele>261.0</ele><time>2026-05-03T09:55:38Z</time></trkpt><trkpt lat="40.046150937240945" lon="8.894460193054265"><ele>265.5</ele><time>2026-05-03T09:55:39Z</time></trkpt><trkpt lat="40.046022335271225" lon="8.894530253141047"><ele>270.0</ele><time>2026-05-03T09:55:40Z</time></trkpt><trkpt lat="40.04592279756012" lon="8.894621174766629"><ele>270.0</ele><time>2026-05-03T09:55:41Z</time></trkpt><trkpt lat="40.04581915142438" lon="8.89468808814144"><ele>270.0</ele><time>2026-05-03T09:55:42Z</time></trkpt><trkpt lat="40.04576184166591" lon="8.894817525505994"><ele>270.0</ele><time>2026-05-03T09:55:43Z</time></trkpt><trkpt lat="40.045716709947314" lon="8.894937941112664"><ele>270.0</ele><time>2026-05-03T09:55:44Z</time></trkpt><trkpt lat="40.04567341042316" lon="8.89500951456987"><ele>270.0</ele><time>2026-05-03T09:55:45Z</time></trkpt><trkpt lat="40.045538239319534" lon="8.895014579373337"><ele>271.6</ele><time>2026-05-03T09:55:47Z</time></trkpt><trkpt lat="40.045450242726965" lon="8.894980493562551"><ele>273.2</ele><time>2026-05-03T09:55:48Z</time></trkpt><trkpt lat="40.04538910513076" lon="8.894951614663084"><ele>274.8</ele><time>2026-05-03T09:55:49Z</time></trkpt><trkpt lat="40.045322809931896" lon="8.894822341572368"><ele>276.4</ele><time>2026-05-03T09:55:51Z</time></trkpt><trkpt lat="40.04533737563292" lon="8.894699295062978"><ele>278.0</ele><time>2026-05-03T09:55:52Z</time></trkpt><trkpt lat="40.04535461963526" lon="8.894576904028"><ele>278.0</ele><time>2026-05-03T09:55:53Z</time></trkpt><trkpt lat="40.04538515007184" lon="8.894472164128514"><ele>278.0</ele><time>2026-05-03T09:55:54Z</time></trkpt><trkpt lat="40.045389154860096" lon="8.894344401022568"><ele>278.0</ele><time>2026-05-03T09:55:55Z</time></trkpt><trkpt lat="40.045403905258055" lon="8.894215297054133"><ele>278.0</ele><time>2026-05-03T09:55:56Z</time></trkpt><trkpt lat="40.04540747619035" lon="8.894089465651522"><ele>278.0</ele><time>2026-05-03T09:55:57Z</time></trkpt><trkpt lat="40.04540499626613" lon="8.893951229449563"><ele>274.75</ele><time>2026-05-03T09:55:58Z</time></trkpt><trkpt lat="40.0453522335962" lon="8.893806082758847"><ele>271.5</ele><time>2026-05-03T09:55:59Z</time></trkpt><trkpt lat="40.04528568501192" lon="8.893678461890527"><ele>268.25</ele><time>2026-05-03T09:56:00Z</time></trkpt><trkpt lat="40.045217095199185" lon="8.893554180993364"><ele>265.0</ele><time>2026-05-03T09:56:01Z</time></trkpt><trkpt lat="40.04515216525124" lon="8.893432309418163"><ele>262.0</ele><time>2026-05-03T09:56:02Z</time></trkpt><trkpt lat="40.04508833777658" lon="8.893318882408757"><ele>259.0</ele><time>2026-05-03T09:56:03Z</time></trkpt><trkpt lat="40.04506887597187" lon="8.893157245953937"><ele>256.0</ele><time>2026-05-03T09:56:04Z</time></trkpt><trkpt lat="40.04507551689179" lon="8.892984442941662"><ele>253.0</ele><time>2026-05-03T09:56:05Z</time></trkpt><trkpt lat="40.045100997938015" lon="8.892795913852927"><ele>252.0</ele><time>2026-05-03T09:56:06Z</time></trkpt><trkpt lat="40.04516264353771" lon="8.89257367935374"><ele>251.0</ele><time>2026-05-03T09:56:07Z</time></trkpt><trkpt lat="40.04521159149224" lon="8.89233157933637"><ele>250.0</ele><time>2026-05-03T09:56:08Z</time></trkpt><trkpt lat="40.045262484410024" lon="8.892075650034153"><ele>250.0</ele><time>2026-05-03T09:56:09Z</time></trkpt><trkpt lat="40.04531204682704" lon="8.89179159141292"><ele>250.0</ele><time>2026-05-03T09:56:10Z</time></trkpt><trkpt lat="40.04537102612694" lon="8.891538160352306"><ele>250.0</ele><time>2026-05-03T09:56:11Z</time></trkpt><trkpt lat="40.04541841127705" lon="8.891290372873833"><ele>251.0</ele><time>2026-05-03T09:56:12Z</time></trkpt><trkpt lat="40.0454600531376" lon="8.891057718099491"><ele>252.0</ele><time>2026-05-03T09:56:13Z</time></trkpt><trkpt lat="40.04549606431473" lon="8.890840203504245"><ele>253.0</ele><time>2026-05-03T09:56:14Z</time></trkpt><trkpt lat="40.04552770217878" lon="8.890633843535124"><ele>255.75</ele><time>2026-05-03T09:56:15Z</time></trkpt><trkpt lat="40.045558227370314" lon="8.890437490559929"><ele>258.5</ele><time>2026-05-03T09:56:16Z</time></trkpt><trkpt lat="40.04560259391642" lon="8.890256199966817"><ele>261.25</ele><time>2026-05-03T09:56:17Z</time></trkpt><trkpt lat="40.04567092173096" lon="8.89009344335281"><ele>264.0</ele><time>2026-05-03T09:56:18Z</time></trkpt><trkpt lat="40.045764279091095" lon="8.88992947519022"><ele>256.0</ele><time>2026-05-03T09:56:19Z</time></trkpt><trkpt lat="40.04585653094072" lon="8.889778807373743"><ele>248.0</ele><time>2026-05-03T09:56:20Z</time></trkpt><trkpt lat="40.04593369022304" lon="8.889646178657452"><ele>240.0</ele><time>2026-05-03T09:56:21Z</time></trkpt><trkpt lat="40.045993235783634" lon="8.889522637423369"><ele>232.0</ele><time>2026-05-03T09:56:22Z</time></trkpt><trkpt lat="40.04604385398077" lon="8.889406351017067"><ele>232.0</ele><time>2026-05-03T09:56:23Z</time></trkpt><trkpt lat="40.04603750718023" lon="8.88926459421321"><ele>232.0</ele><time>2026-05-03T09:56:24Z</time></trkpt><trkpt lat="40.0459661188881" lon="8.889114845417815"><ele>232.0</ele><time>2026-05-03T09:56:25Z</time></trkpt><trkpt lat="40.04588652367105" lon="8.888948432793812"><ele>232.0</ele><time>2026-05-03T09:56:26Z</time></trkpt><trkpt lat="40.045797542221486" lon="8.88877012078042"><ele>235.66666666666666</ele><time>2026-05-03T09:56:27Z</time></trkpt><trkpt lat="40.04570050944322" lon="8.888581822239734"><ele>239.33333333333331</ele><time>2026-05-03T09:56:28Z</time></trkpt><trkpt lat="40.04560807918698" lon="8.888399354612249"><ele>243.0</ele><time>2026-05-03T09:56:29Z</time></trkpt><trkpt lat="40.04550874668913" lon="8.88819456307298"><ele>243.0</ele><time>2026-05-03T09:56:30Z</time></trkpt><trkpt lat="40.04540944951836" lon="8.88798620001263"><ele>243.0</ele><time>2026-05-03T09:56:31Z</time></trkpt><trkpt lat="40.04531410754676" lon="8.887783411801225"><ele>243.0</ele><time>2026-05-03T09:56:32Z</time></trkpt><trkpt lat="40.04521917886655" lon="8.887586620695885"><ele>238.33333333333331</ele><time>2026-05-03T09:56:33Z</time></trkpt><trkpt lat="40.04512730701698" lon="8.88739917868958"><ele>233.66666666666666</ele><time>2026-05-03T09:56:34Z</time></trkpt><trkpt lat="40.04504212601319" lon="8.88721369233516"><ele>229.0</ele><time>2026-05-03T09:56:35Z</time></trkpt><trkpt lat="40.04496852161036" lon="8.887027207540982"><ele>230.33333333333331</ele><time>2026-05-03T09:56:36Z</time></trkpt><trkpt lat="40.04490455385343" lon="8.886840168892721"><ele>231.66666666666669</ele><time>2026-05-03T09:56:37Z</time></trkpt><trkpt lat="40.04484870003119" lon="8.886651505061561"><ele>233.0</ele><time>2026-05-03T09:56:38Z</time></trkpt><trkpt lat="40.044800398272606" lon="8.886458358959434"><ele>233.0</ele><time>2026-05-03T09:56:39Z</time></trkpt><trkpt lat="40.04475968592515" lon="8.886249442838576"><ele>233.0</ele><time>2026-05-03T09:56:40Z</time></trkpt><trkpt lat="40.04472736232297" lon="8.886025243124315"><ele>233.0</ele><time>2026-05-03T09:56:41Z</time></trkpt><trkpt lat="40.044708880752076" lon="8.885792634707148"><ele>232.0</ele><time>2026-05-03T09:56:42Z</time></trkpt><trkpt lat="40.044698907771284" lon="8.88556957201204"><ele>231.0</ele><time>2026-05-03T09:56:43Z</time></trkpt><trkpt lat="40.04469507196872" lon="8.885351689364967"><ele>230.0</ele><time>2026-05-03T09:56:44Z</time></trkpt><trkpt lat="40.044702865065815" lon="8.885130867007227"><ele>232.0</ele><time>2026-05-03T09:56:45Z</time></trkpt><trkpt lat="40.04472153232105" lon="8.884914892164893"><ele>234.0</ele><time>2026-05-03T09:56:46Z</time></trkpt><trkpt lat="40.0447568764961" lon="8.884687930246386"><ele>236.0</ele><time>2026-05-03T09:56:47Z</time></trkpt><trkpt lat="40.04480219133139" lon="8.884464921421896"><ele>235.0</ele><time>2026-05-03T09:56:48Z</time></trkpt><trkpt lat="40.04486121283771" lon="8.884235257375458"><ele>234.0</ele><time>2026-05-03T09:56:49Z</time></trkpt><trkpt lat="40.04494340780314" lon="8.8840006281161"><ele>233.0</ele><time>2026-05-03T09:56:50Z</time></trkpt><trkpt lat="40.04503192022588" lon="8.883783760264432"><ele>222.0</ele><time>2026-05-03T09:56:51Z</time></trkpt><trkpt lat="40.04511980281895" lon="8.883562247200523"><ele>211.0</ele><time>2026-05-03T09:56:52Z</time></trkpt><trkpt lat="40.045228467090546" lon="8.883342004333578"><ele>200.0</ele><time>2026-05-03T09:56:53Z</time></trkpt><trkpt lat="40.04536364094304" lon="8.883117256561482"><ele>199.5</ele><time>2026-05-03T09:56:54Z</time></trkpt><trkpt lat="40.045516616768055" lon="8.882889814444646"><ele>199.0</ele><time>2026-05-03T09:56:55Z</time></trkpt><trkpt lat="40.04568075596452" lon="8.88265551920973"><ele>191.0</ele><time>2026-05-03T09:56:56Z</time></trkpt><trkpt lat="40.045849327060125" lon="8.8824136439157"><ele>183.0</ele><time>2026-05-03T09:56:57.001Z</time></trkpt><trkpt lat="40.04601851609228" lon="8.882169208530446"><ele>183.0</ele><time>2026-05-03T09:56:58.001Z</time></trkpt><trkpt lat="40.04618846556878" lon="8.881926270742705"><ele>183.0</ele><time>2026-05-03T09:56:59.001Z</time></trkpt><trkpt lat="40.0463595455135" lon="8.881683643334156"><ele>176.0</ele><time>2026-05-03T09:57:00.001Z</time></trkpt><trkpt lat="40.04653020141124" lon="8.881439891275711"><ele>169.0</ele><time>2026-05-03T09:57:01.001Z</time></trkpt><trkpt lat="40.04669780925816" lon="8.881199878651147"><ele>169.0</ele><time>2026-05-03T09:57:02.001Z</time></trkpt><trkpt lat="40.04686756572109" lon="8.880961338436098"><ele>169.0</ele><time>2026-05-03T09:57:03.001Z</time></trkpt><trkpt lat="40.04703413101263" lon="8.880725887173721"><ele>178.5</ele><time>2026-05-03T09:57:04.001Z</time></trkpt><trkpt lat="40.047199674552274" lon="8.880490850652546"><ele>188.0</ele><time>2026-05-03T09:57:05.001Z</time></trkpt><trkpt lat="40.04736366571973" lon="8.880258400761882"><ele>178.5</ele><time>2026-05-03T09:57:06.001Z</time></trkpt><trkpt lat="40.04752989129073" lon="8.880022616437376"><ele>169.0</ele><time>2026-05-03T09:57:07.001Z</time></trkpt><trkpt lat="40.04769820432649" lon="8.879782572496307"><ele>169.0</ele><time>2026-05-03T09:57:08.001Z</time></trkpt><trkpt lat="40.04787026955693" lon="8.87953562824283"><ele>169.0</ele><time>2026-05-03T09:57:09.001Z</time></trkpt><trkpt lat="40.04804251351075" lon="8.87929372498049"><ele>178.5</ele><time>2026-05-03T09:57:10.001Z</time></trkpt><trkpt lat="40.048221688461986" lon="8.879041775315441"><ele>188.0</ele><time>2026-05-03T09:57:11.001Z</time></trkpt><trkpt lat="40.048397088371594" lon="8.878795581911328"><ele>173.5</ele><time>2026-05-03T09:57:12.001Z</time></trkpt><trkpt lat="40.048565337008206" lon="8.878557139074926"><ele>159.0</ele><time>2026-05-03T09:57:13.001Z</time></trkpt><trkpt lat="40.04872836009478" lon="8.878322877992924"><ele>159.0</ele><time>2026-05-03T09:57:14.001Z</time></trkpt><trkpt lat="40.04889617353407" lon="8.87808345709416"><ele>159.0</ele><time>2026-05-03T09:57:15.001Z</time></trkpt><trkpt lat="40.04906118832215" lon="8.877848587405397"><ele>152.5</ele><time>2026-05-03T09:57:16.001Z</time></trkpt><trkpt lat="40.049216632867726" lon="8.877617668035729"><ele>146.0</ele><time>2026-05-03T09:57:17.001Z</time></trkpt><trkpt lat="40.0493665702843" lon="8.877400128741444"><ele>146.0</ele><time>2026-05-03T09:57:18.001Z</time></trkpt><trkpt lat="40.04951367049233" lon="8.877197975992203"><ele>146.0</ele><time>2026-05-03T09:57:19.001Z</time></trkpt><trkpt lat="40.04966741396952" lon="8.8770071480975"><ele>146.0</ele><time>2026-05-03T09:57:20.001Z</time></trkpt><trkpt lat="40.04983664547046" lon="8.876831772379335"><ele>141.5</ele><time>2026-05-03T09:57:21.001Z</time></trkpt><trkpt lat="40.05002833861844" lon="8.876668261746328"><ele>137.0</ele><time>2026-05-03T09:57:22.001Z</time></trkpt><trkpt lat="40.050241550263344" lon="8.876512501663393"><ele>137.0</ele><time>2026-05-03T09:57:23.001Z</time></trkpt><trkpt lat="40.05046546633155" lon="8.876366779359527"><ele>137.0</ele><time>2026-05-03T09:57:24.001Z</time></trkpt><trkpt lat="40.050670324253076" lon="8.876236575754142"><ele>136.33333333333331</ele><time>2026-05-03T09:57:25.001Z</time></trkpt><trkpt lat="40.05086324299254" lon="8.876108877115419"><ele>135.66666666666666</ele><time>2026-05-03T09:57:26.001Z</time></trkpt><trkpt lat="40.05103731488404" lon="8.87599023992723"><ele>135.0</ele><time>2026-05-03T09:57:27.001Z</time></trkpt><trkpt lat="40.05118635219747" lon="8.875855545723182"><ele>135.0</ele><time>2026-05-03T09:57:28.001Z</time></trkpt><trkpt lat="40.05131473109168" lon="8.875696225559672"><ele>135.0</ele><time>2026-05-03T09:57:29.001Z</time></trkpt><trkpt lat="40.0514154617502" lon="8.875509289530239"><ele>135.0</ele><time>2026-05-03T09:57:30.001Z</time></trkpt><trkpt lat="40.05149271892245" lon="8.875292013971318"><ele>142.0</ele><time>2026-05-03T09:57:31.001Z</time></trkpt><trkpt lat="40.05154558614178" lon="8.875058695150248"><ele>149.0</ele><time>2026-05-03T09:57:32.001Z</time></trkpt><trkpt lat="40.05157058827307" lon="8.874816304210214"><ele>156.0</ele><time>2026-05-03T09:57:33.001Z</time></trkpt><trkpt lat="40.05157149287371" lon="8.874558602440624"><ele>156.0</ele><time>2026-05-03T09:57:34.001Z</time></trkpt><trkpt lat="40.051558031745834" lon="8.87430003378929"><ele>156.0</ele><time>2026-05-03T09:57:35.001Z</time></trkpt><trkpt lat="40.05154075829013" lon="8.87404334356174"><ele>156.0</ele><time>2026-05-03T09:57:36.001Z</time></trkpt><trkpt lat="40.05152318269836" lon="8.873785929556753"><ele>154.0</ele><time>2026-05-03T09:57:37.001Z</time></trkpt><trkpt lat="40.051503854796955" lon="8.873530016473461"><ele>152.0</ele><time>2026-05-03T09:57:38.001Z</time></trkpt><trkpt lat="40.0514833871123" lon="8.873267338975047"><ele>150.0</ele><time>2026-05-03T09:57:39.001Z</time></trkpt><trkpt lat="40.05146303250299" lon="8.873006748010027"><ele>145.0</ele><time>2026-05-03T09:57:40.001Z</time></trkpt><trkpt lat="40.05144444004984" lon="8.872743347702343"><ele>140.0</ele><time>2026-05-03T09:57:41.001Z</time></trkpt><trkpt lat="40.051425260778856" lon="8.872480884761005"><ele>135.0</ele><time>2026-05-03T09:57:42.001Z</time></trkpt><trkpt lat="40.0514056204264" lon="8.872215619196"><ele>130.66666666666666</ele><time>2026-05-03T09:57:43Z</time></trkpt><trkpt lat="40.0513870089501" lon="8.871940417711519"><ele>126.33333333333333</ele><time>2026-05-03T09:57:44Z</time></trkpt><trkpt lat="40.051368517574815" lon="8.871650054273848"><ele>122.0</ele><time>2026-05-03T09:57:45Z</time></trkpt><trkpt lat="40.05134918362484" lon="8.871339155754562"><ele>113.0</ele><time>2026-05-03T09:57:46Z</time></trkpt><trkpt lat="40.051325311932025" lon="8.87101104831806"><ele>104.0</ele><time>2026-05-03T09:57:47Z</time></trkpt><trkpt lat="40.05130082102595" lon="8.870668020756595"><ele>99.0</ele><time>2026-05-03T09:57:48Z</time></trkpt><trkpt lat="40.051276404764124" lon="8.870313446742433"><ele>94.0</ele><time>2026-05-03T09:57:49Z</time></trkpt><trkpt lat="40.0512533655182" lon="8.869961959278926"><ele>93.5</ele><time>2026-05-03T09:57:50Z</time></trkpt><trkpt lat="40.051230951602236" lon="8.869622717364539"><ele>93.0</ele><time>2026-05-03T09:57:51Z</time></trkpt><trkpt lat="40.051208910250544" lon="8.869290420257375"><ele>97.5</ele><time>2026-05-03T09:57:52Z</time></trkpt><trkpt lat="40.05118520975328" lon="8.868959574124561"><ele>102.0</ele><time>2026-05-03T09:57:53Z</time></trkpt><trkpt lat="40.05116126628689" lon="8.868658027159114"><ele>107.66666666666666</ele><time>2026-05-03T09:57:54Z</time></trkpt><trkpt lat="40.05114265510324" lon="8.868380299833229"><ele>113.33333333333333</ele><time>2026-05-03T09:57:55Z</time></trkpt><trkpt lat="40.05111995885396" lon="8.868117993105331"><ele>119.0</ele><time>2026-05-03T09:57:56Z</time></trkpt><trkpt lat="40.05108736926844" lon="8.86787618311456"><ele>119.0</ele><time>2026-05-03T09:57:57Z</time></trkpt><trkpt lat="40.051046713067514" lon="8.86765551878373"><ele>119.0</ele><time>2026-05-03T09:57:58Z</time></trkpt><trkpt lat="40.05099674197141" lon="8.867460424806838"><ele>119.0</ele><time>2026-05-03T09:57:59Z</time></trkpt><trkpt lat="40.05093043633382" lon="8.867278409209911"><ele>122.0</ele><time>2026-05-03T09:58:00Z</time></trkpt><trkpt lat="40.05084873899658" lon="8.867110244887032"><ele>125.0</ele><time>2026-05-03T09:58:01Z</time></trkpt><trkpt lat="40.050758816214724" lon="8.866974511118695"><ele>128.0</ele><time>2026-05-03T09:58:02Z</time></trkpt><trkpt lat="40.05066134575423" lon="8.866868958625442"><ele>131.0</ele><time>2026-05-03T09:58:03Z</time></trkpt><trkpt lat="40.050546120094076" lon="8.866776775942418"><ele>131.66666666666666</ele><time>2026-05-03T09:58:04Z</time></trkpt><trkpt lat="40.050413279535775" lon="8.866688756130044"><ele>132.33333333333334</ele><time>2026-05-03T09:58:05Z</time></trkpt><trkpt lat="40.05026357702209" lon="8.866608780140004"><ele>133.0</ele><time>2026-05-03T09:58:06Z</time></trkpt><trkpt lat="40.05009680229616" lon="8.866526170138322"><ele>128.66666666666669</ele><time>2026-05-03T09:58:07Z</time></trkpt><trkpt lat="40.04993826142964" lon="8.86644868689969"><ele>124.33333333333334</ele><time>2026-05-03T09:58:08Z</time></trkpt><trkpt lat="40.04976813440139" lon="8.866370126534678"><ele>120.0</ele><time>2026-05-03T09:58:09Z</time></trkpt><trkpt lat="40.04958477987737" lon="8.866295731568236"><ele>120.0</ele><time>2026-05-03T09:58:10Z</time></trkpt><trkpt lat="40.04941533550154" lon="8.866241233334156"><ele>120.0</ele><time>2026-05-03T09:58:11Z</time></trkpt><trkpt lat="40.04926650981834" lon="8.86618419832828"><ele>120.0</ele><time>2026-05-03T09:58:12Z</time></trkpt><trkpt lat="40.049127513417304" lon="8.866103526717525"><ele>120.75</ele><time>2026-05-03T09:58:13Z</time></trkpt><trkpt lat="40.049018066464264" lon="8.865997098873356"><ele>121.5</ele><time>2026-05-03T09:58:14Z</time></trkpt><trkpt lat="40.04892557854228" lon="8.86585204812704"><ele>122.25</ele><time>2026-05-03T09:58:15Z</time></trkpt><trkpt lat="40.048841754173075" lon="8.865673033881716"><ele>123.0</ele><time>2026-05-03T09:58:16Z</time></trkpt><trkpt lat="40.04875569903048" lon="8.865476798080529"><ele>123.0</ele><time>2026-05-03T09:58:17Z</time></trkpt><trkpt lat="40.04866098230468" lon="8.865264984863243"><ele>123.0</ele><time>2026-05-03T09:58:18Z</time></trkpt><trkpt lat="40.04857428989903" lon="8.86506736955818"><ele>123.0</ele><time>2026-05-03T09:58:19Z</time></trkpt><trkpt lat="40.048506524013" lon="8.864845588565203"><ele>127.66666666666666</ele><time>2026-05-03T09:58:20Z</time></trkpt><trkpt lat="40.04844646759884" lon="8.86460837654826"><ele>132.33333333333331</ele><time>2026-05-03T09:58:21Z</time></trkpt><trkpt lat="40.048390637690574" lon="8.864370933169043"><ele>137.0</ele><time>2026-05-03T09:58:22Z</time></trkpt><trkpt lat="40.04831931813918" lon="8.86413785119763"><ele>134.33333333333331</ele><time>2026-05-03T09:58:23Z</time></trkpt><trkpt lat="40.04823939865877" lon="8.863897311081967"><ele>131.66666666666666</ele><time>2026-05-03T09:58:24Z</time></trkpt><trkpt lat="40.04810906953459" lon="8.863679969529874"><ele>129.0</ele><time>2026-05-03T09:58:25Z</time></trkpt><trkpt lat="40.04797653701228" lon="8.863448078082053"><ele>137.33333333333334</ele><time>2026-05-03T09:58:26Z</time></trkpt><trkpt lat="40.04783851006154" lon="8.86322445539561"><ele>145.66666666666669</ele><time>2026-05-03T09:58:27Z</time></trkpt><trkpt lat="40.04771224670059" lon="8.863013314478472"><ele>154.0</ele><time>2026-05-03T09:58:28Z</time></trkpt><trkpt lat="40.047582406935355" lon="8.862802854194548"><ele>153.0</ele><time>2026-05-03T09:58:29Z</time></trkpt><trkpt lat="40.047417135707015" lon="8.862507266672448"><ele>152.0</ele><time>2026-05-03T09:58:30Z</time></trkpt><trkpt lat="40.047268866978044" lon="8.862262861043119"><ele>152.0</ele><time>2026-05-03T09:58:31Z</time></trkpt><trkpt lat="40.047116613486466" lon="8.862021077428295"><ele>152.0</ele><time>2026-05-03T09:58:32Z</time></trkpt><trkpt lat="40.046969344424745" lon="8.861796609409268"><ele>154.33333333333331</ele><time>2026-05-03T09:58:33Z</time></trkpt><trkpt lat="40.04683040628579" lon="8.861600337498562"><ele>156.66666666666666</ele><time>2026-05-03T09:58:34Z</time></trkpt><trkpt lat="40.046701267851404" lon="8.861411007918495"><ele>159.0</ele><time>2026-05-03T09:58:35Z</time></trkpt><trkpt lat="40.04658168997425" lon="8.861231649432536"><ele>159.0</ele><time>2026-05-03T09:58:36Z</time></trkpt><trkpt lat="40.04646680905095" lon="8.861080602000275"><ele>159.0</ele><time>2026-05-03T09:58:37Z</time></trkpt><trkpt lat="40.04633699500865" lon="8.860950320105271"><ele>159.0</ele><time>2026-05-03T09:58:38Z</time></trkpt><trkpt lat="40.04620128114449" lon="8.860875102579849"><ele>166.66666666666666</ele><time>2026-05-03T09:58:39Z</time></trkpt><trkpt lat="40.04604700146509" lon="8.860831891283116"><ele>174.33333333333331</ele><time>2026-05-03T09:58:40Z</time></trkpt><trkpt lat="40.04587810595428" lon="8.86082867048358"><ele>182.0</ele><time>2026-05-03T09:58:41Z</time></trkpt><trkpt lat="40.045709500064504" lon="8.86087663548443"><ele>176.66666666666666</ele><time>2026-05-03T09:58:42Z</time></trkpt><trkpt lat="40.04552473539166" lon="8.860959282532194"><ele>171.33333333333334</ele><time>2026-05-03T09:58:43Z</time></trkpt><trkpt lat="40.045313822314526" lon="8.861055516974238"><ele>166.0</ele><time>2026-05-03T09:58:44Z</time></trkpt><trkpt lat="40.04510237251573" lon="8.861147497509199"><ele>167.0</ele><time>2026-05-03T09:58:45Z</time></trkpt><trkpt lat="40.044905530927934" lon="8.861241661069919"><ele>168.0</ele><time>2026-05-03T09:58:46Z</time></trkpt><trkpt lat="40.04473494344184" lon="8.861314056912818"><ele>169.0</ele><time>2026-05-03T09:58:47Z</time></trkpt><trkpt lat="40.04457424663978" lon="8.86132420491959"><ele>169.0</ele><time>2026-05-03T09:58:48Z</time></trkpt><trkpt lat="40.0444273049908" lon="8.861274638995946"><ele>169.0</ele><time>2026-05-03T09:58:49Z</time></trkpt><trkpt lat="40.044253129935505" lon="8.861215599700587"><ele>169.0</ele><time>2026-05-03T09:58:50Z</time></trkpt><trkpt lat="40.044060911917406" lon="8.861149984606033"><ele>164.33333333333334</ele><time>2026-05-03T09:58:51Z</time></trkpt><trkpt lat="40.04386636161472" lon="8.861082453145222"><ele>159.66666666666666</ele><time>2026-05-03T09:58:52Z</time></trkpt><trkpt lat="40.043673106761474" lon="8.861015371580121"><ele>155.0</ele><time>2026-05-03T09:58:53Z</time></trkpt><trkpt lat="40.04349059744258" lon="8.860944742736987"><ele>158.33333333333331</ele><time>2026-05-03T09:58:54Z</time></trkpt><trkpt lat="40.043323181480474" lon="8.860856372282457"><ele>161.66666666666666</ele><time>2026-05-03T09:58:55Z</time></trkpt><trkpt lat="40.043171658785255" lon="8.86073893373616"><ele>165.0</ele><time>2026-05-03T09:58:56Z</time></trkpt><trkpt lat="40.04303396433591" lon="8.860610190797662"><ele>165.0</ele><time>2026-05-03T09:58:57Z</time></trkpt><trkpt lat="40.042910319825694" lon="8.860460345696916"><ele>165.0</ele><time>2026-05-03T09:58:58Z</time></trkpt><trkpt lat="40.04283118501991" lon="8.86028435531469"><ele>165.0</ele><time>2026-05-03T09:58:59Z</time></trkpt><trkpt lat="40.04275749479121" lon="8.860092350402287"><ele>171.66666666666666</ele><time>2026-05-03T09:59:00Z</time></trkpt><trkpt lat="40.042702878890765" lon="8.859877691666895"><ele>178.33333333333331</ele><time>2026-05-03T09:59:01.001Z</time></trkpt><trkpt lat="40.04267065850588" lon="8.859652014556161"><ele>185.0</ele><time>2026-05-03T09:59:02.001Z</time></trkpt><trkpt lat="40.042665437321844" lon="8.859408978060628"><ele>187.33333333333331</ele><time>2026-05-03T09:59:03.001Z</time></trkpt><trkpt lat="40.042664505772215" lon="8.85914502891577"><ele>189.66666666666666</ele><time>2026-05-03T09:59:04.001Z</time></trkpt><trkpt lat="40.04263839760242" lon="8.85887585898787"><ele>192.0</ele><time>2026-05-03T09:59:05.001Z</time></trkpt><trkpt lat="40.04264382584791" lon="8.85861400919379"><ele>193.66666666666669</ele><time>2026-05-03T09:59:06.001Z</time></trkpt><trkpt lat="40.04264783548447" lon="8.858364281397089"><ele>195.33333333333334</ele><time>2026-05-03T09:59:07.001Z</time></trkpt><trkpt lat="40.04265039525869" lon="8.858142975799257"><ele>197.0</ele><time>2026-05-03T09:59:08.001Z</time></trkpt><trkpt lat="40.04265325353926" lon="8.85794115054367"><ele>197.0</ele><time>2026-05-03T09:59:09.001Z</time></trkpt><trkpt lat="40.042658204029124" lon="8.857756161765302"><ele>197.0</ele><time>2026-05-03T09:59:10.001Z</time></trkpt><trkpt lat="40.04267167833375" lon="8.857570124248811"><ele>197.0</ele><time>2026-05-03T09:59:11.001Z</time></trkpt><trkpt lat="40.04274052551568" lon="8.85739144447693"><ele>197.0</ele><time>2026-05-03T09:59:12.001Z</time></trkpt><trkpt lat="40.04282724535812" lon="8.857234622782315"><ele>199.0</ele><time>2026-05-03T09:59:13.001Z</time></trkpt><trkpt lat="40.042929085233105" lon="8.857098892953024"><ele>201.0</ele><time>2026-05-03T09:59:14.001Z</time></trkpt><trkpt lat="40.04304726502314" lon="8.8569729417554"><ele>203.0</ele><time>2026-05-03T09:59:15.001Z</time></trkpt><trkpt lat="40.04317645680645" lon="8.856860125031211"><ele>207.66666666666669</ele><time>2026-05-03T09:59:16.001Z</time></trkpt><trkpt lat="40.043310499648285" lon="8.856798792941394"><ele>212.33333333333331</ele><time>2026-05-03T09:59:17.001Z</time></trkpt><trkpt lat="40.04345977344744" lon="8.856741948365784"><ele>217.0</ele><time>2026-05-03T09:59:18.001Z</time></trkpt><trkpt lat="40.0436202576091" lon="8.856673320998022"><ele>218.0</ele><time>2026-05-03T09:59:19.001Z</time></trkpt><trkpt lat="40.04379030560612" lon="8.856630135039257"><ele>219.0</ele><time>2026-05-03T09:59:20.001Z</time></trkpt><trkpt lat="40.04396935873864" lon="8.856580962051796"><ele>220.0</ele><time>2026-05-03T09:59:21.001Z</time></trkpt><trkpt lat="40.04414892103293" lon="8.856505534899433"><ele>220.0</ele><time>2026-05-03T09:59:22.001Z</time></trkpt><trkpt lat="40.044320058031644" lon="8.856394792306833"><ele>220.0</ele><time>2026-05-03T09:59:23.001Z</time></trkpt><trkpt lat="40.04445999375991" lon="8.856253283425579"><ele>220.0</ele><time>2026-05-03T09:59:24.001Z</time></trkpt><trkpt lat="40.044580413557895" lon="8.856074750621936"><ele>220.33333333333331</ele><time>2026-05-03T09:59:25.001Z</time></trkpt><trkpt lat="40.04467261150079" lon="8.855872631996242"><ele>220.66666666666669</ele><time>2026-05-03T09:59:26.001Z</time></trkpt><trkpt lat="40.04474360125078" lon="8.855645453236463"><ele>221.0</ele><time>2026-05-03T09:59:27.001Z</time></trkpt><trkpt lat="40.044788919047825" lon="8.85539633724224"><ele>221.0</ele><time>2026-05-03T09:59:28.001Z</time></trkpt><trkpt lat="40.044815154538234" lon="8.85512508283222"><ele>221.0</ele><time>2026-05-03T09:59:29.001Z</time></trkpt><trkpt lat="40.04484879555569" lon="8.85484470090389"><ele>221.0</ele><time>2026-05-03T09:59:30.001Z</time></trkpt><trkpt lat="40.04488765634102" lon="8.854547002567038"><ele>221.0</ele><time>2026-05-03T09:59:31.001Z</time></trkpt><trkpt lat="40.04492962263146" lon="8.854272317592033"><ele>221.0</ele><time>2026-05-03T09:59:32.001Z</time></trkpt><trkpt lat="40.044972215087675" lon="8.853997927086672"><ele>221.0</ele><time>2026-05-03T09:59:33.001Z</time></trkpt><trkpt lat="40.04501744052501" lon="8.853717013333613"><ele>221.66666666666669</ele><time>2026-05-03T09:59:34.001Z</time></trkpt><trkpt lat="40.045060866350546" lon="8.853438789087901"><ele>222.33333333333331</ele><time>2026-05-03T09:59:35.001Z</time></trkpt><trkpt lat="40.04510670861229" lon="8.853161787320314"><ele>223.0</ele><time>2026-05-03T09:59:36.001Z</time></trkpt><trkpt lat="40.04515397410016" lon="8.852878823673134"><ele>222.66666666666666</ele><time>2026-05-03T09:59:37.001Z</time></trkpt><trkpt lat="40.04519830602066" lon="8.852597874088266"><ele>222.33333333333331</ele><time>2026-05-03T09:59:38.001Z</time></trkpt><trkpt lat="40.04524109695737" lon="8.852313600558197"><ele>222.0</ele><time>2026-05-03T09:59:39.001Z</time></trkpt><trkpt lat="40.045285248372295" lon="8.852025135245688"><ele>222.33333333333331</ele><time>2026-05-03T09:59:40.001Z</time></trkpt><trkpt lat="40.045331475626874" lon="8.851738953842636"><ele>222.66666666666666</ele><time>2026-05-03T09:59:41.001Z</time></trkpt><trkpt lat="40.04537838402145" lon="8.851453810701178"><ele>223.0</ele><time>2026-05-03T09:59:42.001Z</time></trkpt><trkpt lat="40.0454302795634" lon="8.851161667496319"><ele>223.0</ele><time>2026-05-03T09:59:43.001Z</time></trkpt><trkpt lat="40.04547681022626" lon="8.850868863501137"><ele>223.0</ele><time>2026-05-03T09:59:44.001Z</time></trkpt><trkpt lat="40.045523536930375" lon="8.850573310665391"><ele>223.0</ele><time>2026-05-03T09:59:45.001Z</time></trkpt><trkpt lat="40.04557227632676" lon="8.850273209023213"><ele>223.0</ele><time>2026-05-03T09:59:46.001Z</time></trkpt><trkpt lat="40.04562305846894" lon="8.849974137356279"><ele>222.5</ele><time>2026-05-03T09:59:47.001Z</time></trkpt><trkpt lat="40.04567460794774" lon="8.849682992038577"><ele>222.0</ele><time>2026-05-03T09:59:48.001Z</time></trkpt><trkpt lat="40.045728208764864" lon="8.849375705106876"><ele>222.0</ele><time>2026-05-03T09:59:49Z</time></trkpt><trkpt lat="40.04577470251748" lon="8.849068957584931"><ele>222.0</ele><time>2026-05-03T09:59:50Z</time></trkpt><trkpt lat="40.04582065393188" lon="8.848761275141111"><ele>222.0</ele><time>2026-05-03T09:59:51Z</time></trkpt><trkpt lat="40.04587595343272" lon="8.848434413284233"><ele>222.0</ele><time>2026-05-03T09:59:52Z</time></trkpt><trkpt lat="40.04592618461817" lon="8.848109331342611"><ele>222.0</ele><time>2026-05-03T09:59:53Z</time></trkpt><trkpt lat="40.04597887206389" lon="8.847814426263716"><ele>222.0</ele><time>2026-05-03T09:59:54Z</time></trkpt><trkpt lat="40.04602697091329" lon="8.847542680447019"><ele>222.0</ele><time>2026-05-03T09:59:55Z</time></trkpt><trkpt lat="40.046068890301406" lon="8.847293429241535"><ele>222.0</ele><time>2026-05-03T09:59:56Z</time></trkpt><trkpt lat="40.04610689446608" lon="8.847075423462"><ele>222.0</ele><time>2026-05-03T09:59:57Z</time></trkpt><trkpt lat="40.0461545131315" lon="8.846862512729922"><ele>222.0</ele><time>2026-05-03T09:59:58Z</time></trkpt><trkpt lat="40.04621861786223" lon="8.84667163035953"><ele>222.25</ele><time>2026-05-03T09:59:59Z</time></trkpt><trkpt lat="40.046285622720774" lon="8.846503802056436"><ele>222.5</ele><time>2026-05-03T10:00:00Z</time></trkpt><trkpt lat="40.04634413740236" lon="8.846356725144751"><ele>222.75</ele><time>2026-05-03T10:00:01Z</time></trkpt><trkpt lat="40.046387545057165" lon="8.846246507905303"><ele>223.0</ele><time>2026-05-03T10:00:02Z</time></trkpt><trkpt lat="40.04645043896813" lon="8.846172294295862"><ele>223.0</ele><time>2026-05-03T10:00:03Z</time></trkpt><trkpt lat="40.046500249517024" lon="8.846063122280064"><ele>223.0</ele><time>2026-05-03T10:00:05Z</time></trkpt><trkpt lat="40.04656038014744" lon="8.845962245861271"><ele>223.0</ele><time>2026-05-03T10:00:07Z</time></trkpt><trkpt lat="40.04638880409178" lon="8.845796513067754"><ele>223.0</ele><time>2026-05-03T10:00:09Z</time></trkpt><trkpt lat="40.04651645351309" lon="8.84579058126723"><ele>223.4</ele><time>2026-05-03T10:00:10Z</time></trkpt><trkpt lat="40.04646001167247" lon="8.84573885195872"><ele>223.8</ele><time>2026-05-03T10:00:11Z</time></trkpt><trkpt lat="40.04640461139386" lon="8.845660190727457"><ele>224.2</ele><time>2026-05-03T10:00:12Z</time></trkpt><trkpt lat="40.04639868087172" lon="8.845540397183806"><ele>224.6</ele><time>2026-05-03T10:00:13Z</time></trkpt><trkpt lat="40.04639327249923" lon="8.8454151242246"><ele>225.0</ele><time>2026-05-03T10:00:14Z</time></trkpt><trkpt lat="40.0463951440405" lon="8.845257678974894"><ele>224.66666666666669</ele><time>2026-05-03T10:00:15Z</time></trkpt><trkpt lat="40.04642775639093" lon="8.845090301684245"><ele>224.33333333333334</ele><time>2026-05-03T10:00:16Z</time></trkpt><trkpt lat="40.04646683435747" lon="8.84489438691011"><ele>224.0</ele><time>2026-05-03T10:00:17Z</time></trkpt><trkpt lat="40.04651318314977" lon="8.844670167283168"><ele>224.0</ele><time>2026-05-03T10:00:18Z</time></trkpt><trkpt lat="40.04655659767032" lon="8.84441767829469"><ele>224.0</ele><time>2026-05-03T10:00:19Z</time></trkpt><trkpt lat="40.04660564172673" lon="8.844151726446398"><ele>224.0</ele><time>2026-05-03T10:00:20Z</time></trkpt><trkpt lat="40.04665849968495" lon="8.843860685776399"><ele>223.5</ele><time>2026-05-03T10:00:21Z</time></trkpt><trkpt lat="40.04671722881351" lon="8.843551705847748"><ele>223.0</ele><time>2026-05-03T10:00:22Z</time></trkpt><trkpt lat="40.04677736194467" lon="8.843223778819754"><ele>222.0</ele><time>2026-05-03T10:00:23Z</time></trkpt><trkpt lat="40.046839697666336" lon="8.842888309099475"><ele>221.0</ele><time>2026-05-03T10:00:24Z</time></trkpt><trkpt lat="40.04690459142435" lon="8.842542541803034"><ele>220.0</ele><time>2026-05-03T10:00:25Z</time></trkpt><trkpt lat="40.0469686545417" lon="8.842195871331906"><ele>219.0</ele><time>2026-05-03T10:00:26Z</time></trkpt><trkpt lat="40.04703416776963" lon="8.841841293501568"><ele>220.0</ele><time>2026-05-03T10:00:27Z</time></trkpt><trkpt lat="40.04710114608227" lon="8.841487375800709"><ele>221.0</ele><time>2026-05-03T10:00:28Z</time></trkpt><trkpt lat="40.04716627883237" lon="8.84113841454118"><ele>220.0</ele><time>2026-05-03T10:00:29Z</time></trkpt><trkpt lat="40.04723388270561" lon="8.840786697548367"><ele>219.0</ele><time>2026-05-03T10:00:30Z</time></trkpt><trkpt lat="40.04730323952844" lon="8.840441596909512"><ele>220.0</ele><time>2026-05-03T10:00:31Z</time></trkpt><trkpt lat="40.047365191529956" lon="8.840107172548615"><ele>221.0</ele><time>2026-05-03T10:00:32Z</time></trkpt><trkpt lat="40.04742562965432" lon="8.839772926226534"><ele>221.0</ele><time>2026-05-03T10:00:33Z</time></trkpt><trkpt lat="40.04748524760348" lon="8.839447338791405"><ele>221.0</ele><time>2026-05-03T10:00:34Z</time></trkpt><trkpt lat="40.04754613575367" lon="8.839127575707577"><ele>220.5</ele><time>2026-05-03T10:00:35Z</time></trkpt><trkpt lat="40.047605632053305" lon="8.838808469583444"><ele>220.0</ele><time>2026-05-03T10:00:36Z</time></trkpt><trkpt lat="40.04766866082992" lon="8.83848499205466"><ele>220.0</ele><time>2026-05-03T10:00:37Z</time></trkpt><trkpt lat="40.047727290538" lon="8.838165046677105"><ele>220.0</ele><time>2026-05-03T10:00:38Z</time></trkpt><trkpt lat="40.04778823495854" lon="8.83783706861862"><ele>221.0</ele><time>2026-05-03T10:00:39Z</time></trkpt><trkpt lat="40.047849433827274" lon="8.837512187529729"><ele>222.0</ele><time>2026-05-03T10:00:40Z</time></trkpt><trkpt lat="40.04791183071041" lon="8.837184938608894"><ele>222.0</ele><time>2026-05-03T10:00:41Z</time></trkpt><trkpt lat="40.047973058092175" lon="8.836867352347245"><ele>222.0</ele><time>2026-05-03T10:00:42Z</time></trkpt><trkpt lat="40.04803272363633" lon="8.83654797162608"><ele>221.5</ele><time>2026-05-03T10:00:43Z</time></trkpt><trkpt lat="40.04809390243989" lon="8.83623016410167"><ele>221.0</ele><time>2026-05-03T10:00:44Z</time></trkpt><trkpt lat="40.048152268695205" lon="8.835916286882775"><ele>222.5</ele><time>2026-05-03T10:00:45Z</time></trkpt><trkpt lat="40.048209359364606" lon="8.83561006281962"><ele>224.0</ele><time>2026-05-03T10:00:46Z</time></trkpt><trkpt lat="40.04826573805608" lon="8.835304510386395"><ele>224.5</ele><time>2026-05-03T10:00:47Z</time></trkpt><trkpt lat="40.04832182394176" lon="8.834994961498875"><ele>225.0</ele><time>2026-05-03T10:00:48Z</time></trkpt><trkpt lat="40.04837860076411" lon="8.834685290456692"><ele>225.0</ele><time>2026-05-03T10:00:49Z</time></trkpt><trkpt lat="40.04843679483959" lon="8.834373255377345"><ele>225.0</ele><time>2026-05-03T10:00:50Z</time></trkpt><trkpt lat="40.04849768325306" lon="8.834059997422155"><ele>225.0</ele><time>2026-05-03T10:00:51Z</time></trkpt><trkpt lat="40.04855478005982" lon="8.833757855943892"><ele>225.0</ele><time>2026-05-03T10:00:52Z</time></trkpt><trkpt lat="40.04861134286095" lon="8.833450290989482"><ele>225.0</ele><time>2026-05-03T10:00:53Z</time></trkpt><trkpt lat="40.04867211584758" lon="8.833143648388399"><ele>225.0</ele><time>2026-05-03T10:00:54Z</time></trkpt><trkpt lat="40.04872938468398" lon="8.83283699151155"><ele>224.0</ele><time>2026-05-03T10:00:55Z</time></trkpt><trkpt lat="40.04878818922957" lon="8.832530092447174"><ele>223.0</ele><time>2026-05-03T10:00:56Z</time></trkpt><trkpt lat="40.04884659505072" lon="8.832220129974186"><ele>223.0</ele><time>2026-05-03T10:00:57Z</time></trkpt><trkpt lat="40.04890607342975" lon="8.83191933951304"><ele>223.0</ele><time>2026-05-03T10:00:58Z</time></trkpt><trkpt lat="40.04896174159766" lon="8.831615176873244"><ele>223.0</ele><time>2026-05-03T10:00:59Z</time></trkpt><trkpt lat="40.04901536577083" lon="8.831308443081245"><ele>223.0</ele><time>2026-05-03T10:01:00Z</time></trkpt><trkpt lat="40.0490691761233" lon="8.83100270118448"><ele>222.0</ele><time>2026-05-03T10:01:01Z</time></trkpt><trkpt lat="40.04912750238596" lon="8.830690359240469"><ele>221.0</ele><time>2026-05-03T10:01:02Z</time></trkpt><trkpt lat="40.0491854508499" lon="8.830385813977328"><ele>222.0</ele><time>2026-05-03T10:01:03Z</time></trkpt><trkpt lat="40.04924619283557" lon="8.830069658891171"><ele>223.0</ele><time>2026-05-03T10:01:04Z</time></trkpt><trkpt lat="40.04930837143335" lon="8.829740531175105"><ele>223.0</ele><time>2026-05-03T10:01:05Z</time></trkpt><trkpt lat="40.049371147312826" lon="8.82940617940427"><ele>223.0</ele><time>2026-05-03T10:01:06Z</time></trkpt><trkpt lat="40.04943222254712" lon="8.829070517614808"><ele>223.5</ele><time>2026-05-03T10:01:07Z</time></trkpt><trkpt lat="40.049493178325484" lon="8.828741648332644"><ele>224.0</ele><time>2026-05-03T10:01:08Z</time></trkpt><trkpt lat="40.049555461698546" lon="8.828418146610447"><ele>224.5</ele><time>2026-05-03T10:01:09Z</time></trkpt><trkpt lat="40.049612794504405" lon="8.828118547175302"><ele>225.0</ele><time>2026-05-03T10:01:10Z</time></trkpt><trkpt lat="40.0496660870144" lon="8.827840797255565"><ele>226.66666666666669</ele><time>2026-05-03T10:01:11Z</time></trkpt><trkpt lat="40.04971288664002" lon="8.827572882104661"><ele>228.33333333333334</ele><time>2026-05-03T10:01:12Z</time></trkpt><trkpt lat="40.04975437516118" lon="8.827325366403292"><ele>230.0</ele><time>2026-05-03T10:01:13.001Z</time></trkpt><trkpt lat="40.04979734082364" lon="8.82708900614673"><ele>230.0</ele><time>2026-05-03T10:01:14.001Z</time></trkpt><trkpt lat="40.04985674947944" lon="8.826854884262463"><ele>230.0</ele><time>2026-05-03T10:01:15.001Z</time></trkpt><trkpt lat="40.04993566827253" lon="8.826632541870898"><ele>230.0</ele><time>2026-05-03T10:01:16.001Z</time></trkpt><trkpt lat="40.05003850621908" lon="8.826407169390253"><ele>230.33333333333334</ele><time>2026-05-03T10:01:17.001Z</time></trkpt><trkpt lat="40.0501580025619" lon="8.826175076605386"><ele>230.66666666666669</ele><time>2026-05-03T10:01:18.001Z</time></trkpt><trkpt lat="40.050291328690214" lon="8.82592972500667"><ele>231.0</ele><time>2026-05-03T10:01:19.001Z</time></trkpt><trkpt lat="40.05043063260072" lon="8.825664107662432"><ele>230.0</ele><time>2026-05-03T10:01:20.001Z</time></trkpt><trkpt lat="40.0505785130587" lon="8.825388407231374"><ele>229.0</ele><time>2026-05-03T10:01:21.001Z</time></trkpt><trkpt lat="40.05072532127826" lon="8.825112998441305"><ele>228.5</ele><time>2026-05-03T10:01:22.001Z</time></trkpt><trkpt lat="40.050872150368015" lon="8.824838789309686"><ele>228.0</ele><time>2026-05-03T10:01:23.001Z</time></trkpt><trkpt lat="40.0510130264609" lon="8.824575127696255"><ele>228.0</ele><time>2026-05-03T10:01:24.001Z</time></trkpt><trkpt lat="40.05116473860164" lon="8.824294438540237"><ele>228.0</ele><time>2026-05-03T10:01:25.001Z</time></trkpt><trkpt lat="40.05131378176369" lon="8.824020721883695"><ele>228.0</ele><time>2026-05-03T10:01:26.001Z</time></trkpt><trkpt lat="40.051460370465406" lon="8.823743825387343"><ele>228.0</ele><time>2026-05-03T10:01:27.001Z</time></trkpt><trkpt lat="40.05160533578752" lon="8.823468374826405"><ele>230.0</ele><time>2026-05-03T10:01:28.001Z</time></trkpt><trkpt lat="40.051746538698076" lon="8.8231953804445"><ele>232.0</ele><time>2026-05-03T10:01:29.001Z</time></trkpt><trkpt lat="40.0518873566521" lon="8.822925538339515"><ele>232.0</ele><time>2026-05-03T10:01:30.001Z</time></trkpt><trkpt lat="40.052029886130626" lon="8.822657876093785"><ele>232.0</ele><time>2026-05-03T10:01:31.001Z</time></trkpt><trkpt lat="40.05217163596289" lon="8.822389891179682"><ele>233.0</ele><time>2026-05-03T10:01:32.001Z</time></trkpt><trkpt lat="40.05231201743056" lon="8.822123244116376"><ele>234.0</ele><time>2026-05-03T10:01:33.001Z</time></trkpt><trkpt lat="40.052451714990916" lon="8.82185804234845"><ele>234.5</ele><time>2026-05-03T10:01:34.001Z</time></trkpt><trkpt lat="40.052591278548135" lon="8.821596337703925"><ele>235.0</ele><time>2026-05-03T10:01:35.001Z</time></trkpt><trkpt lat="40.05272874456005" lon="8.821334760326076"><ele>235.0</ele><time>2026-05-03T10:01:36.001Z</time></trkpt><trkpt lat="40.05286743725155" lon="8.821073796809518"><ele>235.0</ele><time>2026-05-03T10:01:37.001Z</time></trkpt><trkpt lat="40.053003931659426" lon="8.820811605157346"><ele>235.5</ele><time>2026-05-03T10:01:38.001Z</time></trkpt><trkpt lat="40.05314192998029" lon="8.820550602761006"><ele>236.0</ele><time>2026-05-03T10:01:39.001Z</time></trkpt><trkpt lat="40.05328159730446" lon="8.820289641824624"><ele>237.0</ele><time>2026-05-03T10:01:40.001Z</time></trkpt><trkpt lat="40.05342002492565" lon="8.820029194809788"><ele>238.0</ele><time>2026-05-03T10:01:41.001Z</time></trkpt><trkpt lat="40.053557614836485" lon="8.819765412177722"><ele>238.0</ele><time>2026-05-03T10:01:42.001Z</time></trkpt><trkpt lat="40.05369943116296" lon="8.819498064766814"><ele>238.0</ele><time>2026-05-03T10:01:43.001Z</time></trkpt><trkpt lat="40.053840754415376" lon="8.819226653797683"><ele>237.5</ele><time>2026-05-03T10:01:44.001Z</time></trkpt><trkpt lat="40.05398101223148" lon="8.818957089494306"><ele>237.0</ele><time>2026-05-03T10:01:45.001Z</time></trkpt><trkpt lat="40.05412515639931" lon="8.818680589063588"><ele>236.5</ele><time>2026-05-03T10:01:46.001Z</time></trkpt><trkpt lat="40.05426769683503" lon="8.818409341207191"><ele>236.0</ele><time>2026-05-03T10:01:47.001Z</time></trkpt><trkpt lat="40.05441169785794" lon="8.818131959787772"><ele>236.0</ele><time>2026-05-03T10:01:48.001Z</time></trkpt><trkpt lat="40.054558985276714" lon="8.81785537263407"><ele>236.0</ele><time>2026-05-03T10:01:49.001Z</time></trkpt><trkpt lat="40.05470514943808" lon="8.81758134120789"><ele>235.5</ele><time>2026-05-03T10:01:50.001Z</time></trkpt><trkpt lat="40.05485120705441" lon="8.817302413752582"><ele>235.0</ele><time>2026-05-03T10:01:51.001Z</time></trkpt><trkpt lat="40.05499224506824" lon="8.81702711188395"><ele>235.0</ele><time>2026-05-03T10:01:52.001Z</time></trkpt><trkpt lat="40.05513601994249" lon="8.816751443137122"><ele>235.0</ele><time>2026-05-03T10:01:53.001Z</time></trkpt><trkpt lat="40.05528046219918" lon="8.816473923902198"><ele>235.0</ele><time>2026-05-03T10:01:54.001Z</time></trkpt><trkpt lat="40.055421555026975" lon="8.816203928864386"><ele>235.0</ele><time>2026-05-03T10:01:55Z</time></trkpt><trkpt lat="40.055559387381315" lon="8.815944184241983"><ele>235.0</ele><time>2026-05-03T10:01:56Z</time></trkpt><trkpt lat="40.055691547801906" lon="8.815690307276206"><ele>235.0</ele><time>2026-05-03T10:01:57Z</time></trkpt><trkpt lat="40.05581507960397" lon="8.815453960764343"><ele>235.66666666666666</ele><time>2026-05-03T10:01:58Z</time></trkpt><trkpt lat="40.05592964387869" lon="8.815231061793247"><ele>236.33333333333331</ele><time>2026-05-03T10:01:59Z</time></trkpt><trkpt lat="40.056037569691775" lon="8.815023831137902"><ele>237.0</ele><time>2026-05-03T10:02:00Z</time></trkpt><trkpt lat="40.05613975600766" lon="8.814831616477017"><ele>237.0</ele><time>2026-05-03T10:02:01Z</time></trkpt><trkpt lat="40.05624218715336" lon="8.814637145104156"><ele>237.0</ele><time>2026-05-03T10:02:02Z</time></trkpt><trkpt lat="40.05635062980436" lon="8.81443470692318"><ele>237.0</ele><time>2026-05-03T10:02:03Z</time></trkpt><trkpt lat="40.05645824916677" lon="8.81422650461288"><ele>237.0</ele><time>2026-05-03T10:02:04Z</time></trkpt><trkpt lat="40.05656739640665" lon="8.814015709981144"><ele>237.0</ele><time>2026-05-03T10:02:05Z</time></trkpt><trkpt lat="40.05668139693768" lon="8.813799997157709"><ele>237.0</ele><time>2026-05-03T10:02:06Z</time></trkpt><trkpt lat="40.056804668024604" lon="8.813570654587606"><ele>237.66666666666669</ele><time>2026-05-03T10:02:07Z</time></trkpt><trkpt lat="40.05692714361656" lon="8.813334177604737"><ele>238.33333333333334</ele><time>2026-05-03T10:02:08Z</time></trkpt><trkpt lat="40.05704917559212" lon="8.813094559577166"><ele>239.0</ele><time>2026-05-03T10:02:09Z</time></trkpt><trkpt lat="40.05717663202656" lon="8.812849959944598"><ele>238.5</ele><time>2026-05-03T10:02:10Z</time></trkpt><trkpt lat="40.057307902359426" lon="8.812603094103006"><ele>238.0</ele><time>2026-05-03T10:02:11Z</time></trkpt><trkpt lat="40.05744276052009" lon="8.812349417444226"><ele>238.5</ele><time>2026-05-03T10:02:12Z</time></trkpt><trkpt lat="40.05757229939379" lon="8.812106253378065"><ele>239.0</ele><time>2026-05-03T10:02:13Z</time></trkpt><trkpt lat="40.05770954399799" lon="8.811854131606676"><ele>239.5</ele><time>2026-05-03T10:02:14Z</time></trkpt><trkpt lat="40.05784220998143" lon="8.81159887139767"><ele>240.0</ele><time>2026-05-03T10:02:15Z</time></trkpt><trkpt lat="40.05797537526467" lon="8.81134439076193"><ele>240.0</ele><time>2026-05-03T10:02:16Z</time></trkpt><trkpt lat="40.058105654023045" lon="8.811091223665226"><ele>240.0</ele><time>2026-05-03T10:02:17Z</time></trkpt><trkpt lat="40.05823593816174" lon="8.810840054525766"><ele>241.0</ele><time>2026-05-03T10:02:18Z</time></trkpt><trkpt lat="40.0583717925804" lon="8.810582753602045"><ele>242.0</ele><time>2026-05-03T10:02:19Z</time></trkpt><trkpt lat="40.05851174613558" lon="8.810312992173463"><ele>242.5</ele><time>2026-05-03T10:02:20Z</time></trkpt><trkpt lat="40.05866026368518" lon="8.810029358907551"><ele>243.0</ele><time>2026-05-03T10:02:21Z</time></trkpt><trkpt lat="40.0588164114323" lon="8.809736495710814"><ele>243.0</ele><time>2026-05-03T10:02:22Z</time></trkpt><trkpt lat="40.05897172101407" lon="8.809443010094533"><ele>243.0</ele><time>2026-05-03T10:02:23Z</time></trkpt><trkpt lat="40.05912438024431" lon="8.809147391415378"><ele>243.5</ele><time>2026-05-03T10:02:24Z</time></trkpt><trkpt lat="40.059277878966526" lon="8.808858599923425"><ele>244.0</ele><time>2026-05-03T10:02:25Z</time></trkpt><trkpt lat="40.0594214020512" lon="8.808579059631926"><ele>244.5</ele><time>2026-05-03T10:02:26Z</time></trkpt><trkpt lat="40.0595666379238" lon="8.808303852327063"><ele>245.0</ele><time>2026-05-03T10:02:27Z</time></trkpt><trkpt lat="40.05970910974578" lon="8.808030035843474"><ele>245.0</ele><time>2026-05-03T10:02:28Z</time></trkpt><trkpt lat="40.05984883126128" lon="8.80775872940662"><ele>245.0</ele><time>2026-05-03T10:02:29Z</time></trkpt><trkpt lat="40.059992809772034" lon="8.80748675213515"><ele>246.5</ele><time>2026-05-03T10:02:30Z</time></trkpt><trkpt lat="40.06013226167477" lon="8.80721602714318"><ele>248.0</ele><time>2026-05-03T10:02:31Z</time></trkpt><trkpt lat="40.06027487756395" lon="8.806946938944318"><ele>248.5</ele><time>2026-05-03T10:02:32Z</time></trkpt><trkpt lat="40.060409079637374" lon="8.806679806650235"><ele>249.0</ele><time>2026-05-03T10:02:33Z</time></trkpt><trkpt lat="40.060552573412146" lon="8.806416675940689"><ele>249.0</ele><time>2026-05-03T10:02:34Z</time></trkpt><trkpt lat="40.06069146964858" lon="8.806149777300893"><ele>249.0</ele><time>2026-05-03T10:02:35Z</time></trkpt><trkpt lat="40.06082859982805" lon="8.80588727174944"><ele>249.0</ele><time>2026-05-03T10:02:36Z</time></trkpt><trkpt lat="40.06096798966947" lon="8.8056191741353"><ele>249.0</ele><time>2026-05-03T10:02:37Z</time></trkpt><trkpt lat="40.06110531308247" lon="8.805352133844101"><ele>249.5</ele><time>2026-05-03T10:02:38Z</time></trkpt><trkpt lat="40.06124210064595" lon="8.805089482127784"><ele>250.0</ele><time>2026-05-03T10:02:39Z</time></trkpt><trkpt lat="40.06137753069319" lon="8.804823990826664"><ele>250.0</ele><time>2026-05-03T10:02:40Z</time></trkpt><trkpt lat="40.06152108530346" lon="8.804567521560172"><ele>250.0</ele><time>2026-05-03T10:02:41Z</time></trkpt><trkpt lat="40.06166128363123" lon="8.804299640221004"><ele>251.5</ele><time>2026-05-03T10:02:42Z</time></trkpt><trkpt lat="40.06179605034415" lon="8.80403261345376"><ele>253.0</ele><time>2026-05-03T10:02:43Z</time></trkpt><trkpt lat="40.06193437008745" lon="8.8037655231908"><ele>253.0</ele><time>2026-05-03T10:02:44Z</time></trkpt><trkpt lat="40.06206738181407" lon="8.803520656436387"><ele>253.0</ele><time>2026-05-03T10:02:45Z</time></trkpt><trkpt lat="40.06220030043792" lon="8.803270958241063"><ele>253.0</ele><time>2026-05-03T10:02:46Z</time></trkpt><trkpt lat="40.06233394579485" lon="8.803022702427675"><ele>253.0</ele><time>2026-05-03T10:02:47Z</time></trkpt><trkpt lat="40.06245946406593" lon="8.802778686047201"><ele>253.0</ele><time>2026-05-03T10:02:48Z</time></trkpt><trkpt lat="40.06258844533162" lon="8.80252608149839"><ele>253.0</ele><time>2026-05-03T10:02:49Z</time></trkpt><trkpt lat="40.06272532344905" lon="8.802269321974633"><ele>253.0</ele><time>2026-05-03T10:02:50Z</time></trkpt><trkpt lat="40.06288852499597" lon="8.801963418109407"><ele>253.0</ele><time>2026-05-03T10:02:51Z</time></trkpt><trkpt lat="40.063007727161434" lon="8.801703380018305"><ele>252.66666666666666</ele><time>2026-05-03T10:02:52Z</time></trkpt><trkpt lat="40.063128525574975" lon="8.801504847650824"><ele>252.33333333333331</ele><time>2026-05-03T10:02:53Z</time></trkpt><trkpt lat="40.063247392431634" lon="8.801290258111132"><ele>252.0</ele><time>2026-05-03T10:02:54Z</time></trkpt><trkpt lat="40.06333952030027" lon="8.80111503968237"><ele>252.0</ele><time>2026-05-03T10:02:55Z</time></trkpt><trkpt lat="40.063406582598304" lon="8.800953841402407"><ele>252.0</ele><time>2026-05-03T10:02:56Z</time></trkpt><trkpt lat="40.06345301950071" lon="8.800777855811086"><ele>252.0</ele><time>2026-05-03T10:02:57Z</time></trkpt><trkpt lat="40.06346542923813" lon="8.800601031825899"><ele>252.0</ele><time>2026-05-03T10:02:58Z</time></trkpt><trkpt lat="40.06343570275919" lon="8.800425076893976"><ele>252.0</ele><time>2026-05-03T10:02:59Z</time></trkpt><trkpt lat="40.0633769752732" lon="8.80026736291563"><ele>252.0</ele><time>2026-05-03T10:03:00Z</time></trkpt><trkpt lat="40.063287767132856" lon="8.80011741141079"><ele>252.0</ele><time>2026-05-03T10:03:01Z</time></trkpt><trkpt lat="40.063183069711904" lon="8.799953257969417"><ele>252.0</ele><time>2026-05-03T10:03:02Z</time></trkpt><trkpt lat="40.06306417383842" lon="8.799783135953101"><ele>252.0</ele><time>2026-05-03T10:03:03Z</time></trkpt><trkpt lat="40.06293853841716" lon="8.799586293848611"><ele>252.0</ele><time>2026-05-03T10:03:04Z</time></trkpt><trkpt lat="40.062864357701706" lon="8.79947465284919"><ele>252.0</ele><time>2026-05-03T10:03:05Z</time></trkpt><trkpt lat="40.062816417387985" lon="8.799291461914573"><ele>250.8</ele><time>2026-05-03T10:03:06Z</time></trkpt><trkpt lat="40.062764343711805" lon="8.799117212962143"><ele>249.6</ele><time>2026-05-03T10:03:07Z</time></trkpt><trkpt lat="40.062740644866835" lon="8.79896974910938"><ele>248.40000000000003</ele><time>2026-05-03T10:03:08Z</time></trkpt><trkpt lat="40.06275550252465" lon="8.798857608453192"><ele>247.20000000000002</ele><time>2026-05-03T10:03:09Z</time></trkpt><trkpt lat="40.062809418325095" lon="8.79877194388892"><ele>246.0</ele><time>2026-05-03T10:03:10Z</time></trkpt><trkpt lat="40.0628833684972" lon="8.798722299985577"><ele>246.0</ele><time>2026-05-03T10:03:11Z</time></trkpt><trkpt lat="40.06297332125155" lon="8.798714376678799"><ele>246.0</ele><time>2026-05-03T10:03:12Z</time></trkpt><trkpt lat="40.063093556942164" lon="8.798748938020701"><ele>246.0</ele><time>2026-05-03T10:03:13Z</time></trkpt><trkpt lat="40.06324412111611" lon="8.798800184275322"><ele>246.0</ele><time>2026-05-03T10:03:14Z</time></trkpt><trkpt lat="40.06341897633526" lon="8.798858189115263"><ele>244.33333333333331</ele><time>2026-05-03T10:03:15Z</time></trkpt><trkpt lat="40.06359324804189" lon="8.798919315611045"><ele>242.66666666666666</ele><time>2026-05-03T10:03:16Z</time></trkpt><trkpt lat="40.06377736370429" lon="8.79896600502283"><ele>241.0</ele><time>2026-05-03T10:03:17Z</time></trkpt><trkpt lat="40.06396836726116" lon="8.799025663257584"><ele>239.0</ele><time>2026-05-03T10:03:18Z</time></trkpt><trkpt lat="40.06415904331614" lon="8.799093713591242"><ele>237.0</ele><time>2026-05-03T10:03:19Z</time></trkpt><trkpt lat="40.0643459368467" lon="8.799158360597588"><ele>235.0</ele><time>2026-05-03T10:03:20Z</time></trkpt><trkpt lat="40.06453917912889" lon="8.799227315786938"><ele>235.0</ele><time>2026-05-03T10:03:21.001Z</time></trkpt><trkpt lat="40.0647134547583" lon="8.799289780378244"><ele>235.0</ele><time>2026-05-03T10:03:22.001Z</time></trkpt><trkpt lat="40.06487222595903" lon="8.799346995647003"><ele>235.0</ele><time>2026-05-03T10:03:23.001Z</time></trkpt><trkpt lat="40.06501015316603" lon="8.79939251676962"><ele>235.75</ele><time>2026-05-03T10:03:24.001Z</time></trkpt><trkpt lat="40.06513864637807" lon="8.799413633716101"><ele>236.5</ele><time>2026-05-03T10:03:25.001Z</time></trkpt><trkpt lat="40.06525882030711" lon="8.799388834751817"><ele>237.25</ele><time>2026-05-03T10:03:26.001Z</time></trkpt><trkpt lat="40.065369483763874" lon="8.799309273100448"><ele>238.0</ele><time>2026-05-03T10:03:27.001Z</time></trkpt><trkpt lat="40.065438946677446" lon="8.799130432840549"><ele>234.66666666666666</ele><time>2026-05-03T10:03:28.001Z</time></trkpt><trkpt lat="40.06552091115323" lon="8.798969163761637"><ele>231.33333333333331</ele><time>2026-05-03T10:03:29.001Z</time></trkpt><trkpt lat="40.06558068269088" lon="8.798769249071997"><ele>228.0</ele><time>2026-05-03T10:03:30.001Z</time></trkpt><trkpt lat="40.06564862311257" lon="8.798573304407961"><ele>225.33333333333331</ele><time>2026-05-03T10:03:31.001Z</time></trkpt><trkpt lat="40.06571601698219" lon="8.79838236453136"><ele>222.66666666666666</ele><time>2026-05-03T10:03:32.001Z</time></trkpt><trkpt lat="40.065761128013534" lon="8.798187078029478"><ele>220.0</ele><time>2026-05-03T10:03:33.001Z</time></trkpt><trkpt lat="40.06578115446147" lon="8.797980133982508"><ele>220.0</ele><time>2026-05-03T10:03:34.001Z</time></trkpt><trkpt lat="40.06576761780517" lon="8.797767455222502"><ele>220.0</ele><time>2026-05-03T10:03:35.001Z</time></trkpt><trkpt lat="40.06571912621719" lon="8.797560360992227"><ele>220.0</ele><time>2026-05-03T10:03:36.001Z</time></trkpt><trkpt lat="40.065659841211875" lon="8.79735140204421"><ele>220.0</ele><time>2026-05-03T10:03:37.001Z</time></trkpt><trkpt lat="40.06559154116532" lon="8.797134056296391"><ele>220.0</ele><time>2026-05-03T10:03:38.001Z</time></trkpt><trkpt lat="40.06552623965924" lon="8.796931669934896"><ele>220.0</ele><time>2026-05-03T10:03:39.001Z</time></trkpt><trkpt lat="40.065474239201606" lon="8.796735128680549"><ele>222.0</ele><time>2026-05-03T10:03:40.001Z</time></trkpt><trkpt lat="40.06544342519987" lon="8.796532865524346"><ele>224.0</ele><time>2026-05-03T10:03:41.001Z</time></trkpt><trkpt lat="40.06543330213372" lon="8.796329721374013"><ele>226.0</ele><time>2026-05-03T10:03:42.001Z</time></trkpt><trkpt lat="40.065433518040194" lon="8.796117015831102"><ele>226.33333333333331</ele><time>2026-05-03T10:03:43.001Z</time></trkpt><trkpt lat="40.0654449408059" lon="8.795894031259293"><ele>226.66666666666669</ele><time>2026-05-03T10:03:44.001Z</time></trkpt><trkpt lat="40.06545031878177" lon="8.795661288788406"><ele>227.0</ele><time>2026-05-03T10:03:45.001Z</time></trkpt><trkpt lat="40.06545817223483" lon="8.795412087847224"><ele>226.66666666666669</ele><time>2026-05-03T10:03:46.001Z</time></trkpt><trkpt lat="40.065465545656586" lon="8.795169051873044"><ele>226.33333333333331</ele><time>2026-05-03T10:03:47.001Z</time></trkpt><trkpt lat="40.06547505961448" lon="8.794914298418655"><ele>226.0</ele><time>2026-05-03T10:03:48.001Z</time></trkpt><trkpt lat="40.0654847078922" lon="8.794654062781806"><ele>226.0</ele><time>2026-05-03T10:03:49.001Z</time></trkpt><trkpt lat="40.06549518205197" lon="8.794371652266591"><ele>226.0</ele><time>2026-05-03T10:03:50.001Z</time></trkpt><trkpt lat="40.06550620379726" lon="8.794071871253928"><ele>226.0</ele><time>2026-05-03T10:03:51.001Z</time></trkpt><trkpt lat="40.06551753809613" lon="8.793765342666404"><ele>225.66666666666666</ele><time>2026-05-03T10:03:52.001Z</time></trkpt><trkpt lat="40.06553018387428" lon="8.793462017901051"><ele>225.33333333333331</ele><time>2026-05-03T10:03:53.001Z</time></trkpt><trkpt lat="40.065540520451485" lon="8.7931836170505"><ele>225.0</ele><time>2026-05-03T10:03:54.001Z</time></trkpt><trkpt lat="40.065548946951814" lon="8.792923457567259"><ele>225.0</ele><time>2026-05-03T10:03:55.001Z</time></trkpt><trkpt lat="40.06555560941853" lon="8.792682460296826"><ele>225.0</ele><time>2026-05-03T10:03:56.001Z</time></trkpt><trkpt lat="40.065562933970874" lon="8.792459707289442"><ele>225.0</ele><time>2026-05-03T10:03:57.001Z</time></trkpt><trkpt lat="40.06557643148827" lon="8.792254957339754"><ele>225.33333333333331</ele><time>2026-05-03T10:03:58.001Z</time></trkpt><trkpt lat="40.06560626309789" lon="8.792042270127128"><ele>225.66666666666666</ele><time>2026-05-03T10:03:59.001Z</time></trkpt><trkpt lat="40.065668448343224" lon="8.791838007895796"><ele>226.0</ele><time>2026-05-03T10:04:00.001Z</time></trkpt><trkpt lat="40.06575719966639" lon="8.791642236438975"><ele>227.66666666666666</ele><time>2026-05-03T10:04:01Z</time></trkpt><trkpt lat="40.065873923623215" lon="8.79144030244986"><ele>229.33333333333331</ele><time>2026-05-03T10:04:02Z</time></trkpt><trkpt lat="40.06600285454839" lon="8.791221609673368"><ele>231.0</ele><time>2026-05-03T10:04:03Z</time></trkpt><trkpt lat="40.0661234029874" lon="8.791006835770055"><ele>231.0</ele><time>2026-05-03T10:04:04Z</time></trkpt><trkpt lat="40.06625244640651" lon="8.790783529370339"><ele>231.0</ele><time>2026-05-03T10:04:05Z</time></trkpt><trkpt lat="40.066385756699695" lon="8.790556609007291"><ele>231.0</ele><time>2026-05-03T10:04:06Z</time></trkpt><trkpt lat="40.06652693955171" lon="8.790316911595083"><ele>230.5</ele><time>2026-05-03T10:04:07Z</time></trkpt><trkpt lat="40.0666709054972" lon="8.79006960872317"><ele>230.0</ele><time>2026-05-03T10:04:08Z</time></trkpt><trkpt lat="40.06682019319341" lon="8.789809765576374"><ele>230.0</ele><time>2026-05-03T10:04:09Z</time></trkpt><trkpt lat="40.06697249080841" lon="8.78955413517105"><ele>230.0</ele><time>2026-05-03T10:04:10Z</time></trkpt><trkpt lat="40.06711813251054" lon="8.789307383427504"><ele>228.0</ele><time>2026-05-03T10:04:11Z</time></trkpt><trkpt lat="40.06726253109105" lon="8.789061839826195"><ele>226.0</ele><time>2026-05-03T10:04:12Z</time></trkpt><trkpt lat="40.06740453448642" lon="8.78881897407123"><ele>227.0</ele><time>2026-05-03T10:04:13Z</time></trkpt><trkpt lat="40.067545684996965" lon="8.788573697266981"><ele>228.0</ele><time>2026-05-03T10:04:14Z</time></trkpt><trkpt lat="40.067691622326194" lon="8.788316121533212"><ele>228.0</ele><time>2026-05-03T10:04:15Z</time></trkpt><trkpt lat="40.06783664350274" lon="8.788064312517651"><ele>228.0</ele><time>2026-05-03T10:04:16Z</time></trkpt><trkpt lat="40.067986468700994" lon="8.787808076032066"><ele>225.5</ele><time>2026-05-03T10:04:17Z</time></trkpt><trkpt lat="40.068140222771405" lon="8.787544421616406"><ele>223.0</ele><time>2026-05-03T10:04:18Z</time></trkpt><trkpt lat="40.068294681173576" lon="8.787280940521152"><ele>222.5</ele><time>2026-05-03T10:04:19Z</time></trkpt><trkpt lat="40.06845219930851" lon="8.78701198781348"><ele>222.0</ele><time>2026-05-03T10:04:20Z</time></trkpt><trkpt lat="40.06860665066597" lon="8.786745017188219"><ele>218.5</ele><time>2026-05-03T10:04:21Z</time></trkpt><trkpt lat="40.068762561304524" lon="8.786476854140256"><ele>215.0</ele><time>2026-05-03T10:04:22Z</time></trkpt><trkpt lat="40.06891485133757" lon="8.786214054636638"><ele>215.0</ele><time>2026-05-03T10:04:23Z</time></trkpt><trkpt lat="40.06906671982207" lon="8.785952899679566"><ele>215.0</ele><time>2026-05-03T10:04:24Z</time></trkpt><trkpt lat="40.06921532108312" lon="8.785689916239885"><ele>217.0</ele><time>2026-05-03T10:04:25Z</time></trkpt><trkpt lat="40.06936730174181" lon="8.78542792222496"><ele>219.0</ele><time>2026-05-03T10:04:26Z</time></trkpt><trkpt lat="40.069522658641574" lon="8.785163717154616"><ele>220.0</ele><time>2026-05-03T10:04:27Z</time></trkpt><trkpt lat="40.06967546008674" lon="8.784901956308586"><ele>221.0</ele><time>2026-05-03T10:04:28Z</time></trkpt><trkpt lat="40.06982646548137" lon="8.784643825885832"><ele>221.5</ele><time>2026-05-03T10:04:29Z</time></trkpt><trkpt lat="40.06997764941324" lon="8.784385032895306"><ele>222.0</ele><time>2026-05-03T10:04:30Z</time></trkpt><trkpt lat="40.070125963134586" lon="8.784128869155367"><ele>224.0</ele><time>2026-05-03T10:04:31Z</time></trkpt><trkpt lat="40.07027439667829" lon="8.783873807796573"><ele>226.0</ele><time>2026-05-03T10:04:32Z</time></trkpt><trkpt lat="40.07041824718926" lon="8.783629364369183"><ele>227.0</ele><time>2026-05-03T10:04:33Z</time></trkpt><trkpt lat="40.0705603069656" lon="8.783380909716744"><ele>228.0</ele><time>2026-05-03T10:04:34Z</time></trkpt><trkpt lat="40.0707026093619" lon="8.783133904681899"><ele>230.0</ele><time>2026-05-03T10:04:35Z</time></trkpt><trkpt lat="40.07084306223536" lon="8.782884228501498"><ele>232.0</ele><time>2026-05-03T10:04:36Z</time></trkpt><trkpt lat="40.07098585187542" lon="8.782633350090647"><ele>232.0</ele><time>2026-05-03T10:04:37Z</time></trkpt><trkpt lat="40.07112725960968" lon="8.782386156829354"><ele>232.0</ele><time>2026-05-03T10:04:38Z</time></trkpt><trkpt lat="40.07127255992694" lon="8.78213584101239"><ele>232.0</ele><time>2026-05-03T10:04:39Z</time></trkpt><trkpt lat="40.07141826091331" lon="8.7818852774053"><ele>232.0</ele><time>2026-05-03T10:04:40Z</time></trkpt><trkpt lat="40.071565304813944" lon="8.781629377963473"><ele>233.0</ele><time>2026-05-03T10:04:41Z</time></trkpt><trkpt lat="40.07171635585906" lon="8.781373013082918"><ele>234.0</ele><time>2026-05-03T10:04:42Z</time></trkpt><trkpt lat="40.07186397911621" lon="8.781116037075952"><ele>233.5</ele><time>2026-05-03T10:04:43Z</time></trkpt><trkpt lat="40.07201404768076" lon="8.78085719161119"><ele>233.0</ele><time>2026-05-03T10:04:44Z</time></trkpt><trkpt lat="40.072163041216186" lon="8.78059636816216"><ele>233.0</ele><time>2026-05-03T10:04:45Z</time></trkpt><trkpt lat="40.07231364853074" lon="8.780333947403248"><ele>233.0</ele><time>2026-05-03T10:04:46Z</time></trkpt><trkpt lat="40.072463932285764" lon="8.780074338738855"><ele>235.5</ele><time>2026-05-03T10:04:47Z</time></trkpt><trkpt lat="40.07261678222847" lon="8.77980938674671"><ele>238.0</ele><time>2026-05-03T10:04:48Z</time></trkpt><trkpt lat="40.07276718006576" lon="8.779546255849748"><ele>239.0</ele><time>2026-05-03T10:04:49Z</time></trkpt><trkpt lat="40.072920457241146" lon="8.779280945369687"><ele>240.0</ele><time>2026-05-03T10:04:50Z</time></trkpt><trkpt lat="40.07306900923459" lon="8.77901188648935"><ele>240.0</ele><time>2026-05-03T10:04:51Z</time></trkpt><trkpt lat="40.073222441728646" lon="8.778742650319447"><ele>240.0</ele><time>2026-05-03T10:04:52Z</time></trkpt><trkpt lat="40.07337380176635" lon="8.778479148904024"><ele>243.5</ele><time>2026-05-03T10:04:53Z</time></trkpt><trkpt lat="40.07352464684328" lon="8.77821850965868"><ele>247.0</ele><time>2026-05-03T10:04:54Z</time></trkpt><trkpt lat="40.07367697225611" lon="8.777959527142432"><ele>247.0</ele><time>2026-05-03T10:04:55Z</time></trkpt><trkpt lat="40.07382573342024" lon="8.777703798946208"><ele>247.0</ele><time>2026-05-03T10:04:56Z</time></trkpt><trkpt lat="40.07397317675271" lon="8.777446526038302"><ele>249.5</ele><time>2026-05-03T10:04:57Z</time></trkpt><trkpt lat="40.074121453115815" lon="8.777189204095972"><ele>252.0</ele><time>2026-05-03T10:04:58Z</time></trkpt><trkpt lat="40.07426880276203" lon="8.77693094294716"><ele>254.0</ele><time>2026-05-03T10:04:59Z</time></trkpt><trkpt lat="40.07441270130523" lon="8.776681662074596"><ele>256.0</ele><time>2026-05-03T10:05:00Z</time></trkpt><trkpt lat="40.07455488877037" lon="8.776437606876307"><ele>256.0</ele><time>2026-05-03T10:05:01Z</time></trkpt><trkpt lat="40.07469276532372" lon="8.776205092984865"><ele>256.0</ele><time>2026-05-03T10:05:02Z</time></trkpt><trkpt lat="40.074825345324726" lon="8.775980183817369"><ele>256.0</ele><time>2026-05-03T10:05:03Z</time></trkpt><trkpt lat="40.07496138581182" lon="8.775752536229986"><ele>256.3333333333333</ele><time>2026-05-03T10:05:04Z</time></trkpt><trkpt lat="40.07509935559768" lon="8.775522370501568"><ele>256.6666666666667</ele><time>2026-05-03T10:05:05Z</time></trkpt><trkpt lat="40.07523625650215" lon="8.775293912401462"><ele>257.0</ele><time>2026-05-03T10:05:06Z</time></trkpt><trkpt lat="40.07537466643219" lon="8.77506669002977"><ele>257.0</ele><time>2026-05-03T10:05:07Z</time></trkpt><trkpt lat="40.075514019679964" lon="8.774835872526234"><ele>257.0</ele><time>2026-05-03T10:05:08Z</time></trkpt><trkpt lat="40.07564907023197" lon="8.774610940926204"><ele>257.0</ele><time>2026-05-03T10:05:09Z</time></trkpt><trkpt lat="40.07577950429051" lon="8.774392565157349"><ele>258.0</ele><time>2026-05-03T10:05:10Z</time></trkpt><trkpt lat="40.07590987913718" lon="8.774183960582988"><ele>259.0</ele><time>2026-05-03T10:05:11Z</time></trkpt><trkpt lat="40.076034984970214" lon="8.77399247440671"><ele>260.0</ele><time>2026-05-03T10:05:12Z</time></trkpt><trkpt lat="40.076164676137715" lon="8.773826497016412"><ele>260.0</ele><time>2026-05-03T10:05:13Z</time></trkpt><trkpt lat="40.076305284052125" lon="8.773697435910359"><ele>260.0</ele><time>2026-05-03T10:05:14Z</time></trkpt><trkpt lat="40.07645475258034" lon="8.773593643849017"><ele>260.0</ele><time>2026-05-03T10:05:15Z</time></trkpt><trkpt lat="40.07662345683364" lon="8.773499265281043"><ele>261.6666666666667</ele><time>2026-05-03T10:05:16.001Z</time></trkpt><trkpt lat="40.07679404107046" lon="8.773428012226981"><ele>263.3333333333333</ele><time>2026-05-03T10:05:17.001Z</time></trkpt><trkpt lat="40.0769509979121" lon="8.77336771928644"><ele>265.0</ele><time>2026-05-03T10:05:18.001Z</time></trkpt><trkpt lat="40.07710657838243" lon="8.773330951822139"><ele>265.0</ele><time>2026-05-03T10:05:19.001Z</time></trkpt><trkpt lat="40.077258052595" lon="8.773336967323255"><ele>265.0</ele><time>2026-05-03T10:05:20.001Z</time></trkpt><trkpt lat="40.077407282186606" lon="8.773370330810833"><ele>265.0</ele><time>2026-05-03T10:05:21.001Z</time></trkpt><trkpt lat="40.07754801632342" lon="8.773415749178568"><ele>265.0</ele><time>2026-05-03T10:05:22.001Z</time></trkpt><trkpt lat="40.07768597444211" lon="8.773432814796909"><ele>266.0</ele><time>2026-05-03T10:05:23.001Z</time></trkpt><trkpt lat="40.077831167742175" lon="8.773414369796695"><ele>267.0</ele><time>2026-05-03T10:05:24.001Z</time></trkpt><trkpt lat="40.07796628285534" lon="8.773354573409263"><ele>268.0</ele><time>2026-05-03T10:05:25.001Z</time></trkpt><trkpt lat="40.07809348650555" lon="8.773255773732176"><ele>269.0</ele><time>2026-05-03T10:05:26.001Z</time></trkpt><trkpt lat="40.078214680508026" lon="8.773112665771926"><ele>270.6666666666667</ele><time>2026-05-03T10:05:27.001Z</time></trkpt><trkpt lat="40.07833087682531" lon="8.772949847975676"><ele>272.3333333333333</ele><time>2026-05-03T10:05:28.001Z</time></trkpt><trkpt lat="40.078445732547394" lon="8.772781716729465"><ele>274.0</ele><time>2026-05-03T10:05:29.001Z</time></trkpt><trkpt lat="40.078566175340946" lon="8.7726026390613"><ele>275.0</ele><time>2026-05-03T10:05:30.001Z</time></trkpt><trkpt lat="40.07868823093139" lon="8.772424493715"><ele>276.0</ele><time>2026-05-03T10:05:31.001Z</time></trkpt><trkpt lat="40.078812993210626" lon="8.772250589800805"><ele>277.0</ele><time>2026-05-03T10:05:32.001Z</time></trkpt><trkpt lat="40.078937182760924" lon="8.77206852877639"><ele>277.0</ele><time>2026-05-03T10:05:33.001Z</time></trkpt><trkpt lat="40.07906103416723" lon="8.771887652305685"><ele>277.0</ele><time>2026-05-03T10:05:34.001Z</time></trkpt><trkpt lat="40.07918129184551" lon="8.771708923577961"><ele>277.0</ele><time>2026-05-03T10:05:35.001Z</time></trkpt><trkpt lat="40.07929837346324" lon="8.771539369382843"><ele>277.0</ele><time>2026-05-03T10:05:36.001Z</time></trkpt><trkpt lat="40.079414247664516" lon="8.771379478070218"><ele>277.0</ele><time>2026-05-03T10:05:37.001Z</time></trkpt><trkpt lat="40.07952268024308" lon="8.77123285156957"><ele>277.0</ele><time>2026-05-03T10:05:38.001Z</time></trkpt><trkpt lat="40.079620931234366" lon="8.771093112328897"><ele>276.3333333333333</ele><time>2026-05-03T10:05:39.001Z</time></trkpt><trkpt lat="40.07972510488569" lon="8.770947860471404"><ele>275.6666666666667</ele><time>2026-05-03T10:05:40.001Z</time></trkpt><trkpt lat="40.07982395421707" lon="8.770802190676623"><ele>275.0</ele><time>2026-05-03T10:05:41.001Z</time></trkpt><trkpt lat="40.07992588171723" lon="8.77065929504547"><ele>275.25</ele><time>2026-05-03T10:05:42.001Z</time></trkpt><trkpt lat="40.08002658346634" lon="8.770515940773222"><ele>275.5</ele><time>2026-05-03T10:05:43.001Z</time></trkpt><trkpt lat="40.0801289527573" lon="8.770381823678171"><ele>275.75</ele><time>2026-05-03T10:05:44.001Z</time></trkpt><trkpt lat="40.08022335989111" lon="8.770259662862191"><ele>276.0</ele><time>2026-05-03T10:05:45.001Z</time></trkpt><trkpt lat="40.080303026260005" lon="8.770131326999621"><ele>276.0</ele><time>2026-05-03T10:05:46.001Z</time></trkpt><trkpt lat="40.08036240603367" lon="8.770000540029626"><ele>276.0</ele><time>2026-05-03T10:05:47.001Z</time></trkpt><trkpt lat="40.080402169503756" lon="8.769859535013387"><ele>276.0</ele><time>2026-05-03T10:05:48.001Z</time></trkpt><trkpt lat="40.08040830780145" lon="8.769702337281256"><ele>276.0</ele><time>2026-05-03T10:05:49.001Z</time></trkpt><trkpt lat="40.080391417588196" lon="8.76955043186989"><ele>276.0</ele><time>2026-05-03T10:05:50.001Z</time></trkpt><trkpt lat="40.080356781818175" lon="8.76940427731612"><ele>276.0</ele><time>2026-05-03T10:05:51.001Z</time></trkpt><trkpt lat="40.080315464020686" lon="8.769259685250264"><ele>276.0</ele><time>2026-05-03T10:05:52.001Z</time></trkpt><trkpt lat="40.08027808391739" lon="8.769107316135953"><ele>276.0</ele><time>2026-05-03T10:05:53.001Z</time></trkpt><trkpt lat="40.08024438869195" lon="8.768961942231202"><ele>275.6666666666667</ele><time>2026-05-03T10:05:54.001Z</time></trkpt><trkpt lat="40.080222838754565" lon="8.768839569121562"><ele>275.3333333333333</ele><time>2026-05-03T10:05:55.001Z</time></trkpt><trkpt lat="40.08022497122627" lon="8.768737223383502"><ele>275.0</ele><time>2026-05-03T10:05:56.001Z</time></trkpt><trkpt lat="40.08024612963332" lon="8.768644910985302"><ele>274.66666666666663</ele><time>2026-05-03T10:05:57.001Z</time></trkpt><trkpt lat="40.080279975176474" lon="8.768564555570052"><ele>274.3333333333333</ele><time>2026-05-03T10:05:58.001Z</time></trkpt><trkpt lat="40.08033519030382" lon="8.768491691798884"><ele>274.0</ele><time>2026-05-03T10:05:59.001Z</time></trkpt><trkpt lat="40.08041184019202" lon="8.768432180396369"><ele>273.8</ele><time>2026-05-03T10:06:00.001Z</time></trkpt><trkpt lat="40.08050146970639" lon="8.768374729391802"><ele>273.59999999999997</ele><time>2026-05-03T10:06:01.001Z</time></trkpt><trkpt lat="40.08059562448747" lon="8.768318968412007"><ele>273.4</ele><time>2026-05-03T10:06:02.001Z</time></trkpt><trkpt lat="40.08068486331283" lon="8.768258482200045"><ele>273.2</ele><time>2026-05-03T10:06:03.001Z</time></trkpt><trkpt lat="40.08076795039502" lon="8.76820861119625"><ele>273.0</ele><time>2026-05-03T10:06:04.001Z</time></trkpt><trkpt lat="40.08085967712965" lon="8.76816314636442"><ele>273.6</ele><time>2026-05-03T10:06:05.001Z</time></trkpt><trkpt lat="40.0809536638438" lon="8.768109569460936"><ele>274.20000000000005</ele><time>2026-05-03T10:06:06.001Z</time></trkpt><trkpt lat="40.081055828570264" lon="8.768034919350503"><ele>274.8</ele><time>2026-05-03T10:06:07Z</time></trkpt><trkpt lat="40.08115929103365" lon="8.767963569689941"><ele>275.40000000000003</ele><time>2026-05-03T10:06:08Z</time></trkpt><trkpt lat="40.081258978428394" lon="8.767900638743763"><ele>276.0</ele><time>2026-05-03T10:06:09Z</time></trkpt><trkpt lat="40.08134445653906" lon="8.767832141580431"><ele>276.0</ele><time>2026-05-03T10:06:10Z</time></trkpt><trkpt lat="40.081424577156746" lon="8.767759767464643"><ele>276.0</ele><time>2026-05-03T10:06:11Z</time></trkpt><trkpt lat="40.081494466921484" lon="8.767681988427222"><ele>276.0</ele><time>2026-05-03T10:06:12Z</time></trkpt><trkpt lat="40.08156237616829" lon="8.767616027702406"><ele>276.0</ele><time>2026-05-03T10:06:13Z</time></trkpt><trkpt lat="40.081628374288236" lon="8.767561258935991"><ele>276.0</ele><time>2026-05-03T10:06:14Z</time></trkpt><trkpt lat="40.08169127073102" lon="8.767511481331702"><ele>276.0</ele><time>2026-05-03T10:06:15Z</time></trkpt><trkpt lat="40.08174651630882" lon="8.767466600235705"><ele>276.6</ele><time>2026-05-03T10:06:16Z</time></trkpt><trkpt lat="40.081801983569555" lon="8.767350289374154"><ele>277.20000000000005</ele><time>2026-05-03T10:06:18Z</time></trkpt><trkpt lat="40.0818178498898" lon="8.767232766881365"><ele>277.79999999999995</ele><time>2026-05-03T10:06:20Z</time></trkpt><trkpt lat="40.08182062675328" lon="8.76712349065454"><ele>278.4</ele><time>2026-05-03T10:06:22Z</time></trkpt><trkpt lat="40.081884159808546" lon="8.76700871913191"><ele>279.0</ele><time>2026-05-03T10:06:24Z</time></trkpt><trkpt lat="40.08199398384817" lon="8.766932456598854"><ele>279.0</ele><time>2026-05-03T10:06:26Z</time></trkpt><trkpt lat="40.08206468586424" lon="8.76691967620606"><ele>279.0</ele><time>2026-05-03T10:06:27Z</time></trkpt><trkpt lat="40.082127620438555" lon="8.766910600313444"><ele>279.0</ele><time>2026-05-03T10:06:28Z</time></trkpt><trkpt lat="40.08223570082087" lon="8.76683676077753"><ele>279.0</ele><time>2026-05-03T10:06:30Z</time></trkpt><trkpt lat="40.08228933533166" lon="8.766770111492239"><ele>279.0</ele><time>2026-05-03T10:06:31Z</time></trkpt><trkpt lat="40.082342556373696" lon="8.766700957266615"><ele>279.0</ele><time>2026-05-03T10:06:32Z</time></trkpt><trkpt lat="40.08239819724585" lon="8.76663039879121"><ele>279.59999999999997</ele><time>2026-05-03T10:06:33Z</time></trkpt><trkpt lat="40.082460299733945" lon="8.766576736371675"><ele>280.2</ele><time>2026-05-03T10:06:34Z</time></trkpt><trkpt lat="40.08251076775758" lon="8.766513670013358"><ele>280.79999999999995</ele><time>2026-05-03T10:06:35Z</time></trkpt><trkpt lat="40.082552991683855" lon="8.76634899455019"><ele>281.4</ele><time>2026-05-03T10:06:37Z</time></trkpt><trkpt lat="40.08256291724431" lon="8.766241861711105"><ele>282.0</ele><time>2026-05-03T10:06:38Z</time></trkpt><trkpt lat="40.082593379531936" lon="8.766124903921057"><ele>281.8</ele><time>2026-05-03T10:06:39Z</time></trkpt><trkpt lat="40.082587625179436" lon="8.765987803845492"><ele>281.6</ele><time>2026-05-03T10:06:40Z</time></trkpt><trkpt lat="40.08256201010914" lon="8.765869756386031"><ele>281.40000000000003</ele><time>2026-05-03T10:06:41Z</time></trkpt><trkpt lat="40.08255261081223" lon="8.765741808011068"><ele>281.2</ele><time>2026-05-03T10:06:42Z</time></trkpt><trkpt lat="40.08254078229159" lon="8.765617717099646"><ele>281.0</ele><time>2026-05-03T10:06:43Z</time></trkpt><trkpt lat="40.082547350879224" lon="8.765497004192705"><ele>281.0</ele><time>2026-05-03T10:06:44Z</time></trkpt><trkpt lat="40.08257492390949" lon="8.765388199589498"><ele>281.0</ele><time>2026-05-03T10:06:45Z</time></trkpt><trkpt lat="40.082611451567395" lon="8.765300612046497"><ele>281.0</ele><time>2026-05-03T10:06:46Z</time></trkpt><trkpt lat="40.08268745022018" lon="8.765192272674813"><ele>281.0</ele><time>2026-05-03T10:06:48Z</time></trkpt><trkpt lat="40.0827441193283" lon="8.765149507732843"><ele>281.0</ele><time>2026-05-03T10:06:49Z</time></trkpt><trkpt lat="40.08282018320046" lon="8.765111342223392"><ele>281.0</ele><time>2026-05-03T10:06:50Z</time></trkpt><trkpt lat="40.08290722446028" lon="8.76507617388972"><ele>281.6</ele><time>2026-05-03T10:06:51Z</time></trkpt><trkpt lat="40.083003202321876" lon="8.765043385363848"><ele>282.20000000000005</ele><time>2026-05-03T10:06:52Z</time></trkpt><trkpt lat="40.083096591013266" lon="8.765002158231653"><ele>282.79999999999995</ele><time>2026-05-03T10:06:53Z</time></trkpt><trkpt lat="40.083180881524356" lon="8.764955688401312"><ele>283.4</ele><time>2026-05-03T10:06:54Z</time></trkpt><trkpt lat="40.08325181254125" lon="8.764882483863428"><ele>284.0</ele><time>2026-05-03T10:06:55Z</time></trkpt><trkpt lat="40.08332011555142" lon="8.764810683451081"><ele>284.33333333333337</ele><time>2026-05-03T10:06:56Z</time></trkpt><trkpt lat="40.08339104167063" lon="8.764745368036298"><ele>284.6666666666667</ele><time>2026-05-03T10:06:57Z</time></trkpt><trkpt lat="40.08344958493227" lon="8.764686803841"><ele>285.0</ele><time>2026-05-03T10:06:58Z</time></trkpt><trkpt lat="40.0834988443808" lon="8.764633700297283"><ele>285.3333333333333</ele><time>2026-05-03T10:06:59Z</time></trkpt><trkpt lat="40.08359078412864" lon="8.764533556521766"><ele>285.66666666666663</ele><time>2026-05-03T10:07:01Z</time></trkpt><trkpt lat="40.0836686214009" lon="8.764458952451363"><ele>286.0</ele><time>2026-05-03T10:07:03Z</time></trkpt><trkpt lat="40.083733168717366" lon="8.764387539882547"><ele>285.66666666666663</ele><time>2026-05-03T10:07:05Z</time></trkpt><trkpt lat="40.08379363392895" lon="8.76431626184728"><ele>285.3333333333333</ele><time>2026-05-03T10:07:07Z</time></trkpt><trkpt lat="40.0838535914439" lon="8.7642520880735"><ele>285.0</ele><time>2026-05-03T10:07:09Z</time></trkpt><trkpt lat="40.08390561731526" lon="8.764178517398639"><ele>284.6666666666667</ele><time>2026-05-03T10:07:12Z</time></trkpt><trkpt lat="40.083941682082695" lon="8.764102296255075"><ele>284.33333333333337</ele><time>2026-05-03T10:07:14Z</time></trkpt><trkpt lat="40.08399600037513" lon="8.76397348521535"><ele>284.0</ele><time>2026-05-03T10:07:16Z</time></trkpt><trkpt lat="40.08403671898766" lon="8.763896032247171"><ele>284.0</ele><time>2026-05-03T10:07:17Z</time></trkpt><trkpt lat="40.08408057538826" lon="8.763796711265334"><ele>284.0</ele><time>2026-05-03T10:07:18Z</time></trkpt><trkpt lat="40.084119710490924" lon="8.763686090489829"><ele>284.0</ele><time>2026-05-03T10:07:19Z</time></trkpt><trkpt lat="40.0841606074033" lon="8.763571182700355"><ele>284.0</ele><time>2026-05-03T10:07:20Z</time></trkpt><trkpt lat="40.08420106340456" lon="8.763450488188452"><ele>284.0</ele><time>2026-05-03T10:07:21Z</time></trkpt><trkpt lat="40.084241253012124" lon="8.763344558131282"><ele>284.59999999999997</ele><time>2026-05-03T10:07:22Z</time></trkpt><trkpt lat="40.08429722110976" lon="8.763258603408238"><ele>285.2</ele><time>2026-05-03T10:07:23Z</time></trkpt><trkpt lat="40.0843443460802" lon="8.763163138606242"><ele>285.79999999999995</ele><time>2026-05-03T10:07:24Z</time></trkpt><trkpt lat="40.08438291658167" lon="8.763057230187346"><ele>286.4</ele><time>2026-05-03T10:07:25Z</time></trkpt><trkpt lat="40.08444030829922" lon="8.762963143641107"><ele>287.0</ele><time>2026-05-03T10:07:26Z</time></trkpt><trkpt lat="40.08450491638072" lon="8.762866411886023"><ele>287.0</ele><time>2026-05-03T10:07:27Z</time></trkpt><trkpt lat="40.084574036456466" lon="8.762770801231454"><ele>287.0</ele><time>2026-05-03T10:07:28Z</time></trkpt><trkpt lat="40.08465573941852" lon="8.762687422946948"><ele>287.0</ele><time>2026-05-03T10:07:29Z</time></trkpt><trkpt lat="40.0847311830935" lon="8.76262400477172"><ele>287.0</ele><time>2026-05-03T10:07:30Z</time></trkpt><trkpt lat="40.08478775137365" lon="8.762569771077407"><ele>287.0</ele><time>2026-05-03T10:07:31Z</time></trkpt><trkpt lat="40.08488167984283" lon="8.762490712077463"><ele>287.0</ele><time>2026-05-03T10:07:33.001Z</time></trkpt><trkpt lat="40.08494680294188" lon="8.762428960414779"><ele>287.0</ele><time>2026-05-03T10:07:35.001Z</time></trkpt><trkpt lat="40.08501395209289" lon="8.762364345107848"><ele>287.0</ele><time>2026-05-03T10:07:38.001Z</time></trkpt><trkpt lat="40.085087023320575" lon="8.762291588503775"><ele>287.0</ele><time>2026-05-03T10:07:56.001Z</time></trkpt><trkpt lat="40.08519418591502" lon="8.762184682176589"><ele>287.0</ele><time>2026-05-03T10:07:58.001Z</time></trkpt><trkpt lat="40.08527346744313" lon="8.762115419492115"><ele>287.0</ele><time>2026-05-03T10:07:59.001Z</time></trkpt><trkpt lat="40.08534456338615" lon="8.762051896789293"><ele>287.0</ele><time>2026-05-03T10:08:00.001Z</time></trkpt><trkpt lat="40.085424672503" lon="8.761976619163661"><ele>287.0</ele><time>2026-05-03T10:08:01.001Z</time></trkpt><trkpt lat="40.08550773297249" lon="8.76189630460052"><ele>287.0</ele><time>2026-05-03T10:08:02.001Z</time></trkpt><trkpt lat="40.08560154621268" lon="8.761806479867822"><ele>287.0</ele><time>2026-05-03T10:08:03.001Z</time></trkpt><trkpt lat="40.08569383076421" lon="8.761718243222717"><ele>286.6</ele><time>2026-05-03T10:08:04.001Z</time></trkpt><trkpt lat="40.08577680552068" lon="8.761634605337425"><ele>286.2</ele><time>2026-05-03T10:08:05.001Z</time></trkpt><trkpt lat="40.085858704379206" lon="8.761556788261263"><ele>285.8</ele><time>2026-05-03T10:08:06.001Z</time></trkpt><trkpt lat="40.08593574729933" lon="8.761490051873698"><ele>285.4</ele><time>2026-05-03T10:08:07.001Z</time></trkpt><trkpt lat="40.08600814005716" lon="8.761425377709863"><ele>285.0</ele><time>2026-05-03T10:08:08.001Z</time></trkpt><trkpt lat="40.0860749497255" lon="8.761363386840515"><ele>285.0</ele><time>2026-05-03T10:08:09.001Z</time></trkpt><trkpt lat="40.08613441874381" lon="8.761305435068017"><ele>285.0</ele><time>2026-05-03T10:08:10.001Z</time></trkpt><trkpt lat="40.08619463411142" lon="8.761249545828615"><ele>285.0</ele><time>2026-05-03T10:08:11.001Z</time></trkpt><trkpt lat="40.08629576649076" lon="8.761153930410611"><ele>285.0</ele><time>2026-05-03T10:08:13Z</time></trkpt><trkpt lat="40.08640135681319" lon="8.761051654385962"><ele>285.0</ele><time>2026-05-03T10:08:15Z</time></trkpt><trkpt lat="40.08646958940238" lon="8.760983081282149"><ele>285.0</ele><time>2026-05-03T10:08:16Z</time></trkpt><trkpt lat="40.0865427114937" lon="8.76091210045098"><ele>285.0</ele><time>2026-05-03T10:08:17Z</time></trkpt><trkpt lat="40.08662366495276" lon="8.760839173405827"><ele>285.0</ele><time>2026-05-03T10:08:18Z</time></trkpt><trkpt lat="40.086710405330216" lon="8.760763578221084"><ele>285.0</ele><time>2026-05-03T10:08:19Z</time></trkpt><trkpt lat="40.086803887741" lon="8.760680247793244"><ele>285.0</ele><time>2026-05-03T10:08:20Z</time></trkpt><trkpt lat="40.08689724037659" lon="8.760591488414299"><ele>285.75</ele><time>2026-05-03T10:08:21Z</time></trkpt><trkpt lat="40.08698946139352" lon="8.760505358832008"><ele>286.5</ele><time>2026-05-03T10:08:22Z</time></trkpt><trkpt lat="40.08708341051832" lon="8.760418112259162"><ele>287.25</ele><time>2026-05-03T10:08:23Z</time></trkpt><trkpt lat="40.087178624404224" lon="8.760324977587349"><ele>288.0</ele><time>2026-05-03T10:08:24Z</time></trkpt><trkpt lat="40.087273640149725" lon="8.760226957467111"><ele>288.25</ele><time>2026-05-03T10:08:25Z</time></trkpt><trkpt lat="40.08737375615128" lon="8.760127293799963"><ele>288.5</ele><time>2026-05-03T10:08:26Z</time></trkpt><trkpt lat="40.087476977801835" lon="8.760026878070965"><ele>288.75</ele><time>2026-05-03T10:08:27Z</time></trkpt><trkpt lat="40.087578883707195" lon="8.759923097456443"><ele>289.0</ele><time>2026-05-03T10:08:28Z</time></trkpt><trkpt lat="40.087683970221796" lon="8.759812215733142"><ele>289.5</ele><time>2026-05-03T10:08:29Z</time></trkpt><trkpt lat="40.08779028673286" lon="8.759689358093715"><ele>290.0</ele><time>2026-05-03T10:08:30Z</time></trkpt><trkpt lat="40.08789824635461" lon="8.75956948406095"><ele>290.5</ele><time>2026-05-03T10:08:31Z</time></trkpt><trkpt lat="40.088008818376444" lon="8.759453015030218"><ele>291.0</ele><time>2026-05-03T10:08:32Z</time></trkpt><trkpt lat="40.08812732368519" lon="8.759343484549143"><ele>291.0</ele><time>2026-05-03T10:08:33Z</time></trkpt><trkpt lat="40.08824075094028" lon="8.759231224962331"><ele>291.0</ele><time>2026-05-03T10:08:34Z</time></trkpt><trkpt lat="40.08835287325943" lon="8.759113137428823"><ele>291.0</ele><time>2026-05-03T10:08:35Z</time></trkpt><trkpt lat="40.08846608687383" lon="8.758995971551068"><ele>291.0</ele><time>2026-05-03T10:08:36Z</time></trkpt><trkpt lat="40.08858007657296" lon="8.758877003864777"><ele>291.0</ele><time>2026-05-03T10:08:37Z</time></trkpt><trkpt lat="40.088703334959376" lon="8.758750990224796"><ele>291.0</ele><time>2026-05-03T10:08:38Z</time></trkpt><trkpt lat="40.08883156617104" lon="8.758617281762566"><ele>291.0</ele><time>2026-05-03T10:08:39Z</time></trkpt><trkpt lat="40.08897097153203" lon="8.758475095458284"><ele>291.3333333333333</ele><time>2026-05-03T10:08:40Z</time></trkpt><trkpt lat="40.08910126862179" lon="8.758342304377845"><ele>291.66666666666663</ele><time>2026-05-03T10:08:41Z</time></trkpt><trkpt lat="40.08923165627014" lon="8.758208459846252"><ele>292.0</ele><time>2026-05-03T10:08:42Z</time></trkpt><trkpt lat="40.08935937755811" lon="8.758075411908655"><ele>292.0</ele><time>2026-05-03T10:08:43Z</time></trkpt><trkpt lat="40.0894836032661" lon="8.757945602430038"><ele>292.0</ele><time>2026-05-03T10:08:44Z</time></trkpt><trkpt lat="40.08960653659546" lon="8.757818852113832"><ele>292.0</ele><time>2026-05-03T10:08:45Z</time></trkpt><trkpt lat="40.089739206410485" lon="8.757689088225982"><ele>291.66666666666663</ele><time>2026-05-03T10:08:46Z</time></trkpt><trkpt lat="40.08987054504215" lon="8.757559537656823"><ele>291.3333333333333</ele><time>2026-05-03T10:08:47Z</time></trkpt><trkpt lat="40.090014498410454" lon="8.757428915579572"><ele>291.0</ele><time>2026-05-03T10:08:48Z</time></trkpt><trkpt lat="40.09015062384753" lon="8.757279515180624"><ele>291.25</ele><time>2026-05-03T10:08:49Z</time></trkpt><trkpt lat="40.090285251976596" lon="8.75712650867315"><ele>291.5</ele><time>2026-05-03T10:08:50Z</time></trkpt><trkpt lat="40.090331639381674" lon="8.757000858999442"><ele>291.75</ele><time>2026-05-03T10:08:51Z</time></trkpt><trkpt lat="40.090442129483165" lon="8.756867169227403"><ele>292.0</ele><time>2026-05-03T10:08:52Z</time></trkpt><trkpt lat="40.09055792602971" lon="8.756746897631217"><ele>292.0</ele><time>2026-05-03T10:08:53Z</time></trkpt><trkpt lat="40.090673383987856" lon="8.75662522800064"><ele>292.0</ele><time>2026-05-03T10:08:54Z</time></trkpt><trkpt lat="40.09077212001162" lon="8.756502799711845"><ele>292.0</ele><time>2026-05-03T10:08:55Z</time></trkpt><trkpt lat="40.09086446232362" lon="8.75638119727385"><ele>292.0</ele><time>2026-05-03T10:08:56Z</time></trkpt><trkpt lat="40.090953285712196" lon="8.756253468466497"><ele>292.0</ele><time>2026-05-03T10:08:57Z</time></trkpt><trkpt lat="40.09103220381206" lon="8.756128472339626"><ele>292.0</ele><time>2026-05-03T10:08:58Z</time></trkpt><trkpt lat="40.09111502910641" lon="8.756008736985711"><ele>292.0</ele><time>2026-05-03T10:08:59Z</time></trkpt><trkpt lat="40.091205868645815" lon="8.75590120474434"><ele>292.0</ele><time>2026-05-03T10:09:00Z</time></trkpt><trkpt lat="40.091305275966874" lon="8.755799927684176"><ele>292.0</ele><time>2026-05-03T10:09:01Z</time></trkpt><trkpt lat="40.09141943266352" lon="8.755700682865543"><ele>292.0</ele><time>2026-05-03T10:09:02Z</time></trkpt><trkpt lat="40.09153940318467" lon="8.75559695518751"><ele>292.0</ele><time>2026-05-03T10:09:03Z</time></trkpt><trkpt lat="40.091662614795965" lon="8.755484730550855"><ele>292.0</ele><time>2026-05-03T10:09:04Z</time></trkpt><trkpt lat="40.091791025565286" lon="8.755372049992339"><ele>292.0</ele><time>2026-05-03T10:09:05Z</time></trkpt><trkpt lat="40.09192010876053" lon="8.755256297455434"><ele>292.0</ele><time>2026-05-03T10:09:06Z</time></trkpt><trkpt lat="40.09205130287923" lon="8.755134506990512"><ele>292.0</ele><time>2026-05-03T10:09:07Z</time></trkpt><trkpt lat="40.09218182605817" lon="8.755012103817958"><ele>292.3333333333333</ele><time>2026-05-03T10:09:08Z</time></trkpt><trkpt lat="40.09230773809339" lon="8.754879507649878"><ele>292.6666666666667</ele><time>2026-05-03T10:09:09Z</time></trkpt><trkpt lat="40.09241448546947" lon="8.75472635544419"><ele>293.0</ele><time>2026-05-03T10:09:10Z</time></trkpt><trkpt lat="40.09248790055894" lon="8.754540391053403"><ele>293.33333333333337</ele><time>2026-05-03T10:09:11Z</time></trkpt><trkpt lat="40.09253755642036" lon="8.754319673777076"><ele>293.6666666666667</ele><time>2026-05-03T10:09:12Z</time></trkpt><trkpt lat="40.092585887310335" lon="8.754073600499655"><ele>294.0</ele><time>2026-05-03T10:09:13Z</time></trkpt><trkpt lat="40.0926349590278" lon="8.753787546638911"><ele>294.0</ele><time>2026-05-03T10:09:14Z</time></trkpt><trkpt lat="40.09270147183603" lon="8.753543776495503"><ele>294.0</ele><time>2026-05-03T10:09:15Z</time></trkpt><trkpt lat="40.09276926631259" lon="8.753301502821326"><ele>294.0</ele><time>2026-05-03T10:09:16Z</time></trkpt><trkpt lat="40.09283662871852" lon="8.753054820334247"><ele>293.6666666666667</ele><time>2026-05-03T10:09:17Z</time></trkpt><trkpt lat="40.09289990860677" lon="8.752820770109373"><ele>293.33333333333337</ele><time>2026-05-03T10:09:18Z</time></trkpt><trkpt lat="40.09296561929017" lon="8.75258526810783"><ele>293.0</ele><time>2026-05-03T10:09:19Z</time></trkpt><trkpt lat="40.09303739543821" lon="8.752357738336014"><ele>292.6666666666667</ele><time>2026-05-03T10:09:20Z</time></trkpt><trkpt lat="40.093116985587756" lon="8.752139451210732"><ele>292.3333333333333</ele><time>2026-05-03T10:09:21Z</time></trkpt><trkpt lat="40.09320368848583" lon="8.751928861819342"><ele>292.0</ele><time>2026-05-03T10:09:22Z</time></trkpt><trkpt lat="40.09330082365837" lon="8.75172689456451"><ele>291.66666666666663</ele><time>2026-05-03T10:09:23Z</time></trkpt><trkpt lat="40.093406641088535" lon="8.751531687681144"><ele>291.3333333333333</ele><time>2026-05-03T10:09:24Z</time></trkpt><trkpt lat="40.093522863097775" lon="8.75134859845516"><ele>291.0</ele><time>2026-05-03T10:09:25Z</time></trkpt><trkpt lat="40.09365076035528" lon="8.75117555686547"><ele>291.3333333333333</ele><time>2026-05-03T10:09:26Z</time></trkpt><trkpt lat="40.0937917491798" lon="8.751008633725467"><ele>291.66666666666663</ele><time>2026-05-03T10:09:27Z</time></trkpt><trkpt lat="40.09394161224088" lon="8.750843154682217"><ele>292.0</ele><time>2026-05-03T10:09:28Z</time></trkpt><trkpt lat="40.09409805920229" lon="8.75068119858324"><ele>292.3333333333333</ele><time>2026-05-03T10:09:29Z</time></trkpt><trkpt lat="40.094257935211644" lon="8.750521797445812"><ele>292.6666666666667</ele><time>2026-05-03T10:09:30.001Z</time></trkpt><trkpt lat="40.094419705493706" lon="8.750366527760166"><ele>293.0</ele><time>2026-05-03T10:09:31.001Z</time></trkpt><trkpt lat="40.094586025220266" lon="8.750213845978973"><ele>293.33333333333337</ele><time>2026-05-03T10:09:32.001Z</time></trkpt><trkpt lat="40.09475392849529" lon="8.750059471576195"><ele>293.6666666666667</ele><time>2026-05-03T10:09:33.001Z</time></trkpt><trkpt lat="40.09492012343143" lon="8.749907682105569"><ele>294.0</ele><time>2026-05-03T10:09:34.001Z</time></trkpt><trkpt lat="40.09508261671509" lon="8.749760305225118"><ele>294.0</ele><time>2026-05-03T10:09:35.001Z</time></trkpt><trkpt lat="40.095241061952805" lon="8.749612336872723"><ele>294.0</ele><time>2026-05-03T10:09:36.001Z</time></trkpt><trkpt lat="40.0953968536529" lon="8.74945698727476"><ele>294.0</ele><time>2026-05-03T10:09:37.001Z</time></trkpt><trkpt lat="40.0955447570675" lon="8.749280706709467"><ele>294.3333333333333</ele><time>2026-05-03T10:09:38.001Z</time></trkpt><trkpt lat="40.09568390983079" lon="8.749078112556585"><ele>294.66666666666663</ele><time>2026-05-03T10:09:39.001Z</time></trkpt><trkpt lat="40.095820883124944" lon="8.748866536472866"><ele>295.0</ele><time>2026-05-03T10:09:40.001Z</time></trkpt><trkpt lat="40.095960593209384" lon="8.748654694079493"><ele>294.66666666666663</ele><time>2026-05-03T10:09:41.001Z</time></trkpt><trkpt lat="40.096100074616544" lon="8.7484432290462"><ele>294.3333333333333</ele><time>2026-05-03T10:09:42.001Z</time></trkpt><trkpt lat="40.09623772968496" lon="8.748229703388839"><ele>294.0</ele><time>2026-05-03T10:09:43.001Z</time></trkpt><trkpt lat="40.09637726198279" lon="8.748011846778303"><ele>294.0</ele><time>2026-05-03T10:09:44.001Z</time></trkpt><trkpt lat="40.09651433257575" lon="8.747799067572881"><ele>294.0</ele><time>2026-05-03T10:09:45.001Z</time></trkpt><trkpt lat="40.09665161335636" lon="8.747583504351521"><ele>294.0</ele><time>2026-05-03T10:09:46.001Z</time></trkpt><trkpt lat="40.096789086298095" lon="8.747377346134083"><ele>292.3333333333333</ele><time>2026-05-03T10:09:47.001Z</time></trkpt><trkpt lat="40.09692639388852" lon="8.747172271428337"><ele>290.66666666666663</ele><time>2026-05-03T10:09:48.001Z</time></trkpt><trkpt lat="40.09705282219149" lon="8.746958947605478"><ele>289.0</ele><time>2026-05-03T10:09:49.001Z</time></trkpt><trkpt lat="40.09716304628649" lon="8.746744355476846"><ele>288.66666666666663</ele><time>2026-05-03T10:09:50.001Z</time></trkpt><trkpt lat="40.0972682032932" lon="8.74651889306545"><ele>288.3333333333333</ele><time>2026-05-03T10:09:51.001Z</time></trkpt><trkpt lat="40.097372270825836" lon="8.746295915840578"><ele>288.0</ele><time>2026-05-03T10:09:52.001Z</time></trkpt><trkpt lat="40.09747732594865" lon="8.746071398676328"><ele>289.3333333333333</ele><time>2026-05-03T10:09:53.001Z</time></trkpt><trkpt lat="40.09758246818523" lon="8.745841472734725"><ele>290.66666666666663</ele><time>2026-05-03T10:09:54.001Z</time></trkpt><trkpt lat="40.09768001007395" lon="8.745625579142022"><ele>292.0</ele><time>2026-05-03T10:09:55.001Z</time></trkpt><trkpt lat="40.09777656732118" lon="8.745416541899491"><ele>291.0</ele><time>2026-05-03T10:09:56.001Z</time></trkpt><trkpt lat="40.09786255892964" lon="8.745208533987437"><ele>290.0</ele><time>2026-05-03T10:09:57.001Z</time></trkpt><trkpt lat="40.09792841985368" lon="8.74499377859501"><ele>289.0</ele><time>2026-05-03T10:09:58.001Z</time></trkpt><trkpt lat="40.0979749251508" lon="8.744772266651031"><ele>289.0</ele><time>2026-05-03T10:09:59.001Z</time></trkpt><trkpt lat="40.098002046144295" lon="8.744566021521353"><ele>289.0</ele><time>2026-05-03T10:10:00.001Z</time></trkpt><trkpt lat="40.098012343755926" lon="8.744368607121205"><ele>289.0</ele><time>2026-05-03T10:10:01.001Z</time></trkpt><trkpt lat="40.09800560161117" lon="8.74418178524054"><ele>289.5</ele><time>2026-05-03T10:10:02.001Z</time></trkpt><trkpt lat="40.09796892931375" lon="8.744027630966736"><ele>290.0</ele><time>2026-05-03T10:10:03.001Z</time></trkpt><trkpt lat="40.09789938783033" lon="8.743876172870683"><ele>290.5</ele><time>2026-05-03T10:10:04.001Z</time></trkpt><trkpt lat="40.09782177405327" lon="8.743748841788259"><ele>291.0</ele><time>2026-05-03T10:10:05.001Z</time></trkpt><trkpt lat="40.097743363909444" lon="8.743608929786335"><ele>292.25</ele><time>2026-05-03T10:10:06.001Z</time></trkpt><trkpt lat="40.09769220184038" lon="8.743456487895411"><ele>293.5</ele><time>2026-05-03T10:10:07.001Z</time></trkpt><trkpt lat="40.09767783574353" lon="8.743296269206933"><ele>294.75</ele><time>2026-05-03T10:10:08.001Z</time></trkpt><trkpt lat="40.09769158176581" lon="8.743129344395312"><ele>296.0</ele><time>2026-05-03T10:10:09.001Z</time></trkpt><trkpt lat="40.09775539070407" lon="8.742968423272185"><ele>296.0</ele><time>2026-05-03T10:10:10.001Z</time></trkpt><trkpt lat="40.097810019698784" lon="8.742779763983714"><ele>296.0</ele><time>2026-05-03T10:10:11.001Z</time></trkpt><trkpt lat="40.09788245129843" lon="8.742606975272443"><ele>296.0</ele><time>2026-05-03T10:10:12.001Z</time></trkpt><trkpt lat="40.09796699779554" lon="8.742412258790216"><ele>297.0</ele><time>2026-05-03T10:10:13.001Z</time></trkpt><trkpt lat="40.09805174636502" lon="8.742198350682173"><ele>298.0</ele><time>2026-05-03T10:10:14.001Z</time></trkpt><trkpt lat="40.098131221170604" lon="8.741983570745308"><ele>299.0</ele><time>2026-05-03T10:10:15.001Z</time></trkpt><trkpt lat="40.09820567334883" lon="8.741768446959487"><ele>299.0</ele><time>2026-05-03T10:10:16.001Z</time></trkpt><trkpt lat="40.09828791615304" lon="8.741542221377665"><ele>299.0</ele><time>2026-05-03T10:10:17.001Z</time></trkpt><trkpt lat="40.098368814165326" lon="8.741320328222002"><ele>299.0</ele><time>2026-05-03T10:10:18.001Z</time></trkpt><trkpt lat="40.0984472046419" lon="8.741089868619726"><ele>300.6666666666667</ele><time>2026-05-03T10:10:19Z</time></trkpt><trkpt lat="40.09852822620584" lon="8.740837044926751"><ele>302.3333333333333</ele><time>2026-05-03T10:10:20Z</time></trkpt><trkpt lat="40.09861129887336" lon="8.740580340252656"><ele>304.0</ele><time>2026-05-03T10:10:21Z</time></trkpt><trkpt lat="40.09869892996823" lon="8.740332438563566"><ele>303.3333333333333</ele><time>2026-05-03T10:10:22Z</time></trkpt><trkpt lat="40.09879530670233" lon="8.740086216218083"><ele>302.6666666666667</ele><time>2026-05-03T10:10:23Z</time></trkpt><trkpt lat="40.09890158335344" lon="8.739851133942434"><ele>302.0</ele><time>2026-05-03T10:10:24Z</time></trkpt><trkpt lat="40.0989970412152" lon="8.739614354219576"><ele>302.6666666666667</ele><time>2026-05-03T10:10:25Z</time></trkpt><trkpt lat="40.099080283440514" lon="8.739369132841167"><ele>303.3333333333333</ele><time>2026-05-03T10:10:26Z</time></trkpt><trkpt lat="40.099147941745755" lon="8.739114026913256"><ele>304.0</ele><time>2026-05-03T10:10:27Z</time></trkpt><trkpt lat="40.0991992664325" lon="8.738856328388596"><ele>304.0</ele><time>2026-05-03T10:10:28Z</time></trkpt><trkpt lat="40.09925116488807" lon="8.738588977258582"><ele>304.0</ele><time>2026-05-03T10:10:29Z</time></trkpt><trkpt lat="40.09930172656572" lon="8.7383221380924"><ele>304.0</ele><time>2026-05-03T10:10:30Z</time></trkpt><trkpt lat="40.09935622198178" lon="8.738050582099918"><ele>305.5</ele><time>2026-05-03T10:10:31Z</time></trkpt><trkpt lat="40.09941809000404" lon="8.737763612907976"><ele>307.0</ele><time>2026-05-03T10:10:32Z</time></trkpt><trkpt lat="40.09947750452148" lon="8.737475834240374"><ele>307.0</ele><time>2026-05-03T10:10:33Z</time></trkpt><trkpt lat="40.09953695979129" lon="8.737182621737748"><ele>307.0</ele><time>2026-05-03T10:10:34Z</time></trkpt><trkpt lat="40.099595614884784" lon="8.73689078641204"><ele>307.3333333333333</ele><time>2026-05-03T10:10:35Z</time></trkpt><trkpt lat="40.099655188251845" lon="8.736604282966788"><ele>307.6666666666667</ele><time>2026-05-03T10:10:36Z</time></trkpt><trkpt lat="40.09972064331809" lon="8.73635874854365"><ele>308.0</ele><time>2026-05-03T10:10:37Z</time></trkpt><trkpt lat="40.09979850296569" lon="8.736049646129114"><ele>308.0</ele><time>2026-05-03T10:10:38Z</time></trkpt><trkpt lat="40.09988041578963" lon="8.735778768827048"><ele>308.0</ele><time>2026-05-03T10:10:39Z</time></trkpt><trkpt lat="40.09996899018319" lon="8.735505446708734"><ele>309.0</ele><time>2026-05-03T10:10:40Z</time></trkpt><trkpt lat="40.100052604106075" lon="8.735228372593765"><ele>310.0</ele><time>2026-05-03T10:10:41Z</time></trkpt><trkpt lat="40.100128018539124" lon="8.734958098157328"><ele>311.0</ele><time>2026-05-03T10:10:42Z</time></trkpt><trkpt lat="40.10020893956549" lon="8.734696350080268"><ele>311.0</ele><time>2026-05-03T10:10:43Z</time></trkpt><trkpt lat="40.10029054190045" lon="8.7344407760347"><ele>311.0</ele><time>2026-05-03T10:10:44Z</time></trkpt><trkpt lat="40.10037547339747" lon="8.73419217651766"><ele>311.0</ele><time>2026-05-03T10:10:45Z</time></trkpt><trkpt lat="40.100476313543744" lon="8.733950920531498"><ele>311.0</ele><time>2026-05-03T10:10:46Z</time></trkpt><trkpt lat="40.10059216676817" lon="8.733718811599301"><ele>311.0</ele><time>2026-05-03T10:10:47Z</time></trkpt><trkpt lat="40.10070839435686" lon="8.73348978356938"><ele>311.0</ele><time>2026-05-03T10:10:48Z</time></trkpt><trkpt lat="40.100818695869634" lon="8.733262008197432"><ele>311.0</ele><time>2026-05-03T10:10:49Z</time></trkpt><trkpt lat="40.100926295514405" lon="8.733033400000911"><ele>311.0</ele><time>2026-05-03T10:10:50Z</time></trkpt><trkpt lat="40.10103593619299" lon="8.732804657535736"><ele>311.0</ele><time>2026-05-03T10:10:51Z</time></trkpt><trkpt lat="40.1011469569763" lon="8.732577006879456"><ele>311.0</ele><time>2026-05-03T10:10:52Z</time></trkpt><trkpt lat="40.10126119995199" lon="8.732345176922086"><ele>311.0</ele><time>2026-05-03T10:10:53Z</time></trkpt><trkpt lat="40.101378617366294" lon="8.732112675246928"><ele>311.0</ele><time>2026-05-03T10:10:54Z</time></trkpt><trkpt lat="40.10149186739878" lon="8.731895189647416"><ele>310.6666666666667</ele><time>2026-05-03T10:10:55Z</time></trkpt><trkpt lat="40.10159325298114" lon="8.731685812397064"><ele>310.3333333333333</ele><time>2026-05-03T10:10:56Z</time></trkpt><trkpt lat="40.101686493080024" lon="8.731476272025372"><ele>310.0</ele><time>2026-05-03T10:10:57Z</time></trkpt><trkpt lat="40.10176836938652" lon="8.731263633570384"><ele>309.3333333333333</ele><time>2026-05-03T10:10:58Z</time></trkpt><trkpt lat="40.10183061850198" lon="8.731040608305559"><ele>308.6666666666667</ele><time>2026-05-03T10:10:59Z</time></trkpt><trkpt lat="40.10187187498721" lon="8.7308005688158"><ele>308.0</ele><time>2026-05-03T10:11:00Z</time></trkpt><trkpt lat="40.10190025152503" lon="8.730549603519245"><ele>308.0</ele><time>2026-05-03T10:11:01Z</time></trkpt><trkpt lat="40.101924998099555" lon="8.730315240798504"><ele>308.0</ele><time>2026-05-03T10:11:02Z</time></trkpt><trkpt lat="40.10195718080455" lon="8.730096599419744"><ele>308.0</ele><time>2026-05-03T10:11:03Z</time></trkpt><trkpt lat="40.10198482725181" lon="8.729890181767452"><ele>309.0</ele><time>2026-05-03T10:11:04Z</time></trkpt><trkpt lat="40.102010253193086" lon="8.729697961529377"><ele>310.0</ele><time>2026-05-03T10:11:05Z</time></trkpt><trkpt lat="40.10204642834565" lon="8.72949839870007"><ele>311.0</ele><time>2026-05-03T10:11:06Z</time></trkpt><trkpt lat="40.10207360942928" lon="8.729276396280845"><ele>312.0</ele><time>2026-05-03T10:11:07Z</time></trkpt><trkpt lat="40.10208666205799" lon="8.729023760627244"><ele>313.0</ele><time>2026-05-03T10:11:08Z</time></trkpt><trkpt lat="40.10206405082329" lon="8.728774603878682"><ele>314.0</ele><time>2026-05-03T10:11:09Z</time></trkpt><trkpt lat="40.1020651395425" lon="8.728519585030352"><ele>314.0</ele><time>2026-05-03T10:11:10Z</time></trkpt><trkpt lat="40.10207822360276" lon="8.728255830460425"><ele>314.0</ele><time>2026-05-03T10:11:11Z</time></trkpt><trkpt lat="40.10211071614016" lon="8.727984254045774"><ele>314.0</ele><time>2026-05-03T10:11:12Z</time></trkpt><trkpt lat="40.10214561433698" lon="8.72773367364078"><ele>314.0</ele><time>2026-05-03T10:11:13Z</time></trkpt><trkpt lat="40.10218438902407" lon="8.72748215515499"><ele>314.0</ele><time>2026-05-03T10:11:14Z</time></trkpt><trkpt lat="40.102231778229545" lon="8.727249149278695"><ele>314.0</ele><time>2026-05-03T10:11:15Z</time></trkpt><trkpt lat="40.102302034051526" lon="8.727033636353436"><ele>314.6666666666667</ele><time>2026-05-03T10:11:16Z</time></trkpt><trkpt lat="40.102396809448614" lon="8.72682953954083"><ele>315.3333333333333</ele><time>2026-05-03T10:11:17Z</time></trkpt><trkpt lat="40.10251853842441" lon="8.726637356813878"><ele>316.0</ele><time>2026-05-03T10:11:18Z</time></trkpt><trkpt lat="40.102655778585486" lon="8.72644716222073"><ele>316.3333333333333</ele><time>2026-05-03T10:11:19Z</time></trkpt><trkpt lat="40.10279732132928" lon="8.726266324621303"><ele>316.6666666666667</ele><time>2026-05-03T10:11:20Z</time></trkpt><trkpt lat="40.10294361622499" lon="8.726069300154876"><ele>317.0</ele><time>2026-05-03T10:11:21Z</time></trkpt><trkpt lat="40.10307251362037" lon="8.725858813826722"><ele>317.0</ele><time>2026-05-03T10:11:22Z</time></trkpt><trkpt lat="40.10317936290067" lon="8.725633074310384"><ele>317.0</ele><time>2026-05-03T10:11:23Z</time></trkpt><trkpt lat="40.10327563646995" lon="8.725379859724635"><ele>317.0</ele><time>2026-05-03T10:11:24Z</time></trkpt><trkpt lat="40.103365419478294" lon="8.725108771725612"><ele>317.5</ele><time>2026-05-03T10:11:25Z</time></trkpt><trkpt lat="40.10345148911958" lon="8.724833584690836"><ele>318.0</ele><time>2026-05-03T10:11:26.001Z</time></trkpt><trkpt lat="40.10354558420015" lon="8.724552888378525"><ele>318.3333333333333</ele><time>2026-05-03T10:11:27.001Z</time></trkpt><trkpt lat="40.10364112330275" lon="8.724283613687808"><ele>318.66666666666663</ele><time>2026-05-03T10:11:28.001Z</time></trkpt><trkpt lat="40.10373370890323" lon="8.72403061102837"><ele>319.0</ele><time>2026-05-03T10:11:29.001Z</time></trkpt><trkpt lat="40.10382572994604" lon="8.723779278595545"><ele>319.3333333333333</ele><time>2026-05-03T10:11:30.001Z</time></trkpt><trkpt lat="40.103915407564365" lon="8.723527798024422"><ele>319.6666666666667</ele><time>2026-05-03T10:11:31.001Z</time></trkpt><trkpt lat="40.10400103527261" lon="8.723280594601091"><ele>320.0</ele><time>2026-05-03T10:11:32.001Z</time></trkpt><trkpt lat="40.10408201793448" lon="8.723029007824612"><ele>320.33333333333337</ele><time>2026-05-03T10:11:33.001Z</time></trkpt><trkpt lat="40.1041500231267" lon="8.722775152012098"><ele>320.6666666666667</ele><time>2026-05-03T10:11:34.001Z</time></trkpt><trkpt lat="40.10420346041445" lon="8.722507889534825"><ele>321.0</ele><time>2026-05-03T10:11:35.001Z</time></trkpt><trkpt lat="40.104238294977094" lon="8.722231030684746"><ele>321.0</ele><time>2026-05-03T10:11:36.001Z</time></trkpt><trkpt lat="40.10425904742319" lon="8.721950325379625"><ele>321.0</ele><time>2026-05-03T10:11:37.001Z</time></trkpt><trkpt lat="40.10427812557058" lon="8.72167181237014"><ele>321.0</ele><time>2026-05-03T10:11:38.001Z</time></trkpt><trkpt lat="40.10429963781993" lon="8.721397439857123"><ele>321.0</ele><time>2026-05-03T10:11:39.001Z</time></trkpt><trkpt lat="40.10432271333086" lon="8.721128723631882"><ele>321.0</ele><time>2026-05-03T10:11:40.001Z</time></trkpt><trkpt lat="40.10434661796731" lon="8.720872224500775"><ele>321.0</ele><time>2026-05-03T10:11:41.001Z</time></trkpt><trkpt lat="40.10435991286911" lon="8.720626172994942"><ele>321.0</ele><time>2026-05-03T10:11:42.001Z</time></trkpt><trkpt lat="40.10437837301664" lon="8.720378613528446"><ele>321.0</ele><time>2026-05-03T10:11:43.001Z</time></trkpt><trkpt lat="40.10434621016502" lon="8.720124255876597"><ele>321.0</ele><time>2026-05-03T10:11:44.001Z</time></trkpt><trkpt lat="40.10427141778335" lon="8.719899861048281"><ele>321.0</ele><time>2026-05-03T10:11:45.001Z</time></trkpt><trkpt lat="40.10422701737774" lon="8.719691871515064"><ele>321.0</ele><time>2026-05-03T10:11:46.001Z</time></trkpt><trkpt lat="40.10420671115701" lon="8.719478826669935"><ele>321.0</ele><time>2026-05-03T10:11:47.001Z</time></trkpt><trkpt lat="40.10422481583029" lon="8.71925037292726"><ele>322.3333333333333</ele><time>2026-05-03T10:11:48.001Z</time></trkpt><trkpt lat="40.10426184399895" lon="8.719028686483064"><ele>323.66666666666663</ele><time>2026-05-03T10:11:49.001Z</time></trkpt><trkpt lat="40.10431053233263" lon="8.718808303698696"><ele>325.0</ele><time>2026-05-03T10:11:50.001Z</time></trkpt><trkpt lat="40.10435359650578" lon="8.718611590070292"><ele>326.25</ele><time>2026-05-03T10:11:51.001Z</time></trkpt><trkpt lat="40.10440915814162" lon="8.718436897616282"><ele>327.5</ele><time>2026-05-03T10:11:52.001Z</time></trkpt><trkpt lat="40.10449197565203" lon="8.718284069510528"><ele>328.75</ele><time>2026-05-03T10:11:53.001Z</time></trkpt><trkpt lat="40.10460655257167" lon="8.718166795735852"><ele>330.0</ele><time>2026-05-03T10:11:54.001Z</time></trkpt><trkpt lat="40.10473962633035" lon="8.718087743452253"><ele>330.0</ele><time>2026-05-03T10:11:55.001Z</time></trkpt><trkpt lat="40.10489217019193" lon="8.718017752317836"><ele>330.0</ele><time>2026-05-03T10:11:56.001Z</time></trkpt><trkpt lat="40.10505170107453" lon="8.717934355990886"><ele>330.0</ele><time>2026-05-03T10:11:57.001Z</time></trkpt><trkpt lat="40.10520844535024" lon="8.717812424359556"><ele>330.6666666666667</ele><time>2026-05-03T10:11:58.001Z</time></trkpt><trkpt lat="40.105366896564355" lon="8.71766377661628"><ele>331.33333333333337</ele><time>2026-05-03T10:11:59.001Z</time></trkpt><trkpt lat="40.10552527072654" lon="8.717499602289859"><ele>332.0</ele><time>2026-05-03T10:12:00.001Z</time></trkpt><trkpt lat="40.10567144191904" lon="8.71734420263155"><ele>332.0</ele><time>2026-05-03T10:12:01.001Z</time></trkpt><trkpt lat="40.1057979200629" lon="8.71717537508412"><ele>332.0</ele><time>2026-05-03T10:12:02.001Z</time></trkpt><trkpt lat="40.10590284260119" lon="8.71697873125274"><ele>332.0</ele><time>2026-05-03T10:12:03.001Z</time></trkpt><trkpt lat="40.10599791963741" lon="8.716745160131104"><ele>332.0</ele><time>2026-05-03T10:12:04.001Z</time></trkpt><trkpt lat="40.10608815086093" lon="8.716499751178509"><ele>332.0</ele><time>2026-05-03T10:12:05.001Z</time></trkpt><trkpt lat="40.10617815662299" lon="8.71626193020101"><ele>332.0</ele><time>2026-05-03T10:12:06.001Z</time></trkpt><trkpt lat="40.10627230778915" lon="8.716049715829454"><ele>332.0</ele><time>2026-05-03T10:12:07.001Z</time></trkpt><trkpt lat="40.10638337698203" lon="8.715860912084295"><ele>332.0</ele><time>2026-05-03T10:12:08.001Z</time></trkpt><trkpt lat="40.10651925434701" lon="8.715688652882545"><ele>332.0</ele><time>2026-05-03T10:12:09.001Z</time></trkpt><trkpt lat="40.10666214666699" lon="8.715528358468607"><ele>332.0</ele><time>2026-05-03T10:12:10.001Z</time></trkpt><trkpt lat="40.10680664190687" lon="8.715383157742666"><ele>332.0</ele><time>2026-05-03T10:12:11.001Z</time></trkpt><trkpt lat="40.106968895586924" lon="8.715265227876897"><ele>332.0</ele><time>2026-05-03T10:12:12.001Z</time></trkpt><trkpt lat="40.10714802613165" lon="8.71517948250595"><ele>331.33333333333337</ele><time>2026-05-03T10:12:13.001Z</time></trkpt><trkpt lat="40.107339929739794" lon="8.715126409776675"><ele>330.6666666666667</ele><time>2026-05-03T10:12:14.001Z</time></trkpt><trkpt lat="40.10753125489943" lon="8.715071790899678"><ele>330.0</ele><time>2026-05-03T10:12:15.001Z</time></trkpt><trkpt lat="40.10771836459547" lon="8.714993888263441"><ele>329.0</ele><time>2026-05-03T10:12:16.001Z</time></trkpt><trkpt lat="40.10789786692563" lon="8.714887644477544"><ele>328.0</ele><time>2026-05-03T10:12:17.001Z</time></trkpt><trkpt lat="40.108060716479265" lon="8.714764161509182"><ele>327.0</ele><time>2026-05-03T10:12:18.001Z</time></trkpt><trkpt lat="40.108210275564275" lon="8.714642017811485"><ele>326.6666666666667</ele><time>2026-05-03T10:12:19.001Z</time></trkpt><trkpt lat="40.1083355664012" lon="8.714523039676472"><ele>326.33333333333337</ele><time>2026-05-03T10:12:20.001Z</time></trkpt><trkpt lat="40.10843598372481" lon="8.71438128253769"><ele>326.0</ele><time>2026-05-03T10:12:21.001Z</time></trkpt><trkpt lat="40.10851113185183" lon="8.714212452270123"><ele>325.6666666666667</ele><time>2026-05-03T10:12:22.001Z</time></trkpt><trkpt lat="40.108550157783014" lon="8.714020948237824"><ele>325.3333333333333</ele><time>2026-05-03T10:12:23.001Z</time></trkpt><trkpt lat="40.10856450241132" lon="8.713809872660413"><ele>325.0</ele><time>2026-05-03T10:12:24.001Z</time></trkpt><trkpt lat="40.10856772676566" lon="8.71358025673088"><ele>324.3333333333333</ele><time>2026-05-03T10:12:25Z</time></trkpt><trkpt lat="40.10856972334022" lon="8.7133359317254"><ele>323.6666666666667</ele><time>2026-05-03T10:12:26Z</time></trkpt><trkpt lat="40.10857448042725" lon="8.713077275356504"><ele>323.0</ele><time>2026-05-03T10:12:27Z</time></trkpt><trkpt lat="40.10858133616003" lon="8.712806203627956"><ele>323.5</ele><time>2026-05-03T10:12:28Z</time></trkpt><trkpt lat="40.108590100014766" lon="8.712517093342768"><ele>324.0</ele><time>2026-05-03T10:12:29Z</time></trkpt><trkpt lat="40.10859842172941" lon="8.712214398810485"><ele>322.5</ele><time>2026-05-03T10:12:30Z</time></trkpt><trkpt lat="40.10860761452843" lon="8.711900310051988"><ele>321.0</ele><time>2026-05-03T10:12:31Z</time></trkpt><trkpt lat="40.108613019251116" lon="8.711587180113634"><ele>321.0</ele><time>2026-05-03T10:12:32Z</time></trkpt><trkpt lat="40.108618639812406" lon="8.71129574119837"><ele>321.0</ele><time>2026-05-03T10:12:33Z</time></trkpt><trkpt lat="40.10862431897943" lon="8.711019250282481"><ele>321.0</ele><time>2026-05-03T10:12:34Z</time></trkpt><trkpt lat="40.10862938199068" lon="8.71075221262617"><ele>320.6666666666667</ele><time>2026-05-03T10:12:35Z</time></trkpt><trkpt lat="40.10863392992992" lon="8.710498064567743"><ele>320.33333333333337</ele><time>2026-05-03T10:12:36Z</time></trkpt><trkpt lat="40.1086418708665" lon="8.710265289313215"><ele>320.0</ele><time>2026-05-03T10:12:37Z</time></trkpt><trkpt lat="40.1086543392987" lon="8.710039816026137"><ele>319.6666666666667</ele><time>2026-05-03T10:12:38Z</time></trkpt><trkpt lat="40.10868560766292" lon="8.709818364349731"><ele>319.3333333333333</ele><time>2026-05-03T10:12:39Z</time></trkpt><trkpt lat="40.10874663746666" lon="8.709612294839031"><ele>319.0</ele><time>2026-05-03T10:12:40Z</time></trkpt><trkpt lat="40.10883757450675" lon="8.709418227780098"><ele>318.0</ele><time>2026-05-03T10:12:41Z</time></trkpt><trkpt lat="40.10895713544444" lon="8.709236590806091"><ele>317.0</ele><time>2026-05-03T10:12:42Z</time></trkpt><trkpt lat="40.109094665680225" lon="8.709066249549696"><ele>316.0</ele><time>2026-05-03T10:12:43Z</time></trkpt><trkpt lat="40.10923511493527" lon="8.7088919057903"><ele>315.3333333333333</ele><time>2026-05-03T10:12:44Z</time></trkpt><trkpt lat="40.10937658340294" lon="8.708700116292656"><ele>314.6666666666667</ele><time>2026-05-03T10:12:45Z</time></trkpt><trkpt lat="40.109505014362675" lon="8.70849863612971"><ele>314.0</ele><time>2026-05-03T10:12:46Z</time></trkpt><trkpt lat="40.10962125095234" lon="8.708280604927788"><ele>313.6666666666667</ele><time>2026-05-03T10:12:47Z</time></trkpt><trkpt lat="40.109715399940896" lon="8.708043960182257"><ele>313.3333333333333</ele><time>2026-05-03T10:12:48Z</time></trkpt><trkpt lat="40.10979960480506" lon="8.707782158538198"><ele>313.0</ele><time>2026-05-03T10:12:49Z</time></trkpt><trkpt lat="40.10987842438465" lon="8.707507993174453"><ele>313.5</ele><time>2026-05-03T10:12:50Z</time></trkpt><trkpt lat="40.10995672472696" lon="8.707225878118612"><ele>314.0</ele><time>2026-05-03T10:12:51Z</time></trkpt><trkpt lat="40.11003958414349" lon="8.706948317504164"><ele>313.6666666666667</ele><time>2026-05-03T10:12:52Z</time></trkpt><trkpt lat="40.110133366939" lon="8.706683866861754"><ele>313.3333333333333</ele><time>2026-05-03T10:12:53Z</time></trkpt><trkpt lat="40.11024289919492" lon="8.70644589418837"><ele>313.0</ele><time>2026-05-03T10:12:54Z</time></trkpt><trkpt lat="40.11037424604937" lon="8.706222733846793"><ele>313.3333333333333</ele><time>2026-05-03T10:12:55Z</time></trkpt><trkpt lat="40.11052237716715" lon="8.70601061611943"><ele>313.6666666666667</ele><time>2026-05-03T10:12:56Z</time></trkpt><trkpt lat="40.11068069346477" lon="8.705806637456503"><ele>314.0</ele><time>2026-05-03T10:12:57Z</time></trkpt><trkpt lat="40.11084250413106" lon="8.70560448976515"><ele>314.0</ele><time>2026-05-03T10:12:58Z</time></trkpt><trkpt lat="40.11100362091864" lon="8.705402967871576"><ele>314.0</ele><time>2026-05-03T10:12:59Z</time></trkpt><trkpt lat="40.11115537672339" lon="8.705204534418137"><ele>314.0</ele><time>2026-05-03T10:13:00Z</time></trkpt><trkpt lat="40.11129984395211" lon="8.705010317137313"><ele>314.0</ele><time>2026-05-03T10:13:01Z</time></trkpt><trkpt lat="40.1114364706284" lon="8.704807627992569"><ele>314.0</ele><time>2026-05-03T10:13:02Z</time></trkpt><trkpt lat="40.11155984275682" lon="8.704587288832077"><ele>314.0</ele><time>2026-05-03T10:13:03Z</time></trkpt><trkpt lat="40.11167115983762" lon="8.704363521690084"><ele>315.0</ele><time>2026-05-03T10:13:04Z</time></trkpt><trkpt lat="40.11177488901372" lon="8.704146918567652"><ele>316.0</ele><time>2026-05-03T10:13:05Z</time></trkpt><trkpt lat="40.111886102094935" lon="8.703956149879042"><ele>317.0</ele><time>2026-05-03T10:13:06Z</time></trkpt><trkpt lat="40.11201171166882" lon="8.703796319438522"><ele>317.0</ele><time>2026-05-03T10:13:07Z</time></trkpt><trkpt lat="40.11215444516684" lon="8.703660562727169"><ele>317.0</ele><time>2026-05-03T10:13:08Z</time></trkpt><trkpt lat="40.11231263671679" lon="8.703533378993441"><ele>317.0</ele><time>2026-05-03T10:13:09Z</time></trkpt><trkpt lat="40.1124755393156" lon="8.703409850076072"><ele>316.0</ele><time>2026-05-03T10:13:10Z</time></trkpt><trkpt lat="40.112636895777705" lon="8.703278850458696"><ele>315.0</ele><time>2026-05-03T10:13:11Z</time></trkpt><trkpt lat="40.112792378354094" lon="8.703140236453477"><ele>314.0</ele><time>2026-05-03T10:13:12Z</time></trkpt><trkpt lat="40.11293700279225" lon="8.702982431108412"><ele>314.0</ele><time>2026-05-03T10:13:13Z</time></trkpt><trkpt lat="40.11306658785748" lon="8.70279969426301"><ele>314.0</ele><time>2026-05-03T10:13:14Z</time></trkpt><trkpt lat="40.113172364706" lon="8.702601764230442"><ele>314.0</ele><time>2026-05-03T10:13:15Z</time></trkpt><trkpt lat="40.113266621587265" lon="8.702399413231571"><ele>313.33333333333337</ele><time>2026-05-03T10:13:16Z</time></trkpt><trkpt lat="40.113358859081664" lon="8.702207380739152"><ele>312.6666666666667</ele><time>2026-05-03T10:13:17Z</time></trkpt><trkpt lat="40.11345992733165" lon="8.702034898151958"><ele>312.0</ele><time>2026-05-03T10:13:18Z</time></trkpt><trkpt lat="40.113573319292726" lon="8.70188912519018"><ele>310.3333333333333</ele><time>2026-05-03T10:13:19Z</time></trkpt><trkpt lat="40.113710746805324" lon="8.701767878813351"><ele>308.66666666666663</ele><time>2026-05-03T10:13:20Z</time></trkpt><trkpt lat="40.11386543600413" lon="8.701673839794017"><ele>307.0</ele><time>2026-05-03T10:13:21Z</time></trkpt><trkpt lat="40.11403054591411" lon="8.701624892469505"><ele>306.0</ele><time>2026-05-03T10:13:22Z</time></trkpt><trkpt lat="40.114203782207085" lon="8.7016212368518"><ele>305.0</ele><time>2026-05-03T10:13:23Z</time></trkpt><trkpt lat="40.11437665007362" lon="8.701644502082353"><ele>304.0</ele><time>2026-05-03T10:13:24Z</time></trkpt><trkpt lat="40.11454056777054" lon="8.701663355987659"><ele>304.0</ele><time>2026-05-03T10:13:25Z</time></trkpt><trkpt lat="40.1146957400404" lon="8.701661543494035"><ele>304.0</ele><time>2026-05-03T10:13:26Z</time></trkpt><trkpt lat="40.11484294875095" lon="8.701631441211182"><ele>304.0</ele><time>2026-05-03T10:13:27Z</time></trkpt><trkpt lat="40.11497694758213" lon="8.701561839392399"><ele>304.0</ele><time>2026-05-03T10:13:28.001Z</time></trkpt><trkpt lat="40.1150931471715" lon="8.70145322871748"><ele>303.3333333333333</ele><time>2026-05-03T10:13:29.001Z</time></trkpt><trkpt lat="40.11518852554186" lon="8.701311393449654"><ele>302.6666666666667</ele><time>2026-05-03T10:13:30.001Z</time></trkpt><trkpt lat="40.11527136505086" lon="8.701134899423426"><ele>302.0</ele><time>2026-05-03T10:13:31.001Z</time></trkpt><trkpt lat="40.11535251925997" lon="8.700931164817787"><ele>299.6666666666667</ele><time>2026-05-03T10:13:32.001Z</time></trkpt><trkpt lat="40.11545243628046" lon="8.700731962244207"><ele>297.3333333333333</ele><time>2026-05-03T10:13:33.001Z</time></trkpt><trkpt lat="40.11557544355143" lon="8.70053746436975"><ele>295.0</ele><time>2026-05-03T10:13:34.001Z</time></trkpt><trkpt lat="40.115708800115584" lon="8.700340249893683"><ele>294.66666666666663</ele><time>2026-05-03T10:13:35.001Z</time></trkpt><trkpt lat="40.11584623409541" lon="8.70013224350406"><ele>294.3333333333333</ele><time>2026-05-03T10:13:36.001Z</time></trkpt><trkpt lat="40.11598507294818" lon="8.699920896615609"><ele>294.0</ele><time>2026-05-03T10:13:37.001Z</time></trkpt><trkpt lat="40.116130498023594" lon="8.699714617774907"><ele>294.0</ele><time>2026-05-03T10:13:38.001Z</time></trkpt><trkpt lat="40.11628506627725" lon="8.699528456096996"><ele>294.0</ele><time>2026-05-03T10:13:39.001Z</time></trkpt><trkpt lat="40.11644467234907" lon="8.69936968389285"><ele>294.0</ele><time>2026-05-03T10:13:40.001Z</time></trkpt><trkpt lat="40.11660409830138" lon="8.699244800041008"><ele>297.3333333333333</ele><time>2026-05-03T10:13:41.001Z</time></trkpt><trkpt lat="40.11675774746869" lon="8.699144379109644"><ele>300.66666666666663</ele><time>2026-05-03T10:13:42.001Z</time></trkpt><trkpt lat="40.116897419854574" lon="8.699049334007151"><ele>304.0</ele><time>2026-05-03T10:13:43.001Z</time></trkpt><trkpt lat="40.117016116583095" lon="8.698921752552918"><ele>304.0</ele><time>2026-05-03T10:13:44.001Z</time></trkpt><trkpt lat="40.117105995738186" lon="8.698757732431972"><ele>304.0</ele><time>2026-05-03T10:13:45.001Z</time></trkpt><trkpt lat="40.117171442597254" lon="8.698563912346412"><ele>304.0</ele><time>2026-05-03T10:13:46.001Z</time></trkpt><trkpt lat="40.11722778591265" lon="8.698354247693965"><ele>305.0</ele><time>2026-05-03T10:13:47.001Z</time></trkpt><trkpt lat="40.11728132377593" lon="8.698141305641382"><ele>306.0</ele><time>2026-05-03T10:13:48.001Z</time></trkpt><trkpt lat="40.1173443795039" lon="8.697930920619536"><ele>307.0</ele><time>2026-05-03T10:13:49.001Z</time></trkpt><trkpt lat="40.11742470578582" lon="8.697734252152085"><ele>309.3333333333333</ele><time>2026-05-03T10:13:50.001Z</time></trkpt><trkpt lat="40.117525194840766" lon="8.697561125866205"><ele>311.6666666666667</ele><time>2026-05-03T10:13:51.001Z</time></trkpt><trkpt lat="40.117643579974185" lon="8.697409524741277"><ele>314.0</ele><time>2026-05-03T10:13:52.001Z</time></trkpt><trkpt lat="40.117776284627396" lon="8.697278048455374"><ele>314.0</ele><time>2026-05-03T10:13:53.001Z</time></trkpt><trkpt lat="40.117914381328134" lon="8.697155492883622"><ele>314.0</ele><time>2026-05-03T10:13:54.001Z</time></trkpt><trkpt lat="40.118054054918815" lon="8.697035109420955"><ele>314.0</ele><time>2026-05-03T10:13:55.001Z</time></trkpt><trkpt lat="40.11819197949843" lon="8.696910111245886"><ele>317.33333333333337</ele><time>2026-05-03T10:13:56.001Z</time></trkpt><trkpt lat="40.11832335196862" lon="8.696768451992403"><ele>320.6666666666667</ele><time>2026-05-03T10:13:57.001Z</time></trkpt><trkpt lat="40.11843551857578" lon="8.696597712928867"><ele>324.0</ele><time>2026-05-03T10:13:58.001Z</time></trkpt><trkpt lat="40.11852613499607" lon="8.696398050487243"><ele>324.0</ele><time>2026-05-03T10:13:59.001Z</time></trkpt><trkpt lat="40.118606138874924" lon="8.696177144045674"><ele>324.0</ele><time>2026-05-03T10:14:00.001Z</time></trkpt><trkpt lat="40.11869167047007" lon="8.695943614726625"><ele>324.0</ele><time>2026-05-03T10:14:01.001Z</time></trkpt><trkpt lat="40.11879285091809" lon="8.695723559873837"><ele>325.0</ele><time>2026-05-03T10:14:02.001Z</time></trkpt><trkpt lat="40.11890122480269" lon="8.69553104894146"><ele>326.0</ele><time>2026-05-03T10:14:03.001Z</time></trkpt><trkpt lat="40.11902548314641" lon="8.695360305288423"><ele>327.0</ele><time>2026-05-03T10:14:04.001Z</time></trkpt><trkpt lat="40.119173872649846" lon="8.69522464166837"><ele>330.0</ele><time>2026-05-03T10:14:05.001Z</time></trkpt><trkpt lat="40.11933611356295" lon="8.695114328410273"><ele>333.0</ele><time>2026-05-03T10:14:06.001Z</time></trkpt><trkpt lat="40.119506352401295" lon="8.695025873648124"><ele>336.0</ele><time>2026-05-03T10:14:07.001Z</time></trkpt><trkpt lat="40.11968254074118" lon="8.694971819053064"><ele>336.0</ele><time>2026-05-03T10:14:08.001Z</time></trkpt><trkpt lat="40.11986581886688" lon="8.694938397161778"><ele>336.0</ele><time>2026-05-03T10:14:09.001Z</time></trkpt><trkpt lat="40.12004879646461" lon="8.694903691270756"><ele>336.0</ele><time>2026-05-03T10:14:10.001Z</time></trkpt><trkpt lat="40.12021520645089" lon="8.694858663840582"><ele>337.3333333333333</ele><time>2026-05-03T10:14:11.001Z</time></trkpt><trkpt lat="40.12036885178746" lon="8.694789766125929"><ele>338.66666666666663</ele><time>2026-05-03T10:14:12.001Z</time></trkpt><trkpt lat="40.12050290965616" lon="8.694687063896808"><ele>340.0</ele><time>2026-05-03T10:14:13.001Z</time></trkpt><trkpt lat="40.12062576073653" lon="8.694541838084367"><ele>342.0</ele><time>2026-05-03T10:14:14.001Z</time></trkpt><trkpt lat="40.120746729491344" lon="8.694373999620703"><ele>344.0</ele><time>2026-05-03T10:14:15.001Z</time></trkpt><trkpt lat="40.12086704344283" lon="8.694195924914865"><ele>346.0</ele><time>2026-05-03T10:14:16.001Z</time></trkpt><trkpt lat="40.12098082756983" lon="8.694004968453221"><ele>346.0</ele><time>2026-05-03T10:14:17.001Z</time></trkpt><trkpt lat="40.121086586818926" lon="8.693793774140403"><ele>346.0</ele><time>2026-05-03T10:14:18.001Z</time></trkpt><trkpt lat="40.12119291624968" lon="8.693561577799276"><ele>346.0</ele><time>2026-05-03T10:14:19.001Z</time></trkpt><trkpt lat="40.12129619555037" lon="8.693318656102186"><ele>347.5</ele><time>2026-05-03T10:14:20.001Z</time></trkpt><trkpt lat="40.121399962726315" lon="8.69304747794604"><ele>349.0</ele><time>2026-05-03T10:14:21.001Z</time></trkpt><trkpt lat="40.12149525878662" lon="8.69275301710876"><ele>350.0</ele><time>2026-05-03T10:14:22.001Z</time></trkpt><trkpt lat="40.12160125419323" lon="8.692465357536609"><ele>351.0</ele><time>2026-05-03T10:14:23.001Z</time></trkpt><trkpt lat="40.12170789728927" lon="8.692153234864302"><ele>350.0</ele><time>2026-05-03T10:14:24.001Z</time></trkpt><trkpt lat="40.121804206151616" lon="8.691844562300481"><ele>349.0</ele><time>2026-05-03T10:14:25.001Z</time></trkpt><trkpt lat="40.12188874361108" lon="8.691555278249588"><ele>349.0</ele><time>2026-05-03T10:14:26.001Z</time></trkpt><trkpt lat="40.12198755274093" lon="8.691295998618479"><ele>349.0</ele><time>2026-05-03T10:14:27.001Z</time></trkpt><trkpt lat="40.122070577185774" lon="8.691031057636877"><ele>349.0</ele><time>2026-05-03T10:14:28.001Z</time></trkpt><trkpt lat="40.122153275870204" lon="8.690763762698099"><ele>349.5</ele><time>2026-05-03T10:14:29.001Z</time></trkpt><trkpt lat="40.122237033580035" lon="8.69047422747554"><ele>350.0</ele><time>2026-05-03T10:14:30.001Z</time></trkpt><trkpt lat="40.12234273257509" lon="8.690190893424596"><ele>353.0</ele><time>2026-05-03T10:14:31Z</time></trkpt><trkpt lat="40.122443658891534" lon="8.689901985439512"><ele>356.0</ele><time>2026-05-03T10:14:32Z</time></trkpt><trkpt lat="40.122537158817494" lon="8.689622924955469"><ele>357.6666666666667</ele><time>2026-05-03T10:14:33Z</time></trkpt><trkpt lat="40.12262738324693" lon="8.68935798643621"><ele>359.3333333333333</ele><time>2026-05-03T10:14:34Z</time></trkpt><trkpt lat="40.122714408689696" lon="8.689114299381512"><ele>361.0</ele><time>2026-05-03T10:14:35Z</time></trkpt><trkpt lat="40.12279246704865" lon="8.688899630782801"><ele>361.0</ele><time>2026-05-03T10:14:36Z</time></trkpt><trkpt lat="40.122852424675294" lon="8.68870865023716"><ele>361.0</ele><time>2026-05-03T10:14:37Z</time></trkpt><trkpt lat="40.12287719722253" lon="8.688523320126402"><ele>361.0</ele><time>2026-05-03T10:14:38Z</time></trkpt><trkpt lat="40.122865294422006" lon="8.68832403498526"><ele>363.66666666666663</ele><time>2026-05-03T10:14:39Z</time></trkpt><trkpt lat="40.122818590817346" lon="8.68811430255548"><ele>366.3333333333333</ele><time>2026-05-03T10:14:40Z</time></trkpt><trkpt lat="40.122752030769874" lon="8.68788141631458"><ele>369.0</ele><time>2026-05-03T10:14:41Z</time></trkpt><trkpt lat="40.12267982312148" lon="8.687649542566929"><ele>371.6666666666667</ele><time>2026-05-03T10:14:42Z</time></trkpt><trkpt lat="40.12258852053715" lon="8.687434710476943"><ele>374.33333333333337</ele><time>2026-05-03T10:14:43Z</time></trkpt><trkpt lat="40.12249249612209" lon="8.687228276116779"><ele>377.0</ele><time>2026-05-03T10:14:44Z</time></trkpt><trkpt lat="40.12241377907524" lon="8.687031001376496"><ele>378.0</ele><time>2026-05-03T10:14:45Z</time></trkpt><trkpt lat="40.122381844498896" lon="8.686839467065173"><ele>379.0</ele><time>2026-05-03T10:14:46Z</time></trkpt><trkpt lat="40.122439155610635" lon="8.68669330524118"><ele>380.0</ele><time>2026-05-03T10:14:47Z</time></trkpt><trkpt lat="40.12248912180668" lon="8.686477110412024"><ele>381.0</ele><time>2026-05-03T10:14:48Z</time></trkpt><trkpt lat="40.12256523340152" lon="8.686275641298105"><ele>384.0</ele><time>2026-05-03T10:14:49Z</time></trkpt><trkpt lat="40.122649119646816" lon="8.68606287074021"><ele>387.0</ele><time>2026-05-03T10:14:50Z</time></trkpt><trkpt lat="40.12274243140712" lon="8.685853523780104"><ele>390.0</ele><time>2026-05-03T10:14:51Z</time></trkpt><trkpt lat="40.122855252401976" lon="8.685644134843148"><ele>390.0</ele><time>2026-05-03T10:14:52Z</time></trkpt><trkpt lat="40.122987630119354" lon="8.685448934571644"><ele>390.0</ele><time>2026-05-03T10:14:53Z</time></trkpt><trkpt lat="40.12313139670729" lon="8.685254058769813"><ele>390.0</ele><time>2026-05-03T10:14:54Z</time></trkpt><trkpt lat="40.12328261531266" lon="8.685053730989534"><ele>393.0</ele><time>2026-05-03T10:14:55Z</time></trkpt><trkpt lat="40.12342904723655" lon="8.684857524527896"><ele>396.0</ele><time>2026-05-03T10:14:56Z</time></trkpt><trkpt lat="40.12358286526656" lon="8.684659130876854"><ele>399.0</ele><time>2026-05-03T10:14:57Z</time></trkpt><trkpt lat="40.12375646953973" lon="8.684459332069043"><ele>401.5</ele><time>2026-05-03T10:14:58Z</time></trkpt><trkpt lat="40.12394276189436" lon="8.684254097627468"><ele>404.0</ele><time>2026-05-03T10:14:59Z</time></trkpt><trkpt lat="40.124122064805" lon="8.68405455604419"><ele>405.3333333333333</ele><time>2026-05-03T10:15:00Z</time></trkpt><trkpt lat="40.124289449412004" lon="8.683863181132256"><ele>406.66666666666663</ele><time>2026-05-03T10:15:01Z</time></trkpt><trkpt lat="40.12445464045166" lon="8.683663450494281"><ele>408.0</ele><time>2026-05-03T10:15:02Z</time></trkpt><trkpt lat="40.12460935085214" lon="8.683454205274783"><ele>410.33333333333337</ele><time>2026-05-03T10:15:03Z</time></trkpt><trkpt lat="40.12474998503432" lon="8.683253706303107"><ele>412.6666666666667</ele><time>2026-05-03T10:15:04Z</time></trkpt><trkpt lat="40.124880369592766" lon="8.683065735468556"><ele>415.0</ele><time>2026-05-03T10:15:05Z</time></trkpt><trkpt lat="40.12500527285578" lon="8.68288601263773"><ele>418.6666666666667</ele><time>2026-05-03T10:15:06Z</time></trkpt><trkpt lat="40.12511888031266" lon="8.682712263179944"><ele>422.33333333333337</ele><time>2026-05-03T10:15:07Z</time></trkpt><trkpt lat="40.12522610960279" lon="8.682537088488312"><ele>426.0</ele><time>2026-05-03T10:15:08Z</time></trkpt><trkpt lat="40.12532326660727" lon="8.682351917195579"><ele>426.0</ele><time>2026-05-03T10:15:09Z</time></trkpt><trkpt lat="40.1254347816593" lon="8.682151114030411"><ele>426.0</ele><time>2026-05-03T10:15:10Z</time></trkpt><trkpt lat="40.125546679085204" lon="8.681965775546422"><ele>426.0</ele><time>2026-05-03T10:15:11Z</time></trkpt><trkpt lat="40.125652904652085" lon="8.68179755838912"><ele>427.33333333333337</ele><time>2026-05-03T10:15:12Z</time></trkpt><trkpt lat="40.12577126687237" lon="8.681655838185304"><ele>428.6666666666667</ele><time>2026-05-03T10:15:13Z</time></trkpt><trkpt lat="40.12590315817238" lon="8.681537394409412"><ele>430.0</ele><time>2026-05-03T10:15:14Z</time></trkpt><trkpt lat="40.12605578170348" lon="8.681439946981856"><ele>430.0</ele><time>2026-05-03T10:15:15Z</time></trkpt><trkpt lat="40.12621952413458" lon="8.681360892274386"><ele>430.0</ele><time>2026-05-03T10:15:16Z</time></trkpt><trkpt lat="40.12638871311565" lon="8.681284965441163"><ele>430.0</ele><time>2026-05-03T10:15:17Z</time></trkpt><trkpt lat="40.12656587811186" lon="8.681196125546306"><ele>430.0</ele><time>2026-05-03T10:15:18Z</time></trkpt><trkpt lat="40.12674425521515" lon="8.68110469443872"><ele>430.0</ele><time>2026-05-03T10:15:19Z</time></trkpt><trkpt lat="40.126922949555805" lon="8.681013995280296"><ele>430.0</ele><time>2026-05-03T10:15:20Z</time></trkpt><trkpt lat="40.1271067102114" lon="8.680923468798433"><ele>429.6666666666667</ele><time>2026-05-03T10:15:21Z</time></trkpt><trkpt lat="40.12729177501007" lon="8.680832849028072"><ele>429.33333333333337</ele><time>2026-05-03T10:15:22Z</time></trkpt><trkpt lat="40.12748120851884" lon="8.680736862334369"><ele>429.0</ele><time>2026-05-03T10:15:23Z</time></trkpt><trkpt lat="40.12766761620259" lon="8.680633515503862"><ele>429.0</ele><time>2026-05-03T10:15:24Z</time></trkpt><trkpt lat="40.12785010280899" lon="8.680517858517039"><ele>429.0</ele><time>2026-05-03T10:15:25Z</time></trkpt><trkpt lat="40.12803080762417" lon="8.68037894635943"><ele>429.0</ele><time>2026-05-03T10:15:26.001Z</time></trkpt><trkpt lat="40.128203388904424" lon="8.680224903998468"><ele>430.66666666666663</ele><time>2026-05-03T10:15:27.001Z</time></trkpt><trkpt lat="40.12837456828534" lon="8.680057529062859"><ele>432.3333333333333</ele><time>2026-05-03T10:15:28.001Z</time></trkpt><trkpt lat="40.12854219763831" lon="8.67989372240588"><ele>434.0</ele><time>2026-05-03T10:15:29.001Z</time></trkpt><trkpt lat="40.128709615923285" lon="8.67973161866908"><ele>434.0</ele><time>2026-05-03T10:15:30.001Z</time></trkpt><trkpt lat="40.12887316032869" lon="8.679573139873398"><ele>434.0</ele><time>2026-05-03T10:15:31.001Z</time></trkpt><trkpt lat="40.12903895446454" lon="8.679415858655348"><ele>434.0</ele><time>2026-05-03T10:15:32.001Z</time></trkpt><trkpt lat="40.12920481257822" lon="8.67925609186366"><ele>436.3333333333333</ele><time>2026-05-03T10:15:33.001Z</time></trkpt><trkpt lat="40.12937486986032" lon="8.67908704998763"><ele>438.66666666666663</ele><time>2026-05-03T10:15:34.001Z</time></trkpt><trkpt lat="40.12954072103758" lon="8.67891086803607"><ele>441.0</ele><time>2026-05-03T10:15:35.001Z</time></trkpt><trkpt lat="40.1297044787601" lon="8.678725436626037"><ele>440.66666666666663</ele><time>2026-05-03T10:15:36.001Z</time></trkpt><trkpt lat="40.12986962395423" lon="8.678537090634176"><ele>440.3333333333333</ele><time>2026-05-03T10:15:37.001Z</time></trkpt><trkpt lat="40.13003538360467" lon="8.678340958731987"><ele>440.0</ele><time>2026-05-03T10:15:38.001Z</time></trkpt><trkpt lat="40.130195299153456" lon="8.678148640038978"><ele>442.3333333333333</ele><time>2026-05-03T10:15:39.001Z</time></trkpt><trkpt lat="40.130343038378534" lon="8.67797185835442"><ele>444.66666666666663</ele><time>2026-05-03T10:15:40.001Z</time></trkpt><trkpt lat="40.13050848018308" lon="8.67776739041011"><ele>447.0</ele><time>2026-05-03T10:15:41.001Z</time></trkpt><trkpt lat="40.13065110850101" lon="8.677593842041082"><ele>449.66666666666663</ele><time>2026-05-03T10:15:42.001Z</time></trkpt><trkpt lat="40.13078686539637" lon="8.67739907216696"><ele>452.3333333333333</ele><time>2026-05-03T10:15:43.001Z</time></trkpt><trkpt lat="40.13090432197753" lon="8.6771807666678"><ele>455.0</ele><time>2026-05-03T10:15:44.001Z</time></trkpt><trkpt lat="40.13101846883897" lon="8.676945201778286"><ele>456.0</ele><time>2026-05-03T10:15:45.001Z</time></trkpt><trkpt lat="40.13113539351566" lon="8.676717956786728"><ele>457.0</ele><time>2026-05-03T10:15:46.001Z</time></trkpt><trkpt lat="40.13126067052648" lon="8.676501834980124"><ele>458.0</ele><time>2026-05-03T10:15:47.001Z</time></trkpt><trkpt lat="40.13138338435594" lon="8.676291950606116"><ele>459.0</ele><time>2026-05-03T10:15:48.001Z</time></trkpt><trkpt lat="40.13150273326605" lon="8.676090289904012"><ele>460.0</ele><time>2026-05-03T10:15:49.001Z</time></trkpt><trkpt lat="40.13161653607166" lon="8.675900689306262"><ele>461.0</ele><time>2026-05-03T10:15:50.001Z</time></trkpt><trkpt lat="40.13172445154053" lon="8.675712267193848"><ele>463.0</ele><time>2026-05-03T10:15:51.001Z</time></trkpt><trkpt lat="40.13183067961796" lon="8.67551687425319"><ele>465.0</ele><time>2026-05-03T10:15:52.001Z</time></trkpt><trkpt lat="40.131933779521134" lon="8.675313209010309"><ele>467.0</ele><time>2026-05-03T10:15:53.001Z</time></trkpt><trkpt lat="40.132034422931525" lon="8.675097909015047"><ele>467.3333333333333</ele><time>2026-05-03T10:15:54.001Z</time></trkpt><trkpt lat="40.13213779331762" lon="8.67487517284054"><ele>467.66666666666663</ele><time>2026-05-03T10:15:55.001Z</time></trkpt><trkpt lat="40.13224948762938" lon="8.674646165568944"><ele>468.0</ele><time>2026-05-03T10:15:56.001Z</time></trkpt><trkpt lat="40.13236466219051" lon="8.67441105549465"><ele>469.5</ele><time>2026-05-03T10:15:57.001Z</time></trkpt><trkpt lat="40.13250177731562" lon="8.674174805536289"><ele>471.0</ele><time>2026-05-03T10:15:58.001Z</time></trkpt><trkpt lat="40.13263901515902" lon="8.673932082448125"><ele>471.0</ele><time>2026-05-03T10:15:59.001Z</time></trkpt><trkpt lat="40.132779780425125" lon="8.673683781408293"><ele>471.0</ele><time>2026-05-03T10:16:00.001Z</time></trkpt><trkpt lat="40.1329175286502" lon="8.673438846106663"><ele>470.0</ele><time>2026-05-03T10:16:01.001Z</time></trkpt><trkpt lat="40.13305759690253" lon="8.673192248950137"><ele>469.0</ele><time>2026-05-03T10:16:02.001Z</time></trkpt><trkpt lat="40.13320167913117" lon="8.672936247103042"><ele>471.0</ele><time>2026-05-03T10:16:03.001Z</time></trkpt><trkpt lat="40.13334133326655" lon="8.672692814839033"><ele>473.0</ele><time>2026-05-03T10:16:04.001Z</time></trkpt><trkpt lat="40.13347483778688" lon="8.672460508020096"><ele>473.0</ele><time>2026-05-03T10:16:05.001Z</time></trkpt><trkpt lat="40.133614870417716" lon="8.67221348150437"><ele>473.0</ele><time>2026-05-03T10:16:06.001Z</time></trkpt><trkpt lat="40.133748813233936" lon="8.671970922398716"><ele>473.0</ele><time>2026-05-03T10:16:07.001Z</time></trkpt><trkpt lat="40.13388436636818" lon="8.671732829478069"><ele>473.0</ele><time>2026-05-03T10:16:08.001Z</time></trkpt><trkpt lat="40.13401843903261" lon="8.671501526204846"><ele>473.0</ele><time>2026-05-03T10:16:09.001Z</time></trkpt><trkpt lat="40.13415304465394" lon="8.671269659508658"><ele>477.3333333333333</ele><time>2026-05-03T10:16:10.001Z</time></trkpt><trkpt lat="40.13428097700514" lon="8.671045249570053"><ele>481.66666666666663</ele><time>2026-05-03T10:16:11.001Z</time></trkpt><trkpt lat="40.13440771174493" lon="8.670828332797136"><ele>486.0</ele><time>2026-05-03T10:16:12.001Z</time></trkpt><trkpt lat="40.134532797753174" lon="8.670613464578135"><ele>486.0</ele><time>2026-05-03T10:16:13.001Z</time></trkpt><trkpt lat="40.134663471757776" lon="8.670399653939896"><ele>486.0</ele><time>2026-05-03T10:16:14.001Z</time></trkpt><trkpt lat="40.13479495714969" lon="8.67018768098295"><ele>486.0</ele><time>2026-05-03T10:16:15.001Z</time></trkpt><trkpt lat="40.13493108676422" lon="8.669986506119532"><ele>489.0</ele><time>2026-05-03T10:16:16.001Z</time></trkpt><trkpt lat="40.13505743003128" lon="8.669806851456551"><ele>492.0</ele><time>2026-05-03T10:16:17.001Z</time></trkpt><trkpt lat="40.13517375951075" lon="8.669647970870365"><ele>495.0</ele><time>2026-05-03T10:16:18.001Z</time></trkpt><trkpt lat="40.135278339964714" lon="8.669513078445041"><ele>494.75</ele><time>2026-05-03T10:16:19.001Z</time></trkpt><trkpt lat="40.13538284334254" lon="8.66940550082347"><ele>494.5</ele><time>2026-05-03T10:16:20.001Z</time></trkpt><trkpt lat="40.1355013454441" lon="8.669332772654595"><ele>494.25</ele><time>2026-05-03T10:16:21.001Z</time></trkpt><trkpt lat="40.13562866552706" lon="8.669298995282437"><ele>494.0</ele><time>2026-05-03T10:16:22.001Z</time></trkpt><trkpt lat="40.135758780052484" lon="8.669283161840688"><ele>495.5</ele><time>2026-05-03T10:16:23.001Z</time></trkpt><trkpt lat="40.13588134946565" lon="8.669277485077547"><ele>497.0</ele><time>2026-05-03T10:16:24.001Z</time></trkpt><trkpt lat="40.13599868611899" lon="8.669285574689546"><ele>498.5</ele><time>2026-05-03T10:16:25.001Z</time></trkpt><trkpt lat="40.13612124054696" lon="8.669293215118032"><ele>500.0</ele><time>2026-05-03T10:16:26.001Z</time></trkpt><trkpt lat="40.13623338558072" lon="8.669320901357674"><ele>500.0</ele><time>2026-05-03T10:16:27.001Z</time></trkpt><trkpt lat="40.1363058434804" lon="8.669377440292756"><ele>500.0</ele><time>2026-05-03T10:16:28.001Z</time></trkpt><trkpt lat="40.13637802290357" lon="8.669437262244262"><ele>500.0</ele><time>2026-05-03T10:16:30.001Z</time></trkpt><trkpt lat="40.136452848235386" lon="8.669430551291983"><ele>500.0</ele><time>2026-05-03T10:16:33.001Z</time></trkpt><trkpt lat="40.136541486211385" lon="8.669291503877737"><ele>500.0</ele><time>2026-05-03T10:16:35.001Z</time></trkpt><trkpt lat="40.136598371925736" lon="8.66918342689276"><ele>502.25</ele><time>2026-05-03T10:16:36.001Z</time></trkpt><trkpt lat="40.136670367497345" lon="8.6690597377831"><ele>504.5</ele><time>2026-05-03T10:16:37Z</time></trkpt><trkpt lat="40.136748355938266" lon="8.668921306227311"><ele>506.75</ele><time>2026-05-03T10:16:38Z</time></trkpt><trkpt lat="40.13682711970812" lon="8.668776536865764"><ele>509.0</ele><time>2026-05-03T10:16:39Z</time></trkpt><trkpt lat="40.13691301709322" lon="8.6686227478663"><ele>508.66666666666663</ele><time>2026-05-03T10:16:40Z</time></trkpt><trkpt lat="40.137004355711056" lon="8.668458014457691"><ele>508.33333333333337</ele><time>2026-05-03T10:16:41Z</time></trkpt><trkpt lat="40.13710478541489" lon="8.668290556415753"><ele>508.0</ele><time>2026-05-03T10:16:42Z</time></trkpt><trkpt lat="40.13721071653673" lon="8.668111859944723"><ele>508.0</ele><time>2026-05-03T10:16:43Z</time></trkpt><trkpt lat="40.137318246689205" lon="8.66792418243165"><ele>508.0</ele><time>2026-05-03T10:16:44Z</time></trkpt><trkpt lat="40.137423462055686" lon="8.667734158927699"><ele>508.0</ele><time>2026-05-03T10:16:45Z</time></trkpt><trkpt lat="40.13752908869253" lon="8.667544567407992"><ele>509.6666666666667</ele><time>2026-05-03T10:16:46Z</time></trkpt><trkpt lat="40.13764360318449" lon="8.667342254180344"><ele>511.33333333333337</ele><time>2026-05-03T10:16:47Z</time></trkpt><trkpt lat="40.137753768084" lon="8.667143952621407"><ele>513.0</ele><time>2026-05-03T10:16:48Z</time></trkpt><trkpt lat="40.137860900815426" lon="8.666952228824792"><ele>511.0</ele><time>2026-05-03T10:16:49Z</time></trkpt><trkpt lat="40.13796599235106" lon="8.666766819799602"><ele>509.0</ele><time>2026-05-03T10:16:50Z</time></trkpt><trkpt lat="40.13806429848085" lon="8.666592963373123"><ele>507.0</ele><time>2026-05-03T10:16:51Z</time></trkpt><trkpt lat="40.13815768633163" lon="8.666432623110042"><ele>507.75</ele><time>2026-05-03T10:16:52Z</time></trkpt><trkpt lat="40.13825514739348" lon="8.666295214465743"><ele>508.5</ele><time>2026-05-03T10:16:53Z</time></trkpt><trkpt lat="40.138357796099825" lon="8.666166284663483"><ele>509.25</ele><time>2026-05-03T10:16:54Z</time></trkpt><trkpt lat="40.13846565354526" lon="8.666054399496387"><ele>510.0</ele><time>2026-05-03T10:16:55Z</time></trkpt><trkpt lat="40.13855921577888" lon="8.66596104539695"><ele>510.0</ele><time>2026-05-03T10:16:56Z</time></trkpt><trkpt lat="40.13864940884788" lon="8.66587695759583"><ele>510.0</ele><time>2026-05-03T10:16:57Z</time></trkpt><trkpt lat="40.13873754742021" lon="8.665803449995229"><ele>510.0</ele><time>2026-05-03T10:16:58Z</time></trkpt><trkpt lat="40.138813660101285" lon="8.665739580896147"><ele>510.0</ele><time>2026-05-03T10:16:59Z</time></trkpt><trkpt lat="40.138887673029004" lon="8.66567577318895"><ele>510.0</ele><time>2026-05-03T10:17:00Z</time></trkpt><trkpt lat="40.138959983643225" lon="8.665628206577505"><ele>510.0</ele><time>2026-05-03T10:17:01Z</time></trkpt><trkpt lat="40.13903955603006" lon="8.665586319960948"><ele>510.0</ele><time>2026-05-03T10:17:02Z</time></trkpt><trkpt lat="40.13911917420291" lon="8.665560193672148"><ele>510.0</ele><time>2026-05-03T10:17:03Z</time></trkpt><trkpt lat="40.13920424444596" lon="8.66554858600469"><ele>510.0</ele><time>2026-05-03T10:17:04Z</time></trkpt><trkpt lat="40.13928950031873" lon="8.665564269259729"><ele>510.0</ele><time>2026-05-03T10:17:05Z</time></trkpt><trkpt lat="40.13938425562986" lon="8.665611486254244"><ele>510.0</ele><time>2026-05-03T10:17:06Z</time></trkpt><trkpt lat="40.139474745598484" lon="8.66567604531381"><ele>514.3333333333334</ele><time>2026-05-03T10:17:07Z</time></trkpt><trkpt lat="40.13958281449691" lon="8.665799107893934"><ele>518.6666666666667</ele><time>2026-05-03T10:17:08Z</time></trkpt><trkpt lat="40.13971972897577" lon="8.665905184638703"><ele>523.0</ele><time>2026-05-03T10:17:09Z</time></trkpt><trkpt lat="40.13985065747299" lon="8.666014835710605"><ele>521.6666666666667</ele><time>2026-05-03T10:17:10Z</time></trkpt><trkpt lat="40.14000033092206" lon="8.666108354884079"><ele>520.3333333333334</ele><time>2026-05-03T10:17:11Z</time></trkpt><trkpt lat="40.140140633324414" lon="8.666170438852047"><ele>519.0</ele><time>2026-05-03T10:17:12Z</time></trkpt><trkpt lat="40.140284824796645" lon="8.666205434918217"><ele>519.0</ele><time>2026-05-03T10:17:13Z</time></trkpt><trkpt lat="40.140415595703786" lon="8.6662235099246"><ele>519.0</ele><time>2026-05-03T10:17:14Z</time></trkpt><trkpt lat="40.140525532885825" lon="8.666211864647131"><ele>519.0</ele><time>2026-05-03T10:17:15Z</time></trkpt><trkpt lat="40.140606583143516" lon="8.666161079545754"><ele>519.0</ele><time>2026-05-03T10:17:16Z</time></trkpt><trkpt lat="40.14068013705974" lon="8.666070100546916"><ele>519.0</ele><time>2026-05-03T10:17:17Z</time></trkpt><trkpt lat="40.14072463585331" lon="8.66591483250436"><ele>523.0</ele><time>2026-05-03T10:17:18Z</time></trkpt><trkpt lat="40.14074381610993" lon="8.665730948177865"><ele>527.0</ele><time>2026-05-03T10:17:19Z</time></trkpt><trkpt lat="40.140750204776026" lon="8.665523201461564"><ele>531.0</ele><time>2026-05-03T10:17:20Z</time></trkpt><trkpt lat="40.140760612411746" lon="8.665316042390469"><ele>531.0</ele><time>2026-05-03T10:17:21.001Z</time></trkpt><trkpt lat="40.14077195203117" lon="8.665100960706305"><ele>531.0</ele><time>2026-05-03T10:17:22.001Z</time></trkpt><trkpt lat="40.1407801191846" lon="8.664909621794626"><ele>531.0</ele><time>2026-05-03T10:17:23.001Z</time></trkpt><trkpt lat="40.14076419768985" lon="8.664732695571995"><ele>531.0</ele><time>2026-05-03T10:17:24.001Z</time></trkpt><trkpt lat="40.14076020709734" lon="8.664570482566324"><ele>531.2</ele><time>2026-05-03T10:17:25.001Z</time></trkpt><trkpt lat="40.14077189421173" lon="8.66442013040321"><ele>531.4000000000001</ele><time>2026-05-03T10:17:26.001Z</time></trkpt><trkpt lat="40.14075935825157" lon="8.664281289814094"><ele>531.6</ele><time>2026-05-03T10:17:27.001Z</time></trkpt><trkpt lat="40.14077236834475" lon="8.664146713373112"><ele>531.8000000000001</ele><time>2026-05-03T10:17:28.001Z</time></trkpt><trkpt lat="40.14079545727732" lon="8.664007907144528"><ele>532.0</ele><time>2026-05-03T10:17:29.001Z</time></trkpt><trkpt lat="40.14082024586516" lon="8.663862416691654"><ele>532.0</ele><time>2026-05-03T10:17:30.001Z</time></trkpt><trkpt lat="40.14085933595344" lon="8.663695569453548"><ele>532.0</ele><time>2026-05-03T10:17:31.001Z</time></trkpt><trkpt lat="40.14089490508122" lon="8.663496767177092"><ele>532.0</ele><time>2026-05-03T10:17:32.001Z</time></trkpt><trkpt lat="40.14093370048208" lon="8.663279932748237"><ele>531.3333333333334</ele><time>2026-05-03T10:17:33.001Z</time></trkpt><trkpt lat="40.140976119108984" lon="8.663044414249972"><ele>530.6666666666666</ele><time>2026-05-03T10:17:34.001Z</time></trkpt><trkpt lat="40.14101923109176" lon="8.662811823708232"><ele>530.0</ele><time>2026-05-03T10:17:35.001Z</time></trkpt><trkpt lat="40.14106535038814" lon="8.662575105587381"><ele>529.6666666666666</ele><time>2026-05-03T10:17:36.001Z</time></trkpt><trkpt lat="40.14110489564037" lon="8.662334082946126"><ele>529.3333333333334</ele><time>2026-05-03T10:17:37.001Z</time></trkpt><trkpt lat="40.14115759450223" lon="8.662095175954953"><ele>529.0</ele><time>2026-05-03T10:17:38.001Z</time></trkpt><trkpt lat="40.14120455040199" lon="8.661863747355946"><ele>531.3333333333334</ele><time>2026-05-03T10:17:39.001Z</time></trkpt><trkpt lat="40.14124857716307" lon="8.661637596810166"><ele>533.6666666666666</ele><time>2026-05-03T10:17:40.001Z</time></trkpt><trkpt lat="40.141289997898134" lon="8.661418474511969"><ele>536.0</ele><time>2026-05-03T10:17:41.001Z</time></trkpt><trkpt lat="40.14133534265396" lon="8.661210966803148"><ele>537.25</ele><time>2026-05-03T10:17:42.001Z</time></trkpt><trkpt lat="40.1413754043066" lon="8.661017266833383"><ele>538.5</ele><time>2026-05-03T10:17:43.001Z</time></trkpt><trkpt lat="40.141409801805" lon="8.660829930865615"><ele>539.75</ele><time>2026-05-03T10:17:44.001Z</time></trkpt><trkpt lat="40.14144438033241" lon="8.660645465006745"><ele>541.0</ele><time>2026-05-03T10:17:45.001Z</time></trkpt><trkpt lat="40.14148068501934" lon="8.66047075009724"><ele>541.0</ele><time>2026-05-03T10:17:46.001Z</time></trkpt><trkpt lat="40.14152448317342" lon="8.660313005316876"><ele>541.0</ele><time>2026-05-03T10:17:47.001Z</time></trkpt><trkpt lat="40.141531109766056" lon="8.660161405733703"><ele>541.0</ele><time>2026-05-03T10:17:48.001Z</time></trkpt><trkpt lat="40.14155706995769" lon="8.660031525451009"><ele>541.0</ele><time>2026-05-03T10:17:49.001Z</time></trkpt><trkpt lat="40.14158243060398" lon="8.659898305071374"><ele>541.6666666666667</ele><time>2026-05-03T10:17:50.001Z</time></trkpt><trkpt lat="40.14159958066338" lon="8.659766617229293"><ele>542.3333333333334</ele><time>2026-05-03T10:17:51.001Z</time></trkpt><trkpt lat="40.1416114618289" lon="8.6596393545226"><ele>543.0</ele><time>2026-05-03T10:17:52.001Z</time></trkpt><trkpt lat="40.141622860269585" lon="8.659526070605207"><ele>543.6666666666666</ele><time>2026-05-03T10:17:53.001Z</time></trkpt><trkpt lat="40.14164740973093" lon="8.659433720077146"><ele>544.3333333333333</ele><time>2026-05-03T10:17:54.001Z</time></trkpt><trkpt lat="40.141690751954016" lon="8.659359515669982"><ele>545.0</ele><time>2026-05-03T10:17:55.001Z</time></trkpt><trkpt lat="40.14183112929389" lon="8.659273947428021"><ele>546.25</ele><time>2026-05-03T10:17:57.001Z</time></trkpt><trkpt lat="40.141921893407236" lon="8.659252476927735"><ele>547.5</ele><time>2026-05-03T10:17:58.001Z</time></trkpt><trkpt lat="40.14202960985039" lon="8.659254458270645"><ele>548.75</ele><time>2026-05-03T10:17:59.001Z</time></trkpt><trkpt lat="40.14215071892028" lon="8.659272345010988"><ele>550.0</ele><time>2026-05-03T10:18:00.001Z</time></trkpt><trkpt lat="40.142282146718685" lon="8.659295575229496"><ele>550.5</ele><time>2026-05-03T10:18:01.001Z</time></trkpt><trkpt lat="40.14242353169958" lon="8.65931476920241"><ele>551.0</ele><time>2026-05-03T10:18:02.001Z</time></trkpt><trkpt lat="40.14255600673711" lon="8.65933978038277"><ele>551.5</ele><time>2026-05-03T10:18:03.001Z</time></trkpt><trkpt lat="40.14268774775169" lon="8.659396696064459"><ele>552.0</ele><time>2026-05-03T10:18:04.001Z</time></trkpt><trkpt lat="40.1428170801301" lon="8.659489260244227"><ele>552.0</ele><time>2026-05-03T10:18:05.001Z</time></trkpt><trkpt lat="40.14293952921131" lon="8.659615734867767"><ele>552.0</ele><time>2026-05-03T10:18:06.001Z</time></trkpt><trkpt lat="40.14307117459152" lon="8.659738997118154"><ele>552.0</ele><time>2026-05-03T10:18:07.001Z</time></trkpt><trkpt lat="40.14321764806029" lon="8.659843055929"><ele>552.0</ele><time>2026-05-03T10:18:08.001Z</time></trkpt><trkpt lat="40.14337259549522" lon="8.659927499238082"><ele>552.0</ele><time>2026-05-03T10:18:09.001Z</time></trkpt><trkpt lat="40.143534112012134" lon="8.66000459323174"><ele>552.0</ele><time>2026-05-03T10:18:10.001Z</time></trkpt><trkpt lat="40.143698919161096" lon="8.660077065487037"><ele>552.0</ele><time>2026-05-03T10:18:11.001Z</time></trkpt><trkpt lat="40.143866518854054" lon="8.660135688023876"><ele>552.0</ele><time>2026-05-03T10:18:12.001Z</time></trkpt><trkpt lat="40.14403837501309" lon="8.660173590054955"><ele>552.0</ele><time>2026-05-03T10:18:13.001Z</time></trkpt><trkpt lat="40.14420874352309" lon="8.66018304396361"><ele>554.75</ele><time>2026-05-03T10:18:14.001Z</time></trkpt><trkpt lat="40.14436911849036" lon="8.66018575336089"><ele>557.5</ele><time>2026-05-03T10:18:15.001Z</time></trkpt><trkpt lat="40.14450951240878" lon="8.660169798041597"><ele>560.25</ele><time>2026-05-03T10:18:16.001Z</time></trkpt><trkpt lat="40.1446314124377" lon="8.66011185645307"><ele>563.0</ele><time>2026-05-03T10:18:17.001Z</time></trkpt><trkpt lat="40.1447453499348" lon="8.66000331363529"><ele>563.0</ele><time>2026-05-03T10:18:18.001Z</time></trkpt><trkpt lat="40.14485070203992" lon="8.659853885330575"><ele>563.0</ele><time>2026-05-03T10:18:19.001Z</time></trkpt><trkpt lat="40.144946438263645" lon="8.659675285429046"><ele>563.0</ele><time>2026-05-03T10:18:20.001Z</time></trkpt><trkpt lat="40.14503484869682" lon="8.659486039268089"><ele>565.3333333333333</ele><time>2026-05-03T10:18:21.001Z</time></trkpt><trkpt lat="40.14513317330894" lon="8.659282817382426"><ele>567.6666666666666</ele><time>2026-05-03T10:18:22.001Z</time></trkpt><trkpt lat="40.145232744851384" lon="8.659080653414556"><ele>570.0</ele><time>2026-05-03T10:18:23.001Z</time></trkpt><trkpt lat="40.14534265659763" lon="8.658886343822088"><ele>570.0</ele><time>2026-05-03T10:18:24.001Z</time></trkpt><trkpt lat="40.14547572343359" lon="8.658709345753739"><ele>570.0</ele><time>2026-05-03T10:18:25.001Z</time></trkpt><trkpt lat="40.14563303203647" lon="8.658560033277736"><ele>570.0</ele><time>2026-05-03T10:18:26.001Z</time></trkpt><trkpt lat="40.14580877415779" lon="8.65842140627919"><ele>572.3333333333334</ele><time>2026-05-03T10:18:27.001Z</time></trkpt><trkpt lat="40.14597780441946" lon="8.658269617304107"><ele>574.6666666666667</ele><time>2026-05-03T10:18:28.001Z</time></trkpt><trkpt lat="40.14613190733789" lon="8.658094641913985"><ele>577.0</ele><time>2026-05-03T10:18:29.001Z</time></trkpt><trkpt lat="40.14628419262652" lon="8.657881570314602"><ele>577.6666666666667</ele><time>2026-05-03T10:18:30.001Z</time></trkpt><trkpt lat="40.146414898332836" lon="8.657691719120711"><ele>578.3333333333334</ele><time>2026-05-03T10:18:31.001Z</time></trkpt><trkpt lat="40.14653071029016" lon="8.657490485854417"><ele>579.0</ele><time>2026-05-03T10:18:32.001Z</time></trkpt><trkpt lat="40.14662604076544" lon="8.65726155551348"><ele>579.0</ele><time>2026-05-03T10:18:33.001Z</time></trkpt><trkpt lat="40.14671472422071" lon="8.65700287891148"><ele>579.0</ele><time>2026-05-03T10:18:34.001Z</time></trkpt><trkpt lat="40.146804011283194" lon="8.656753745916582"><ele>579.0</ele><time>2026-05-03T10:18:35.001Z</time></trkpt><trkpt lat="40.14689562879552" lon="8.656538373185604"><ele>582.6666666666666</ele><time>2026-05-03T10:18:36.001Z</time></trkpt><trkpt lat="40.146977868183434" lon="8.656337722127445"><ele>586.3333333333333</ele><time>2026-05-03T10:18:37.001Z</time></trkpt><trkpt lat="40.14702675353049" lon="8.656143193443194"><ele>590.0</ele><time>2026-05-03T10:18:38.001Z</time></trkpt><trkpt lat="40.14705040781398" lon="8.65592601246869"><ele>594.0</ele><time>2026-05-03T10:18:39.001Z</time></trkpt><trkpt lat="40.14706443929135" lon="8.655706798874688"><ele>598.0</ele><time>2026-05-03T10:18:40.001Z</time></trkpt><trkpt lat="40.14709568234832" lon="8.655470029245137"><ele>602.0</ele><time>2026-05-03T10:18:41.001Z</time></trkpt><trkpt lat="40.147146497167576" lon="8.65531836559655"><ele>601.8000000000001</ele><time>2026-05-03T10:18:42.001Z</time></trkpt><trkpt lat="40.1471966231267" lon="8.655210796612318"><ele>601.6</ele><time>2026-05-03T10:18:43Z</time></trkpt><trkpt lat="40.1472879944365" lon="8.655140698396854"><ele>601.4000000000001</ele><time>2026-05-03T10:18:45Z</time></trkpt><trkpt lat="40.14735810281398" lon="8.655169067016947"><ele>601.2</ele><time>2026-05-03T10:18:46Z</time></trkpt><trkpt lat="40.14741697531732" lon="8.65525546127658"><ele>601.0</ele><time>2026-05-03T10:18:47Z</time></trkpt><trkpt lat="40.14744513646144" lon="8.655368675944583"><ele>600.75</ele><time>2026-05-03T10:18:48Z</time></trkpt><trkpt lat="40.14746417888322" lon="8.655505036442785"><ele>600.5</ele><time>2026-05-03T10:18:49Z</time></trkpt><trkpt lat="40.14748481289331" lon="8.655684394715392"><ele>600.25</ele><time>2026-05-03T10:18:50Z</time></trkpt><trkpt lat="40.14752331173102" lon="8.65589277705473"><ele>600.0</ele><time>2026-05-03T10:18:51Z</time></trkpt><trkpt lat="40.1475686195691" lon="8.656128087675548"><ele>599.0</ele><time>2026-05-03T10:18:52Z</time></trkpt><trkpt lat="40.14761233250391" lon="8.656373540294506"><ele>598.0</ele><time>2026-05-03T10:18:53Z</time></trkpt><trkpt lat="40.147647953279254" lon="8.656630346932346"><ele>597.0</ele><time>2026-05-03T10:18:54Z</time></trkpt><trkpt lat="40.14767847035838" lon="8.656916954925393"><ele>597.5</ele><time>2026-05-03T10:18:55Z</time></trkpt><trkpt lat="40.14769475675051" lon="8.657213558721445"><ele>598.0</ele><time>2026-05-03T10:18:56Z</time></trkpt><trkpt lat="40.147696713604184" lon="8.657514504538087"><ele>599.3333333333334</ele><time>2026-05-03T10:18:57Z</time></trkpt><trkpt lat="40.14769414536038" lon="8.657804739345377"><ele>600.6666666666666</ele><time>2026-05-03T10:18:58Z</time></trkpt><trkpt lat="40.1476903701745" lon="8.658066982256823"><ele>602.0</ele><time>2026-05-03T10:18:59Z</time></trkpt><trkpt lat="40.14768644311221" lon="8.658309401020004"><ele>602.0</ele><time>2026-05-03T10:19:00Z</time></trkpt><trkpt lat="40.14768808674623" lon="8.658520501407919"><ele>602.0</ele><time>2026-05-03T10:19:01Z</time></trkpt><trkpt lat="40.147706337648415" lon="8.658688905761943"><ele>602.0</ele><time>2026-05-03T10:19:02Z</time></trkpt><trkpt lat="40.14775422951948" lon="8.658821223470085"><ele>602.0</ele><time>2026-05-03T10:19:03Z</time></trkpt><trkpt lat="40.14782692856495" lon="8.65891928036178"><ele>602.75</ele><time>2026-05-03T10:19:04Z</time></trkpt><trkpt lat="40.14792729552178" lon="8.658988861845847"><ele>603.5</ele><time>2026-05-03T10:19:05Z</time></trkpt><trkpt lat="40.148057212745506" lon="8.659029657611498"><ele>604.25</ele><time>2026-05-03T10:19:06Z</time></trkpt><trkpt lat="40.1481996657237" lon="8.65906327707913"><ele>605.0</ele><time>2026-05-03T10:19:07Z</time></trkpt><trkpt lat="40.14831072119447" lon="8.65913852657813"><ele>607.75</ele><time>2026-05-03T10:19:08Z</time></trkpt><trkpt lat="40.14837974754892" lon="8.659257943427296"><ele>610.5</ele><time>2026-05-03T10:19:09Z</time></trkpt><trkpt lat="40.14841310249322" lon="8.65939835565489"><ele>613.25</ele><time>2026-05-03T10:19:10Z</time></trkpt><trkpt lat="40.14841468798826" lon="8.659563912018305"><ele>616.0</ele><time>2026-05-03T10:19:11Z</time></trkpt><trkpt lat="40.1484100080405" lon="8.659748761866851"><ele>616.0</ele><time>2026-05-03T10:19:12Z</time></trkpt><trkpt lat="40.14842666067718" lon="8.659937192801088"><ele>616.0</ele><time>2026-05-03T10:19:13Z</time></trkpt><trkpt lat="40.14847451895911" lon="8.660132888951681"><ele>616.0</ele><time>2026-05-03T10:19:14Z</time></trkpt><trkpt lat="40.148538805297854" lon="8.660321580751472"><ele>614.6666666666667</ele><time>2026-05-03T10:19:15Z</time></trkpt><trkpt lat="40.148615649632575" lon="8.660509210405626"><ele>613.3333333333334</ele><time>2026-05-03T10:19:16Z</time></trkpt><trkpt lat="40.14871049495399" lon="8.66070169957405"><ele>612.0</ele><time>2026-05-03T10:19:17Z</time></trkpt><trkpt lat="40.148831399803136" lon="8.660886432795856"><ele>612.0</ele><time>2026-05-03T10:19:18Z</time></trkpt><trkpt lat="40.148967798751386" lon="8.661056707845336"><ele>612.0</ele><time>2026-05-03T10:19:19Z</time></trkpt><trkpt lat="40.14910019369513" lon="8.661202577024785"><ele>612.0</ele><time>2026-05-03T10:19:20Z</time></trkpt><trkpt lat="40.14923641246366" lon="8.661326571582713"><ele>613.6666666666666</ele><time>2026-05-03T10:19:21Z</time></trkpt><trkpt lat="40.14938166793178" lon="8.661423007386135"><ele>615.3333333333333</ele><time>2026-05-03T10:19:22Z</time></trkpt><trkpt lat="40.1495351081271" lon="8.661492443869191"><ele>617.0</ele><time>2026-05-03T10:19:23Z</time></trkpt><trkpt lat="40.14969932765062" lon="8.661541279886434"><ele>617.0</ele><time>2026-05-03T10:19:24Z</time></trkpt><trkpt lat="40.14986976399782" lon="8.6615788088526"><ele>617.0</ele><time>2026-05-03T10:19:25Z</time></trkpt><trkpt lat="40.15002927154796" lon="8.661605073947035"><ele>617.0</ele><time>2026-05-03T10:19:26Z</time></trkpt><trkpt lat="40.150184744562026" lon="8.661611312838367"><ele>620.6666666666666</ele><time>2026-05-03T10:19:27Z</time></trkpt><trkpt lat="40.15034265915286" lon="8.661576063479133"><ele>624.3333333333334</ele><time>2026-05-03T10:19:28Z</time></trkpt><trkpt lat="40.15050368352713" lon="8.661511374907418"><ele>628.0</ele><time>2026-05-03T10:19:29Z</time></trkpt><trkpt lat="40.150659583508315" lon="8.661429709220752"><ele>629.6666666666667</ele><time>2026-05-03T10:19:30Z</time></trkpt><trkpt lat="40.150808911595234" lon="8.661329917098783"><ele>631.3333333333334</ele><time>2026-05-03T10:19:31Z</time></trkpt><trkpt lat="40.1509545621338" lon="8.661232245544575"><ele>633.0</ele><time>2026-05-03T10:19:32Z</time></trkpt><trkpt lat="40.1511061494207" lon="8.661131069178191"><ele>637.3333333333334</ele><time>2026-05-03T10:19:33Z</time></trkpt><trkpt lat="40.15124798852693" lon="8.661009057918264"><ele>641.6666666666667</ele><time>2026-05-03T10:19:34Z</time></trkpt><trkpt lat="40.1513750534202" lon="8.660869635438797"><ele>646.0</ele><time>2026-05-03T10:19:35.001Z</time></trkpt><trkpt lat="40.1514962853933" lon="8.660747831943043"><ele>644.75</ele><time>2026-05-03T10:19:36.001Z</time></trkpt><trkpt lat="40.151605544198176" lon="8.66064831333703"><ele>643.5</ele><time>2026-05-03T10:19:37.001Z</time></trkpt><trkpt lat="40.151738376850005" lon="8.660553598279298"><ele>642.25</ele><time>2026-05-03T10:19:38.001Z</time></trkpt><trkpt lat="40.15188093002353" lon="8.660486120126416"><ele>641.0</ele><time>2026-05-03T10:19:39.001Z</time></trkpt><trkpt lat="40.152025830117964" lon="8.660429069793256"><ele>641.0</ele><time>2026-05-03T10:19:40.001Z</time></trkpt><trkpt lat="40.15217739322165" lon="8.660379746628353"><ele>641.0</ele><time>2026-05-03T10:19:41.001Z</time></trkpt><trkpt lat="40.152335260429176" lon="8.660350616093675"><ele>641.0</ele><time>2026-05-03T10:19:42.001Z</time></trkpt><trkpt lat="40.152489063177896" lon="8.660356743826142"><ele>641.25</ele><time>2026-05-03T10:19:43.001Z</time></trkpt><trkpt lat="40.15263918561974" lon="8.660392567134027"><ele>641.5</ele><time>2026-05-03T10:19:44.001Z</time></trkpt><trkpt lat="40.15277978427903" lon="8.660465719570935"><ele>641.75</ele><time>2026-05-03T10:19:45.001Z</time></trkpt><trkpt lat="40.152903383445995" lon="8.660560652996752"><ele>642.0</ele><time>2026-05-03T10:19:46.001Z</time></trkpt><trkpt lat="40.15301763827463" lon="8.660649495627128"><ele>642.0</ele><time>2026-05-03T10:19:47.001Z</time></trkpt><trkpt lat="40.15312792849244" lon="8.660714705154033"><ele>642.0</ele><time>2026-05-03T10:19:48.001Z</time></trkpt><trkpt lat="40.15324768730669" lon="8.660748233754244"><ele>642.0</ele><time>2026-05-03T10:19:49.001Z</time></trkpt><trkpt lat="40.15336806250922" lon="8.660738349925307"><ele>642.0</ele><time>2026-05-03T10:19:50.001Z</time></trkpt><trkpt lat="40.153480940178724" lon="8.660679053898704"><ele>643.75</ele><time>2026-05-03T10:19:51.001Z</time></trkpt><trkpt lat="40.153578513339156" lon="8.66057570764029"><ele>645.5</ele><time>2026-05-03T10:19:52.001Z</time></trkpt><trkpt lat="40.15366755777063" lon="8.66044737353724"><ele>647.25</ele><time>2026-05-03T10:19:53.001Z</time></trkpt><trkpt lat="40.15374860461564" lon="8.660296749227257"><ele>649.0</ele><time>2026-05-03T10:19:54.001Z</time></trkpt><trkpt lat="40.15383437268815" lon="8.660146034215538"><ele>652.6666666666667</ele><time>2026-05-03T10:19:55.001Z</time></trkpt><trkpt lat="40.1539035558375" lon="8.65995456585042"><ele>656.3333333333334</ele><time>2026-05-03T10:19:56.001Z</time></trkpt><trkpt lat="40.15396616064819" lon="8.659769190500148"><ele>660.0</ele><time>2026-05-03T10:19:57.001Z</time></trkpt><trkpt lat="40.15403464260854" lon="8.65957124761853"><ele>661.0</ele><time>2026-05-03T10:19:58.001Z</time></trkpt><trkpt lat="40.15409630069116" lon="8.659364128101329"><ele>662.0</ele><time>2026-05-03T10:19:59.001Z</time></trkpt><trkpt lat="40.15418202106339" lon="8.65916761448551"><ele>663.0</ele><time>2026-05-03T10:20:00.001Z</time></trkpt><trkpt lat="40.154282040249" lon="8.658978192675518"><ele>663.0</ele><time>2026-05-03T10:20:01.001Z</time></trkpt><trkpt lat="40.154395504361815" lon="8.658804200235707"><ele>663.0</ele><time>2026-05-03T10:20:02.001Z</time></trkpt><trkpt lat="40.154515279247185" lon="8.658633065137566"><ele>663.0</ele><time>2026-05-03T10:20:03.001Z</time></trkpt><trkpt lat="40.15465440797119" lon="8.65847458230162"><ele>663.6666666666666</ele><time>2026-05-03T10:20:04.001Z</time></trkpt><trkpt lat="40.15480214268433" lon="8.658326693245474"><ele>664.3333333333333</ele><time>2026-05-03T10:20:05.001Z</time></trkpt><trkpt lat="40.15496523065734" lon="8.658169274600771"><ele>665.0</ele><time>2026-05-03T10:20:06.001Z</time></trkpt><trkpt lat="40.155117255809536" lon="8.658029507956437"><ele>665.0</ele><time>2026-05-03T10:20:07.001Z</time></trkpt><trkpt lat="40.1552750010798" lon="8.657868064555984"><ele>665.0</ele><time>2026-05-03T10:20:08.001Z</time></trkpt><trkpt lat="40.15543901263204" lon="8.657698133331595"><ele>665.0</ele><time>2026-05-03T10:20:09.001Z</time></trkpt><trkpt lat="40.15559987415611" lon="8.65752152665187"><ele>666.6666666666666</ele><time>2026-05-03T10:20:10.001Z</time></trkpt><trkpt lat="40.15575560470463" lon="8.65733942423708"><ele>668.3333333333334</ele><time>2026-05-03T10:20:11.001Z</time></trkpt><trkpt lat="40.155910573821046" lon="8.657157746433702"><ele>670.0</ele><time>2026-05-03T10:20:12.001Z</time></trkpt><trkpt lat="40.156070550902584" lon="8.656982156088237"><ele>673.6666666666667</ele><time>2026-05-03T10:20:13.001Z</time></trkpt><trkpt lat="40.15623763957844" lon="8.65681292098643"><ele>677.3333333333334</ele><time>2026-05-03T10:20:14.001Z</time></trkpt><trkpt lat="40.156407310233114" lon="8.656652860276404"><ele>681.0</ele><time>2026-05-03T10:20:15.001Z</time></trkpt><trkpt lat="40.15658622448281" lon="8.656509695225102"><ele>681.0</ele><time>2026-05-03T10:20:16.001Z</time></trkpt><trkpt lat="40.156774116480626" lon="8.656379213417567"><ele>681.0</ele><time>2026-05-03T10:20:17.001Z</time></trkpt><trkpt lat="40.156950360326555" lon="8.656241333468566"><ele>681.0</ele><time>2026-05-03T10:20:18.001Z</time></trkpt><trkpt lat="40.15711840758304" lon="8.65609087142203"><ele>684.6666666666666</ele><time>2026-05-03T10:20:19.001Z</time></trkpt><trkpt lat="40.15728899099557" lon="8.65592016385259"><ele>688.3333333333333</ele><time>2026-05-03T10:20:20.001Z</time></trkpt><trkpt lat="40.15745367123452" lon="8.65574466785834"><ele>692.0</ele><time>2026-05-03T10:20:21.001Z</time></trkpt><trkpt lat="40.15757176832792" lon="8.655617580463776"><ele>692.0</ele><time>2026-05-03T10:20:22.001Z</time></trkpt><trkpt lat="40.15767334804674" lon="8.655482896233753"><ele>692.0</ele><time>2026-05-03T10:20:23.001Z</time></trkpt><trkpt lat="40.15776201127823" lon="8.655352346940631"><ele>692.0</ele><time>2026-05-03T10:20:24.001Z</time></trkpt><trkpt lat="40.15784406060949" lon="8.655270298583725"><ele>692.0</ele><time>2026-05-03T10:20:25.001Z</time></trkpt><trkpt lat="40.157930856865335" lon="8.655237539169326"><ele>692.0</ele><time>2026-05-03T10:20:26.001Z</time></trkpt><trkpt lat="40.158013187595515" lon="8.655264538328975"><ele>692.0</ele><time>2026-05-03T10:20:27.001Z</time></trkpt><trkpt lat="40.15806711286197" lon="8.65536005980543"><ele>692.0</ele><time>2026-05-03T10:20:28.001Z</time></trkpt><trkpt lat="40.15812170459677" lon="8.65548097998753"><ele>692.0</ele><time>2026-05-03T10:20:29.001Z</time></trkpt><trkpt lat="40.15815013708258" lon="8.65562927885864"><ele>692.0</ele><time>2026-05-03T10:20:30.001Z</time></trkpt><trkpt lat="40.15812361513866" lon="8.65578894147877"><ele>692.0</ele><time>2026-05-03T10:20:31.001Z</time></trkpt><trkpt lat="40.158094345729" lon="8.655975200817998"><ele>692.0</ele><time>2026-05-03T10:20:32.001Z</time></trkpt><trkpt lat="40.15806314841272" lon="8.656199710573029"><ele>692.0</ele><time>2026-05-03T10:20:33.001Z</time></trkpt><trkpt lat="40.1580308817341" lon="8.656445100408714"><ele>689.6666666666666</ele><time>2026-05-03T10:20:34.001Z</time></trkpt><trkpt lat="40.15799707201965" lon="8.656702702076357"><ele>687.3333333333334</ele><time>2026-05-03T10:20:35.001Z</time></trkpt><trkpt lat="40.1579611141773" lon="8.656976670852979"><ele>685.0</ele><time>2026-05-03T10:20:36.001Z</time></trkpt><trkpt lat="40.15792205192727" lon="8.65727401844167"><ele>685.0</ele><time>2026-05-03T10:20:37.001Z</time></trkpt><trkpt lat="40.157882996575644" lon="8.657570002848455"><ele>685.0</ele><time>2026-05-03T10:20:38.001Z</time></trkpt><trkpt lat="40.157843016285355" lon="8.657872996696186"><ele>687.5</ele><time>2026-05-03T10:20:39.001Z</time></trkpt><trkpt lat="40.15780890072536" lon="8.658179775639374"><ele>690.0</ele><time>2026-05-03T10:20:40.001Z</time></trkpt><trkpt lat="40.157765279874724" lon="8.658477267499118"><ele>692.3333333333334</ele><time>2026-05-03T10:20:41.001Z</time></trkpt><trkpt lat="40.15772888570695" lon="8.658741963927323"><ele>694.6666666666667</ele><time>2026-05-03T10:20:42.001Z</time></trkpt><trkpt lat="40.157691010829495" lon="8.658977748941986"><ele>697.0</ele><time>2026-05-03T10:20:43.001Z</time></trkpt><trkpt lat="40.15768174831416" lon="8.65914021100796"><ele>697.0</ele><time>2026-05-03T10:20:44.001Z</time></trkpt><trkpt lat="40.15768551397829" lon="8.659318053764583"><ele>697.0</ele><time>2026-05-03T10:20:45.001Z</time></trkpt><trkpt lat="40.15771782885594" lon="8.659484418418852"><ele>697.0</ele><time>2026-05-03T10:20:46.001Z</time></trkpt><trkpt lat="40.15777308899343" lon="8.65963220819866"><ele>697.0</ele><time>2026-05-03T10:20:47.001Z</time></trkpt><trkpt lat="40.15784714778805" lon="8.659768333582214"><ele>695.6666666666667</ele><time>2026-05-03T10:20:48.001Z</time></trkpt><trkpt lat="40.1579536693812" lon="8.659897319890993"><ele>694.3333333333334</ele><time>2026-05-03T10:20:49Z</time></trkpt><trkpt lat="40.158093201592074" lon="8.660030471249705"><ele>693.0</ele><time>2026-05-03T10:20:50Z</time></trkpt><trkpt lat="40.15824000383551" lon="8.66015561122623"><ele>695.5</ele><time>2026-05-03T10:20:51Z</time></trkpt><trkpt lat="40.15837632452955" lon="8.660279672881986"><ele>698.0</ele><time>2026-05-03T10:20:52Z</time></trkpt><trkpt lat="40.158489987269014" lon="8.660388976217481"><ele>700.5</ele><time>2026-05-03T10:20:53Z</time></trkpt><trkpt lat="40.158608127530826" lon="8.660472889317543"><ele>703.0</ele><time>2026-05-03T10:20:54Z</time></trkpt><trkpt lat="40.15873084258843" lon="8.660515912414029"><ele>703.0</ele><time>2026-05-03T10:20:55Z</time></trkpt><trkpt lat="40.158861763801426" lon="8.660504395481066"><ele>703.0</ele><time>2026-05-03T10:20:56Z</time></trkpt><trkpt lat="40.15898825424782" lon="8.66044178357425"><ele>703.0</ele><time>2026-05-03T10:20:57Z</time></trkpt><trkpt lat="40.15912022506871" lon="8.660348201133683"><ele>703.0</ele><time>2026-05-03T10:20:58Z</time></trkpt><trkpt lat="40.15923992743812" lon="8.66026881689734"><ele>708.3333333333334</ele><time>2026-05-03T10:20:59Z</time></trkpt><trkpt lat="40.15937067911172" lon="8.660156647456091"><ele>713.6666666666666</ele><time>2026-05-03T10:21:00Z</time></trkpt><trkpt lat="40.1595077475776" lon="8.660038715184877"><ele>719.0</ele><time>2026-05-03T10:21:01Z</time></trkpt><trkpt lat="40.1596511770428" lon="8.659926631100296"><ele>719.0</ele><time>2026-05-03T10:21:02Z</time></trkpt><trkpt lat="40.1598083164327" lon="8.659831223675877"><ele>719.0</ele><time>2026-05-03T10:21:03Z</time></trkpt><trkpt lat="40.15996761584691" lon="8.659742945341577"><ele>719.0</ele><time>2026-05-03T10:21:04Z</time></trkpt><trkpt lat="40.1601077940927" lon="8.65966243559838"><ele>718.0</ele><time>2026-05-03T10:21:05Z</time></trkpt><trkpt lat="40.160245725926416" lon="8.659607191061554"><ele>717.0</ele><time>2026-05-03T10:21:06Z</time></trkpt><trkpt lat="40.16038738433842" lon="8.659583713030045"><ele>716.0</ele><time>2026-05-03T10:21:07Z</time></trkpt><trkpt lat="40.16053088088454" lon="8.659600795689071"><ele>715.0</ele><time>2026-05-03T10:21:08Z</time></trkpt><trkpt lat="40.16066401852281" lon="8.659653758555216"><ele>716.75</ele><time>2026-05-03T10:21:09Z</time></trkpt><trkpt lat="40.16079063038121" lon="8.659737689314314"><ele>718.5</ele><time>2026-05-03T10:21:10Z</time></trkpt><trkpt lat="40.16090473574157" lon="8.659842919800274"><ele>720.25</ele><time>2026-05-03T10:21:11Z</time></trkpt><trkpt lat="40.161000925346805" lon="8.659980771723266"><ele>722.0</ele><time>2026-05-03T10:21:12Z</time></trkpt><trkpt lat="40.16108276749078" lon="8.660107248401165"><ele>722.0</ele><time>2026-05-03T10:21:13Z</time></trkpt><trkpt lat="40.16114624886811" lon="8.660233995867372"><ele>722.0</ele><time>2026-05-03T10:21:14Z</time></trkpt><trkpt lat="40.161212442670504" lon="8.66035951542205"><ele>722.0</ele><time>2026-05-03T10:21:15Z</time></trkpt><trkpt lat="40.16128863984417" lon="8.660465562548334"><ele>722.0</ele><time>2026-05-03T10:21:16Z</time></trkpt><trkpt lat="40.16138015042509" lon="8.660569118610558"><ele>721.0</ele><time>2026-05-03T10:21:17Z</time></trkpt><trkpt lat="40.16148226151726" lon="8.660667725964906"><ele>720.0</ele><time>2026-05-03T10:21:18Z</time></trkpt><trkpt lat="40.161582780158284" lon="8.660761313216033"><ele>719.0</ele><time>2026-05-03T10:21:19Z</time></trkpt><trkpt lat="40.16167899678524" lon="8.660844921321322"><ele>718.0</ele><time>2026-05-03T10:21:20Z</time></trkpt><trkpt lat="40.16177534976439" lon="8.660922049710898"><ele>718.25</ele><time>2026-05-03T10:21:21Z</time></trkpt><trkpt lat="40.161873449407274" lon="8.660993470674212"><ele>718.5</ele><time>2026-05-03T10:21:22Z</time></trkpt><trkpt lat="40.16197538098493" lon="8.66106787342612"><ele>718.75</ele><time>2026-05-03T10:21:23Z</time></trkpt><trkpt lat="40.16208618660831" lon="8.661134013133017"><ele>719.0</ele><time>2026-05-03T10:21:24Z</time></trkpt><trkpt lat="40.162199021641946" lon="8.661170854985171"><ele>719.0</ele><time>2026-05-03T10:21:25Z</time></trkpt><trkpt lat="40.16231416070233" lon="8.661171790709098"><ele>719.0</ele><time>2026-05-03T10:21:26Z</time></trkpt><trkpt lat="40.16243748821084" lon="8.661136007660938"><ele>719.0</ele><time>2026-05-03T10:21:27Z</time></trkpt><trkpt lat="40.16254295387981" lon="8.661083520874044"><ele>719.0</ele><time>2026-05-03T10:21:28Z</time></trkpt><trkpt lat="40.162643890049246" lon="8.661023262799231"><ele>722.4000000000001</ele><time>2026-05-03T10:21:29Z</time></trkpt><trkpt lat="40.16273243271137" lon="8.66097004818938"><ele>725.8</ele><time>2026-05-03T10:21:30Z</time></trkpt><trkpt lat="40.162818862886795" lon="8.660907004101185"><ele>729.2</ele><time>2026-05-03T10:21:31Z</time></trkpt><trkpt lat="40.16288956795621" lon="8.660814788259161"><ele>732.5999999999999</ele><time>2026-05-03T10:21:32Z</time></trkpt><trkpt lat="40.162946115711925" lon="8.660707515243493"><ele>736.0</ele><time>2026-05-03T10:21:33Z</time></trkpt><trkpt lat="40.16299104584798" lon="8.660584523444438"><ele>736.0</ele><time>2026-05-03T10:21:34Z</time></trkpt><trkpt lat="40.16303868420121" lon="8.66045868927455"><ele>736.0</ele><time>2026-05-03T10:21:35Z</time></trkpt><trkpt lat="40.1630941513799" lon="8.66033976068014"><ele>736.0</ele><time>2026-05-03T10:21:36Z</time></trkpt><trkpt lat="40.163152518055156" lon="8.660234410548046"><ele>736.0</ele><time>2026-05-03T10:21:37Z</time></trkpt><trkpt lat="40.163212300305304" lon="8.660145451430902"><ele>736.0</ele><time>2026-05-03T10:21:38Z</time></trkpt><trkpt lat="40.16327404112786" lon="8.660049581177574"><ele>736.0</ele><time>2026-05-03T10:21:39Z</time></trkpt><trkpt lat="40.163324612001645" lon="8.659943186794866"><ele>736.0</ele><time>2026-05-03T10:21:40Z</time></trkpt><trkpt lat="40.163354340280904" lon="8.6598246501772"><ele>736.0</ele><time>2026-05-03T10:21:41Z</time></trkpt><trkpt lat="40.16335824370319" lon="8.659704904638211"><ele>736.0</ele><time>2026-05-03T10:21:42Z</time></trkpt><trkpt lat="40.16333648989723" lon="8.659567928517388"><ele>736.0</ele><time>2026-05-03T10:21:43Z</time></trkpt><trkpt lat="40.16328941281892" lon="8.659409821487506"><ele>736.0</ele><time>2026-05-03T10:21:44Z</time></trkpt><trkpt lat="40.16325945379381" lon="8.659257187924297"><ele>736.0</ele><time>2026-05-03T10:21:45Z</time></trkpt><trkpt lat="40.163201424534826" lon="8.659113846137583"><ele>736.0</ele><time>2026-05-03T10:21:46Z</time></trkpt><trkpt lat="40.16316252755597" lon="8.658968473579288"><ele>736.0</ele><time>2026-05-03T10:21:47Z</time></trkpt><trkpt lat="40.16312179886541" lon="8.658828293566053"><ele>738.1999999999999</ele><time>2026-05-03T10:21:48Z</time></trkpt><trkpt lat="40.16308271565275" lon="8.658692232283787"><ele>740.4</ele><time>2026-05-03T10:21:49Z</time></trkpt><trkpt lat="40.16304402619189" lon="8.658560533861655"><ele>742.6</ele><time>2026-05-03T10:21:50Z</time></trkpt><trkpt lat="40.16300684420244" lon="8.658428123113106"><ele>744.8</ele><time>2026-05-03T10:21:51Z</time></trkpt><trkpt lat="40.162968525218815" lon="8.658294293227819"><ele>747.0</ele><time>2026-05-03T10:21:52Z</time></trkpt><trkpt lat="40.16293147022019" lon="8.658173635796421"><ele>747.0</ele><time>2026-05-03T10:21:53Z</time></trkpt><trkpt lat="40.162896217652154" lon="8.658055136045922"><ele>747.0</ele><time>2026-05-03T10:21:54Z</time></trkpt><trkpt lat="40.16283265089602" lon="8.65794684996625"><ele>747.0</ele><time>2026-05-03T10:21:55Z</time></trkpt><trkpt lat="40.16275254605471" lon="8.657856115169217"><ele>747.0</ele><time>2026-05-03T10:21:56Z</time></trkpt><trkpt lat="40.1626582664832" lon="8.657784644248746"><ele>747.0</ele><time>2026-05-03T10:21:57.001Z</time></trkpt><trkpt lat="40.16256420565153" lon="8.65773562822568"><ele>746.6</ele><time>2026-05-03T10:21:58.001Z</time></trkpt><trkpt lat="40.162483028218254" lon="8.657695416950238"><ele>746.2</ele><time>2026-05-03T10:21:59.001Z</time></trkpt><trkpt lat="40.162376261130866" lon="8.65764352995775"><ele>745.8</ele><time>2026-05-03T10:22:00.001Z</time></trkpt><trkpt lat="40.16228118517582" lon="8.657591725693889"><ele>745.4</ele><time>2026-05-03T10:22:01.001Z</time></trkpt><trkpt lat="40.162186031094066" lon="8.657538339431825"><ele>745.0</ele><time>2026-05-03T10:22:02.001Z</time></trkpt><trkpt lat="40.162105937547175" lon="8.657480439737245"><ele>745.0</ele><time>2026-05-03T10:22:03.001Z</time></trkpt><trkpt lat="40.162040657097144" lon="8.657402759269273"><ele>745.0</ele><time>2026-05-03T10:22:04.001Z</time></trkpt><trkpt lat="40.16198757627028" lon="8.65730806770216"><ele>745.0</ele><time>2026-05-03T10:22:05.001Z</time></trkpt><trkpt lat="40.161951150617526" lon="8.657207030216203"><ele>745.0</ele><time>2026-05-03T10:22:06.001Z</time></trkpt><trkpt lat="40.161933327402565" lon="8.65711073442673"><ele>745.0</ele><time>2026-05-03T10:22:07.001Z</time></trkpt><trkpt lat="40.161929688870025" lon="8.657024182004518"><ele>745.0</ele><time>2026-05-03T10:22:08.001Z</time></trkpt><trkpt lat="40.161934168841704" lon="8.656938636636827"><ele>745.4</ele><time>2026-05-03T10:22:09.001Z</time></trkpt><trkpt lat="40.16194488676384" lon="8.656846026881745"><ele>745.8</ele><time>2026-05-03T10:22:10.001Z</time></trkpt><trkpt lat="40.162005464133095" lon="8.65680498042283"><ele>746.2</ele><time>2026-05-03T10:23:39Z</time></trkpt><trkpt lat="40.162145969015874" lon="8.656755778230945"><ele>746.6</ele><time>2026-05-03T10:23:41Z</time></trkpt><trkpt lat="40.162222917726034" lon="8.656701079369887"><ele>747.0</ele><time>2026-05-03T10:23:42Z</time></trkpt><trkpt lat="40.162311047948876" lon="8.656636186709605"><ele>746.2</ele><time>2026-05-03T10:23:43Z</time></trkpt><trkpt lat="40.16239912703352" lon="8.656561603870877"><ele>745.4000000000001</ele><time>2026-05-03T10:23:44Z</time></trkpt><trkpt lat="40.1624891992636" lon="8.65649680725524"><ele>744.5999999999999</ele><time>2026-05-03T10:23:45Z</time></trkpt><trkpt lat="40.16259008558483" lon="8.656451986831067"><ele>743.8</ele><time>2026-05-03T10:23:46Z</time></trkpt><trkpt lat="40.162706271088226" lon="8.656446357696613"><ele>743.0</ele><time>2026-05-03T10:23:47Z</time></trkpt><trkpt lat="40.16283682254806" lon="8.656468453892492"><ele>743.0</ele><time>2026-05-03T10:23:48Z</time></trkpt><trkpt lat="40.16298675662734" lon="8.656510689215448"><ele>743.0</ele><time>2026-05-03T10:23:49Z</time></trkpt><trkpt lat="40.163155597765574" lon="8.656565976350919"><ele>743.0</ele><time>2026-05-03T10:23:50Z</time></trkpt><trkpt lat="40.1633203321472" lon="8.656614749585321"><ele>742.0</ele><time>2026-05-03T10:23:51Z</time></trkpt><trkpt lat="40.163500054476664" lon="8.656670367801329"><ele>741.0</ele><time>2026-05-03T10:23:52Z</time></trkpt><trkpt lat="40.16368042845973" lon="8.656722154667621"><ele>740.0</ele><time>2026-05-03T10:23:53.001Z</time></trkpt><trkpt lat="40.163842817928376" lon="8.656767181158683"><ele>740.0</ele><time>2026-05-03T10:23:54.001Z</time></trkpt><trkpt lat="40.16399732166559" lon="8.656820241664882"><ele>740.0</ele><time>2026-05-03T10:23:55.001Z</time></trkpt><trkpt lat="40.16414216844942" lon="8.656894190819035"><ele>740.0</ele><time>2026-05-03T10:23:56.001Z</time></trkpt><trkpt lat="40.164278583712985" lon="8.657004770998391"><ele>738.0</ele><time>2026-05-03T10:23:57.001Z</time></trkpt><trkpt lat="40.164396312261694" lon="8.65715957478381"><ele>736.0</ele><time>2026-05-03T10:23:58.001Z</time></trkpt><trkpt lat="40.16451122850335" lon="8.65736637670892"><ele>734.0</ele><time>2026-05-03T10:23:59.001Z</time></trkpt><trkpt lat="40.16465693553652" lon="8.657567495069403"><ele>734.0</ele><time>2026-05-03T10:24:00.001Z</time></trkpt><trkpt lat="40.16479028769214" lon="8.657775540024184"><ele>734.0</ele><time>2026-05-03T10:24:01.001Z</time></trkpt><trkpt lat="40.16492413172789" lon="8.65797398713502"><ele>734.0</ele><time>2026-05-03T10:24:02.001Z</time></trkpt><trkpt lat="40.16506516934328" lon="8.658185419104333"><ele>732.3333333333333</ele><time>2026-05-03T10:24:03.001Z</time></trkpt><trkpt lat="40.165201732854776" lon="8.658392806861084"><ele>730.6666666666666</ele><time>2026-05-03T10:24:04.001Z</time></trkpt><trkpt lat="40.16533023009591" lon="8.65858166702875"><ele>729.0</ele><time>2026-05-03T10:24:05.001Z</time></trkpt><trkpt lat="40.16546087582444" lon="8.658753324725778"><ele>727.3333333333334</ele><time>2026-05-03T10:24:06.001Z</time></trkpt><trkpt lat="40.16560236531563" lon="8.658907419190982"><ele>725.6666666666667</ele><time>2026-05-03T10:24:07.001Z</time></trkpt><trkpt lat="40.16574153169971" lon="8.65903200560431"><ele>724.0</ele><time>2026-05-03T10:24:08.001Z</time></trkpt><trkpt lat="40.165881121556716" lon="8.65912692968478"><ele>724.0</ele><time>2026-05-03T10:24:09.001Z</time></trkpt><trkpt lat="40.166044901901785" lon="8.659199752924913"><ele>724.0</ele><time>2026-05-03T10:24:10.001Z</time></trkpt><trkpt lat="40.16622747161569" lon="8.659243257699764"><ele>724.0</ele><time>2026-05-03T10:24:11.001Z</time></trkpt><trkpt lat="40.16642496556131" lon="8.659279774638525"><ele>725.3333333333334</ele><time>2026-05-03T10:24:12.001Z</time></trkpt><trkpt lat="40.166625447190555" lon="8.65931602948907"><ele>726.6666666666666</ele><time>2026-05-03T10:24:13.001Z</time></trkpt><trkpt lat="40.16682698051575" lon="8.659359481396368"><ele>728.0</ele><time>2026-05-03T10:24:14.001Z</time></trkpt><trkpt lat="40.16703338613497" lon="8.65941623301014"><ele>724.3333333333333</ele><time>2026-05-03T10:24:15.001Z</time></trkpt><trkpt lat="40.167244311287845" lon="8.65948452097164"><ele>720.6666666666666</ele><time>2026-05-03T10:24:16.001Z</time></trkpt><trkpt lat="40.167457759434434" lon="8.659559739814505"><ele>717.0</ele><time>2026-05-03T10:24:17.001Z</time></trkpt><trkpt lat="40.16766546128279" lon="8.659632112546019"><ele>717.0</ele><time>2026-05-03T10:24:18.001Z</time></trkpt><trkpt lat="40.16786436290922" lon="8.659699988584954"><ele>717.0</ele><time>2026-05-03T10:24:19.001Z</time></trkpt><trkpt lat="40.168052309375184" lon="8.659761090939089"><ele>717.0</ele><time>2026-05-03T10:24:20.001Z</time></trkpt><trkpt lat="40.16822859520351" lon="8.659819297711577"><ele>719.6666666666666</ele><time>2026-05-03T10:24:21.001Z</time></trkpt><trkpt lat="40.168394953804295" lon="8.659873636047736"><ele>722.3333333333333</ele><time>2026-05-03T10:24:22.001Z</time></trkpt><trkpt lat="40.16855455172042" lon="8.659929323970982"><ele>725.0</ele><time>2026-05-03T10:24:23.001Z</time></trkpt><trkpt lat="40.16871836184788" lon="8.659984256396397"><ele>725.0</ele><time>2026-05-03T10:24:24.001Z</time></trkpt><trkpt lat="40.16888168197036" lon="8.660039890224022"><ele>725.0</ele><time>2026-05-03T10:24:25.001Z</time></trkpt><trkpt lat="40.16904336299039" lon="8.660096801291209"><ele>725.0</ele><time>2026-05-03T10:24:26.001Z</time></trkpt><trkpt lat="40.169199933947986" lon="8.660150890776993"><ele>725.6666666666666</ele><time>2026-05-03T10:24:27.001Z</time></trkpt><trkpt lat="40.169354125048386" lon="8.660205498677414"><ele>726.3333333333334</ele><time>2026-05-03T10:24:28.001Z</time></trkpt><trkpt lat="40.16951431720964" lon="8.66027030794634"><ele>727.0</ele><time>2026-05-03T10:24:29.001Z</time></trkpt><trkpt lat="40.169682684355664" lon="8.660357312639963"><ele>726.3333333333334</ele><time>2026-05-03T10:24:30.001Z</time></trkpt><trkpt lat="40.169862925634526" lon="8.660461999294675"><ele>725.6666666666666</ele><time>2026-05-03T10:24:31.001Z</time></trkpt><trkpt lat="40.17005974659212" lon="8.660581310278788"><ele>725.0</ele><time>2026-05-03T10:24:32.001Z</time></trkpt><trkpt lat="40.170267545904615" lon="8.66071405179069"><ele>725.0</ele><time>2026-05-03T10:24:33.001Z</time></trkpt><trkpt lat="40.17048822794754" lon="8.660855508250958"><ele>725.0</ele><time>2026-05-03T10:24:34.001Z</time></trkpt><trkpt lat="40.17072070178847" lon="8.661001391852531"><ele>723.0</ele><time>2026-05-03T10:24:35.001Z</time></trkpt><trkpt lat="40.17095160758366" lon="8.661146500639203"><ele>721.0</ele><time>2026-05-03T10:24:36.001Z</time></trkpt><trkpt lat="40.1711918271683" lon="8.66129125239638"><ele>721.0</ele><time>2026-05-03T10:24:37.001Z</time></trkpt><trkpt lat="40.171429650802445" lon="8.661445677639747"><ele>721.0</ele><time>2026-05-03T10:24:38.001Z</time></trkpt><trkpt lat="40.17161678588153" lon="8.66157198783523"><ele>717.0</ele><time>2026-05-03T10:24:39.001Z</time></trkpt><trkpt lat="40.171847783142844" lon="8.661726779415467"><ele>713.0</ele><time>2026-05-03T10:24:40.001Z</time></trkpt><trkpt lat="40.172074314908215" lon="8.661860076784837"><ele>714.0</ele><time>2026-05-03T10:24:41.001Z</time></trkpt><trkpt lat="40.172289494539676" lon="8.661997812479422"><ele>715.0</ele><time>2026-05-03T10:24:42.001Z</time></trkpt><trkpt lat="40.17250896794374" lon="8.662143181673388"><ele>711.5</ele><time>2026-05-03T10:24:43.001Z</time></trkpt><trkpt lat="40.17273547438657" lon="8.662288757661637"><ele>708.0</ele><time>2026-05-03T10:24:44.001Z</time></trkpt><trkpt lat="40.172944043164726" lon="8.662421085990344"><ele>708.0</ele><time>2026-05-03T10:24:45.001Z</time></trkpt><trkpt lat="40.17313986738856" lon="8.662569495234392"><ele>708.0</ele><time>2026-05-03T10:24:46.001Z</time></trkpt><trkpt lat="40.17335349182619" lon="8.662689085060885"><ele>706.0</ele><time>2026-05-03T10:24:47.001Z</time></trkpt><trkpt lat="40.17355354253287" lon="8.662813102535617"><ele>704.0</ele><time>2026-05-03T10:24:48.001Z</time></trkpt><trkpt lat="40.1737551767253" lon="8.662944437429699"><ele>702.0</ele><time>2026-05-03T10:24:49.001Z</time></trkpt><trkpt lat="40.17393708827092" lon="8.663059603457539"><ele>699.3333333333334</ele><time>2026-05-03T10:24:50.001Z</time></trkpt><trkpt lat="40.17411075450356" lon="8.663169600345299"><ele>696.6666666666667</ele><time>2026-05-03T10:24:51.001Z</time></trkpt><trkpt lat="40.17429078506274" lon="8.663273397547403"><ele>694.0</ele><time>2026-05-03T10:24:52.001Z</time></trkpt><trkpt lat="40.17449030284581" lon="8.66341842513887"><ele>694.0</ele><time>2026-05-03T10:24:53.001Z</time></trkpt><trkpt lat="40.17469096751594" lon="8.663545176220483"><ele>694.0</ele><time>2026-05-03T10:24:54.001Z</time></trkpt><trkpt lat="40.174875416022196" lon="8.66366160775977"><ele>694.0</ele><time>2026-05-03T10:24:55.001Z</time></trkpt><trkpt lat="40.17504970030218" lon="8.663757619348356"><ele>693.3333333333334</ele><time>2026-05-03T10:24:56.001Z</time></trkpt><trkpt lat="40.17521449513469" lon="8.663864758364673"><ele>692.6666666666666</ele><time>2026-05-03T10:24:57.001Z</time></trkpt><trkpt lat="40.17537897392714" lon="8.66395459832217"><ele>692.0</ele><time>2026-05-03T10:24:58.001Z</time></trkpt><trkpt lat="40.175557500979174" lon="8.664022719746164"><ele>691.6666666666666</ele><time>2026-05-03T10:24:59.001Z</time></trkpt><trkpt lat="40.175690773518625" lon="8.664023777803594"><ele>691.3333333333334</ele><time>2026-05-03T10:25:00.001Z</time></trkpt><trkpt lat="40.17588376901729" lon="8.664073381515147"><ele>691.0</ele><time>2026-05-03T10:25:00.999Z</time></trkpt><trkpt lat="40.17608558159668" lon="8.664111054556615"><ele>691.0</ele><time>2026-05-03T10:25:01.999Z</time></trkpt><trkpt lat="40.176199379846366" lon="8.664115871636405"><ele>691.0</ele><time>2026-05-03T10:25:02.999Z</time></trkpt><trkpt lat="40.176327460075036" lon="8.66416343006963"><ele>691.0</ele><time>2026-05-03T10:25:03.999Z</time></trkpt><trkpt lat="40.17652310275704" lon="8.664196443475886"><ele>691.0</ele><time>2026-05-03T10:25:04.999Z</time></trkpt><trkpt lat="40.176670066940126" lon="8.664247178552602"><ele>691.3333333333334</ele><time>2026-05-03T10:25:06Z</time></trkpt><trkpt lat="40.1768440266033" lon="8.664280566111332"><ele>691.6666666666666</ele><time>2026-05-03T10:25:07Z</time></trkpt><trkpt lat="40.17698851081539" lon="8.664306435903704"><ele>692.0</ele><time>2026-05-03T10:25:08Z</time></trkpt><trkpt lat="40.177120807737836" lon="8.664332521797458"><ele>692.0</ele><time>2026-05-03T10:25:09Z</time></trkpt><trkpt lat="40.177260348849856" lon="8.664377852569315"><ele>692.0</ele><time>2026-05-03T10:25:10Z</time></trkpt><trkpt lat="40.17741729548292" lon="8.664414425727967"><ele>692.0</ele><time>2026-05-03T10:25:11Z</time></trkpt><trkpt lat="40.1775529137996" lon="8.6644398829828"><ele>692.0</ele><time>2026-05-03T10:25:12Z</time></trkpt><trkpt lat="40.17767866764597" lon="8.6644706478145"><ele>691.25</ele><time>2026-05-03T10:25:13Z</time></trkpt><trkpt lat="40.17779805969471" lon="8.66449609988483"><ele>690.5</ele><time>2026-05-03T10:25:14Z</time></trkpt><trkpt lat="40.177923499438435" lon="8.664542481870248"><ele>689.75</ele><time>2026-05-03T10:25:15Z</time></trkpt><trkpt lat="40.17803753566479" lon="8.664597050595086"><ele>689.0</ele><time>2026-05-03T10:25:16Z</time></trkpt><trkpt lat="40.17816622055138" lon="8.664615326939803"><ele>689.25</ele><time>2026-05-03T10:25:17Z</time></trkpt><trkpt lat="40.178295086911845" lon="8.66471445563984"><ele>689.5</ele><time>2026-05-03T10:25:18Z</time></trkpt><trkpt lat="40.17840693219071" lon="8.664810909250205"><ele>689.75</ele><time>2026-05-03T10:25:19Z</time></trkpt><trkpt lat="40.17852815063484" lon="8.664912580256471"><ele>690.0</ele><time>2026-05-03T10:25:20Z</time></trkpt><trkpt lat="40.17866323347666" lon="8.665000746541457"><ele>690.0</ele><time>2026-05-03T10:25:21Z</time></trkpt><trkpt lat="40.178818273876196" lon="8.665143167443512"><ele>690.0</ele><time>2026-05-03T10:25:22Z</time></trkpt><trkpt lat="40.17897416271661" lon="8.665280663031432"><ele>690.0</ele><time>2026-05-03T10:25:23Z</time></trkpt><trkpt lat="40.1791231221171" lon="8.665403776362407"><ele>689.6666666666666</ele><time>2026-05-03T10:25:24Z</time></trkpt><trkpt lat="40.17926572621138" lon="8.665536761234495"><ele>689.3333333333333</ele><time>2026-05-03T10:25:25Z</time></trkpt><trkpt lat="40.179410585663" lon="8.665656156623854"><ele>689.0</ele><time>2026-05-03T10:25:26Z</time></trkpt><trkpt lat="40.17956188268953" lon="8.665783229012744"><ele>689.0</ele><time>2026-05-03T10:25:27Z</time></trkpt><trkpt lat="40.17972633690592" lon="8.665909798160303"><ele>689.0</ele><time>2026-05-03T10:25:28Z</time></trkpt><trkpt lat="40.179869371783695" lon="8.666024523021552"><ele>689.0</ele><time>2026-05-03T10:25:29Z</time></trkpt><trkpt lat="40.180027891303794" lon="8.66619171541653"><ele>687.6666666666666</ele><time>2026-05-03T10:25:30Z</time></trkpt><trkpt lat="40.18020574631552" lon="8.666347230659351"><ele>686.3333333333334</ele><time>2026-05-03T10:25:31Z</time></trkpt><trkpt lat="40.1803670112833" lon="8.66648675241908"><ele>685.0</ele><time>2026-05-03T10:25:32Z</time></trkpt><trkpt lat="40.180532649731894" lon="8.666637678797743"><ele>684.6666666666667</ele><time>2026-05-03T10:25:33Z</time></trkpt><trkpt lat="40.18070030725179" lon="8.666779058688052"><ele>684.3333333333334</ele><time>2026-05-03T10:25:34Z</time></trkpt><trkpt lat="40.18086642353337" lon="8.666909053673985"><ele>684.0</ele><time>2026-05-03T10:25:35Z</time></trkpt><trkpt lat="40.18103240090998" lon="8.667042217993897"><ele>683.6666666666666</ele><time>2026-05-03T10:25:36Z</time></trkpt><trkpt lat="40.181192655664496" lon="8.667207547188168"><ele>683.3333333333333</ele><time>2026-05-03T10:25:37Z</time></trkpt><trkpt lat="40.181353726076814" lon="8.667346695940239"><ele>683.0</ele><time>2026-05-03T10:25:38Z</time></trkpt><trkpt lat="40.18151079648664" lon="8.667489417567865"><ele>683.0</ele><time>2026-05-03T10:25:39Z</time></trkpt><trkpt lat="40.18166893930178" lon="8.667626701778666"><ele>683.0</ele><time>2026-05-03T10:25:40Z</time></trkpt><trkpt lat="40.18181676450457" lon="8.667777291056499"><ele>683.0</ele><time>2026-05-03T10:25:41Z</time></trkpt><trkpt lat="40.18196388233916" lon="8.66790536977748"><ele>683.0</ele><time>2026-05-03T10:25:42Z</time></trkpt><trkpt lat="40.182109302236086" lon="8.668031970281756"><ele>683.0</ele><time>2026-05-03T10:25:43Z</time></trkpt><trkpt lat="40.182231913150545" lon="8.668134186319335"><ele>683.0</ele><time>2026-05-03T10:25:44Z</time></trkpt><trkpt lat="40.18237906324969" lon="8.668238590681817"><ele>684.6666666666666</ele><time>2026-05-03T10:25:45Z</time></trkpt><trkpt lat="40.1825410157" lon="8.668316466603866"><ele>686.3333333333334</ele><time>2026-05-03T10:25:46Z</time></trkpt><trkpt lat="40.18270099798376" lon="8.668384514535845"><ele>688.0</ele><time>2026-05-03T10:25:47Z</time></trkpt><trkpt lat="40.182897056352004" lon="8.668469254907777"><ele>688.0</ele><time>2026-05-03T10:25:48Z</time></trkpt><trkpt lat="40.183082570350024" lon="8.668548141717821"><ele>688.0</ele><time>2026-05-03T10:25:49Z</time></trkpt><trkpt lat="40.18328665447256" lon="8.6686350302536"><ele>688.0</ele><time>2026-05-03T10:25:50Z</time></trkpt><trkpt lat="40.18348881111311" lon="8.66872125037594"><ele>687.6666666666667</ele><time>2026-05-03T10:25:51Z</time></trkpt><trkpt lat="40.18370972188991" lon="8.668815469223455"><ele>687.3333333333334</ele><time>2026-05-03T10:25:52Z</time></trkpt><trkpt lat="40.18390072336423" lon="8.668896931659823"><ele>687.0</ele><time>2026-05-03T10:25:53Z</time></trkpt><trkpt lat="40.18414094677934" lon="8.668999387344435"><ele>687.0</ele><time>2026-05-03T10:25:54Z</time></trkpt><trkpt lat="40.184349576463134" lon="8.669088368290165"><ele>687.0</ele><time>2026-05-03T10:25:55Z</time></trkpt><trkpt lat="40.18455555931489" lon="8.669176220315316"><ele>687.0</ele><time>2026-05-03T10:25:56Z</time></trkpt><trkpt lat="40.184762000647666" lon="8.669264267920028"><ele>687.0</ele><time>2026-05-03T10:25:57Z</time></trkpt><trkpt lat="40.18495997542775" lon="8.669348704506762"><ele>687.0</ele><time>2026-05-03T10:25:58Z</time></trkpt><trkpt lat="40.18515461813606" lon="8.669431088510956"><ele>687.0</ele><time>2026-05-03T10:25:59Z</time></trkpt><trkpt lat="40.18534809883237" lon="8.669512131823321"><ele>687.0</ele><time>2026-05-03T10:26:00Z</time></trkpt><trkpt lat="40.1855343090683" lon="8.669590129657838"><ele>687.0</ele><time>2026-05-03T10:26:01Z</time></trkpt><trkpt lat="40.185730886701464" lon="8.66967247015443"><ele>687.0</ele><time>2026-05-03T10:26:02Z</time></trkpt><trkpt lat="40.18591333817202" lon="8.669748621501284"><ele>687.0</ele><time>2026-05-03T10:26:03Z</time></trkpt><trkpt lat="40.18609882500174" lon="8.669803518593158"><ele>687.0</ele><time>2026-05-03T10:26:04Z</time></trkpt><trkpt lat="40.18626949942624" lon="8.669897572594405"><ele>687.0</ele><time>2026-05-03T10:26:05Z</time></trkpt><trkpt lat="40.18645504520397" lon="8.66997977372144"><ele>687.6666666666666</ele><time>2026-05-03T10:26:06.001Z</time></trkpt><trkpt lat="40.18665009629415" lon="8.670059503662566"><ele>688.3333333333333</ele><time>2026-05-03T10:26:07.001Z</time></trkpt><trkpt lat="40.18684797346886" lon="8.67016579916028"><ele>689.0</ele><time>2026-05-03T10:26:08.001Z</time></trkpt><trkpt lat="40.18704416706874" lon="8.670289900877528"><ele>689.5</ele><time>2026-05-03T10:26:09.001Z</time></trkpt><trkpt lat="40.18725380511376" lon="8.670442464151124"><ele>690.0</ele><time>2026-05-03T10:26:10.001Z</time></trkpt><trkpt lat="40.18746447897339" lon="8.670607364757704"><ele>690.0</ele><time>2026-05-03T10:26:11.001Z</time></trkpt><trkpt lat="40.18767800247681" lon="8.670775988989334"><ele>690.0</ele><time>2026-05-03T10:26:12.001Z</time></trkpt><trkpt lat="40.18789831284108" lon="8.670942162379943"><ele>690.5</ele><time>2026-05-03T10:26:13.001Z</time></trkpt><trkpt lat="40.18812005250145" lon="8.671114730651848"><ele>691.0</ele><time>2026-05-03T10:26:14.001Z</time></trkpt><trkpt lat="40.18833591844892" lon="8.671280159288484"><ele>691.0</ele><time>2026-05-03T10:26:15.001Z</time></trkpt><trkpt lat="40.188554508632905" lon="8.671451847334774"><ele>691.0</ele><time>2026-05-03T10:26:16.001Z</time></trkpt><trkpt lat="40.18876943842878" lon="8.671616575695975"><ele>691.0</ele><time>2026-05-03T10:26:17.001Z</time></trkpt><trkpt lat="40.18898320577573" lon="8.671783665288451"><ele>691.0</ele><time>2026-05-03T10:26:18.001Z</time></trkpt><trkpt lat="40.189192730053435" lon="8.671948985165427"><ele>690.0</ele><time>2026-05-03T10:26:19.001Z</time></trkpt><trkpt lat="40.18940125918835" lon="8.672110237832028"><ele>689.0</ele><time>2026-05-03T10:26:20.001Z</time></trkpt><trkpt lat="40.189611527056975" lon="8.672267634301251"><ele>689.0</ele><time>2026-05-03T10:26:21.001Z</time></trkpt><trkpt lat="40.18982042243111" lon="8.672434643776773"><ele>689.0</ele><time>2026-05-03T10:26:22.001Z</time></trkpt><trkpt lat="40.19002326688979" lon="8.672596962447098"><ele>690.5</ele><time>2026-05-03T10:26:23.001Z</time></trkpt><trkpt lat="40.19023081689807" lon="8.672754322017147"><ele>692.0</ele><time>2026-05-03T10:26:24.001Z</time></trkpt><trkpt lat="40.190440891838186" lon="8.672910724112745"><ele>692.0</ele><time>2026-05-03T10:26:25.001Z</time></trkpt><trkpt lat="40.19064390904317" lon="8.673072442684786"><ele>692.0</ele><time>2026-05-03T10:26:26.001Z</time></trkpt><trkpt lat="40.1908466142256" lon="8.673233913484548"><ele>693.0</ele><time>2026-05-03T10:26:27.001Z</time></trkpt><trkpt lat="40.191049309101096" lon="8.67339323026682"><ele>694.0</ele><time>2026-05-03T10:26:28.001Z</time></trkpt><trkpt lat="40.19125623500746" lon="8.673550642080711"><ele>692.5</ele><time>2026-05-03T10:26:29.001Z</time></trkpt><trkpt lat="40.191459609699585" lon="8.673708565155026"><ele>691.0</ele><time>2026-05-03T10:26:30.001Z</time></trkpt><trkpt lat="40.191658169347406" lon="8.673863650309814"><ele>691.0</ele><time>2026-05-03T10:26:31.001Z</time></trkpt><trkpt lat="40.19185146277227" lon="8.674007248465772"><ele>691.0</ele><time>2026-05-03T10:26:32.001Z</time></trkpt><trkpt lat="40.19204765836347" lon="8.67416523103728"><ele>691.0</ele><time>2026-05-03T10:26:33.001Z</time></trkpt><trkpt lat="40.192244531857426" lon="8.674319243079218"><ele>691.0</ele><time>2026-05-03T10:26:34.001Z</time></trkpt><trkpt lat="40.19243536099249" lon="8.674473839697612"><ele>691.0</ele><time>2026-05-03T10:26:35.001Z</time></trkpt><trkpt lat="40.19262605181892" lon="8.674620718403641"><ele>691.0</ele><time>2026-05-03T10:26:36.001Z</time></trkpt><trkpt lat="40.19281936792105" lon="8.674777290701845"><ele>691.0</ele><time>2026-05-03T10:26:37.001Z</time></trkpt><trkpt lat="40.19301410595246" lon="8.674920110765937"><ele>691.3333333333334</ele><time>2026-05-03T10:26:38.001Z</time></trkpt><trkpt lat="40.19320193981228" lon="8.675065597014678"><ele>691.6666666666666</ele><time>2026-05-03T10:26:39.001Z</time></trkpt><trkpt lat="40.19338440768393" lon="8.675210577823954"><ele>692.0</ele><time>2026-05-03T10:26:40.001Z</time></trkpt><trkpt lat="40.19356098244742" lon="8.67534094210016"><ele>692.0</ele><time>2026-05-03T10:26:41.001Z</time></trkpt><trkpt lat="40.19373060723359" lon="8.675478043440787"><ele>692.0</ele><time>2026-05-03T10:26:42.001Z</time></trkpt><trkpt lat="40.19390078936455" lon="8.67562171999057"><ele>692.0</ele><time>2026-05-03T10:26:43.001Z</time></trkpt><trkpt lat="40.19406790748452" lon="8.675780907620824"><ele>692.0</ele><time>2026-05-03T10:26:44.001Z</time></trkpt><trkpt lat="40.19423231715346" lon="8.675954024754116"><ele>692.0</ele><time>2026-05-03T10:26:45.001Z</time></trkpt><trkpt lat="40.19440314665544" lon="8.676148889108193"><ele>692.0</ele><time>2026-05-03T10:26:46.001Z</time></trkpt><trkpt lat="40.194573005086994" lon="8.676355665487787"><ele>692.0</ele><time>2026-05-03T10:26:47.001Z</time></trkpt><trkpt lat="40.194736784762" lon="8.676568593887746"><ele>692.0</ele><time>2026-05-03T10:26:48.001Z</time></trkpt><trkpt lat="40.19489791258291" lon="8.676798483780308"><ele>694.0</ele><time>2026-05-03T10:26:49.001Z</time></trkpt><trkpt lat="40.19506444835523" lon="8.67702905118519"><ele>696.0</ele><time>2026-05-03T10:26:50.001Z</time></trkpt><trkpt lat="40.19523057315428" lon="8.677256041487489"><ele>696.0</ele><time>2026-05-03T10:26:51.001Z</time></trkpt><trkpt lat="40.19539912779642" lon="8.677488349056013"><ele>696.0</ele><time>2026-05-03T10:26:52.001Z</time></trkpt><trkpt lat="40.1955608529408" lon="8.677703076270214"><ele>698.0</ele><time>2026-05-03T10:26:53.001Z</time></trkpt><trkpt lat="40.195717712913414" lon="8.67791492248124"><ele>700.0</ele><time>2026-05-03T10:26:54.001Z</time></trkpt><trkpt lat="40.19586585719976" lon="8.678119855589088"><ele>702.0</ele><time>2026-05-03T10:26:55.001Z</time></trkpt><trkpt lat="40.19600558925117" lon="8.678342429565419"><ele>702.0</ele><time>2026-05-03T10:26:56.001Z</time></trkpt><trkpt lat="40.196128959795914" lon="8.678580208127077"><ele>702.0</ele><time>2026-05-03T10:26:57.001Z</time></trkpt><trkpt lat="40.196248854024915" lon="8.67882852929186"><ele>702.0</ele><time>2026-05-03T10:26:58.001Z</time></trkpt><trkpt lat="40.196352762970704" lon="8.679078883792819"><ele>702.0</ele><time>2026-05-03T10:26:59.001Z</time></trkpt><trkpt lat="40.196460672888065" lon="8.679331187516057"><ele>702.0</ele><time>2026-05-03T10:27:00.001Z</time></trkpt><trkpt lat="40.19656904535684" lon="8.679581826633202"><ele>702.0</ele><time>2026-05-03T10:27:01.001Z</time></trkpt><trkpt lat="40.19668018234033" lon="8.679831409792484"><ele>704.3333333333334</ele><time>2026-05-03T10:27:02.001Z</time></trkpt><trkpt lat="40.196791295338464" lon="8.680074408888103"><ele>706.6666666666667</ele><time>2026-05-03T10:27:03.001Z</time></trkpt><trkpt lat="40.19690180719836" lon="8.68031747510381"><ele>709.0</ele><time>2026-05-03T10:27:04.001Z</time></trkpt><trkpt lat="40.1970158525332" lon="8.680557370946987"><ele>709.0</ele><time>2026-05-03T10:27:05.001Z</time></trkpt><trkpt lat="40.19714128045632" lon="8.680791719228793"><ele>709.0</ele><time>2026-05-03T10:27:06.001Z</time></trkpt><trkpt lat="40.19727800906641" lon="8.681037694287465"><ele>710.5</ele><time>2026-05-03T10:27:07.001Z</time></trkpt><trkpt lat="40.19743726969617" lon="8.681297212126925"><ele>712.0</ele><time>2026-05-03T10:27:08.001Z</time></trkpt><trkpt lat="40.19759555561897" lon="8.68156210922655"><ele>712.0</ele><time>2026-05-03T10:27:09.001Z</time></trkpt><trkpt lat="40.197739195264596" lon="8.681827541358373"><ele>712.0</ele><time>2026-05-03T10:27:10.001Z</time></trkpt><trkpt lat="40.197904720836256" lon="8.682059017575012"><ele>710.6666666666667</ele><time>2026-05-03T10:27:11.001Z</time></trkpt><trkpt lat="40.198047627882275" lon="8.682296027772969"><ele>709.3333333333334</ele><time>2026-05-03T10:27:12.001Z</time></trkpt><trkpt lat="40.19818026774149" lon="8.682515002202221"><ele>708.0</ele><time>2026-05-03T10:27:13.001Z</time></trkpt><trkpt lat="40.198320839288215" lon="8.682723802844011"><ele>708.3333333333334</ele><time>2026-05-03T10:27:14.001Z</time></trkpt><trkpt lat="40.19846886327423" lon="8.682922533184062"><ele>708.6666666666667</ele><time>2026-05-03T10:27:15.001Z</time></trkpt><trkpt lat="40.198640292906" lon="8.683093886885866"><ele>709.0</ele><time>2026-05-03T10:27:16.001Z</time></trkpt><trkpt lat="40.19883196288441" lon="8.683271385234287"><ele>710.0</ele><time>2026-05-03T10:27:17.001Z</time></trkpt><trkpt lat="40.19903744091325" lon="8.68344492590582"><ele>711.0</ele><time>2026-05-03T10:27:18.001Z</time></trkpt><trkpt lat="40.19925027915007" lon="8.683620980237071"><ele>711.0</ele><time>2026-05-03T10:27:19.001Z</time></trkpt><trkpt lat="40.199454950172516" lon="8.683794095303059"><ele>711.0</ele><time>2026-05-03T10:27:20.001Z</time></trkpt><trkpt lat="40.19965304635705" lon="8.683957394686432"><ele>713.0</ele><time>2026-05-03T10:27:21.001Z</time></trkpt><trkpt lat="40.19984791897723" lon="8.68411799633144"><ele>715.0</ele><time>2026-05-03T10:27:22.001Z</time></trkpt><trkpt lat="40.200034002979045" lon="8.684271052894905"><ele>715.0</ele><time>2026-05-03T10:27:23.001Z</time></trkpt><trkpt lat="40.20020321062623" lon="8.684412243011968"><ele>715.0</ele><time>2026-05-03T10:27:24.001Z</time></trkpt><trkpt lat="40.20037174611306" lon="8.684551800309933"><ele>715.0</ele><time>2026-05-03T10:27:25.001Z</time></trkpt><trkpt lat="40.200535533148816" lon="8.68468323114641"><ele>714.0</ele><time>2026-05-03T10:27:26.001Z</time></trkpt><trkpt lat="40.20069008654367" lon="8.684825100299193"><ele>713.0</ele><time>2026-05-03T10:27:27.001Z</time></trkpt><trkpt lat="40.20083970679316" lon="8.684979448632056"><ele>712.0</ele><time>2026-05-03T10:27:28.001Z</time></trkpt><trkpt lat="40.200977473569495" lon="8.685159111299864"><ele>710.3333333333334</ele><time>2026-05-03T10:27:29.001Z</time></trkpt><trkpt lat="40.201105582205074" lon="8.68536019910497"><ele>708.6666666666666</ele><time>2026-05-03T10:27:30.001Z</time></trkpt><trkpt lat="40.201227943248966" lon="8.68557333822066"><ele>707.0</ele><time>2026-05-03T10:27:31.001Z</time></trkpt><trkpt lat="40.20134883544336" lon="8.685793389982758"><ele>707.0</ele><time>2026-05-03T10:27:32.001Z</time></trkpt><trkpt lat="40.201472015386784" lon="8.68601841921943"><ele>707.0</ele><time>2026-05-03T10:27:33.001Z</time></trkpt><trkpt lat="40.2015982394801" lon="8.68623985995008"><ele>707.0</ele><time>2026-05-03T10:27:34.001Z</time></trkpt><trkpt lat="40.20171893537888" lon="8.686459540848368"><ele>708.0</ele><time>2026-05-03T10:27:35.001Z</time></trkpt><trkpt lat="40.20183720683117" lon="8.686672520575058"><ele>709.0</ele><time>2026-05-03T10:27:36.001Z</time></trkpt><trkpt lat="40.20194912231563" lon="8.686874718256488"><ele>710.0</ele><time>2026-05-03T10:27:37.001Z</time></trkpt><trkpt lat="40.202045512444094" lon="8.687077928264879"><ele>710.6666666666666</ele><time>2026-05-03T10:27:38.001Z</time></trkpt><trkpt lat="40.20212398228313" lon="8.687275923542199"><ele>711.3333333333334</ele><time>2026-05-03T10:27:39.001Z</time></trkpt><trkpt lat="40.202206713049044" lon="8.687478020902786"><ele>712.0</ele><time>2026-05-03T10:27:40.001Z</time></trkpt><trkpt lat="40.20230229018332" lon="8.68767797402329"><ele>711.3333333333334</ele><time>2026-05-03T10:27:41.001Z</time></trkpt><trkpt lat="40.202413808268076" lon="8.687873284729164"><ele>710.6666666666666</ele><time>2026-05-03T10:27:42.001Z</time></trkpt><trkpt lat="40.202548880499656" lon="8.688063670067718"><ele>710.0</ele><time>2026-05-03T10:27:43.001Z</time></trkpt><trkpt lat="40.20269743022553" lon="8.688264551356076"><ele>710.0</ele><time>2026-05-03T10:27:44.001Z</time></trkpt><trkpt lat="40.20285654624023" lon="8.68845937427947"><ele>710.0</ele><time>2026-05-03T10:27:45.001Z</time></trkpt><trkpt lat="40.20300595009357" lon="8.688639298296525"><ele>710.0</ele><time>2026-05-03T10:27:46.001Z</time></trkpt><trkpt lat="40.203158633667115" lon="8.688818232944934"><ele>709.5</ele><time>2026-05-03T10:27:47.001Z</time></trkpt><trkpt lat="40.2033307286284" lon="8.689019441019752"><ele>709.0</ele><time>2026-05-03T10:27:48.001Z</time></trkpt><trkpt lat="40.20348775217144" lon="8.689239683831802"><ele>707.0</ele><time>2026-05-03T10:27:49.001Z</time></trkpt><trkpt lat="40.2036781002694" lon="8.68944030715554"><ele>705.0</ele><time>2026-05-03T10:27:50.001Z</time></trkpt><trkpt lat="40.203844651095054" lon="8.68965920280556"><ele>706.5</ele><time>2026-05-03T10:27:51.001Z</time></trkpt><trkpt lat="40.204013288579134" lon="8.689865235652508"><ele>708.0</ele><time>2026-05-03T10:27:52.001Z</time></trkpt><trkpt lat="40.2042045764038" lon="8.690081035821995"><ele>707.0</ele><time>2026-05-03T10:27:53.001Z</time></trkpt><trkpt lat="40.20436157506006" lon="8.690284583537785"><ele>706.0</ele><time>2026-05-03T10:27:54.001Z</time></trkpt><trkpt lat="40.20452440225808" lon="8.6904851083387"><ele>705.0</ele><time>2026-05-03T10:27:55.001Z</time></trkpt><trkpt lat="40.20468520064086" lon="8.690683118643811"><ele>704.3333333333334</ele><time>2026-05-03T10:27:56.001Z</time></trkpt><trkpt lat="40.20484253671951" lon="8.690880655670778"><ele>703.6666666666667</ele><time>2026-05-03T10:27:57.001Z</time></trkpt><trkpt lat="40.204997002799225" lon="8.691073533935336"><ele>703.0</ele><time>2026-05-03T10:27:58.001Z</time></trkpt><trkpt lat="40.205146384364895" lon="8.69125854636387"><ele>703.0</ele><time>2026-05-03T10:27:59.001Z</time></trkpt><trkpt lat="40.20529380200947" lon="8.691435902425098"><ele>703.0</ele><time>2026-05-03T10:28:00.001Z</time></trkpt><trkpt lat="40.20543745879227" lon="8.691607796302081"><ele>703.0</ele><time>2026-05-03T10:28:01.001Z</time></trkpt><trkpt lat="40.20557341060754" lon="8.691779764421183"><ele>704.0</ele><time>2026-05-03T10:28:02.001Z</time></trkpt><trkpt lat="40.205708732768" lon="8.691951822710262"><ele>705.0</ele><time>2026-05-03T10:28:03.001Z</time></trkpt><trkpt lat="40.205842690552835" lon="8.692119456481386"><ele>706.0</ele><time>2026-05-03T10:28:04.001Z</time></trkpt><trkpt lat="40.20597903189659" lon="8.692287853837227"><ele>706.0</ele><time>2026-05-03T10:28:05.001Z</time></trkpt><trkpt lat="40.20612062162848" lon="8.692466053568278"><ele>706.0</ele><time>2026-05-03T10:28:06.001Z</time></trkpt><trkpt lat="40.20624792652262" lon="8.692649251386756"><ele>706.0</ele><time>2026-05-03T10:28:07.001Z</time></trkpt><trkpt lat="40.20635248548998" lon="8.69284875212635"><ele>704.6666666666667</ele><time>2026-05-03T10:28:08.001Z</time></trkpt><trkpt lat="40.206442860829995" lon="8.693070455685847"><ele>703.3333333333334</ele><time>2026-05-03T10:28:09.001Z</time></trkpt><trkpt lat="40.20651963356229" lon="8.693312741275987"><ele>702.0</ele><time>2026-05-03T10:28:10.001Z</time></trkpt><trkpt lat="40.20657991265635" lon="8.69355044790724"><ele>704.3333333333334</ele><time>2026-05-03T10:28:11.001Z</time></trkpt><trkpt lat="40.206650452492" lon="8.693762015849858"><ele>706.6666666666667</ele><time>2026-05-03T10:28:12.001Z</time></trkpt><trkpt lat="40.20675175597352" lon="8.693967115030988"><ele>709.0</ele><time>2026-05-03T10:28:13.001Z</time></trkpt><trkpt lat="40.20688573998201" lon="8.694174095999106"><ele>709.0</ele><time>2026-05-03T10:28:14.001Z</time></trkpt><trkpt lat="40.20703135846501" lon="8.694397641150273"><ele>709.0</ele><time>2026-05-03T10:28:15.001Z</time></trkpt><trkpt lat="40.207182017931665" lon="8.694627423857614"><ele>709.5</ele><time>2026-05-03T10:28:16.001Z</time></trkpt><trkpt lat="40.20733938453124" lon="8.694867434780445"><ele>710.0</ele><time>2026-05-03T10:28:17.001Z</time></trkpt><trkpt lat="40.20748780370925" lon="8.695092429067222"><ele>708.3333333333333</ele><time>2026-05-03T10:28:18.001Z</time></trkpt><trkpt lat="40.207625169069935" lon="8.695300829122516"><ele>706.6666666666666</ele><time>2026-05-03T10:28:19.001Z</time></trkpt><trkpt lat="40.207763463657635" lon="8.695492637766574"><ele>705.0</ele><time>2026-05-03T10:28:20.001Z</time></trkpt><trkpt lat="40.20790456973549" lon="8.695673116277247"><ele>705.0</ele><time>2026-05-03T10:28:21.001Z</time></trkpt><trkpt lat="40.20806155110912" lon="8.695846844736947"><ele>705.0</ele><time>2026-05-03T10:28:22.001Z</time></trkpt><trkpt lat="40.208235971570836" lon="8.696011031147767"><ele>705.0</ele><time>2026-05-03T10:28:23.001Z</time></trkpt><trkpt lat="40.208416802317416" lon="8.696175349614895"><ele>704.5</ele><time>2026-05-03T10:28:24.001Z</time></trkpt><trkpt lat="40.20860487006787" lon="8.696342577225158"><ele>704.0</ele><time>2026-05-03T10:28:25.001Z</time></trkpt><trkpt lat="40.208800055100255" lon="8.69651218843725"><ele>707.0</ele><time>2026-05-03T10:28:26.001Z</time></trkpt><trkpt lat="40.20899398133412" lon="8.696678612135305"><ele>710.0</ele><time>2026-05-03T10:28:27.001Z</time></trkpt><trkpt lat="40.20918112574731" lon="8.696843158083308"><ele>708.6666666666666</ele><time>2026-05-03T10:28:28.001Z</time></trkpt><trkpt lat="40.20936842239686" lon="8.697010348626925"><ele>707.3333333333334</ele><time>2026-05-03T10:28:29.001Z</time></trkpt><trkpt lat="40.20954554906871" lon="8.69716703089947"><ele>706.0</ele><time>2026-05-03T10:28:30.001Z</time></trkpt><trkpt lat="40.209719052455974" lon="8.697316468531719"><ele>707.6666666666667</ele><time>2026-05-03T10:28:31.001Z</time></trkpt><trkpt lat="40.2098870368899" lon="8.697459434686012"><ele>709.3333333333334</ele><time>2026-05-03T10:28:32.001Z</time></trkpt><trkpt lat="40.210050057631456" lon="8.69760306019305"><ele>711.0</ele><time>2026-05-03T10:28:33.001Z</time></trkpt><trkpt lat="40.21021167033661" lon="8.697735663192878"><ele>710.3333333333334</ele><time>2026-05-03T10:28:34.001Z</time></trkpt><trkpt lat="40.21038186746733" lon="8.697865952789188"><ele>709.6666666666667</ele><time>2026-05-03T10:28:35.001Z</time></trkpt><trkpt lat="40.210555793587716" lon="8.697993526222902"><ele>709.0</ele><time>2026-05-03T10:28:36.001Z</time></trkpt><trkpt lat="40.2107307452447" lon="8.698105601875609"><ele>709.0</ele><time>2026-05-03T10:28:37.001Z</time></trkpt><trkpt lat="40.21091438659101" lon="8.698224790010617"><ele>709.0</ele><time>2026-05-03T10:28:38.001Z</time></trkpt><trkpt lat="40.21110246855127" lon="8.69833630180901"><ele>709.0</ele><time>2026-05-03T10:28:39.001Z</time></trkpt><trkpt lat="40.211285064944626" lon="8.698456720532404"><ele>709.0</ele><time>2026-05-03T10:28:40.001Z</time></trkpt><trkpt lat="40.21148534918746" lon="8.698577722813614"><ele>709.0</ele><time>2026-05-03T10:28:41.001Z</time></trkpt><trkpt lat="40.21168151217739" lon="8.698685145193378"><ele>709.0</ele><time>2026-05-03T10:28:42.001Z</time></trkpt><trkpt lat="40.21188180313958" lon="8.698791818822755"><ele>708.3333333333334</ele><time>2026-05-03T10:28:43.001Z</time></trkpt><trkpt lat="40.21207874777244" lon="8.698902985844608"><ele>707.6666666666666</ele><time>2026-05-03T10:28:44.001Z</time></trkpt><trkpt lat="40.21226589947653" lon="8.699008205574183"><ele>707.0</ele><time>2026-05-03T10:28:45.001Z</time></trkpt><trkpt lat="40.21244502623837" lon="8.699106031518712"><ele>707.0</ele><time>2026-05-03T10:28:46.001Z</time></trkpt><trkpt lat="40.21261775830977" lon="8.699204254698401"><ele>707.0</ele><time>2026-05-03T10:28:47.001Z</time></trkpt><trkpt lat="40.21277996154605" lon="8.699299852976024"><ele>707.0</ele><time>2026-05-03T10:28:48.001Z</time></trkpt><trkpt lat="40.212934890837204" lon="8.699397287365516"><ele>705.6666666666666</ele><time>2026-05-03T10:28:49.001Z</time></trkpt><trkpt lat="40.213092887329594" lon="8.699510871088183"><ele>704.3333333333334</ele><time>2026-05-03T10:28:50.002Z</time></trkpt><trkpt lat="40.21324155388718" lon="8.699603673999759"><ele>703.0</ele><time>2026-05-03T10:28:51.002Z</time></trkpt><trkpt lat="40.21339132008049" lon="8.69970476632725"><ele>702.6666666666667</ele><time>2026-05-03T10:28:52.002Z</time></trkpt><trkpt lat="40.213550089379" lon="8.699816252130704"><ele>702.3333333333334</ele><time>2026-05-03T10:28:53.002Z</time></trkpt><trkpt lat="40.21369603013627" lon="8.699934303374903"><ele>702.0</ele><time>2026-05-03T10:28:54.002Z</time></trkpt><trkpt lat="40.21384028127919" lon="8.700071404400791"><ele>702.0</ele><time>2026-05-03T10:28:55.002Z</time></trkpt><trkpt lat="40.213984573778895" lon="8.700220820750276"><ele>702.0</ele><time>2026-05-03T10:28:56.002Z</time></trkpt><trkpt lat="40.21411664993836" lon="8.70037713986661"><ele>702.0</ele><time>2026-05-03T10:28:57.002Z</time></trkpt><trkpt lat="40.21425923529656" lon="8.700542804066622"><ele>700.3333333333334</ele><time>2026-05-03T10:28:58.002Z</time></trkpt><trkpt lat="40.21437672454716" lon="8.700692874189585"><ele>698.6666666666667</ele><time>2026-05-03T10:28:59.002Z</time></trkpt><trkpt lat="40.214510337092015" lon="8.700830772471035"><ele>697.0</ele><time>2026-05-03T10:29:00.002Z</time></trkpt><trkpt lat="40.21463904541755" lon="8.700952198486869"><ele>697.0</ele><time>2026-05-03T10:29:01.002Z</time></trkpt><trkpt lat="40.21475886617348" lon="8.701069973673237"><ele>697.0</ele><time>2026-05-03T10:29:02.002Z</time></trkpt><trkpt lat="40.21488962777096" lon="8.701193104252857"><ele>697.0</ele><time>2026-05-03T10:29:03.002Z</time></trkpt><trkpt lat="40.21502258182569" lon="8.701310427438656"><ele>695.25</ele><time>2026-05-03T10:29:04.002Z</time></trkpt><trkpt lat="40.21514640535699" lon="8.701414028432053"><ele>693.5</ele><time>2026-05-03T10:29:05.002Z</time></trkpt><trkpt lat="40.2152697943435" lon="8.701516358892711"><ele>691.75</ele><time>2026-05-03T10:29:06.002Z</time></trkpt><trkpt lat="40.21539074499446" lon="8.701609164185243"><ele>690.0</ele><time>2026-05-03T10:29:07.002Z</time></trkpt><trkpt lat="40.215525507766344" lon="8.70167739458579"><ele>688.0</ele><time>2026-05-03T10:29:08.002Z</time></trkpt><trkpt lat="40.21567952828272" lon="8.701710628704472"><ele>686.0</ele><time>2026-05-03T10:29:09.002Z</time></trkpt><trkpt lat="40.215840641723865" lon="8.701719159960454"><ele>684.0</ele><time>2026-05-03T10:29:10.002Z</time></trkpt><trkpt lat="40.21599832881471" lon="8.701731356516762"><ele>684.0</ele><time>2026-05-03T10:29:11.002Z</time></trkpt><trkpt lat="40.21615549925054" lon="8.701741388537599"><ele>684.0</ele><time>2026-05-03T10:29:12.002Z</time></trkpt><trkpt lat="40.21631733765159" lon="8.701723486581379"><ele>684.0</ele><time>2026-05-03T10:29:13.002Z</time></trkpt><trkpt lat="40.21648471518227" lon="8.701678818346165"><ele>682.3333333333334</ele><time>2026-05-03T10:29:14.002Z</time></trkpt><trkpt lat="40.216660139266736" lon="8.701629237655412"><ele>680.6666666666667</ele><time>2026-05-03T10:29:15.002Z</time></trkpt><trkpt lat="40.21683180855568" lon="8.701585279109684"><ele>679.0</ele><time>2026-05-03T10:29:16.002Z</time></trkpt><trkpt lat="40.2169970592382" lon="8.701536848386866"><ele>679.0</ele><time>2026-05-03T10:29:17.002Z</time></trkpt><trkpt lat="40.21716259634005" lon="8.70149027104799"><ele>679.0</ele><time>2026-05-03T10:29:18.002Z</time></trkpt><trkpt lat="40.217320256550785" lon="8.70144461834884"><ele>679.0</ele><time>2026-05-03T10:29:19.002Z</time></trkpt><trkpt lat="40.21747336469465" lon="8.701401187765725"><ele>676.0</ele><time>2026-05-03T10:29:20.002Z</time></trkpt><trkpt lat="40.21762266498702" lon="8.701356761949597"><ele>673.0</ele><time>2026-05-03T10:29:21.001Z</time></trkpt><trkpt lat="40.21777179746221" lon="8.701286910311811"><ele>670.0</ele><time>2026-05-03T10:29:22.001Z</time></trkpt><trkpt lat="40.21792531841541" lon="8.70119195700543"><ele>670.0</ele><time>2026-05-03T10:29:23.001Z</time></trkpt><trkpt lat="40.21808130375129" lon="8.701095691933617"><ele>670.0</ele><time>2026-05-03T10:29:24.001Z</time></trkpt><trkpt lat="40.218245701089806" lon="8.701012187352969"><ele>670.0</ele><time>2026-05-03T10:29:25.001Z</time></trkpt><trkpt lat="40.218413964350056" lon="8.700960483659044"><ele>672.0</ele><time>2026-05-03T10:29:26.001Z</time></trkpt><trkpt lat="40.21859634005812" lon="8.70093068963031"><ele>674.0</ele><time>2026-05-03T10:29:27.001Z</time></trkpt><trkpt lat="40.21877544133271" lon="8.70091418226019"><ele>676.0</ele><time>2026-05-03T10:29:28.001Z</time></trkpt><trkpt lat="40.21894659463259" lon="8.700902574022011"><ele>673.3333333333334</ele><time>2026-05-03T10:29:29.001Z</time></trkpt><trkpt lat="40.21911045328543" lon="8.70089942662562"><ele>670.6666666666666</ele><time>2026-05-03T10:29:30.001Z</time></trkpt><trkpt lat="40.21926304735636" lon="8.700905555042244"><ele>668.0</ele><time>2026-05-03T10:29:31.001Z</time></trkpt><trkpt lat="40.2194185145005" lon="8.700895474724529"><ele>668.0</ele><time>2026-05-03T10:29:32.001Z</time></trkpt><trkpt lat="40.21956406938977" lon="8.700890810558553"><ele>668.0</ele><time>2026-05-03T10:29:33.001Z</time></trkpt><trkpt lat="40.219707328749365" lon="8.70089454945113"><ele>668.0</ele><time>2026-05-03T10:29:34.001Z</time></trkpt><trkpt lat="40.219847943981556" lon="8.70092536260923"><ele>668.0</ele><time>2026-05-03T10:29:35.001Z</time></trkpt><trkpt lat="40.21999264806203" lon="8.70098328567167"><ele>664.0</ele><time>2026-05-03T10:29:36.001Z</time></trkpt><trkpt lat="40.22012411189524" lon="8.701093183821841"><ele>660.0</ele><time>2026-05-03T10:29:37.001Z</time></trkpt><trkpt lat="40.22025110706469" lon="8.701241779528315"><ele>656.0</ele><time>2026-05-03T10:29:38.001Z</time></trkpt><trkpt lat="40.220382766236604" lon="8.701420855995407"><ele>656.0</ele><time>2026-05-03T10:29:39.001Z</time></trkpt><trkpt lat="40.22051789329414" lon="8.701616570903983"><ele>656.0</ele><time>2026-05-03T10:29:40.001Z</time></trkpt><trkpt lat="40.22064274064151" lon="8.7017917822258"><ele>656.0</ele><time>2026-05-03T10:29:41.001Z</time></trkpt><trkpt lat="40.22077219699358" lon="8.701980738160524"><ele>656.3333333333333</ele><time>2026-05-03T10:29:42.001Z</time></trkpt><trkpt lat="40.2209034754184" lon="8.702189937468669"><ele>656.6666666666666</ele><time>2026-05-03T10:29:43.001Z</time></trkpt><trkpt lat="40.22104825346926" lon="8.702397326202904"><ele>657.0</ele><time>2026-05-03T10:29:44.001Z</time></trkpt><trkpt lat="40.22119656726537" lon="8.70261846560318"><ele>656.5</ele><time>2026-05-03T10:29:45.001Z</time></trkpt><trkpt lat="40.22134807749987" lon="8.70284302990529"><ele>656.0</ele><time>2026-05-03T10:29:46.001Z</time></trkpt><trkpt lat="40.221502137121014" lon="8.703067879966431"><ele>656.0</ele><time>2026-05-03T10:29:47.001Z</time></trkpt><trkpt lat="40.221655868099276" lon="8.703291638413114"><ele>656.0</ele><time>2026-05-03T10:29:48.001Z</time></trkpt><trkpt lat="40.22180941958531" lon="8.703510881335184"><ele>653.0</ele><time>2026-05-03T10:29:49.001Z</time></trkpt><trkpt lat="40.22195550083439" lon="8.70372140816539"><ele>650.0</ele><time>2026-05-03T10:29:50.001Z</time></trkpt><trkpt lat="40.22209572307347" lon="8.703921943723143"><ele>647.0</ele><time>2026-05-03T10:29:51.001Z</time></trkpt><trkpt lat="40.222228800857614" lon="8.704122627825507"><ele>648.0</ele><time>2026-05-03T10:29:52.001Z</time></trkpt><trkpt lat="40.22235428848557" lon="8.704337396470931"><ele>649.0</ele><time>2026-05-03T10:29:53.001Z</time></trkpt><trkpt lat="40.2224735474692" lon="8.704569933749534"><ele>650.0</ele><time>2026-05-03T10:29:54.001Z</time></trkpt><trkpt lat="40.22258518273014" lon="8.704818403144023"><ele>650.0</ele><time>2026-05-03T10:29:55.001Z</time></trkpt><trkpt lat="40.222695899939566" lon="8.705078915701508"><ele>650.0</ele><time>2026-05-03T10:29:56.001Z</time></trkpt><trkpt lat="40.22280423627883" lon="8.705341970071045"><ele>647.5</ele><time>2026-05-03T10:29:57.001Z</time></trkpt><trkpt lat="40.222915281927605" lon="8.705605278165192"><ele>645.0</ele><time>2026-05-03T10:29:58.001Z</time></trkpt><trkpt lat="40.223026843755" lon="8.705868649052531"><ele>645.0</ele><time>2026-05-03T10:29:59.001Z</time></trkpt><trkpt lat="40.22313407284073" lon="8.706129788303862"><ele>645.0</ele><time>2026-05-03T10:30:00.001Z</time></trkpt><trkpt lat="40.2232462175715" lon="8.706392067402806"><ele>644.6666666666666</ele><time>2026-05-03T10:30:01.001Z</time></trkpt><trkpt lat="40.22335653550222" lon="8.706655018933603"><ele>644.3333333333333</ele><time>2026-05-03T10:30:02.001Z</time></trkpt><trkpt lat="40.22346214878157" lon="8.70689986878261"><ele>644.0</ele><time>2026-05-03T10:30:03.001Z</time></trkpt><trkpt lat="40.223564030396325" lon="8.707146023832417"><ele>644.0</ele><time>2026-05-03T10:30:04.001Z</time></trkpt><trkpt lat="40.223657775177806" lon="8.707379089150253"><ele>644.0</ele><time>2026-05-03T10:30:05.001Z</time></trkpt><trkpt lat="40.22374750671111" lon="8.707593477084183"><ele>644.0</ele><time>2026-05-03T10:30:06.001Z</time></trkpt><trkpt lat="40.2238340181048" lon="8.707796893182884"><ele>643.6666666666666</ele><time>2026-05-03T10:30:07.001Z</time></trkpt><trkpt lat="40.22391460219663" lon="8.707993765793105"><ele>643.3333333333334</ele><time>2026-05-03T10:30:08.001Z</time></trkpt><trkpt lat="40.223989874628415" lon="8.708177537336233"><ele>643.0</ele><time>2026-05-03T10:30:09.001Z</time></trkpt><trkpt lat="40.22406881278146" lon="8.7083425610061"><ele>643.25</ele><time>2026-05-03T10:30:10.001Z</time></trkpt><trkpt lat="40.22416014168304" lon="8.70847042559926"><ele>643.5</ele><time>2026-05-03T10:30:11.001Z</time></trkpt><trkpt lat="40.22426923042277" lon="8.70856174057571"><ele>643.75</ele><time>2026-05-03T10:30:12.001Z</time></trkpt><trkpt lat="40.224393800889594" lon="8.708592664453468"><ele>644.0</ele><time>2026-05-03T10:30:13.001Z</time></trkpt><trkpt lat="40.224523991124286" lon="8.708574396328123"><ele>644.6666666666666</ele><time>2026-05-03T10:30:14.001Z</time></trkpt><trkpt lat="40.22466730508296" lon="8.708529534584056"><ele>645.3333333333334</ele><time>2026-05-03T10:30:15.001Z</time></trkpt><trkpt lat="40.22483090262681" lon="8.70847796465086"><ele>646.0</ele><time>2026-05-03T10:30:16.001Z</time></trkpt><trkpt lat="40.22500251314819" lon="8.708429541805867"><ele>646.0</ele><time>2026-05-03T10:30:17.001Z</time></trkpt><trkpt lat="40.225156408581185" lon="8.70838356002292"><ele>646.0</ele><time>2026-05-03T10:30:18.001Z</time></trkpt><trkpt lat="40.22530197784346" lon="8.708316958129515"><ele>646.0</ele><time>2026-05-03T10:30:19.001Z</time></trkpt><trkpt lat="40.22543176640126" lon="8.708214444242937"><ele>646.0</ele><time>2026-05-03T10:30:20.001Z</time></trkpt><trkpt lat="40.2255404736701" lon="8.708081592531896"><ele>646.0</ele><time>2026-05-03T10:30:21.001Z</time></trkpt><trkpt lat="40.22564642263047" lon="8.707912950020608"><ele>646.0</ele><time>2026-05-03T10:30:22.001Z</time></trkpt><trkpt lat="40.2257427831277" lon="8.7077466133928"><ele>645.0</ele><time>2026-05-03T10:30:23.001Z</time></trkpt><trkpt lat="40.2258356498952" lon="8.707589538566001"><ele>644.0</ele><time>2026-05-03T10:30:24.001Z</time></trkpt><trkpt lat="40.22592434556812" lon="8.707446132794542"><ele>643.0</ele><time>2026-05-03T10:30:25.001Z</time></trkpt><trkpt lat="40.226014859087094" lon="8.707319221470637"><ele>642.0</ele><time>2026-05-03T10:30:26.001Z</time></trkpt><trkpt lat="40.226107754049" lon="8.707233315970683"><ele>642.0</ele><time>2026-05-03T10:30:27.001Z</time></trkpt><trkpt lat="40.2262244882233" lon="8.707191333795278"><ele>642.0</ele><time>2026-05-03T10:30:28.001Z</time></trkpt><trkpt lat="40.2263527353207" lon="8.707192045742786"><ele>642.0</ele><time>2026-05-03T10:30:29.001Z</time></trkpt><trkpt lat="40.226481699577434" lon="8.707234962406524"><ele>642.0</ele><time>2026-05-03T10:30:30.001Z</time></trkpt><trkpt lat="40.22660865662502" lon="8.707302923691364"><ele>641.0</ele><time>2026-05-03T10:30:31.001Z</time></trkpt><trkpt lat="40.22673764358112" lon="8.70737851301196"><ele>640.0</ele><time>2026-05-03T10:30:32.001Z</time></trkpt><trkpt lat="40.22686082964106" lon="8.707444886987089"><ele>639.0</ele><time>2026-05-03T10:30:33.001Z</time></trkpt><trkpt lat="40.22698008288117" lon="8.707508764195508"><ele>638.0</ele><time>2026-05-03T10:30:34.001Z</time></trkpt><trkpt lat="40.22709186098182" lon="8.707565771817261"><ele>638.0</ele><time>2026-05-03T10:30:35.001Z</time></trkpt><trkpt lat="40.22720067832495" lon="8.707621997032472"><ele>638.0</ele><time>2026-05-03T10:30:36.001Z</time></trkpt><trkpt lat="40.22730197625869" lon="8.707668411477592"><ele>638.0</ele><time>2026-05-03T10:30:37.001Z</time></trkpt><trkpt lat="40.227408664825674" lon="8.70772031026855"><ele>638.0</ele><time>2026-05-03T10:30:38.001Z</time></trkpt><trkpt lat="40.22751633617727" lon="8.70777654331525"><ele>637.1999999999999</ele><time>2026-05-03T10:30:39.001Z</time></trkpt><trkpt lat="40.22761400331752" lon="8.707829099779746"><ele>636.4</ele><time>2026-05-03T10:30:40.001Z</time></trkpt><trkpt lat="40.22770933059284" lon="8.707875800254536"><ele>635.5999999999999</ele><time>2026-05-03T10:30:41.001Z</time></trkpt><trkpt lat="40.227793257119636" lon="8.70791586007272"><ele>634.8</ele><time>2026-05-03T10:30:42.001Z</time></trkpt><trkpt lat="40.227867384143075" lon="8.707938935243565"><ele>634.0</ele><time>2026-05-03T10:30:43.001Z</time></trkpt><trkpt lat="40.227958838351626" lon="8.70799368269925"><ele>634.0</ele><time>2026-05-03T10:30:45.001Z</time></trkpt><trkpt lat="40.22803132858516" lon="8.707812104323983"><ele>634.0</ele><time>2026-05-03T10:30:46.001Z</time></trkpt><trkpt lat="40.22803511736825" lon="8.70771683083026"><ele>634.0</ele><time>2026-05-03T10:30:47.001Z</time></trkpt><trkpt lat="40.22805770694495" lon="8.707614956376029"><ele>634.0</ele><time>2026-05-03T10:30:48.001Z</time></trkpt><trkpt lat="40.228035941014824" lon="8.707497903847928"><ele>634.0</ele><time>2026-05-03T10:30:49.001Z</time></trkpt><trkpt lat="40.22798467047375" lon="8.707376917152494"><ele>635.25</ele><time>2026-05-03T10:30:50.001Z</time></trkpt><trkpt lat="40.22791412626829" lon="8.707253663819387"><ele>636.5</ele><time>2026-05-03T10:30:51.001Z</time></trkpt><trkpt lat="40.227835524090295" lon="8.707114998933005"><ele>637.75</ele><time>2026-05-03T10:30:52.001Z</time></trkpt><trkpt lat="40.227741251213835" lon="8.70695242052727"><ele>639.0</ele><time>2026-05-03T10:30:53.001Z</time></trkpt><trkpt lat="40.22765083031363" lon="8.706793664876992"><ele>640.0</ele><time>2026-05-03T10:30:54.001Z</time></trkpt><trkpt lat="40.2275553762038" lon="8.706617325192434"><ele>641.0</ele><time>2026-05-03T10:30:55.001Z</time></trkpt><trkpt lat="40.22745343522106" lon="8.706420036834041"><ele>642.0</ele><time>2026-05-03T10:30:56.001Z</time></trkpt><trkpt lat="40.227353198815315" lon="8.706222133051003"><ele>641.6666666666666</ele><time>2026-05-03T10:30:57.001Z</time></trkpt><trkpt lat="40.227247152389" lon="8.706010642920043"><ele>641.3333333333333</ele><time>2026-05-03T10:30:58.001Z</time></trkpt><trkpt lat="40.227128181277486" lon="8.705774284979972"><ele>641.0</ele><time>2026-05-03T10:30:59.001Z</time></trkpt><trkpt lat="40.227006820841105" lon="8.705532819461583"><ele>641.0</ele><time>2026-05-03T10:31:00.001Z</time></trkpt><trkpt lat="40.226885116921906" lon="8.705290670721068"><ele>641.0</ele><time>2026-05-03T10:31:01.001Z</time></trkpt><trkpt lat="40.22675810781125" lon="8.705043295895317"><ele>641.0</ele><time>2026-05-03T10:31:02.001Z</time></trkpt><trkpt lat="40.22662444044197" lon="8.70478776998632"><ele>642.0</ele><time>2026-05-03T10:31:03.001Z</time></trkpt><trkpt lat="40.226493673509225" lon="8.704533701058155"><ele>643.0</ele><time>2026-05-03T10:31:04.001Z</time></trkpt><trkpt lat="40.22636412242781" lon="8.704279984973477"><ele>644.6666666666667</ele><time>2026-05-03T10:31:05.001Z</time></trkpt><trkpt lat="40.22624338463417" lon="8.704028905045694"><ele>646.3333333333334</ele><time>2026-05-03T10:31:06.001Z</time></trkpt><trkpt lat="40.22613985385415" lon="8.703779424285857"><ele>648.0</ele><time>2026-05-03T10:31:07.001Z</time></trkpt><trkpt lat="40.226054968224666" lon="8.703535221565732"><ele>648.6666666666666</ele><time>2026-05-03T10:31:08.001Z</time></trkpt><trkpt lat="40.225980643357616" lon="8.70327743394418"><ele>649.3333333333333</ele><time>2026-05-03T10:31:09.001Z</time></trkpt><trkpt lat="40.225919996404734" lon="8.703011671582182"><ele>650.0</ele><time>2026-05-03T10:31:10.001Z</time></trkpt><trkpt lat="40.2258785647468" lon="8.702739794329698"><ele>650.6666666666666</ele><time>2026-05-03T10:31:11.001Z</time></trkpt><trkpt lat="40.22585397423414" lon="8.70245672792126"><ele>651.3333333333334</ele><time>2026-05-03T10:31:12.001Z</time></trkpt><trkpt lat="40.22585238551986" lon="8.702166989235296"><ele>652.0</ele><time>2026-05-03T10:31:13.002Z</time></trkpt><trkpt lat="40.225825949315094" lon="8.701880146137333"><ele>653.0</ele><time>2026-05-03T10:31:14.002Z</time></trkpt><trkpt lat="40.2258029232636" lon="8.70159619699469"><ele>654.0</ele><time>2026-05-03T10:31:15.002Z</time></trkpt><trkpt lat="40.225757120322314" lon="8.701302869802758"><ele>655.0</ele><time>2026-05-03T10:31:16.002Z</time></trkpt><trkpt lat="40.22569067930782" lon="8.70101428403819"><ele>661.0</ele><time>2026-05-03T10:31:17.002Z</time></trkpt><trkpt lat="40.22561089680669" lon="8.70071569402606"><ele>667.0</ele><time>2026-05-03T10:31:18.002Z</time></trkpt><trkpt lat="40.225544937757086" lon="8.700410112927436"><ele>667.3333333333334</ele><time>2026-05-03T10:31:19.001Z</time></trkpt><trkpt lat="40.22547187272551" lon="8.700143044270694"><ele>667.6666666666666</ele><time>2026-05-03T10:31:20.001Z</time></trkpt><trkpt lat="40.22538274348426" lon="8.699878172132772"><ele>668.0</ele><time>2026-05-03T10:31:21.001Z</time></trkpt><trkpt lat="40.22530965890749" lon="8.69959881661199"><ele>667.0</ele><time>2026-05-03T10:31:22.001Z</time></trkpt><trkpt lat="40.2252470236442" lon="8.699308437462408"><ele>666.0</ele><time>2026-05-03T10:31:23.001Z</time></trkpt><trkpt lat="40.225172656654685" lon="8.699026214965812"><ele>666.0</ele><time>2026-05-03T10:31:24.001Z</time></trkpt><trkpt lat="40.225081861295315" lon="8.698745610515594"><ele>666.0</ele><time>2026-05-03T10:31:25.001Z</time></trkpt><trkpt lat="40.225022730637704" lon="8.698459752876516"><ele>666.6666666666666</ele><time>2026-05-03T10:31:26.001Z</time></trkpt><trkpt lat="40.224949057632294" lon="8.698185660150516"><ele>667.3333333333333</ele><time>2026-05-03T10:31:27.001Z</time></trkpt><trkpt lat="40.22487606302934" lon="8.697914091433459"><ele>668.0</ele><time>2026-05-03T10:31:28.001Z</time></trkpt><trkpt lat="40.224804136354955" lon="8.697643344133224"><ele>669.6666666666666</ele><time>2026-05-03T10:31:29.001Z</time></trkpt><trkpt lat="40.22471886064956" lon="8.69738073989971"><ele>671.3333333333334</ele><time>2026-05-03T10:31:30.001Z</time></trkpt><trkpt lat="40.224648642720986" lon="8.697103060428779"><ele>673.0</ele><time>2026-05-03T10:31:31.001Z</time></trkpt><trkpt lat="40.22457826957922" lon="8.696833334431531"><ele>673.3333333333334</ele><time>2026-05-03T10:31:32.001Z</time></trkpt><trkpt lat="40.22452602813165" lon="8.6965575617935"><ele>673.6666666666666</ele><time>2026-05-03T10:31:33.001Z</time></trkpt><trkpt lat="40.224459199610514" lon="8.696289037533871"><ele>674.0</ele><time>2026-05-03T10:31:34.001Z</time></trkpt><trkpt lat="40.22437629528515" lon="8.696029653749116"><ele>675.0</ele><time>2026-05-03T10:31:35.001Z</time></trkpt><trkpt lat="40.2243250672042" lon="8.695762174318407"><ele>676.0</ele><time>2026-05-03T10:31:36.001Z</time></trkpt><trkpt lat="40.22426048107408" lon="8.695508930539914"><ele>677.0</ele><time>2026-05-03T10:31:37.001Z</time></trkpt><trkpt lat="40.22419501976456" lon="8.695252255096044"><ele>679.0</ele><time>2026-05-03T10:31:38.001Z</time></trkpt><trkpt lat="40.224131180847394" lon="8.695001941084827"><ele>681.0</ele><time>2026-05-03T10:31:39.001Z</time></trkpt><trkpt lat="40.22405098382225" lon="8.694743199357205"><ele>683.0</ele><time>2026-05-03T10:31:40.001Z</time></trkpt><trkpt lat="40.22399560050615" lon="8.694506275147601"><ele>685.0</ele><time>2026-05-03T10:31:41.001Z</time></trkpt><trkpt lat="40.22393168096792" lon="8.694265582112997"><ele>687.0</ele><time>2026-05-03T10:31:42.001Z</time></trkpt><trkpt lat="40.223875777128626" lon="8.694051921420087"><ele>689.0</ele><time>2026-05-03T10:31:43.001Z</time></trkpt><trkpt lat="40.223825276495006" lon="8.69383939191205"><ele>689.0</ele><time>2026-05-03T10:31:44.001Z</time></trkpt><trkpt lat="40.22374024587799" lon="8.693647012341831"><ele>689.0</ele><time>2026-05-03T10:31:45.001Z</time></trkpt><trkpt lat="40.22362810407954" lon="8.693470516168956"><ele>689.0</ele><time>2026-05-03T10:31:46.001Z</time></trkpt><trkpt lat="40.22349409883199" lon="8.693326739857078"><ele>690.6666666666666</ele><time>2026-05-03T10:31:47.001Z</time></trkpt><trkpt lat="40.223344237606696" lon="8.693211975421873"><ele>692.3333333333334</ele><time>2026-05-03T10:31:48.001Z</time></trkpt><trkpt lat="40.22318761055822" lon="8.69313764972132"><ele>694.0</ele><time>2026-05-03T10:31:49.001Z</time></trkpt><trkpt lat="40.22301649832824" lon="8.693099265014899"><ele>694.6666666666667</ele><time>2026-05-03T10:31:50.001Z</time></trkpt><trkpt lat="40.22282391248949" lon="8.693075241224825"><ele>695.3333333333334</ele><time>2026-05-03T10:31:51.001Z</time></trkpt><trkpt lat="40.222631868344955" lon="8.69305665164915"><ele>696.0</ele><time>2026-05-03T10:31:52.001Z</time></trkpt><trkpt lat="40.222463267509845" lon="8.693027747365027"><ele>696.6666666666666</ele><time>2026-05-03T10:31:53.001Z</time></trkpt><trkpt lat="40.22230844527161" lon="8.6929594957806"><ele>697.3333333333333</ele><time>2026-05-03T10:31:54.001Z</time></trkpt><trkpt lat="40.22216992316696" lon="8.692873751372732"><ele>698.0</ele><time>2026-05-03T10:31:55.001Z</time></trkpt><trkpt lat="40.22206261271814" lon="8.692730530111234"><ele>700.0</ele><time>2026-05-03T10:31:56.001Z</time></trkpt><trkpt lat="40.22198489403702" lon="8.692561356075142"><ele>702.0</ele><time>2026-05-03T10:31:57.001Z</time></trkpt><trkpt lat="40.22193903564197" lon="8.692382042326319"><ele>704.0</ele><time>2026-05-03T10:31:58.001Z</time></trkpt><trkpt lat="40.22192475979596" lon="8.692178621408331"><ele>704.0</ele><time>2026-05-03T10:31:59.001Z</time></trkpt><trkpt lat="40.22194223666881" lon="8.69197361538493"><ele>704.0</ele><time>2026-05-03T10:32:00.001Z</time></trkpt><trkpt lat="40.221985885387824" lon="8.691752584389521"><ele>704.0</ele><time>2026-05-03T10:32:01.001Z</time></trkpt><trkpt lat="40.22204268293581" lon="8.691517377840126"><ele>704.3333333333333</ele><time>2026-05-03T10:32:02.001Z</time></trkpt><trkpt lat="40.22210569361966" lon="8.691261373829075"><ele>704.6666666666666</ele><time>2026-05-03T10:32:03.001Z</time></trkpt><trkpt lat="40.222173015056136" lon="8.690996636725831"><ele>705.0</ele><time>2026-05-03T10:32:04.001Z</time></trkpt><trkpt lat="40.22224255578272" lon="8.690724677712323"><ele>708.0</ele><time>2026-05-03T10:32:05.001Z</time></trkpt><trkpt lat="40.22231826265283" lon="8.69044364213776"><ele>711.0</ele><time>2026-05-03T10:32:06.001Z</time></trkpt><trkpt lat="40.222393526111055" lon="8.690167465630175"><ele>713.0</ele><time>2026-05-03T10:32:07.001Z</time></trkpt><trkpt lat="40.222473737924005" lon="8.689783331444938"><ele>715.0</ele><time>2026-05-03T10:32:08.001Z</time></trkpt><trkpt lat="40.2225547031585" lon="8.689477320512971"><ele>715.6666666666667</ele><time>2026-05-03T10:32:09.001Z</time></trkpt><trkpt lat="40.22262721532238" lon="8.689193055869971"><ele>716.3333333333334</ele><time>2026-05-03T10:32:10.001Z</time></trkpt><trkpt lat="40.22269709551645" lon="8.688929001329873"><ele>717.0</ele><time>2026-05-03T10:32:11.001Z</time></trkpt><trkpt lat="40.22275891069454" lon="8.68866462192632"><ele>718.5</ele><time>2026-05-03T10:32:12.001Z</time></trkpt><trkpt lat="40.22280650849778" lon="8.688375114441664"><ele>720.0</ele><time>2026-05-03T10:32:13.001Z</time></trkpt><trkpt lat="40.22284514041835" lon="8.688054177448697"><ele>720.5</ele><time>2026-05-03T10:32:14.001Z</time></trkpt><trkpt lat="40.2228835864907" lon="8.687723178320253"><ele>721.0</ele><time>2026-05-03T10:32:15.001Z</time></trkpt><trkpt lat="40.22292589727142" lon="8.687386062652694"><ele>721.0</ele><time>2026-05-03T10:32:16.001Z</time></trkpt><trkpt lat="40.22296862697027" lon="8.687061693441859"><ele>721.0</ele><time>2026-05-03T10:32:17.001Z</time></trkpt><trkpt lat="40.22300811848891" lon="8.686740453414648"><ele>721.0</ele><time>2026-05-03T10:32:18.001Z</time></trkpt><trkpt lat="40.223047379141306" lon="8.68642289311895"><ele>721.0</ele><time>2026-05-03T10:32:19.001Z</time></trkpt><trkpt lat="40.22308654673323" lon="8.686102457003164"><ele>721.5</ele><time>2026-05-03T10:32:20.001Z</time></trkpt><trkpt lat="40.22312593442466" lon="8.68578857722019"><ele>722.0</ele><time>2026-05-03T10:32:21.001Z</time></trkpt><trkpt lat="40.223165866895435" lon="8.685484821718681"><ele>723.5</ele><time>2026-05-03T10:32:22.001Z</time></trkpt><trkpt lat="40.223201297114" lon="8.68517965422528"><ele>725.0</ele><time>2026-05-03T10:32:23.001Z</time></trkpt><trkpt lat="40.2232372015651" lon="8.684883866603617"><ele>725.0</ele><time>2026-05-03T10:32:24.001Z</time></trkpt><trkpt lat="40.22327856150535" lon="8.684583549481093"><ele>725.0</ele><time>2026-05-03T10:32:25.001Z</time></trkpt><trkpt lat="40.22332314391687" lon="8.684293931242351"><ele>724.5</ele><time>2026-05-03T10:32:26.001Z</time></trkpt><trkpt lat="40.22335968344264" lon="8.683995310000686"><ele>724.0</ele><time>2026-05-03T10:32:27.001Z</time></trkpt><trkpt lat="40.22340352287532" lon="8.683691785745447"><ele>723.5</ele><time>2026-05-03T10:32:28.001Z</time></trkpt><trkpt lat="40.22344721870529" lon="8.683369754548274"><ele>723.0</ele><time>2026-05-03T10:32:29.001Z</time></trkpt><trkpt lat="40.223491056942194" lon="8.68304983633238"><ele>722.0</ele><time>2026-05-03T10:32:30.001Z</time></trkpt><trkpt lat="40.223547143744774" lon="8.682714282599084"><ele>721.0</ele><time>2026-05-03T10:32:31.001Z</time></trkpt><trkpt lat="40.22359343062625" lon="8.682376459962565"><ele>721.0</ele><time>2026-05-03T10:32:32.001Z</time></trkpt><trkpt lat="40.223633076035206" lon="8.682015424506044"><ele>721.0</ele><time>2026-05-03T10:32:33.001Z</time></trkpt><trkpt lat="40.22367380327716" lon="8.681667528275588"><ele>720.5</ele><time>2026-05-03T10:32:34.001Z</time></trkpt><trkpt lat="40.22373724973548" lon="8.68132911936439"><ele>720.0</ele><time>2026-05-03T10:32:35.001Z</time></trkpt><trkpt lat="40.223773484849865" lon="8.680993566987526"><ele>719.5</ele><time>2026-05-03T10:32:36.001Z</time></trkpt><trkpt lat="40.22381973223821" lon="8.680661778703373"><ele>719.0</ele><time>2026-05-03T10:32:37.001Z</time></trkpt><trkpt lat="40.22386333273725" lon="8.680343458079745"><ele>718.0</ele><time>2026-05-03T10:32:38.001Z</time></trkpt><trkpt lat="40.22391222592033" lon="8.680035194725596"><ele>717.0</ele><time>2026-05-03T10:32:39.001Z</time></trkpt><trkpt lat="40.22395127038864" lon="8.679724648862221"><ele>715.5</ele><time>2026-05-03T10:32:40.001Z</time></trkpt><trkpt lat="40.22399284184774" lon="8.679421391189974"><ele>714.0</ele><time>2026-05-03T10:32:41.001Z</time></trkpt><trkpt lat="40.22403444412426" lon="8.679118618085198"><ele>714.0</ele><time>2026-05-03T10:32:42.001Z</time></trkpt><trkpt lat="40.22407452365732" lon="8.678828118678092"><ele>714.0</ele><time>2026-05-03T10:32:43.001Z</time></trkpt><trkpt lat="40.224111784429454" lon="8.678548392909876"><ele>714.0</ele><time>2026-05-03T10:32:44.001Z</time></trkpt><trkpt lat="40.224153482202716" lon="8.678261936266978"><ele>714.0</ele><time>2026-05-03T10:32:45.001Z</time></trkpt><trkpt lat="40.22419238775116" lon="8.67799055705258"><ele>714.0</ele><time>2026-05-03T10:32:46.001Z</time></trkpt><trkpt lat="40.2242286576996" lon="8.677703650321753"><ele>714.0</ele><time>2026-05-03T10:32:47.001Z</time></trkpt><trkpt lat="40.224279144858045" lon="8.677426751965083"><ele>713.5</ele><time>2026-05-03T10:32:48.001Z</time></trkpt><trkpt lat="40.22430819533108" lon="8.677142875397275"><ele>713.0</ele><time>2026-05-03T10:32:49.001Z</time></trkpt><trkpt lat="40.22435635500284" lon="8.67683504377262"><ele>712.0</ele><time>2026-05-03T10:32:50.001Z</time></trkpt><trkpt lat="40.22443049994766" lon="8.676519776822683"><ele>711.0</ele><time>2026-05-03T10:32:51.001Z</time></trkpt><trkpt lat="40.22447150240277" lon="8.67618856043338"><ele>710.0</ele><time>2026-05-03T10:32:52.001Z</time></trkpt><trkpt lat="40.22450643573121" lon="8.675842463512193"><ele>709.0</ele><time>2026-05-03T10:32:53.001Z</time></trkpt><trkpt lat="40.22455260081996" lon="8.675495202234076"><ele>707.0</ele><time>2026-05-03T10:32:54.001Z</time></trkpt><trkpt lat="40.224618069788484" lon="8.67514079056785"><ele>705.0</ele><time>2026-05-03T10:32:55.001Z</time></trkpt><trkpt lat="40.22465980820976" lon="8.67478052691276"><ele>704.5</ele><time>2026-05-03T10:32:56.001Z</time></trkpt><trkpt lat="40.22471077660359" lon="8.674437287453967"><ele>704.0</ele><time>2026-05-03T10:32:57.001Z</time></trkpt><trkpt lat="40.22475011840911" lon="8.674100188466712"><ele>704.0</ele><time>2026-05-03T10:32:58.001Z</time></trkpt><trkpt lat="40.22479664879121" lon="8.673780184451156"><ele>704.0</ele><time>2026-05-03T10:32:59.001Z</time></trkpt><trkpt lat="40.22484747401555" lon="8.673483609674209"><ele>702.0</ele><time>2026-05-03T10:33:00.001Z</time></trkpt><trkpt lat="40.22490110845042" lon="8.673187036008068"><ele>700.0</ele><time>2026-05-03T10:33:01.001Z</time></trkpt><trkpt lat="40.22492587216738" lon="8.67289103397886"><ele>699.3333333333334</ele><time>2026-05-03T10:33:02.001Z</time></trkpt><trkpt lat="40.22495187339575" lon="8.672596362437458"><ele>698.6666666666666</ele><time>2026-05-03T10:33:03.001Z</time></trkpt><trkpt lat="40.22497721884872" lon="8.672307181505746"><ele>698.0</ele><time>2026-05-03T10:33:04.001Z</time></trkpt><trkpt lat="40.22498960632455" lon="8.672017368209046"><ele>697.0</ele><time>2026-05-03T10:33:05.001Z</time></trkpt><trkpt lat="40.22497280452513" lon="8.671723985154212"><ele>696.0</ele><time>2026-05-03T10:33:06.001Z</time></trkpt><trkpt lat="40.22494934497121" lon="8.67141343498675"><ele>696.0</ele><time>2026-05-03T10:33:07.001Z</time></trkpt><trkpt lat="40.22491031726859" lon="8.671115747332847"><ele>696.0</ele><time>2026-05-03T10:33:08.001Z</time></trkpt><trkpt lat="40.22486726387856" lon="8.670828962191841"><ele>694.6666666666666</ele><time>2026-05-03T10:33:09.001Z</time></trkpt><trkpt lat="40.22483062525363" lon="8.67055997000147"><ele>693.3333333333333</ele><time>2026-05-03T10:33:10.001Z</time></trkpt><trkpt lat="40.224812486497406" lon="8.670294998230322"><ele>692.0</ele><time>2026-05-03T10:33:11.001Z</time></trkpt><trkpt lat="40.224804283052016" lon="8.670006340695215"><ele>690.0</ele><time>2026-05-03T10:33:12.001Z</time></trkpt><trkpt lat="40.22481495380541" lon="8.669702656903382"><ele>688.0</ele><time>2026-05-03T10:33:13.001Z</time></trkpt><trkpt lat="40.224830436770425" lon="8.669383759830072"><ele>686.5</ele><time>2026-05-03T10:33:14.001Z</time></trkpt><trkpt lat="40.224835196257715" lon="8.66906379330321"><ele>685.0</ele><time>2026-05-03T10:33:15.001Z</time></trkpt><trkpt lat="40.22484857426341" lon="8.668743139736778"><ele>682.0</ele><time>2026-05-03T10:33:16.001Z</time></trkpt><trkpt lat="40.22485970112052" lon="8.668414890498557"><ele>679.0</ele><time>2026-05-03T10:33:17.001Z</time></trkpt><trkpt lat="40.224869538197915" lon="8.668087120357303"><ele>678.0</ele><time>2026-05-03T10:33:18.001Z</time></trkpt><trkpt lat="40.22488307871875" lon="8.667760381143973"><ele>677.0</ele><time>2026-05-03T10:33:19.001Z</time></trkpt><trkpt lat="40.22488988505098" lon="8.66741876526162"><ele>677.0</ele><time>2026-05-03T10:33:20.001Z</time></trkpt><trkpt lat="40.224901249466015" lon="8.667067748722497"><ele>677.0</ele><time>2026-05-03T10:33:21.001Z</time></trkpt><trkpt lat="40.224914825218555" lon="8.666707787943361"><ele>676.0</ele><time>2026-05-03T10:33:22.001Z</time></trkpt><trkpt lat="40.224927350632356" lon="8.66634768701004"><ele>675.0</ele><time>2026-05-03T10:33:23.001Z</time></trkpt><trkpt lat="40.2249385339254" lon="8.665979576824034"><ele>675.0</ele><time>2026-05-03T10:33:24.001Z</time></trkpt><trkpt lat="40.224949438355516" lon="8.665607187633631"><ele>675.0</ele><time>2026-05-03T10:33:25.001Z</time></trkpt><trkpt lat="40.22495466461925" lon="8.665239530355347"><ele>674.0</ele><time>2026-05-03T10:33:26.001Z</time></trkpt><trkpt lat="40.22497023723738" lon="8.66487015536126"><ele>673.0</ele><time>2026-05-03T10:33:27.001Z</time></trkpt><trkpt lat="40.22499168605997" lon="8.664507461078237"><ele>672.0</ele><time>2026-05-03T10:33:28.001Z</time></trkpt><trkpt lat="40.22500140196965" lon="8.664142297301785"><ele>671.0</ele><time>2026-05-03T10:33:29.001Z</time></trkpt><trkpt lat="40.225015592596776" lon="8.66377566425205"><ele>669.5</ele><time>2026-05-03T10:33:30.001Z</time></trkpt><trkpt lat="40.22502352572712" lon="8.663404626839196"><ele>668.0</ele><time>2026-05-03T10:33:31.001Z</time></trkpt><trkpt lat="40.225036760887136" lon="8.663041496672353"><ele>668.0</ele><time>2026-05-03T10:33:32.001Z</time></trkpt><trkpt lat="40.22504792644391" lon="8.662674259413773"><ele>668.0</ele><time>2026-05-03T10:33:33.001Z</time></trkpt><trkpt lat="40.225061630963125" lon="8.662312148634333"><ele>668.0</ele><time>2026-05-03T10:33:34.001Z</time></trkpt><trkpt lat="40.22507672854019" lon="8.661951679609581"><ele>668.0</ele><time>2026-05-03T10:33:35.001Z</time></trkpt><trkpt lat="40.225089892453326" lon="8.661596425271773"><ele>666.5</ele><time>2026-05-03T10:33:36.001Z</time></trkpt><trkpt lat="40.225100756468585" lon="8.661233504342096"><ele>665.0</ele><time>2026-05-03T10:33:37.001Z</time></trkpt><trkpt lat="40.225114338230945" lon="8.660881912572854"><ele>664.0</ele><time>2026-05-03T10:33:38.001Z</time></trkpt><trkpt lat="40.22512375969679" lon="8.660556670376353"><ele>663.0</ele><time>2026-05-03T10:33:39.001Z</time></trkpt><trkpt lat="40.225146583384316" lon="8.660232135255946"><ele>662.3333333333334</ele><time>2026-05-03T10:33:40.001Z</time></trkpt><trkpt lat="40.22514497219038" lon="8.659944924711859"><ele>661.6666666666667</ele><time>2026-05-03T10:33:41.001Z</time></trkpt><trkpt lat="40.22515835717054" lon="8.65967230479567"><ele>661.0</ele><time>2026-05-03T10:33:42.001Z</time></trkpt><trkpt lat="40.22516544566135" lon="8.659426517814328"><ele>660.3333333333334</ele><time>2026-05-03T10:33:43.001Z</time></trkpt><trkpt lat="40.22516262278531" lon="8.6591996592282"><ele>659.6666666666666</ele><time>2026-05-03T10:33:44.001Z</time></trkpt><trkpt lat="40.22514075892833" lon="8.658962307983565"><ele>659.0</ele><time>2026-05-03T10:33:45.001Z</time></trkpt><trkpt lat="40.225090330510945" lon="8.658705228780903"><ele>658.0</ele><time>2026-05-03T10:33:46.001Z</time></trkpt><trkpt lat="40.22501653932889" lon="8.658435105097823"><ele>657.0</ele><time>2026-05-03T10:33:47.001Z</time></trkpt><trkpt lat="40.224931098903866" lon="8.65816047297985"><ele>656.0</ele><time>2026-05-03T10:33:48.001Z</time></trkpt><trkpt lat="40.2248489024305" lon="8.657873724354204"><ele>656.0</ele><time>2026-05-03T10:33:49.001Z</time></trkpt><trkpt lat="40.22476030784013" lon="8.65756761845021"><ele>656.0</ele><time>2026-05-03T10:33:50.001Z</time></trkpt><trkpt lat="40.224665693584676" lon="8.657235693177928"><ele>654.5</ele><time>2026-05-03T10:33:51.001Z</time></trkpt><trkpt lat="40.22457727098284" lon="8.656924144061014"><ele>653.0</ele><time>2026-05-03T10:33:52.001Z</time></trkpt><trkpt lat="40.22448364554215" lon="8.6565903882631"><ele>653.0</ele><time>2026-05-03T10:33:53.001Z</time></trkpt><trkpt lat="40.22438976468" lon="8.656271645566118"><ele>653.0</ele><time>2026-05-03T10:33:54.001Z</time></trkpt><trkpt lat="40.22429018501417" lon="8.655904606439455"><ele>651.5</ele><time>2026-05-03T10:33:55.001Z</time></trkpt><trkpt lat="40.2242037364653" lon="8.655608767935849"><ele>650.0</ele><time>2026-05-03T10:33:56.001Z</time></trkpt><trkpt lat="40.224112152204285" lon="8.655290648455038"><ele>648.5</ele><time>2026-05-03T10:33:57.001Z</time></trkpt><trkpt lat="40.224023671022834" lon="8.654973597198248"><ele>647.0</ele><time>2026-05-03T10:33:58.001Z</time></trkpt><trkpt lat="40.22393493637511" lon="8.654658124810812"><ele>646.0</ele><time>2026-05-03T10:33:59.001Z</time></trkpt><trkpt lat="40.22384994122376" lon="8.654351352832034"><ele>645.0</ele><time>2026-05-03T10:34:00Z</time></trkpt><trkpt lat="40.22375876231349" lon="8.654037855590834"><ele>645.0</ele><time>2026-05-03T10:34:01Z</time></trkpt><trkpt lat="40.223668728159105" lon="8.653727189743611"><ele>645.0</ele><time>2026-05-03T10:34:02Z</time></trkpt><trkpt lat="40.22358120021273" lon="8.653417315154242"><ele>644.0</ele><time>2026-05-03T10:34:03Z</time></trkpt><trkpt lat="40.22349207902095" lon="8.653116284315834"><ele>643.0</ele><time>2026-05-03T10:34:04Z</time></trkpt><trkpt lat="40.22340460076604" lon="8.652811515827292"><ele>641.5</ele><time>2026-05-03T10:34:05Z</time></trkpt><trkpt lat="40.22331687059177" lon="8.652499997612441"><ele>640.0</ele><time>2026-05-03T10:34:06Z</time></trkpt><trkpt lat="40.22322915072214" lon="8.652189658095429"><ele>638.0</ele><time>2026-05-03T10:34:07Z</time></trkpt><trkpt lat="40.223140481722346" lon="8.651880146915364"><ele>636.0</ele><time>2026-05-03T10:34:08Z</time></trkpt><trkpt lat="40.223054398707234" lon="8.651570952294328"><ele>636.0</ele><time>2026-05-03T10:34:09Z</time></trkpt><trkpt lat="40.222968855393546" lon="8.651267667915011"><ele>636.0</ele><time>2026-05-03T10:34:10Z</time></trkpt><trkpt lat="40.22288540458215" lon="8.650973083060409"><ele>634.5</ele><time>2026-05-03T10:34:11Z</time></trkpt><trkpt lat="40.22280365999682" lon="8.650679267934173"><ele>633.0</ele><time>2026-05-03T10:34:12Z</time></trkpt><trkpt lat="40.22272296927659" lon="8.650388573064566"><ele>631.5</ele><time>2026-05-03T10:34:13Z</time></trkpt><trkpt lat="40.22263868878925" lon="8.650105361669887"><ele>630.0</ele><time>2026-05-03T10:34:14Z</time></trkpt><trkpt lat="40.22255567107574" lon="8.649827904055059"><ele>630.0</ele><time>2026-05-03T10:34:15Z</time></trkpt><trkpt lat="40.2224758190013" lon="8.649555343242906"><ele>630.0</ele><time>2026-05-03T10:34:16Z</time></trkpt><trkpt lat="40.22240337017903" lon="8.649278890743762"><ele>630.0</ele><time>2026-05-03T10:34:17Z</time></trkpt><trkpt lat="40.22234011139432" lon="8.648991311655907"><ele>629.0</ele><time>2026-05-03T10:34:18Z</time></trkpt><trkpt lat="40.22229678528953" lon="8.648690715424694"><ele>628.0</ele><time>2026-05-03T10:34:19Z</time></trkpt><trkpt lat="40.222259753458715" lon="8.64837737512496"><ele>627.5</ele><time>2026-05-03T10:34:20Z</time></trkpt><trkpt lat="40.22222536101937" lon="8.648061906924388"><ele>627.0</ele><time>2026-05-03T10:34:21Z</time></trkpt><trkpt lat="40.22218866124151" lon="8.647747614037062"><ele>625.5</ele><time>2026-05-03T10:34:22Z</time></trkpt><trkpt lat="40.22216487920399" lon="8.647421930547157"><ele>624.0</ele><time>2026-05-03T10:34:23Z</time></trkpt><trkpt lat="40.222128173259286" lon="8.647103619046854"><ele>623.0</ele><time>2026-05-03T10:34:24Z</time></trkpt><trkpt lat="40.222092855442746" lon="8.64679400182955"><ele>622.0</ele><time>2026-05-03T10:34:25Z</time></trkpt><trkpt lat="40.22204060377158" lon="8.64647860990018"><ele>621.0</ele><time>2026-05-03T10:34:26Z</time></trkpt><trkpt lat="40.22202190481977" lon="8.64612573110084"><ele>620.0</ele><time>2026-05-03T10:34:27Z</time></trkpt><trkpt lat="40.22200562842512" lon="8.64577173918938"><ele>620.0</ele><time>2026-05-03T10:34:28Z</time></trkpt><trkpt lat="40.221934224565004" lon="8.645493820159585"><ele>620.0</ele><time>2026-05-03T10:34:29Z</time></trkpt><trkpt lat="40.22189875237252" lon="8.645158305212515"><ele>619.0</ele><time>2026-05-03T10:34:30Z</time></trkpt><trkpt lat="40.22186143514252" lon="8.644826603742201"><ele>618.0</ele><time>2026-05-03T10:34:31Z</time></trkpt><trkpt lat="40.221822007141505" lon="8.64448995552235"><ele>617.0</ele><time>2026-05-03T10:34:32Z</time></trkpt><trkpt lat="40.221785129654315" lon="8.644147131709245"><ele>616.0</ele><time>2026-05-03T10:34:33Z</time></trkpt><trkpt lat="40.221748851071425" lon="8.643803402019893"><ele>614.5</ele><time>2026-05-03T10:34:34Z</time></trkpt><trkpt lat="40.22170542944108" lon="8.643467873300521"><ele>613.0</ele><time>2026-05-03T10:34:35Z</time></trkpt><trkpt lat="40.221662582482736" lon="8.643131781834764"><ele>613.0</ele><time>2026-05-03T10:34:36Z</time></trkpt><trkpt lat="40.221623946014226" lon="8.642801104715339"><ele>613.0</ele><time>2026-05-03T10:34:37Z</time></trkpt><trkpt lat="40.22158768084655" lon="8.642465054840233"><ele>611.5</ele><time>2026-05-03T10:34:38Z</time></trkpt><trkpt lat="40.2215507189332" lon="8.642141121902426"><ele>610.0</ele><time>2026-05-03T10:34:39Z</time></trkpt><trkpt lat="40.221514391146876" lon="8.64181819062293"><ele>609.0</ele><time>2026-05-03T10:34:40Z</time></trkpt><trkpt lat="40.22147566886194" lon="8.64148503445261"><ele>608.0</ele><time>2026-05-03T10:34:41Z</time></trkpt><trkpt lat="40.221436601964065" lon="8.641157869848195"><ele>607.5</ele><time>2026-05-03T10:34:42Z</time></trkpt><trkpt lat="40.22139809412188" lon="8.640830890303556"><ele>607.0</ele><time>2026-05-03T10:34:43Z</time></trkpt><trkpt lat="40.22136048121877" lon="8.640498067869807"><ele>605.0</ele><time>2026-05-03T10:34:44Z</time></trkpt><trkpt lat="40.22132388702837" lon="8.640178098793989"><ele>603.0</ele><time>2026-05-03T10:34:45Z</time></trkpt><trkpt lat="40.22128494377734" lon="8.63987507054685"><ele>603.0</ele><time>2026-05-03T10:34:46Z</time></trkpt><trkpt lat="40.22124915629319" lon="8.639564574954644"><ele>603.0</ele><time>2026-05-03T10:34:47Z</time></trkpt><trkpt lat="40.221213392479505" lon="8.63925336359385"><ele>599.5</ele><time>2026-05-03T10:34:48.001Z</time></trkpt><trkpt lat="40.22117862255464" lon="8.638942924872849"><ele>596.0</ele><time>2026-05-03T10:34:49.001Z</time></trkpt><trkpt lat="40.22114171942088" lon="8.638637413224362"><ele>594.6666666666666</ele><time>2026-05-03T10:34:50.001Z</time></trkpt><trkpt lat="40.22110786138714" lon="8.638351540201752"><ele>593.3333333333334</ele><time>2026-05-03T10:34:51.001Z</time></trkpt><trkpt lat="40.22108063414663" lon="8.638078741967275"><ele>592.0</ele><time>2026-05-03T10:34:52.001Z</time></trkpt><trkpt lat="40.22105122183352" lon="8.63782796597543"><ele>590.3333333333334</ele><time>2026-05-03T10:34:53.001Z</time></trkpt><trkpt lat="40.221020526917904" lon="8.637586197864193"><ele>588.6666666666666</ele><time>2026-05-03T10:34:54.001Z</time></trkpt><trkpt lat="40.22099616379159" lon="8.637362709597229"><ele>587.0</ele><time>2026-05-03T10:34:55.001Z</time></trkpt><trkpt lat="40.22100760143695" lon="8.63712260184333"><ele>586.0</ele><time>2026-05-03T10:34:56.001Z</time></trkpt><trkpt lat="40.22104399908359" lon="8.636881207060298"><ele>585.0</ele><time>2026-05-03T10:34:57.001Z</time></trkpt><trkpt lat="40.22108843079701" lon="8.636615404242232"><ele>584.0</ele><time>2026-05-03T10:34:58.001Z</time></trkpt><trkpt lat="40.22115252149446" lon="8.636345210203567"><ele>582.5</ele><time>2026-05-03T10:34:59.001Z</time></trkpt><trkpt lat="40.22120706785269" lon="8.636053665745653"><ele>581.0</ele><time>2026-05-03T10:35:00.001Z</time></trkpt><trkpt lat="40.22126887528804" lon="8.635763217936864"><ele>581.0</ele><time>2026-05-03T10:35:01.001Z</time></trkpt><trkpt lat="40.22133123097111" lon="8.635454564140488"><ele>581.0</ele><time>2026-05-03T10:35:02.001Z</time></trkpt><trkpt lat="40.22139428345679" lon="8.635132993440866"><ele>580.5</ele><time>2026-05-03T10:35:03.001Z</time></trkpt><trkpt lat="40.221459423201594" lon="8.634798672594822"><ele>580.0</ele><time>2026-05-03T10:35:04.001Z</time></trkpt><trkpt lat="40.221526173383886" lon="8.634466443005712"><ele>575.5</ele><time>2026-05-03T10:35:05.001Z</time></trkpt><trkpt lat="40.22159179204438" lon="8.634143923029091"><ele>571.0</ele><time>2026-05-03T10:35:06.001Z</time></trkpt><trkpt lat="40.22165810502478" lon="8.633822823688078"><ele>567.0</ele><time>2026-05-03T10:35:07.001Z</time></trkpt><trkpt lat="40.22172318133189" lon="8.633504543122733"><ele>563.0</ele><time>2026-05-03T10:35:08.001Z</time></trkpt><trkpt lat="40.22178903299657" lon="8.63318651927469"><ele>563.0</ele><time>2026-05-03T10:35:09.001Z</time></trkpt><trkpt lat="40.221853153014614" lon="8.632871174398328"><ele>563.0</ele><time>2026-05-03T10:35:10.001Z</time></trkpt><trkpt lat="40.221916393277326" lon="8.63256183849518"><ele>562.0</ele><time>2026-05-03T10:35:11.001Z</time></trkpt><trkpt lat="40.22198051961474" lon="8.632251353107476"><ele>561.0</ele><time>2026-05-03T10:35:12.001Z</time></trkpt><trkpt lat="40.22204289160766" lon="8.631941533954901"><ele>565.0</ele><time>2026-05-03T10:35:13.001Z</time></trkpt><trkpt lat="40.22210543298913" lon="8.63163067833635"><ele>569.0</ele><time>2026-05-03T10:35:14.001Z</time></trkpt><trkpt lat="40.222168506024005" lon="8.631322002121305"><ele>572.5</ele><time>2026-05-03T10:35:15.001Z</time></trkpt><trkpt lat="40.22223248713596" lon="8.631016530903414"><ele>576.0</ele><time>2026-05-03T10:35:16.001Z</time></trkpt><trkpt lat="40.2222945574018" lon="8.63072344188421"><ele>571.0</ele><time>2026-05-03T10:35:17.001Z</time></trkpt><trkpt lat="40.222351716687754" lon="8.630446066072594"><ele>566.0</ele><time>2026-05-03T10:35:18.001Z</time></trkpt><trkpt lat="40.2224044756732" lon="8.630181793155185"><ele>561.0</ele><time>2026-05-03T10:35:19.001Z</time></trkpt><trkpt lat="40.22245090358772" lon="8.629927917942661"><ele>561.0</ele><time>2026-05-03T10:35:20.001Z</time></trkpt><trkpt lat="40.22249930128645" lon="8.629688287044898"><ele>561.0</ele><time>2026-05-03T10:35:21.001Z</time></trkpt><trkpt lat="40.22254638854276" lon="8.629460144592418"><ele>561.0</ele><time>2026-05-03T10:35:22.001Z</time></trkpt><trkpt lat="40.222596276609664" lon="8.629247319713226"><ele>561.6666666666666</ele><time>2026-05-03T10:35:23.001Z</time></trkpt><trkpt lat="40.222654217257634" lon="8.629027219619875"><ele>562.3333333333333</ele><time>2026-05-03T10:35:24.001Z</time></trkpt><trkpt lat="40.22272344082482" lon="8.628810448715955"><ele>563.0</ele><time>2026-05-03T10:35:25.001Z</time></trkpt><trkpt lat="40.22280100345297" lon="8.62860380318668"><ele>563.0</ele><time>2026-05-03T10:35:26.001Z</time></trkpt><trkpt lat="40.222887612336635" lon="8.62838827438018"><ele>563.0</ele><time>2026-05-03T10:35:27.001Z</time></trkpt><trkpt lat="40.22298404911341" lon="8.628155389811056"><ele>563.0</ele><time>2026-05-03T10:35:28.001Z</time></trkpt><trkpt lat="40.223091337645755" lon="8.627907200012146"><ele>555.0</ele><time>2026-05-03T10:35:29.001Z</time></trkpt><trkpt lat="40.22319974411574" lon="8.627644206435397"><ele>547.0</ele><time>2026-05-03T10:35:30.001Z</time></trkpt><trkpt lat="40.22331848928305" lon="8.627360474342339"><ele>547.0</ele><time>2026-05-03T10:35:31Z</time></trkpt><trkpt lat="40.2234419953154" lon="8.627065467697717"><ele>547.0</ele><time>2026-05-03T10:35:32Z</time></trkpt><trkpt lat="40.223572348500106" lon="8.626753461335424"><ele>547.5</ele><time>2026-05-03T10:35:33Z</time></trkpt><trkpt lat="40.22370401537832" lon="8.626444190851183"><ele>548.0</ele><time>2026-05-03T10:35:34Z</time></trkpt><trkpt lat="40.22383986826437" lon="8.626117724201041"><ele>549.0</ele><time>2026-05-03T10:35:35Z</time></trkpt><trkpt lat="40.22397506406641" lon="8.625795373916189"><ele>550.0</ele><time>2026-05-03T10:35:36Z</time></trkpt><trkpt lat="40.224106340808675" lon="8.625482037876877"><ele>547.3333333333334</ele><time>2026-05-03T10:35:37Z</time></trkpt><trkpt lat="40.224168879863576" lon="8.62532421712099"><ele>544.6666666666666</ele><time>2026-05-03T10:35:38Z</time></trkpt><trkpt lat="40.224284456326046" lon="8.62505459734344"><ele>542.0</ele><time>2026-05-03T10:35:39Z</time></trkpt><trkpt lat="40.22440141929832" lon="8.62477632836224"><ele>542.0</ele><time>2026-05-03T10:35:40Z</time></trkpt><trkpt lat="40.22451483089644" lon="8.624500636616032"><ele>542.0</ele><time>2026-05-03T10:35:41Z</time></trkpt><trkpt lat="40.22463210794374" lon="8.62422416938133"><ele>539.5</ele><time>2026-05-03T10:35:42Z</time></trkpt><trkpt lat="40.22474261346586" lon="8.623947636764976"><ele>537.0</ele><time>2026-05-03T10:35:43Z</time></trkpt><trkpt lat="40.22486599195348" lon="8.623654606257087"><ele>532.0</ele><time>2026-05-03T10:35:44Z</time></trkpt><trkpt lat="40.22498743941465" lon="8.62337338315502"><ele>527.0</ele><time>2026-05-03T10:35:45Z</time></trkpt><trkpt lat="40.22510083374934" lon="8.623107412886924"><ele>527.0</ele><time>2026-05-03T10:35:46Z</time></trkpt><trkpt lat="40.22520801729249" lon="8.622860696364809"><ele>527.0</ele><time>2026-05-03T10:35:47Z</time></trkpt><trkpt lat="40.225307587154305" lon="8.62261979768512"><ele>527.0</ele><time>2026-05-03T10:35:48Z</time></trkpt><trkpt lat="40.22540655712193" lon="8.622394207244174"><ele>525.6666666666666</ele><time>2026-05-03T10:35:49Z</time></trkpt><trkpt lat="40.22550179404661" lon="8.622180183169876"><ele>524.3333333333334</ele><time>2026-05-03T10:35:50Z</time></trkpt><trkpt lat="40.2255841224152" lon="8.62197785017084"><ele>523.0</ele><time>2026-05-03T10:35:51Z</time></trkpt><trkpt lat="40.22564683515063" lon="8.621772980067323"><ele>521.3333333333334</ele><time>2026-05-03T10:35:52Z</time></trkpt><trkpt lat="40.22567612551232" lon="8.62156274968345"><ele>519.6666666666666</ele><time>2026-05-03T10:35:53Z</time></trkpt><trkpt lat="40.22566807698326" lon="8.621346090774734"><ele>518.0</ele><time>2026-05-03T10:35:54Z</time></trkpt><trkpt lat="40.22563319147783" lon="8.621123487110662"><ele>515.5</ele><time>2026-05-03T10:35:55Z</time></trkpt><trkpt lat="40.22557813182353" lon="8.620845865854557"><ele>513.0</ele><time>2026-05-03T10:35:56Z</time></trkpt><trkpt lat="40.225523449544845" lon="8.620551740666814"><ele>510.0</ele><time>2026-05-03T10:35:57Z</time></trkpt><trkpt lat="40.225476116076926" lon="8.62024669710276"><ele>507.0</ele><time>2026-05-03T10:35:58Z</time></trkpt><trkpt lat="40.22542840447172" lon="8.619951546343497"><ele>507.0</ele><time>2026-05-03T10:35:59Z</time></trkpt><trkpt lat="40.22537418665599" lon="8.619620620946245"><ele>507.0</ele><time>2026-05-03T10:36:00Z</time></trkpt><trkpt lat="40.225337165368316" lon="8.61932451611689"><ele>505.33333333333337</ele><time>2026-05-03T10:36:01Z</time></trkpt><trkpt lat="40.2252921980804" lon="8.619067454530143"><ele>503.6666666666667</ele><time>2026-05-03T10:36:02Z</time></trkpt><trkpt lat="40.22526360556537" lon="8.618842494060223"><ele>502.0</ele><time>2026-05-03T10:36:03Z</time></trkpt><trkpt lat="40.2252539990003" lon="8.618627316392974"><ele>500.6666666666667</ele><time>2026-05-03T10:36:04Z</time></trkpt><trkpt lat="40.22526576158084" lon="8.618413677178129"><ele>499.33333333333337</ele><time>2026-05-03T10:36:05Z</time></trkpt><trkpt lat="40.22529803816843" lon="8.618204239029632"><ele>498.0</ele><time>2026-05-03T10:36:06Z</time></trkpt><trkpt lat="40.22535334242602" lon="8.6179827016868"><ele>496.0</ele><time>2026-05-03T10:36:07Z</time></trkpt><trkpt lat="40.225445894775255" lon="8.617763447873685"><ele>494.0</ele><time>2026-05-03T10:36:08Z</time></trkpt><trkpt lat="40.22552134542918" lon="8.61751317781524"><ele>492.0</ele><time>2026-05-03T10:36:09Z</time></trkpt><trkpt lat="40.2256242557331" lon="8.617254147608511"><ele>492.66666666666663</ele><time>2026-05-03T10:36:10Z</time></trkpt><trkpt lat="40.225721617064885" lon="8.616978687424451"><ele>493.3333333333333</ele><time>2026-05-03T10:36:11Z</time></trkpt><trkpt lat="40.22580678462374" lon="8.616719218697094"><ele>494.0</ele><time>2026-05-03T10:36:12Z</time></trkpt><trkpt lat="40.2258791985769" lon="8.616484937575526"><ele>494.0</ele><time>2026-05-03T10:36:13Z</time></trkpt><trkpt lat="40.2259361560075" lon="8.616255028473885"><ele>494.0</ele><time>2026-05-03T10:36:14Z</time></trkpt><trkpt lat="40.225966379400504" lon="8.61601614762591"><ele>494.0</ele><time>2026-05-03T10:36:15Z</time></trkpt><trkpt lat="40.22596144007612" lon="8.61576815362048"><ele>491.66666666666663</ele><time>2026-05-03T10:36:16Z</time></trkpt><trkpt lat="40.22592590313509" lon="8.615500235444232"><ele>489.33333333333337</ele><time>2026-05-03T10:36:17Z</time></trkpt><trkpt lat="40.22587261135306" lon="8.615214518660856"><ele>487.0</ele><time>2026-05-03T10:36:18Z</time></trkpt><trkpt lat="40.22582068575273" lon="8.614932234325657"><ele>484.6666666666667</ele><time>2026-05-03T10:36:19Z</time></trkpt><trkpt lat="40.225780992182365" lon="8.614670941141087"><ele>482.33333333333337</ele><time>2026-05-03T10:36:20Z</time></trkpt><trkpt lat="40.225749749030314" lon="8.614434008800293"><ele>480.0</ele><time>2026-05-03T10:36:21Z</time></trkpt><trkpt lat="40.2257359075064" lon="8.614215784074336"><ele>480.0</ele><time>2026-05-03T10:36:22Z</time></trkpt><trkpt lat="40.2257498970556" lon="8.61399858332781"><ele>480.0</ele><time>2026-05-03T10:36:23Z</time></trkpt><trkpt lat="40.22581702094088" lon="8.61379091843494"><ele>480.0</ele><time>2026-05-03T10:36:24Z</time></trkpt><trkpt lat="40.22590742269855" lon="8.613603956343017"><ele>481.33333333333337</ele><time>2026-05-03T10:36:25Z</time></trkpt><trkpt lat="40.22601449878189" lon="8.61340260853193"><ele>482.6666666666667</ele><time>2026-05-03T10:36:26Z</time></trkpt><trkpt lat="40.226136510123474" lon="8.61319269870857"><ele>484.0</ele><time>2026-05-03T10:36:27Z</time></trkpt><trkpt lat="40.22625900052654" lon="8.612964858749136"><ele>483.6666666666667</ele><time>2026-05-03T10:36:28Z</time></trkpt><trkpt lat="40.226388073517654" lon="8.612746719422386"><ele>483.33333333333337</ele><time>2026-05-03T10:36:29Z</time></trkpt><trkpt lat="40.2265131760123" lon="8.612525128367569"><ele>483.0</ele><time>2026-05-03T10:36:30Z</time></trkpt><trkpt lat="40.226626658680836" lon="8.612323882006654"><ele>483.0</ele><time>2026-05-03T10:36:31Z</time></trkpt><trkpt lat="40.22672323248196" lon="8.612148584164217"><ele>483.0</ele><time>2026-05-03T10:36:32Z</time></trkpt><trkpt lat="40.22681719627478" lon="8.61197758903663"><ele>483.0</ele><time>2026-05-03T10:36:33Z</time></trkpt><trkpt lat="40.22691009530226" lon="8.61181621829363"><ele>483.75</ele><time>2026-05-03T10:36:34Z</time></trkpt><trkpt lat="40.22699313699501" lon="8.611672076102302"><ele>484.5</ele><time>2026-05-03T10:36:35Z</time></trkpt><trkpt lat="40.22707350809199" lon="8.611525703808104"><ele>485.25</ele><time>2026-05-03T10:36:36Z</time></trkpt><trkpt lat="40.227158766647996" lon="8.611371290991114"><ele>486.0</ele><time>2026-05-03T10:36:37Z</time></trkpt><trkpt lat="40.22724896593437" lon="8.611204723451479"><ele>484.33333333333337</ele><time>2026-05-03T10:36:38Z</time></trkpt><trkpt lat="40.227341698244075" lon="8.611035717164384"><ele>482.6666666666667</ele><time>2026-05-03T10:36:39Z</time></trkpt><trkpt lat="40.22743244080562" lon="8.610860182939035"><ele>481.0</ele><time>2026-05-03T10:36:40Z</time></trkpt><trkpt lat="40.22750053109941" lon="8.6106623160202"><ele>481.0</ele><time>2026-05-03T10:36:41Z</time></trkpt><trkpt lat="40.22754055418127" lon="8.610437441445024"><ele>481.0</ele><time>2026-05-03T10:36:42Z</time></trkpt><trkpt lat="40.227558191397286" lon="8.610197800291587"><ele>481.0</ele><time>2026-05-03T10:36:43Z</time></trkpt><trkpt lat="40.22756076808233" lon="8.609953252879265"><ele>481.0</ele><time>2026-05-03T10:36:44Z</time></trkpt><trkpt lat="40.22754137362639" lon="8.609726225737209"><ele>481.0</ele><time>2026-05-03T10:36:45Z</time></trkpt><trkpt lat="40.22749695934396" lon="8.609502632255925"><ele>481.0</ele><time>2026-05-03T10:36:46Z</time></trkpt><trkpt lat="40.22742344967978" lon="8.609298352667574"><ele>480.33333333333337</ele><time>2026-05-03T10:36:47Z</time></trkpt><trkpt lat="40.22732060187986" lon="8.60909102692893"><ele>479.66666666666663</ele><time>2026-05-03T10:36:48Z</time></trkpt><trkpt lat="40.22720023056851" lon="8.608869556592474"><ele>479.0</ele><time>2026-05-03T10:36:49Z</time></trkpt><trkpt lat="40.227075003385856" lon="8.608638431235411"><ele>475.0</ele><time>2026-05-03T10:36:50Z</time></trkpt><trkpt lat="40.226940484138694" lon="8.608395776891754"><ele>471.0</ele><time>2026-05-03T10:36:51Z</time></trkpt><trkpt lat="40.22680594762357" lon="8.608147144089012"><ele>471.0</ele><time>2026-05-03T10:36:52Z</time></trkpt><trkpt lat="40.22666503224017" lon="8.607892083696715"><ele>471.0</ele><time>2026-05-03T10:36:53Z</time></trkpt><trkpt lat="40.226530932552166" lon="8.607647707724903"><ele>472.0</ele><time>2026-05-03T10:36:54Z</time></trkpt><trkpt lat="40.22640108994538" lon="8.607412474232438"><ele>473.0</ele><time>2026-05-03T10:36:55Z</time></trkpt><trkpt lat="40.22627909047098" lon="8.607188304651899"><ele>474.0</ele><time>2026-05-03T10:36:56Z</time></trkpt><trkpt lat="40.22616014937027" lon="8.606963706672738"><ele>470.66666666666663</ele><time>2026-05-03T10:36:57Z</time></trkpt><trkpt lat="40.22604838708627" lon="8.606747484041241"><ele>467.3333333333333</ele><time>2026-05-03T10:36:58Z</time></trkpt><trkpt lat="40.22593577871612" lon="8.606543169387884"><ele>464.0</ele><time>2026-05-03T10:36:59Z</time></trkpt><trkpt lat="40.225827268234596" lon="8.606355682355769"><ele>464.0</ele><time>2026-05-03T10:37:00Z</time></trkpt><trkpt lat="40.22571359324082" lon="8.606184835766678"><ele>464.0</ele><time>2026-05-03T10:37:01Z</time></trkpt><trkpt lat="40.22558867586483" lon="8.606042946601558"><ele>464.0</ele><time>2026-05-03T10:37:02Z</time></trkpt><trkpt lat="40.22545449871714" lon="8.605930446013259"><ele>461.0</ele><time>2026-05-03T10:37:03Z</time></trkpt><trkpt lat="40.22530375510102" lon="8.60584979153962"><ele>458.0</ele><time>2026-05-03T10:37:04Z</time></trkpt><trkpt lat="40.22513983945584" lon="8.605806123256944"><ele>455.0</ele><time>2026-05-03T10:37:05Z</time></trkpt><trkpt lat="40.22496078069696" lon="8.605795998368135"><ele>453.66666666666663</ele><time>2026-05-03T10:37:06Z</time></trkpt><trkpt lat="40.22475833873334" lon="8.605797915804205"><ele>452.33333333333337</ele><time>2026-05-03T10:37:07Z</time></trkpt><trkpt lat="40.22456040542831" lon="8.605798373385651"><ele>451.0</ele><time>2026-05-03T10:37:08Z</time></trkpt><trkpt lat="40.22436378086318" lon="8.605794191652945"><ele>451.0</ele><time>2026-05-03T10:37:09Z</time></trkpt><trkpt lat="40.22417843319285" lon="8.60579028660394"><ele>451.0</ele><time>2026-05-03T10:37:10Z</time></trkpt><trkpt lat="40.224001273131464" lon="8.605782047179677"><ele>451.0</ele><time>2026-05-03T10:37:11Z</time></trkpt><trkpt lat="40.22383142633409" lon="8.605777805704722"><ele>448.33333333333337</ele><time>2026-05-03T10:37:12Z</time></trkpt><trkpt lat="40.22367132643609" lon="8.605787393805615"><ele>445.66666666666663</ele><time>2026-05-03T10:37:13Z</time></trkpt><trkpt lat="40.223520811458435" lon="8.605828137766238"><ele>443.0</ele><time>2026-05-03T10:37:14Z</time></trkpt><trkpt lat="40.223382119274916" lon="8.60590601908569"><ele>443.0</ele><time>2026-05-03T10:37:15Z</time></trkpt><trkpt lat="40.22326035795117" lon="8.606028812813813"><ele>443.0</ele><time>2026-05-03T10:37:16Z</time></trkpt><trkpt lat="40.22314236559073" lon="8.606203691388773"><ele>443.0</ele><time>2026-05-03T10:37:17Z</time></trkpt><trkpt lat="40.22302100567512" lon="8.606396024684756"><ele>442.66666666666663</ele><time>2026-05-03T10:37:18Z</time></trkpt><trkpt lat="40.222907387550414" lon="8.606628092867979"><ele>442.33333333333337</ele><time>2026-05-03T10:37:19Z</time></trkpt><trkpt lat="40.222776683558536" lon="8.606853442579538"><ele>442.0</ele><time>2026-05-03T10:37:20Z</time></trkpt><trkpt lat="40.222637784233456" lon="8.607089151525013"><ele>442.0</ele><time>2026-05-03T10:37:21Z</time></trkpt><trkpt lat="40.22249335862737" lon="8.607318753958094"><ele>442.0</ele><time>2026-05-03T10:37:22Z</time></trkpt><trkpt lat="40.2223423275029" lon="8.607538671063764"><ele>437.6666666666667</ele><time>2026-05-03T10:37:23Z</time></trkpt><trkpt lat="40.222180548048826" lon="8.607718613968126"><ele>433.33333333333337</ele><time>2026-05-03T10:37:24Z</time></trkpt><trkpt lat="40.22203983295529" lon="8.607895767327474"><ele>429.0</ele><time>2026-05-03T10:37:25Z</time></trkpt><trkpt lat="40.221913169021875" lon="8.608050971648836"><ele>429.0</ele><time>2026-05-03T10:37:26Z</time></trkpt><trkpt lat="40.22180512533022" lon="8.608204955946785"><ele>429.0</ele><time>2026-05-03T10:37:27Z</time></trkpt><trkpt lat="40.2216856736536" lon="8.608302320905983"><ele>429.0</ele><time>2026-05-03T10:37:28Z</time></trkpt><trkpt lat="40.22156011991477" lon="8.608355315000713"><ele>429.0</ele><time>2026-05-03T10:37:29Z</time></trkpt><trkpt lat="40.221433539186975" lon="8.608358369708276"><ele>430.25</ele><time>2026-05-03T10:37:30Z</time></trkpt><trkpt lat="40.221298677234714" lon="8.608313226392822"><ele>431.5</ele><time>2026-05-03T10:37:31Z</time></trkpt><trkpt lat="40.221174489235096" lon="8.608232370038436"><ele>432.75</ele><time>2026-05-03T10:37:32Z</time></trkpt><trkpt lat="40.22107847292052" lon="8.60810510071393"><ele>434.0</ele><time>2026-05-03T10:37:33Z</time></trkpt><trkpt lat="40.22100844063465" lon="8.60794237815687"><ele>434.66666666666663</ele><time>2026-05-03T10:37:34Z</time></trkpt><trkpt lat="40.2209704630623" lon="8.607756812810829"><ele>435.33333333333337</ele><time>2026-05-03T10:37:35Z</time></trkpt><trkpt lat="40.220967862327456" lon="8.607550039758587"><ele>436.0</ele><time>2026-05-03T10:37:36Z</time></trkpt><trkpt lat="40.220984729413246" lon="8.60733131756934"><ele>436.0</ele><time>2026-05-03T10:37:36.999Z</time></trkpt><trkpt lat="40.22100631568911" lon="8.607088090167395"><ele>436.0</ele><time>2026-05-03T10:37:37.999Z</time></trkpt><trkpt lat="40.221019491702506" lon="8.606832068765947"><ele>436.0</ele><time>2026-05-03T10:37:38.999Z</time></trkpt><trkpt lat="40.221027852933034" lon="8.606564729829305"><ele>438.0</ele><time>2026-05-03T10:37:39.999Z</time></trkpt><trkpt lat="40.2210411932924" lon="8.606288568389967"><ele>440.0</ele><time>2026-05-03T10:37:40.999Z</time></trkpt><trkpt lat="40.22105916932682" lon="8.60598774327015"><ele>442.0</ele><time>2026-05-03T10:37:41.999Z</time></trkpt><trkpt lat="40.22107647589146" lon="8.605699608269354"><ele>443.33333333333337</ele><time>2026-05-03T10:37:42.999Z</time></trkpt><trkpt lat="40.221088276449805" lon="8.605418040249393"><ele>444.66666666666663</ele><time>2026-05-03T10:37:43.999Z</time></trkpt><trkpt lat="40.221095271765414" lon="8.605162245115045"><ele>446.0</ele><time>2026-05-03T10:37:44.999Z</time></trkpt><trkpt lat="40.22110550693715" lon="8.60491954551656"><ele>446.0</ele><time>2026-05-03T10:37:45.999Z</time></trkpt><trkpt lat="40.22112917140207" lon="8.604702029730623"><ele>446.0</ele><time>2026-05-03T10:37:46.999Z</time></trkpt><trkpt lat="40.22118016631759" lon="8.604497019644544"><ele>446.0</ele><time>2026-05-03T10:37:47.999Z</time></trkpt><trkpt lat="40.22127087240107" lon="8.604313874940987"><ele>448.3333333333333</ele><time>2026-05-03T10:37:48.999Z</time></trkpt><trkpt lat="40.2213918784398" lon="8.604149955756993"><ele>450.66666666666663</ele><time>2026-05-03T10:37:49.999Z</time></trkpt><trkpt lat="40.221531017984795" lon="8.603984362289507"><ele>453.0</ele><time>2026-05-03T10:37:50.999Z</time></trkpt><trkpt lat="40.22167949037638" lon="8.603807102400781"><ele>453.33333333333337</ele><time>2026-05-03T10:37:51.999Z</time></trkpt><trkpt lat="40.22182452136006" lon="8.603626233776176"><ele>453.6666666666667</ele><time>2026-05-03T10:37:53Z</time></trkpt><trkpt lat="40.22197293708751" lon="8.603442962954986"><ele>454.0</ele><time>2026-05-03T10:37:54Z</time></trkpt><trkpt lat="40.222091456182135" lon="8.603267379524228"><ele>454.0</ele><time>2026-05-03T10:37:55Z</time></trkpt><trkpt lat="40.22219655710234" lon="8.603086087393262"><ele>454.0</ele><time>2026-05-03T10:37:56Z</time></trkpt><trkpt lat="40.22227256609769" lon="8.602878146552362"><ele>454.0</ele><time>2026-05-03T10:37:57Z</time></trkpt><trkpt lat="40.22231615222053" lon="8.60264141933368"><ele>450.6666666666667</ele><time>2026-05-03T10:37:58Z</time></trkpt><trkpt lat="40.22235063744092" lon="8.602383882143936"><ele>447.33333333333337</ele><time>2026-05-03T10:37:59Z</time></trkpt><trkpt lat="40.2223711341251" lon="8.60211068685063"><ele>444.0</ele><time>2026-05-03T10:38:00Z</time></trkpt><trkpt lat="40.222400898387974" lon="8.601822578319261"><ele>444.0</ele><time>2026-05-03T10:38:01Z</time></trkpt><trkpt lat="40.22243641799003" lon="8.601545261712195"><ele>444.0</ele><time>2026-05-03T10:38:02Z</time></trkpt><trkpt lat="40.22246381820844" lon="8.601288488002044"><ele>444.0</ele><time>2026-05-03T10:38:03Z</time></trkpt><trkpt lat="40.22250029114335" lon="8.601062432756923"><ele>445.0</ele><time>2026-05-03T10:38:04Z</time></trkpt><trkpt lat="40.222564577070145" lon="8.600844767640725"><ele>446.0</ele><time>2026-05-03T10:38:05Z</time></trkpt><trkpt lat="40.22266131713756" lon="8.60063900369909"><ele>447.0</ele><time>2026-05-03T10:38:06Z</time></trkpt><trkpt lat="40.22276717960667" lon="8.600430159778048"><ele>448.33333333333337</ele><time>2026-05-03T10:38:07Z</time></trkpt><trkpt lat="40.22287076702612" lon="8.600204051307326"><ele>449.6666666666667</ele><time>2026-05-03T10:38:08Z</time></trkpt><trkpt lat="40.22294652590596" lon="8.599993306466699"><ele>451.0</ele><time>2026-05-03T10:38:09Z</time></trkpt><trkpt lat="40.22302001307131" lon="8.599763659922681"><ele>451.0</ele><time>2026-05-03T10:38:10Z</time></trkpt><trkpt lat="40.22303250178197" lon="8.599571984148163"><ele>451.0</ele><time>2026-05-03T10:38:11Z</time></trkpt><trkpt lat="40.22302385460024" lon="8.599343599576903"><ele>451.0</ele><time>2026-05-03T10:38:12Z</time></trkpt><trkpt lat="40.222980318332624" lon="8.599118669442793"><ele>450.6666666666667</ele><time>2026-05-03T10:38:13Z</time></trkpt><trkpt lat="40.22291113634773" lon="8.598905038215852"><ele>450.33333333333337</ele><time>2026-05-03T10:38:14Z</time></trkpt><trkpt lat="40.22281966949054" lon="8.59871478761798"><ele>450.0</ele><time>2026-05-03T10:38:15Z</time></trkpt><trkpt lat="40.22270725318942" lon="8.598550497016582"><ele>450.0</ele><time>2026-05-03T10:38:16Z</time></trkpt><trkpt lat="40.22257555712777" lon="8.598418520194777"><ele>450.0</ele><time>2026-05-03T10:38:17Z</time></trkpt><trkpt lat="40.222422750722565" lon="8.598315082441923"><ele>450.0</ele><time>2026-05-03T10:38:18Z</time></trkpt><trkpt lat="40.22224856445953" lon="8.598218301246641"><ele>450.0</ele><time>2026-05-03T10:38:19Z</time></trkpt><trkpt lat="40.222070127035266" lon="8.598094211790691"><ele>450.0</ele><time>2026-05-03T10:38:20Z</time></trkpt><trkpt lat="40.22188174972075" lon="8.598007512206662"><ele>450.0</ele><time>2026-05-03T10:38:21Z</time></trkpt><trkpt lat="40.22169496215373" lon="8.597898373170393"><ele>448.33333333333337</ele><time>2026-05-03T10:38:22Z</time></trkpt><trkpt lat="40.221500474664616" lon="8.597790837894198"><ele>446.6666666666667</ele><time>2026-05-03T10:38:23Z</time></trkpt><trkpt lat="40.22131705381395" lon="8.597684007998106"><ele>445.0</ele><time>2026-05-03T10:38:24Z</time></trkpt><trkpt lat="40.2211386890447" lon="8.597566691232869"><ele>445.0</ele><time>2026-05-03T10:38:25Z</time></trkpt><trkpt lat="40.22098359962535" lon="8.597448728847166"><ele>445.0</ele><time>2026-05-03T10:38:26Z</time></trkpt><trkpt lat="40.22086035093974" lon="8.59730093596788"><ele>445.0</ele><time>2026-05-03T10:38:27Z</time></trkpt><trkpt lat="40.22078445689406" lon="8.597124915070728"><ele>443.6666666666667</ele><time>2026-05-03T10:38:28Z</time></trkpt><trkpt lat="40.220715868100946" lon="8.596926951654579"><ele>442.33333333333337</ele><time>2026-05-03T10:38:29Z</time></trkpt><trkpt lat="40.22066236406697" lon="8.596705523742292"><ele>441.0</ele><time>2026-05-03T10:38:30Z</time></trkpt><trkpt lat="40.22066129421852" lon="8.596476520872264"><ele>441.0</ele><time>2026-05-03T10:38:31Z</time></trkpt><trkpt lat="40.22068780842205" lon="8.596226015330375"><ele>441.0</ele><time>2026-05-03T10:38:32Z</time></trkpt><trkpt lat="40.22072196927921" lon="8.59594164801546"><ele>441.0</ele><time>2026-05-03T10:38:33Z</time></trkpt><trkpt lat="40.2207596466709" lon="8.595636376122405"><ele>438.5</ele><time>2026-05-03T10:38:34Z</time></trkpt><trkpt lat="40.220799370279856" lon="8.595314525165657"><ele>436.0</ele><time>2026-05-03T10:38:35Z</time></trkpt><trkpt lat="40.22083980319599" lon="8.594986927276354"><ele>436.0</ele><time>2026-05-03T10:38:36Z</time></trkpt><trkpt lat="40.22087978863026" lon="8.594656248568882"><ele>436.0</ele><time>2026-05-03T10:38:37Z</time></trkpt><trkpt lat="40.22091987079888" lon="8.594326463909239"><ele>436.0</ele><time>2026-05-03T10:38:38Z</time></trkpt><trkpt lat="40.22094383237001" lon="8.594024428861271"><ele>436.0</ele><time>2026-05-03T10:38:39Z</time></trkpt><trkpt lat="40.22098162906316" lon="8.593757667566242"><ele>436.0</ele><time>2026-05-03T10:38:40Z</time></trkpt><trkpt lat="40.221015404765446" lon="8.593495212368301"><ele>436.0</ele><time>2026-05-03T10:38:41Z</time></trkpt><trkpt lat="40.221049422288075" lon="8.593221176687905"><ele>436.0</ele><time>2026-05-03T10:38:42Z</time></trkpt><trkpt lat="40.22108550935485" lon="8.59294935779783"><ele>436.0</ele><time>2026-05-03T10:38:43Z</time></trkpt><trkpt lat="40.2211183958155" lon="8.592693910620326"><ele>436.33333333333337</ele><time>2026-05-03T10:38:44Z</time></trkpt><trkpt lat="40.22114858777252" lon="8.592457280615589"><ele>436.66666666666663</ele><time>2026-05-03T10:38:45Z</time></trkpt><trkpt lat="40.221183368251246" lon="8.592208340977948"><ele>437.0</ele><time>2026-05-03T10:38:46Z</time></trkpt><trkpt lat="40.221208857997674" lon="8.591962465218991"><ele>437.0</ele><time>2026-05-03T10:38:47Z</time></trkpt><trkpt lat="40.22123904956577" lon="8.591713495387596"><ele>437.0</ele><time>2026-05-03T10:38:48Z</time></trkpt><trkpt lat="40.22126921282559" lon="8.591465470578777"><ele>437.0</ele><time>2026-05-03T10:38:49Z</time></trkpt><trkpt lat="40.22129455677658" lon="8.591235831241153"><ele>435.3333333333333</ele><time>2026-05-03T10:38:50Z</time></trkpt><trkpt lat="40.22132219625599" lon="8.5910159573884"><ele>433.66666666666663</ele><time>2026-05-03T10:38:51Z</time></trkpt><trkpt lat="40.22134905733213" lon="8.590791316147532"><ele>432.0</ele><time>2026-05-03T10:38:52Z</time></trkpt><trkpt lat="40.22137939775269" lon="8.590551050131266"><ele>430.66666666666663</ele><time>2026-05-03T10:38:53Z</time></trkpt><trkpt lat="40.22140866922252" lon="8.590311059849213"><ele>429.3333333333333</ele><time>2026-05-03T10:38:54Z</time></trkpt><trkpt lat="40.22143846278078" lon="8.590069463062058"><ele>428.0</ele><time>2026-05-03T10:38:55Z</time></trkpt><trkpt lat="40.22146902136053" lon="8.589832195057095"><ele>428.3333333333333</ele><time>2026-05-03T10:38:56Z</time></trkpt><trkpt lat="40.2214977433666" lon="8.589586956213974"><ele>428.66666666666663</ele><time>2026-05-03T10:38:57Z</time></trkpt><trkpt lat="40.221526995186935" lon="8.589337876424693"><ele>429.0</ele><time>2026-05-03T10:38:58Z</time></trkpt><trkpt lat="40.22155662769639" lon="8.589103098134963"><ele>428.0</ele><time>2026-05-03T10:38:59Z</time></trkpt><trkpt lat="40.22158513033545" lon="8.588871409495525"><ele>427.0</ele><time>2026-05-03T10:39:00Z</time></trkpt><trkpt lat="40.22160956936318" lon="8.588643234303259"><ele>426.0</ele><time>2026-05-03T10:39:01Z</time></trkpt><trkpt lat="40.221635440711225" lon="8.588419751094188"><ele>424.33333333333337</ele><time>2026-05-03T10:39:02Z</time></trkpt><trkpt lat="40.221664075274376" lon="8.588203385944785"><ele>422.6666666666667</ele><time>2026-05-03T10:39:03Z</time></trkpt><trkpt lat="40.221690347418075" lon="8.58798926265465"><ele>421.0</ele><time>2026-05-03T10:39:04Z</time></trkpt><trkpt lat="40.22171590221746" lon="8.587776930763345"><ele>420.0</ele><time>2026-05-03T10:39:05Z</time></trkpt><trkpt lat="40.221741314523655" lon="8.587570322028613"><ele>419.0</ele><time>2026-05-03T10:39:06Z</time></trkpt><trkpt lat="40.221764813737" lon="8.58737431051577"><ele>418.0</ele><time>2026-05-03T10:39:07Z</time></trkpt><trkpt lat="40.221787344647126" lon="8.587189450935357"><ele>418.0</ele><time>2026-05-03T10:39:08Z</time></trkpt><trkpt lat="40.22181120625641" lon="8.587023708889957"><ele>418.0</ele><time>2026-05-03T10:39:09Z</time></trkpt><trkpt lat="40.22183246783519" lon="8.586869027548525"><ele>418.0</ele><time>2026-05-03T10:39:10Z</time></trkpt><trkpt lat="40.22185950918047" lon="8.586733047113166"><ele>418.0</ele><time>2026-05-03T10:39:11Z</time></trkpt><trkpt lat="40.221891877559024" lon="8.586626962288475"><ele>418.0</ele><time>2026-05-03T10:39:12Z</time></trkpt><trkpt lat="40.221923211525464" lon="8.586541414965193"><ele>417.59999999999997</ele><time>2026-05-03T10:39:13Z</time></trkpt><trkpt lat="40.221945233203314" lon="8.586420201515308"><ele>417.2</ele><time>2026-05-03T10:39:15Z</time></trkpt><trkpt lat="40.22192993951979" lon="8.586326298316013"><ele>416.8</ele><time>2026-05-03T10:39:17Z</time></trkpt><trkpt lat="40.22183331552702" lon="8.586225717725945"><ele>416.4</ele><time>2026-05-03T10:39:19Z</time></trkpt><trkpt lat="40.22175112377942" lon="8.586197018615724"><ele>416.0</ele><time>2026-05-03T10:39:20Z</time></trkpt><trkpt lat="40.221668564485995" lon="8.586180532553177"><ele>415.4</ele><time>2026-05-03T10:39:21Z</time></trkpt><trkpt lat="40.22156754386462" lon="8.586127877875015"><ele>414.8</ele><time>2026-05-03T10:39:22Z</time></trkpt><trkpt lat="40.22146081852791" lon="8.586094445711721"><ele>414.2</ele><time>2026-05-03T10:39:23Z</time></trkpt><trkpt lat="40.22135033863554" lon="8.586079037082634"><ele>413.59999999999997</ele><time>2026-05-03T10:39:24Z</time></trkpt><trkpt lat="40.221244420986594" lon="8.586046791872704"><ele>413.0</ele><time>2026-05-03T10:39:25Z</time></trkpt><trkpt lat="40.221139978596625" lon="8.586017003234376"><ele>413.0</ele><time>2026-05-03T10:39:26Z</time></trkpt><trkpt lat="40.221034173338346" lon="8.585965434918494"><ele>413.0</ele><time>2026-05-03T10:39:27Z</time></trkpt><trkpt lat="40.22091505984232" lon="8.585928670986203"><ele>413.0</ele><time>2026-05-03T10:39:28Z</time></trkpt><trkpt lat="40.2207951979914" lon="8.585891170879313"><ele>413.0</ele><time>2026-05-03T10:39:29Z</time></trkpt><trkpt lat="40.22067156981324" lon="8.585851586955828"><ele>413.0</ele><time>2026-05-03T10:39:30Z</time></trkpt><trkpt lat="40.22054608803734" lon="8.585829066448524"><ele>413.0</ele><time>2026-05-03T10:39:31Z</time></trkpt><trkpt lat="40.220428942632786" lon="8.585792720327841"><ele>413.0</ele><time>2026-05-03T10:39:32Z</time></trkpt><trkpt lat="40.22031519201581" lon="8.58575152372655"><ele>413.0</ele><time>2026-05-03T10:39:33Z</time></trkpt><trkpt lat="40.220207987965324" lon="8.585712158598042"><ele>413.0</ele><time>2026-05-03T10:39:34Z</time></trkpt><trkpt lat="40.22010314268178" lon="8.585675058274742"><ele>413.0</ele><time>2026-05-03T10:39:35Z</time></trkpt><trkpt lat="40.219995627320046" lon="8.585646333079303"><ele>413.0</ele><time>2026-05-03T10:39:36Z</time></trkpt><trkpt lat="40.21988363892857" lon="8.585624258348426"><ele>413.0</ele><time>2026-05-03T10:39:37Z</time></trkpt><trkpt lat="40.21977382127304" lon="8.585632427812943"><ele>413.0</ele><time>2026-05-03T10:39:38Z</time></trkpt><trkpt lat="40.219664973807966" lon="8.585683048131513"><ele>410.25</ele><time>2026-05-03T10:39:39Z</time></trkpt><trkpt lat="40.21956844069451" lon="8.58577478586199"><ele>407.5</ele><time>2026-05-03T10:39:40Z</time></trkpt><trkpt lat="40.21948216602101" lon="8.585895909490208"><ele>404.75</ele><time>2026-05-03T10:39:41Z</time></trkpt><trkpt lat="40.219408983194555" lon="8.586014634272592"><ele>402.0</ele><time>2026-05-03T10:39:42Z</time></trkpt><trkpt lat="40.21932943473608" lon="8.58611847212779"><ele>402.8</ele><time>2026-05-03T10:39:42.999Z</time></trkpt><trkpt lat="40.21925347352337" lon="8.586232445863438"><ele>403.6</ele><time>2026-05-03T10:39:43.999Z</time></trkpt><trkpt lat="40.219189220333156" lon="8.586351221840468"><ele>404.40000000000003</ele><time>2026-05-03T10:39:44.999Z</time></trkpt><trkpt lat="40.21914723612247" lon="8.586485660634512"><ele>405.20000000000005</ele><time>2026-05-03T10:39:45.999Z</time></trkpt><trkpt lat="40.21912211827665" lon="8.586628426105138"><ele>406.0</ele><time>2026-05-03T10:39:46.999Z</time></trkpt><trkpt lat="40.219121475228064" lon="8.5867789375548"><ele>406.0</ele><time>2026-05-03T10:39:47.999Z</time></trkpt><trkpt lat="40.21913087221654" lon="8.58691874167693"><ele>406.0</ele><time>2026-05-03T10:39:48.999Z</time></trkpt><trkpt lat="40.21914249637837" lon="8.587053457158481"><ele>406.0</ele><time>2026-05-03T10:39:49.999Z</time></trkpt><trkpt lat="40.219152096163626" lon="8.587183270453462"><ele>406.0</ele><time>2026-05-03T10:39:50.999Z</time></trkpt><trkpt lat="40.21915932127263" lon="8.587297512220408"><ele>406.0</ele><time>2026-05-03T10:39:51.999Z</time></trkpt><trkpt lat="40.21916103269159" lon="8.587399670446155"><ele>406.1666666666667</ele><time>2026-05-03T10:39:52.999Z</time></trkpt><trkpt lat="40.21917648736451" lon="8.587491872387643"><ele>406.33333333333337</ele><time>2026-05-03T10:39:53.999Z</time></trkpt><trkpt lat="40.21918803028146" lon="8.587588065963402"><ele>406.5</ele><time>2026-05-03T10:39:54.999Z</time></trkpt><trkpt lat="40.2192032799404" lon="8.587675802962591"><ele>406.66666666666663</ele><time>2026-05-03T10:39:56Z</time></trkpt><trkpt lat="40.21922534043909" lon="8.587753352049823"><ele>406.8333333333333</ele><time>2026-05-03T10:39:57Z</time></trkpt><trkpt lat="40.21927934708347" lon="8.587910114114687"><ele>407.0</ele><time>2026-05-03T10:39:59Z</time></trkpt><trkpt lat="40.219289758812565" lon="8.587997881194957"><ele>406.6</ele><time>2026-05-03T10:40:00Z</time></trkpt><trkpt lat="40.21931173510143" lon="8.588077301203896"><ele>406.20000000000005</ele><time>2026-05-03T10:40:01Z</time></trkpt><trkpt lat="40.2193511394548" lon="8.588213248434187"><ele>405.8</ele><time>2026-05-03T10:40:03Z</time></trkpt><trkpt lat="40.21938327640365" lon="8.588296488504561"><ele>405.4</ele><time>2026-05-03T10:41:11Z</time></trkpt><trkpt lat="40.21941420561459" lon="8.588164730404134"><ele>405.0</ele><time>2026-05-03T10:41:15Z</time></trkpt><trkpt lat="40.21932431463846" lon="8.587967366660964"><ele>405.4</ele><time>2026-05-03T10:41:19Z</time></trkpt><trkpt lat="40.21926214202125" lon="8.587825879813899"><ele>405.8</ele><time>2026-05-03T10:41:21Z</time></trkpt><trkpt lat="40.219192424664286" lon="8.58768561161011"><ele>406.20000000000005</ele><time>2026-05-03T10:41:23Z</time></trkpt><trkpt lat="40.21913938244222" lon="8.587633957421119"><ele>406.6</ele><time>2026-05-03T10:41:24Z</time></trkpt><trkpt lat="40.219036547912424" lon="8.587535680899382"><ele>407.0</ele><time>2026-05-03T10:41:26Z</time></trkpt><trkpt lat="40.21900437451687" lon="8.587460276969008"><ele>407.0</ele><time>2026-05-03T10:41:27Z</time></trkpt><trkpt lat="40.218993127467805" lon="8.587359637573748"><ele>407.0</ele><time>2026-05-03T10:41:28Z</time></trkpt><trkpt lat="40.21899938192973" lon="8.587226982198917"><ele>407.0</ele><time>2026-05-03T10:41:29Z</time></trkpt><trkpt lat="40.2190055539138" lon="8.587095143790085"><ele>407.0</ele><time>2026-05-03T10:41:30Z</time></trkpt><trkpt lat="40.219008429073796" lon="8.586952728035456"><ele>407.0</ele><time>2026-05-03T10:41:31Z</time></trkpt><trkpt lat="40.219003825023385" lon="8.586805471752754"><ele>406.75</ele><time>2026-05-03T10:41:32Z</time></trkpt><trkpt lat="40.219002995005454" lon="8.586654237399117"><ele>406.5</ele><time>2026-05-03T10:41:33Z</time></trkpt><trkpt lat="40.21900906519819" lon="8.586502690925439"><ele>406.25</ele><time>2026-05-03T10:41:34Z</time></trkpt><trkpt lat="40.2190123064286" lon="8.586349795140372"><ele>406.0</ele><time>2026-05-03T10:41:35Z</time></trkpt><trkpt lat="40.2190185035482" lon="8.586193861189244"><ele>405.0</ele><time>2026-05-03T10:41:36Z</time></trkpt><trkpt lat="40.219019902439314" lon="8.586038224140799"><ele>404.0</ele><time>2026-05-03T10:41:37Z</time></trkpt><trkpt lat="40.21902202676789" lon="8.585886111958036"><ele>403.0</ele><time>2026-05-03T10:41:38Z</time></trkpt><trkpt lat="40.21902523737133" lon="8.585731744786813"><ele>402.0</ele><time>2026-05-03T10:41:39Z</time></trkpt><trkpt lat="40.21902882650485" lon="8.58556141548724"><ele>402.0</ele><time>2026-05-03T10:41:40Z</time></trkpt><trkpt lat="40.219034078596515" lon="8.58539366513946"><ele>402.0</ele><time>2026-05-03T10:41:41Z</time></trkpt><trkpt lat="40.21903937702738" lon="8.585213595477569"><ele>402.0</ele><time>2026-05-03T10:41:42Z</time></trkpt><trkpt lat="40.219040433170385" lon="8.585024120048844"><ele>402.0</ele><time>2026-05-03T10:41:43Z</time></trkpt><trkpt lat="40.2190420219578" lon="8.584820264463149"><ele>401.0</ele><time>2026-05-03T10:41:44Z</time></trkpt><trkpt lat="40.21904599824897" lon="8.584607972175592"><ele>400.0</ele><time>2026-05-03T10:41:45Z</time></trkpt><trkpt lat="40.2190527396592" lon="8.584407395095127"><ele>399.0</ele><time>2026-05-03T10:41:46Z</time></trkpt><trkpt lat="40.219057514421486" lon="8.58420439361219"><ele>397.33333333333337</ele><time>2026-05-03T10:41:47Z</time></trkpt><trkpt lat="40.21906341827822" lon="8.58399873060635"><ele>395.6666666666667</ele><time>2026-05-03T10:41:48Z</time></trkpt><trkpt lat="40.21907380349895" lon="8.583784964308888"><ele>394.0</ele><time>2026-05-03T10:41:48.998Z</time></trkpt><trkpt lat="40.21909480064348" lon="8.58356861616136"><ele>391.6666666666667</ele><time>2026-05-03T10:41:49.998Z</time></trkpt><trkpt lat="40.21913394817857" lon="8.583343409669533"><ele>389.33333333333337</ele><time>2026-05-03T10:41:50.998Z</time></trkpt><trkpt lat="40.21918118839261" lon="8.583104033459025"><ele>387.0</ele><time>2026-05-03T10:41:51.998Z</time></trkpt><trkpt lat="40.21923244858255" lon="8.582866359620962"><ele>384.6666666666667</ele><time>2026-05-03T10:41:52.998Z</time></trkpt><trkpt lat="40.219280924001" lon="8.582643344647847"><ele>382.33333333333337</ele><time>2026-05-03T10:41:53.998Z</time></trkpt><trkpt lat="40.21932758708541" lon="8.58242626542054"><ele>380.0</ele><time>2026-05-03T10:41:54.998Z</time></trkpt><trkpt lat="40.2193734571951" lon="8.58221717919152"><ele>380.0</ele><time>2026-05-03T10:41:55.998Z</time></trkpt><trkpt lat="40.2194188347899" lon="8.582016862177936"><ele>380.0</ele><time>2026-05-03T10:41:56.999Z</time></trkpt><trkpt lat="40.21946345781278" lon="8.581829632295953"><ele>380.0</ele><time>2026-05-03T10:41:57.999Z</time></trkpt><trkpt lat="40.21950089075415" lon="8.581658473396855"><ele>380.0</ele><time>2026-05-03T10:41:58.999Z</time></trkpt><trkpt lat="40.21953037966997" lon="8.581504507057439"><ele>377.75</ele><time>2026-05-03T10:41:59.999Z</time></trkpt><trkpt lat="40.21954468199461" lon="8.581355206236221"><ele>375.5</ele><time>2026-05-03T10:42:00.999Z</time></trkpt><trkpt lat="40.21952768873126" lon="8.581213039616808"><ele>373.25</ele><time>2026-05-03T10:42:01.999Z</time></trkpt><trkpt lat="40.21947209381197" lon="8.581084942549138"><ele>371.0</ele><time>2026-05-03T10:42:02.999Z</time></trkpt><trkpt lat="40.21939457987905" lon="8.580955935848612"><ele>371.5</ele><time>2026-05-03T10:42:03.999Z</time></trkpt><trkpt lat="40.21931081548015" lon="8.580815196916225"><ele>372.0</ele><time>2026-05-03T10:42:04.999Z</time></trkpt><trkpt lat="40.21922729470568" lon="8.580668358251192"><ele>372.5</ele><time>2026-05-03T10:42:05.999Z</time></trkpt><trkpt lat="40.21915033159216" lon="8.580505520811851"><ele>373.0</ele><time>2026-05-03T10:42:06.999Z</time></trkpt><trkpt lat="40.2190979055656" lon="8.580326261463405"><ele>373.0</ele><time>2026-05-03T10:42:07.999Z</time></trkpt><trkpt lat="40.21907316044587" lon="8.580133561490694"><ele>373.0</ele><time>2026-05-03T10:42:08.999Z</time></trkpt><trkpt lat="40.219070788933756" lon="8.57992801529023"><ele>373.0</ele><time>2026-05-03T10:42:09.999Z</time></trkpt><trkpt lat="40.219077885134105" lon="8.579723615789314"><ele>373.0</ele><time>2026-05-03T10:42:10.999Z</time></trkpt><trkpt lat="40.219074662712664" lon="8.57951881534094"><ele>373.0</ele><time>2026-05-03T10:42:11.999Z</time></trkpt><trkpt lat="40.21903863744187" lon="8.579325216542179"><ele>373.0</ele><time>2026-05-03T10:42:12.999Z</time></trkpt><trkpt lat="40.218972834481384" lon="8.57913198500569"><ele>366.66666666666663</ele><time>2026-05-03T10:42:13.999Z</time></trkpt><trkpt lat="40.21889299438875" lon="8.578938844749068"><ele>360.3333333333333</ele><time>2026-05-03T10:42:14.999Z</time></trkpt><trkpt lat="40.218814332189105" lon="8.578755996838135"><ele>354.0</ele><time>2026-05-03T10:42:15.999Z</time></trkpt><trkpt lat="40.21874089024796" lon="8.578578666019823"><ele>354.0</ele><time>2026-05-03T10:42:16.999Z</time></trkpt><trkpt lat="40.218673277235055" lon="8.578406562617463"><ele>354.0</ele><time>2026-05-03T10:42:17.999Z</time></trkpt><trkpt lat="40.21861342670663" lon="8.578238717371404"><ele>354.0</ele><time>2026-05-03T10:42:18.999Z</time></trkpt><trkpt lat="40.218566432038116" lon="8.57807026964035"><ele>354.0</ele><time>2026-05-03T10:42:19.999Z</time></trkpt><trkpt lat="40.2185399729428" lon="8.577884749893018"><ele>355.6666666666667</ele><time>2026-05-03T10:42:20.999Z</time></trkpt><trkpt lat="40.218538509355284" lon="8.577683689816785"><ele>357.33333333333337</ele><time>2026-05-03T10:42:21.999Z</time></trkpt><trkpt lat="40.21854995805586" lon="8.577464736443767"><ele>359.0</ele><time>2026-05-03T10:42:22.999Z</time></trkpt><trkpt lat="40.21856591828966" lon="8.577232393158152"><ele>358.0</ele><time>2026-05-03T10:42:23.999Z</time></trkpt><trkpt lat="40.21858317920115" lon="8.576992346601529"><ele>357.0</ele><time>2026-05-03T10:42:24.999Z</time></trkpt><trkpt lat="40.218601539754346" lon="8.576753388891722"><ele>356.0</ele><time>2026-05-03T10:42:25.999Z</time></trkpt><trkpt lat="40.21861803593658" lon="8.576514710853818"><ele>356.0</ele><time>2026-05-03T10:42:26.999Z</time></trkpt><trkpt lat="40.21863423841556" lon="8.576276447393735"><ele>356.0</ele><time>2026-05-03T10:42:27.999Z</time></trkpt><trkpt lat="40.218650227139435" lon="8.576039002025608"><ele>356.0</ele><time>2026-05-03T10:42:28.999Z</time></trkpt><trkpt lat="40.21866868433533" lon="8.575794430199416"><ele>353.0</ele><time>2026-05-03T10:42:29.999Z</time></trkpt><trkpt lat="40.218689244132285" lon="8.575550207419743"><ele>350.0</ele><time>2026-05-03T10:42:31Z</time></trkpt><trkpt lat="40.21870585094879" lon="8.575322712013854"><ele>347.0</ele><time>2026-05-03T10:42:32Z</time></trkpt><trkpt lat="40.21872343295983" lon="8.575112120975666"><ele>345.75</ele><time>2026-05-03T10:42:33Z</time></trkpt><trkpt lat="40.218748601895776" lon="8.574926390459092"><ele>344.5</ele><time>2026-05-03T10:42:34Z</time></trkpt><trkpt lat="40.21878911320647" lon="8.57475407612836"><ele>343.25</ele><time>2026-05-03T10:42:35Z</time></trkpt><trkpt lat="40.21884340973805" lon="8.574579796740004"><ele>342.0</ele><time>2026-05-03T10:42:36Z</time></trkpt><trkpt lat="40.21890015759698" lon="8.574413712983963"><ele>342.75</ele><time>2026-05-03T10:42:37Z</time></trkpt><trkpt lat="40.21896137293737" lon="8.574257097172628"><ele>343.5</ele><time>2026-05-03T10:42:38Z</time></trkpt><trkpt lat="40.21903457211061" lon="8.574116228526796"><ele>344.25</ele><time>2026-05-03T10:42:39Z</time></trkpt><trkpt lat="40.219127571397486" lon="8.574007359303861"><ele>345.0</ele><time>2026-05-03T10:42:40Z</time></trkpt><trkpt lat="40.21923766141658" lon="8.573931659285043"><ele>345.0</ele><time>2026-05-03T10:42:41Z</time></trkpt><trkpt lat="40.219366108676844" lon="8.573876632047684"><ele>345.0</ele><time>2026-05-03T10:42:42Z</time></trkpt><trkpt lat="40.21950767058739" lon="8.573843768416658"><ele>345.0</ele><time>2026-05-03T10:42:43Z</time></trkpt><trkpt lat="40.21966397446684" lon="8.573840573238629"><ele>345.0</ele><time>2026-05-03T10:42:44Z</time></trkpt><trkpt lat="40.219831358183185" lon="8.573855929544221"><ele>344.0</ele><time>2026-05-03T10:42:45Z</time></trkpt><trkpt lat="40.219997543616564" lon="8.573871467013241"><ele>343.0</ele><time>2026-05-03T10:42:46Z</time></trkpt><trkpt lat="40.22015847250973" lon="8.573883969046985"><ele>342.0</ele><time>2026-05-03T10:42:47Z</time></trkpt><trkpt lat="40.22031579587468" lon="8.573897456116653"><ele>342.0</ele><time>2026-05-03T10:42:48Z</time></trkpt><trkpt lat="40.22046726036365" lon="8.573913306773633"><ele>342.0</ele><time>2026-05-03T10:42:49Z</time></trkpt><trkpt lat="40.22059852637933" lon="8.573919781645516"><ele>342.0</ele><time>2026-05-03T10:42:50Z</time></trkpt><trkpt lat="40.2207069710872" lon="8.573890617053683"><ele>342.0</ele><time>2026-05-03T10:42:51Z</time></trkpt><trkpt lat="40.22078879349653" lon="8.573819315298861"><ele>341.20000000000005</ele><time>2026-05-03T10:42:52Z</time></trkpt><trkpt lat="40.2208464615882" lon="8.57371709170682"><ele>340.4</ele><time>2026-05-03T10:42:53Z</time></trkpt><trkpt lat="40.22087131433498" lon="8.573597475573555"><ele>339.6</ele><time>2026-05-03T10:42:54Z</time></trkpt><trkpt lat="40.2208652455117" lon="8.573453051525616"><ele>338.79999999999995</ele><time>2026-05-03T10:42:55Z</time></trkpt><trkpt lat="40.22081879430161" lon="8.573318220562099"><ele>338.0</ele><time>2026-05-03T10:42:56Z</time></trkpt><trkpt lat="40.220740453702945" lon="8.573188780324962"><ele>337.5</ele><time>2026-05-03T10:42:57Z</time></trkpt><trkpt lat="40.22065016280376" lon="8.573045932324996"><ele>337.0</ele><time>2026-05-03T10:42:58Z</time></trkpt><trkpt lat="40.22056767679462" lon="8.572906847011922"><ele>336.5</ele><time>2026-05-03T10:42:59Z</time></trkpt><trkpt lat="40.22048168773077" lon="8.572761085971203"><ele>336.0</ele><time>2026-05-03T10:43:00Z</time></trkpt><trkpt lat="40.220389915405484" lon="8.572616431851442"><ele>334.0</ele><time>2026-05-03T10:43:01Z</time></trkpt><trkpt lat="40.220300989415584" lon="8.572478407966283"><ele>332.0</ele><time>2026-05-03T10:43:02Z</time></trkpt><trkpt lat="40.22021794384533" lon="8.572340200077942"><ele>330.0</ele><time>2026-05-03T10:43:03Z</time></trkpt><trkpt lat="40.22014490602582" lon="8.572193909103285"><ele>328.0</ele><time>2026-05-03T10:43:04Z</time></trkpt><trkpt lat="40.220085876950286" lon="8.572031391976665"><ele>330.0</ele><time>2026-05-03T10:43:05Z</time></trkpt><trkpt lat="40.22004580836601" lon="8.571847466731713"><ele>332.0</ele><time>2026-05-03T10:43:06Z</time></trkpt><trkpt lat="40.22001195975199" lon="8.571648449813933"><ele>334.0</ele><time>2026-05-03T10:43:07Z</time></trkpt><trkpt lat="40.219982835463675" lon="8.571432701488291"><ele>334.0</ele><time>2026-05-03T10:43:08Z</time></trkpt><trkpt lat="40.21995142626798" lon="8.571202217527635"><ele>334.0</ele><time>2026-05-03T10:43:09Z</time></trkpt><trkpt lat="40.21992021617858" lon="8.570976407945189"><ele>334.0</ele><time>2026-05-03T10:43:10Z</time></trkpt><trkpt lat="40.21988717321757" lon="8.57074490353381"><ele>334.0</ele><time>2026-05-03T10:43:11Z</time></trkpt><trkpt lat="40.21985412951339" lon="8.57050648522844"><ele>334.0</ele><time>2026-05-03T10:43:12Z</time></trkpt><trkpt lat="40.21982545331172" lon="8.570271819142139"><ele>334.0</ele><time>2026-05-03T10:43:13Z</time></trkpt><trkpt lat="40.219791365635345" lon="8.570038910953466"><ele>330.66666666666663</ele><time>2026-05-03T10:43:14Z</time></trkpt><trkpt lat="40.21974294443516" lon="8.569803099489084"><ele>327.3333333333333</ele><time>2026-05-03T10:43:15Z</time></trkpt><trkpt lat="40.219673152023695" lon="8.569567240106544"><ele>324.0</ele><time>2026-05-03T10:43:16Z</time></trkpt><trkpt lat="40.21958483200481" lon="8.569329918865412"><ele>324.0</ele><time>2026-05-03T10:43:17Z</time></trkpt><trkpt lat="40.219490288819756" lon="8.56908561869504"><ele>324.0</ele><time>2026-05-03T10:43:18Z</time></trkpt><trkpt lat="40.21939984898604" lon="8.568845324939177"><ele>324.0</ele><time>2026-05-03T10:43:19Z</time></trkpt><trkpt lat="40.21931731138227" lon="8.568620403673435"><ele>325.3333333333333</ele><time>2026-05-03T10:43:20Z</time></trkpt><trkpt lat="40.21923432685937" lon="8.568411749405612"><ele>326.66666666666663</ele><time>2026-05-03T10:43:21Z</time></trkpt><trkpt lat="40.21914742401193" lon="8.56819888994854"><ele>328.0</ele><time>2026-05-03T10:43:22Z</time></trkpt><trkpt lat="40.21902146184131" lon="8.567999391506529"><ele>325.3333333333333</ele><time>2026-05-03T10:43:23Z</time></trkpt><trkpt lat="40.21888607314036" lon="8.567810424459342"><ele>322.6666666666667</ele><time>2026-05-03T10:43:24Z</time></trkpt><trkpt lat="40.21875793854742" lon="8.567636209794415"><ele>320.0</ele><time>2026-05-03T10:43:25Z</time></trkpt><trkpt lat="40.218635498338614" lon="8.567455969475049"><ele>320.0</ele><time>2026-05-03T10:43:26Z</time></trkpt><trkpt lat="40.21851349059169" lon="8.567268097131066"><ele>320.0</ele><time>2026-05-03T10:43:27Z</time></trkpt><trkpt lat="40.21842195697123" lon="8.567049952164245"><ele>320.0</ele><time>2026-05-03T10:43:28Z</time></trkpt><trkpt lat="40.218334727310925" lon="8.566828187048097"><ele>321.33333333333337</ele><time>2026-05-03T10:43:29Z</time></trkpt><trkpt lat="40.21824100733329" lon="8.56659566403507"><ele>322.6666666666667</ele><time>2026-05-03T10:43:30Z</time></trkpt><trkpt lat="40.218149142557465" lon="8.566368040960784"><ele>324.0</ele><time>2026-05-03T10:43:31Z</time></trkpt><trkpt lat="40.21805360844856" lon="8.56613518783464"><ele>321.0</ele><time>2026-05-03T10:43:32Z</time></trkpt><trkpt lat="40.21795391770615" lon="8.565891534543626"><ele>318.0</ele><time>2026-05-03T10:43:33Z</time></trkpt><trkpt lat="40.217851180627264" lon="8.565640882836046"><ele>315.0</ele><time>2026-05-03T10:43:34Z</time></trkpt><trkpt lat="40.21776171571987" lon="8.565372435706289"><ele>315.5</ele><time>2026-05-03T10:43:35Z</time></trkpt><trkpt lat="40.21764259959612" lon="8.565118087791378"><ele>316.0</ele><time>2026-05-03T10:43:36Z</time></trkpt><trkpt lat="40.21753671723032" lon="8.564849309480351"><ele>316.0</ele><time>2026-05-03T10:43:37Z</time></trkpt><trkpt lat="40.21742995969323" lon="8.56457978460399"><ele>316.0</ele><time>2026-05-03T10:43:38Z</time></trkpt><trkpt lat="40.21732456687409" lon="8.564310584804844"><ele>312.0</ele><time>2026-05-03T10:43:39Z</time></trkpt><trkpt lat="40.2172169040055" lon="8.56404115089267"><ele>308.0</ele><time>2026-05-03T10:43:40Z</time></trkpt><trkpt lat="40.21710476491189" lon="8.563766101546099"><ele>307.0</ele><time>2026-05-03T10:43:41Z</time></trkpt><trkpt lat="40.21699657901197" lon="8.563499453433067"><ele>306.0</ele><time>2026-05-03T10:43:42Z</time></trkpt><trkpt lat="40.216902383895366" lon="8.563218818713246"><ele>306.0</ele><time>2026-05-03T10:43:43Z</time></trkpt><trkpt lat="40.21679471007838" lon="8.56294853547517"><ele>306.0</ele><time>2026-05-03T10:43:44Z</time></trkpt><trkpt lat="40.21667631984358" lon="8.562694317575124"><ele>304.0</ele><time>2026-05-03T10:43:45Z</time></trkpt><trkpt lat="40.2165829361206" lon="8.562416939617977"><ele>302.0</ele><time>2026-05-03T10:43:46Z</time></trkpt><trkpt lat="40.21647478727791" lon="8.562145463971108"><ele>298.0</ele><time>2026-05-03T10:43:47Z</time></trkpt><trkpt lat="40.21635497213204" lon="8.5618904369549"><ele>294.0</ele><time>2026-05-03T10:43:48Z</time></trkpt><trkpt lat="40.216252659143514" lon="8.56162816228506"><ele>294.0</ele><time>2026-05-03T10:43:49Z</time></trkpt><trkpt lat="40.21615020636449" lon="8.561367987356224"><ele>294.0</ele><time>2026-05-03T10:43:50Z</time></trkpt><trkpt lat="40.21605149692187" lon="8.561117744402047"><ele>294.0</ele><time>2026-05-03T10:43:51Z</time></trkpt><trkpt lat="40.21595577658484" lon="8.560876117430242"><ele>293.6666666666667</ele><time>2026-05-03T10:43:52Z</time></trkpt><trkpt lat="40.215861734028316" lon="8.56063998247575"><ele>293.33333333333337</ele><time>2026-05-03T10:43:53Z</time></trkpt><trkpt lat="40.215771124762405" lon="8.56040989871882"><ele>293.0</ele><time>2026-05-03T10:43:54Z</time></trkpt><trkpt lat="40.215683543696244" lon="8.560193804452435"><ele>290.6666666666667</ele><time>2026-05-03T10:43:54.999Z</time></trkpt><trkpt lat="40.21559739957829" lon="8.559984286380269"><ele>288.3333333333333</ele><time>2026-05-03T10:43:55.999Z</time></trkpt><trkpt lat="40.215525186657274" lon="8.559799191768686"><ele>286.0</ele><time>2026-05-03T10:43:56.999Z</time></trkpt><trkpt lat="40.215462837362374" lon="8.559624501994522"><ele>285.5</ele><time>2026-05-03T10:43:57.999Z</time></trkpt><trkpt lat="40.215421793050744" lon="8.559455008676473"><ele>285.0</ele><time>2026-05-03T10:43:58.999Z</time></trkpt><trkpt lat="40.21539788891886" lon="8.559264591542407"><ele>284.5</ele><time>2026-05-03T10:43:59.999Z</time></trkpt><trkpt lat="40.21538752490455" lon="8.559060779029652"><ele>284.0</ele><time>2026-05-03T10:44:00.999Z</time></trkpt><trkpt lat="40.2153783961868" lon="8.558848837559509"><ele>281.6666666666667</ele><time>2026-05-03T10:44:01.999Z</time></trkpt><trkpt lat="40.21536874619743" lon="8.558641322554482"><ele>279.3333333333333</ele><time>2026-05-03T10:44:02.999Z</time></trkpt><trkpt lat="40.215353419870354" lon="8.558443730293476"><ele>277.0</ele><time>2026-05-03T10:44:03.999Z</time></trkpt><trkpt lat="40.215322131181175" lon="8.558253892364222"><ele>277.0</ele><time>2026-05-03T10:44:04.999Z</time></trkpt><trkpt lat="40.21526868011947" lon="8.558076104637806"><ele>277.0</ele><time>2026-05-03T10:44:05.999Z</time></trkpt><trkpt lat="40.21520013897421" lon="8.557915276857873"><ele>277.0</ele><time>2026-05-03T10:44:06.999Z</time></trkpt><trkpt lat="40.21513292773961" lon="8.557781191850975"><ele>277.0</ele><time>2026-05-03T10:44:07.999Z</time></trkpt><trkpt lat="40.21507799535428" lon="8.557671881536669"><ele>276.85714285714283</ele><time>2026-05-03T10:44:08.999Z</time></trkpt><trkpt lat="40.21504227809038" lon="8.557596278611934"><ele>276.71428571428567</ele><time>2026-05-03T10:44:09.999Z</time></trkpt><trkpt lat="40.21501830903842" lon="8.55751812034123"><ele>276.57142857142856</ele><time>2026-05-03T10:44:11.999Z</time></trkpt><trkpt lat="40.21498663684618" lon="8.55744281214369"><ele>276.42857142857144</ele><time>2026-05-03T10:44:13.999Z</time></trkpt><trkpt lat="40.21492789894474" lon="8.557354341622467"><ele>276.28571428571433</ele><time>2026-05-03T10:44:15.999Z</time></trkpt><trkpt lat="40.21490234454564" lon="8.557273988927296"><ele>276.14285714285717</ele><time>2026-05-03T10:44:16.999Z</time></trkpt><trkpt lat="40.21485570609608" lon="8.557207285574895"><ele>276.0</ele><time>2026-05-03T10:44:17.999Z</time></trkpt><trkpt lat="40.21481959487298" lon="8.557124938934521"><ele>274.8333333333333</ele><time>2026-05-03T10:44:18.999Z</time></trkpt><trkpt lat="40.21477521262202" lon="8.557048775570289"><ele>273.6666666666667</ele><time>2026-05-03T10:44:19.999Z</time></trkpt><trkpt lat="40.214727452709255" lon="8.556976111790512"><ele>272.5</ele><time>2026-05-03T10:44:21Z</time></trkpt><trkpt lat="40.2146876297636" lon="8.556890625446798"><ele>271.33333333333337</ele><time>2026-05-03T10:44:22Z</time></trkpt><trkpt lat="40.21462318558235" lon="8.556824966489739"><ele>270.1666666666667</ele><time>2026-05-03T10:44:23Z</time></trkpt><trkpt lat="40.21454764262276" lon="8.556761233511542"><ele>269.0</ele><time>2026-05-03T10:44:24Z</time></trkpt><trkpt lat="40.21445808790847" lon="8.55668957065105"><ele>269.0</ele><time>2026-05-03T10:44:25Z</time></trkpt><trkpt lat="40.21436530884607" lon="8.556624006936769"><ele>269.0</ele><time>2026-05-03T10:44:26Z</time></trkpt><trkpt lat="40.21426202506476" lon="8.556574833941788"><ele>269.0</ele><time>2026-05-03T10:44:27Z</time></trkpt><trkpt lat="40.21416929427838" lon="8.556486559361028"><ele>269.0</ele><time>2026-05-03T10:44:28Z</time></trkpt><trkpt lat="40.21406260474732" lon="8.556411747518284"><ele>269.0</ele><time>2026-05-03T10:44:29Z</time></trkpt><trkpt lat="40.213958586915055" lon="8.556339558515328"><ele>269.0</ele><time>2026-05-03T10:44:30Z</time></trkpt><trkpt lat="40.2138524751445" lon="8.556266969975898"><ele>269.0</ele><time>2026-05-03T10:44:31Z</time></trkpt><trkpt lat="40.21374898564994" lon="8.556196175246304"><ele>269.0</ele><time>2026-05-03T10:44:32Z</time></trkpt><trkpt lat="40.21364539189685" lon="8.556126207506972"><ele>269.0</ele><time>2026-05-03T10:44:33Z</time></trkpt><trkpt lat="40.21354579819927" lon="8.556059164646376"><ele>269.0</ele><time>2026-05-03T10:44:34Z</time></trkpt><trkpt lat="40.21344076537949" lon="8.555987588453442"><ele>269.0</ele><time>2026-05-03T10:44:35Z</time></trkpt><trkpt lat="40.21334086802804" lon="8.55591761698801"><ele>269.0</ele><time>2026-05-03T10:44:36Z</time></trkpt><trkpt lat="40.213247958876096" lon="8.555852540291268"><ele>269.0</ele><time>2026-05-03T10:44:37Z</time></trkpt><trkpt lat="40.21316518022135" lon="8.555804666616055"><ele>269.0</ele><time>2026-05-03T10:44:38Z</time></trkpt><trkpt lat="40.213107690424586" lon="8.555738271857734"><ele>269.0</ele><time>2026-05-03T10:44:39Z</time></trkpt><trkpt lat="40.21306875532008" lon="8.55565916442043"><ele>269.0</ele><time>2026-05-03T10:44:40Z</time></trkpt><trkpt lat="40.21304313184554" lon="8.555583078701334"><ele>269.0</ele><time>2026-05-03T10:44:41Z</time></trkpt><trkpt lat="40.21304792223808" lon="8.555500522633352"><ele>269.0</ele><time>2026-05-03T10:44:42Z</time></trkpt><trkpt lat="40.213098640189266" lon="8.555336640319393"><ele>269.0</ele><time>2026-05-03T10:44:44Z</time></trkpt><trkpt lat="40.21315426428699" lon="8.555242710620927"><ele>269.5</ele><time>2026-05-03T10:44:45Z</time></trkpt><trkpt lat="40.21322447347635" lon="8.555132870908944"><ele>270.0</ele><time>2026-05-03T10:44:46Z</time></trkpt><trkpt lat="40.213289998668884" lon="8.555022317478434"><ele>270.5</ele><time>2026-05-03T10:44:47Z</time></trkpt><trkpt lat="40.21336639065888" lon="8.554899856581622"><ele>271.0</ele><time>2026-05-03T10:44:48Z</time></trkpt><trkpt lat="40.21345004383515" lon="8.55476657403499"><ele>271.0</ele><time>2026-05-03T10:44:49Z</time></trkpt><trkpt lat="40.213541930993905" lon="8.554619551748802"><ele>271.0</ele><time>2026-05-03T10:44:50Z</time></trkpt><trkpt lat="40.213628705991944" lon="8.554470063748862"><ele>271.0</ele><time>2026-05-03T10:44:51Z</time></trkpt><trkpt lat="40.213712824127214" lon="8.55432136260885"><ele>271.0</ele><time>2026-05-03T10:44:52Z</time></trkpt><trkpt lat="40.21380429110384" lon="8.554159110549474"><ele>271.0</ele><time>2026-05-03T10:44:53Z</time></trkpt><trkpt lat="40.213902976198526" lon="8.55399780002834"><ele>271.0</ele><time>2026-05-03T10:44:54Z</time></trkpt><trkpt lat="40.21400110277746" lon="8.553831008040163"><ele>271.0</ele><time>2026-05-03T10:44:55Z</time></trkpt><trkpt lat="40.214099260095324" lon="8.55365941200579"><ele>271.3333333333333</ele><time>2026-05-03T10:44:56Z</time></trkpt><trkpt lat="40.2142028985251" lon="8.553479149651796"><ele>271.6666666666667</ele><time>2026-05-03T10:44:57Z</time></trkpt><trkpt lat="40.21431460811671" lon="8.553295652128549"><ele>272.0</ele><time>2026-05-03T10:44:58Z</time></trkpt><trkpt lat="40.21442707364432" lon="8.553112654919191"><ele>272.0</ele><time>2026-05-03T10:44:59Z</time></trkpt><trkpt lat="40.2145423866239" lon="8.552930013538665"><ele>272.0</ele><time>2026-05-03T10:45:00Z</time></trkpt><trkpt lat="40.21466816798978" lon="8.552749761880888"><ele>272.0</ele><time>2026-05-03T10:45:01Z</time></trkpt><trkpt lat="40.21480542091604" lon="8.55257166949053"><ele>273.6666666666667</ele><time>2026-05-03T10:45:02Z</time></trkpt><trkpt lat="40.214951787444704" lon="8.552401413958941"><ele>275.3333333333333</ele><time>2026-05-03T10:45:03Z</time></trkpt><trkpt lat="40.21509332739959" lon="8.55224923628365"><ele>277.0</ele><time>2026-05-03T10:45:04Z</time></trkpt><trkpt lat="40.2152251000225" lon="8.552121787069916"><ele>277.3333333333333</ele><time>2026-05-03T10:45:05Z</time></trkpt><trkpt lat="40.21535026641987" lon="8.552020432894043"><ele>277.6666666666667</ele><time>2026-05-03T10:45:06Z</time></trkpt><trkpt lat="40.21548389701604" lon="8.551929797466816"><ele>278.0</ele><time>2026-05-03T10:45:07Z</time></trkpt><trkpt lat="40.21562706798349" lon="8.551850386961387"><ele>278.0</ele><time>2026-05-03T10:45:08Z</time></trkpt><trkpt lat="40.21578044802349" lon="8.551778238348737"><ele>278.0</ele><time>2026-05-03T10:45:09Z</time></trkpt><trkpt lat="40.215948269976245" lon="8.551709538894821"><ele>278.0</ele><time>2026-05-03T10:45:10Z</time></trkpt><trkpt lat="40.21612264839354" lon="8.551652018204198"><ele>278.0</ele><time>2026-05-03T10:45:11Z</time></trkpt><trkpt lat="40.21630811348499" lon="8.551608476356547"><ele>278.0</ele><time>2026-05-03T10:45:12Z</time></trkpt><trkpt lat="40.21650686305838" lon="8.551574552483428"><ele>278.0</ele><time>2026-05-03T10:45:13Z</time></trkpt><trkpt lat="40.21671651835009" lon="8.551546362197852"><ele>277.6666666666667</ele><time>2026-05-03T10:45:14Z</time></trkpt><trkpt lat="40.216935063738674" lon="8.551519984797336"><ele>277.3333333333333</ele><time>2026-05-03T10:45:15Z</time></trkpt><trkpt lat="40.217155744868926" lon="8.551492852716654"><ele>277.0</ele><time>2026-05-03T10:45:16Z</time></trkpt><trkpt lat="40.21737704392472" lon="8.551465836554371"><ele>277.0</ele><time>2026-05-03T10:45:17Z</time></trkpt><trkpt lat="40.217600517190334" lon="8.551439888758052"><ele>277.0</ele><time>2026-05-03T10:45:18Z</time></trkpt><trkpt lat="40.21782392546913" lon="8.551414836101355"><ele>277.0</ele><time>2026-05-03T10:45:19Z</time></trkpt><trkpt lat="40.218048809513405" lon="8.551390834647785"><ele>277.0</ele><time>2026-05-03T10:45:20Z</time></trkpt><trkpt lat="40.21826924733016" lon="8.55136579902351"><ele>277.0</ele><time>2026-05-03T10:45:21Z</time></trkpt><trkpt lat="40.21848851341577" lon="8.551339768704644"><ele>277.0</ele><time>2026-05-03T10:45:22Z</time></trkpt><trkpt lat="40.21870547305882" lon="8.551315891602004"><ele>277.0</ele><time>2026-05-03T10:45:23Z</time></trkpt><trkpt lat="40.21891183376353" lon="8.551291330112976"><ele>277.0</ele><time>2026-05-03T10:45:24Z</time></trkpt><trkpt lat="40.21911121513635" lon="8.551267348046016"><ele>277.0</ele><time>2026-05-03T10:45:25Z</time></trkpt><trkpt lat="40.21930203488052" lon="8.551239048484458"><ele>277.0</ele><time>2026-05-03T10:45:26Z</time></trkpt><trkpt lat="40.21949487695528" lon="8.551198464086914"><ele>277.0</ele><time>2026-05-03T10:45:27.001Z</time></trkpt><trkpt lat="40.21967935165959" lon="8.551134115657849"><ele>277.0</ele><time>2026-05-03T10:45:28.001Z</time></trkpt><trkpt lat="40.21985670588874" lon="8.551041223963644"><ele>277.3333333333333</ele><time>2026-05-03T10:45:29.001Z</time></trkpt><trkpt lat="40.22001588425443" lon="8.550921053898358"><ele>277.6666666666667</ele><time>2026-05-03T10:45:30.001Z</time></trkpt><trkpt lat="40.22015694087926" lon="8.55077280192322"><ele>278.0</ele><time>2026-05-03T10:45:31.001Z</time></trkpt><trkpt lat="40.22028907907392" lon="8.550591198438292"><ele>278.0</ele><time>2026-05-03T10:45:32.001Z</time></trkpt><trkpt lat="40.22040548233448" lon="8.550383405455392"><ele>278.0</ele><time>2026-05-03T10:45:33.001Z</time></trkpt><trkpt lat="40.22050886469638" lon="8.550147588527958"><ele>278.0</ele><time>2026-05-03T10:45:34.001Z</time></trkpt><trkpt lat="40.22060389439208" lon="8.549899327417787"><ele>278.0</ele><time>2026-05-03T10:45:35.001Z</time></trkpt><trkpt lat="40.2206972798846" lon="8.549643543188788"><ele>278.0</ele><time>2026-05-03T10:45:36.001Z</time></trkpt><trkpt lat="40.22078945743671" lon="8.549380424295702"><ele>278.0</ele><time>2026-05-03T10:45:37.001Z</time></trkpt><trkpt lat="40.22088261488725" lon="8.549110830085882"><ele>278.0</ele><time>2026-05-03T10:45:38.001Z</time></trkpt><trkpt lat="40.22097389911767" lon="8.548841459015197"><ele>278.0</ele><time>2026-05-03T10:45:39.001Z</time></trkpt><trkpt lat="40.22106514252761" lon="8.548574899716714"><ele>278.0</ele><time>2026-05-03T10:45:40.001Z</time></trkpt><trkpt lat="40.22115845233406" lon="8.548311280350278"><ele>276.5</ele><time>2026-05-03T10:45:41.001Z</time></trkpt><trkpt lat="40.22125295269885" lon="8.548045442375422"><ele>275.0</ele><time>2026-05-03T10:45:42.001Z</time></trkpt><trkpt lat="40.22134760000093" lon="8.547769917125551"><ele>276.0</ele><time>2026-05-03T10:45:43.001Z</time></trkpt><trkpt lat="40.22144647287405" lon="8.547478957649336"><ele>277.0</ele><time>2026-05-03T10:45:44.001Z</time></trkpt><trkpt lat="40.221544167254194" lon="8.54719075715737"><ele>276.0</ele><time>2026-05-03T10:45:45.001Z</time></trkpt><trkpt lat="40.22164111495626" lon="8.54691243032886"><ele>275.0</ele><time>2026-05-03T10:45:46.001Z</time></trkpt><trkpt lat="40.2217361561245" lon="8.546635264061427"><ele>275.0</ele><time>2026-05-03T10:45:47.001Z</time></trkpt><trkpt lat="40.22183312464679" lon="8.546353098473674"><ele>275.0</ele><time>2026-05-03T10:45:48.001Z</time></trkpt><trkpt lat="40.2219251227192" lon="8.546081777700893"><ele>274.33333333333337</ele><time>2026-05-03T10:45:49.001Z</time></trkpt><trkpt lat="40.222016083779934" lon="8.545821027595732"><ele>273.6666666666667</ele><time>2026-05-03T10:45:50.001Z</time></trkpt><trkpt lat="40.22210953961636" lon="8.545565074866822"><ele>273.0</ele><time>2026-05-03T10:45:51.001Z</time></trkpt><trkpt lat="40.22221026822664" lon="8.545309135959815"><ele>274.0</ele><time>2026-05-03T10:45:52.001Z</time></trkpt><trkpt lat="40.222317085441" lon="8.545060572093316"><ele>275.0</ele><time>2026-05-03T10:45:53.001Z</time></trkpt><trkpt lat="40.22243575208146" lon="8.544821943837636"><ele>276.0</ele><time>2026-05-03T10:45:54.001Z</time></trkpt><trkpt lat="40.22257317250469" lon="8.544590252682411"><ele>275.0</ele><time>2026-05-03T10:45:55.001Z</time></trkpt><trkpt lat="40.22272484037793" lon="8.544370617480885"><ele>274.0</ele><time>2026-05-03T10:45:56.001Z</time></trkpt><trkpt lat="40.222891229910594" lon="8.54416043096885"><ele>274.0</ele><time>2026-05-03T10:45:57.001Z</time></trkpt><trkpt lat="40.223077572688375" lon="8.543950853409571"><ele>274.0</ele><time>2026-05-03T10:45:58.001Z</time></trkpt><trkpt lat="40.223278464533315" lon="8.543735151725818"><ele>275.5</ele><time>2026-05-03T10:45:59.001Z</time></trkpt><trkpt lat="40.223485364873476" lon="8.543517272772963"><ele>277.0</ele><time>2026-05-03T10:46:00.001Z</time></trkpt><trkpt lat="40.223689800772426" lon="8.54329815065607"><ele>277.0</ele><time>2026-05-03T10:46:00.999Z</time></trkpt><trkpt lat="40.22389318941853" lon="8.543078984289998"><ele>277.0</ele><time>2026-05-03T10:46:01.999Z</time></trkpt><trkpt lat="40.22409368361147" lon="8.542864543224209"><ele>276.5</ele><time>2026-05-03T10:46:02.999Z</time></trkpt><trkpt lat="40.22429242654684" lon="8.542654291433077"><ele>276.0</ele><time>2026-05-03T10:46:03.999Z</time></trkpt><trkpt lat="40.22449188833657" lon="8.542444035520225"><ele>276.0</ele><time>2026-05-03T10:46:04.999Z</time></trkpt><trkpt lat="40.224691889218924" lon="8.542233616480985"><ele>276.0</ele><time>2026-05-03T10:46:05.999Z</time></trkpt><trkpt lat="40.2248954381602" lon="8.542019715322947"><ele>275.5</ele><time>2026-05-03T10:46:06.999Z</time></trkpt><trkpt lat="40.22509735175713" lon="8.541802193386545"><ele>275.0</ele><time>2026-05-03T10:46:07.999Z</time></trkpt><trkpt lat="40.22530272639831" lon="8.541583948280298"><ele>275.0</ele><time>2026-05-03T10:46:08.999Z</time></trkpt><trkpt lat="40.22550822492599" lon="8.541365590833237"><ele>275.0</ele><time>2026-05-03T10:46:09.999Z</time></trkpt><trkpt lat="40.225713536910554" lon="8.541146082007597"><ele>274.5</ele><time>2026-05-03T10:46:10.999Z</time></trkpt><trkpt lat="40.22592086242363" lon="8.540926698959803"><ele>274.0</ele><time>2026-05-03T10:46:11.999Z</time></trkpt><trkpt lat="40.22612774017953" lon="8.540706919752846"><ele>274.0</ele><time>2026-05-03T10:46:12.999Z</time></trkpt><trkpt lat="40.22633433782233" lon="8.540489371768047"><ele>274.0</ele><time>2026-05-03T10:46:13.999Z</time></trkpt><trkpt lat="40.22653628970349" lon="8.54027569330492"><ele>273.5</ele><time>2026-05-03T10:46:14.999Z</time></trkpt><trkpt lat="40.22673272354565" lon="8.540068398481479"><ele>273.0</ele><time>2026-05-03T10:46:15.999Z</time></trkpt><trkpt lat="40.22692445528225" lon="8.539865067512151"><ele>273.0</ele><time>2026-05-03T10:46:17Z</time></trkpt><trkpt lat="40.22711663049305" lon="8.539661942670461"><ele>273.0</ele><time>2026-05-03T10:46:18Z</time></trkpt><trkpt lat="40.22730708912716" lon="8.539458481579224"><ele>274.0</ele><time>2026-05-03T10:46:19Z</time></trkpt><trkpt lat="40.22749716154631" lon="8.539252446556224"><ele>275.0</ele><time>2026-05-03T10:46:20Z</time></trkpt><trkpt lat="40.227687938595054" lon="8.53904706954687"><ele>275.0</ele><time>2026-05-03T10:46:21Z</time></trkpt><trkpt lat="40.227878975645275" lon="8.538844974938913"><ele>275.0</ele><time>2026-05-03T10:46:22Z</time></trkpt><trkpt lat="40.228071408583766" lon="8.538643332001932"><ele>275.0</ele><time>2026-05-03T10:46:23Z</time></trkpt><trkpt lat="40.22826326812477" lon="8.53844229267139"><ele>275.0</ele><time>2026-05-03T10:46:24Z</time></trkpt><trkpt lat="40.22845415872372" lon="8.538237866442298"><ele>275.0</ele><time>2026-05-03T10:46:25Z</time></trkpt><trkpt lat="40.22864141919701" lon="8.538034038469734"><ele>275.0</ele><time>2026-05-03T10:46:26Z</time></trkpt><trkpt lat="40.228829236886426" lon="8.537832278452719"><ele>275.0</ele><time>2026-05-03T10:46:27Z</time></trkpt><trkpt lat="40.229019698151106" lon="8.537628161473199"><ele>275.0</ele><time>2026-05-03T10:46:28Z</time></trkpt><trkpt lat="40.229207422178824" lon="8.537427214854404"><ele>275.0</ele><time>2026-05-03T10:46:29Z</time></trkpt><trkpt lat="40.2293909090258" lon="8.537232067908327"><ele>275.0</ele><time>2026-05-03T10:46:30Z</time></trkpt><trkpt lat="40.2295709197294" lon="8.537038660615323"><ele>273.0</ele><time>2026-05-03T10:46:31Z</time></trkpt><trkpt lat="40.2297521869841" lon="8.536844924087015"><ele>271.0</ele><time>2026-05-03T10:46:32Z</time></trkpt><trkpt lat="40.22993359919802" lon="8.536652114206742"><ele>271.0</ele><time>2026-05-03T10:46:33Z</time></trkpt><trkpt lat="40.230112628179384" lon="8.536462813135312"><ele>271.0</ele><time>2026-05-03T10:46:34Z</time></trkpt><trkpt lat="40.23028312077025" lon="8.536279745232605"><ele>270.0</ele><time>2026-05-03T10:46:35Z</time></trkpt><trkpt lat="40.23044495404311" lon="8.53610766673823"><ele>269.0</ele><time>2026-05-03T10:46:36Z</time></trkpt><trkpt lat="40.230590503539965" lon="8.535951348327147"><ele>268.0</ele><time>2026-05-03T10:46:37Z</time></trkpt><trkpt lat="40.23072356336074" lon="8.535809331715736"><ele>268.0</ele><time>2026-05-03T10:46:38Z</time></trkpt><trkpt lat="40.23084994464499" lon="8.53568515243213"><ele>268.0</ele><time>2026-05-03T10:46:39Z</time></trkpt><trkpt lat="40.230985001568" lon="8.53558472455645"><ele>268.0</ele><time>2026-05-03T10:46:40Z</time></trkpt><trkpt lat="40.23112929460935" lon="8.535518386209965"><ele>268.0</ele><time>2026-05-03T10:46:41Z</time></trkpt><trkpt lat="40.23128083363245" lon="8.535487938020294"><ele>268.0</ele><time>2026-05-03T10:46:42Z</time></trkpt><trkpt lat="40.23143422549728" lon="8.535494274620014"><ele>268.0</ele><time>2026-05-03T10:46:43Z</time></trkpt><trkpt lat="40.2315877868629" lon="8.53553765875615"><ele>265.66666666666663</ele><time>2026-05-03T10:46:44Z</time></trkpt><trkpt lat="40.23174393009781" lon="8.535617512869612"><ele>263.3333333333333</ele><time>2026-05-03T10:46:45Z</time></trkpt><trkpt lat="40.231903542905265" lon="8.535718187803772"><ele>261.0</ele><time>2026-05-03T10:46:46Z</time></trkpt><trkpt lat="40.232047451609105" lon="8.535819585491954"><ele>261.0</ele><time>2026-05-03T10:46:47Z</time></trkpt><trkpt lat="40.23217214483962" lon="8.535918721800424"><ele>261.0</ele><time>2026-05-03T10:46:48Z</time></trkpt><trkpt lat="40.232273828917315" lon="8.536036009648738"><ele>261.0</ele><time>2026-05-03T10:46:49Z</time></trkpt><trkpt lat="40.232343856680494" lon="8.536181689021792"><ele>261.0</ele><time>2026-05-03T10:46:50Z</time></trkpt><trkpt lat="40.23238638366376" lon="8.536348944141926"><ele>255.66666666666669</ele><time>2026-05-03T10:46:51Z</time></trkpt><trkpt lat="40.232414015396515" lon="8.536539225174263"><ele>250.33333333333334</ele><time>2026-05-03T10:46:52Z</time></trkpt><trkpt lat="40.23243582782291" lon="8.53675222036886"><ele>245.0</ele><time>2026-05-03T10:46:53Z</time></trkpt><trkpt lat="40.232459670588455" lon="8.536983926278179"><ele>245.0</ele><time>2026-05-03T10:46:54Z</time></trkpt><trkpt lat="40.23248797846707" lon="8.537208282696582"><ele>245.0</ele><time>2026-05-03T10:46:55Z</time></trkpt><trkpt lat="40.232516637715726" lon="8.537424287573158"><ele>245.0</ele><time>2026-05-03T10:46:56Z</time></trkpt><trkpt lat="40.23254280899532" lon="8.537635135194522"><ele>245.0</ele><time>2026-05-03T10:46:57Z</time></trkpt><trkpt lat="40.232558296898254" lon="8.537836596047526"><ele>245.0</ele><time>2026-05-03T10:46:58Z</time></trkpt><trkpt lat="40.23255603817505" lon="8.538033714811668"><ele>245.0</ele><time>2026-05-03T10:46:59Z</time></trkpt><trkpt lat="40.23253221392371" lon="8.538220455861323"><ele>243.25</ele><time>2026-05-03T10:47:00Z</time></trkpt><trkpt lat="40.23248855998174" lon="8.538400536218996"><ele>241.5</ele><time>2026-05-03T10:47:01Z</time></trkpt><trkpt lat="40.23244212130978" lon="8.538571296675116"><ele>239.75</ele><time>2026-05-03T10:47:02Z</time></trkpt><trkpt lat="40.23239960077972" lon="8.53873028687799"><ele>238.0</ele><time>2026-05-03T10:47:03Z</time></trkpt><trkpt lat="40.23236405481878" lon="8.538870362339722"><ele>237.16666666666666</ele><time>2026-05-03T10:47:04Z</time></trkpt><trkpt lat="40.23232984951504" lon="8.538993294329877"><ele>236.33333333333331</ele><time>2026-05-03T10:47:05Z</time></trkpt><trkpt lat="40.23229902482029" lon="8.539099747753044"><ele>235.5</ele><time>2026-05-03T10:47:06Z</time></trkpt><trkpt lat="40.23227908678862" lon="8.539205100211438"><ele>234.66666666666669</ele><time>2026-05-03T10:47:07Z</time></trkpt><trkpt lat="40.23228504708951" lon="8.539292824758432"><ele>233.83333333333334</ele><time>2026-05-03T10:47:08.001Z</time></trkpt><trkpt lat="40.23232313020382" lon="8.539378956973565"><ele>233.0</ele><time>2026-05-03T10:47:09.001Z</time></trkpt><trkpt lat="40.23238975805112" lon="8.539454805791578"><ele>233.0</ele><time>2026-05-03T10:47:10.001Z</time></trkpt><trkpt lat="40.23248328829553" lon="8.53952424130861"><ele>233.0</ele><time>2026-05-03T10:47:11.001Z</time></trkpt><trkpt lat="40.232570751608954" lon="8.539577121688012"><ele>233.0</ele><time>2026-05-03T10:47:12.001Z</time></trkpt><trkpt lat="40.23266730330265" lon="8.539632339121724"><ele>233.0</ele><time>2026-05-03T10:47:13.001Z</time></trkpt><trkpt lat="40.232756223711874" lon="8.53969541029554"><ele>233.0</ele><time>2026-05-03T10:47:14.001Z</time></trkpt><trkpt lat="40.23286357366312" lon="8.539652899858737"><ele>233.0</ele><time>2026-05-03T10:47:15.001Z</time></trkpt><trkpt lat="40.232954953117385" lon="8.539561062500553"><ele>233.0</ele><time>2026-05-03T10:47:16.001Z</time></trkpt><trkpt lat="40.23303749900027" lon="8.539414020540711"><ele>233.0</ele><time>2026-05-03T10:47:17.001Z</time></trkpt><trkpt lat="40.23313475077623" lon="8.539266370522215"><ele>233.0</ele><time>2026-05-03T10:47:18.001Z</time></trkpt><trkpt lat="40.233240528663394" lon="8.53912066131252"><ele>232.33333333333334</ele><time>2026-05-03T10:47:19.001Z</time></trkpt><trkpt lat="40.23334388124249" lon="8.538965555268955"><ele>231.66666666666669</ele><time>2026-05-03T10:47:20.001Z</time></trkpt><trkpt lat="40.23344747596348" lon="8.538807370049682"><ele>231.0</ele><time>2026-05-03T10:47:21.001Z</time></trkpt><trkpt lat="40.233548120186335" lon="8.53864691753947"><ele>231.0</ele><time>2026-05-03T10:47:22.001Z</time></trkpt><trkpt lat="40.23367423399482" lon="8.53848937508385"><ele>231.0</ele><time>2026-05-03T10:47:23.001Z</time></trkpt><trkpt lat="40.23379170592515" lon="8.538303264976422"><ele>231.0</ele><time>2026-05-03T10:47:24.001Z</time></trkpt><trkpt lat="40.233913051140355" lon="8.53809048589063"><ele>236.0</ele><time>2026-05-03T10:47:25.001Z</time></trkpt><trkpt lat="40.23401524602943" lon="8.537890496867742"><ele>241.0</ele><time>2026-05-03T10:47:26.001Z</time></trkpt><trkpt lat="40.234112412981254" lon="8.537694382328425"><ele>246.0</ele><time>2026-05-03T10:47:27.001Z</time></trkpt><trkpt lat="40.234211127456945" lon="8.537493737504377"><ele>246.0</ele><time>2026-05-03T10:47:28.001Z</time></trkpt><trkpt lat="40.23430106812658" lon="8.537265892150737"><ele>246.0</ele><time>2026-05-03T10:47:29.001Z</time></trkpt><trkpt lat="40.234371721914" lon="8.537034547148476"><ele>246.0</ele><time>2026-05-03T10:47:30.001Z</time></trkpt><trkpt lat="40.2344295497424" lon="8.536833715200773"><ele>244.75</ele><time>2026-05-03T10:47:31.001Z</time></trkpt><trkpt lat="40.234481006980936" lon="8.536654173297908"><ele>243.5</ele><time>2026-05-03T10:47:32.001Z</time></trkpt><trkpt lat="40.234526344633395" lon="8.536481855948768"><ele>242.25</ele><time>2026-05-03T10:47:33.001Z</time></trkpt><trkpt lat="40.23455216583209" lon="8.536317830900016"><ele>241.0</ele><time>2026-05-03T10:47:34.001Z</time></trkpt><trkpt lat="40.23462106088933" lon="8.536167888268452"><ele>239.25</ele><time>2026-05-03T10:47:35.001Z</time></trkpt><trkpt lat="40.2346814622351" lon="8.535995368635101"><ele>237.5</ele><time>2026-05-03T10:47:36.001Z</time></trkpt><trkpt lat="40.23475267381597" lon="8.535848841975769"><ele>235.75</ele><time>2026-05-03T10:47:37.001Z</time></trkpt><trkpt lat="40.23482195143332" lon="8.535705426859407"><ele>234.0</ele><time>2026-05-03T10:47:38.001Z</time></trkpt><trkpt lat="40.2349068651313" lon="8.535565814731497"><ele>236.0</ele><time>2026-05-03T10:47:39.001Z</time></trkpt><trkpt lat="40.23498229213443" lon="8.535422424904631"><ele>238.0</ele><time>2026-05-03T10:47:40.001Z</time></trkpt><trkpt lat="40.235060140251896" lon="8.53528406067464"><ele>240.0</ele><time>2026-05-03T10:47:41.001Z</time></trkpt><trkpt lat="40.23516246980649" lon="8.53512838633563"><ele>242.0</ele><time>2026-05-03T10:47:42.001Z</time></trkpt><trkpt lat="40.23527670407483" lon="8.53499155119751"><ele>242.0</ele><time>2026-05-03T10:47:43.001Z</time></trkpt><trkpt lat="40.23540192705205" lon="8.534879794905418"><ele>242.0</ele><time>2026-05-03T10:47:44.001Z</time></trkpt><trkpt lat="40.2355395164607" lon="8.534768167465812"><ele>242.0</ele><time>2026-05-03T10:47:45.001Z</time></trkpt><trkpt lat="40.235709967218405" lon="8.534611493131132"><ele>243.75</ele><time>2026-05-03T10:47:47.001Z</time></trkpt><trkpt lat="40.23583448213944" lon="8.534513730904202"><ele>245.5</ele><time>2026-05-03T10:47:48.001Z</time></trkpt><trkpt lat="40.235954881106984" lon="8.534393368669031"><ele>247.25</ele><time>2026-05-03T10:47:49.001Z</time></trkpt><trkpt lat="40.23605060824196" lon="8.53424448140205"><ele>249.0</ele><time>2026-05-03T10:47:50.001Z</time></trkpt><trkpt lat="40.23614028445074" lon="8.534085746076727"><ele>249.0</ele><time>2026-05-03T10:47:51.001Z</time></trkpt><trkpt lat="40.23622807945076" lon="8.533922869298932"><ele>249.0</ele><time>2026-05-03T10:47:52.001Z</time></trkpt><trkpt lat="40.23631046395931" lon="8.533752318737161"><ele>249.0</ele><time>2026-05-03T10:47:53.001Z</time></trkpt><trkpt lat="40.23639753983028" lon="8.53358484189209"><ele>249.33333333333331</ele><time>2026-05-03T10:47:54.001Z</time></trkpt><trkpt lat="40.23648293596288" lon="8.533418864886317"><ele>249.66666666666666</ele><time>2026-05-03T10:47:55.001Z</time></trkpt><trkpt lat="40.236568509149855" lon="8.53324471806129"><ele>250.0</ele><time>2026-05-03T10:47:56.001Z</time></trkpt><trkpt lat="40.236679448705914" lon="8.533058256789312"><ele>250.33333333333331</ele><time>2026-05-03T10:47:57.001Z</time></trkpt><trkpt lat="40.23679953620052" lon="8.532848475693815"><ele>250.66666666666669</ele><time>2026-05-03T10:47:58.001Z</time></trkpt><trkpt lat="40.23694542604619" lon="8.532603539252209"><ele>251.0</ele><time>2026-05-03T10:47:59.001Z</time></trkpt><trkpt lat="40.237096524585674" lon="8.532353212417854"><ele>251.0</ele><time>2026-05-03T10:48:00.001Z</time></trkpt><trkpt lat="40.23726022721996" lon="8.532089809759489"><ele>251.0</ele><time>2026-05-03T10:48:01.001Z</time></trkpt><trkpt lat="40.2374313877233" lon="8.53181639963351"><ele>247.0</ele><time>2026-05-03T10:48:02.001Z</time></trkpt><trkpt lat="40.23759926193469" lon="8.531534685974009"><ele>243.0</ele><time>2026-05-03T10:48:03.001Z</time></trkpt><trkpt lat="40.23777939041926" lon="8.531260362093615"><ele>245.5</ele><time>2026-05-03T10:48:04.001Z</time></trkpt><trkpt lat="40.237958537959386" lon="8.53098309234402"><ele>248.0</ele><time>2026-05-03T10:48:05.001Z</time></trkpt><trkpt lat="40.238130674772286" lon="8.530697520045026"><ele>243.5</ele><time>2026-05-03T10:48:06.001Z</time></trkpt><trkpt lat="40.2383024688593" lon="8.530422169636134"><ele>239.0</ele><time>2026-05-03T10:48:07Z</time></trkpt><trkpt lat="40.23847462472638" lon="8.530152006296506"><ele>239.0</ele><time>2026-05-03T10:48:08Z</time></trkpt><trkpt lat="40.23864163108269" lon="8.529886729115422"><ele>239.0</ele><time>2026-05-03T10:48:09Z</time></trkpt><trkpt lat="40.23880610484691" lon="8.529625733659696"><ele>239.0</ele><time>2026-05-03T10:48:10Z</time></trkpt><trkpt lat="40.23896404118134" lon="8.5293725652467"><ele>239.0</ele><time>2026-05-03T10:48:11Z</time></trkpt><trkpt lat="40.2391113335752" lon="8.529138432098556"><ele>237.33333333333334</ele><time>2026-05-03T10:48:12Z</time></trkpt><trkpt lat="40.23925295426093" lon="8.528918533980418"><ele>235.66666666666669</ele><time>2026-05-03T10:48:13Z</time></trkpt><trkpt lat="40.23938362458327" lon="8.528718793030219"><ele>234.0</ele><time>2026-05-03T10:48:14Z</time></trkpt><trkpt lat="40.23951700069685" lon="8.528525152364987"><ele>234.0</ele><time>2026-05-03T10:48:15Z</time></trkpt><trkpt lat="40.23966337065901" lon="8.528363016631467"><ele>234.0</ele><time>2026-05-03T10:48:16Z</time></trkpt><trkpt lat="40.23983129674058" lon="8.528224941616974"><ele>234.0</ele><time>2026-05-03T10:48:17Z</time></trkpt><trkpt lat="40.24001655304868" lon="8.528123567402632"><ele>234.33333333333331</ele><time>2026-05-03T10:48:18Z</time></trkpt><trkpt lat="40.24020833000931" lon="8.528058670496204"><ele>234.66666666666666</ele><time>2026-05-03T10:48:19Z</time></trkpt><trkpt lat="40.24040444422464" lon="8.527979787692322"><ele>235.0</ele><time>2026-05-03T10:48:20Z</time></trkpt><trkpt lat="40.24059179995707" lon="8.527901182983372"><ele>236.66666666666666</ele><time>2026-05-03T10:48:21Z</time></trkpt><trkpt lat="40.240753234035296" lon="8.527765805233912"><ele>238.33333333333331</ele><time>2026-05-03T10:48:22Z</time></trkpt><trkpt lat="40.24090410668589" lon="8.527596474461612"><ele>240.0</ele><time>2026-05-03T10:48:23Z</time></trkpt><trkpt lat="40.24105438614354" lon="8.527385254899613"><ele>240.0</ele><time>2026-05-03T10:48:24Z</time></trkpt><trkpt lat="40.24120978549991" lon="8.527155061701327"><ele>240.0</ele><time>2026-05-03T10:48:25Z</time></trkpt><trkpt lat="40.24136448395839" lon="8.526919383722495"><ele>241.0</ele><time>2026-05-03T10:48:26Z</time></trkpt><trkpt lat="40.241524771994435" lon="8.526689286239"><ele>242.0</ele><time>2026-05-03T10:48:27Z</time></trkpt><trkpt lat="40.241673869730135" lon="8.526474584640557"><ele>242.0</ele><time>2026-05-03T10:48:28Z</time></trkpt><trkpt lat="40.24181527718389" lon="8.526263063198364"><ele>242.0</ele><time>2026-05-03T10:48:29Z</time></trkpt><trkpt lat="40.24195388703779" lon="8.52607664673157"><ele>242.0</ele><time>2026-05-03T10:48:30Z</time></trkpt><trkpt lat="40.242091199101964" lon="8.525933985442919"><ele>243.0</ele><time>2026-05-03T10:48:31Z</time></trkpt><trkpt lat="40.24223081227593" lon="8.525826966030797"><ele>244.0</ele><time>2026-05-03T10:48:32Z</time></trkpt><trkpt lat="40.2423610094468" lon="8.525735636240908"><ele>245.0</ele><time>2026-05-03T10:48:33Z</time></trkpt><trkpt lat="40.242486451143414" lon="8.52565154858075"><ele>245.0</ele><time>2026-05-03T10:48:34Z</time></trkpt><trkpt lat="40.24257525251589" lon="8.525512549675213"><ele>245.0</ele><time>2026-05-03T10:48:35Z</time></trkpt><trkpt lat="40.24267536603048" lon="8.525436325271594"><ele>245.0</ele><time>2026-05-03T10:48:36Z</time></trkpt><trkpt lat="40.242794499644916" lon="8.52542538223444"><ele>245.0</ele><time>2026-05-03T10:48:37Z</time></trkpt><trkpt lat="40.242943116830325" lon="8.52545701519656"><ele>245.0</ele><time>2026-05-03T10:48:38Z</time></trkpt><trkpt lat="40.24311195644393" lon="8.525505805314461"><ele>245.0</ele><time>2026-05-03T10:48:39Z</time></trkpt><trkpt lat="40.24329211245523" lon="8.525583970070523"><ele>245.0</ele><time>2026-05-03T10:48:40Z</time></trkpt><trkpt lat="40.24347591944602" lon="8.52567531872714"><ele>245.66666666666669</ele><time>2026-05-03T10:48:41Z</time></trkpt><trkpt lat="40.2436443254174" lon="8.525764953893892"><ele>246.33333333333331</ele><time>2026-05-03T10:48:42Z</time></trkpt><trkpt lat="40.243794064140204" lon="8.525834046946661"><ele>247.0</ele><time>2026-05-03T10:48:43Z</time></trkpt><trkpt lat="40.243918045390835" lon="8.525866523487993"><ele>247.39999999999998</ele><time>2026-05-03T10:48:44Z</time></trkpt><trkpt lat="40.244022314009946" lon="8.525867438813025"><ele>247.79999999999998</ele><time>2026-05-03T10:48:45Z</time></trkpt><trkpt lat="40.244101115147046" lon="8.525822726633503"><ele>248.2</ele><time>2026-05-03T10:48:46Z</time></trkpt><trkpt lat="40.24416115675905" lon="8.525739501411845"><ele>248.6</ele><time>2026-05-03T10:48:47Z</time></trkpt><trkpt lat="40.24422250095092" lon="8.525616725828977"><ele>249.0</ele><time>2026-05-03T10:48:48Z</time></trkpt><trkpt lat="40.24428899834639" lon="8.525468438756986"><ele>251.33333333333331</ele><time>2026-05-03T10:48:49Z</time></trkpt><trkpt lat="40.24436282124049" lon="8.525288361782781"><ele>253.66666666666666</ele><time>2026-05-03T10:48:50Z</time></trkpt><trkpt lat="40.244433827707944" lon="8.525110808319454"><ele>256.0</ele><time>2026-05-03T10:48:51Z</time></trkpt><trkpt lat="40.24448591059893" lon="8.524926121277508"><ele>256.0</ele><time>2026-05-03T10:48:52Z</time></trkpt><trkpt lat="40.24452356703907" lon="8.52472032587253"><ele>256.0</ele><time>2026-05-03T10:48:53Z</time></trkpt><trkpt lat="40.24454801689612" lon="8.524498172473159"><ele>256.0</ele><time>2026-05-03T10:48:54Z</time></trkpt><trkpt lat="40.244565848942216" lon="8.524257946566866"><ele>257.0</ele><time>2026-05-03T10:48:55Z</time></trkpt><trkpt lat="40.244588401036374" lon="8.52401511062787"><ele>258.0</ele><time>2026-05-03T10:48:56.001Z</time></trkpt><trkpt lat="40.2446267699363" lon="8.523771922221343"><ele>259.0</ele><time>2026-05-03T10:48:57.001Z</time></trkpt><trkpt lat="40.24469093544038" lon="8.52353927330322"><ele>260.3333333333333</ele><time>2026-05-03T10:48:58.001Z</time></trkpt><trkpt lat="40.24478173880095" lon="8.52332049292158"><ele>261.6666666666667</ele><time>2026-05-03T10:48:59.001Z</time></trkpt><trkpt lat="40.244887777701464" lon="8.523118478030113"><ele>263.0</ele><time>2026-05-03T10:49:00.001Z</time></trkpt><trkpt lat="40.2449999954444" lon="8.522946594085651"><ele>261.33333333333337</ele><time>2026-05-03T10:49:01.001Z</time></trkpt><trkpt lat="40.2451284642065" lon="8.52281068726538"><ele>259.6666666666667</ele><time>2026-05-03T10:49:02.001Z</time></trkpt><trkpt lat="40.24527543491065" lon="8.522704642500566"><ele>258.0</ele><time>2026-05-03T10:49:03.001Z</time></trkpt><trkpt lat="40.2454462694503" lon="8.522630695588045"><ele>256.0</ele><time>2026-05-03T10:49:04.001Z</time></trkpt><trkpt lat="40.24563159059249" lon="8.522590467729223"><ele>254.0</ele><time>2026-05-03T10:49:05.001Z</time></trkpt><trkpt lat="40.245821465715615" lon="8.522566531708495"><ele>252.0</ele><time>2026-05-03T10:49:06.001Z</time></trkpt><trkpt lat="40.24602047606636" lon="8.522525539205374"><ele>252.0</ele><time>2026-05-03T10:49:07.001Z</time></trkpt><trkpt lat="40.24622004121996" lon="8.522466570251321"><ele>252.0</ele><time>2026-05-03T10:49:08.001Z</time></trkpt><trkpt lat="40.246416785814375" lon="8.522394086207"><ele>252.0</ele><time>2026-05-03T10:49:09.001Z</time></trkpt><trkpt lat="40.24660658222089" lon="8.522314483928355"><ele>251.33333333333331</ele><time>2026-05-03T10:49:10.001Z</time></trkpt><trkpt lat="40.246796104230945" lon="8.522236601119026"><ele>250.66666666666666</ele><time>2026-05-03T10:49:11.001Z</time></trkpt><trkpt lat="40.246982092933365" lon="8.522159181070826"><ele>250.0</ele><time>2026-05-03T10:49:12.001Z</time></trkpt><trkpt lat="40.247161222823046" lon="8.52208582363442"><ele>252.33333333333331</ele><time>2026-05-03T10:49:13.001Z</time></trkpt><trkpt lat="40.247339697570126" lon="8.522017039363531"><ele>254.66666666666669</ele><time>2026-05-03T10:49:14.001Z</time></trkpt><trkpt lat="40.247514195839514" lon="8.52194551826789"><ele>257.0</ele><time>2026-05-03T10:49:15.001Z</time></trkpt><trkpt lat="40.2476842156517" lon="8.52187532484511"><ele>257.0</ele><time>2026-05-03T10:49:16.001Z</time></trkpt><trkpt lat="40.24785151332599" lon="8.521805795604282"><ele>257.0</ele><time>2026-05-03T10:49:17.001Z</time></trkpt><trkpt lat="40.24801489861563" lon="8.521736558623706"><ele>257.0</ele><time>2026-05-03T10:49:18.001Z</time></trkpt><trkpt lat="40.24817149228033" lon="8.521675504240685"><ele>255.66666666666669</ele><time>2026-05-03T10:49:19.001Z</time></trkpt><trkpt lat="40.24832507077806" lon="8.521615892553323"><ele>254.33333333333331</ele><time>2026-05-03T10:49:20.001Z</time></trkpt><trkpt lat="40.24847233800258" lon="8.521556117099408"><ele>253.0</ele><time>2026-05-03T10:49:21.001Z</time></trkpt><trkpt lat="40.24860898868666" lon="8.521497211123615"><ele>253.0</ele><time>2026-05-03T10:49:22.001Z</time></trkpt><trkpt lat="40.24875089922393" lon="8.521439156040262"><ele>253.0</ele><time>2026-05-03T10:49:23.001Z</time></trkpt><trkpt lat="40.2488917986147" lon="8.521378351608627"><ele>253.0</ele><time>2026-05-03T10:49:24.001Z</time></trkpt><trkpt lat="40.24903105907941" lon="8.521306160994714"><ele>253.0</ele><time>2026-05-03T10:49:25.001Z</time></trkpt><trkpt lat="40.2491678184147" lon="8.52121253746815"><ele>253.8</ele><time>2026-05-03T10:49:26.001Z</time></trkpt><trkpt lat="40.249290406802174" lon="8.521105989102255"><ele>254.60000000000002</ele><time>2026-05-03T10:49:27.001Z</time></trkpt><trkpt lat="40.249398434000526" lon="8.521005302871238"><ele>255.39999999999998</ele><time>2026-05-03T10:49:28.001Z</time></trkpt><trkpt lat="40.24948101528443" lon="8.520927642158796"><ele>256.2</ele><time>2026-05-03T10:49:29.001Z</time></trkpt><trkpt lat="40.24953752361525" lon="8.52088212515241"><ele>257.0</ele><time>2026-05-03T10:49:30.001Z</time></trkpt><trkpt lat="40.249600913675295" lon="8.52089318284788"><ele>257.0</ele><time>2026-05-03T10:49:32.001Z</time></trkpt><trkpt lat="40.24967143786166" lon="8.520984286086438"><ele>257.0</ele><time>2026-05-03T10:49:34.001Z</time></trkpt><trkpt lat="40.24973168170256" lon="8.521050687931307"><ele>257.0</ele><time>2026-05-03T10:49:35.001Z</time></trkpt><trkpt lat="40.24980745118226" lon="8.52114021164824"><ele>257.0</ele><time>2026-05-03T10:49:36.001Z</time></trkpt><trkpt lat="40.2498852206818" lon="8.521224952708605"><ele>257.0</ele><time>2026-05-03T10:49:37.001Z</time></trkpt><trkpt lat="40.2499508361175" lon="8.521310279034031"><ele>255.83333333333334</ele><time>2026-05-03T10:49:38.001Z</time></trkpt><trkpt lat="40.2500164299617" lon="8.521364191738058"><ele>254.66666666666669</ele><time>2026-05-03T10:49:39.001Z</time></trkpt><trkpt lat="40.250079160556524" lon="8.521400351039587"><ele>253.5</ele><time>2026-05-03T10:49:40.001Z</time></trkpt><trkpt lat="40.25015940649251" lon="8.521398420771398"><ele>252.33333333333331</ele><time>2026-05-03T10:49:41.001Z</time></trkpt><trkpt lat="40.25025963364093" lon="8.521373240048586"><ele>251.16666666666666</ele><time>2026-05-03T10:49:42.001Z</time></trkpt><trkpt lat="40.250368461587954" lon="8.52135869790008"><ele>250.0</ele><time>2026-05-03T10:49:43.001Z</time></trkpt><trkpt lat="40.250480226342354" lon="8.521362713981526"><ele>250.0</ele><time>2026-05-03T10:49:44.001Z</time></trkpt><trkpt lat="40.25060645120617" lon="8.521401017068603"><ele>250.0</ele><time>2026-05-03T10:49:45.001Z</time></trkpt><trkpt lat="40.25073694836496" lon="8.521448196979597"><ele>250.0</ele><time>2026-05-03T10:49:46.001Z</time></trkpt><trkpt lat="40.2508507325188" lon="8.521500277515642"><ele>250.0</ele><time>2026-05-03T10:49:47.001Z</time></trkpt><trkpt lat="40.25096286162195" lon="8.521571886075014"><ele>250.0</ele><time>2026-05-03T10:49:48.001Z</time></trkpt><trkpt lat="40.251082362893" lon="8.521649840135353"><ele>250.0</ele><time>2026-05-03T10:49:49.001Z</time></trkpt><trkpt lat="40.25119908400039" lon="8.521730347661775"><ele>250.0</ele><time>2026-05-03T10:49:50.001Z</time></trkpt><trkpt lat="40.25130404514313" lon="8.52181334337079"><ele>250.0</ele><time>2026-05-03T10:49:51.001Z</time></trkpt><trkpt lat="40.25139383274229" lon="8.521908379822314"><ele>251.0</ele><time>2026-05-03T10:49:52.001Z</time></trkpt><trkpt lat="40.25147008962785" lon="8.522014931591443"><ele>252.0</ele><time>2026-05-03T10:49:53.001Z</time></trkpt><trkpt lat="40.25154157189638" lon="8.522138699293562"><ele>253.0</ele><time>2026-05-03T10:49:54.001Z</time></trkpt><trkpt lat="40.251596102733004" lon="8.52227540293608"><ele>254.0</ele><time>2026-05-03T10:49:55.001Z</time></trkpt><trkpt lat="40.25164271758347" lon="8.522401115837262"><ele>254.0</ele><time>2026-05-03T10:49:56.001Z</time></trkpt><trkpt lat="40.25168947243914" lon="8.522503947085424"><ele>253.99999999999997</ele><time>2026-05-03T10:49:57.001Z</time></trkpt><trkpt lat="40.251757350119235" lon="8.522566316640145"><ele>253.99999999999997</ele><time>2026-05-03T10:49:58.001Z</time></trkpt><trkpt lat="40.25184797169274" lon="8.52259062255261"><ele>254.0</ele><time>2026-05-03T10:49:59.001Z</time></trkpt><trkpt lat="40.251949449101254" lon="8.522588323377798"><ele>254.0</ele><time>2026-05-03T10:50:00.001Z</time></trkpt><trkpt lat="40.25205373902101" lon="8.522590961182644"><ele>254.0</ele><time>2026-05-03T10:50:01.001Z</time></trkpt><trkpt lat="40.25215925390263" lon="8.522608292860538"><ele>253.99999999999997</ele><time>2026-05-03T10:50:02.001Z</time></trkpt><trkpt lat="40.25226168874763" lon="8.5226260437281"><ele>253.99999999999997</ele><time>2026-05-03T10:50:03.001Z</time></trkpt><trkpt lat="40.252370517337255" lon="8.52264561042306"><ele>254.0</ele><time>2026-05-03T10:50:04.001Z</time></trkpt><trkpt lat="40.25247575268162" lon="8.522663961405208"><ele>254.0</ele><time>2026-05-03T10:50:05.001Z</time></trkpt><trkpt lat="40.252578547606284" lon="8.522684691538867"><ele>255.39999999999998</ele><time>2026-05-03T10:50:06.001Z</time></trkpt><trkpt lat="40.25268037012597" lon="8.522694715200036"><ele>256.79999999999995</ele><time>2026-05-03T10:50:07.001Z</time></trkpt><trkpt lat="40.25278392572706" lon="8.522692952583974"><ele>258.20000000000005</ele><time>2026-05-03T10:50:08.001Z</time></trkpt><trkpt lat="40.25288931376383" lon="8.522677126770152"><ele>259.6</ele><time>2026-05-03T10:50:09.001Z</time></trkpt><trkpt lat="40.25300014245525" lon="8.522652416456573"><ele>261.0</ele><time>2026-05-03T10:50:10.002Z</time></trkpt><trkpt lat="40.25309661181188" lon="8.522617837016654"><ele>261.8333333333333</ele><time>2026-05-03T10:50:11.002Z</time></trkpt><trkpt lat="40.253196791149" lon="8.522608548874699"><ele>262.6666666666667</ele><time>2026-05-03T10:50:12.002Z</time></trkpt><trkpt lat="40.25329366626609" lon="8.522600696846137"><ele>263.5</ele><time>2026-05-03T10:50:13Z</time></trkpt><trkpt lat="40.25338604934814" lon="8.522594692788521"><ele>264.33333333333337</ele><time>2026-05-03T10:50:14Z</time></trkpt><trkpt lat="40.25346867169777" lon="8.522577358694155"><ele>265.1666666666667</ele><time>2026-05-03T10:50:15Z</time></trkpt><trkpt lat="40.25354197485973" lon="8.522569012093511"><ele>266.0</ele><time>2026-05-03T10:50:16Z</time></trkpt><trkpt lat="40.25363333390117" lon="8.522580618759058"><ele>266.0</ele><time>2026-05-03T10:50:17Z</time></trkpt><trkpt lat="40.253735037654195" lon="8.522611801700224"><ele>266.0</ele><time>2026-05-03T10:50:18Z</time></trkpt><trkpt lat="40.25384145241659" lon="8.522640270830978"><ele>266.0</ele><time>2026-05-03T10:50:19Z</time></trkpt><trkpt lat="40.2539459539463" lon="8.522675886494195"><ele>266.0</ele><time>2026-05-03T10:50:20Z</time></trkpt><trkpt lat="40.254045995350715" lon="8.522674967290783"><ele>266.0</ele><time>2026-05-03T10:50:21Z</time></trkpt><trkpt lat="40.25414761803317" lon="8.522642239577078"><ele>266.33333333333337</ele><time>2026-05-03T10:50:22Z</time></trkpt><trkpt lat="40.25424750112765" lon="8.522612409048287"><ele>266.6666666666667</ele><time>2026-05-03T10:50:23Z</time></trkpt><trkpt lat="40.25433582242633" lon="8.522580959958033"><ele>267.0</ele><time>2026-05-03T10:50:24Z</time></trkpt><trkpt lat="40.25442133780179" lon="8.522553683082354"><ele>267.3333333333333</ele><time>2026-05-03T10:50:25Z</time></trkpt><trkpt lat="40.25450398480846" lon="8.522529318792136"><ele>267.66666666666663</ele><time>2026-05-03T10:50:26Z</time></trkpt><trkpt lat="40.25457069557755" lon="8.522512557874695"><ele>268.0</ele><time>2026-05-03T10:50:27Z</time></trkpt><trkpt lat="40.25467018919353" lon="8.522490235297312"><ele>268.0</ele><time>2026-05-03T10:50:29Z</time></trkpt><trkpt lat="40.25473735208453" lon="8.522522941658716"><ele>268.0</ele><time>2026-05-03T10:50:41Z</time></trkpt><trkpt lat="40.25468067513311" lon="8.522617991600653"><ele>268.0</ele><time>2026-05-03T10:50:43Z</time></trkpt><trkpt lat="40.25465031589444" lon="8.522698127935392"><ele>268.0</ele><time>2026-05-03T10:50:44Z</time></trkpt><trkpt lat="40.254616137297624" lon="8.522786297990603"><ele>268.0</ele><time>2026-05-03T10:50:45Z</time></trkpt><trkpt lat="40.2545711298689" lon="8.522898883765121"><ele>268.0</ele><time>2026-05-03T10:50:46Z</time></trkpt><trkpt lat="40.254528650057864" lon="8.523003810268817"><ele>267.8</ele><time>2026-05-03T10:50:47Z</time></trkpt><trkpt lat="40.25448541654203" lon="8.523107295025133"><ele>267.6</ele><time>2026-05-03T10:50:48.001Z</time></trkpt><trkpt lat="40.2544365839019" lon="8.523224181987265"><ele>267.4</ele><time>2026-05-03T10:50:49.001Z</time></trkpt><trkpt lat="40.25438525358788" lon="8.52334704762519"><ele>267.2</ele><time>2026-05-03T10:50:50.001Z</time></trkpt><trkpt lat="40.25433230579687" lon="8.52347748548037"><ele>267.0</ele><time>2026-05-03T10:50:51.001Z</time></trkpt><trkpt lat="40.254278178935486" lon="8.523608132027272"><ele>267.0</ele><time>2026-05-03T10:50:52.001Z</time></trkpt><trkpt lat="40.2542266425584" lon="8.523728237565246"><ele>267.0</ele><time>2026-05-03T10:50:53.001Z</time></trkpt><trkpt lat="40.254175658522996" lon="8.523845565936794"><ele>267.0</ele><time>2026-05-03T10:50:54.001Z</time></trkpt><trkpt lat="40.25412488458488" lon="8.523956497770738"><ele>267.0</ele><time>2026-05-03T10:50:55.001Z</time></trkpt><trkpt lat="40.25407268811432" lon="8.524059882215518"><ele>267.0</ele><time>2026-05-03T10:50:56.001Z</time></trkpt><trkpt lat="40.254021975805834" lon="8.524160327003754"><ele>266.5</ele><time>2026-05-03T10:50:57.001Z</time></trkpt><trkpt lat="40.2539740852823" lon="8.524255182743547"><ele>266.0</ele><time>2026-05-03T10:50:58.001Z</time></trkpt><trkpt lat="40.253942013314344" lon="8.524356987194368"><ele>265.5</ele><time>2026-05-03T10:50:59.001Z</time></trkpt><trkpt lat="40.25389144047869" lon="8.524443099103639"><ele>265.0</ele><time>2026-05-03T10:51:00.001Z</time></trkpt><trkpt lat="40.253850060396736" lon="8.524515782789893"><ele>264.5</ele><time>2026-05-03T10:51:01.001Z</time></trkpt><trkpt lat="40.25381155032137" lon="8.52462003209101"><ele>264.0</ele><time>2026-05-03T10:51:03.001Z</time></trkpt><trkpt lat="40.253922498780554" lon="8.524717704619956"><ele>264.0</ele><time>2026-05-03T10:51:08.001Z</time></trkpt><trkpt lat="40.25399344384217" lon="8.524662635276254"><ele>264.0</ele><time>2026-05-03T10:51:11.001Z</time></trkpt><trkpt lat="40.25406373324632" lon="8.52465187073484"><ele>264.0</ele><time>2026-05-03T10:51:14.001Z</time></trkpt><trkpt lat="40.25415139195807" lon="8.524600287702873"><ele>264.0</ele><time>2026-05-03T10:51:16.001Z</time></trkpt><trkpt lat="40.254211950297744" lon="8.524565776713313"><ele>264.0</ele><time>2026-05-03T10:51:17.001Z</time></trkpt><trkpt lat="40.25428419065844" lon="8.524531270470403"><ele>264.0</ele><time>2026-05-03T10:51:18.001Z</time></trkpt><trkpt lat="40.25437237510854" lon="8.524488317122323"><ele>264.0</ele><time>2026-05-03T10:51:19.001Z</time></trkpt><trkpt lat="40.25445935100622" lon="8.524444719846393"><ele>264.0</ele><time>2026-05-03T10:51:20.001Z</time></trkpt><trkpt lat="40.25455140462877" lon="8.524400325479702"><ele>264.0</ele><time>2026-05-03T10:51:21.001Z</time></trkpt><trkpt lat="40.25465178337485" lon="8.5243528774896"><ele>264.0</ele><time>2026-05-03T10:51:22.001Z</time></trkpt><trkpt lat="40.25475684376088" lon="8.524305898493056"><ele>264.0</ele><time>2026-05-03T10:51:23.001Z</time></trkpt><trkpt lat="40.254860201697944" lon="8.524265965824215"><ele>264.0</ele><time>2026-05-03T10:51:24.001Z</time></trkpt><trkpt lat="40.254956383996614" lon="8.524230802131834"><ele>264.0</ele><time>2026-05-03T10:51:25.001Z</time></trkpt><trkpt lat="40.25504934552308" lon="8.524202529841435"><ele>264.0</ele><time>2026-05-03T10:51:26.001Z</time></trkpt><trkpt lat="40.25513781926662" lon="8.524188906694325"><ele>264.0</ele><time>2026-05-03T10:51:27.001Z</time></trkpt><trkpt lat="40.25522146383141" lon="8.524195347620662"><ele>264.0</ele><time>2026-05-03T10:51:28.001Z</time></trkpt><trkpt lat="40.25530326257483" lon="8.524216264412084"><ele>264.0</ele><time>2026-05-03T10:51:29.001Z</time></trkpt><trkpt lat="40.255380712459186" lon="8.524244740718778"><ele>264.0</ele><time>2026-05-03T10:51:30.001Z</time></trkpt><trkpt lat="40.25544817536074" lon="8.524275755126373"><ele>264.0</ele><time>2026-05-03T10:51:31.001Z</time></trkpt><trkpt lat="40.25551721765209" lon="8.524319349529664"><ele>264.0</ele><time>2026-05-03T10:51:32.001Z</time></trkpt><trkpt lat="40.25558182916149" lon="8.52435781693407"><ele>264.0</ele><time>2026-05-03T10:51:33.001Z</time></trkpt><trkpt lat="40.255628644831596" lon="8.524435737879463"><ele>264.0</ele><time>2026-05-03T10:51:36.001Z</time></trkpt><trkpt lat="40.25561703220908" lon="8.524519446644863"><ele>264.0</ele><time>2026-05-03T10:51:38.001Z</time></trkpt><trkpt lat="40.2555789496945" lon="8.524680972585173"><ele>263.6666666666667</ele><time>2026-05-03T10:51:40.001Z</time></trkpt><trkpt lat="40.25555036916278" lon="8.524766756775882"><ele>263.3333333333333</ele><time>2026-05-03T10:51:41.001Z</time></trkpt><trkpt lat="40.25550739630493" lon="8.524842809822625"><ele>263.0</ele><time>2026-05-03T10:51:42.001Z</time></trkpt><trkpt lat="40.25550259099843" lon="8.524940154535948"><ele>262.66666666666663</ele><time>2026-05-03T10:51:43.001Z</time></trkpt><trkpt lat="40.255467508508396" lon="8.525018928976552"><ele>262.3333333333333</ele><time>2026-05-03T10:51:44.001Z</time></trkpt><trkpt lat="40.25543391404818" lon="8.52516726076195"><ele>262.0</ele><time>2026-05-03T10:51:46.001Z</time></trkpt><trkpt lat="40.255407771433916" lon="8.525282689935574"><ele>262.0</ele><time>2026-05-03T10:51:48.001Z</time></trkpt><trkpt lat="40.25531525882127" lon="8.52524020912643"><ele>262.0</ele><time>2026-05-03T10:51:53.001Z</time></trkpt><trkpt lat="40.25522108318247" lon="8.525178425810394"><ele>262.0</ele><time>2026-05-03T10:51:55.001Z</time></trkpt><trkpt lat="40.25514798480633" lon="8.525126703746132"><ele>262.0</ele><time>2026-05-03T10:51:57.001Z</time></trkpt><trkpt lat="40.255069676972816" lon="8.525074715050055"><ele>262.0</ele><time>2026-05-03T10:51:59.001Z</time></trkpt><trkpt lat="40.254978298461616" lon="8.525031302848536"><ele>262.0</ele><time>2026-05-03T10:52:01.001Z</time></trkpt><trkpt lat="40.25488833707197" lon="8.525004457103075"><ele>262.0</ele><time>2026-05-03T10:52:03.001Z</time></trkpt><trkpt lat="40.25493964537417" lon="8.524808180925897"><ele>262.0</ele><time>2026-05-03T10:52:49Z</time></trkpt><trkpt lat="40.254938782682146" lon="8.524711059657367"><ele>262.0</ele><time>2026-05-03T10:52:50Z</time></trkpt><trkpt lat="40.2549387557437" lon="8.524603024702628"><ele>262.0</ele><time>2026-05-03T10:52:51Z</time></trkpt><trkpt lat="40.2549387333198" lon="8.524511910472178"><ele>262.4</ele><time>2026-05-03T10:52:52Z</time></trkpt><trkpt lat="40.25492316144957" lon="8.524367619948142"><ele>262.79999999999995</ele><time>2026-05-03T10:52:54Z</time></trkpt><trkpt lat="40.254916692546395" lon="8.52426803254127"><ele>263.2</ele><time>2026-05-03T10:52:57Z</time></trkpt><trkpt lat="40.25480106711615" lon="8.524235611151381"><ele>263.59999999999997</ele><time>2026-05-03T10:52:59Z</time></trkpt><trkpt lat="40.254726623205755" lon="8.52427256240765"><ele>264.0</ele><time>2026-05-03T10:53:00Z</time></trkpt><trkpt lat="40.254663086978375" lon="8.524303354348188"><ele>264.0</ele><time>2026-05-03T10:53:01Z</time></trkpt><trkpt lat="40.25459381840099" lon="8.524336924392292"><ele>264.0</ele><time>2026-05-03T10:53:02Z</time></trkpt><trkpt lat="40.254510652912366" lon="8.524377779539249"><ele>264.0</ele><time>2026-05-03T10:53:03Z</time></trkpt><trkpt lat="40.25442676789862" lon="8.524420371353814"><ele>264.0</ele><time>2026-05-03T10:53:04Z</time></trkpt><trkpt lat="40.25433479813184" lon="8.524467576638488"><ele>264.0</ele><time>2026-05-03T10:53:05Z</time></trkpt><trkpt lat="40.25424655421035" lon="8.524513638885773"><ele>264.0</ele><time>2026-05-03T10:53:06Z</time></trkpt><trkpt lat="40.254158469623405" lon="8.524556181735168"><ele>264.0</ele><time>2026-05-03T10:53:07Z</time></trkpt><trkpt lat="40.25407648387448" lon="8.524595710810244"><ele>264.0</ele><time>2026-05-03T10:53:08Z</time></trkpt><trkpt lat="40.254005103560864" lon="8.524630126515044"><ele>264.0</ele><time>2026-05-03T10:53:09Z</time></trkpt><trkpt lat="40.2539398580843" lon="8.524665759785647"><ele>264.0</ele><time>2026-05-03T10:53:10Z</time></trkpt><trkpt lat="40.253858378594074" lon="8.524713088097865"><ele>264.0</ele><time>2026-05-03T10:53:12Z</time></trkpt><trkpt lat="40.25385574723307" lon="8.52458587512451"><ele>264.0</ele><time>2026-05-03T10:53:15.001Z</time></trkpt><trkpt lat="40.253880868987096" lon="8.5244973175341"><ele>264.0</ele><time>2026-05-03T10:53:17.001Z</time></trkpt><trkpt lat="40.25392137552671" lon="8.524430657204423"><ele>264.0</ele><time>2026-05-03T10:53:18.001Z</time></trkpt><trkpt lat="40.25396014791748" lon="8.52435852863151"><ele>264.0</ele><time>2026-05-03T10:53:19.001Z</time></trkpt><trkpt lat="40.25400793124682" lon="8.524270792789887"><ele>264.0</ele><time>2026-05-03T10:53:20.001Z</time></trkpt><trkpt lat="40.2540619869504" lon="8.524171004728714"><ele>264.0</ele><time>2026-05-03T10:53:21.001Z</time></trkpt><trkpt lat="40.254104063459216" lon="8.524077158259088"><ele>264.0</ele><time>2026-05-03T10:53:22.001Z</time></trkpt><trkpt lat="40.25415432720376" lon="8.523965269441078"><ele>264.0</ele><time>2026-05-03T10:53:23.001Z</time></trkpt><trkpt lat="40.25420457702535" lon="8.523838701806907"><ele>264.0</ele><time>2026-05-03T10:53:24.001Z</time></trkpt><trkpt lat="40.25425420556692" lon="8.52371059086232"><ele>264.0</ele><time>2026-05-03T10:53:25.001Z</time></trkpt><trkpt lat="40.25430429695833" lon="8.523609855965724"><ele>264.0</ele><time>2026-05-03T10:53:26.001Z</time></trkpt><trkpt lat="40.25435703841687" lon="8.523494453611235"><ele>264.0</ele><time>2026-05-03T10:53:27.001Z</time></trkpt><trkpt lat="40.254403947332804" lon="8.523371459383212"><ele>264.59999999999997</ele><time>2026-05-03T10:53:28.001Z</time></trkpt><trkpt lat="40.254447429965964" lon="8.523251674296175"><ele>265.2</ele><time>2026-05-03T10:53:29.001Z</time></trkpt><trkpt lat="40.25450144636084" lon="8.523142875474408"><ele>265.79999999999995</ele><time>2026-05-03T10:53:30.001Z</time></trkpt><trkpt lat="40.254551087261866" lon="8.52302276647298"><ele>266.4</ele><time>2026-05-03T10:53:31.001Z</time></trkpt><trkpt lat="40.254597589826005" lon="8.522901972447604"><ele>267.0</ele><time>2026-05-03T10:53:32.001Z</time></trkpt><trkpt lat="40.25464712970435" lon="8.52278018234771"><ele>267.2</ele><time>2026-05-03T10:53:33.001Z</time></trkpt><trkpt lat="40.254694400281586" lon="8.522663055096004"><ele>267.4</ele><time>2026-05-03T10:53:34.001Z</time></trkpt><trkpt lat="40.25473520082796" lon="8.522555715337596"><ele>267.6</ele><time>2026-05-03T10:53:35.001Z</time></trkpt><trkpt lat="40.254765458213015" lon="8.522455894341215"><ele>267.8</ele><time>2026-05-03T10:53:36.001Z</time></trkpt><trkpt lat="40.25479332043984" lon="8.522367987863952"><ele>268.0</ele><time>2026-05-03T10:53:37.001Z</time></trkpt><trkpt lat="40.25482684981661" lon="8.522240310422584"><ele>268.0</ele><time>2026-05-03T10:53:39.001Z</time></trkpt><trkpt lat="40.25492450356045" lon="8.522163184690054"><ele>268.0</ele><time>2026-05-03T10:53:47.001Z</time></trkpt><trkpt lat="40.25499007245065" lon="8.52216128679168"><ele>268.0</ele><time>2026-05-03T10:53:48.001Z</time></trkpt><trkpt lat="40.25506281765513" lon="8.522165566213447"><ele>268.0</ele><time>2026-05-03T10:53:49.001Z</time></trkpt><trkpt lat="40.255152829851866" lon="8.522175159970107"><ele>268.0</ele><time>2026-05-03T10:53:50.001Z</time></trkpt><trkpt lat="40.25524278026837" lon="8.52220836455013"><ele>268.0</ele><time>2026-05-03T10:53:51.001Z</time></trkpt><trkpt lat="40.2553449715001" lon="8.52227193352838"><ele>268.0</ele><time>2026-05-03T10:53:52.001Z</time></trkpt><trkpt lat="40.25545332821898" lon="8.522348804299996"><ele>268.0</ele><time>2026-05-03T10:53:53.001Z</time></trkpt><trkpt lat="40.255561003245106" lon="8.522437191474882"><ele>268.0</ele><time>2026-05-03T10:53:54.001Z</time></trkpt><trkpt lat="40.25566349294142" lon="8.522522498872842"><ele>268.0</ele><time>2026-05-03T10:53:55.001Z</time></trkpt><trkpt lat="40.2557662593501" lon="8.52260316451164"><ele>267.5</ele><time>2026-05-03T10:53:56.001Z</time></trkpt><trkpt lat="40.255869319879345" lon="8.522684600062274"><ele>267.0</ele><time>2026-05-03T10:53:57.001Z</time></trkpt><trkpt lat="40.25597295930939" lon="8.522780752114146"><ele>266.5</ele><time>2026-05-03T10:53:58.001Z</time></trkpt><trkpt lat="40.2560723891032" lon="8.522894910899147"><ele>266.0</ele><time>2026-05-03T10:53:59.001Z</time></trkpt><trkpt lat="40.256165749761124" lon="8.5230384554156"><ele>266.0</ele><time>2026-05-03T10:54:00.001Z</time></trkpt><trkpt lat="40.256261492926996" lon="8.523183152320135"><ele>266.0</ele><time>2026-05-03T10:54:01.001Z</time></trkpt><trkpt lat="40.25635002832567" lon="8.523323617308519"><ele>266.0</ele><time>2026-05-03T10:54:02.001Z</time></trkpt><trkpt lat="40.25643952241879" lon="8.523481751902304"><ele>266.0</ele><time>2026-05-03T10:54:03.001Z</time></trkpt><trkpt lat="40.25652553995707" lon="8.523648392396462"><ele>265.6666666666667</ele><time>2026-05-03T10:54:04.001Z</time></trkpt><trkpt lat="40.25661121002359" lon="8.52381638809978"><ele>265.3333333333333</ele><time>2026-05-03T10:54:05.001Z</time></trkpt><trkpt lat="40.25669536092076" lon="8.523975816175836"><ele>265.0</ele><time>2026-05-03T10:54:06.001Z</time></trkpt><trkpt lat="40.256781112310485" lon="8.524137832358505"><ele>265.0</ele><time>2026-05-03T10:54:07.001Z</time></trkpt><trkpt lat="40.25687401594714" lon="8.524293167989308"><ele>265.0</ele><time>2026-05-03T10:54:08.001Z</time></trkpt><trkpt lat="40.25697623209664" lon="8.524424125491008"><ele>265.0</ele><time>2026-05-03T10:54:09.001Z</time></trkpt><trkpt lat="40.257089335657845" lon="8.524538772978952"><ele>265.0</ele><time>2026-05-03T10:54:10.001Z</time></trkpt><trkpt lat="40.257213685369216" lon="8.52463798289049"><ele>265.0</ele><time>2026-05-03T10:54:11.001Z</time></trkpt><trkpt lat="40.257349130374564" lon="8.52471621601001"><ele>265.0</ele><time>2026-05-03T10:54:12.001Z</time></trkpt><trkpt lat="40.257492420163906" lon="8.524782287270417"><ele>265.0</ele><time>2026-05-03T10:54:13.001Z</time></trkpt><trkpt lat="40.25764336701446" lon="8.524841747133122"><ele>265.0</ele><time>2026-05-03T10:54:14.001Z</time></trkpt><trkpt lat="40.25779985439546" lon="8.524894780903455"><ele>265.0</ele><time>2026-05-03T10:54:15.001Z</time></trkpt><trkpt lat="40.25796758606376" lon="8.52494981941332"><ele>265.0</ele><time>2026-05-03T10:54:16.001Z</time></trkpt><trkpt lat="40.25814165479519" lon="8.525011892804498"><ele>264.0</ele><time>2026-05-03T10:54:17.001Z</time></trkpt><trkpt lat="40.258322226013796" lon="8.525082675596162"><ele>263.0</ele><time>2026-05-03T10:54:18.001Z</time></trkpt><trkpt lat="40.25849919215109" lon="8.525152987037737"><ele>262.0</ele><time>2026-05-03T10:54:19.001Z</time></trkpt><trkpt lat="40.258678227144166" lon="8.525218243896937"><ele>262.0</ele><time>2026-05-03T10:54:20.001Z</time></trkpt><trkpt lat="40.258860122728414" lon="8.525285576144702"><ele>262.0</ele><time>2026-05-03T10:54:21.001Z</time></trkpt><trkpt lat="40.25902398559243" lon="8.525350052879356"><ele>262.0</ele><time>2026-05-03T10:54:22.001Z</time></trkpt><trkpt lat="40.2591659257393" lon="8.52540507164454"><ele>262.2</ele><time>2026-05-03T10:54:23.001Z</time></trkpt><trkpt lat="40.25928556753433" lon="8.525459035921958"><ele>262.4</ele><time>2026-05-03T10:54:24.001Z</time></trkpt><trkpt lat="40.25938647879763" lon="8.52551266634432"><ele>262.6</ele><time>2026-05-03T10:54:25.001Z</time></trkpt><trkpt lat="40.259483645354806" lon="8.525552734980835"><ele>262.8</ele><time>2026-05-03T10:54:26.001Z</time></trkpt><trkpt lat="40.25959204796217" lon="8.525576613820421"><ele>263.0</ele><time>2026-05-03T10:54:27.001Z</time></trkpt><trkpt lat="40.25970642624068" lon="8.525603205573415"><ele>262.75</ele><time>2026-05-03T10:54:28.001Z</time></trkpt><trkpt lat="40.25983085911078" lon="8.52563594421263"><ele>262.5</ele><time>2026-05-03T10:54:29.001Z</time></trkpt><trkpt lat="40.25996390740187" lon="8.525673691468985"><ele>262.25</ele><time>2026-05-03T10:54:30.001Z</time></trkpt><trkpt lat="40.260103254677105" lon="8.525719161583636"><ele>262.0</ele><time>2026-05-03T10:54:31.001Z</time></trkpt><trkpt lat="40.26023655588277" lon="8.525762732785742"><ele>262.0</ele><time>2026-05-03T10:54:32.001Z</time></trkpt><trkpt lat="40.26036374982145" lon="8.52580827151988"><ele>262.0</ele><time>2026-05-03T10:54:33.001Z</time></trkpt><trkpt lat="40.2604851100828" lon="8.525857206675656"><ele>262.0</ele><time>2026-05-03T10:54:34.001Z</time></trkpt><trkpt lat="40.260612067113605" lon="8.525910721839411"><ele>262.0</ele><time>2026-05-03T10:54:35.001Z</time></trkpt><trkpt lat="40.26074315028335" lon="8.525959864072812"><ele>260.75</ele><time>2026-05-03T10:54:36.001Z</time></trkpt><trkpt lat="40.260866409750015" lon="8.526007638147444"><ele>259.5</ele><time>2026-05-03T10:54:37.001Z</time></trkpt><trkpt lat="40.260980002094016" lon="8.52604643473476"><ele>258.25</ele><time>2026-05-03T10:54:38.001Z</time></trkpt><trkpt lat="40.26108986848447" lon="8.526083643778636"><ele>257.0</ele><time>2026-05-03T10:54:39.001Z</time></trkpt><trkpt lat="40.261194500858075" lon="8.526120551270855"><ele>257.0</ele><time>2026-05-03T10:54:40.001Z</time></trkpt><trkpt lat="40.26130539719485" lon="8.52616238858025"><ele>257.0</ele><time>2026-05-03T10:54:41.001Z</time></trkpt><trkpt lat="40.261428845795535" lon="8.526209822748221"><ele>257.0</ele><time>2026-05-03T10:54:42.001Z</time></trkpt><trkpt lat="40.261557670634176" lon="8.526260199735932"><ele>257.0</ele><time>2026-05-03T10:54:43.001Z</time></trkpt><trkpt lat="40.2616821558991" lon="8.526302871199993"><ele>257.6</ele><time>2026-05-03T10:54:44.001Z</time></trkpt><trkpt lat="40.26180023440574" lon="8.526347665052661"><ele>258.2</ele><time>2026-05-03T10:54:45.001Z</time></trkpt><trkpt lat="40.26191392807713" lon="8.526387537883737"><ele>258.8</ele><time>2026-05-03T10:54:46.001Z</time></trkpt><trkpt lat="40.26201466454817" lon="8.526422006263802"><ele>259.4</ele><time>2026-05-03T10:54:47.001Z</time></trkpt><trkpt lat="40.262106461265894" lon="8.526436895904755"><ele>260.0</ele><time>2026-05-03T10:54:48.001Z</time></trkpt><trkpt lat="40.26217366946264" lon="8.52648329080023"><ele>260.0</ele><time>2026-05-03T10:54:49.001Z</time></trkpt><trkpt lat="40.26223921415349" lon="8.5265055341733"><ele>260.0</ele><time>2026-05-03T10:54:50.001Z</time></trkpt><trkpt lat="40.26224233874697" lon="8.526277566163447"><ele>260.0</ele><time>2026-05-03T10:54:51.001Z</time></trkpt><trkpt lat="40.262210142183186" lon="8.52615964224288"><ele>260.0</ele><time>2026-05-03T10:54:53.001Z</time></trkpt><trkpt lat="40.26217378530061" lon="8.526065811692503"><ele>260.0</ele><time>2026-05-03T10:54:54.001Z</time></trkpt><trkpt lat="40.262116991724284" lon="8.525953176408525"><ele>258.0</ele><time>2026-05-03T10:54:55.001Z</time></trkpt><trkpt lat="40.26202475041715" lon="8.525836001254401"><ele>256.0</ele><time>2026-05-03T10:54:56.001Z</time></trkpt><trkpt lat="40.261928178121785" lon="8.525695462177023"><ele>254.0</ele><time>2026-05-03T10:54:57.001Z</time></trkpt><trkpt lat="40.26182933103241" lon="8.525550477259797"><ele>252.0</ele><time>2026-05-03T10:54:58.001Z</time></trkpt><trkpt lat="40.261721419809845" lon="8.525390661285142"><ele>251.33333333333331</ele><time>2026-05-03T10:54:59.001Z</time></trkpt><trkpt lat="40.26161353861516" lon="8.525233293634974"><ele>250.66666666666666</ele><time>2026-05-03T10:55:00.001Z</time></trkpt><trkpt lat="40.261502828684584" lon="8.525075744346578"><ele>250.0</ele><time>2026-05-03T10:55:01.001Z</time></trkpt><trkpt lat="40.26138720200744" lon="8.524916616920773"><ele>250.0</ele><time>2026-05-03T10:55:02.001Z</time></trkpt><trkpt lat="40.26127456716708" lon="8.524762020469199"><ele>250.0</ele><time>2026-05-03T10:55:03.001Z</time></trkpt><trkpt lat="40.26116810965337" lon="8.524612796596223"><ele>250.0</ele><time>2026-05-03T10:55:04.001Z</time></trkpt><trkpt lat="40.26107461382409" lon="8.524462114360624"><ele>248.0</ele><time>2026-05-03T10:55:05.001Z</time></trkpt><trkpt lat="40.260997115968486" lon="8.524302347395611"><ele>246.0</ele><time>2026-05-03T10:55:06.001Z</time></trkpt><trkpt lat="40.260933453195086" lon="8.524128309199561"><ele>244.0</ele><time>2026-05-03T10:55:07.001Z</time></trkpt><trkpt lat="40.26088370328786" lon="8.523940307079814"><ele>242.0</ele><time>2026-05-03T10:55:08.001Z</time></trkpt><trkpt lat="40.260850686714015" lon="8.523752061432324"><ele>239.66666666666669</ele><time>2026-05-03T10:55:09.001Z</time></trkpt><trkpt lat="40.260835351108014" lon="8.52355313339487"><ele>237.33333333333331</ele><time>2026-05-03T10:55:10.001Z</time></trkpt><trkpt lat="40.260837421381844" lon="8.523340107787481"><ele>235.0</ele><time>2026-05-03T10:55:11.001Z</time></trkpt><trkpt lat="40.26085782450226" lon="8.523110174031565"><ele>232.0</ele><time>2026-05-03T10:55:12.001Z</time></trkpt><trkpt lat="40.26088415456983" lon="8.522869724479218"><ele>229.0</ele><time>2026-05-03T10:55:13.001Z</time></trkpt><trkpt lat="40.260913640325754" lon="8.522621569768393"><ele>226.0</ele><time>2026-05-03T10:55:14.001Z</time></trkpt><trkpt lat="40.260946689378265" lon="8.522363951309252"><ele>226.0</ele><time>2026-05-03T10:55:15.001Z</time></trkpt><trkpt lat="40.26097565802147" lon="8.522118705038375"><ele>226.0</ele><time>2026-05-03T10:55:16.001Z</time></trkpt><trkpt lat="40.261007842316204" lon="8.521878050284856"><ele>226.0</ele><time>2026-05-03T10:55:17.001Z</time></trkpt><trkpt lat="40.26103932839242" lon="8.521631489591536"><ele>225.33333333333331</ele><time>2026-05-03T10:55:18.001Z</time></trkpt><trkpt lat="40.26107081296772" lon="8.521391430072471"><ele>224.66666666666669</ele><time>2026-05-03T10:55:19.001Z</time></trkpt><trkpt lat="40.261097367346004" lon="8.521142879157216"><ele>224.0</ele><time>2026-05-03T10:55:20.001Z</time></trkpt><trkpt lat="40.261121992435356" lon="8.520878213574186"><ele>223.66666666666669</ele><time>2026-05-03T10:55:21.001Z</time></trkpt><trkpt lat="40.261139847987494" lon="8.52060233792436"><ele>223.33333333333331</ele><time>2026-05-03T10:55:22.001Z</time></trkpt><trkpt lat="40.26114270753806" lon="8.520335421889293"><ele>223.0</ele><time>2026-05-03T10:55:23.001Z</time></trkpt><trkpt lat="40.26112800239794" lon="8.520070497128664"><ele>223.0</ele><time>2026-05-03T10:55:24.001Z</time></trkpt><trkpt lat="40.26109811883964" lon="8.51982119623004"><ele>223.0</ele><time>2026-05-03T10:55:25.001Z</time></trkpt><trkpt lat="40.26105707307812" lon="8.519580566234918"><ele>223.0</ele><time>2026-05-03T10:55:26.001Z</time></trkpt><trkpt lat="40.26100074455838" lon="8.519331365400097"><ele>220.33333333333331</ele><time>2026-05-03T10:55:27.001Z</time></trkpt><trkpt lat="40.260936472385374" lon="8.519079568469945"><ele>217.66666666666669</ele><time>2026-05-03T10:55:28.001Z</time></trkpt><trkpt lat="40.26087551396731" lon="8.518833780480607"><ele>215.0</ele><time>2026-05-03T10:55:29.001Z</time></trkpt><trkpt lat="40.26081611234098" lon="8.518591643605786"><ele>211.66666666666669</ele><time>2026-05-03T10:55:30.001Z</time></trkpt><trkpt lat="40.26076641291867" lon="8.518354568334308"><ele>208.33333333333331</ele><time>2026-05-03T10:55:31.001Z</time></trkpt><trkpt lat="40.26073138809921" lon="8.518122308115384"><ele>205.0</ele><time>2026-05-03T10:55:32.001Z</time></trkpt><trkpt lat="40.2607091461407" lon="8.51788625227329"><ele>203.0</ele><time>2026-05-03T10:55:33.001Z</time></trkpt><trkpt lat="40.2607035454285" lon="8.517656547462304"><ele>201.0</ele><time>2026-05-03T10:55:34.001Z</time></trkpt><trkpt lat="40.260720037531854" lon="8.517436622640979"><ele>199.0</ele><time>2026-05-03T10:55:35.001Z</time></trkpt><trkpt lat="40.2607674046883" lon="8.517232468172686"><ele>198.25</ele><time>2026-05-03T10:55:36.001Z</time></trkpt><trkpt lat="40.26081669741905" lon="8.517043161026223"><ele>197.5</ele><time>2026-05-03T10:55:37.001Z</time></trkpt><trkpt lat="40.26084167683542" lon="8.516873255470475"><ele>196.75</ele><time>2026-05-03T10:55:38.001Z</time></trkpt><trkpt lat="40.26084386755635" lon="8.516700053070503"><ele>196.0</ele><time>2026-05-03T10:55:39.001Z</time></trkpt><trkpt lat="40.26081332436956" lon="8.516527353682383"><ele>196.0</ele><time>2026-05-03T10:55:40.001Z</time></trkpt><trkpt lat="40.26075272751059" lon="8.51635090004075"><ele>196.0</ele><time>2026-05-03T10:55:41.001Z</time></trkpt><trkpt lat="40.2606682826945" lon="8.516170555217363"><ele>196.0</ele><time>2026-05-03T10:55:42.001Z</time></trkpt><trkpt lat="40.26056795513938" lon="8.515977233096033"><ele>195.33333333333331</ele><time>2026-05-03T10:55:43.001Z</time></trkpt><trkpt lat="40.260461308774836" lon="8.515772770528443"><ele>194.66666666666669</ele><time>2026-05-03T10:55:44.001Z</time></trkpt><trkpt lat="40.26035343401961" lon="8.515560178251434"><ele>194.0</ele><time>2026-05-03T10:55:45.001Z</time></trkpt><trkpt lat="40.26024663614121" lon="8.515343774942188"><ele>194.0</ele><time>2026-05-03T10:55:46.001Z</time></trkpt><trkpt lat="40.26013518092858" lon="8.515127891979471"><ele>194.0</ele><time>2026-05-03T10:55:47.001Z</time></trkpt><trkpt lat="40.26002622660364" lon="8.514903034698063"><ele>194.0</ele><time>2026-05-03T10:55:48.001Z</time></trkpt><trkpt lat="40.259896908031024" lon="8.514712239894845"><ele>194.66666666666669</ele><time>2026-05-03T10:55:49.001Z</time></trkpt><trkpt lat="40.25975192558146" lon="8.514556659779437"><ele>195.33333333333331</ele><time>2026-05-03T10:55:50.001Z</time></trkpt><trkpt lat="40.25963640237863" lon="8.514382440044498"><ele>196.0</ele><time>2026-05-03T10:55:51.001Z</time></trkpt><trkpt lat="40.25954460086232" lon="8.514194165765343"><ele>196.0</ele><time>2026-05-03T10:55:52.001Z</time></trkpt><trkpt lat="40.2594806827272" lon="8.513985034906812"><ele>196.0</ele><time>2026-05-03T10:55:53.001Z</time></trkpt><trkpt lat="40.25944050192105" lon="8.513756537083491"><ele>196.0</ele><time>2026-05-03T10:55:54.001Z</time></trkpt><trkpt lat="40.25941686057967" lon="8.51351518899945"><ele>196.66666666666666</ele><time>2026-05-03T10:55:55.001Z</time></trkpt><trkpt lat="40.25939344520151" lon="8.513277350501612"><ele>197.33333333333331</ele><time>2026-05-03T10:55:56.001Z</time></trkpt><trkpt lat="40.25936295877221" lon="8.513068712853906"><ele>198.0</ele><time>2026-05-03T10:55:57.001Z</time></trkpt><trkpt lat="40.25931431774877" lon="8.512877526625685"><ele>199.25</ele><time>2026-05-03T10:55:58.001Z</time></trkpt><trkpt lat="40.259239755676084" lon="8.512698537159798"><ele>200.5</ele><time>2026-05-03T10:55:59.001Z</time></trkpt><trkpt lat="40.25915130883693" lon="8.512547503271048"><ele>201.75</ele><time>2026-05-03T10:56:00.001Z</time></trkpt><trkpt lat="40.259071245543566" lon="8.512415538175274"><ele>203.0</ele><time>2026-05-03T10:56:01.001Z</time></trkpt><trkpt lat="40.25900831432239" lon="8.512287524342232"><ele>203.0</ele><time>2026-05-03T10:56:02.001Z</time></trkpt><trkpt lat="40.258970837562096" lon="8.512145953323742"><ele>203.0</ele><time>2026-05-03T10:56:03.001Z</time></trkpt><trkpt lat="40.2589581011252" lon="8.511978018688101"><ele>203.0</ele><time>2026-05-03T10:56:04.001Z</time></trkpt><trkpt lat="40.258971324554565" lon="8.511781426062056"><ele>203.0</ele><time>2026-05-03T10:56:05.001Z</time></trkpt><trkpt lat="40.25900179067879" lon="8.511569424906245"><ele>203.0</ele><time>2026-05-03T10:56:06.001Z</time></trkpt><trkpt lat="40.25903973697827" lon="8.51134910356232"><ele>203.0</ele><time>2026-05-03T10:56:07.001Z</time></trkpt><trkpt lat="40.25908001192979" lon="8.511123140946852"><ele>203.0</ele><time>2026-05-03T10:56:08.001Z</time></trkpt><trkpt lat="40.259123974379534" lon="8.510887548026131"><ele>199.0</ele><time>2026-05-03T10:56:09.001Z</time></trkpt><trkpt lat="40.259169407937996" lon="8.510651023404252"><ele>195.0</ele><time>2026-05-03T10:56:10.001Z</time></trkpt><trkpt lat="40.25921478278301" lon="8.510416605435735"><ele>191.0</ele><time>2026-05-03T10:56:11.001Z</time></trkpt><trkpt lat="40.259256654498884" lon="8.510186791927381"><ele>189.33333333333331</ele><time>2026-05-03T10:56:12.001Z</time></trkpt><trkpt lat="40.25928949540573" lon="8.509963123364056"><ele>187.66666666666666</ele><time>2026-05-03T10:56:13.001Z</time></trkpt><trkpt lat="40.25931656256498" lon="8.50974445110755"><ele>186.0</ele><time>2026-05-03T10:56:14.001Z</time></trkpt><trkpt lat="40.259349716755835" lon="8.509532957582726"><ele>185.25</ele><time>2026-05-03T10:56:15.001Z</time></trkpt><trkpt lat="40.25939718187824" lon="8.509339008251748"><ele>184.5</ele><time>2026-05-03T10:56:16.001Z</time></trkpt><trkpt lat="40.259464447529815" lon="8.509169109676314"><ele>183.75</ele><time>2026-05-03T10:56:17.001Z</time></trkpt><trkpt lat="40.25954094625818" lon="8.509013908765612"><ele>183.0</ele><time>2026-05-03T10:56:18.001Z</time></trkpt><trkpt lat="40.25962325673378" lon="8.508868344750137"><ele>182.0</ele><time>2026-05-03T10:56:19.001Z</time></trkpt><trkpt lat="40.25973029722604" lon="8.508725324650682"><ele>181.0</ele><time>2026-05-03T10:56:20.001Z</time></trkpt><trkpt lat="40.25985955353994" lon="8.508613433003704"><ele>180.0</ele><time>2026-05-03T10:56:21.001Z</time></trkpt><trkpt lat="40.26002333902233" lon="8.508514582380245"><ele>179.33333333333334</ele><time>2026-05-03T10:56:22.002Z</time></trkpt><trkpt lat="40.26020789255168" lon="8.50841674584928"><ele>178.66666666666669</ele><time>2026-05-03T10:56:23.002Z</time></trkpt><trkpt lat="40.260381770855005" lon="8.50832187797071"><ele>178.0</ele><time>2026-05-03T10:56:24.002Z</time></trkpt><trkpt lat="40.260541884116854" lon="8.508226165167072"><ele>177.33333333333334</ele><time>2026-05-03T10:56:25.002Z</time></trkpt><trkpt lat="40.26068529069641" lon="8.50811557070225"><ele>176.66666666666666</ele><time>2026-05-03T10:56:26.002Z</time></trkpt><trkpt lat="40.26080620640865" lon="8.507970963279364"><ele>176.0</ele><time>2026-05-03T10:56:27.002Z</time></trkpt><trkpt lat="40.260917179965986" lon="8.50779031194947"><ele>174.33333333333331</ele><time>2026-05-03T10:56:28.002Z</time></trkpt><trkpt lat="40.2610278458289" lon="8.507590698413987"><ele>172.66666666666666</ele><time>2026-05-03T10:56:29.002Z</time></trkpt><trkpt lat="40.26113518384597" lon="8.507376942712185"><ele>171.0</ele><time>2026-05-03T10:56:30.002Z</time></trkpt><trkpt lat="40.26123209672102" lon="8.50716197624249"><ele>170.0</ele><time>2026-05-03T10:56:31.001Z</time></trkpt><trkpt lat="40.261319739148746" lon="8.506948042138365"><ele>169.0</ele><time>2026-05-03T10:56:32.001Z</time></trkpt><trkpt lat="40.261399656079035" lon="8.506735161880707"><ele>168.0</ele><time>2026-05-03T10:56:33.001Z</time></trkpt><trkpt lat="40.26147406533559" lon="8.506522811790145"><ele>168.0</ele><time>2026-05-03T10:56:34.001Z</time></trkpt><trkpt lat="40.26152756555435" lon="8.506303575243109"><ele>168.0</ele><time>2026-05-03T10:56:35.001Z</time></trkpt><trkpt lat="40.26155968550756" lon="8.506066507987127"><ele>168.0</ele><time>2026-05-03T10:56:36.001Z</time></trkpt><trkpt lat="40.26158458991899" lon="8.505813751518106"><ele>169.33333333333334</ele><time>2026-05-03T10:56:37.001Z</time></trkpt><trkpt lat="40.261607595254354" lon="8.505539418724021"><ele>170.66666666666669</ele><time>2026-05-03T10:56:38.001Z</time></trkpt><trkpt lat="40.26162967381996" lon="8.505258212168291"><ele>172.0</ele><time>2026-05-03T10:56:39.001Z</time></trkpt><trkpt lat="40.26164542553378" lon="8.50497239584286"><ele>173.5</ele><time>2026-05-03T10:56:40.001Z</time></trkpt><trkpt lat="40.26165147832975" lon="8.50466545873979"><ele>175.0</ele><time>2026-05-03T10:56:41.001Z</time></trkpt><trkpt lat="40.26164550842198" lon="8.504352922126106"><ele>175.33333333333334</ele><time>2026-05-03T10:56:42.001Z</time></trkpt><trkpt lat="40.26164172976897" lon="8.504065864930153"><ele>175.66666666666666</ele><time>2026-05-03T10:56:43.001Z</time></trkpt><trkpt lat="40.26163462655782" lon="8.503799655800371"><ele>176.0</ele><time>2026-05-03T10:56:44.001Z</time></trkpt><trkpt lat="40.26163580781491" lon="8.50354028765348"><ele>177.66666666666666</ele><time>2026-05-03T10:56:45.001Z</time></trkpt><trkpt lat="40.26163786028858" lon="8.50328408692569"><ele>179.33333333333334</ele><time>2026-05-03T10:56:46.001Z</time></trkpt><trkpt lat="40.261653108602815" lon="8.503026488052669"><ele>181.0</ele><time>2026-05-03T10:56:47.001Z</time></trkpt><trkpt lat="40.2616742110569" lon="8.502764463760172"><ele>181.0</ele><time>2026-05-03T10:56:48.001Z</time></trkpt><trkpt lat="40.26168963885746" lon="8.50251868720826"><ele>181.0</ele><time>2026-05-03T10:56:49.001Z</time></trkpt><trkpt lat="40.26170361497793" lon="8.50228675269874"><ele>181.0</ele><time>2026-05-03T10:56:50.001Z</time></trkpt><trkpt lat="40.26171576095018" lon="8.50206908426545"><ele>181.33333333333334</ele><time>2026-05-03T10:56:51.001Z</time></trkpt><trkpt lat="40.261738772754725" lon="8.501854796915188"><ele>181.66666666666666</ele><time>2026-05-03T10:56:52.001Z</time></trkpt><trkpt lat="40.26177197634109" lon="8.501648484852538"><ele>182.0</ele><time>2026-05-03T10:56:53.001Z</time></trkpt><trkpt lat="40.261820418760735" lon="8.501454867887347"><ele>182.0</ele><time>2026-05-03T10:56:54.001Z</time></trkpt><trkpt lat="40.2618822253497" lon="8.501288505210452"><ele>182.0</ele><time>2026-05-03T10:56:55.001Z</time></trkpt><trkpt lat="40.2619388715722" lon="8.501132774050701"><ele>182.0</ele><time>2026-05-03T10:56:56.001Z</time></trkpt><trkpt lat="40.261995342951195" lon="8.500983564936156"><ele>182.0</ele><time>2026-05-03T10:56:57.001Z</time></trkpt><trkpt lat="40.26205674013736" lon="8.500842876380487"><ele>181.75</ele><time>2026-05-03T10:56:58.001Z</time></trkpt><trkpt lat="40.262128213692264" lon="8.500719521039857"><ele>181.5</ele><time>2026-05-03T10:56:59.001Z</time></trkpt><trkpt lat="40.262213638253805" lon="8.500613973519501"><ele>181.25</ele><time>2026-05-03T10:57:00.001Z</time></trkpt><trkpt lat="40.26231663000788" lon="8.500514907968848"><ele>181.0</ele><time>2026-05-03T10:57:01.001Z</time></trkpt><trkpt lat="40.26243794359598" lon="8.500424451776686"><ele>181.33333333333334</ele><time>2026-05-03T10:57:02.001Z</time></trkpt><trkpt lat="40.26255503369065" lon="8.500306169839938"><ele>181.66666666666666</ele><time>2026-05-03T10:57:03.001Z</time></trkpt><trkpt lat="40.26267575036595" lon="8.50017053477509"><ele>182.0</ele><time>2026-05-03T10:57:04.001Z</time></trkpt><trkpt lat="40.26281095384588" lon="8.500022005907695"><ele>182.0</ele><time>2026-05-03T10:57:05.001Z</time></trkpt><trkpt lat="40.262941068261775" lon="8.49988071975886"><ele>182.0</ele><time>2026-05-03T10:57:06.001Z</time></trkpt><trkpt lat="40.26306529413972" lon="8.499740025615589"><ele>182.0</ele><time>2026-05-03T10:57:07.001Z</time></trkpt><trkpt lat="40.26318424280997" lon="8.499608127354849"><ele>179.0</ele><time>2026-05-03T10:57:08.001Z</time></trkpt><trkpt lat="40.26329513000994" lon="8.499479188183297"><ele>176.0</ele><time>2026-05-03T10:57:09.001Z</time></trkpt><trkpt lat="40.26339609977535" lon="8.499339219159166"><ele>173.0</ele><time>2026-05-03T10:57:10.001Z</time></trkpt><trkpt lat="40.26348776164955" lon="8.499185664496471"><ele>170.0</ele><time>2026-05-03T10:57:11.001Z</time></trkpt><trkpt lat="40.26357346762904" lon="8.499019449062082"><ele>170.0</ele><time>2026-05-03T10:57:12.001Z</time></trkpt><trkpt lat="40.26365292266336" lon="8.49885439974901"><ele>170.0</ele><time>2026-05-03T10:57:13.001Z</time></trkpt><trkpt lat="40.26372808948969" lon="8.498678867446468"><ele>170.0</ele><time>2026-05-03T10:57:14.001Z</time></trkpt><trkpt lat="40.26379898243694" lon="8.498489488325502"><ele>168.66666666666666</ele><time>2026-05-03T10:57:15.001Z</time></trkpt><trkpt lat="40.26386474985382" lon="8.4982782558206"><ele>167.33333333333334</ele><time>2026-05-03T10:57:16.001Z</time></trkpt><trkpt lat="40.26392251340975" lon="8.498052686120456"><ele>166.0</ele><time>2026-05-03T10:57:17.001Z</time></trkpt><trkpt lat="40.26397322002226" lon="8.497837374762677"><ele>162.66666666666669</ele><time>2026-05-03T10:57:18.001Z</time></trkpt><trkpt lat="40.26402875754536" lon="8.497631359970796"><ele>159.33333333333334</ele><time>2026-05-03T10:57:19.001Z</time></trkpt><trkpt lat="40.2640911581601" lon="8.497429185686995"><ele>156.0</ele><time>2026-05-03T10:57:20.001Z</time></trkpt><trkpt lat="40.26416689131739" lon="8.497234568133631"><ele>153.0</ele><time>2026-05-03T10:57:21.001Z</time></trkpt><trkpt lat="40.26425125265376" lon="8.49705278390831"><ele>150.0</ele><time>2026-05-03T10:57:22.001Z</time></trkpt><trkpt lat="40.26433928885356" lon="8.496882028305489"><ele>147.0</ele><time>2026-05-03T10:57:23.001Z</time></trkpt><trkpt lat="40.264431259552275" lon="8.49671968558394"><ele>147.0</ele><time>2026-05-03T10:57:24.001Z</time></trkpt><trkpt lat="40.26453275874751" lon="8.496566097694398"><ele>147.0</ele><time>2026-05-03T10:57:25.001Z</time></trkpt><trkpt lat="40.264648658070804" lon="8.496426626115538"><ele>147.0</ele><time>2026-05-03T10:57:26.001Z</time></trkpt><trkpt lat="40.264772346121916" lon="8.496278083006363"><ele>144.33333333333334</ele><time>2026-05-03T10:57:27.001Z</time></trkpt><trkpt lat="40.26489216484779" lon="8.496109701623821"><ele>141.66666666666669</ele><time>2026-05-03T10:57:28.001Z</time></trkpt><trkpt lat="40.26500728491324" lon="8.49593423707164"><ele>139.0</ele><time>2026-05-03T10:57:29.001Z</time></trkpt><trkpt lat="40.26513099998461" lon="8.49575566828363"><ele>139.0</ele><time>2026-05-03T10:57:30.001Z</time></trkpt><trkpt lat="40.26526108054337" lon="8.495581010445859"><ele>139.0</ele><time>2026-05-03T10:57:31.001Z</time></trkpt><trkpt lat="40.26540340398292" lon="8.495418245360336"><ele>139.0</ele><time>2026-05-03T10:57:32.001Z</time></trkpt><trkpt lat="40.2655424723946" lon="8.495256674085814"><ele>135.33333333333334</ele><time>2026-05-03T10:57:33.001Z</time></trkpt><trkpt lat="40.26567515428902" lon="8.495098296938059"><ele>131.66666666666666</ele><time>2026-05-03T10:57:34.001Z</time></trkpt><trkpt lat="40.26579443559489" lon="8.494941081993739"><ele>128.0</ele><time>2026-05-03T10:57:35.001Z</time></trkpt><trkpt lat="40.265906343336965" lon="8.494791693004778"><ele>128.0</ele><time>2026-05-03T10:57:36.001Z</time></trkpt><trkpt lat="40.26601725959641" lon="8.494632209150131"><ele>128.0</ele><time>2026-05-03T10:57:37.001Z</time></trkpt><trkpt lat="40.26608810965145" lon="8.49441674345121"><ele>128.0</ele><time>2026-05-03T10:57:38.001Z</time></trkpt><trkpt lat="40.26616279560376" lon="8.49420287431726"><ele>125.33333333333333</ele><time>2026-05-03T10:57:39.001Z</time></trkpt><trkpt lat="40.26623537861007" lon="8.493990804679228"><ele>122.66666666666666</ele><time>2026-05-03T10:57:40.001Z</time></trkpt><trkpt lat="40.26633032431062" lon="8.493779669275156"><ele>120.0</ele><time>2026-05-03T10:57:41.001Z</time></trkpt><trkpt lat="40.26644905780725" lon="8.493562873789953"><ele>117.66666666666666</ele><time>2026-05-03T10:57:42.001Z</time></trkpt><trkpt lat="40.26657483991234" lon="8.493353991306837"><ele>115.33333333333333</ele><time>2026-05-03T10:57:43.001Z</time></trkpt><trkpt lat="40.26669926454348" lon="8.493139928195559"><ele>113.0</ele><time>2026-05-03T10:57:44.001Z</time></trkpt><trkpt lat="40.266811790953625" lon="8.492919471103008"><ele>110.33333333333333</ele><time>2026-05-03T10:57:45.001Z</time></trkpt><trkpt lat="40.266915482509894" lon="8.49269043314279"><ele>107.66666666666666</ele><time>2026-05-03T10:57:46.001Z</time></trkpt><trkpt lat="40.26702482007659" lon="8.492463380181414"><ele>105.0</ele><time>2026-05-03T10:57:47.001Z</time></trkpt><trkpt lat="40.2671109559039" lon="8.492204304762605"><ele>103.66666666666666</ele><time>2026-05-03T10:57:48.001Z</time></trkpt><trkpt lat="40.26717880333123" lon="8.49193965019371"><ele>102.33333333333333</ele><time>2026-05-03T10:57:49.001Z</time></trkpt><trkpt lat="40.267234702195616" lon="8.491684826028433"><ele>101.0</ele><time>2026-05-03T10:57:50.001Z</time></trkpt><trkpt lat="40.26726750485281" lon="8.491437288233552"><ele>98.0</ele><time>2026-05-03T10:57:51.001Z</time></trkpt><trkpt lat="40.26733123699356" lon="8.491207523557925"><ele>95.0</ele><time>2026-05-03T10:57:52.001Z</time></trkpt><trkpt lat="40.26741353417355" lon="8.490972813126904"><ele>92.0</ele><time>2026-05-03T10:57:53.001Z</time></trkpt><trkpt lat="40.26750710153531" lon="8.49074596350645"><ele>92.0</ele><time>2026-05-03T10:57:54.001Z</time></trkpt><trkpt lat="40.267603900207405" lon="8.490542179650598"><ele>92.0</ele><time>2026-05-03T10:57:55.001Z</time></trkpt><trkpt lat="40.26768999487318" lon="8.4903497541891"><ele>92.0</ele><time>2026-05-03T10:57:56.001Z</time></trkpt><trkpt lat="40.267772947799486" lon="8.490171649380647"><ele>90.66666666666667</ele><time>2026-05-03T10:57:57.001Z</time></trkpt><trkpt lat="40.26782643011613" lon="8.489962419849824"><ele>89.33333333333333</ele><time>2026-05-03T10:57:58.001Z</time></trkpt><trkpt lat="40.26783678583843" lon="8.489735653987745"><ele>88.0</ele><time>2026-05-03T10:57:59.001Z</time></trkpt><trkpt lat="40.267845585996696" lon="8.489512924599545"><ele>86.66666666666666</ele><time>2026-05-03T10:58:00.001Z</time></trkpt><trkpt lat="40.26784462148558" lon="8.489289059197649"><ele>85.33333333333333</ele><time>2026-05-03T10:58:01.001Z</time></trkpt><trkpt lat="40.26784136058193" lon="8.489048607926053"><ele>84.0</ele><time>2026-05-03T10:58:02.001Z</time></trkpt><trkpt lat="40.26783548061399" lon="8.488800468073642"><ele>83.0</ele><time>2026-05-03T10:58:03.001Z</time></trkpt><trkpt lat="40.26782947992143" lon="8.488566030302856"><ele>82.0</ele><time>2026-05-03T10:58:04.001Z</time></trkpt><trkpt lat="40.26782414154626" lon="8.488344010959825"><ele>81.0</ele><time>2026-05-03T10:58:05.001Z</time></trkpt><trkpt lat="40.26781816652203" lon="8.48812799006551"><ele>79.5</ele><time>2026-05-03T10:58:06.001Z</time></trkpt><trkpt lat="40.26781466759285" lon="8.487920103292296"><ele>78.0</ele><time>2026-05-03T10:58:07.001Z</time></trkpt><trkpt lat="40.26780724214457" lon="8.487722804726367"><ele>76.5</ele><time>2026-05-03T10:58:08.001Z</time></trkpt><trkpt lat="40.267813423761545" lon="8.487546524752887"><ele>75.0</ele><time>2026-05-03T10:58:09.001Z</time></trkpt><trkpt lat="40.26783435309626" lon="8.487386891187402"><ele>75.0</ele><time>2026-05-03T10:58:10.001Z</time></trkpt><trkpt lat="40.267889665986104" lon="8.487232053473782"><ele>75.0</ele><time>2026-05-03T10:58:11.001Z</time></trkpt><trkpt lat="40.26796158131102" lon="8.487085606858242"><ele>75.0</ele><time>2026-05-03T10:58:12.001Z</time></trkpt><trkpt lat="40.268036357037595" lon="8.486950119525112"><ele>75.0</ele><time>2026-05-03T10:58:13.001Z</time></trkpt><trkpt lat="40.268102295756464" lon="8.486817474621331"><ele>75.25</ele><time>2026-05-03T10:58:14.001Z</time></trkpt><trkpt lat="40.268165270527284" lon="8.48669071366281"><ele>75.5</ele><time>2026-05-03T10:58:15.001Z</time></trkpt><trkpt lat="40.26822914076832" lon="8.486563125338625"><ele>75.75</ele><time>2026-05-03T10:58:16.001Z</time></trkpt><trkpt lat="40.268300056422355" lon="8.486424255219864"><ele>76.0</ele><time>2026-05-03T10:58:17.001Z</time></trkpt><trkpt lat="40.26837296130788" lon="8.486287339482594"><ele>74.25</ele><time>2026-05-03T10:58:18.001Z</time></trkpt><trkpt lat="40.26843367031363" lon="8.486141459425184"><ele>72.5</ele><time>2026-05-03T10:58:19.001Z</time></trkpt><trkpt lat="40.26848231451231" lon="8.485986269221048"><ele>70.75</ele><time>2026-05-03T10:58:20.001Z</time></trkpt><trkpt lat="40.268518615441785" lon="8.485838709647684"><ele>69.0</ele><time>2026-05-03T10:58:21.001Z</time></trkpt><trkpt lat="40.268545218205716" lon="8.48569666713052"><ele>69.0</ele><time>2026-05-03T10:58:22.001Z</time></trkpt><trkpt lat="40.26855465054658" lon="8.485560175375001"><ele>69.0</ele><time>2026-05-03T10:58:23.001Z</time></trkpt><trkpt lat="40.268562236655576" lon="8.485430645121648"><ele>69.0</ele><time>2026-05-03T10:58:24.001Z</time></trkpt><trkpt lat="40.26857197224198" lon="8.485308289421162"><ele>69.0</ele><time>2026-05-03T10:58:25.001Z</time></trkpt><trkpt lat="40.26858284578799" lon="8.485182117181521"><ele>69.0</ele><time>2026-05-03T10:58:26.001Z</time></trkpt><trkpt lat="40.26859504247991" lon="8.485060589278211"><ele>68.8</ele><time>2026-05-03T10:58:27.001Z</time></trkpt><trkpt lat="40.26862805019763" lon="8.484956164089953"><ele>68.60000000000001</ele><time>2026-05-03T10:58:28.001Z</time></trkpt><trkpt lat="40.26869070493087" lon="8.484844352713944"><ele>68.4</ele><time>2026-05-03T10:58:29.001Z</time></trkpt><trkpt lat="40.26877881477989" lon="8.484737476788185"><ele>68.2</ele><time>2026-05-03T10:58:30.001Z</time></trkpt><trkpt lat="40.26887134080465" lon="8.48464162025047"><ele>68.0</ele><time>2026-05-03T10:58:31.001Z</time></trkpt><trkpt lat="40.26895961328475" lon="8.484547893970205"><ele>68.0</ele><time>2026-05-03T10:58:32.001Z</time></trkpt><trkpt lat="40.2690405539973" lon="8.48446050158221"><ele>68.0</ele><time>2026-05-03T10:58:33.001Z</time></trkpt><trkpt lat="40.269116658001955" lon="8.48437496847096"><ele>68.0</ele><time>2026-05-03T10:58:34.001Z</time></trkpt><trkpt lat="40.26919287079459" lon="8.484291960761428"><ele>68.0</ele><time>2026-05-03T10:58:35.001Z</time></trkpt><trkpt lat="40.269266078630494" lon="8.484212310793326"><ele>68.0</ele><time>2026-05-03T10:58:36.001Z</time></trkpt><trkpt lat="40.269338794477235" lon="8.484139421321007"><ele>68.0</ele><time>2026-05-03T10:58:37.001Z</time></trkpt><trkpt lat="40.26941246409684" lon="8.484068330761588"><ele>68.0</ele><time>2026-05-03T10:58:38.001Z</time></trkpt><trkpt lat="40.2694841834569" lon="8.48399736316388"><ele>68.0</ele><time>2026-05-03T10:58:39.001Z</time></trkpt><trkpt lat="40.26955724999901" lon="8.4839343885929"><ele>68.0</ele><time>2026-05-03T10:58:40.001Z</time></trkpt><trkpt lat="40.26963757286763" lon="8.483895137494033"><ele>68.0</ele><time>2026-05-03T10:58:41.001Z</time></trkpt><trkpt lat="40.26970376256506" lon="8.483881116133828"><ele>68.0</ele><time>2026-05-03T10:58:42.001Z</time></trkpt><trkpt lat="40.26977310435823" lon="8.48388878392478"><ele>65.2</ele><time>2026-05-03T10:58:43.001Z</time></trkpt><trkpt lat="40.26984512528144" lon="8.483920253449227"><ele>62.4</ele><time>2026-05-03T10:58:44.001Z</time></trkpt><trkpt lat="40.269929429658546" lon="8.48397825333842"><ele>59.60000000000001</ele><time>2026-05-03T10:58:45.001Z</time></trkpt><trkpt lat="40.270001905894475" lon="8.484060231469908"><ele>56.800000000000004</ele><time>2026-05-03T10:58:46.001Z</time></trkpt><trkpt lat="40.270064746420566" lon="8.484154081141497"><ele>54.0</ele><time>2026-05-03T10:58:47.001Z</time></trkpt><trkpt lat="40.27012310589757" lon="8.484248841521772"><ele>54.0</ele><time>2026-05-03T10:58:48.001Z</time></trkpt><trkpt lat="40.270181226601025" lon="8.484340094607715"><ele>54.00000000000001</ele><time>2026-05-03T10:58:49.001Z</time></trkpt><trkpt lat="40.270255696755854" lon="8.484435317492947"><ele>54.00000000000001</ele><time>2026-05-03T10:58:50.001Z</time></trkpt><trkpt lat="40.270328428251084" lon="8.48452636672107"><ele>54.0</ele><time>2026-05-03T10:58:51.001Z</time></trkpt><trkpt lat="40.27040200746653" lon="8.484620518487922"><ele>54.0</ele><time>2026-05-03T10:58:52.001Z</time></trkpt><trkpt lat="40.27048562231983" lon="8.484713913346974"><ele>51.5</ele><time>2026-05-03T10:58:53.001Z</time></trkpt><trkpt lat="40.27059461136164" lon="8.484802057908063"><ele>49.0</ele><time>2026-05-03T10:58:54.001Z</time></trkpt><trkpt lat="40.27070718391689" lon="8.48487988201353"><ele>46.5</ele><time>2026-05-03T10:58:55.001Z</time></trkpt><trkpt lat="40.27083562575652" lon="8.48496949717419"><ele>44.0</ele><time>2026-05-03T10:58:56.001Z</time></trkpt><trkpt lat="40.27095772853621" lon="8.485058438195594"><ele>44.0</ele><time>2026-05-03T10:58:57.001Z</time></trkpt><trkpt lat="40.27107774933697" lon="8.485155019410428"><ele>44.0</ele><time>2026-05-03T10:58:58.001Z</time></trkpt><trkpt lat="40.27119358009063" lon="8.485247100878315"><ele>44.0</ele><time>2026-05-03T10:58:59.001Z</time></trkpt><trkpt lat="40.27130406160394" lon="8.485346636759695"><ele>44.0</ele><time>2026-05-03T10:59:00.001Z</time></trkpt><trkpt lat="40.27140722630097" lon="8.485463470545264"><ele>40.0</ele><time>2026-05-03T10:59:01.001Z</time></trkpt><trkpt lat="40.27149928281974" lon="8.485593193695449"><ele>36.0</ele><time>2026-05-03T10:59:02.001Z</time></trkpt><trkpt lat="40.27157985682399" lon="8.485735469027055"><ele>32.0</ele><time>2026-05-03T10:59:03.001Z</time></trkpt><trkpt lat="40.27165664082372" lon="8.48588107089284"><ele>28.0</ele><time>2026-05-03T10:59:04.001Z</time></trkpt><trkpt lat="40.27173252564091" lon="8.48602551558655"><ele>28.0</ele><time>2026-05-03T10:59:05.001Z</time></trkpt><trkpt lat="40.271810756926" lon="8.486164457065373"><ele>28.0</ele><time>2026-05-03T10:59:06.001Z</time></trkpt><trkpt lat="40.27189697598884" lon="8.486287028572807"><ele>28.0</ele><time>2026-05-03T10:59:07.001Z</time></trkpt><trkpt lat="40.271984613807135" lon="8.486389630237264"><ele>28.0</ele><time>2026-05-03T10:59:08.001Z</time></trkpt><trkpt lat="40.27207097630343" lon="8.486491251947433"><ele>29.799999999999997</ele><time>2026-05-03T10:59:09.001Z</time></trkpt><trkpt lat="40.272143197092305" lon="8.486589889047954"><ele>31.599999999999998</ele><time>2026-05-03T10:59:10.001Z</time></trkpt><trkpt lat="40.27218935528515" lon="8.486690259692582"><ele>33.400000000000006</ele><time>2026-05-03T10:59:11.001Z</time></trkpt><trkpt lat="40.27221612648793" lon="8.486805845032874"><ele>35.2</ele><time>2026-05-03T10:59:12.001Z</time></trkpt><trkpt lat="40.27222770214407" lon="8.486926300679334"><ele>37.0</ele><time>2026-05-03T10:59:13.001Z</time></trkpt><trkpt lat="40.27223651684319" lon="8.487042596434273"><ele>36.0</ele><time>2026-05-03T10:59:14.001Z</time></trkpt><trkpt lat="40.27225786311918" lon="8.487151067806941"><ele>35.0</ele><time>2026-05-03T10:59:15.001Z</time></trkpt><trkpt lat="40.27230238156374" lon="8.487236873007326"><ele>34.0</ele><time>2026-05-03T10:59:16.001Z</time></trkpt><trkpt lat="40.27236684739052" lon="8.487290224174654"><ele>33.0</ele><time>2026-05-03T10:59:17.001Z</time></trkpt><trkpt lat="40.272435685574635" lon="8.48731772943644"><ele>32.0</ele><time>2026-05-03T10:59:18.001Z</time></trkpt><trkpt lat="40.27252202106088" lon="8.487324884670494"><ele>31.0</ele><time>2026-05-03T10:59:19.001Z</time></trkpt><trkpt lat="40.27262036382978" lon="8.487318416502731"><ele>31.000000000000004</ele><time>2026-05-03T10:59:20.001Z</time></trkpt><trkpt lat="40.272715929650374" lon="8.487317096123299"><ele>31.0</ele><time>2026-05-03T10:59:21.001Z</time></trkpt><trkpt lat="40.272788749009706" lon="8.487302396956798"><ele>31.0</ele><time>2026-05-03T10:59:22.001Z</time></trkpt><trkpt lat="40.272862695977985" lon="8.4872204435228"><ele>31.0</ele><time>2026-05-03T10:59:24.001Z</time></trkpt><trkpt lat="40.272900357758616" lon="8.48713028287322"><ele>31.000000000000004</ele><time>2026-05-03T10:59:27.001Z</time></trkpt><trkpt lat="40.27285110012982" lon="8.487014938550082"><ele>31.0</ele><time>2026-05-03T10:59:29.001Z</time></trkpt><trkpt lat="40.272787537386044" lon="8.486958339726984"><ele>28.2</ele><time>2026-05-03T10:59:30.001Z</time></trkpt><trkpt lat="40.27272853130004" lon="8.486864807259655"><ele>25.400000000000002</ele><time>2026-05-03T10:59:31.001Z</time></trkpt><trkpt lat="40.27267567041949" lon="8.486790523059266"><ele>22.6</ele><time>2026-05-03T10:59:32.001Z</time></trkpt><trkpt lat="40.27260829332388" lon="8.486719666143227"><ele>19.8</ele><time>2026-05-03T10:59:33.001Z</time></trkpt><trkpt lat="40.27255580099398" lon="8.486617893132058"><ele>17.0</ele><time>2026-05-03T10:59:34.001Z</time></trkpt><trkpt lat="40.272512266417685" lon="8.48649658432813"><ele>17.0</ele><time>2026-05-03T10:59:35.001Z</time></trkpt><trkpt lat="40.272475109070726" lon="8.48637651728944"><ele>17.0</ele><time>2026-05-03T10:59:36.001Z</time></trkpt><trkpt lat="40.27243790438155" lon="8.486254533078716"><ele>17.0</ele><time>2026-05-03T10:59:37.001Z</time></trkpt><trkpt lat="40.27240502673519" lon="8.486140508298996"><ele>17.0</ele><time>2026-05-03T10:59:38.001Z</time></trkpt><trkpt lat="40.272377484922764" lon="8.486027221766337"><ele>17.0</ele><time>2026-05-03T10:59:39.001Z</time></trkpt><trkpt lat="40.27235399499253" lon="8.48592019492234"><ele>17.5</ele><time>2026-05-03T10:59:40.001Z</time></trkpt><trkpt lat="40.27231858072365" lon="8.485809998818555"><ele>18.0</ele><time>2026-05-03T10:59:41.001Z</time></trkpt><trkpt lat="40.272293712770185" lon="8.48570495952187"><ele>18.5</ele><time>2026-05-03T10:59:42.001Z</time></trkpt><trkpt lat="40.27226719695318" lon="8.485593085246718"><ele>19.0</ele><time>2026-05-03T10:59:43.001Z</time></trkpt><trkpt lat="40.27225090121929" lon="8.485488627128676"><ele>19.5</ele><time>2026-05-03T10:59:44.001Z</time></trkpt><trkpt lat="40.27223806440204" lon="8.485377302738009"><ele>20.0</ele><time>2026-05-03T10:59:45.001Z</time></trkpt><trkpt lat="40.27223117531997" lon="8.485268849509852"><ele>20.0</ele><time>2026-05-03T10:59:46.001Z</time></trkpt><trkpt lat="40.27222676104632" lon="8.48515866200996"><ele>20.0</ele><time>2026-05-03T10:59:47.001Z</time></trkpt><trkpt lat="40.27222679653717" lon="8.485056650256526"><ele>20.0</ele><time>2026-05-03T10:59:48.001Z</time></trkpt><trkpt lat="40.27223225301534" lon="8.48495013365879"><ele>20.0</ele><time>2026-05-03T10:59:49.001Z</time></trkpt><trkpt lat="40.27224542423591" lon="8.48484028410326"><ele>20.0</ele><time>2026-05-03T10:59:50.001Z</time></trkpt><trkpt lat="40.272267827857426" lon="8.484739003562824"><ele>20.0</ele><time>2026-05-03T10:59:51.001Z</time></trkpt><trkpt lat="40.272308147697146" lon="8.484645284712126"><ele>17.166666666666668</ele><time>2026-05-03T10:59:52.001Z</time></trkpt><trkpt lat="40.27236496446576" lon="8.484563858454768"><ele>14.333333333333334</ele><time>2026-05-03T10:59:53.001Z</time></trkpt><trkpt lat="40.27243395142428" lon="8.484502748104585"><ele>11.5</ele><time>2026-05-03T10:59:54.001Z</time></trkpt><trkpt lat="40.27250996627996" lon="8.484466517758449"><ele>8.666666666666668</ele><time>2026-05-03T10:59:55.001Z</time></trkpt><trkpt lat="40.272597013078396" lon="8.484461425754228"><ele>5.833333333333334</ele><time>2026-05-03T10:59:56.001Z</time></trkpt><trkpt lat="40.27267802702472" lon="8.484485273413318"><ele>3.0</ele><time>2026-05-03T10:59:57.001Z</time></trkpt><trkpt lat="40.27276439053923" lon="8.484535828029038"><ele>3.0</ele><time>2026-05-03T10:59:58.001Z</time></trkpt><trkpt lat="40.27287045463045" lon="8.484593676873644"><ele>3.0</ele><time>2026-05-03T10:59:59.001Z</time></trkpt><trkpt lat="40.27299139898292" lon="8.484660160092702"><ele>3.0</ele><time>2026-05-03T11:00:00.001Z</time></trkpt><trkpt lat="40.27310755137697" lon="8.48474532074997"><ele>3.0</ele><time>2026-05-03T11:00:01.001Z</time></trkpt><trkpt lat="40.27326555958204" lon="8.484801647116067"><ele>4.0</ele><time>2026-05-03T11:00:02.001Z</time></trkpt><trkpt lat="40.273428638640084" lon="8.484858772835578"><ele>5.0</ele><time>2026-05-03T11:00:03.001Z</time></trkpt><trkpt lat="40.27357722707337" lon="8.48488723086169"><ele>6.0</ele><time>2026-05-03T11:00:04.001Z</time></trkpt><trkpt lat="40.27372609480891" lon="8.484895574027114"><ele>6.0</ele><time>2026-05-03T11:00:05.001Z</time></trkpt><trkpt lat="40.273870889318246" lon="8.484883572878214"><ele>6.0</ele><time>2026-05-03T11:00:06.001Z</time></trkpt><trkpt lat="40.27400649825415" lon="8.484852149445121"><ele>6.0</ele><time>2026-05-03T11:00:07.001Z</time></trkpt><trkpt lat="40.2741323529792" lon="8.484812699877185"><ele>6.0</ele><time>2026-05-03T11:00:08.001Z</time></trkpt><trkpt lat="40.27425700705444" lon="8.484768373647148"><ele>6.6</ele><time>2026-05-03T11:00:09.001Z</time></trkpt><trkpt lat="40.27437008973956" lon="8.484720719721137"><ele>7.199999999999999</ele><time>2026-05-03T11:00:10.001Z</time></trkpt><trkpt lat="40.274472235198694" lon="8.484668608027667"><ele>7.800000000000001</ele><time>2026-05-03T11:00:11.001Z</time></trkpt><trkpt lat="40.27456618605137" lon="8.484615392570358"><ele>8.4</ele><time>2026-05-03T11:00:12.001Z</time></trkpt><trkpt lat="40.27466173114553" lon="8.48455820151585"><ele>9.0</ele><time>2026-05-03T11:00:13.001Z</time></trkpt><trkpt lat="40.27476281140836" lon="8.484501901190356"><ele>7.75</ele><time>2026-05-03T11:00:14.001Z</time></trkpt><trkpt lat="40.27486469690852" lon="8.484448467834277"><ele>6.5</ele><time>2026-05-03T11:00:15.001Z</time></trkpt><trkpt lat="40.274968501152465" lon="8.484402303840216"><ele>5.25</ele><time>2026-05-03T11:00:16.001Z</time></trkpt><trkpt lat="40.27508177876204" lon="8.484368349536535"><ele>4.0</ele><time>2026-05-03T11:00:17.001Z</time></trkpt><trkpt lat="40.27520608490695" lon="8.484345826829978"><ele>4.0</ele><time>2026-05-03T11:00:18.001Z</time></trkpt><trkpt lat="40.275341709831885" lon="8.484333607748606"><ele>4.0</ele><time>2026-05-03T11:00:19.001Z</time></trkpt><trkpt lat="40.275476167292446" lon="8.48432698025364"><ele>4.0</ele><time>2026-05-03T11:00:20.001Z</time></trkpt><trkpt lat="40.27562303093479" lon="8.484311135143056"><ele>4.0</ele><time>2026-05-03T11:00:21.001Z</time></trkpt><trkpt lat="40.275761396667896" lon="8.484286516904897"><ele>4.25</ele><time>2026-05-03T11:00:22.001Z</time></trkpt><trkpt lat="40.27589945911363" lon="8.484256294000403"><ele>4.5</ele><time>2026-05-03T11:00:23.001Z</time></trkpt><trkpt lat="40.276033578960345" lon="8.48422528044424"><ele>4.75</ele><time>2026-05-03T11:00:24.001Z</time></trkpt><trkpt lat="40.27617245490273" lon="8.484191267426764"><ele>5.0</ele><time>2026-05-03T11:00:25.001Z</time></trkpt><trkpt lat="40.27633714712393" lon="8.484142876675348"><ele>7.0</ele><time>2026-05-03T11:00:26.001Z</time></trkpt><trkpt lat="40.27651627749868" lon="8.484099036723212"><ele>9.0</ele><time>2026-05-03T11:00:27.001Z</time></trkpt><trkpt lat="40.27670472743807" lon="8.484067427578768"><ele>11.0</ele><time>2026-05-03T11:00:28.001Z</time></trkpt><trkpt lat="40.276882808291035" lon="8.484032985238592"><ele>11.0</ele><time>2026-05-03T11:00:29.001Z</time></trkpt><trkpt lat="40.27704418794643" lon="8.484002962150663"><ele>11.0</ele><time>2026-05-03T11:00:30.001Z</time></trkpt><trkpt lat="40.27720090030448" lon="8.48399029745698"><ele>11.0</ele><time>2026-05-03T11:00:31.001Z</time></trkpt><trkpt lat="40.27736374426745" lon="8.484012356673043"><ele>11.333333333333332</ele><time>2026-05-03T11:00:32.001Z</time></trkpt><trkpt lat="40.27753733862391" lon="8.484050379562307"><ele>11.666666666666666</ele><time>2026-05-03T11:00:33.001Z</time></trkpt><trkpt lat="40.2777200239551" lon="8.484072422339825"><ele>12.0</ele><time>2026-05-03T11:00:34.001Z</time></trkpt><trkpt lat="40.27791639647993" lon="8.484075073251844"><ele>13.333333333333332</ele><time>2026-05-03T11:00:35.001Z</time></trkpt><trkpt lat="40.27812021512052" lon="8.48406155424904"><ele>14.666666666666666</ele><time>2026-05-03T11:00:36.001Z</time></trkpt><trkpt lat="40.27832102125404" lon="8.484038909301317"><ele>16.0</ele><time>2026-05-03T11:00:37.001Z</time></trkpt><trkpt lat="40.27851318390897" lon="8.484008216737434"><ele>16.0</ele><time>2026-05-03T11:00:38.001Z</time></trkpt><trkpt lat="40.27869831779984" lon="8.483969906231394"><ele>16.0</ele><time>2026-05-03T11:00:39.001Z</time></trkpt><trkpt lat="40.27887460309784" lon="8.483918371309878"><ele>16.0</ele><time>2026-05-03T11:00:40.001Z</time></trkpt><trkpt lat="40.27904286216994" lon="8.483866958448539"><ele>17.0</ele><time>2026-05-03T11:00:41.001Z</time></trkpt><trkpt lat="40.27920752772543" lon="8.483828169611238"><ele>18.0</ele><time>2026-05-03T11:00:42.001Z</time></trkpt><trkpt lat="40.27937555255036" lon="8.483810682035593"><ele>19.0</ele><time>2026-05-03T11:00:43.001Z</time></trkpt><trkpt lat="40.27955018814096" lon="8.483823676213833"><ele>19.0</ele><time>2026-05-03T11:00:44.001Z</time></trkpt><trkpt lat="40.27972806263022" lon="8.48386459360638"><ele>19.0</ele><time>2026-05-03T11:00:45.001Z</time></trkpt><trkpt lat="40.2799090096564" lon="8.483909187526605"><ele>19.0</ele><time>2026-05-03T11:00:46.001Z</time></trkpt><trkpt lat="40.280072957795" lon="8.483937820398008"><ele>19.0</ele><time>2026-05-03T11:00:47.001Z</time></trkpt><trkpt lat="40.2802251552838" lon="8.48393185132383"><ele>19.0</ele><time>2026-05-03T11:00:48.001Z</time></trkpt><trkpt lat="40.28038350789688" lon="8.483886265953782"><ele>19.0</ele><time>2026-05-03T11:00:49.001Z</time></trkpt><trkpt lat="40.28054613584804" lon="8.483818597377418"><ele>13.333333333333332</ele><time>2026-05-03T11:00:50.001Z</time></trkpt><trkpt lat="40.28071187424368" lon="8.483757427321626"><ele>7.666666666666666</ele><time>2026-05-03T11:00:51.001Z</time></trkpt><trkpt lat="40.280882856058625" lon="8.48371934274739"><ele>2.0</ele><time>2026-05-03T11:00:52.001Z</time></trkpt><trkpt lat="40.281062805087295" lon="8.483715873496914"><ele>2.0</ele><time>2026-05-03T11:00:53.001Z</time></trkpt><trkpt lat="40.28125613788052" lon="8.48372678994937"><ele>2.0</ele><time>2026-05-03T11:00:54.001Z</time></trkpt><trkpt lat="40.281455274310304" lon="8.483736078535994"><ele>2.0</ele><time>2026-05-03T11:00:55.001Z</time></trkpt><trkpt lat="40.28165471937111" lon="8.483754869171664"><ele>7.666666666666666</ele><time>2026-05-03T11:00:56.001Z</time></trkpt><trkpt lat="40.28184886824899" lon="8.483780913595064"><ele>13.333333333333332</ele><time>2026-05-03T11:00:57.001Z</time></trkpt><trkpt lat="40.282038085838536" lon="8.483813444343513"><ele>19.0</ele><time>2026-05-03T11:00:58.001Z</time></trkpt><trkpt lat="40.28221437332808" lon="8.483849360848966"><ele>16.333333333333332</ele><time>2026-05-03T11:00:59.001Z</time></trkpt><trkpt lat="40.282387921430804" lon="8.483886525459186"><ele>13.666666666666666</ele><time>2026-05-03T11:01:00.001Z</time></trkpt><trkpt lat="40.28255727352233" lon="8.483912662495923"><ele>11.0</ele><time>2026-05-03T11:01:01.001Z</time></trkpt><trkpt lat="40.28273001983712" lon="8.48392307275208"><ele>11.0</ele><time>2026-05-03T11:01:02.001Z</time></trkpt><trkpt lat="40.282889854714064" lon="8.483911077991523"><ele>11.0</ele><time>2026-05-03T11:01:03.001Z</time></trkpt><trkpt lat="40.283051898523624" lon="8.483876293036117"><ele>11.0</ele><time>2026-05-03T11:01:04.001Z</time></trkpt><trkpt lat="40.28319927592623" lon="8.483831130590882"><ele>10.0</ele><time>2026-05-03T11:01:05.001Z</time></trkpt><trkpt lat="40.28333104559587" lon="8.483774629076057"><ele>9.0</ele><time>2026-05-03T11:01:06.001Z</time></trkpt><trkpt lat="40.28344899410203" lon="8.483710942774536"><ele>8.0</ele><time>2026-05-03T11:01:07.001Z</time></trkpt><trkpt lat="40.283550643383535" lon="8.483653866530634"><ele>7.0</ele><time>2026-05-03T11:01:08.001Z</time></trkpt><trkpt lat="40.283642623205985" lon="8.483625010943289"><ele>7.0</ele><time>2026-05-03T11:01:09.001Z</time></trkpt><trkpt lat="40.28371820007492" lon="8.483601460444286"><ele>6.999999999999999</ele><time>2026-05-03T11:01:10.001Z</time></trkpt><trkpt lat="40.28384208406462" lon="8.48376143325576"><ele>6.999999999999999</ele><time>2026-05-03T11:01:12.001Z</time></trkpt><trkpt lat="40.283825973725065" lon="8.483841811293468"><ele>7.0</ele><time>2026-05-03T11:01:13.001Z</time></trkpt><trkpt lat="40.2838435029916" lon="8.483939781109253"><ele>7.0</ele><time>2026-05-03T11:01:14.001Z</time></trkpt><trkpt lat="40.28389158466384" lon="8.484010711945112"><ele>7.000000000000001</ele><time>2026-05-03T11:01:15.001Z</time></trkpt><trkpt lat="40.283929394746714" lon="8.484080076082188"><ele>7.0</ele><time>2026-05-03T11:01:16.001Z</time></trkpt><trkpt lat="40.283973284536785" lon="8.484151310873779"><ele>7.0</ele><time>2026-05-03T11:01:17.001Z</time></trkpt><trkpt lat="40.2840329222965" lon="8.484235700201461"><ele>7.0</ele><time>2026-05-03T11:01:18.001Z</time></trkpt><trkpt lat="40.28410844424201" lon="8.48432537392004"><ele>7.000000000000001</ele><time>2026-05-03T11:01:19.001Z</time></trkpt><trkpt lat="40.28420073674538" lon="8.484400277123381"><ele>7.0</ele><time>2026-05-03T11:01:20.001Z</time></trkpt><trkpt lat="40.2842988464416" lon="8.484453976441918"><ele>7.0</ele><time>2026-05-03T11:01:21.001Z</time></trkpt><trkpt lat="40.28440779259767" lon="8.484497173295198"><ele>7.0</ele><time>2026-05-03T11:01:22.001Z</time></trkpt><trkpt lat="40.284520119287095" lon="8.484543825311965"><ele>7.0</ele><time>2026-05-03T11:01:23.001Z</time></trkpt><trkpt lat="40.284648725624336" lon="8.48459230044039"><ele>7.0</ele><time>2026-05-03T11:01:24.001Z</time></trkpt><trkpt lat="40.28478861795821" lon="8.484641005928559"><ele>7.0</ele><time>2026-05-03T11:01:25.001Z</time></trkpt><trkpt lat="40.284949681133476" lon="8.484687284869123"><ele>7.0</ele><time>2026-05-03T11:01:26.001Z</time></trkpt><trkpt lat="40.28513920127857" lon="8.484768030539785"><ele>7.0</ele><time>2026-05-03T11:01:27.001Z</time></trkpt><trkpt lat="40.28533922952851" lon="8.484840747044826"><ele>7.0</ele><time>2026-05-03T11:01:28.001Z</time></trkpt><trkpt lat="40.285550536464" lon="8.484895923141684"><ele>7.0</ele><time>2026-05-03T11:01:29.001Z</time></trkpt><trkpt lat="40.28576614743889" lon="8.484989518319853"><ele>7.0</ele><time>2026-05-03T11:01:30.001Z</time></trkpt><trkpt lat="40.28596225273055" lon="8.48507575399084"><ele>6.666666666666667</ele><time>2026-05-03T11:01:31.001Z</time></trkpt><trkpt lat="40.286155681915155" lon="8.485151015042465"><ele>6.333333333333334</ele><time>2026-05-03T11:01:32.001Z</time></trkpt><trkpt lat="40.28635728113427" lon="8.48521687365913"><ele>6.0</ele><time>2026-05-03T11:01:33.001Z</time></trkpt><trkpt lat="40.286557600864114" lon="8.4852634822604"><ele>4.666666666666667</ele><time>2026-05-03T11:01:34.001Z</time></trkpt><trkpt lat="40.28674755802065" lon="8.485292818755703"><ele>3.333333333333333</ele><time>2026-05-03T11:01:35.001Z</time></trkpt><trkpt lat="40.28692641132761" lon="8.485306736506471"><ele>2.0</ele><time>2026-05-03T11:01:36.001Z</time></trkpt><trkpt lat="40.28709157676426" lon="8.485331814712188"><ele>2.0</ele><time>2026-05-03T11:01:37.001Z</time></trkpt><trkpt lat="40.28723485794133" lon="8.485362698789475"><ele>2.0</ele><time>2026-05-03T11:01:38.001Z</time></trkpt><trkpt lat="40.287375025349085" lon="8.485416229584535"><ele>2.0</ele><time>2026-05-03T11:01:39.001Z</time></trkpt><trkpt lat="40.28752046062845" lon="8.485498116792549"><ele>2.0</ele><time>2026-05-03T11:01:40.001Z</time></trkpt><trkpt lat="40.28767395573985" lon="8.48558320758025"><ele>1.6666666666666665</ele><time>2026-05-03T11:01:41.001Z</time></trkpt><trkpt lat="40.28783583186277" lon="8.485651914749283"><ele>1.3333333333333333</ele><time>2026-05-03T11:01:42.001Z</time></trkpt><trkpt lat="40.28799632668178" lon="8.485708356310514"><ele>1.0</ele><time>2026-05-03T11:01:43.001Z</time></trkpt><trkpt lat="40.28815062945032" lon="8.485749283935437"><ele>1.0</ele><time>2026-05-03T11:01:44.001Z</time></trkpt><trkpt lat="40.288301431800726" lon="8.485785446201454"><ele>1.0</ele><time>2026-05-03T11:01:45.001Z</time></trkpt><trkpt lat="40.28845163788906" lon="8.485813706423967"><ele>1.0</ele><time>2026-05-03T11:01:46.001Z</time></trkpt><trkpt lat="40.288596238079236" lon="8.48584104820486"><ele>1.0</ele><time>2026-05-03T11:01:47.001Z</time></trkpt><trkpt lat="40.28873786389156" lon="8.485872813556679"><ele>1.0</ele><time>2026-05-03T11:01:48.001Z</time></trkpt><trkpt lat="40.288876806308735" lon="8.485901990952305"><ele>1.0</ele><time>2026-05-03T11:01:49.001Z</time></trkpt><trkpt lat="40.289009323315206" lon="8.485926225855215"><ele>1.0</ele><time>2026-05-03T11:01:50.001Z</time></trkpt><trkpt lat="40.28914273582915" lon="8.485950436772766"><ele>1.25</ele><time>2026-05-03T11:01:51.001Z</time></trkpt><trkpt lat="40.28927979527231" lon="8.485976560186424"><ele>1.5</ele><time>2026-05-03T11:01:52.001Z</time></trkpt><trkpt lat="40.28942314623412" lon="8.486003352048018"><ele>1.75</ele><time>2026-05-03T11:01:53.001Z</time></trkpt><trkpt lat="40.289561390981895" lon="8.486027609328714"><ele>2.0</ele><time>2026-05-03T11:01:54.001Z</time></trkpt><trkpt lat="40.289700018350025" lon="8.486053706914044"><ele>2.0</ele><time>2026-05-03T11:01:55.001Z</time></trkpt><trkpt lat="40.28983304810376" lon="8.48608449648666"><ele>2.0</ele><time>2026-05-03T11:01:56.001Z</time></trkpt><trkpt lat="40.28996208284765" lon="8.486127002816612"><ele>2.0</ele><time>2026-05-03T11:01:57.001Z</time></trkpt><trkpt lat="40.29008368193068" lon="8.486191448651777"><ele>2.0</ele><time>2026-05-03T11:01:58.001Z</time></trkpt><trkpt lat="40.29018691253203" lon="8.486287236076235"><ele>4.75</ele><time>2026-05-03T11:01:59.001Z</time></trkpt><trkpt lat="40.29027078594858" lon="8.486417585030853"><ele>7.5</ele><time>2026-05-03T11:02:00.001Z</time></trkpt><trkpt lat="40.2903404460408" lon="8.486565686506836"><ele>10.25</ele><time>2026-05-03T11:02:01.001Z</time></trkpt><trkpt lat="40.2904016849817" lon="8.486719789734"><ele>13.0</ele><time>2026-05-03T11:02:02.001Z</time></trkpt><trkpt lat="40.29045733739445" lon="8.486877210987952"><ele>13.0</ele><time>2026-05-03T11:02:03.001Z</time></trkpt><trkpt lat="40.29051166500808" lon="8.487033897160634"><ele>13.0</ele><time>2026-05-03T11:02:04.001Z</time></trkpt><trkpt lat="40.290564493374525" lon="8.487191822874504"><ele>13.0</ele><time>2026-05-03T11:02:05.001Z</time></trkpt><trkpt lat="40.29061784181036" lon="8.48734709142505"><ele>13.0</ele><time>2026-05-03T11:02:06.001Z</time></trkpt><trkpt lat="40.29067443800781" lon="8.4874968356513"><ele>10.5</ele><time>2026-05-03T11:02:07.001Z</time></trkpt><trkpt lat="40.290736820964035" lon="8.487643569477992"><ele>8.0</ele><time>2026-05-03T11:02:08.001Z</time></trkpt><trkpt lat="40.29081413137001" lon="8.48776757108542"><ele>5.5</ele><time>2026-05-03T11:02:09.001Z</time></trkpt><trkpt lat="40.290900024602756" lon="8.487873619956915"><ele>3.0</ele><time>2026-05-03T11:02:10.001Z</time></trkpt><trkpt lat="40.290986760561815" lon="8.487969393692087"><ele>3.0</ele><time>2026-05-03T11:02:11.001Z</time></trkpt><trkpt lat="40.29107408819268" lon="8.488062047332319"><ele>3.0</ele><time>2026-05-03T11:02:12.001Z</time></trkpt><trkpt lat="40.2911626632898" lon="8.48815357116284"><ele>3.0</ele><time>2026-05-03T11:02:13.001Z</time></trkpt><trkpt lat="40.29124592739884" lon="8.4882493773256"><ele>3.0</ele><time>2026-05-03T11:02:14.001Z</time></trkpt><trkpt lat="40.29132273750218" lon="8.488363699262022"><ele>3.0</ele><time>2026-05-03T11:02:15.001Z</time></trkpt><trkpt lat="40.291392095495354" lon="8.488507118839724"><ele>3.0</ele><time>2026-05-03T11:02:16.001Z</time></trkpt><trkpt lat="40.29145808319321" lon="8.48865898305814"><ele>3.0</ele><time>2026-05-03T11:02:17.001Z</time></trkpt><trkpt lat="40.29152025426674" lon="8.488796499459474"><ele>3.0</ele><time>2026-05-03T11:02:18.001Z</time></trkpt><trkpt lat="40.29157785600203" lon="8.488927468689633"><ele>3.5999999999999996</ele><time>2026-05-03T11:02:19.001Z</time></trkpt><trkpt lat="40.29163502629522" lon="8.489050587963042"><ele>4.199999999999999</ele><time>2026-05-03T11:02:20.001Z</time></trkpt><trkpt lat="40.29169385949001" lon="8.48914284385093"><ele>4.8</ele><time>2026-05-03T11:02:21.001Z</time></trkpt><trkpt lat="40.291768831717334" lon="8.48921147670169"><ele>5.3999999999999995</ele><time>2026-05-03T11:02:23.001Z</time></trkpt><trkpt lat="40.291871630177596" lon="8.48913493689098"><ele>6.0</ele><time>2026-05-03T11:02:26.001Z</time></trkpt><trkpt lat="40.291896482984505" lon="8.48902429837909"><ele>6.0</ele><time>2026-05-03T11:02:27.001Z</time></trkpt><trkpt lat="40.29192097413551" lon="8.488906182616654"><ele>6.0</ele><time>2026-05-03T11:02:28.001Z</time></trkpt><trkpt lat="40.291948182868076" lon="8.488764278925796"><ele>6.0</ele><time>2026-05-03T11:02:29.001Z</time></trkpt><trkpt lat="40.29197362408389" lon="8.48862360248655"><ele>6.0</ele><time>2026-05-03T11:02:30.001Z</time></trkpt><trkpt lat="40.29200598321434" lon="8.488459009178909"><ele>6.0</ele><time>2026-05-03T11:02:31.001Z</time></trkpt><trkpt lat="40.29204370472258" lon="8.48827312303471"><ele>5.0</ele><time>2026-05-03T11:02:32.001Z</time></trkpt><trkpt lat="40.292088440703935" lon="8.48807010169306"><ele>4.0</ele><time>2026-05-03T11:02:33.001Z</time></trkpt><trkpt lat="40.29213660590464" lon="8.487850004547928"><ele>3.0</ele><time>2026-05-03T11:02:34.001Z</time></trkpt><trkpt lat="40.29218573909996" lon="8.48761599761764"><ele>3.0</ele><time>2026-05-03T11:02:35.001Z</time></trkpt><trkpt lat="40.29223413491965" lon="8.487369557437894"><ele>3.0</ele><time>2026-05-03T11:02:36.001Z</time></trkpt><trkpt lat="40.292286267687466" lon="8.487116014671306"><ele>3.0</ele><time>2026-05-03T11:02:37.001Z</time></trkpt><trkpt lat="40.29234105443759" lon="8.486860308732847"><ele>3.333333333333333</ele><time>2026-05-03T11:02:38.001Z</time></trkpt><trkpt lat="40.292397286483336" lon="8.486598986661983"><ele>3.6666666666666665</ele><time>2026-05-03T11:02:39.001Z</time></trkpt><trkpt lat="40.29245372326289" lon="8.486327359209902"><ele>4.0</ele><time>2026-05-03T11:02:40.001Z</time></trkpt><trkpt lat="40.29250886886172" lon="8.48605685204579"><ele>4.0</ele><time>2026-05-03T11:02:41.001Z</time></trkpt><trkpt lat="40.29256536909731" lon="8.485791119323443"><ele>4.0</ele><time>2026-05-03T11:02:42.001Z</time></trkpt><trkpt lat="40.292620055632625" lon="8.485543460205385"><ele>4.0</ele><time>2026-05-03T11:02:43.001Z</time></trkpt><trkpt lat="40.29267545441756" lon="8.485308548187296"><ele>3.6666666666666665</ele><time>2026-05-03T11:02:44.001Z</time></trkpt><trkpt lat="40.29272016339463" lon="8.485080809890086"><ele>3.333333333333333</ele><time>2026-05-03T11:02:45.001Z</time></trkpt><trkpt lat="40.292741715549795" lon="8.48486566807983"><ele>3.0</ele><time>2026-05-03T11:02:46.001Z</time></trkpt><trkpt lat="40.292742513189225" lon="8.484662484898921"><ele>2.5</ele><time>2026-05-03T11:02:47.001Z</time></trkpt><trkpt lat="40.29273163259843" lon="8.484469798576361"><ele>2.0</ele><time>2026-05-03T11:02:48.001Z</time></trkpt><trkpt lat="40.29272288791637" lon="8.484292827835809"><ele>1.5</ele><time>2026-05-03T11:02:49.001Z</time></trkpt><trkpt lat="40.292730935598854" lon="8.48413380157738"><ele>1.0</ele><time>2026-05-03T11:02:50.001Z</time></trkpt><trkpt lat="40.29276330261609" lon="8.48399308576829"><ele>1.0</ele><time>2026-05-03T11:02:51.001Z</time></trkpt><trkpt lat="40.29281067187362" lon="8.48387371341424"><ele>1.0</ele><time>2026-05-03T11:02:52.001Z</time></trkpt><trkpt lat="40.292876484482264" lon="8.483776669748378"><ele>1.0</ele><time>2026-05-03T11:02:53.001Z</time></trkpt><trkpt lat="40.2929582146819" lon="8.483701788162758"><ele>1.0</ele><time>2026-05-03T11:02:54.001Z</time></trkpt><trkpt lat="40.29305394573359" lon="8.483652469157807"><ele>1.0</ele><time>2026-05-03T11:02:55.001Z</time></trkpt><trkpt lat="40.293173750261694" lon="8.483637417353846"><ele>1.0</ele><time>2026-05-03T11:02:56.001Z</time></trkpt><trkpt lat="40.29330792546034" lon="8.483649932267381"><ele>1.0</ele><time>2026-05-03T11:02:57.001Z</time></trkpt><trkpt lat="40.29344568028096" lon="8.48369824380516"><ele>1.0</ele><time>2026-05-03T11:02:58.001Z</time></trkpt><trkpt lat="40.293593331161254" lon="8.483786702817515"><ele>1.0</ele><time>2026-05-03T11:02:59.001Z</time></trkpt><trkpt lat="40.29374624701255" lon="8.483899008104636"><ele>1.0</ele><time>2026-05-03T11:03:00.001Z</time></trkpt><trkpt lat="40.293914104100345" lon="8.48401924919559"><ele>1.0</ele><time>2026-05-03T11:03:01.001Z</time></trkpt><trkpt lat="40.29408638651805" lon="8.484137937862453"><ele>1.0</ele><time>2026-05-03T11:03:02.001Z</time></trkpt><trkpt lat="40.29424452046571" lon="8.48424948620857"><ele>1.0</ele><time>2026-05-03T11:03:03.001Z</time></trkpt><trkpt lat="40.29440163775036" lon="8.484361101586332"><ele>1.0</ele><time>2026-05-03T11:03:04.001Z</time></trkpt><trkpt lat="40.294555057694275" lon="8.484469895913065"><ele>1.0</ele><time>2026-05-03T11:03:05.001Z</time></trkpt><trkpt lat="40.29469682358022" lon="8.484572433355064"><ele>1.25</ele><time>2026-05-03T11:03:06.001Z</time></trkpt><trkpt lat="40.29482968599124" lon="8.484666593886896"><ele>1.5</ele><time>2026-05-03T11:03:07Z</time></trkpt><trkpt lat="40.29495775273774" lon="8.484758128537505"><ele>1.75</ele><time>2026-05-03T11:03:08Z</time></trkpt><trkpt lat="40.29508289884387" lon="8.484844303209806"><ele>2.0</ele><time>2026-05-03T11:03:09Z</time></trkpt><trkpt lat="40.295202174878625" lon="8.484927331838707"><ele>2.0</ele><time>2026-05-03T11:03:10Z</time></trkpt><trkpt lat="40.29531831807481" lon="8.485003697451733"><ele>2.0</ele><time>2026-05-03T11:03:11Z</time></trkpt><trkpt lat="40.295442195318884" lon="8.485056563902297"><ele>2.0</ele><time>2026-05-03T11:03:12Z</time></trkpt><trkpt lat="40.29558997472106" lon="8.485078426328663"><ele>2.0</ele><time>2026-05-03T11:03:13Z</time></trkpt><trkpt lat="40.29575520779662" lon="8.485074110044382"><ele>2.0</ele><time>2026-05-03T11:03:14Z</time></trkpt><trkpt lat="40.29593221483831" lon="8.48508445689118"><ele>2.0</ele><time>2026-05-03T11:03:15Z</time></trkpt><trkpt lat="40.296106961882536" lon="8.485044718529698"><ele>2.0</ele><time>2026-05-03T11:03:16Z</time></trkpt><trkpt lat="40.296292180285505" lon="8.4850395107116"><ele>2.333333333333333</ele><time>2026-05-03T11:03:17Z</time></trkpt><trkpt lat="40.29646026012881" lon="8.485039518963017"><ele>2.6666666666666665</ele><time>2026-05-03T11:03:18Z</time></trkpt><trkpt lat="40.29661625578346" lon="8.485033442417034"><ele>3.0</ele><time>2026-05-03T11:03:19Z</time></trkpt><trkpt lat="40.29675872981788" lon="8.485028003574156"><ele>3.0</ele><time>2026-05-03T11:03:20Z</time></trkpt><trkpt lat="40.29688538214494" lon="8.485019155664451"><ele>3.0</ele><time>2026-05-03T11:03:21Z</time></trkpt><trkpt lat="40.296991125520464" lon="8.48502961455101"><ele>3.0</ele><time>2026-05-03T11:03:22Z</time></trkpt><trkpt lat="40.297093466416825" lon="8.485049539448514"><ele>3.0</ele><time>2026-05-03T11:03:23Z</time></trkpt><trkpt lat="40.29720393822229" lon="8.485033232752487"><ele>3.0</ele><time>2026-05-03T11:03:24Z</time></trkpt><trkpt lat="40.29732936455849" lon="8.484995410994738"><ele>3.0</ele><time>2026-05-03T11:03:25Z</time></trkpt><trkpt lat="40.29746521548377" lon="8.48496208949582"><ele>3.0</ele><time>2026-05-03T11:03:26Z</time></trkpt><trkpt lat="40.297602772484325" lon="8.484947166320692"><ele>3.0</ele><time>2026-05-03T11:03:27Z</time></trkpt><trkpt lat="40.29774910352235" lon="8.484941905641785"><ele>3.0</ele><time>2026-05-03T11:03:28Z</time></trkpt><trkpt lat="40.29790417835613" lon="8.484936173249618"><ele>3.0</ele><time>2026-05-03T11:03:29Z</time></trkpt><trkpt lat="40.29806400716638" lon="8.484923133304079"><ele>3.0</ele><time>2026-05-03T11:03:30Z</time></trkpt><trkpt lat="40.29822491924897" lon="8.484909022351314"><ele>3.0</ele><time>2026-05-03T11:03:31Z</time></trkpt><trkpt lat="40.29839234485972" lon="8.484898064926922"><ele>3.0</ele><time>2026-05-03T11:03:32Z</time></trkpt><trkpt lat="40.298572066359114" lon="8.484887397902702"><ele>3.0</ele><time>2026-05-03T11:03:33Z</time></trkpt><trkpt lat="40.29875485347262" lon="8.484874483835402"><ele>3.0</ele><time>2026-05-03T11:03:34Z</time></trkpt><trkpt lat="40.29893727041303" lon="8.484860628008889"><ele>3.666666666666667</ele><time>2026-05-03T11:03:35Z</time></trkpt><trkpt lat="40.29911992392411" lon="8.484849093322548"><ele>4.333333333333334</ele><time>2026-05-03T11:03:36Z</time></trkpt><trkpt lat="40.29930468382265" lon="8.484840331499486"><ele>5.0</ele><time>2026-05-03T11:03:37Z</time></trkpt><trkpt lat="40.2994927198921" lon="8.484831412187367"><ele>5.0</ele><time>2026-05-03T11:03:38Z</time></trkpt><trkpt lat="40.29968646805939" lon="8.484820401399057"><ele>5.0</ele><time>2026-05-03T11:03:39Z</time></trkpt><trkpt lat="40.29988434675814" lon="8.484809298944933"><ele>5.0</ele><time>2026-05-03T11:03:40Z</time></trkpt><trkpt lat="40.30008711585023" lon="8.484801614823768"><ele>5.0</ele><time>2026-05-03T11:03:41Z</time></trkpt><trkpt lat="40.30029325319893" lon="8.484799830565967"><ele>5.0</ele><time>2026-05-03T11:03:42Z</time></trkpt><trkpt lat="40.300499780468606" lon="8.484810068575612"><ele>5.0</ele><time>2026-05-03T11:03:43Z</time></trkpt><trkpt lat="40.30070430297854" lon="8.484825540315917"><ele>5.333333333333334</ele><time>2026-05-03T11:03:44Z</time></trkpt><trkpt lat="40.30090679555592" lon="8.484841062799127"><ele>5.666666666666667</ele><time>2026-05-03T11:03:45Z</time></trkpt><trkpt lat="40.30110902787896" lon="8.484846667183202"><ele>6.0</ele><time>2026-05-03T11:03:46Z</time></trkpt><trkpt lat="40.301306462027796" lon="8.484855263998156"><ele>7.0</ele><time>2026-05-03T11:03:47Z</time></trkpt><trkpt lat="40.301487293269304" lon="8.484867219295865"><ele>8.0</ele><time>2026-05-03T11:03:48Z</time></trkpt><trkpt lat="40.30166450292651" lon="8.484862272503976"><ele>9.0</ele><time>2026-05-03T11:03:49Z</time></trkpt><trkpt lat="40.30183801986975" lon="8.484832745034465"><ele>9.0</ele><time>2026-05-03T11:03:50Z</time></trkpt><trkpt lat="40.30200352955879" lon="8.484768654953198"><ele>9.0</ele><time>2026-05-03T11:03:51Z</time></trkpt><trkpt lat="40.3021684013951" lon="8.484665207769124"><ele>9.0</ele><time>2026-05-03T11:03:52Z</time></trkpt><trkpt lat="40.302327721510665" lon="8.484541190458039"><ele>13.0</ele><time>2026-05-03T11:03:53Z</time></trkpt><trkpt lat="40.30249012957529" lon="8.484423093025116"><ele>17.0</ele><time>2026-05-03T11:03:54Z</time></trkpt><trkpt lat="40.30265696303497" lon="8.484338926116992"><ele>21.0</ele><time>2026-05-03T11:03:55Z</time></trkpt><trkpt lat="40.30283171748895" lon="8.48428484910457"><ele>21.0</ele><time>2026-05-03T11:03:56Z</time></trkpt><trkpt lat="40.30302089289225" lon="8.484227398722078"><ele>21.0</ele><time>2026-05-03T11:03:57Z</time></trkpt><trkpt lat="40.303220611258226" lon="8.484174474112171"><ele>21.0</ele><time>2026-05-03T11:03:58Z</time></trkpt><trkpt lat="40.303421577115046" lon="8.484123735113172"><ele>20.666666666666668</ele><time>2026-05-03T11:03:59Z</time></trkpt><trkpt lat="40.3036180170491" lon="8.48408284743367"><ele>20.333333333333336</ele><time>2026-05-03T11:04:00Z</time></trkpt><trkpt lat="40.30381037418227" lon="8.48405885836758"><ele>20.0</ele><time>2026-05-03T11:04:01Z</time></trkpt><trkpt lat="40.30400456137184" lon="8.48405007231679"><ele>20.666666666666668</ele><time>2026-05-03T11:04:02Z</time></trkpt><trkpt lat="40.30419815887797" lon="8.484055987813754"><ele>21.333333333333332</ele><time>2026-05-03T11:04:03Z</time></trkpt><trkpt lat="40.30439588389912" lon="8.484076392289412"><ele>22.0</ele><time>2026-05-03T11:04:04Z</time></trkpt><trkpt lat="40.30459733894609" lon="8.484101360150108"><ele>23.0</ele><time>2026-05-03T11:04:05Z</time></trkpt><trkpt lat="40.30479920905621" lon="8.484125119446652"><ele>24.0</ele><time>2026-05-03T11:04:06Z</time></trkpt><trkpt lat="40.30500612857953" lon="8.484149696295216"><ele>25.0</ele><time>2026-05-03T11:04:07Z</time></trkpt><trkpt lat="40.305208630156784" lon="8.484174355742065"><ele>25.0</ele><time>2026-05-03T11:04:08Z</time></trkpt><trkpt lat="40.30541360753849" lon="8.484199436017267"><ele>25.0</ele><time>2026-05-03T11:04:09Z</time></trkpt><trkpt lat="40.30561194639624" lon="8.484224460340245"><ele>25.0</ele><time>2026-05-03T11:04:10Z</time></trkpt><trkpt lat="40.30580173439138" lon="8.484244378986043"><ele>28.0</ele><time>2026-05-03T11:04:11Z</time></trkpt><trkpt lat="40.30598626193043" lon="8.48425992628041"><ele>31.0</ele><time>2026-05-03T11:04:12Z</time></trkpt><trkpt lat="40.30617302130834" lon="8.484287819974824"><ele>34.0</ele><time>2026-05-03T11:04:13Z</time></trkpt><trkpt lat="40.30636243108106" lon="8.484343072187205"><ele>36.66666666666667</ele><time>2026-05-03T11:04:14Z</time></trkpt><trkpt lat="40.30655573088054" lon="8.484416816897387"><ele>39.333333333333336</ele><time>2026-05-03T11:04:15Z</time></trkpt><trkpt lat="40.306747478192534" lon="8.484493794847317"><ele>42.0</ele><time>2026-05-03T11:04:16Z</time></trkpt><trkpt lat="40.30693002123204" lon="8.484567332800504"><ele>42.0</ele><time>2026-05-03T11:04:17Z</time></trkpt><trkpt lat="40.307098204088724" lon="8.48463955205336"><ele>42.0</ele><time>2026-05-03T11:04:18Z</time></trkpt><trkpt lat="40.30725282510135" lon="8.484726162736045"><ele>42.0</ele><time>2026-05-03T11:04:19Z</time></trkpt><trkpt lat="40.30738975516132" lon="8.484836993182405"><ele>42.0</ele><time>2026-05-03T11:04:20Z</time></trkpt><trkpt lat="40.3074998389189" lon="8.484979029756989"><ele>42.0</ele><time>2026-05-03T11:04:21Z</time></trkpt><trkpt lat="40.30759336809246" lon="8.485142815962911"><ele>42.0</ele><time>2026-05-03T11:04:22Z</time></trkpt><trkpt lat="40.30768212673058" lon="8.485324677881275"><ele>39.333333333333336</ele><time>2026-05-03T11:04:23Z</time></trkpt><trkpt lat="40.307766831176025" lon="8.48550775338716"><ele>36.66666666666667</ele><time>2026-05-03T11:04:24Z</time></trkpt><trkpt lat="40.30786214893371" lon="8.485677806207093"><ele>34.0</ele><time>2026-05-03T11:04:25Z</time></trkpt><trkpt lat="40.30797165777761" lon="8.485816088598405"><ele>40.333333333333336</ele><time>2026-05-03T11:04:26Z</time></trkpt><trkpt lat="40.308111217427914" lon="8.485920140454141"><ele>46.66666666666667</ele><time>2026-05-03T11:04:27Z</time></trkpt><trkpt lat="40.30827254970458" lon="8.486019070847219"><ele>53.0</ele><time>2026-05-03T11:04:28Z</time></trkpt><trkpt lat="40.30845209080862" lon="8.486137629329981"><ele>53.0</ele><time>2026-05-03T11:04:29Z</time></trkpt><trkpt lat="40.308644736438175" lon="8.48625949757429"><ele>53.0</ele><time>2026-05-03T11:04:30Z</time></trkpt><trkpt lat="40.308847088768495" lon="8.486392331122653"><ele>53.0</ele><time>2026-05-03T11:04:31Z</time></trkpt><trkpt lat="40.309044240865035" lon="8.486521165748595"><ele>53.333333333333336</ele><time>2026-05-03T11:04:32Z</time></trkpt><trkpt lat="40.309265320629045" lon="8.486665584116839"><ele>53.66666666666667</ele><time>2026-05-03T11:04:33Z</time></trkpt><trkpt lat="40.309409184381416" lon="8.486754633534336"><ele>54.0</ele><time>2026-05-03T11:04:35Z</time></trkpt><trkpt lat="40.309531588544466" lon="8.486911612873302"><ele>54.0</ele><time>2026-05-03T11:04:36Z</time></trkpt><trkpt lat="40.30965117616198" lon="8.487087165027669"><ele>54.0</ele><time>2026-05-03T11:04:37Z</time></trkpt><trkpt lat="40.309774002623755" lon="8.487272240493683"><ele>54.0</ele><time>2026-05-03T11:04:38Z</time></trkpt><trkpt lat="40.30990598417239" lon="8.48744957085793"><ele>54.66666666666667</ele><time>2026-05-03T11:04:39Z</time></trkpt><trkpt lat="40.31001900230203" lon="8.487626896289004"><ele>55.333333333333336</ele><time>2026-05-03T11:04:40Z</time></trkpt><trkpt lat="40.31012870804783" lon="8.48778353644778"><ele>56.0</ele><time>2026-05-03T11:04:41Z</time></trkpt><trkpt lat="40.31023166982636" lon="8.487935525638196"><ele>56.0</ele><time>2026-05-03T11:04:42Z</time></trkpt><trkpt lat="40.31032427591661" lon="8.488076841462695"><ele>56.0</ele><time>2026-05-03T11:04:43Z</time></trkpt><trkpt lat="40.31040926480729" lon="8.488210029952901"><ele>56.0</ele><time>2026-05-03T11:04:44Z</time></trkpt><trkpt lat="40.31048454377813" lon="8.488334760575203"><ele>56.0</ele><time>2026-05-03T11:04:45Z</time></trkpt><trkpt lat="40.31055623132577" lon="8.488442833829742"><ele>59.0</ele><time>2026-05-03T11:04:46Z</time></trkpt><trkpt lat="40.31063160645851" lon="8.488535172448232"><ele>61.99999999999999</ele><time>2026-05-03T11:04:47Z</time></trkpt><trkpt lat="40.31071521465805" lon="8.488594863141667"><ele>65.0</ele><time>2026-05-03T11:04:48Z</time></trkpt><trkpt lat="40.31082489299325" lon="8.48861809291607"><ele>68.0</ele><time>2026-05-03T11:04:49Z</time></trkpt><trkpt lat="40.31094861022867" lon="8.48861674369486"><ele>71.0</ele><time>2026-05-03T11:04:50Z</time></trkpt><trkpt lat="40.31107949790082" lon="8.488628824569926"><ele>71.0</ele><time>2026-05-03T11:04:51Z</time></trkpt><trkpt lat="40.311224863128786" lon="8.488651798644458"><ele>71.0</ele><time>2026-05-03T11:04:52Z</time></trkpt><trkpt lat="40.31135936888219" lon="8.488668881982278"><ele>71.0</ele><time>2026-05-03T11:04:53Z</time></trkpt><trkpt lat="40.31149303008106" lon="8.488687884404307"><ele>71.0</ele><time>2026-05-03T11:04:54Z</time></trkpt><trkpt lat="40.311617458081066" lon="8.488706577797904"><ele>72.75</ele><time>2026-05-03T11:04:55Z</time></trkpt><trkpt lat="40.31173031332024" lon="8.488677244704366"><ele>74.5</ele><time>2026-05-03T11:04:56Z</time></trkpt><trkpt lat="40.311851276873355" lon="8.488631816229395"><ele>76.25</ele><time>2026-05-03T11:04:57Z</time></trkpt><trkpt lat="40.31197590909541" lon="8.488551012734836"><ele>78.0</ele><time>2026-05-03T11:04:58Z</time></trkpt><trkpt lat="40.31208791791286" lon="8.488454902021699"><ele>78.0</ele><time>2026-05-03T11:04:59Z</time></trkpt><trkpt lat="40.31219972007849" lon="8.488371624593418"><ele>78.0</ele><time>2026-05-03T11:05:00Z</time></trkpt><trkpt lat="40.31230239906297" lon="8.488284698917065"><ele>78.0</ele><time>2026-05-03T11:05:01Z</time></trkpt><trkpt lat="40.31240084539148" lon="8.488178228177077"><ele>78.0</ele><time>2026-05-03T11:05:02Z</time></trkpt><trkpt lat="40.312496832820614" lon="8.48804365437846"><ele>78.33333333333333</ele><time>2026-05-03T11:05:03Z</time></trkpt><trkpt lat="40.31258866307227" lon="8.487869878788324"><ele>78.66666666666666</ele><time>2026-05-03T11:05:04Z</time></trkpt><trkpt lat="40.31268142208834" lon="8.487670603218957"><ele>79.0</ele><time>2026-05-03T11:05:05Z</time></trkpt><trkpt lat="40.31280866686833" lon="8.487450157237458"><ele>79.0</ele><time>2026-05-03T11:05:06Z</time></trkpt><trkpt lat="40.31291138832581" lon="8.487200666365919"><ele>79.0</ele><time>2026-05-03T11:05:07Z</time></trkpt><trkpt lat="40.31302361250903" lon="8.486987621966446"><ele>79.0</ele><time>2026-05-03T11:05:08Z</time></trkpt><trkpt lat="40.31312576461977" lon="8.486790181731807"><ele>78.0</ele><time>2026-05-03T11:05:09Z</time></trkpt><trkpt lat="40.3132158275835" lon="8.486604925851807"><ele>77.0</ele><time>2026-05-03T11:05:10Z</time></trkpt><trkpt lat="40.313300449795825" lon="8.486424329061911"><ele>76.0</ele><time>2026-05-03T11:05:11Z</time></trkpt><trkpt lat="40.31338143269642" lon="8.486256017762443"><ele>77.75</ele><time>2026-05-03T11:05:12Z</time></trkpt><trkpt lat="40.313458030005584" lon="8.486093927835267"><ele>79.5</ele><time>2026-05-03T11:05:13Z</time></trkpt><trkpt lat="40.31353109220735" lon="8.485942084597752"><ele>81.25</ele><time>2026-05-03T11:05:14Z</time></trkpt><trkpt lat="40.3136046475243" lon="8.485793990619017"><ele>83.0</ele><time>2026-05-03T11:05:15Z</time></trkpt><trkpt lat="40.31367774423205" lon="8.485649291679628"><ele>83.0</ele><time>2026-05-03T11:05:16Z</time></trkpt><trkpt lat="40.31374950597735" lon="8.4854834482717"><ele>83.0</ele><time>2026-05-03T11:05:17Z</time></trkpt><trkpt lat="40.31380789164917" lon="8.485316217942836"><ele>83.0</ele><time>2026-05-03T11:05:18Z</time></trkpt><trkpt lat="40.31385491386509" lon="8.485138532509346"><ele>83.0</ele><time>2026-05-03T11:05:19Z</time></trkpt><trkpt lat="40.31389122780152" lon="8.484915250710703"><ele>80.66666666666667</ele><time>2026-05-03T11:05:20Z</time></trkpt><trkpt lat="40.31395103805066" lon="8.48466760004545"><ele>78.33333333333333</ele><time>2026-05-03T11:05:21Z</time></trkpt><trkpt lat="40.31400142455587" lon="8.484385659770906"><ele>76.0</ele><time>2026-05-03T11:05:22Z</time></trkpt><trkpt lat="40.314046549640494" lon="8.484087054401181"><ele>71.5</ele><time>2026-05-03T11:05:23Z</time></trkpt><trkpt lat="40.31410231976223" lon="8.483788688328868"><ele>67.0</ele><time>2026-05-03T11:05:24Z</time></trkpt><trkpt lat="40.31415667133746" lon="8.483491047662916"><ele>63.0</ele><time>2026-05-03T11:05:25Z</time></trkpt><trkpt lat="40.314205831285115" lon="8.48319394111083"><ele>59.0</ele><time>2026-05-03T11:05:26Z</time></trkpt><trkpt lat="40.31425394133139" lon="8.482902301990192"><ele>58.5</ele><time>2026-05-03T11:05:27Z</time></trkpt><trkpt lat="40.31430030938027" lon="8.482604518912908"><ele>58.0</ele><time>2026-05-03T11:05:28Z</time></trkpt><trkpt lat="40.31434749431032" lon="8.482320936563905"><ele>58.5</ele><time>2026-05-03T11:05:29Z</time></trkpt><trkpt lat="40.3144215319399" lon="8.481998316290793"><ele>59.0</ele><time>2026-05-03T11:05:30Z</time></trkpt><trkpt lat="40.31448070439984" lon="8.481665166269243"><ele>59.0</ele><time>2026-05-03T11:05:31Z</time></trkpt><trkpt lat="40.3145409746164" lon="8.481329718849157"><ele>59.0</ele><time>2026-05-03T11:05:32Z</time></trkpt><trkpt lat="40.31458476437143" lon="8.481000553593988"><ele>59.0</ele><time>2026-05-03T11:05:33Z</time></trkpt><trkpt lat="40.314650668759896" lon="8.480715443360202"><ele>59.0</ele><time>2026-05-03T11:05:34Z</time></trkpt><trkpt lat="40.31472374773194" lon="8.480456182120042"><ele>59.0</ele><time>2026-05-03T11:05:35Z</time></trkpt><trkpt lat="40.31481430487219" lon="8.480213733218834"><ele>56.66666666666667</ele><time>2026-05-03T11:05:36Z</time></trkpt><trkpt lat="40.314925876460364" lon="8.479967466144721"><ele>54.33333333333333</ele><time>2026-05-03T11:05:37Z</time></trkpt><trkpt lat="40.31503819821038" lon="8.479709536605165"><ele>52.0</ele><time>2026-05-03T11:05:38Z</time></trkpt><trkpt lat="40.31515232134132" lon="8.479441818435587"><ele>48.0</ele><time>2026-05-03T11:05:39Z</time></trkpt><trkpt lat="40.315268707566275" lon="8.479164235838734"><ele>44.0</ele><time>2026-05-03T11:05:40Z</time></trkpt><trkpt lat="40.31538522051948" lon="8.478895730464838"><ele>43.5</ele><time>2026-05-03T11:05:41Z</time></trkpt><trkpt lat="40.31550763923457" lon="8.478623279830893"><ele>43.0</ele><time>2026-05-03T11:05:42Z</time></trkpt><trkpt lat="40.315612649030335" lon="8.478364601604484"><ele>43.0</ele><time>2026-05-03T11:05:43Z</time></trkpt><trkpt lat="40.31572217313628" lon="8.47811378797882"><ele>43.0</ele><time>2026-05-03T11:05:44Z</time></trkpt><trkpt lat="40.31583083683965" lon="8.477865308085647"><ele>43.0</ele><time>2026-05-03T11:05:45Z</time></trkpt><trkpt lat="40.31592723948974" lon="8.477618867020372"><ele>41.333333333333336</ele><time>2026-05-03T11:05:46Z</time></trkpt><trkpt lat="40.31601704551782" lon="8.477384051013983"><ele>39.666666666666664</ele><time>2026-05-03T11:05:47Z</time></trkpt><trkpt lat="40.316077940674816" lon="8.477140329194448"><ele>38.0</ele><time>2026-05-03T11:05:48Z</time></trkpt><trkpt lat="40.316113727148846" lon="8.47687752073626"><ele>37.0</ele><time>2026-05-03T11:05:49Z</time></trkpt><trkpt lat="40.31613955526492" lon="8.476579983853991"><ele>36.0</ele><time>2026-05-03T11:05:50Z</time></trkpt><trkpt lat="40.31617927455533" lon="8.47628155166438"><ele>34.5</ele><time>2026-05-03T11:05:51Z</time></trkpt><trkpt lat="40.31623978137647" lon="8.475985512283003"><ele>33.0</ele><time>2026-05-03T11:05:52Z</time></trkpt><trkpt lat="40.316304592304526" lon="8.475683990756295"><ele>32.0</ele><time>2026-05-03T11:05:53Z</time></trkpt><trkpt lat="40.3163688245746" lon="8.475401811633708"><ele>31.0</ele><time>2026-05-03T11:05:54Z</time></trkpt><trkpt lat="40.31641894786447" lon="8.475139407417306"><ele>30.0</ele><time>2026-05-03T11:05:55Z</time></trkpt><trkpt lat="40.31644672522306" lon="8.474863149853867"><ele>32.0</ele><time>2026-05-03T11:05:56Z</time></trkpt><trkpt lat="40.31645685712607" lon="8.47457427884447"><ele>34.0</ele><time>2026-05-03T11:05:57Z</time></trkpt><trkpt lat="40.316463136205066" lon="8.47429949233314"><ele>36.0</ele><time>2026-05-03T11:05:58Z</time></trkpt><trkpt lat="40.31647373289416" lon="8.47405347286771"><ele>36.0</ele><time>2026-05-03T11:05:59Z</time></trkpt><trkpt lat="40.31650131457355" lon="8.47381072638901"><ele>36.0</ele><time>2026-05-03T11:06:00Z</time></trkpt><trkpt lat="40.316551452367044" lon="8.473569435807462"><ele>36.0</ele><time>2026-05-03T11:06:01Z</time></trkpt><trkpt lat="40.3166238171499" lon="8.473327051382382"><ele>35.0</ele><time>2026-05-03T11:06:02Z</time></trkpt><trkpt lat="40.316705870460645" lon="8.473060821870805"><ele>34.0</ele><time>2026-05-03T11:06:03Z</time></trkpt><trkpt lat="40.316779395261804" lon="8.472826414961697"><ele>33.0</ele><time>2026-05-03T11:06:04Z</time></trkpt><trkpt lat="40.316827303761336" lon="8.472605871285767"><ele>31.333333333333336</ele><time>2026-05-03T11:06:05Z</time></trkpt><trkpt lat="40.31685694781308" lon="8.472380971517378"><ele>29.666666666666668</ele><time>2026-05-03T11:06:06Z</time></trkpt><trkpt lat="40.316861077855144" lon="8.472147777262673"><ele>28.0</ele><time>2026-05-03T11:06:07Z</time></trkpt><trkpt lat="40.3168346527794" lon="8.471915756968261"><ele>26.666666666666668</ele><time>2026-05-03T11:06:08Z</time></trkpt><trkpt lat="40.31680016943686" lon="8.471671371255882"><ele>25.333333333333336</ele><time>2026-05-03T11:06:09Z</time></trkpt><trkpt lat="40.31678896618545" lon="8.471436348038655"><ele>24.0</ele><time>2026-05-03T11:06:10Z</time></trkpt><trkpt lat="40.31681928615642" lon="8.471208271611783"><ele>23.0</ele><time>2026-05-03T11:06:11Z</time></trkpt><trkpt lat="40.31687150310351" lon="8.470966555436458"><ele>22.0</ele><time>2026-05-03T11:06:12Z</time></trkpt><trkpt lat="40.31693609972442" lon="8.470702240642732"><ele>21.0</ele><time>2026-05-03T11:06:13Z</time></trkpt><trkpt lat="40.31699807653126" lon="8.47042802320124"><ele>20.666666666666668</ele><time>2026-05-03T11:06:14Z</time></trkpt><trkpt lat="40.31706057586856" lon="8.470156396631173"><ele>20.333333333333336</ele><time>2026-05-03T11:06:15Z</time></trkpt><trkpt lat="40.31712667339482" lon="8.46987704691414"><ele>20.0</ele><time>2026-05-03T11:06:16Z</time></trkpt><trkpt lat="40.31719323010651" lon="8.469594328935901"><ele>20.666666666666668</ele><time>2026-05-03T11:06:17Z</time></trkpt><trkpt lat="40.31725901558241" lon="8.469320693794527"><ele>21.333333333333332</ele><time>2026-05-03T11:06:18Z</time></trkpt><trkpt lat="40.31732229949329" lon="8.469048824218854"><ele>22.0</ele><time>2026-05-03T11:06:19Z</time></trkpt><trkpt lat="40.31738182668979" lon="8.468783244157372"><ele>21.0</ele><time>2026-05-03T11:06:20Z</time></trkpt><trkpt lat="40.31743970109648" lon="8.468525168324934"><ele>20.0</ele><time>2026-05-03T11:06:21Z</time></trkpt><trkpt lat="40.31749607515168" lon="8.468272095323249"><ele>19.0</ele><time>2026-05-03T11:06:22Z</time></trkpt><trkpt lat="40.317557377847294" lon="8.468017593910341"><ele>17.666666666666664</ele><time>2026-05-03T11:06:23Z</time></trkpt><trkpt lat="40.31763050461913" lon="8.467762119577824"><ele>16.333333333333332</ele><time>2026-05-03T11:06:24Z</time></trkpt><trkpt lat="40.31771920136841" lon="8.467516415764623"><ele>15.0</ele><time>2026-05-03T11:06:25Z</time></trkpt><trkpt lat="40.31781764105091" lon="8.467273493073408"><ele>14.666666666666668</ele><time>2026-05-03T11:06:26Z</time></trkpt><trkpt lat="40.31791591101577" lon="8.467027975149481"><ele>14.333333333333334</ele><time>2026-05-03T11:06:27Z</time></trkpt><trkpt lat="40.318012883418575" lon="8.466786509556202"><ele>14.0</ele><time>2026-05-03T11:06:28Z</time></trkpt><trkpt lat="40.31810952589786" lon="8.466538782044793"><ele>15.666666666666668</ele><time>2026-05-03T11:06:29Z</time></trkpt><trkpt lat="40.31819646048015" lon="8.466291016909867"><ele>17.333333333333332</ele><time>2026-05-03T11:06:30Z</time></trkpt><trkpt lat="40.318266998364734" lon="8.466030904584478"><ele>19.0</ele><time>2026-05-03T11:06:31Z</time></trkpt><trkpt lat="40.31831483600904" lon="8.465747747344114"><ele>19.5</ele><time>2026-05-03T11:06:32Z</time></trkpt><trkpt lat="40.31835479985472" lon="8.465453026368925"><ele>20.0</ele><time>2026-05-03T11:06:33Z</time></trkpt><trkpt lat="40.31839629405051" lon="8.46514740660102"><ele>20.5</ele><time>2026-05-03T11:06:34Z</time></trkpt><trkpt lat="40.318444270469634" lon="8.46483969530758"><ele>21.0</ele><time>2026-05-03T11:06:35Z</time></trkpt><trkpt lat="40.318489035053105" lon="8.46453986241469"><ele>21.0</ele><time>2026-05-03T11:06:36Z</time></trkpt><trkpt lat="40.318527182681116" lon="8.464259025031376"><ele>21.0</ele><time>2026-05-03T11:06:37Z</time></trkpt><trkpt lat="40.318565367967814" lon="8.46399566361774"><ele>21.0</ele><time>2026-05-03T11:06:38Z</time></trkpt><trkpt lat="40.318608437334746" lon="8.463739349513439"><ele>20.666666666666668</ele><time>2026-05-03T11:06:39Z</time></trkpt><trkpt lat="40.31866515390196" lon="8.4635067654166"><ele>20.333333333333336</ele><time>2026-05-03T11:06:40Z</time></trkpt><trkpt lat="40.318741810061255" lon="8.463281454109342"><ele>20.0</ele><time>2026-05-03T11:06:41Z</time></trkpt><trkpt lat="40.31884359128292" lon="8.463057553449769"><ele>25.666666666666668</ele><time>2026-05-03T11:06:42Z</time></trkpt><trkpt lat="40.31895525301235" lon="8.462831650790804"><ele>31.333333333333336</ele><time>2026-05-03T11:06:43Z</time></trkpt><trkpt lat="40.31906712990517" lon="8.462588646952264"><ele>37.0</ele><time>2026-05-03T11:06:44Z</time></trkpt><trkpt lat="40.31916934929789" lon="8.462331662992408"><ele>32.5</ele><time>2026-05-03T11:06:45Z</time></trkpt><trkpt lat="40.31925900236627" lon="8.46205294974708"><ele>28.0</ele><time>2026-05-03T11:06:46Z</time></trkpt><trkpt lat="40.319343546194204" lon="8.461760983402353"><ele>28.0</ele><time>2026-05-03T11:06:47Z</time></trkpt><trkpt lat="40.31943397836714" lon="8.461467998453884"><ele>28.0</ele><time>2026-05-03T11:06:48Z</time></trkpt><trkpt lat="40.31952454197387" lon="8.461184068460513"><ele>27.0</ele><time>2026-05-03T11:06:49Z</time></trkpt><trkpt lat="40.31961973557287" lon="8.460918939768794"><ele>26.0</ele><time>2026-05-03T11:06:50Z</time></trkpt><trkpt lat="40.31971376372634" lon="8.460675338191464"><ele>25.0</ele><time>2026-05-03T11:06:51Z</time></trkpt><trkpt lat="40.31980151550628" lon="8.460457664953877"><ele>28.25</ele><time>2026-05-03T11:06:52Z</time></trkpt><trkpt lat="40.31987800125262" lon="8.460276593570278"><ele>31.5</ele><time>2026-05-03T11:06:53Z</time></trkpt><trkpt lat="40.319958246836514" lon="8.460131535706658"><ele>34.75</ele><time>2026-05-03T11:06:54Z</time></trkpt><trkpt lat="40.32005516013621" lon="8.460013862798213"><ele>38.0</ele><time>2026-05-03T11:06:55Z</time></trkpt><trkpt lat="40.32017257255001" lon="8.459916292366358"><ele>38.0</ele><time>2026-05-03T11:06:56Z</time></trkpt><trkpt lat="40.320298476621524" lon="8.459822987309863"><ele>38.0</ele><time>2026-05-03T11:06:57Z</time></trkpt><trkpt lat="40.3204102419623" lon="8.459705535694136"><ele>38.0</ele><time>2026-05-03T11:06:58Z</time></trkpt><trkpt lat="40.32050138963448" lon="8.459542552181311"><ele>38.0</ele><time>2026-05-03T11:06:59Z</time></trkpt><trkpt lat="40.320581690896304" lon="8.459348690004013"><ele>38.33333333333333</ele><time>2026-05-03T11:07:00Z</time></trkpt><trkpt lat="40.320656190352054" lon="8.45913700429213"><ele>38.666666666666664</ele><time>2026-05-03T11:07:01Z</time></trkpt><trkpt lat="40.32072729198439" lon="8.458920699804924"><ele>39.0</ele><time>2026-05-03T11:07:02Z</time></trkpt><trkpt lat="40.320801433758476" lon="8.458707115807679"><ele>39.0</ele><time>2026-05-03T11:07:03Z</time></trkpt><trkpt lat="40.32088725197914" lon="8.458496435769558"><ele>39.0</ele><time>2026-05-03T11:07:04Z</time></trkpt><trkpt lat="40.32098853412891" lon="8.458311033259008"><ele>39.0</ele><time>2026-05-03T11:07:05Z</time></trkpt><trkpt lat="40.321106137025296" lon="8.458141651923583"><ele>39.0</ele><time>2026-05-03T11:07:06Z</time></trkpt><trkpt lat="40.32120477049853" lon="8.457956065630325"><ele>39.0</ele><time>2026-05-03T11:07:07Z</time></trkpt><trkpt lat="40.32127799780394" lon="8.457742182343535"><ele>39.0</ele><time>2026-05-03T11:07:08Z</time></trkpt><trkpt lat="40.321354345326355" lon="8.457501182355976"><ele>42.0</ele><time>2026-05-03T11:07:09Z</time></trkpt><trkpt lat="40.32144557953647" lon="8.45725670594726"><ele>45.0</ele><time>2026-05-03T11:07:10Z</time></trkpt><trkpt lat="40.32153926025481" lon="8.45703989563668"><ele>48.0</ele><time>2026-05-03T11:07:11Z</time></trkpt><trkpt lat="40.321636341831685" lon="8.456844910591629"><ele>48.0</ele><time>2026-05-03T11:07:12Z</time></trkpt><trkpt lat="40.321750280814975" lon="8.45668398675968"><ele>48.0</ele><time>2026-05-03T11:07:13Z</time></trkpt><trkpt lat="40.32188507333292" lon="8.456572975629312"><ele>48.0</ele><time>2026-05-03T11:07:14Z</time></trkpt><trkpt lat="40.32203727452227" lon="8.456462827471777"><ele>48.0</ele><time>2026-05-03T11:07:15Z</time></trkpt><trkpt lat="40.322183255369474" lon="8.456339185563579"><ele>48.0</ele><time>2026-05-03T11:07:16Z</time></trkpt><trkpt lat="40.3223230767041" lon="8.456191547923723"><ele>48.0</ele><time>2026-05-03T11:07:17Z</time></trkpt><trkpt lat="40.322462056828506" lon="8.45602497200379"><ele>50.0</ele><time>2026-05-03T11:07:18Z</time></trkpt><trkpt lat="40.322606172894965" lon="8.455852557807951"><ele>52.0</ele><time>2026-05-03T11:07:19Z</time></trkpt><trkpt lat="40.32275437004918" lon="8.455681696682733"><ele>54.0</ele><time>2026-05-03T11:07:20Z</time></trkpt><trkpt lat="40.32289217623148" lon="8.455517823066584"><ele>57.33333333333333</ele><time>2026-05-03T11:07:21Z</time></trkpt><trkpt lat="40.32302164956845" lon="8.455339563109401"><ele>60.666666666666664</ele><time>2026-05-03T11:07:22Z</time></trkpt><trkpt lat="40.323131448796325" lon="8.455144207395792"><ele>64.0</ele><time>2026-05-03T11:07:23Z</time></trkpt><trkpt lat="40.32322030141266" lon="8.454928271285857"><ele>64.0</ele><time>2026-05-03T11:07:24Z</time></trkpt><trkpt lat="40.32329181881975" lon="8.454693994805073"><ele>64.0</ele><time>2026-05-03T11:07:25Z</time></trkpt><trkpt lat="40.32335172620441" lon="8.454447257424432"><ele>64.0</ele><time>2026-05-03T11:07:26Z</time></trkpt><trkpt lat="40.32341289175476" lon="8.454194560153715"><ele>62.33333333333333</ele><time>2026-05-03T11:07:27Z</time></trkpt><trkpt lat="40.32347463268772" lon="8.453946715273831"><ele>60.66666666666667</ele><time>2026-05-03T11:07:28Z</time></trkpt><trkpt lat="40.32353303276494" lon="8.453703112169727"><ele>59.0</ele><time>2026-05-03T11:07:29Z</time></trkpt><trkpt lat="40.323586149736805" lon="8.45347447453906"><ele>58.0</ele><time>2026-05-03T11:07:30Z</time></trkpt><trkpt lat="40.323633905624924" lon="8.453259320260848"><ele>57.0</ele><time>2026-05-03T11:07:31Z</time></trkpt><trkpt lat="40.32368609548912" lon="8.45305170294001"><ele>56.0</ele><time>2026-05-03T11:07:32Z</time></trkpt><trkpt lat="40.32375749130383" lon="8.452844980029175"><ele>55.66666666666667</ele><time>2026-05-03T11:07:33Z</time></trkpt><trkpt lat="40.323842218567854" lon="8.45265093082588"><ele>55.33333333333333</ele><time>2026-05-03T11:07:34Z</time></trkpt><trkpt lat="40.323933822266056" lon="8.452479590977614"><ele>55.0</ele><time>2026-05-03T11:07:35Z</time></trkpt><trkpt lat="40.32403215004082" lon="8.452327111602735"><ele>55.0</ele><time>2026-05-03T11:07:36Z</time></trkpt><trkpt lat="40.32414372909024" lon="8.45220211693183"><ele>55.0</ele><time>2026-05-03T11:07:37Z</time></trkpt><trkpt lat="40.32428418594554" lon="8.452110131233887"><ele>55.0</ele><time>2026-05-03T11:07:38Z</time></trkpt><trkpt lat="40.32445883784503" lon="8.452036256864714"><ele>53.666666666666664</ele><time>2026-05-03T11:07:39Z</time></trkpt><trkpt lat="40.32464594310769" lon="8.451958735001583"><ele>52.33333333333333</ele><time>2026-05-03T11:07:40Z</time></trkpt><trkpt lat="40.324833371514806" lon="8.451869736907966"><ele>51.0</ele><time>2026-05-03T11:07:41Z</time></trkpt><trkpt lat="40.32502932154336" lon="8.451772704928398"><ele>51.0</ele><time>2026-05-03T11:07:42Z</time></trkpt><trkpt lat="40.32521095827909" lon="8.451678192269492"><ele>51.0</ele><time>2026-05-03T11:07:43Z</time></trkpt><trkpt lat="40.32538046756528" lon="8.451586326644327"><ele>51.0</ele><time>2026-05-03T11:07:44Z</time></trkpt><trkpt lat="40.3255413038491" lon="8.451494239651893"><ele>50.75</ele><time>2026-05-03T11:07:45Z</time></trkpt><trkpt lat="40.325689069026375" lon="8.45141208955059"><ele>50.5</ele><time>2026-05-03T11:07:46Z</time></trkpt><trkpt lat="40.32581751202715" lon="8.451342013834644"><ele>50.25</ele><time>2026-05-03T11:07:47Z</time></trkpt><trkpt lat="40.325923866612726" lon="8.451264178266534"><ele>50.0</ele><time>2026-05-03T11:07:48Z</time></trkpt><trkpt lat="40.32601819219527" lon="8.451177733614964"><ele>49.5</ele><time>2026-05-03T11:07:49Z</time></trkpt><trkpt lat="40.32608068703554" lon="8.451043185909656"><ele>49.0</ele><time>2026-05-03T11:07:50Z</time></trkpt><trkpt lat="40.32611050226834" lon="8.450862430723795"><ele>48.5</ele><time>2026-05-03T11:07:51Z</time></trkpt><trkpt lat="40.32611804130517" lon="8.450640780624015"><ele>48.0</ele><time>2026-05-03T11:07:52Z</time></trkpt><trkpt lat="40.32611794438448" lon="8.450429408255056"><ele>47.333333333333336</ele><time>2026-05-03T11:07:53Z</time></trkpt><trkpt lat="40.326129683113294" lon="8.450189194445915"><ele>46.66666666666667</ele><time>2026-05-03T11:07:54Z</time></trkpt><trkpt lat="40.32612546497646" lon="8.449919642299195"><ele>46.0</ele><time>2026-05-03T11:07:55Z</time></trkpt><trkpt lat="40.326124743660905" lon="8.449641246151945"><ele>45.333333333333336</ele><time>2026-05-03T11:07:56Z</time></trkpt><trkpt lat="40.32612185292053" lon="8.449394318865101"><ele>44.666666666666664</ele><time>2026-05-03T11:07:57Z</time></trkpt><trkpt lat="40.32611541292719" lon="8.449165389527305"><ele>44.0</ele><time>2026-05-03T11:07:58Z</time></trkpt><trkpt lat="40.32610780924141" lon="8.448958975321974"><ele>43.666666666666664</ele><time>2026-05-03T11:07:59Z</time></trkpt><trkpt lat="40.32611661868973" lon="8.448764944998315"><ele>43.333333333333336</ele><time>2026-05-03T11:08:00Z</time></trkpt><trkpt lat="40.326175360055146" lon="8.448576416744817"><ele>43.0</ele><time>2026-05-03T11:08:01Z</time></trkpt><trkpt lat="40.326232721395826" lon="8.448371687121599"><ele>43.0</ele><time>2026-05-03T11:08:02Z</time></trkpt><trkpt lat="40.32629453793485" lon="8.448169954178455"><ele>43.0</ele><time>2026-05-03T11:08:03Z</time></trkpt><trkpt lat="40.32635878835553" lon="8.44796174011198"><ele>43.0</ele><time>2026-05-03T11:08:04Z</time></trkpt><trkpt lat="40.326425127769504" lon="8.447745603479015"><ele>43.0</ele><time>2026-05-03T11:08:05Z</time></trkpt><trkpt lat="40.32649123853644" lon="8.447529646926746"><ele>43.0</ele><time>2026-05-03T11:08:06Z</time></trkpt><trkpt lat="40.3265578066756" lon="8.447312196616746"><ele>43.0</ele><time>2026-05-03T11:08:07Z</time></trkpt><trkpt lat="40.32662441918848" lon="8.447094600718703"><ele>43.0</ele><time>2026-05-03T11:08:08Z</time></trkpt><trkpt lat="40.32667433179888" lon="8.446875360287017"><ele>43.0</ele><time>2026-05-03T11:08:09Z</time></trkpt><trkpt lat="40.32674198815123" lon="8.446669721486703"><ele>43.0</ele><time>2026-05-03T11:08:10Z</time></trkpt><trkpt lat="40.326811509683495" lon="8.446453240496595"><ele>44.0</ele><time>2026-05-03T11:08:11Z</time></trkpt><trkpt lat="40.32688234445822" lon="8.446229408610776"><ele>45.0</ele><time>2026-05-03T11:08:12Z</time></trkpt><trkpt lat="40.32695473762096" lon="8.446003344474176"><ele>46.0</ele><time>2026-05-03T11:08:13Z</time></trkpt><trkpt lat="40.32702112852384" lon="8.445787401429548"><ele>46.0</ele><time>2026-05-03T11:08:14Z</time></trkpt><trkpt lat="40.32708711972797" lon="8.445580619044936"><ele>46.0</ele><time>2026-05-03T11:08:15Z</time></trkpt><trkpt lat="40.327134654494635" lon="8.445385549295349"><ele>46.0</ele><time>2026-05-03T11:08:16Z</time></trkpt><trkpt lat="40.327128889466785" lon="8.445182554945024"><ele>44.66666666666667</ele><time>2026-05-03T11:08:17Z</time></trkpt><trkpt lat="40.32710107517657" lon="8.444963656734823"><ele>43.333333333333336</ele><time>2026-05-03T11:08:18Z</time></trkpt><trkpt lat="40.327055131916275" lon="8.444725964728178"><ele>42.0</ele><time>2026-05-03T11:08:19Z</time></trkpt><trkpt lat="40.327005861594124" lon="8.444478455362754"><ele>38.333333333333336</ele><time>2026-05-03T11:08:20Z</time></trkpt><trkpt lat="40.326956185662354" lon="8.444219342681784"><ele>34.66666666666667</ele><time>2026-05-03T11:08:21Z</time></trkpt><trkpt lat="40.326904925021665" lon="8.443946551221567"><ele>31.0</ele><time>2026-05-03T11:08:22Z</time></trkpt><trkpt lat="40.32685185187392" lon="8.44366628097053"><ele>31.333333333333336</ele><time>2026-05-03T11:08:23Z</time></trkpt><trkpt lat="40.32679662812371" lon="8.443386761277836"><ele>31.666666666666664</ele><time>2026-05-03T11:08:24Z</time></trkpt><trkpt lat="40.32674207847952" lon="8.443120949028176"><ele>32.0</ele><time>2026-05-03T11:08:25Z</time></trkpt><trkpt lat="40.32669141859407" lon="8.442867402653684"><ele>32.0</ele><time>2026-05-03T11:08:26Z</time></trkpt><trkpt lat="40.32665588816993" lon="8.442601262996742"><ele>32.0</ele><time>2026-05-03T11:08:27Z</time></trkpt><trkpt lat="40.32665077249511" lon="8.442335185436773"><ele>32.0</ele><time>2026-05-03T11:08:28Z</time></trkpt><trkpt lat="40.32666634208552" lon="8.442059156645"><ele>33.0</ele><time>2026-05-03T11:08:29Z</time></trkpt><trkpt lat="40.32669028157155" lon="8.441780603660073"><ele>34.0</ele><time>2026-05-03T11:08:30Z</time></trkpt><trkpt lat="40.32671256462958" lon="8.441512212090492"><ele>35.0</ele><time>2026-05-03T11:08:31Z</time></trkpt><trkpt lat="40.32672849256345" lon="8.44125933986352"><ele>35.666666666666664</ele><time>2026-05-03T11:08:32Z</time></trkpt><trkpt lat="40.326742462592215" lon="8.441015226006868"><ele>36.333333333333336</ele><time>2026-05-03T11:08:33Z</time></trkpt><trkpt lat="40.32675712525836" lon="8.440784992409306"><ele>37.0</ele><time>2026-05-03T11:08:34Z</time></trkpt><trkpt lat="40.32677012082216" lon="8.440575075955522"><ele>36.5</ele><time>2026-05-03T11:08:35Z</time></trkpt><trkpt lat="40.32678139095868" lon="8.440375768568005"><ele>36.0</ele><time>2026-05-03T11:08:36Z</time></trkpt><trkpt lat="40.32679529245253" lon="8.440195246656788"><ele>35.5</ele><time>2026-05-03T11:08:37Z</time></trkpt><trkpt lat="40.326812446805725" lon="8.440028654550378"><ele>35.0</ele><time>2026-05-03T11:08:38Z</time></trkpt><trkpt lat="40.32683689491077" lon="8.43987449265302"><ele>35.0</ele><time>2026-05-03T11:08:39Z</time></trkpt><trkpt lat="40.326881412360144" lon="8.439728836696606"><ele>35.0</ele><time>2026-05-03T11:08:40Z</time></trkpt><trkpt lat="40.326945795402445" lon="8.439566464009031"><ele>35.0</ele><time>2026-05-03T11:08:41Z</time></trkpt><trkpt lat="40.327029033921" lon="8.439388704245209"><ele>35.0</ele><time>2026-05-03T11:08:42Z</time></trkpt><trkpt lat="40.32712337148774" lon="8.439196518368151"><ele>34.33333333333333</ele><time>2026-05-03T11:08:43Z</time></trkpt><trkpt lat="40.327237291205286" lon="8.439000175814519"><ele>33.666666666666664</ele><time>2026-05-03T11:08:44Z</time></trkpt><trkpt lat="40.32733315168326" lon="8.438770860394248"><ele>33.0</ele><time>2026-05-03T11:08:45Z</time></trkpt><trkpt lat="40.32745274162893" lon="8.438541260951988"><ele>33.0</ele><time>2026-05-03T11:08:46Z</time></trkpt><trkpt lat="40.32757730127107" lon="8.438308061739173"><ele>33.0</ele><time>2026-05-03T11:08:47Z</time></trkpt><trkpt lat="40.327711670956475" lon="8.4380694971324"><ele>33.0</ele><time>2026-05-03T11:08:48Z</time></trkpt><trkpt lat="40.327858000479424" lon="8.437832167777406"><ele>33.5</ele><time>2026-05-03T11:08:49Z</time></trkpt><trkpt lat="40.32801254755746" lon="8.437598632818126"><ele>34.0</ele><time>2026-05-03T11:08:50Z</time></trkpt><trkpt lat="40.328168006041814" lon="8.437366401342235"><ele>33.0</ele><time>2026-05-03T11:08:51Z</time></trkpt><trkpt lat="40.32832660518776" lon="8.437130566992623"><ele>32.0</ele><time>2026-05-03T11:08:52Z</time></trkpt><trkpt lat="40.32847114809279" lon="8.436911909794706"><ele>32.0</ele><time>2026-05-03T11:08:53Z</time></trkpt><trkpt lat="40.32860926097874" lon="8.436708668831571"><ele>32.0</ele><time>2026-05-03T11:08:54Z</time></trkpt><trkpt lat="40.32873844424376" lon="8.436522993872584"><ele>32.0</ele><time>2026-05-03T11:08:55Z</time></trkpt><trkpt lat="40.32885774051222" lon="8.436361196455117"><ele>32.75</ele><time>2026-05-03T11:08:56Z</time></trkpt><trkpt lat="40.32897378506318" lon="8.436228648653568"><ele>33.5</ele><time>2026-05-03T11:08:57Z</time></trkpt><trkpt lat="40.329090205931294" lon="8.436131699261578"><ele>34.25</ele><time>2026-05-03T11:08:58Z</time></trkpt><trkpt lat="40.32921657225065" lon="8.436060003127952"><ele>35.0</ele><time>2026-05-03T11:08:59Z</time></trkpt><trkpt lat="40.32935220597432" lon="8.436016971955455"><ele>35.0</ele><time>2026-05-03T11:09:00Z</time></trkpt><trkpt lat="40.32949013459561" lon="8.436005711477979"><ele>35.0</ele><time>2026-05-03T11:09:01Z</time></trkpt><trkpt lat="40.32963038277564" lon="8.436023298846429"><ele>35.0</ele><time>2026-05-03T11:09:02Z</time></trkpt><trkpt lat="40.329767339134385" lon="8.436066410778238"><ele>35.0</ele><time>2026-05-03T11:09:03Z</time></trkpt><trkpt lat="40.32990158572561" lon="8.436140610740786"><ele>37.666666666666664</ele><time>2026-05-03T11:09:04Z</time></trkpt><trkpt lat="40.3300347776941" lon="8.436243470396178"><ele>40.333333333333336</ele><time>2026-05-03T11:09:05Z</time></trkpt><trkpt lat="40.33016286311834" lon="8.436370704218426"><ele>43.0</ele><time>2026-05-03T11:09:06Z</time></trkpt><trkpt lat="40.330299739139285" lon="8.436508003441066"><ele>43.0</ele><time>2026-05-03T11:09:07Z</time></trkpt><trkpt lat="40.33044739401372" lon="8.436644633714074"><ele>43.0</ele><time>2026-05-03T11:09:08Z</time></trkpt><trkpt lat="40.33059292021322" lon="8.436762677811345"><ele>43.0</ele><time>2026-05-03T11:09:09Z</time></trkpt><trkpt lat="40.33074881681572" lon="8.436843158086287"><ele>47.333333333333336</ele><time>2026-05-03T11:09:10Z</time></trkpt><trkpt lat="40.33091068416162" lon="8.436898564286881"><ele>51.66666666666667</ele><time>2026-05-03T11:09:11Z</time></trkpt><trkpt lat="40.33108220617564" lon="8.436916696473954"><ele>56.0</ele><time>2026-05-03T11:09:12Z</time></trkpt><trkpt lat="40.33125790473999" lon="8.43691020978843"><ele>59.0</ele><time>2026-05-03T11:09:13Z</time></trkpt><trkpt lat="40.33144035812209" lon="8.436865823689688"><ele>62.0</ele><time>2026-05-03T11:09:14Z</time></trkpt><trkpt lat="40.331615568072834" lon="8.436787264058342"><ele>65.0</ele><time>2026-05-03T11:09:15Z</time></trkpt><trkpt lat="40.33178298682439" lon="8.436674521857723"><ele>65.0</ele><time>2026-05-03T11:09:16Z</time></trkpt><trkpt lat="40.33193469935316" lon="8.436526285143692"><ele>65.0</ele><time>2026-05-03T11:09:17Z</time></trkpt><trkpt lat="40.3320841825215" lon="8.436357412539186"><ele>65.0</ele><time>2026-05-03T11:09:18Z</time></trkpt><trkpt lat="40.33223317391084" lon="8.436173256499044"><ele>69.33333333333334</ele><time>2026-05-03T11:09:19Z</time></trkpt><trkpt lat="40.33238091701885" lon="8.435991046760336"><ele>73.66666666666667</ele><time>2026-05-03T11:09:20Z</time></trkpt><trkpt lat="40.33253704108202" lon="8.435802808468793"><ele>78.0</ele><time>2026-05-03T11:09:21Z</time></trkpt><trkpt lat="40.33270069644219" lon="8.43560864067292"><ele>79.66666666666667</ele><time>2026-05-03T11:09:22Z</time></trkpt><trkpt lat="40.33286443878727" lon="8.435408409509076"><ele>81.33333333333334</ele><time>2026-05-03T11:09:23Z</time></trkpt><trkpt lat="40.33303097616492" lon="8.435211187599924"><ele>83.0</ele><time>2026-05-03T11:09:24Z</time></trkpt><trkpt lat="40.33320039867626" lon="8.43501043426646"><ele>83.66666666666667</ele><time>2026-05-03T11:09:25Z</time></trkpt><trkpt lat="40.333377151863765" lon="8.434826490450234"><ele>84.33333333333333</ele><time>2026-05-03T11:09:26Z</time></trkpt><trkpt lat="40.33355639907043" lon="8.434655377829014"><ele>85.0</ele><time>2026-05-03T11:09:27Z</time></trkpt><trkpt lat="40.33373506287431" lon="8.434488153711191"><ele>87.0</ele><time>2026-05-03T11:09:28Z</time></trkpt><trkpt lat="40.33390379123857" lon="8.434332727922229"><ele>89.0</ele><time>2026-05-03T11:09:29Z</time></trkpt><trkpt lat="40.33405881441247" lon="8.434191953298539"><ele>91.0</ele><time>2026-05-03T11:09:30Z</time></trkpt><trkpt lat="40.33420772627931" lon="8.434058487951733"><ele>91.0</ele><time>2026-05-03T11:09:31Z</time></trkpt><trkpt lat="40.33434868252619" lon="8.4339374106549"><ele>91.0</ele><time>2026-05-03T11:09:32Z</time></trkpt><trkpt lat="40.33447897829202" lon="8.433824435850754"><ele>91.0</ele><time>2026-05-03T11:09:33Z</time></trkpt><trkpt lat="40.334596848226674" lon="8.433706610319136"><ele>92.33333333333333</ele><time>2026-05-03T11:09:34Z</time></trkpt><trkpt lat="40.33470638830855" lon="8.43356763973483"><ele>93.66666666666667</ele><time>2026-05-03T11:09:35Z</time></trkpt><trkpt lat="40.33479084355274" lon="8.433398440805147"><ele>95.0</ele><time>2026-05-03T11:09:36Z</time></trkpt><trkpt lat="40.33483859616862" lon="8.433218025268973"><ele>95.0</ele><time>2026-05-03T11:09:37Z</time></trkpt><trkpt lat="40.33485666970594" lon="8.433015339273478"><ele>95.0</ele><time>2026-05-03T11:09:38Z</time></trkpt><trkpt lat="40.33487471808793" lon="8.43278971819713"><ele>95.0</ele><time>2026-05-03T11:09:39Z</time></trkpt><trkpt lat="40.33491373118386" lon="8.432572445889052"><ele>92.33333333333334</ele><time>2026-05-03T11:09:40Z</time></trkpt><trkpt lat="40.33498229649139" lon="8.432334353335344"><ele>89.66666666666667</ele><time>2026-05-03T11:09:41Z</time></trkpt><trkpt lat="40.33506871328029" lon="8.432097960055172"><ele>87.0</ele><time>2026-05-03T11:09:42Z</time></trkpt><trkpt lat="40.33516938341685" lon="8.431858964039737"><ele>83.33333333333333</ele><time>2026-05-03T11:09:43Z</time></trkpt><trkpt lat="40.33527185702354" lon="8.43161700920191"><ele>79.66666666666666</ele><time>2026-05-03T11:09:44Z</time></trkpt><trkpt lat="40.335369141335036" lon="8.431376904425248"><ele>76.0</ele><time>2026-05-03T11:09:45Z</time></trkpt><trkpt lat="40.33546315493025" lon="8.431152284861916"><ele>73.66666666666666</ele><time>2026-05-03T11:09:46Z</time></trkpt><trkpt lat="40.33555194552413" lon="8.430937441395537"><ele>71.33333333333333</ele><time>2026-05-03T11:09:47Z</time></trkpt><trkpt lat="40.33563322010308" lon="8.430741009429436"><ele>69.0</ele><time>2026-05-03T11:09:48Z</time></trkpt><trkpt lat="40.33571398964995" lon="8.430561508410165"><ele>71.66666666666667</ele><time>2026-05-03T11:09:49Z</time></trkpt><trkpt lat="40.33580877427369" lon="8.430399259055843"><ele>74.33333333333334</ele><time>2026-05-03T11:09:50Z</time></trkpt><trkpt lat="40.33592684443489" lon="8.430252336920116"><ele>77.0</ele><time>2026-05-03T11:09:51Z</time></trkpt><trkpt lat="40.336065331885045" lon="8.43013229438147"><ele>77.0</ele><time>2026-05-03T11:09:52Z</time></trkpt><trkpt lat="40.33622040676218" lon="8.43005234445766"><ele>77.0</ele><time>2026-05-03T11:09:53Z</time></trkpt><trkpt lat="40.33638993223851" lon="8.42999194815029"><ele>77.0</ele><time>2026-05-03T11:09:54Z</time></trkpt><trkpt lat="40.336573991211424" lon="8.429942331897811"><ele>82.66666666666667</ele><time>2026-05-03T11:09:55Z</time></trkpt><trkpt lat="40.33676270861829" lon="8.429891170838475"><ele>88.33333333333333</ele><time>2026-05-03T11:09:56Z</time></trkpt><trkpt lat="40.336935695638644" lon="8.429841314047927"><ele>94.0</ele><time>2026-05-03T11:09:57Z</time></trkpt><trkpt lat="40.33709384289572" lon="8.429802739297282"><ele>95.0</ele><time>2026-05-03T11:09:58Z</time></trkpt><trkpt lat="40.337237352127154" lon="8.429781256583281"><ele>96.0</ele><time>2026-05-03T11:09:59Z</time></trkpt><trkpt lat="40.33737370028566" lon="8.429794980284639"><ele>97.0</ele><time>2026-05-03T11:10:00Z</time></trkpt><trkpt lat="40.33750593026657" lon="8.429829474723892"><ele>98.0</ele><time>2026-05-03T11:10:01Z</time></trkpt><trkpt lat="40.33762718635941" lon="8.42990013896106"><ele>98.0</ele><time>2026-05-03T11:10:02Z</time></trkpt><trkpt lat="40.337745571316475" lon="8.42999044692355"><ele>98.0</ele><time>2026-05-03T11:10:03Z</time></trkpt><trkpt lat="40.33786685702475" lon="8.430098339614368"><ele>98.0</ele><time>2026-05-03T11:10:04Z</time></trkpt><trkpt lat="40.33799069221048" lon="8.43021904823463"><ele>98.0</ele><time>2026-05-03T11:10:05Z</time></trkpt><trkpt lat="40.33811339189795" lon="8.430355322202917"><ele>101.0</ele><time>2026-05-03T11:10:06Z</time></trkpt><trkpt lat="40.33823440641275" lon="8.430500984503716"><ele>104.0</ele><time>2026-05-03T11:10:07Z</time></trkpt><trkpt lat="40.33835924743286" lon="8.430661893688809"><ele>107.0</ele><time>2026-05-03T11:10:08Z</time></trkpt><trkpt lat="40.338482276093245" lon="8.430819729165044"><ele>107.0</ele><time>2026-05-03T11:10:09Z</time></trkpt><trkpt lat="40.33860652332261" lon="8.430982657468098"><ele>107.0</ele><time>2026-05-03T11:10:10Z</time></trkpt><trkpt lat="40.33872111974195" lon="8.431131820648613"><ele>107.0</ele><time>2026-05-03T11:10:11Z</time></trkpt><trkpt lat="40.3388420259548" lon="8.431256271874117"><ele>112.33333333333333</ele><time>2026-05-03T11:10:12Z</time></trkpt><trkpt lat="40.33897938385561" lon="8.43134086898168"><ele>117.66666666666666</ele><time>2026-05-03T11:10:13Z</time></trkpt><trkpt lat="40.33912242217664" lon="8.431387152471649"><ele>123.0</ele><time>2026-05-03T11:10:14Z</time></trkpt><trkpt lat="40.339285735661335" lon="8.431400668414195"><ele>123.0</ele><time>2026-05-03T11:10:15Z</time></trkpt><trkpt lat="40.339453984567406" lon="8.431395393651796"><ele>123.0</ele><time>2026-05-03T11:10:16Z</time></trkpt><trkpt lat="40.33960766633868" lon="8.431385565185476"><ele>123.0</ele><time>2026-05-03T11:10:17Z</time></trkpt><trkpt lat="40.33974035868544" lon="8.431347763340039"><ele>120.5</ele><time>2026-05-03T11:10:18Z</time></trkpt><trkpt lat="40.33986726412553" lon="8.431279565947108"><ele>118.0</ele><time>2026-05-03T11:10:19Z</time></trkpt><trkpt lat="40.3399725609243" lon="8.43116126754614"><ele>115.5</ele><time>2026-05-03T11:10:20Z</time></trkpt><trkpt lat="40.340056539800905" lon="8.431009577941676"><ele>113.0</ele><time>2026-05-03T11:10:21Z</time></trkpt><trkpt lat="40.340106401649216" lon="8.430835330205365"><ele>113.0</ele><time>2026-05-03T11:10:22Z</time></trkpt><trkpt lat="40.34012413895704" lon="8.430645161245776"><ele>113.0</ele><time>2026-05-03T11:10:23Z</time></trkpt><trkpt lat="40.340113343725044" lon="8.430442598675283"><ele>113.0</ele><time>2026-05-03T11:10:24Z</time></trkpt><trkpt lat="40.34007209424043" lon="8.430223761232593"><ele>114.66666666666666</ele><time>2026-05-03T11:10:25Z</time></trkpt><trkpt lat="40.340023847220486" lon="8.430001292372589"><ele>116.33333333333334</ele><time>2026-05-03T11:10:26Z</time></trkpt><trkpt lat="40.339993968620924" lon="8.429789168523618"><ele>118.0</ele><time>2026-05-03T11:10:27Z</time></trkpt><trkpt lat="40.33999271535714" lon="8.42959216352344"><ele>118.25</ele><time>2026-05-03T11:10:28Z</time></trkpt><trkpt lat="40.340013328197806" lon="8.429401054971072"><ele>118.5</ele><time>2026-05-03T11:10:29Z</time></trkpt><trkpt lat="40.34006130277766" lon="8.429227679685196"><ele>118.75</ele><time>2026-05-03T11:10:30Z</time></trkpt><trkpt lat="40.34013955472829" lon="8.429092913371779"><ele>119.0</ele><time>2026-05-03T11:10:31Z</time></trkpt><trkpt lat="40.34024526252026" lon="8.428991269780672"><ele>119.0</ele><time>2026-05-03T11:10:32Z</time></trkpt><trkpt lat="40.340368208207785" lon="8.42892077668256"><ele>119.0</ele><time>2026-05-03T11:10:33Z</time></trkpt><trkpt lat="40.340503164671645" lon="8.428883980118114"><ele>119.0</ele><time>2026-05-03T11:10:34Z</time></trkpt><trkpt lat="40.3406446195928" lon="8.428885080751531"><ele>119.0</ele><time>2026-05-03T11:10:35Z</time></trkpt><trkpt lat="40.34079410573978" lon="8.428923486662097"><ele>125.0</ele><time>2026-05-03T11:10:36Z</time></trkpt><trkpt lat="40.34095505515031" lon="8.42898073335528"><ele>131.0</ele><time>2026-05-03T11:10:37Z</time></trkpt><trkpt lat="40.34112178227402" lon="8.429053622679564"><ele>137.0</ele><time>2026-05-03T11:10:38Z</time></trkpt><trkpt lat="40.341279450504615" lon="8.429091336258146"><ele>139.66666666666666</ele><time>2026-05-03T11:10:39Z</time></trkpt><trkpt lat="40.34143374807377" lon="8.429082899709831"><ele>142.33333333333334</ele><time>2026-05-03T11:10:40Z</time></trkpt><trkpt lat="40.341586907604935" lon="8.42903445990735"><ele>145.0</ele><time>2026-05-03T11:10:41Z</time></trkpt><trkpt lat="40.341715103790165" lon="8.428948951195649"><ele>145.0</ele><time>2026-05-03T11:10:42Z</time></trkpt><trkpt lat="40.341819576602745" lon="8.4288323544837"><ele>145.0</ele><time>2026-05-03T11:10:43Z</time></trkpt><trkpt lat="40.34191944375363" lon="8.428676408961872"><ele>145.0</ele><time>2026-05-03T11:10:44Z</time></trkpt><trkpt lat="40.34202292823797" lon="8.4285011133819"><ele>141.0</ele><time>2026-05-03T11:10:45Z</time></trkpt><trkpt lat="40.34213614556665" lon="8.428345289763225"><ele>137.0</ele><time>2026-05-03T11:10:46Z</time></trkpt><trkpt lat="40.34226079222872" lon="8.428221777297512"><ele>133.0</ele><time>2026-05-03T11:10:47Z</time></trkpt><trkpt lat="40.34239735995251" lon="8.428120306849712"><ele>133.33333333333334</ele><time>2026-05-03T11:10:48Z</time></trkpt><trkpt lat="40.34255080245927" lon="8.42804192254222"><ele>133.66666666666666</ele><time>2026-05-03T11:10:49Z</time></trkpt><trkpt lat="40.34271726157427" lon="8.427981436858076"><ele>134.0</ele><time>2026-05-03T11:10:50Z</time></trkpt><trkpt lat="40.34289029291481" lon="8.427928728883778"><ele>141.33333333333331</ele><time>2026-05-03T11:10:51Z</time></trkpt><trkpt lat="40.34306245642143" lon="8.427872603175977"><ele>148.66666666666666</ele><time>2026-05-03T11:10:52Z</time></trkpt><trkpt lat="40.3432231683234" lon="8.42781112616607"><ele>156.0</ele><time>2026-05-03T11:10:53Z</time></trkpt><trkpt lat="40.343370869384465" lon="8.427733993578377"><ele>156.0</ele><time>2026-05-03T11:10:54Z</time></trkpt><trkpt lat="40.34350647619286" lon="8.42762996820861"><ele>156.0</ele><time>2026-05-03T11:10:55Z</time></trkpt><trkpt lat="40.34362112580903" lon="8.42748323319222"><ele>156.0</ele><time>2026-05-03T11:10:56Z</time></trkpt><trkpt lat="40.3437158028823" lon="8.427311029895613"><ele>151.0</ele><time>2026-05-03T11:10:57Z</time></trkpt><trkpt lat="40.34378962843608" lon="8.427112140875233"><ele>146.0</ele><time>2026-05-03T11:10:58Z</time></trkpt><trkpt lat="40.34385469248972" lon="8.426898098250861"><ele>141.0</ele><time>2026-05-03T11:10:59Z</time></trkpt><trkpt lat="40.343922888181666" lon="8.426686240553767"><ele>154.33333333333334</ele><time>2026-05-03T11:11:00Z</time></trkpt><trkpt lat="40.34396844535045" lon="8.426481758332116"><ele>167.66666666666669</ele><time>2026-05-03T11:11:01Z</time></trkpt><trkpt lat="40.34397902658613" lon="8.426272695975795"><ele>181.0</ele><time>2026-05-03T11:11:02Z</time></trkpt><trkpt lat="40.34395782380996" lon="8.426065150741648"><ele>185.33333333333334</ele><time>2026-05-03T11:11:03Z</time></trkpt><trkpt lat="40.34390254482357" lon="8.425861264132735"><ele>189.66666666666669</ele><time>2026-05-03T11:11:04Z</time></trkpt><trkpt lat="40.34382259085394" lon="8.425658587538177"><ele>194.0</ele><time>2026-05-03T11:11:05Z</time></trkpt><trkpt lat="40.343733350006296" lon="8.42546500434289"><ele>184.66666666666669</ele><time>2026-05-03T11:11:06Z</time></trkpt><trkpt lat="40.34365000996772" lon="8.425254901084719"><ele>175.33333333333334</ele><time>2026-05-03T11:11:07Z</time></trkpt><trkpt lat="40.343595510941874" lon="8.425035205745596"><ele>166.0</ele><time>2026-05-03T11:11:08Z</time></trkpt><trkpt lat="40.343561759899266" lon="8.424811571364584"><ele>169.33333333333334</ele><time>2026-05-03T11:11:09Z</time></trkpt><trkpt lat="40.3435516382903" lon="8.424591444784145"><ele>172.66666666666666</ele><time>2026-05-03T11:11:10Z</time></trkpt><trkpt lat="40.34356077615188" lon="8.424355698413716"><ele>176.0</ele><time>2026-05-03T11:11:11Z</time></trkpt><trkpt lat="40.34357854899371" lon="8.42411387581727"><ele>173.66666666666666</ele><time>2026-05-03T11:11:12Z</time></trkpt><trkpt lat="40.34352632122721" lon="8.423743697149998"><ele>171.33333333333334</ele><time>2026-05-03T11:11:13Z</time></trkpt><trkpt lat="40.34363936798115" lon="8.423649923887188"><ele>169.0</ele><time>2026-05-03T11:11:14Z</time></trkpt><trkpt lat="40.34374634315627" lon="8.423509192512396"><ele>169.0</ele><time>2026-05-03T11:11:15Z</time></trkpt><trkpt lat="40.34386082322013" lon="8.423361414520171"><ele>169.0</ele><time>2026-05-03T11:11:16Z</time></trkpt><trkpt lat="40.34399938702134" lon="8.423242796632461"><ele>169.0</ele><time>2026-05-03T11:11:17Z</time></trkpt><trkpt lat="40.34415477876534" lon="8.423134889166988"><ele>172.66666666666669</ele><time>2026-05-03T11:11:18Z</time></trkpt><trkpt lat="40.34431237345511" lon="8.423028409597986"><ele>176.33333333333334</ele><time>2026-05-03T11:11:19Z</time></trkpt><trkpt lat="40.344471347269746" lon="8.422935265294486"><ele>180.0</ele><time>2026-05-03T11:11:20Z</time></trkpt><trkpt lat="40.34463807017836" lon="8.422873237599278"><ele>185.0</ele><time>2026-05-03T11:11:21Z</time></trkpt><trkpt lat="40.34479685113087" lon="8.422843389838427"><ele>190.0</ele><time>2026-05-03T11:11:22Z</time></trkpt><trkpt lat="40.344961462587996" lon="8.422835565691994"><ele>195.0</ele><time>2026-05-03T11:11:23Z</time></trkpt><trkpt lat="40.345106544078895" lon="8.422867541695595"><ele>195.0</ele><time>2026-05-03T11:11:24Z</time></trkpt><trkpt lat="40.34524089106489" lon="8.422940018563166"><ele>195.0</ele><time>2026-05-03T11:11:25Z</time></trkpt><trkpt lat="40.3453633223079" lon="8.42304829610916"><ele>195.0</ele><time>2026-05-03T11:11:26Z</time></trkpt><trkpt lat="40.34548080774166" lon="8.42319038256555"><ele>194.0</ele><time>2026-05-03T11:11:27Z</time></trkpt><trkpt lat="40.345604008043956" lon="8.423360691887448"><ele>193.0</ele><time>2026-05-03T11:11:28Z</time></trkpt><trkpt lat="40.34573511451983" lon="8.423542374648529"><ele>192.0</ele><time>2026-05-03T11:11:29Z</time></trkpt><trkpt lat="40.34586841398931" lon="8.42373501607465"><ele>194.0</ele><time>2026-05-03T11:11:30Z</time></trkpt><trkpt lat="40.346005059389235" lon="8.423930565211384"><ele>196.0</ele><time>2026-05-03T11:11:31Z</time></trkpt><trkpt lat="40.34614582334168" lon="8.424136399537247"><ele>198.0</ele><time>2026-05-03T11:11:32Z</time></trkpt><trkpt lat="40.34628592396469" lon="8.42433637485847"><ele>200.33333333333331</ele><time>2026-05-03T11:11:33Z</time></trkpt><trkpt lat="40.34643311933128" lon="8.424544607726794"><ele>202.66666666666666</ele><time>2026-05-03T11:11:34Z</time></trkpt><trkpt lat="40.34658503852391" lon="8.424763789280409"><ele>205.0</ele><time>2026-05-03T11:11:35Z</time></trkpt><trkpt lat="40.34673683427322" lon="8.42498589600964"><ele>205.0</ele><time>2026-05-03T11:11:36Z</time></trkpt><trkpt lat="40.34688911581444" lon="8.425209438048668"><ele>205.0</ele><time>2026-05-03T11:11:37Z</time></trkpt><trkpt lat="40.34704271323112" lon="8.425429813787416"><ele>207.33333333333331</ele><time>2026-05-03T11:11:38Z</time></trkpt><trkpt lat="40.347192572341456" lon="8.425644296519371"><ele>209.66666666666669</ele><time>2026-05-03T11:11:39Z</time></trkpt><trkpt lat="40.34733603914242" lon="8.425854262844789"><ele>212.0</ele><time>2026-05-03T11:11:40Z</time></trkpt><trkpt lat="40.347471316675325" lon="8.426075372962599"><ele>212.0</ele><time>2026-05-03T11:11:41Z</time></trkpt><trkpt lat="40.34759539516355" lon="8.426308701050637"><ele>212.0</ele><time>2026-05-03T11:11:42Z</time></trkpt><trkpt lat="40.347713841769064" lon="8.426550910404359"><ele>212.0</ele><time>2026-05-03T11:11:43Z</time></trkpt><trkpt lat="40.34783234306674" lon="8.426799540604772"><ele>213.0</ele><time>2026-05-03T11:11:44Z</time></trkpt><trkpt lat="40.347945502771054" lon="8.427049810821327"><ele>214.0</ele><time>2026-05-03T11:11:45Z</time></trkpt><trkpt lat="40.34806078989876" lon="8.4273101269198"><ele>214.0</ele><time>2026-05-03T11:11:46Z</time></trkpt><trkpt lat="40.3481708307052" lon="8.42756308958795"><ele>214.0</ele><time>2026-05-03T11:11:47Z</time></trkpt><trkpt lat="40.34826662255343" lon="8.427810702035147"><ele>214.0</ele><time>2026-05-03T11:11:48Z</time></trkpt><trkpt lat="40.34835100477739" lon="8.428068881993074"><ele>219.0</ele><time>2026-05-03T11:11:49Z</time></trkpt><trkpt lat="40.34842815868795" lon="8.42831794838009"><ele>224.0</ele><time>2026-05-03T11:11:50Z</time></trkpt><trkpt lat="40.34849606783492" lon="8.428552419871211"><ele>229.0</ele><time>2026-05-03T11:11:51Z</time></trkpt><trkpt lat="40.34856215194403" lon="8.428773664446746"><ele>235.66666666666666</ele><time>2026-05-03T11:11:52Z</time></trkpt><trkpt lat="40.348634449632144" lon="8.428975158756163"><ele>242.33333333333331</ele><time>2026-05-03T11:11:53Z</time></trkpt><trkpt lat="40.348725709385036" lon="8.429154845024813"><ele>249.0</ele><time>2026-05-03T11:11:54Z</time></trkpt><trkpt lat="40.348835433161696" lon="8.4293041336147"><ele>243.33333333333331</ele><time>2026-05-03T11:11:55Z</time></trkpt><trkpt lat="40.3489662017446" lon="8.429424027968182"><ele>237.66666666666666</ele><time>2026-05-03T11:11:56Z</time></trkpt><trkpt lat="40.34911674080829" lon="8.429511071446797"><ele>232.0</ele><time>2026-05-03T11:11:57Z</time></trkpt><trkpt lat="40.349289688198084" lon="8.429572440155008"><ele>232.0</ele><time>2026-05-03T11:11:58Z</time></trkpt><trkpt lat="40.34948058707385" lon="8.429615348986825"><ele>232.0</ele><time>2026-05-03T11:11:59Z</time></trkpt><trkpt lat="40.34967916935436" lon="8.429651873325133"><ele>232.0</ele><time>2026-05-03T11:12:00Z</time></trkpt><trkpt lat="40.34988626536259" lon="8.429690649596772"><ele>239.0</ele><time>2026-05-03T11:12:01Z</time></trkpt><trkpt lat="40.350098720859016" lon="8.429735455444261"><ele>246.0</ele><time>2026-05-03T11:12:02Z</time></trkpt><trkpt lat="40.35031950263558" lon="8.42978349853335"><ele>253.0</ele><time>2026-05-03T11:12:03Z</time></trkpt><trkpt lat="40.35053769140479" lon="8.429829420670947"><ele>254.66666666666666</ele><time>2026-05-03T11:12:04Z</time></trkpt><trkpt lat="40.35075171361263" lon="8.429875864003613"><ele>256.3333333333333</ele><time>2026-05-03T11:12:05Z</time></trkpt><trkpt lat="40.35095748358696" lon="8.429924034691972"><ele>258.0</ele><time>2026-05-03T11:12:06Z</time></trkpt><trkpt lat="40.35115764867159" lon="8.429967685273331"><ele>258.0</ele><time>2026-05-03T11:12:07Z</time></trkpt><trkpt lat="40.35135575074175" lon="8.429996147510245"><ele>258.0</ele><time>2026-05-03T11:12:08Z</time></trkpt><trkpt lat="40.3515503058622" lon="8.429997827217454"><ele>258.0</ele><time>2026-05-03T11:12:09Z</time></trkpt><trkpt lat="40.35173390323272" lon="8.429970493740734"><ele>260.3333333333333</ele><time>2026-05-03T11:12:10Z</time></trkpt><trkpt lat="40.35190658575514" lon="8.42991179483074"><ele>262.66666666666663</ele><time>2026-05-03T11:12:11Z</time></trkpt><trkpt lat="40.35205939915132" lon="8.429814464474918"><ele>265.0</ele><time>2026-05-03T11:12:12Z</time></trkpt><trkpt lat="40.352191184585756" lon="8.42968829296324"><ele>262.3333333333333</ele><time>2026-05-03T11:12:13Z</time></trkpt><trkpt lat="40.35230077549571" lon="8.429524762225197"><ele>259.6666666666667</ele><time>2026-05-03T11:12:14Z</time></trkpt><trkpt lat="40.352405354358595" lon="8.429356302195412"><ele>257.0</ele><time>2026-05-03T11:12:15Z</time></trkpt><trkpt lat="40.352508080630066" lon="8.429169361200946"><ele>257.0</ele><time>2026-05-03T11:12:16Z</time></trkpt><trkpt lat="40.352607129833004" lon="8.428988027722514"><ele>257.0</ele><time>2026-05-03T11:12:17Z</time></trkpt><trkpt lat="40.352713403547355" lon="8.428793468132813"><ele>257.0</ele><time>2026-05-03T11:12:18Z</time></trkpt><trkpt lat="40.352922753358435" lon="8.428440091658738"><ele>260.5</ele><time>2026-05-03T11:12:19Z</time></trkpt><trkpt lat="40.353067177348265" lon="8.428174332318251"><ele>264.0</ele><time>2026-05-03T11:12:20Z</time></trkpt><trkpt lat="40.35321458844962" lon="8.427897367068091"><ele>264.0</ele><time>2026-05-03T11:12:21Z</time></trkpt><trkpt lat="40.35336833455128" lon="8.427606398081691"><ele>264.0</ele><time>2026-05-03T11:12:22Z</time></trkpt><trkpt lat="40.35352739316273" lon="8.427310498303454"><ele>262.5</ele><time>2026-05-03T11:12:23Z</time></trkpt><trkpt lat="40.3536927534085" lon="8.427014235124597"><ele>261.0</ele><time>2026-05-03T11:12:24Z</time></trkpt><trkpt lat="40.35385959511993" lon="8.426708532014196"><ele>267.5</ele><time>2026-05-03T11:12:25Z</time></trkpt><trkpt lat="40.354025767651684" lon="8.426400141574712"><ele>274.0</ele><time>2026-05-03T11:12:26Z</time></trkpt><trkpt lat="40.354193035428175" lon="8.426087441205272"><ele>274.0</ele><time>2026-05-03T11:12:27Z</time></trkpt><trkpt lat="40.3543624150036" lon="8.425782250043921"><ele>274.0</ele><time>2026-05-03T11:12:28Z</time></trkpt><trkpt lat="40.3545238170476" lon="8.425484232895892"><ele>269.0</ele><time>2026-05-03T11:12:29Z</time></trkpt><trkpt lat="40.35467546353193" lon="8.425206565371772"><ele>264.0</ele><time>2026-05-03T11:12:30Z</time></trkpt><trkpt lat="40.354814859482985" lon="8.4249469468409"><ele>277.0</ele><time>2026-05-03T11:12:31Z</time></trkpt><trkpt lat="40.35495219801111" lon="8.42470147240325"><ele>290.0</ele><time>2026-05-03T11:12:32Z</time></trkpt><trkpt lat="40.355085083190374" lon="8.424469748276612"><ele>290.0</ele><time>2026-05-03T11:12:33Z</time></trkpt><trkpt lat="40.355212773680655" lon="8.424237274696805"><ele>290.0</ele><time>2026-05-03T11:12:34Z</time></trkpt><trkpt lat="40.35534323306232" lon="8.423988947121051"><ele>290.0</ele><time>2026-05-03T11:12:35Z</time></trkpt><trkpt lat="40.35548207927868" lon="8.423729948862087"><ele>298.5</ele><time>2026-05-03T11:12:36Z</time></trkpt><trkpt lat="40.355624594468296" lon="8.42346720312025"><ele>307.0</ele><time>2026-05-03T11:12:37Z</time></trkpt><trkpt lat="40.35576530145289" lon="8.423207158757835"><ele>301.0</ele><time>2026-05-03T11:12:38Z</time></trkpt><trkpt lat="40.35590619885978" lon="8.422953806619804"><ele>295.0</ele><time>2026-05-03T11:12:39Z</time></trkpt><trkpt lat="40.35604595718173" lon="8.422708645246004"><ele>295.0</ele><time>2026-05-03T11:12:40Z</time></trkpt><trkpt lat="40.35617912224865" lon="8.422468980400723"><ele>295.0</ele><time>2026-05-03T11:12:41Z</time></trkpt><trkpt lat="40.356288752900284" lon="8.422265973252193"><ele>295.0</ele><time>2026-05-03T11:12:42Z</time></trkpt><trkpt lat="40.35641378660957" lon="8.422065794082249"><ele>294.3333333333333</ele><time>2026-05-03T11:12:43Z</time></trkpt><trkpt lat="40.35653083750449" lon="8.421880059565765"><ele>293.6666666666667</ele><time>2026-05-03T11:12:44Z</time></trkpt><trkpt lat="40.35665333782389" lon="8.4217110157435"><ele>293.0</ele><time>2026-05-03T11:12:45Z</time></trkpt><trkpt lat="40.35678275777486" lon="8.42156263577995"><ele>293.0</ele><time>2026-05-03T11:12:46Z</time></trkpt><trkpt lat="40.35691456744107" lon="8.421447525703396"><ele>293.0</ele><time>2026-05-03T11:12:47Z</time></trkpt><trkpt lat="40.35705375419446" lon="8.421358647145894"><ele>293.0</ele><time>2026-05-03T11:12:48Z</time></trkpt><trkpt lat="40.35720056120308" lon="8.42128835777811"><ele>284.33333333333337</ele><time>2026-05-03T11:12:49Z</time></trkpt><trkpt lat="40.35735261882427" lon="8.421252167657075"><ele>275.6666666666667</ele><time>2026-05-03T11:12:50Z</time></trkpt><trkpt lat="40.35750012884145" lon="8.421252932803103"><ele>267.0</ele><time>2026-05-03T11:12:51Z</time></trkpt><trkpt lat="40.357653725605886" lon="8.421259432302172"><ele>267.0</ele><time>2026-05-03T11:12:52Z</time></trkpt><trkpt lat="40.35780745422554" lon="8.421247838099022"><ele>267.0</ele><time>2026-05-03T11:12:53Z</time></trkpt><trkpt lat="40.357962459555125" lon="8.421213161776848"><ele>267.0</ele><time>2026-05-03T11:12:54Z</time></trkpt><trkpt lat="40.35812196643432" lon="8.421137111319174"><ele>270.0</ele><time>2026-05-03T11:12:55Z</time></trkpt><trkpt lat="40.35826560455985" lon="8.421023495917375"><ele>273.0</ele><time>2026-05-03T11:12:56Z</time></trkpt><trkpt lat="40.35840168291701" lon="8.420894754977637"><ele>276.0</ele><time>2026-05-03T11:12:57Z</time></trkpt><trkpt lat="40.35851855483059" lon="8.420723608259694"><ele>276.0</ele><time>2026-05-03T11:12:58Z</time></trkpt><trkpt lat="40.358625446015125" lon="8.420516977732223"><ele>276.0</ele><time>2026-05-03T11:12:59Z</time></trkpt><trkpt lat="40.35873229314008" lon="8.420295176616845"><ele>276.0</ele><time>2026-05-03T11:13:00Z</time></trkpt><trkpt lat="40.35884354495836" lon="8.42006145119907"><ele>278.0</ele><time>2026-05-03T11:13:01Z</time></trkpt><trkpt lat="40.35896706201772" lon="8.419808026302471"><ele>280.0</ele><time>2026-05-03T11:13:02Z</time></trkpt><trkpt lat="40.359085513601" lon="8.419566143546803"><ele>282.0</ele><time>2026-05-03T11:13:03Z</time></trkpt><trkpt lat="40.35920982127095" lon="8.419314812684721"><ele>282.0</ele><time>2026-05-03T11:13:04Z</time></trkpt><trkpt lat="40.35933389329447" lon="8.419056139607338"><ele>282.0</ele><time>2026-05-03T11:13:05Z</time></trkpt><trkpt lat="40.35945835574138" lon="8.418795817598046"><ele>278.5</ele><time>2026-05-03T11:13:06Z</time></trkpt><trkpt lat="40.35958619167758" lon="8.418527210093922"><ele>275.0</ele><time>2026-05-03T11:13:07Z</time></trkpt><trkpt lat="40.35970673626084" lon="8.41828097122715"><ele>282.5</ele><time>2026-05-03T11:13:08Z</time></trkpt><trkpt lat="40.35982832163652" lon="8.418018580395184"><ele>290.0</ele><time>2026-05-03T11:13:09Z</time></trkpt><trkpt lat="40.3599504730974" lon="8.417766942672696"><ele>290.0</ele><time>2026-05-03T11:13:10Z</time></trkpt><trkpt lat="40.36007863000104" lon="8.417511980128648"><ele>290.0</ele><time>2026-05-03T11:13:11Z</time></trkpt><trkpt lat="40.36020777895089" lon="8.417257688784874"><ele>286.0</ele><time>2026-05-03T11:13:12Z</time></trkpt><trkpt lat="40.36033534879441" lon="8.417012398645399"><ele>282.0</ele><time>2026-05-03T11:13:13Z</time></trkpt><trkpt lat="40.36046798215072" lon="8.416774187102147"><ele>284.0</ele><time>2026-05-03T11:13:14Z</time></trkpt><trkpt lat="40.36061134342484" lon="8.416546084385434"><ele>286.0</ele><time>2026-05-03T11:13:15Z</time></trkpt><trkpt lat="40.36076645525627" lon="8.416315788508573"><ele>286.0</ele><time>2026-05-03T11:13:16Z</time></trkpt><trkpt lat="40.36093052969038" lon="8.416085262427908"><ele>286.0</ele><time>2026-05-03T11:13:17Z</time></trkpt><trkpt lat="40.361091541193126" lon="8.415864163714199"><ele>286.0</ele><time>2026-05-03T11:13:18Z</time></trkpt><trkpt lat="40.361256246264844" lon="8.415638097411401"><ele>286.0</ele><time>2026-05-03T11:13:19Z</time></trkpt><trkpt lat="40.361424515310866" lon="8.415408506482292"><ele>290.0</ele><time>2026-05-03T11:13:20Z</time></trkpt><trkpt lat="40.36159372065984" lon="8.41517917546202"><ele>294.0</ele><time>2026-05-03T11:13:21Z</time></trkpt><trkpt lat="40.36176003821754" lon="8.41494876364559"><ele>294.0</ele><time>2026-05-03T11:13:22Z</time></trkpt><trkpt lat="40.36192846799089" lon="8.414714270736688"><ele>294.0</ele><time>2026-05-03T11:13:23Z</time></trkpt><trkpt lat="40.36209378626317" lon="8.414481574575797"><ele>303.0</ele><time>2026-05-03T11:13:24Z</time></trkpt><trkpt lat="40.36227250690456" lon="8.414237170221783"><ele>312.0</ele><time>2026-05-03T11:13:25Z</time></trkpt><trkpt lat="40.36245447003234" lon="8.413986850495224"><ele>305.5</ele><time>2026-05-03T11:13:26Z</time></trkpt><trkpt lat="40.3626486367635" lon="8.413717853609926"><ele>299.0</ele><time>2026-05-03T11:13:27Z</time></trkpt><trkpt lat="40.36285054267685" lon="8.413437990033614"><ele>302.5</ele><time>2026-05-03T11:13:28Z</time></trkpt><trkpt lat="40.363054060259415" lon="8.41315150493051"><ele>306.0</ele><time>2026-05-03T11:13:29Z</time></trkpt><trkpt lat="40.363261596509695" lon="8.41286274387551"><ele>306.0</ele><time>2026-05-03T11:13:30Z</time></trkpt><trkpt lat="40.36346843784406" lon="8.412573339058477"><ele>306.0</ele><time>2026-05-03T11:13:31Z</time></trkpt><trkpt lat="40.363666295729594" lon="8.412301955844589"><ele>310.0</ele><time>2026-05-03T11:13:32Z</time></trkpt><trkpt lat="40.36385220952301" lon="8.412043709654926"><ele>314.0</ele><time>2026-05-03T11:13:33Z</time></trkpt><trkpt lat="40.36402727323739" lon="8.411802708607398"><ele>314.0</ele><time>2026-05-03T11:13:34Z</time></trkpt><trkpt lat="40.36419616896088" lon="8.411564097002666"><ele>314.0</ele><time>2026-05-03T11:13:35Z</time></trkpt><trkpt lat="40.36435223598101" lon="8.411342225941848"><ele>312.0</ele><time>2026-05-03T11:13:36Z</time></trkpt><trkpt lat="40.364502459019626" lon="8.41112884547238"><ele>310.0</ele><time>2026-05-03T11:13:37Z</time></trkpt><trkpt lat="40.36464116472472" lon="8.410939473942891"><ele>308.0</ele><time>2026-05-03T11:13:38Z</time></trkpt><trkpt lat="40.36478350423819" lon="8.41076761081667"><ele>311.6666666666667</ele><time>2026-05-03T11:13:39Z</time></trkpt><trkpt lat="40.36493887028711" lon="8.410627260415458"><ele>315.3333333333333</ele><time>2026-05-03T11:13:40Z</time></trkpt><trkpt lat="40.36510880139138" lon="8.410508013053452"><ele>319.0</ele><time>2026-05-03T11:13:41Z</time></trkpt><trkpt lat="40.365298332484585" lon="8.410397025186949"><ele>319.0</ele><time>2026-05-03T11:13:42Z</time></trkpt><trkpt lat="40.36550490719287" lon="8.41029212382506"><ele>319.0</ele><time>2026-05-03T11:13:43Z</time></trkpt><trkpt lat="40.36570003949459" lon="8.410192058563913"><ele>319.0</ele><time>2026-05-03T11:13:44Z</time></trkpt><trkpt lat="40.365871234595225" lon="8.410091988624615"><ele>323.66666666666663</ele><time>2026-05-03T11:13:45Z</time></trkpt><trkpt lat="40.366016571044575" lon="8.409976962439812"><ele>328.3333333333333</ele><time>2026-05-03T11:13:46Z</time></trkpt><trkpt lat="40.36614064570908" lon="8.409852326718333"><ele>333.0</ele><time>2026-05-03T11:13:47Z</time></trkpt><trkpt lat="40.366237532151665" lon="8.409718415251259"><ele>334.25</ele><time>2026-05-03T11:13:48Z</time></trkpt><trkpt lat="40.36631181741859" lon="8.409568630014338"><ele>335.5</ele><time>2026-05-03T11:13:49Z</time></trkpt><trkpt lat="40.36636846607442" lon="8.409393101019448"><ele>336.75</ele><time>2026-05-03T11:13:50Z</time></trkpt><trkpt lat="40.36638467493661" lon="8.409179295387903"><ele>338.0</ele><time>2026-05-03T11:13:51Z</time></trkpt><trkpt lat="40.36641003091533" lon="8.408953325590339"><ele>342.0</ele><time>2026-05-03T11:13:52Z</time></trkpt><trkpt lat="40.366377454998755" lon="8.408701327733711"><ele>346.0</ele><time>2026-05-03T11:13:53Z</time></trkpt><trkpt lat="40.36636029712454" lon="8.40846935330699"><ele>350.0</ele><time>2026-05-03T11:13:54Z</time></trkpt><trkpt lat="40.36634554409365" lon="8.408262542274926"><ele>349.6666666666667</ele><time>2026-05-03T11:13:55Z</time></trkpt><trkpt lat="40.366349349156415" lon="8.408071439746513"><ele>349.3333333333333</ele><time>2026-05-03T11:13:56Z</time></trkpt><trkpt lat="40.366378594185676" lon="8.407877837595555"><ele>349.0</ele><time>2026-05-03T11:13:57Z</time></trkpt><trkpt lat="40.36643454757811" lon="8.407689422090556"><ele>349.0</ele><time>2026-05-03T11:13:58Z</time></trkpt><trkpt lat="40.36651370146639" lon="8.407509319769739"><ele>349.0</ele><time>2026-05-03T11:13:59Z</time></trkpt><trkpt lat="40.366611277420255" lon="8.407334423291633"><ele>349.0</ele><time>2026-05-03T11:14:00Z</time></trkpt><trkpt lat="40.366721455782205" lon="8.40715258488296"><ele>345.66666666666663</ele><time>2026-05-03T11:14:01Z</time></trkpt><trkpt lat="40.36684434974823" lon="8.406967063119575"><ele>342.3333333333333</ele><time>2026-05-03T11:14:02Z</time></trkpt><trkpt lat="40.366962165369515" lon="8.406787093152815"><ele>339.0</ele><time>2026-05-03T11:14:03Z</time></trkpt><trkpt lat="40.36707762834587" lon="8.40660845726902"><ele>339.0</ele><time>2026-05-03T11:14:04Z</time></trkpt><trkpt lat="40.36718742073098" lon="8.406442262999704"><ele>339.0</ele><time>2026-05-03T11:14:05Z</time></trkpt><trkpt lat="40.36728440542178" lon="8.406276816353863"><ele>339.0</ele><time>2026-05-03T11:14:06Z</time></trkpt><trkpt lat="40.3673560777203" lon="8.406103608154176"><ele>344.0</ele><time>2026-05-03T11:14:07Z</time></trkpt><trkpt lat="40.36739349157396" lon="8.405917221362854"><ele>349.0</ele><time>2026-05-03T11:14:08Z</time></trkpt><trkpt lat="40.36738869814383" lon="8.405728197892595"><ele>354.0</ele><time>2026-05-03T11:14:09Z</time></trkpt><trkpt lat="40.36734477050619" lon="8.405544454622724"><ele>359.0</ele><time>2026-05-03T11:14:10Z</time></trkpt><trkpt lat="40.36727140764128" lon="8.4053787064013"><ele>359.0</ele><time>2026-05-03T11:14:11Z</time></trkpt><trkpt lat="40.36716791990265" lon="8.405238983215188"><ele>359.0</ele><time>2026-05-03T11:14:12Z</time></trkpt><trkpt lat="40.36703651840108" lon="8.405124634825802"><ele>359.0</ele><time>2026-05-03T11:14:13Z</time></trkpt><trkpt lat="40.36688304736703" lon="8.405029720104814"><ele>359.0</ele><time>2026-05-03T11:14:14Z</time></trkpt><trkpt lat="40.36672469357004" lon="8.404931397009257"><ele>359.0</ele><time>2026-05-03T11:14:15Z</time></trkpt><trkpt lat="40.3665739977959" lon="8.404794787315181"><ele>359.0</ele><time>2026-05-03T11:14:16Z</time></trkpt><trkpt lat="40.36643341070772" lon="8.404618193008927"><ele>360.33333333333337</ele><time>2026-05-03T11:14:17Z</time></trkpt><trkpt lat="40.3662892562914" lon="8.404423714585565"><ele>361.6666666666667</ele><time>2026-05-03T11:14:18Z</time></trkpt><trkpt lat="40.366131835843966" lon="8.404223886316993"><ele>363.0</ele><time>2026-05-03T11:14:19Z</time></trkpt><trkpt lat="40.3659650794337" lon="8.404043931053845"><ele>363.0</ele><time>2026-05-03T11:14:20Z</time></trkpt><trkpt lat="40.365785361613945" lon="8.403899729570513"><ele>363.0</ele><time>2026-05-03T11:14:21Z</time></trkpt><trkpt lat="40.365595635150164" lon="8.403791730034222"><ele>363.0</ele><time>2026-05-03T11:14:22Z</time></trkpt><trkpt lat="40.36541379737851" lon="8.403684808027394"><ele>364.6666666666667</ele><time>2026-05-03T11:14:23Z</time></trkpt><trkpt lat="40.365233763224055" lon="8.403602322262529"><ele>366.33333333333337</ele><time>2026-05-03T11:14:24Z</time></trkpt><trkpt lat="40.365059127585255" lon="8.403523090690017"><ele>368.0</ele><time>2026-05-03T11:14:25Z</time></trkpt><trkpt lat="40.36491217602919" lon="8.403408214000558"><ele>368.0</ele><time>2026-05-03T11:14:26Z</time></trkpt><trkpt lat="40.36479184585175" lon="8.403287422824834"><ele>368.0</ele><time>2026-05-03T11:14:27Z</time></trkpt><trkpt lat="40.36470758659391" lon="8.403156820103604"><ele>368.0</ele><time>2026-05-03T11:14:28Z</time></trkpt><trkpt lat="40.36468348213885" lon="8.403027520591719"><ele>368.0</ele><time>2026-05-03T11:14:29Z</time></trkpt><trkpt lat="40.36465497018582" lon="8.402899903053862"><ele>368.4</ele><time>2026-05-03T11:14:30Z</time></trkpt><trkpt lat="40.36465883752077" lon="8.402766377744403"><ele>368.79999999999995</ele><time>2026-05-03T11:14:31Z</time></trkpt><trkpt lat="40.36467728129326" lon="8.402620118001929"><ele>369.2</ele><time>2026-05-03T11:14:32Z</time></trkpt><trkpt lat="40.36470731585325" lon="8.40248395561419"><ele>369.6</ele><time>2026-05-03T11:14:33Z</time></trkpt><trkpt lat="40.36475377504889" lon="8.402359223335253"><ele>370.0</ele><time>2026-05-03T11:14:34Z</time></trkpt><trkpt lat="40.364824670588085" lon="8.402246948694849"><ele>363.75</ele><time>2026-05-03T11:14:35Z</time></trkpt><trkpt lat="40.36491354731028" lon="8.402155215115442"><ele>357.5</ele><time>2026-05-03T11:14:36Z</time></trkpt><trkpt lat="40.36502478267479" lon="8.402078228043317"><ele>351.25</ele><time>2026-05-03T11:14:37Z</time></trkpt><trkpt lat="40.36514718281487" lon="8.402030633501555"><ele>345.0</ele><time>2026-05-03T11:14:38Z</time></trkpt><trkpt lat="40.36528832731373" lon="8.402011176721953"><ele>345.0</ele><time>2026-05-03T11:14:39Z</time></trkpt><trkpt lat="40.36544315240309" lon="8.401996635570724"><ele>345.0</ele><time>2026-05-03T11:14:40Z</time></trkpt><trkpt lat="40.36560157577535" lon="8.4019828046642"><ele>345.0</ele><time>2026-05-03T11:14:41Z</time></trkpt><trkpt lat="40.365752280273654" lon="8.401955211227948"><ele>348.3333333333333</ele><time>2026-05-03T11:14:42Z</time></trkpt><trkpt lat="40.365902718138756" lon="8.401886196285183"><ele>351.66666666666663</ele><time>2026-05-03T11:14:43Z</time></trkpt><trkpt lat="40.366035545628925" lon="8.40178291185062"><ele>355.0</ele><time>2026-05-03T11:14:44Z</time></trkpt><trkpt lat="40.36614762884861" lon="8.401635633451722"><ele>355.0</ele><time>2026-05-03T11:14:45Z</time></trkpt><trkpt lat="40.366246695394295" lon="8.401489032045136"><ele>355.0</ele><time>2026-05-03T11:14:46Z</time></trkpt><trkpt lat="40.366358476369946" lon="8.401382814758392"><ele>355.0</ele><time>2026-05-03T11:14:47Z</time></trkpt><trkpt lat="40.36648178180589" lon="8.401312618675313"><ele>355.0</ele><time>2026-05-03T11:14:48Z</time></trkpt><trkpt lat="40.36661414254838" lon="8.401272907101117"><ele>352.75</ele><time>2026-05-03T11:14:49Z</time></trkpt><trkpt lat="40.3667496999409" lon="8.401272590663174"><ele>350.5</ele><time>2026-05-03T11:14:50Z</time></trkpt><trkpt lat="40.36689549177603" lon="8.401312878335057"><ele>348.25</ele><time>2026-05-03T11:14:51Z</time></trkpt><trkpt lat="40.36705135741794" lon="8.401377225350828"><ele>346.0</ele><time>2026-05-03T11:14:52Z</time></trkpt><trkpt lat="40.36720644112109" lon="8.401468341867455"><ele>353.0</ele><time>2026-05-03T11:14:53Z</time></trkpt><trkpt lat="40.367374835120145" lon="8.401550099560248"><ele>360.0</ele><time>2026-05-03T11:14:54Z</time></trkpt><trkpt lat="40.36754833626871" lon="8.401615723169648"><ele>367.0</ele><time>2026-05-03T11:14:55Z</time></trkpt><trkpt lat="40.367736672632574" lon="8.40166392094891"><ele>367.0</ele><time>2026-05-03T11:14:56Z</time></trkpt><trkpt lat="40.36793584239084" lon="8.40169162001469"><ele>367.0</ele><time>2026-05-03T11:14:57Z</time></trkpt><trkpt lat="40.36813944077823" lon="8.401697556849182"><ele>367.0</ele><time>2026-05-03T11:14:58Z</time></trkpt><trkpt lat="40.36835263422231" lon="8.401684680790574"><ele>366.0</ele><time>2026-05-03T11:14:59Z</time></trkpt><trkpt lat="40.368577464713454" lon="8.401671521155125"><ele>365.0</ele><time>2026-05-03T11:15:00Z</time></trkpt><trkpt lat="40.36880644165457" lon="8.401665537549462"><ele>365.0</ele><time>2026-05-03T11:15:01Z</time></trkpt><trkpt lat="40.369037886756274" lon="8.401672286366997"><ele>365.0</ele><time>2026-05-03T11:15:02Z</time></trkpt><trkpt lat="40.36927801391407" lon="8.401686926138426"><ele>365.0</ele><time>2026-05-03T11:15:03Z</time></trkpt><trkpt lat="40.3695200047385" lon="8.401710800179632"><ele>365.0</ele><time>2026-05-03T11:15:04Z</time></trkpt><trkpt lat="40.36976010316651" lon="8.401738916346842"><ele>362.0</ele><time>2026-05-03T11:15:05Z</time></trkpt><trkpt lat="40.36999624118263" lon="8.401771675227026"><ele>359.0</ele><time>2026-05-03T11:15:06Z</time></trkpt><trkpt lat="40.370234874206446" lon="8.40180515616534"><ele>359.0</ele><time>2026-05-03T11:15:07Z</time></trkpt><trkpt lat="40.37046894298157" lon="8.401831497729203"><ele>359.0</ele><time>2026-05-03T11:15:08Z</time></trkpt><trkpt lat="40.370707715211054" lon="8.401846097052607"><ele>359.0</ele><time>2026-05-03T11:15:09Z</time></trkpt><trkpt lat="40.37092646789178" lon="8.401871192409557"><ele>359.0</ele><time>2026-05-03T11:15:10Z</time></trkpt><trkpt lat="40.3711401660724" lon="8.401894805030283"><ele>359.0</ele><time>2026-05-03T11:15:11Z</time></trkpt><trkpt lat="40.37133658658643" lon="8.401918258533787"><ele>357.6666666666667</ele><time>2026-05-03T11:15:12Z</time></trkpt><trkpt lat="40.37151421445726" lon="8.40194173994957"><ele>356.3333333333333</ele><time>2026-05-03T11:15:13Z</time></trkpt><trkpt lat="40.371676775958825" lon="8.401955403509737"><ele>355.0</ele><time>2026-05-03T11:15:14Z</time></trkpt><trkpt lat="40.37182934885451" lon="8.401967452268133"><ele>355.0</ele><time>2026-05-03T11:15:15Z</time></trkpt><trkpt lat="40.37200754180554" lon="8.402001577750488"><ele>355.0</ele><time>2026-05-03T11:15:16Z</time></trkpt><trkpt lat="40.372167960538086" lon="8.402020329203312"><ele>355.0</ele><time>2026-05-03T11:15:17Z</time></trkpt><trkpt lat="40.37233000999505" lon="8.402043225998991"><ele>356.75</ele><time>2026-05-03T11:15:18Z</time></trkpt><trkpt lat="40.37248689980466" lon="8.402101360529928"><ele>358.5</ele><time>2026-05-03T11:15:19Z</time></trkpt><trkpt lat="40.37256504368092" lon="8.402131436777214"><ele>360.25</ele><time>2026-05-03T11:15:20Z</time></trkpt><trkpt lat="40.37265648864685" lon="8.402207182733086"><ele>362.0</ele><time>2026-05-03T11:15:21Z</time></trkpt><trkpt lat="40.372751228347" lon="8.402268844640917"><ele>365.0</ele><time>2026-05-03T11:15:22Z</time></trkpt><trkpt lat="40.37282659619717" lon="8.402389481184217"><ele>368.0</ele><time>2026-05-03T11:15:23Z</time></trkpt><trkpt lat="40.37288706868647" lon="8.40253331127535"><ele>371.0</ele><time>2026-05-03T11:15:24Z</time></trkpt><trkpt lat="40.37293281559233" lon="8.402697876854225"><ele>374.0</ele><time>2026-05-03T11:15:25Z</time></trkpt><trkpt lat="40.37296297462656" lon="8.402879513716908"><ele>377.0</ele><time>2026-05-03T11:15:26Z</time></trkpt><trkpt lat="40.372984959407276" lon="8.403085014409857"><ele>380.0</ele><time>2026-05-03T11:15:27Z</time></trkpt><trkpt lat="40.37299924337823" lon="8.4032947102616"><ele>383.0</ele><time>2026-05-03T11:15:28Z</time></trkpt><trkpt lat="40.37296975847395" lon="8.403498192955198"><ele>383.0</ele><time>2026-05-03T11:15:29Z</time></trkpt><trkpt lat="40.37295322714326" lon="8.403706189390554"><ele>383.0</ele><time>2026-05-03T11:15:30Z</time></trkpt><trkpt lat="40.37292798207832" lon="8.40393193414698"><ele>383.0</ele><time>2026-05-03T11:15:31Z</time></trkpt><trkpt lat="40.372911798590714" lon="8.404147836141766"><ele>383.25</ele><time>2026-05-03T11:15:32Z</time></trkpt><trkpt lat="40.37292040140859" lon="8.40434768009429"><ele>383.5</ele><time>2026-05-03T11:15:33Z</time></trkpt><trkpt lat="40.372961024489626" lon="8.404521394585217"><ele>383.75</ele><time>2026-05-03T11:15:34Z</time></trkpt><trkpt lat="40.37300231402408" lon="8.404692508792506"><ele>384.0</ele><time>2026-05-03T11:15:35Z</time></trkpt><trkpt lat="40.37306639634784" lon="8.404837425983565"><ele>379.75</ele><time>2026-05-03T11:15:36Z</time></trkpt><trkpt lat="40.37315798405697" lon="8.404971066755152"><ele>375.5</ele><time>2026-05-03T11:15:37Z</time></trkpt><trkpt lat="40.37326977750969" lon="8.405074974076667"><ele>371.25</ele><time>2026-05-03T11:15:38Z</time></trkpt><trkpt lat="40.37339644907823" lon="8.405146409441617"><ele>367.0</ele><time>2026-05-03T11:15:39Z</time></trkpt><trkpt lat="40.3735406368852" lon="8.405176529320391"><ele>367.0</ele><time>2026-05-03T11:15:40Z</time></trkpt><trkpt lat="40.3736976618581" lon="8.40519652943204"><ele>367.0</ele><time>2026-05-03T11:15:41Z</time></trkpt><trkpt lat="40.37386379932902" lon="8.405231592669072"><ele>367.0</ele><time>2026-05-03T11:15:42Z</time></trkpt><trkpt lat="40.374034048234485" lon="8.405267237857805"><ele>363.0</ele><time>2026-05-03T11:15:43Z</time></trkpt><trkpt lat="40.374198262400625" lon="8.405297150080475"><ele>359.0</ele><time>2026-05-03T11:15:44Z</time></trkpt><trkpt lat="40.37436541279619" lon="8.405333158223739"><ele>355.0</ele><time>2026-05-03T11:15:45Z</time></trkpt><trkpt lat="40.37451970354955" lon="8.405370407957893"><ele>355.0</ele><time>2026-05-03T11:15:46Z</time></trkpt><trkpt lat="40.37466842383918" lon="8.405397613955873"><ele>355.0</ele><time>2026-05-03T11:15:47Z</time></trkpt><trkpt lat="40.37481603279114" lon="8.405389439081263"><ele>355.0</ele><time>2026-05-03T11:15:48Z</time></trkpt><trkpt lat="40.374950749552966" lon="8.405343785706297"><ele>355.0</ele><time>2026-05-03T11:15:49Z</time></trkpt><trkpt lat="40.37507263003606" lon="8.405261725766444"><ele>354.0</ele><time>2026-05-03T11:15:50Z</time></trkpt><trkpt lat="40.3751808712167" lon="8.405161059137958"><ele>353.0</ele><time>2026-05-03T11:15:51Z</time></trkpt><trkpt lat="40.37525536118824" lon="8.405015113993448"><ele>352.0</ele><time>2026-05-03T11:15:52Z</time></trkpt><trkpt lat="40.37529942747931" lon="8.404790664586047"><ele>351.0</ele><time>2026-05-03T11:15:53Z</time></trkpt><trkpt lat="40.37537007881429" lon="8.404617608785987"><ele>350.5</ele><time>2026-05-03T11:15:54Z</time></trkpt><trkpt lat="40.37543026163856" lon="8.404464446255664"><ele>350.0</ele><time>2026-05-03T11:15:55Z</time></trkpt><trkpt lat="40.3755235834802" lon="8.40433697434645"><ele>349.5</ele><time>2026-05-03T11:15:56Z</time></trkpt><trkpt lat="40.375638654570466" lon="8.404232834552488"><ele>349.0</ele><time>2026-05-03T11:15:57Z</time></trkpt><trkpt lat="40.375770222048835" lon="8.40413889178115"><ele>349.0</ele><time>2026-05-03T11:15:58Z</time></trkpt><trkpt lat="40.375919913567564" lon="8.404098485578116"><ele>349.0</ele><time>2026-05-03T11:15:59Z</time></trkpt><trkpt lat="40.37608495956944" lon="8.404111640103867"><ele>349.0</ele><time>2026-05-03T11:16:00Z</time></trkpt><trkpt lat="40.37626587983464" lon="8.404104619043132"><ele>348.3333333333333</ele><time>2026-05-03T11:16:01Z</time></trkpt><trkpt lat="40.3764477924359" lon="8.404114859084281"><ele>347.6666666666667</ele><time>2026-05-03T11:16:02Z</time></trkpt><trkpt lat="40.37663918559497" lon="8.404117846145159"><ele>347.0</ele><time>2026-05-03T11:16:03Z</time></trkpt><trkpt lat="40.37681356863608" lon="8.404117599569433"><ele>347.0</ele><time>2026-05-03T11:16:04Z</time></trkpt><trkpt lat="40.37698027468395" lon="8.404122554502864"><ele>347.0</ele><time>2026-05-03T11:16:05Z</time></trkpt><trkpt lat="40.377143616806165" lon="8.404133570227525"><ele>347.0</ele><time>2026-05-03T11:16:06Z</time></trkpt><trkpt lat="40.37730070090098" lon="8.404166888876759"><ele>346.25</ele><time>2026-05-03T11:16:07Z</time></trkpt><trkpt lat="40.37744658701428" lon="8.404228616868693"><ele>345.5</ele><time>2026-05-03T11:16:08Z</time></trkpt><trkpt lat="40.37757012168889" lon="8.404318518886287"><ele>344.75</ele><time>2026-05-03T11:16:09Z</time></trkpt><trkpt lat="40.37766580695474" lon="8.404404611225821"><ele>344.0</ele><time>2026-05-03T11:16:10Z</time></trkpt><trkpt lat="40.377765208692004" lon="8.404611967794384"><ele>345.33333333333337</ele><time>2026-05-03T11:16:11Z</time></trkpt><trkpt lat="40.377832005500146" lon="8.40480029571555"><ele>346.6666666666667</ele><time>2026-05-03T11:16:12Z</time></trkpt><trkpt lat="40.37788369245184" lon="8.405009055520834"><ele>348.0</ele><time>2026-05-03T11:16:13Z</time></trkpt><trkpt lat="40.37792849690927" lon="8.40522741449857"><ele>348.0</ele><time>2026-05-03T11:16:14Z</time></trkpt><trkpt lat="40.37798081547456" lon="8.405442726607076"><ele>348.0</ele><time>2026-05-03T11:16:15Z</time></trkpt><trkpt lat="40.37804401106144" lon="8.405637774851405"><ele>348.0</ele><time>2026-05-03T11:16:16Z</time></trkpt><trkpt lat="40.37811733117823" lon="8.405821193524938"><ele>341.0</ele><time>2026-05-03T11:16:17Z</time></trkpt><trkpt lat="40.37820194475085" lon="8.40597995930986"><ele>334.0</ele><time>2026-05-03T11:16:18Z</time></trkpt><trkpt lat="40.3783089379805" lon="8.406104761376"><ele>327.0</ele><time>2026-05-03T11:16:19Z</time></trkpt><trkpt lat="40.3784366579859" lon="8.406200076662245"><ele>320.0</ele><time>2026-05-03T11:16:20Z</time></trkpt><trkpt lat="40.378574549305064" lon="8.406262280207454"><ele>320.0</ele><time>2026-05-03T11:16:21Z</time></trkpt><trkpt lat="40.37872324264065" lon="8.406302465611363"><ele>320.0</ele><time>2026-05-03T11:16:22Z</time></trkpt><trkpt lat="40.37887271387397" lon="8.4063321131433"><ele>320.0</ele><time>2026-05-03T11:16:23Z</time></trkpt><trkpt lat="40.37901038221735" lon="8.40637154688601"><ele>320.0</ele><time>2026-05-03T11:16:24Z</time></trkpt><trkpt lat="40.37914620208726" lon="8.406446663000322"><ele>318.6666666666667</ele><time>2026-05-03T11:16:25Z</time></trkpt><trkpt lat="40.37926585121297" lon="8.406558556818782"><ele>317.3333333333333</ele><time>2026-05-03T11:16:26Z</time></trkpt><trkpt lat="40.37936753455388" lon="8.406711067862224"><ele>316.0</ele><time>2026-05-03T11:16:27Z</time></trkpt><trkpt lat="40.37947166254684" lon="8.406880534245337"><ele>316.0</ele><time>2026-05-03T11:16:28Z</time></trkpt><trkpt lat="40.37957920104917" lon="8.407046828317805"><ele>316.0</ele><time>2026-05-03T11:16:29Z</time></trkpt><trkpt lat="40.37968361975689" lon="8.407195541635907"><ele>316.0</ele><time>2026-05-03T11:16:30Z</time></trkpt><trkpt lat="40.379785316178925" lon="8.407338263475747"><ele>313.75</ele><time>2026-05-03T11:16:31Z</time></trkpt><trkpt lat="40.37989229951377" lon="8.4074564664105"><ele>311.5</ele><time>2026-05-03T11:16:32Z</time></trkpt><trkpt lat="40.38000945049771" lon="8.407545191072266"><ele>309.25</ele><time>2026-05-03T11:16:33Z</time></trkpt><trkpt lat="40.380143428817384" lon="8.407594437379572"><ele>307.0</ele><time>2026-05-03T11:16:34Z</time></trkpt><trkpt lat="40.38027219453954" lon="8.40760513523337"><ele>307.0</ele><time>2026-05-03T11:16:35Z</time></trkpt><trkpt lat="40.38040977592977" lon="8.407572745675008"><ele>307.0</ele><time>2026-05-03T11:16:36Z</time></trkpt><trkpt lat="40.380544885287456" lon="8.407501419145582"><ele>307.0</ele><time>2026-05-03T11:16:37Z</time></trkpt><trkpt lat="40.38066603915611" lon="8.407405183652251"><ele>307.0</ele><time>2026-05-03T11:16:38Z</time></trkpt><trkpt lat="40.38077439875661" lon="8.407288069662503"><ele>301.0</ele><time>2026-05-03T11:16:39Z</time></trkpt><trkpt lat="40.380858407161654" lon="8.407125200653093"><ele>295.0</ele><time>2026-05-03T11:16:40Z</time></trkpt><trkpt lat="40.38092494767531" lon="8.40692690838493"><ele>289.0</ele><time>2026-05-03T11:16:41Z</time></trkpt><trkpt lat="40.38098934206518" lon="8.406713071651833"><ele>289.0</ele><time>2026-05-03T11:16:42Z</time></trkpt><trkpt lat="40.38105965363174" lon="8.406484451299571"><ele>289.0</ele><time>2026-05-03T11:16:43Z</time></trkpt><trkpt lat="40.38114046727556" lon="8.406249747972806"><ele>289.0</ele><time>2026-05-03T11:16:44Z</time></trkpt><trkpt lat="40.38123912791553" lon="8.406008268777345"><ele>286.3333333333333</ele><time>2026-05-03T11:16:45Z</time></trkpt><trkpt lat="40.38135245885914" lon="8.405756453530426"><ele>283.6666666666667</ele><time>2026-05-03T11:16:46Z</time></trkpt><trkpt lat="40.38146988083049" lon="8.405511833061755"><ele>281.0</ele><time>2026-05-03T11:16:47Z</time></trkpt><trkpt lat="40.38158084047924" lon="8.405274379190708"><ele>281.0</ele><time>2026-05-03T11:16:48Z</time></trkpt><trkpt lat="40.38169077395435" lon="8.405050016613501"><ele>281.0</ele><time>2026-05-03T11:16:49Z</time></trkpt><trkpt lat="40.38179758970157" lon="8.404836118446546"><ele>281.0</ele><time>2026-05-03T11:16:50Z</time></trkpt><trkpt lat="40.381895156904825" lon="8.404629570155846"><ele>274.0</ele><time>2026-05-03T11:16:51Z</time></trkpt><trkpt lat="40.381990502184564" lon="8.404429433831975"><ele>267.0</ele><time>2026-05-03T11:16:52Z</time></trkpt><trkpt lat="40.382079706882486" lon="8.404242029875808"><ele>260.0</ele><time>2026-05-03T11:16:53Z</time></trkpt><trkpt lat="40.38217120627972" lon="8.404069921506492"><ele>259.0</ele><time>2026-05-03T11:16:54Z</time></trkpt><trkpt lat="40.382266293124566" lon="8.403913469149808"><ele>258.0</ele><time>2026-05-03T11:16:55Z</time></trkpt><trkpt lat="40.38236906618632" lon="8.40378970698738"><ele>257.0</ele><time>2026-05-03T11:16:56Z</time></trkpt><trkpt lat="40.38248735856916" lon="8.403704442242027"><ele>256.0</ele><time>2026-05-03T11:16:57Z</time></trkpt><trkpt lat="40.38261582069943" lon="8.403659724747207"><ele>256.0</ele><time>2026-05-03T11:16:58Z</time></trkpt><trkpt lat="40.382754684483935" lon="8.40364181762557"><ele>256.0</ele><time>2026-05-03T11:16:59Z</time></trkpt><trkpt lat="40.38288764289698" lon="8.40365889626706"><ele>256.0</ele><time>2026-05-03T11:17:00Z</time></trkpt><trkpt lat="40.38301758847894" lon="8.403723730915084"><ele>256.0</ele><time>2026-05-03T11:17:01Z</time></trkpt><trkpt lat="40.38314747564329" lon="8.403813664546258"><ele>258.66666666666663</ele><time>2026-05-03T11:17:02Z</time></trkpt><trkpt lat="40.38326091508038" lon="8.403941819759776"><ele>261.3333333333333</ele><time>2026-05-03T11:17:03Z</time></trkpt><trkpt lat="40.38335735094758" lon="8.404103563463698"><ele>264.0</ele><time>2026-05-03T11:17:04Z</time></trkpt><trkpt lat="40.38342879802962" lon="8.40428229920709"><ele>264.0</ele><time>2026-05-03T11:17:05Z</time></trkpt><trkpt lat="40.383534687356736" lon="8.404375315042886"><ele>264.0</ele><time>2026-05-03T11:17:06Z</time></trkpt><trkpt lat="40.38364661197346" lon="8.404474846621513"><ele>264.0</ele><time>2026-05-03T11:17:07Z</time></trkpt><trkpt lat="40.38377419100756" lon="8.404533525449805"><ele>264.0</ele><time>2026-05-03T11:17:08Z</time></trkpt><trkpt lat="40.38390975269388" lon="8.404571396011349"><ele>260.75</ele><time>2026-05-03T11:17:09Z</time></trkpt><trkpt lat="40.38405322787153" lon="8.404564068487034"><ele>257.5</ele><time>2026-05-03T11:17:10Z</time></trkpt><trkpt lat="40.38419668832505" lon="8.404515298574852"><ele>254.25</ele><time>2026-05-03T11:17:11Z</time></trkpt><trkpt lat="40.38433032293478" lon="8.404435604090647"><ele>251.0</ele><time>2026-05-03T11:17:12Z</time></trkpt><trkpt lat="40.3844437035531" lon="8.404324321742855"><ele>251.0</ele><time>2026-05-03T11:17:13Z</time></trkpt><trkpt lat="40.38453701207338" lon="8.40417913741465"><ele>251.0</ele><time>2026-05-03T11:17:14Z</time></trkpt><trkpt lat="40.38461957824801" lon="8.40400723737834"><ele>251.0</ele><time>2026-05-03T11:17:15Z</time></trkpt><trkpt lat="40.38469191426639" lon="8.403812319539195"><ele>249.33333333333334</ele><time>2026-05-03T11:17:16Z</time></trkpt><trkpt lat="40.384761577139436" lon="8.40362448165998"><ele>247.66666666666669</ele><time>2026-05-03T11:17:17Z</time></trkpt><trkpt lat="40.384835812077675" lon="8.403449501568575"><ele>246.0</ele><time>2026-05-03T11:17:18Z</time></trkpt><trkpt lat="40.38491443049584" lon="8.403281410332646"><ele>246.0</ele><time>2026-05-03T11:17:19Z</time></trkpt><trkpt lat="40.385007498919585" lon="8.403140070159148"><ele>246.0</ele><time>2026-05-03T11:17:20Z</time></trkpt><trkpt lat="40.38512137369624" lon="8.403037527457501"><ele>246.0</ele><time>2026-05-03T11:17:21Z</time></trkpt><trkpt lat="40.38526227222916" lon="8.402982456485537"><ele>246.0</ele><time>2026-05-03T11:17:22Z</time></trkpt><trkpt lat="40.385427056297495" lon="8.402958577607771"><ele>239.0</ele><time>2026-05-03T11:17:23Z</time></trkpt><trkpt lat="40.38559976488675" lon="8.40294884926017"><ele>232.0</ele><time>2026-05-03T11:17:24Z</time></trkpt><trkpt lat="40.38577440561213" lon="8.402932505267975"><ele>225.0</ele><time>2026-05-03T11:17:25Z</time></trkpt><trkpt lat="40.385952165361914" lon="8.402903862133149"><ele>225.0</ele><time>2026-05-03T11:17:26Z</time></trkpt><trkpt lat="40.38612564699289" lon="8.402877199156304"><ele>225.0</ele><time>2026-05-03T11:17:27Z</time></trkpt><trkpt lat="40.38630329639091" lon="8.40286416782005"><ele>225.0</ele><time>2026-05-03T11:17:28Z</time></trkpt><trkpt lat="40.3864808286529" lon="8.402846493327012"><ele>221.33333333333331</ele><time>2026-05-03T11:17:29Z</time></trkpt><trkpt lat="40.38665476617723" lon="8.402819048467954"><ele>217.66666666666666</ele><time>2026-05-03T11:17:30Z</time></trkpt><trkpt lat="40.386827457142076" lon="8.40280474422235"><ele>214.0</ele><time>2026-05-03T11:17:31Z</time></trkpt><trkpt lat="40.38700063015874" lon="8.402782614988904"><ele>214.0</ele><time>2026-05-03T11:17:32Z</time></trkpt><trkpt lat="40.38716819115414" lon="8.40276799131328"><ele>214.0</ele><time>2026-05-03T11:17:33Z</time></trkpt><trkpt lat="40.3873391843494" lon="8.402757549941505"><ele>214.0</ele><time>2026-05-03T11:17:34Z</time></trkpt><trkpt lat="40.38751307365521" lon="8.402757790666737"><ele>214.66666666666666</ele><time>2026-05-03T11:17:35Z</time></trkpt><trkpt lat="40.38768984595614" lon="8.402760583508758"><ele>215.33333333333331</ele><time>2026-05-03T11:17:36Z</time></trkpt><trkpt lat="40.387877004549146" lon="8.402773809144914"><ele>216.0</ele><time>2026-05-03T11:17:37Z</time></trkpt><trkpt lat="40.38806789412614" lon="8.402785345867088"><ele>214.33333333333331</ele><time>2026-05-03T11:17:38Z</time></trkpt><trkpt lat="40.38825460446336" lon="8.402793364280067"><ele>212.66666666666666</ele><time>2026-05-03T11:17:39Z</time></trkpt><trkpt lat="40.38844601437525" lon="8.402793379279828"><ele>211.0</ele><time>2026-05-03T11:17:40Z</time></trkpt><trkpt lat="40.388634530908185" lon="8.402798736002369"><ele>211.0</ele><time>2026-05-03T11:17:41Z</time></trkpt><trkpt lat="40.38882057405358" lon="8.402804050506685"><ele>211.0</ele><time>2026-05-03T11:17:42Z</time></trkpt><trkpt lat="40.388994368530774" lon="8.402825989241405"><ele>211.0</ele><time>2026-05-03T11:17:43Z</time></trkpt><trkpt lat="40.38916653979561" lon="8.402817156165185"><ele>211.0</ele><time>2026-05-03T11:17:44Z</time></trkpt><trkpt lat="40.389322442798814" lon="8.402831503998305"><ele>211.0</ele><time>2026-05-03T11:17:45Z</time></trkpt><trkpt lat="40.389463358113254" lon="8.402863170665322"><ele>211.0</ele><time>2026-05-03T11:17:46Z</time></trkpt><trkpt lat="40.38959453931831" lon="8.40291272959892"><ele>211.0</ele><time>2026-05-03T11:17:47Z</time></trkpt><trkpt lat="40.38971704899034" lon="8.40299639748268"><ele>214.75</ele><time>2026-05-03T11:17:48Z</time></trkpt><trkpt lat="40.38982414524997" lon="8.403100922204285"><ele>218.5</ele><time>2026-05-03T11:17:49Z</time></trkpt><trkpt lat="40.38989256834363" lon="8.403231053835393"><ele>222.25</ele><time>2026-05-03T11:17:50Z</time></trkpt><trkpt lat="40.389930188420585" lon="8.403378373796855"><ele>226.0</ele><time>2026-05-03T11:17:51Z</time></trkpt><trkpt lat="40.389947107556516" lon="8.403536447170497"><ele>226.0</ele><time>2026-05-03T11:17:52Z</time></trkpt><trkpt lat="40.38994884920421" lon="8.403705164399378"><ele>226.0</ele><time>2026-05-03T11:17:53Z</time></trkpt><trkpt lat="40.38993580548739" lon="8.403896148191091"><ele>226.0</ele><time>2026-05-03T11:17:54Z</time></trkpt><trkpt lat="40.38992790360622" lon="8.404093411481696"><ele>226.0</ele><time>2026-05-03T11:17:55Z</time></trkpt><trkpt lat="40.38993715814633" lon="8.404292086069592"><ele>226.75</ele><time>2026-05-03T11:17:56Z</time></trkpt><trkpt lat="40.38996953731007" lon="8.404474790534184"><ele>227.5</ele><time>2026-05-03T11:17:57Z</time></trkpt><trkpt lat="40.39002240968442" lon="8.404641536524633"><ele>228.25</ele><time>2026-05-03T11:17:58Z</time></trkpt><trkpt lat="40.39009665500678" lon="8.404790675517747"><ele>229.0</ele><time>2026-05-03T11:17:59Z</time></trkpt><trkpt lat="40.39019224999288" lon="8.404912015063891"><ele>230.0</ele><time>2026-05-03T11:18:00Z</time></trkpt><trkpt lat="40.39030242699146" lon="8.404998530325395"><ele>231.0</ele><time>2026-05-03T11:18:01Z</time></trkpt><trkpt lat="40.390439756869654" lon="8.405067220434619"><ele>232.0</ele><time>2026-05-03T11:18:02Z</time></trkpt><trkpt lat="40.39058069528456" lon="8.405086396165077"><ele>233.0</ele><time>2026-05-03T11:18:03Z</time></trkpt><trkpt lat="40.39073128157888" lon="8.405064295235444"><ele>233.0</ele><time>2026-05-03T11:18:04Z</time></trkpt><trkpt lat="40.3908770410678" lon="8.404990418914972"><ele>233.0</ele><time>2026-05-03T11:18:05Z</time></trkpt><trkpt lat="40.39100210168845" lon="8.404879428758553"><ele>233.0</ele><time>2026-05-03T11:18:06Z</time></trkpt><trkpt lat="40.391107126918556" lon="8.404748127421186"><ele>227.75</ele><time>2026-05-03T11:18:07Z</time></trkpt><trkpt lat="40.39120575358194" lon="8.404621707735393"><ele>222.5</ele><time>2026-05-03T11:18:08Z</time></trkpt><trkpt lat="40.39131399189553" lon="8.404539370378867"><ele>217.25</ele><time>2026-05-03T11:18:09Z</time></trkpt><trkpt lat="40.39143756447563" lon="8.404480965118882"><ele>212.0</ele><time>2026-05-03T11:18:10Z</time></trkpt><trkpt lat="40.391577229110474" lon="8.404462052015809"><ele>212.0</ele><time>2026-05-03T11:18:11Z</time></trkpt><trkpt lat="40.39173046041322" lon="8.404481446615552"><ele>212.0</ele><time>2026-05-03T11:18:12Z</time></trkpt><trkpt lat="40.3918832832296" lon="8.404534641152143"><ele>212.0</ele><time>2026-05-03T11:18:13Z</time></trkpt><trkpt lat="40.39204937280397" lon="8.404595166082853"><ele>219.66666666666669</ele><time>2026-05-03T11:18:14Z</time></trkpt><trkpt lat="40.39222244988166" lon="8.404666563206632"><ele>227.33333333333331</ele><time>2026-05-03T11:18:15Z</time></trkpt><trkpt lat="40.39238622009039" lon="8.404733038090079"><ele>235.0</ele><time>2026-05-03T11:18:16Z</time></trkpt><trkpt lat="40.392551794640774" lon="8.404797447883796"><ele>235.0</ele><time>2026-05-03T11:18:17Z</time></trkpt><trkpt lat="40.392726438153" lon="8.404858234108183"><ele>235.0</ele><time>2026-05-03T11:18:18Z</time></trkpt><trkpt lat="40.39290846025648" lon="8.404904696682285"><ele>235.0</ele><time>2026-05-03T11:18:19Z</time></trkpt><trkpt lat="40.39309917727674" lon="8.404932554818426"><ele>231.0</ele><time>2026-05-03T11:18:20Z</time></trkpt><trkpt lat="40.393296788472" lon="8.40493607359936"><ele>227.0</ele><time>2026-05-03T11:18:21Z</time></trkpt><trkpt lat="40.393504401103655" lon="8.404927625153771"><ele>223.0</ele><time>2026-05-03T11:18:22Z</time></trkpt><trkpt lat="40.393720783792" lon="8.404918855298238"><ele>222.5</ele><time>2026-05-03T11:18:23Z</time></trkpt><trkpt lat="40.39394875993783" lon="8.404904177769295"><ele>222.0</ele><time>2026-05-03T11:18:24Z</time></trkpt><trkpt lat="40.3941830556195" lon="8.404891660681653"><ele>222.0</ele><time>2026-05-03T11:18:25Z</time></trkpt><trkpt lat="40.39442213624196" lon="8.404882429236375"><ele>222.0</ele><time>2026-05-03T11:18:26Z</time></trkpt><trkpt lat="40.394644750187005" lon="8.404870341396231"><ele>221.66666666666669</ele><time>2026-05-03T11:18:27Z</time></trkpt><trkpt lat="40.39485436122654" lon="8.404858804374241"><ele>221.33333333333334</ele><time>2026-05-03T11:18:28Z</time></trkpt><trkpt lat="40.39505765513841" lon="8.40485173370022"><ele>221.0</ele><time>2026-05-03T11:18:29Z</time></trkpt><trkpt lat="40.39525204804901" lon="8.404858105743147"><ele>221.0</ele><time>2026-05-03T11:18:30Z</time></trkpt><trkpt lat="40.39543389556447" lon="8.40489393415268"><ele>221.0</ele><time>2026-05-03T11:18:31Z</time></trkpt><trkpt lat="40.39560169293474" lon="8.404939170206164"><ele>221.0</ele><time>2026-05-03T11:18:32Z</time></trkpt><trkpt lat="40.395762348288415" lon="8.404963165405661"><ele>221.66666666666669</ele><time>2026-05-03T11:18:33Z</time></trkpt><trkpt lat="40.39592032539606" lon="8.404950078470309"><ele>222.33333333333331</ele><time>2026-05-03T11:18:34Z</time></trkpt><trkpt lat="40.396064444009305" lon="8.40489547081967"><ele>223.0</ele><time>2026-05-03T11:18:35Z</time></trkpt><trkpt lat="40.3961986452276" lon="8.404798618184817"><ele>224.0</ele><time>2026-05-03T11:18:36Z</time></trkpt><trkpt lat="40.396341698986554" lon="8.404718944941713"><ele>225.0</ele><time>2026-05-03T11:18:37Z</time></trkpt><trkpt lat="40.39644717932692" lon="8.40453076621097"><ele>226.0</ele><time>2026-05-03T11:18:38Z</time></trkpt><trkpt lat="40.39653902695889" lon="8.404312258270672"><ele>221.66666666666666</ele><time>2026-05-03T11:18:39Z</time></trkpt><trkpt lat="40.39662394525058" lon="8.40408221755096"><ele>217.33333333333331</ele><time>2026-05-03T11:18:40Z</time></trkpt><trkpt lat="40.396734408513986" lon="8.403860822242295"><ele>213.0</ele><time>2026-05-03T11:18:41Z</time></trkpt><trkpt lat="40.396874598739515" lon="8.403667938243936"><ele>211.66666666666669</ele><time>2026-05-03T11:18:42Z</time></trkpt><trkpt lat="40.397028914544066" lon="8.403497863732564"><ele>210.33333333333334</ele><time>2026-05-03T11:18:43Z</time></trkpt><trkpt lat="40.39719691997864" lon="8.40336316823722"><ele>209.0</ele><time>2026-05-03T11:18:44Z</time></trkpt><trkpt lat="40.39738092086775" lon="8.40326921518217"><ele>212.0</ele><time>2026-05-03T11:18:45Z</time></trkpt><trkpt lat="40.397570337114274" lon="8.403215594765483"><ele>215.0</ele><time>2026-05-03T11:18:46Z</time></trkpt><trkpt lat="40.39776557085079" lon="8.403210018627057"><ele>218.0</ele><time>2026-05-03T11:18:47Z</time></trkpt><trkpt lat="40.397966326315306" lon="8.403236125538577"><ele>214.0</ele><time>2026-05-03T11:18:48Z</time></trkpt><trkpt lat="40.39814766747961" lon="8.403325588858488"><ele>210.0</ele><time>2026-05-03T11:18:49Z</time></trkpt><trkpt lat="40.398302263878875" lon="8.403438707424181"><ele>206.0</ele><time>2026-05-03T11:18:50Z</time></trkpt><trkpt lat="40.39844823028357" lon="8.403551243478695"><ele>206.0</ele><time>2026-05-03T11:18:51Z</time></trkpt><trkpt lat="40.398574726751335" lon="8.40371967105274"><ele>206.0</ele><time>2026-05-03T11:18:52Z</time></trkpt><trkpt lat="40.398675536965285" lon="8.403911159688613"><ele>206.0</ele><time>2026-05-03T11:18:53Z</time></trkpt><trkpt lat="40.39873543477437" lon="8.404110930930353"><ele>213.33333333333334</ele><time>2026-05-03T11:18:54Z</time></trkpt><trkpt lat="40.398758688956164" lon="8.404323693230625"><ele>220.66666666666669</ele><time>2026-05-03T11:18:55Z</time></trkpt><trkpt lat="40.398780945709596" lon="8.404577705347537"><ele>228.0</ele><time>2026-05-03T11:18:56Z</time></trkpt><trkpt lat="40.39881784793803" lon="8.404843042707595"><ele>222.0</ele><time>2026-05-03T11:18:57Z</time></trkpt><trkpt lat="40.39885987095966" lon="8.405107322613114"><ele>216.0</ele><time>2026-05-03T11:18:58Z</time></trkpt><trkpt lat="40.39891494572949" lon="8.405372898324726"><ele>210.0</ele><time>2026-05-03T11:18:59Z</time></trkpt><trkpt lat="40.398995730824154" lon="8.40565419973239"><ele>210.0</ele><time>2026-05-03T11:19:00Z</time></trkpt><trkpt lat="40.399056646887246" lon="8.405915489185462"><ele>210.0</ele><time>2026-05-03T11:19:01Z</time></trkpt><trkpt lat="40.39910972778379" lon="8.406169351899607"><ele>210.0</ele><time>2026-05-03T11:19:02Z</time></trkpt><trkpt lat="40.39914692154652" lon="8.406422985753176"><ele>211.33333333333331</ele><time>2026-05-03T11:19:03Z</time></trkpt><trkpt lat="40.39917317419783" lon="8.406660843123651"><ele>212.66666666666666</ele><time>2026-05-03T11:19:04Z</time></trkpt><trkpt lat="40.39918872420544" lon="8.406887280134043"><ele>214.0</ele><time>2026-05-03T11:19:05Z</time></trkpt><trkpt lat="40.399182106023765" lon="8.407096402821768"><ele>213.0</ele><time>2026-05-03T11:19:06Z</time></trkpt><trkpt lat="40.39915026230731" lon="8.407287197507102"><ele>212.0</ele><time>2026-05-03T11:19:07Z</time></trkpt><trkpt lat="40.39909311200848" lon="8.407449645127096"><ele>211.0</ele><time>2026-05-03T11:19:08Z</time></trkpt><trkpt lat="40.399004558063034" lon="8.407594841884045"><ele>210.0</ele><time>2026-05-03T11:19:09Z</time></trkpt><trkpt lat="40.39888907274874" lon="8.407713998006313"><ele>215.33333333333331</ele><time>2026-05-03T11:19:10Z</time></trkpt><trkpt lat="40.398747533386576" lon="8.407802583242562"><ele>220.66666666666666</ele><time>2026-05-03T11:19:11Z</time></trkpt><trkpt lat="40.398589356399164" lon="8.407879620321772"><ele>226.0</ele><time>2026-05-03T11:19:12Z</time></trkpt><trkpt lat="40.398454766300425" lon="8.407949712795922"><ele>221.33333333333331</ele><time>2026-05-03T11:19:13Z</time></trkpt><trkpt lat="40.39830054576596" lon="8.408057214273843"><ele>216.66666666666669</ele><time>2026-05-03T11:19:14Z</time></trkpt><trkpt lat="40.398170307982696" lon="8.408178035233771"><ele>212.0</ele><time>2026-05-03T11:19:15Z</time></trkpt><trkpt lat="40.398053240166284" lon="8.408335570398524"><ele>216.0</ele><time>2026-05-03T11:19:16Z</time></trkpt><trkpt lat="40.39796305320461" lon="8.408497577140821"><ele>220.0</ele><time>2026-05-03T11:19:17Z</time></trkpt><trkpt lat="40.39790244014819" lon="8.408685205204371"><ele>224.0</ele><time>2026-05-03T11:19:18Z</time></trkpt><trkpt lat="40.397869182106334" lon="8.408888633511724"><ele>224.0</ele><time>2026-05-03T11:19:19Z</time></trkpt><trkpt lat="40.39787862024546" lon="8.409096353959734"><ele>224.0</ele><time>2026-05-03T11:19:20Z</time></trkpt><trkpt lat="40.397905250820145" lon="8.409315037732235"><ele>224.0</ele><time>2026-05-03T11:19:21Z</time></trkpt><trkpt lat="40.39799410601152" lon="8.409499629215949"><ele>216.66666666666669</ele><time>2026-05-03T11:19:22Z</time></trkpt><trkpt lat="40.39805809667423" lon="8.409662071832814"><ele>209.33333333333331</ele><time>2026-05-03T11:19:23Z</time></trkpt><trkpt lat="40.39819836299736" lon="8.409871181246679"><ele>202.0</ele><time>2026-05-03T11:19:24Z</time></trkpt><trkpt lat="40.398324207437945" lon="8.410067834161023"><ele>202.0</ele><time>2026-05-03T11:19:25Z</time></trkpt><trkpt lat="40.39844154024535" lon="8.410262691736989"><ele>202.0</ele><time>2026-05-03T11:19:26Z</time></trkpt><trkpt lat="40.39855986488209" lon="8.410459260412622"><ele>202.0</ele><time>2026-05-03T11:19:27Z</time></trkpt><trkpt lat="40.398677778562266" lon="8.410647987661891"><ele>205.0</ele><time>2026-05-03T11:19:28Z</time></trkpt><trkpt lat="40.3988080491958" lon="8.410811002929547"><ele>208.0</ele><time>2026-05-03T11:19:29Z</time></trkpt><trkpt lat="40.398959160235435" lon="8.410943687198687"><ele>211.0</ele><time>2026-05-03T11:19:30Z</time></trkpt><trkpt lat="40.39912450745665" lon="8.41103239659351"><ele>204.33333333333331</ele><time>2026-05-03T11:19:31Z</time></trkpt><trkpt lat="40.39930619246139" lon="8.411070698639588"><ele>197.66666666666666</ele><time>2026-05-03T11:19:32Z</time></trkpt><trkpt lat="40.399506257364216" lon="8.411082806634207"><ele>191.0</ele><time>2026-05-03T11:19:33Z</time></trkpt><trkpt lat="40.39969573661274" lon="8.411096460550233"><ele>187.33333333333331</ele><time>2026-05-03T11:19:34Z</time></trkpt><trkpt lat="40.3998768789016" lon="8.411117983413886"><ele>183.66666666666666</ele><time>2026-05-03T11:19:35Z</time></trkpt><trkpt lat="40.40003908528818" lon="8.411100071572047"><ele>180.0</ele><time>2026-05-03T11:19:36Z</time></trkpt><trkpt lat="40.40019515507214" lon="8.411044138457036"><ele>180.0</ele><time>2026-05-03T11:19:37Z</time></trkpt><trkpt lat="40.40034247653478" lon="8.410932006446696"><ele>180.0</ele><time>2026-05-03T11:19:38Z</time></trkpt><trkpt lat="40.400488734830866" lon="8.410783949986692"><ele>180.0</ele><time>2026-05-03T11:19:39Z</time></trkpt><trkpt lat="40.40063204262863" lon="8.41062079437876"><ele>176.33333333333334</ele><time>2026-05-03T11:19:40Z</time></trkpt><trkpt lat="40.40078150124591" lon="8.410447570150023"><ele>172.66666666666669</ele><time>2026-05-03T11:19:41Z</time></trkpt><trkpt lat="40.400935604335935" lon="8.410282429265607"><ele>169.0</ele><time>2026-05-03T11:19:42Z</time></trkpt><trkpt lat="40.40109341493027" lon="8.410107809015999"><ele>169.0</ele><time>2026-05-03T11:19:43Z</time></trkpt><trkpt lat="40.401251385046145" lon="8.409933811695325"><ele>169.0</ele><time>2026-05-03T11:19:44Z</time></trkpt><trkpt lat="40.4014128093234" lon="8.409758491299074"><ele>169.0</ele><time>2026-05-03T11:19:45Z</time></trkpt><trkpt lat="40.40156327165902" lon="8.409587718168984"><ele>166.33333333333334</ele><time>2026-05-03T11:19:46Z</time></trkpt><trkpt lat="40.40170399406836" lon="8.409422573264594"><ele>163.66666666666666</ele><time>2026-05-03T11:19:47Z</time></trkpt><trkpt lat="40.40183079744413" lon="8.40927648844103"><ele>161.0</ele><time>2026-05-03T11:19:48Z</time></trkpt><trkpt lat="40.40195708009774" lon="8.409159172920134"><ele>161.0</ele><time>2026-05-03T11:19:49Z</time></trkpt><trkpt lat="40.40209460533075" lon="8.409080889855627"><ele>161.0</ele><time>2026-05-03T11:19:50Z</time></trkpt><trkpt lat="40.40223651849466" lon="8.409044983506021"><ele>161.0</ele><time>2026-05-03T11:19:51Z</time></trkpt><trkpt lat="40.40238470988236" lon="8.409058900950999"><ele>161.0</ele><time>2026-05-03T11:19:52Z</time></trkpt><trkpt lat="40.40253394228062" lon="8.409117286080132"><ele>164.0</ele><time>2026-05-03T11:19:53Z</time></trkpt><trkpt lat="40.402686479875655" lon="8.40921631876746"><ele>167.0</ele><time>2026-05-03T11:19:54Z</time></trkpt><trkpt lat="40.402823022403275" lon="8.409315997914215"><ele>170.0</ele><time>2026-05-03T11:19:55Z</time></trkpt><trkpt lat="40.40295048784237" lon="8.409428388387532"><ele>167.0</ele><time>2026-05-03T11:19:56Z</time></trkpt><trkpt lat="40.40306650884892" lon="8.409560670745835"><ele>164.0</ele><time>2026-05-03T11:19:57Z</time></trkpt><trkpt lat="40.40316853882396" lon="8.409733718162315"><ele>161.0</ele><time>2026-05-03T11:19:58Z</time></trkpt><trkpt lat="40.40326348032524" lon="8.40992406361619"><ele>161.0</ele><time>2026-05-03T11:19:59Z</time></trkpt><trkpt lat="40.403360094237456" lon="8.4101325763816"><ele>161.0</ele><time>2026-05-03T11:20:00Z</time></trkpt><trkpt lat="40.40346385883937" lon="8.410349050952487"><ele>161.0</ele><time>2026-05-03T11:20:01Z</time></trkpt><trkpt lat="40.403572819488" lon="8.410567837293005"><ele>164.0</ele><time>2026-05-03T11:20:02Z</time></trkpt><trkpt lat="40.403674473212284" lon="8.410789582569228"><ele>167.0</ele><time>2026-05-03T11:20:03Z</time></trkpt><trkpt lat="40.40376319516826" lon="8.411031960684578"><ele>170.0</ele><time>2026-05-03T11:20:04Z</time></trkpt><trkpt lat="40.403841180715744" lon="8.411266581639012"><ele>162.33333333333331</ele><time>2026-05-03T11:20:05Z</time></trkpt><trkpt lat="40.40392846468222" lon="8.411487046934953"><ele>154.66666666666666</ele><time>2026-05-03T11:20:06Z</time></trkpt><trkpt lat="40.40404081171395" lon="8.411696264169455"><ele>147.0</ele><time>2026-05-03T11:20:07Z</time></trkpt><trkpt lat="40.40418446451122" lon="8.41187331854055"><ele>147.0</ele><time>2026-05-03T11:20:08Z</time></trkpt><trkpt lat="40.40436381127023" lon="8.412049280616822"><ele>147.0</ele><time>2026-05-03T11:20:09Z</time></trkpt><trkpt lat="40.404557298630294" lon="8.412210427305551"><ele>147.0</ele><time>2026-05-03T11:20:10Z</time></trkpt><trkpt lat="40.40476735414705" lon="8.41238785644846"><ele>147.0</ele><time>2026-05-03T11:20:11Z</time></trkpt><trkpt lat="40.40497396192225" lon="8.412574018217954"><ele>147.0</ele><time>2026-05-03T11:20:12Z</time></trkpt><trkpt lat="40.40516988196668" lon="8.412766528711234"><ele>147.0</ele><time>2026-05-03T11:20:13Z</time></trkpt><trkpt lat="40.405353460638736" lon="8.41294714973592"><ele>146.0</ele><time>2026-05-03T11:20:14Z</time></trkpt><trkpt lat="40.40550151008416" lon="8.413135313018888"><ele>145.0</ele><time>2026-05-03T11:20:15Z</time></trkpt><trkpt lat="40.405613417725526" lon="8.413361537867733"><ele>144.0</ele><time>2026-05-03T11:20:16Z</time></trkpt><trkpt lat="40.40574788833925" lon="8.413502183036188"><ele>144.0</ele><time>2026-05-03T11:20:17Z</time></trkpt><trkpt lat="40.40589810924139" lon="8.413592346878822"><ele>144.0</ele><time>2026-05-03T11:20:18Z</time></trkpt><trkpt lat="40.4060579652215" lon="8.413622641677708"><ele>144.0</ele><time>2026-05-03T11:20:19Z</time></trkpt><trkpt lat="40.406214828713985" lon="8.413620168973434"><ele>145.66666666666666</ele><time>2026-05-03T11:20:20Z</time></trkpt><trkpt lat="40.406365428911656" lon="8.413568111380194"><ele>147.33333333333331</ele><time>2026-05-03T11:20:21Z</time></trkpt><trkpt lat="40.406522590108274" lon="8.413498996445457"><ele>149.0</ele><time>2026-05-03T11:20:22Z</time></trkpt><trkpt lat="40.406670787481055" lon="8.41338672103808"><ele>149.0</ele><time>2026-05-03T11:20:23Z</time></trkpt><trkpt lat="40.406799063072356" lon="8.413242053366481"><ele>149.0</ele><time>2026-05-03T11:20:24Z</time></trkpt><trkpt lat="40.40691936109007" lon="8.413050954976088"><ele>149.0</ele><time>2026-05-03T11:20:25Z</time></trkpt><trkpt lat="40.407029541309136" lon="8.412832208888291"><ele>146.66666666666666</ele><time>2026-05-03T11:20:26Z</time></trkpt><trkpt lat="40.407144339773424" lon="8.412603504744135"><ele>144.33333333333334</ele><time>2026-05-03T11:20:27Z</time></trkpt><trkpt lat="40.40726983903314" lon="8.412375424914893"><ele>142.0</ele><time>2026-05-03T11:20:28Z</time></trkpt><trkpt lat="40.4073976133409" lon="8.412141272779598"><ele>149.0</ele><time>2026-05-03T11:20:29Z</time></trkpt><trkpt lat="40.40752524604575" lon="8.411904898171672"><ele>156.0</ele><time>2026-05-03T11:20:30Z</time></trkpt><trkpt lat="40.407636326676226" lon="8.41168975088726"><ele>163.0</ele><time>2026-05-03T11:20:31Z</time></trkpt><trkpt lat="40.40776099934594" lon="8.411460642956307"><ele>159.66666666666669</ele><time>2026-05-03T11:20:32Z</time></trkpt><trkpt lat="40.40786241563099" lon="8.411256462538086"><ele>156.33333333333334</ele><time>2026-05-03T11:20:33Z</time></trkpt><trkpt lat="40.40794125654233" lon="8.411057850917091"><ele>153.0</ele><time>2026-05-03T11:20:34Z</time></trkpt><trkpt lat="40.40799887423592" lon="8.41084504192056"><ele>155.66666666666666</ele><time>2026-05-03T11:20:35Z</time></trkpt><trkpt lat="40.408021458045" lon="8.410620129338032"><ele>158.33333333333331</ele><time>2026-05-03T11:20:36Z</time></trkpt><trkpt lat="40.40801390793428" lon="8.410402161917403"><ele>161.0</ele><time>2026-05-03T11:20:37Z</time></trkpt><trkpt lat="40.407973117230014" lon="8.410188218760483"><ele>161.0</ele><time>2026-05-03T11:20:38Z</time></trkpt><trkpt lat="40.40790111545409" lon="8.40998286514337"><ele>161.0</ele><time>2026-05-03T11:20:39Z</time></trkpt><trkpt lat="40.407821890253906" lon="8.409809950960602"><ele>161.0</ele><time>2026-05-03T11:20:40Z</time></trkpt><trkpt lat="40.407699963712986" lon="8.409562656498817"><ele>165.33333333333331</ele><time>2026-05-03T11:20:41Z</time></trkpt><trkpt lat="40.40762281051484" lon="8.409353543400014"><ele>169.66666666666666</ele><time>2026-05-03T11:20:42Z</time></trkpt><trkpt lat="40.407576261129314" lon="8.409125149194173"><ele>174.0</ele><time>2026-05-03T11:20:43Z</time></trkpt><trkpt lat="40.40755564247452" lon="8.408886111038715"><ele>175.33333333333334</ele><time>2026-05-03T11:20:44Z</time></trkpt><trkpt lat="40.407562501620745" lon="8.408655193222701"><ele>176.66666666666669</ele><time>2026-05-03T11:20:45Z</time></trkpt><trkpt lat="40.40759433396336" lon="8.408434762033497"><ele>178.0</ele><time>2026-05-03T11:20:46Z</time></trkpt><trkpt lat="40.40765988536817" lon="8.408237266520825"><ele>178.0</ele><time>2026-05-03T11:20:47Z</time></trkpt><trkpt lat="40.40775806886524" lon="8.408051847659245"><ele>178.0</ele><time>2026-05-03T11:20:48Z</time></trkpt><trkpt lat="40.40788379361863" lon="8.407890438486477"><ele>178.0</ele><time>2026-05-03T11:20:49Z</time></trkpt><trkpt lat="40.408035420715265" lon="8.407745902865312"><ele>182.66666666666669</ele><time>2026-05-03T11:20:50Z</time></trkpt><trkpt lat="40.40821122696646" lon="8.407614060762523"><ele>187.33333333333334</ele><time>2026-05-03T11:20:51Z</time></trkpt><trkpt lat="40.40840139827543" lon="8.407496766849613"><ele>192.0</ele><time>2026-05-03T11:20:52Z</time></trkpt><trkpt lat="40.40860892583444" lon="8.407379791381887"><ele>192.0</ele><time>2026-05-03T11:20:53Z</time></trkpt><trkpt lat="40.40882043921707" lon="8.40724921930677"><ele>192.0</ele><time>2026-05-03T11:20:54Z</time></trkpt><trkpt lat="40.40901802488692" lon="8.40712202630786"><ele>190.0</ele><time>2026-05-03T11:20:55Z</time></trkpt><trkpt lat="40.409209133278566" lon="8.407006126705785"><ele>188.0</ele><time>2026-05-03T11:20:56Z</time></trkpt><trkpt lat="40.409387160612276" lon="8.4069214747879"><ele>186.0</ele><time>2026-05-03T11:20:57Z</time></trkpt><trkpt lat="40.4095670756494" lon="8.406875234351073"><ele>188.0</ele><time>2026-05-03T11:20:58Z</time></trkpt><trkpt lat="40.40975309970597" lon="8.406871835194535"><ele>190.0</ele><time>2026-05-03T11:20:59Z</time></trkpt><trkpt lat="40.40995358819076" lon="8.406894360575205"><ele>192.0</ele><time>2026-05-03T11:21:00Z</time></trkpt><trkpt lat="40.410154111855356" lon="8.406927940342957"><ele>192.0</ele><time>2026-05-03T11:21:01Z</time></trkpt><trkpt lat="40.410350030787676" lon="8.406968460260765"><ele>192.0</ele><time>2026-05-03T11:21:02Z</time></trkpt><trkpt lat="40.41054344392776" lon="8.407009807718103"><ele>192.0</ele><time>2026-05-03T11:21:03Z</time></trkpt><trkpt lat="40.41073382724964" lon="8.40705647112975"><ele>195.0</ele><time>2026-05-03T11:21:04Z</time></trkpt><trkpt lat="40.41092056816092" lon="8.407106197572174"><ele>198.0</ele><time>2026-05-03T11:21:05Z</time></trkpt><trkpt lat="40.411107621861596" lon="8.407171537167612"><ele>201.0</ele><time>2026-05-03T11:21:06Z</time></trkpt><trkpt lat="40.41129021525956" lon="8.407243733215239"><ele>208.66666666666669</ele><time>2026-05-03T11:21:07Z</time></trkpt><trkpt lat="40.41147708910274" lon="8.407314051024844"><ele>216.33333333333334</ele><time>2026-05-03T11:21:08Z</time></trkpt><trkpt lat="40.41166493387769" lon="8.40737626504566"><ele>224.0</ele><time>2026-05-03T11:21:09Z</time></trkpt><trkpt lat="40.411846732505765" lon="8.407442364988524"><ele>224.0</ele><time>2026-05-03T11:21:10Z</time></trkpt><trkpt lat="40.41202829271661" lon="8.407515317353317"><ele>224.0</ele><time>2026-05-03T11:21:11Z</time></trkpt><trkpt lat="40.41220808053511" lon="8.40757998229527"><ele>224.0</ele><time>2026-05-03T11:21:12Z</time></trkpt><trkpt lat="40.412388681391" lon="8.407621248500705"><ele>224.66666666666669</ele><time>2026-05-03T11:21:13Z</time></trkpt><trkpt lat="40.41257140169619" lon="8.407627383286655"><ele>225.33333333333331</ele><time>2026-05-03T11:21:14Z</time></trkpt><trkpt lat="40.41275193618451" lon="8.40760393934053"><ele>226.0</ele><time>2026-05-03T11:21:15Z</time></trkpt><trkpt lat="40.41293394520867" lon="8.407562859265044"><ele>227.33333333333331</ele><time>2026-05-03T11:21:16Z</time></trkpt><trkpt lat="40.413092975865375" lon="8.407530420681905"><ele>228.66666666666669</ele><time>2026-05-03T11:21:17Z</time></trkpt><trkpt lat="40.41326015959685" lon="8.407501891730528"><ele>230.0</ele><time>2026-05-03T11:21:18Z</time></trkpt><trkpt lat="40.41341184769656" lon="8.407475404033361"><ele>230.0</ele><time>2026-05-03T11:21:19Z</time></trkpt><trkpt lat="40.41356169983552" lon="8.407458011522992"><ele>230.0</ele><time>2026-05-03T11:21:20Z</time></trkpt><trkpt lat="40.41370703007701" lon="8.407459897320312"><ele>230.0</ele><time>2026-05-03T11:21:21Z</time></trkpt><trkpt lat="40.41385107355378" lon="8.40748765615486"><ele>230.0</ele><time>2026-05-03T11:21:22Z</time></trkpt><trkpt lat="40.41399379457979" lon="8.407544035582925"><ele>231.33333333333334</ele><time>2026-05-03T11:21:23Z</time></trkpt><trkpt lat="40.41413521685419" lon="8.40762420481523"><ele>232.66666666666669</ele><time>2026-05-03T11:21:24Z</time></trkpt><trkpt lat="40.414275452875785" lon="8.407716328630261"><ele>234.0</ele><time>2026-05-03T11:21:25Z</time></trkpt><trkpt lat="40.41442277948255" lon="8.407819248470371"><ele>234.0</ele><time>2026-05-03T11:21:26Z</time></trkpt><trkpt lat="40.41457240650097" lon="8.40791451142987"><ele>234.0</ele><time>2026-05-03T11:21:27Z</time></trkpt><trkpt lat="40.41472914555478" lon="8.407978795343102"><ele>234.0</ele><time>2026-05-03T11:21:28Z</time></trkpt><trkpt lat="40.414886733756646" lon="8.408026869915354"><ele>239.66666666666669</ele><time>2026-05-03T11:21:29Z</time></trkpt><trkpt lat="40.41505263430796" lon="8.408074591720125"><ele>245.33333333333334</ele><time>2026-05-03T11:21:30Z</time></trkpt><trkpt lat="40.41522068311885" lon="8.40812609164692"><ele>251.0</ele><time>2026-05-03T11:21:31Z</time></trkpt><trkpt lat="40.41539888184111" lon="8.408182441414661"><ele>248.33333333333334</ele><time>2026-05-03T11:21:32Z</time></trkpt><trkpt lat="40.41558179708923" lon="8.40823365453043"><ele>245.66666666666669</ele><time>2026-05-03T11:21:33Z</time></trkpt><trkpt lat="40.41575783753083" lon="8.408277310169066"><ele>243.0</ele><time>2026-05-03T11:21:33.999Z</time></trkpt><trkpt lat="40.41591854217178" lon="8.408317979655534"><ele>243.0</ele><time>2026-05-03T11:21:34.999Z</time></trkpt><trkpt lat="40.416075069417516" lon="8.40836516146502"><ele>243.0</ele><time>2026-05-03T11:21:35.999Z</time></trkpt><trkpt lat="40.41622979837345" lon="8.408410593529217"><ele>243.0</ele><time>2026-05-03T11:21:36.999Z</time></trkpt><trkpt lat="40.416392558095545" lon="8.408423988233164"><ele>243.66666666666669</ele><time>2026-05-03T11:21:37.999Z</time></trkpt><trkpt lat="40.41654610716478" lon="8.408381311499836"><ele>244.33333333333334</ele><time>2026-05-03T11:21:38.999Z</time></trkpt><trkpt lat="40.41668643789719" lon="8.40831493913806"><ele>245.0</ele><time>2026-05-03T11:21:39.999Z</time></trkpt><trkpt lat="40.41681083484388" lon="8.408202536237516"><ele>245.0</ele><time>2026-05-03T11:21:40.999Z</time></trkpt><trkpt lat="40.41691343443275" lon="8.408048351265016"><ele>245.0</ele><time>2026-05-03T11:21:41.999Z</time></trkpt><trkpt lat="40.41699876653164" lon="8.407856498098429"><ele>245.0</ele><time>2026-05-03T11:21:43Z</time></trkpt><trkpt lat="40.41707043517512" lon="8.407657678165226"><ele>245.66666666666669</ele><time>2026-05-03T11:21:44Z</time></trkpt><trkpt lat="40.417150510055876" lon="8.40747915401337"><ele>246.33333333333331</ele><time>2026-05-03T11:21:45Z</time></trkpt><trkpt lat="40.41725531587827" lon="8.40731221053104"><ele>247.0</ele><time>2026-05-03T11:21:46Z</time></trkpt><trkpt lat="40.41736841144744" lon="8.407161967869992"><ele>238.0</ele><time>2026-05-03T11:21:47Z</time></trkpt><trkpt lat="40.41750196467317" lon="8.407028237123031"><ele>229.0</ele><time>2026-05-03T11:21:48Z</time></trkpt><trkpt lat="40.4176523554681" lon="8.406909308838344"><ele>220.0</ele><time>2026-05-03T11:21:49Z</time></trkpt><trkpt lat="40.41781367012979" lon="8.406815214052083"><ele>224.0</ele><time>2026-05-03T11:21:50Z</time></trkpt><trkpt lat="40.417986961561965" lon="8.4067638444907"><ele>228.0</ele><time>2026-05-03T11:21:51Z</time></trkpt><trkpt lat="40.41817093339794" lon="8.406749296165353"><ele>232.0</ele><time>2026-05-03T11:21:52Z</time></trkpt><trkpt lat="40.41836231827669" lon="8.40675918585693"><ele>232.0</ele><time>2026-05-03T11:21:53Z</time></trkpt><trkpt lat="40.41855494597045" lon="8.40678972965255"><ele>232.0</ele><time>2026-05-03T11:21:54Z</time></trkpt><trkpt lat="40.418718377964964" lon="8.406858374839977"><ele>232.0</ele><time>2026-05-03T11:21:55Z</time></trkpt><trkpt lat="40.418863715219835" lon="8.40693995063345"><ele>228.5</ele><time>2026-05-03T11:21:56Z</time></trkpt><trkpt lat="40.41899799978904" lon="8.40699521824834"><ele>225.0</ele><time>2026-05-03T11:21:57Z</time></trkpt><trkpt lat="40.41913932764494" lon="8.407004099634948"><ele>221.5</ele><time>2026-05-03T11:21:58Z</time></trkpt><trkpt lat="40.41928973940998" lon="8.406971813564127"><ele>218.0</ele><time>2026-05-03T11:21:59Z</time></trkpt><trkpt lat="40.41944363197762" lon="8.40690554396337"><ele>218.0</ele><time>2026-05-03T11:22:00Z</time></trkpt><trkpt lat="40.41959727120825" lon="8.406825586898087"><ele>218.0</ele><time>2026-05-03T11:22:01Z</time></trkpt><trkpt lat="40.41975235061364" lon="8.406757091437726"><ele>218.0</ele><time>2026-05-03T11:22:02Z</time></trkpt><trkpt lat="40.41989827266118" lon="8.40672245040186"><ele>218.33333333333334</ele><time>2026-05-03T11:22:03Z</time></trkpt><trkpt lat="40.420049729913224" lon="8.406721013885184"><ele>218.66666666666669</ele><time>2026-05-03T11:22:04Z</time></trkpt><trkpt lat="40.420207581139564" lon="8.406750569885979"><ele>219.0</ele><time>2026-05-03T11:22:05Z</time></trkpt><trkpt lat="40.42036309093595" lon="8.406806118104543"><ele>217.0</ele><time>2026-05-03T11:22:06Z</time></trkpt><trkpt lat="40.420524566357194" lon="8.406876724119385"><ele>215.0</ele><time>2026-05-03T11:22:07Z</time></trkpt><trkpt lat="40.420684772641465" lon="8.406957450592166"><ele>213.0</ele><time>2026-05-03T11:22:08Z</time></trkpt><trkpt lat="40.420848221623395" lon="8.407032716695705"><ele>213.0</ele><time>2026-05-03T11:22:09Z</time></trkpt><trkpt lat="40.42101992409633" lon="8.407092577903702"><ele>213.0</ele><time>2026-05-03T11:22:10Z</time></trkpt><trkpt lat="40.42118947689445" lon="8.407136647434749"><ele>213.0</ele><time>2026-05-03T11:22:11Z</time></trkpt><trkpt lat="40.42136194323409" lon="8.407176528422278"><ele>222.33333333333331</ele><time>2026-05-03T11:22:12Z</time></trkpt><trkpt lat="40.42152094303772" lon="8.407215034063709"><ele>231.66666666666666</ele><time>2026-05-03T11:22:13Z</time></trkpt><trkpt lat="40.421676414844384" lon="8.40724419850242"><ele>241.0</ele><time>2026-05-03T11:22:14Z</time></trkpt><trkpt lat="40.42182476020966" lon="8.407252983955775"><ele>241.0</ele><time>2026-05-03T11:22:15Z</time></trkpt><trkpt lat="40.42196280365896" lon="8.407231672089456"><ele>241.0</ele><time>2026-05-03T11:22:16Z</time></trkpt><trkpt lat="40.42208929420384" lon="8.407167673935225"><ele>241.0</ele><time>2026-05-03T11:22:17Z</time></trkpt><trkpt lat="40.4222057667672" lon="8.40705769642173"><ele>241.0</ele><time>2026-05-03T11:22:18Z</time></trkpt><trkpt lat="40.4223130314939" lon="8.406902684078315"><ele>239.66666666666666</ele><time>2026-05-03T11:22:19Z</time></trkpt><trkpt lat="40.422406196850666" lon="8.40670597697984"><ele>238.33333333333331</ele><time>2026-05-03T11:22:20Z</time></trkpt><trkpt lat="40.42247978260707" lon="8.406490658867364"><ele>237.0</ele><time>2026-05-03T11:22:21Z</time></trkpt><trkpt lat="40.42254496765554" lon="8.406259638845354"><ele>235.0</ele><time>2026-05-03T11:22:22Z</time></trkpt><trkpt lat="40.422608576378586" lon="8.406017823633945"><ele>233.0</ele><time>2026-05-03T11:22:23Z</time></trkpt><trkpt lat="40.42268088863042" lon="8.405764839052225"><ele>231.0</ele><time>2026-05-03T11:22:24Z</time></trkpt><trkpt lat="40.422756089088224" lon="8.405503667000215"><ele>230.33333333333331</ele><time>2026-05-03T11:22:25Z</time></trkpt><trkpt lat="40.42282625229566" lon="8.40524030449845"><ele>229.66666666666666</ele><time>2026-05-03T11:22:26Z</time></trkpt><trkpt lat="40.4228966224395" lon="8.404976785886758"><ele>229.0</ele><time>2026-05-03T11:22:27Z</time></trkpt><trkpt lat="40.42296973289716" lon="8.404722530113212"><ele>229.33333333333331</ele><time>2026-05-03T11:22:28Z</time></trkpt><trkpt lat="40.423048166145755" lon="8.404498437478754"><ele>229.66666666666669</ele><time>2026-05-03T11:22:29Z</time></trkpt><trkpt lat="40.42314438939143" lon="8.40429797531708"><ele>230.0</ele><time>2026-05-03T11:22:30Z</time></trkpt><trkpt lat="40.42326283478969" lon="8.404111792566987"><ele>230.0</ele><time>2026-05-03T11:22:31Z</time></trkpt><trkpt lat="40.42339948147511" lon="8.403927701396846"><ele>230.0</ele><time>2026-05-03T11:22:32Z</time></trkpt><trkpt lat="40.42354068922739" lon="8.403741390131213"><ele>230.0</ele><time>2026-05-03T11:22:33Z</time></trkpt><trkpt lat="40.42368374711566" lon="8.403550916581885"><ele>232.0</ele><time>2026-05-03T11:22:34Z</time></trkpt><trkpt lat="40.42382724371299" lon="8.40336515193817"><ele>234.0</ele><time>2026-05-03T11:22:35Z</time></trkpt><trkpt lat="40.42396152896997" lon="8.403189955625761"><ele>236.0</ele><time>2026-05-03T11:22:36Z</time></trkpt><trkpt lat="40.4240906785247" lon="8.403022805472837"><ele>226.33333333333334</ele><time>2026-05-03T11:22:37Z</time></trkpt><trkpt lat="40.42421665991127" lon="8.402858951379137"><ele>216.66666666666669</ele><time>2026-05-03T11:22:38Z</time></trkpt><trkpt lat="40.42434456818183" lon="8.402699708306766"><ele>207.0</ele><time>2026-05-03T11:22:39Z</time></trkpt><trkpt lat="40.42448210996223" lon="8.402564296713434"><ele>207.0</ele><time>2026-05-03T11:22:40Z</time></trkpt><trkpt lat="40.42463113223496" lon="8.402447491125915"><ele>207.0</ele><time>2026-05-03T11:22:41Z</time></trkpt><trkpt lat="40.424793958477075" lon="8.402339022506228"><ele>207.0</ele><time>2026-05-03T11:22:42Z</time></trkpt><trkpt lat="40.42496501244043" lon="8.402255810260154"><ele>212.33333333333331</ele><time>2026-05-03T11:22:43Z</time></trkpt><trkpt lat="40.42514628161249" lon="8.402203717013576"><ele>217.66666666666666</ele><time>2026-05-03T11:22:44Z</time></trkpt><trkpt lat="40.4253354696036" lon="8.402175846061613"><ele>223.0</ele><time>2026-05-03T11:22:45Z</time></trkpt><trkpt lat="40.425533760995165" lon="8.402170283496769"><ele>223.0</ele><time>2026-05-03T11:22:46Z</time></trkpt><trkpt lat="40.42573748015125" lon="8.402178819026554"><ele>223.0</ele><time>2026-05-03T11:22:47Z</time></trkpt><trkpt lat="40.42594788832652" lon="8.402188809600421"><ele>223.0</ele><time>2026-05-03T11:22:48Z</time></trkpt><trkpt lat="40.42617280281364" lon="8.40219935744255"><ele>221.33333333333331</ele><time>2026-05-03T11:22:49Z</time></trkpt><trkpt lat="40.42638361910762" lon="8.402207110616843"><ele>219.66666666666669</ele><time>2026-05-03T11:22:50Z</time></trkpt><trkpt lat="40.42659435119807" lon="8.402205948887033"><ele>218.0</ele><time>2026-05-03T11:22:51Z</time></trkpt><trkpt lat="40.42680163556967" lon="8.402190100905255"><ele>209.33333333333334</ele><time>2026-05-03T11:22:52Z</time></trkpt><trkpt lat="40.42700594565704" lon="8.402146645374378"><ele>200.66666666666669</ele><time>2026-05-03T11:22:53Z</time></trkpt><trkpt lat="40.42721335087351" lon="8.402074766112817"><ele>192.0</ele><time>2026-05-03T11:22:54Z</time></trkpt><trkpt lat="40.427421384820235" lon="8.401984154162227"><ele>192.0</ele><time>2026-05-03T11:22:55Z</time></trkpt><trkpt lat="40.427617977285685" lon="8.401896700800503"><ele>192.0</ele><time>2026-05-03T11:22:56Z</time></trkpt><trkpt lat="40.42780690091969" lon="8.401815515319713"><ele>192.0</ele><time>2026-05-03T11:22:57Z</time></trkpt><trkpt lat="40.42798521620048" lon="8.401741790665602"><ele>193.66666666666669</ele><time>2026-05-03T11:22:58Z</time></trkpt><trkpt lat="40.42816003464711" lon="8.401684521812973"><ele>195.33333333333334</ele><time>2026-05-03T11:22:59Z</time></trkpt><trkpt lat="40.428331289296125" lon="8.40164024130443"><ele>197.0</ele><time>2026-05-03T11:23:00Z</time></trkpt><trkpt lat="40.42850561592157" lon="8.401612521224662"><ele>197.0</ele><time>2026-05-03T11:23:01Z</time></trkpt><trkpt lat="40.4286932588138" lon="8.40160739149964"><ele>197.0</ele><time>2026-05-03T11:23:02Z</time></trkpt><trkpt lat="40.42888287756147" lon="8.40162192692774"><ele>197.0</ele><time>2026-05-03T11:23:03Z</time></trkpt><trkpt lat="40.42907624757045" lon="8.401649474912404"><ele>193.66666666666669</ele><time>2026-05-03T11:23:04Z</time></trkpt><trkpt lat="40.42927524663532" lon="8.401678082024405"><ele>190.33333333333334</ele><time>2026-05-03T11:23:05Z</time></trkpt><trkpt lat="40.429478085009585" lon="8.40170260665853"><ele>187.0</ele><time>2026-05-03T11:23:06Z</time></trkpt><trkpt lat="40.429678029814056" lon="8.401725529823228"><ele>185.0</ele><time>2026-05-03T11:23:07Z</time></trkpt><trkpt lat="40.42986754371454" lon="8.40174558974866"><ele>183.0</ele><time>2026-05-03T11:23:08Z</time></trkpt><trkpt lat="40.430051085850025" lon="8.401768724675836"><ele>181.0</ele><time>2026-05-03T11:23:09Z</time></trkpt><trkpt lat="40.43023199137443" lon="8.401798346414573"><ele>181.0</ele><time>2026-05-03T11:23:10Z</time></trkpt><trkpt lat="40.43041639026312" lon="8.401829632391046"><ele>181.0</ele><time>2026-05-03T11:23:11Z</time></trkpt><trkpt lat="40.43059950225424" lon="8.40186392278402"><ele>181.0</ele><time>2026-05-03T11:23:12Z</time></trkpt><trkpt lat="40.43078526995638" lon="8.40190636977188"><ele>177.33333333333334</ele><time>2026-05-03T11:23:13Z</time></trkpt><trkpt lat="40.43096586379436" lon="8.401952558982012"><ele>173.66666666666666</ele><time>2026-05-03T11:23:14Z</time></trkpt><trkpt lat="40.431145279019724" lon="8.402004100674883"><ele>170.0</ele><time>2026-05-03T11:23:15Z</time></trkpt><trkpt lat="40.431320705658166" lon="8.402069526166173"><ele>171.33333333333331</ele><time>2026-05-03T11:23:16Z</time></trkpt><trkpt lat="40.43148916271037" lon="8.40214778043758"><ele>172.66666666666666</ele><time>2026-05-03T11:23:17Z</time></trkpt><trkpt lat="40.43165989186681" lon="8.402246081576173"><ele>174.0</ele><time>2026-05-03T11:23:18Z</time></trkpt><trkpt lat="40.431827714105864" lon="8.402359573855165"><ele>174.0</ele><time>2026-05-03T11:23:19Z</time></trkpt><trkpt lat="40.431981366631945" lon="8.402470898841566"><ele>174.0</ele><time>2026-05-03T11:23:20Z</time></trkpt><trkpt lat="40.432137379766466" lon="8.402575190089781"><ele>174.0</ele><time>2026-05-03T11:23:21Z</time></trkpt><trkpt lat="40.4322825511502" lon="8.40267736612479"><ele>173.0</ele><time>2026-05-03T11:23:22Z</time></trkpt><trkpt lat="40.43242119271744" lon="8.402796806524082"><ele>172.0</ele><time>2026-05-03T11:23:23Z</time></trkpt><trkpt lat="40.43255141909479" lon="8.40294865569529"><ele>171.0</ele><time>2026-05-03T11:23:24Z</time></trkpt><trkpt lat="40.43267390458427" lon="8.403125384607016"><ele>171.0</ele><time>2026-05-03T11:23:25Z</time></trkpt><trkpt lat="40.432791279170374" lon="8.403317624009967"><ele>171.0</ele><time>2026-05-03T11:23:26Z</time></trkpt><trkpt lat="40.432902918272525" lon="8.403515397262012"><ele>171.0</ele><time>2026-05-03T11:23:27Z</time></trkpt><trkpt lat="40.43301415063661" lon="8.403712331789196"><ele>165.33333333333334</ele><time>2026-05-03T11:23:28Z</time></trkpt><trkpt lat="40.43312648165248" lon="8.40390264329325"><ele>159.66666666666669</ele><time>2026-05-03T11:23:29Z</time></trkpt><trkpt lat="40.433237782693716" lon="8.404087092054025"><ele>154.0</ele><time>2026-05-03T11:23:30Z</time></trkpt><trkpt lat="40.433345123398574" lon="8.404271587799341"><ele>154.0</ele><time>2026-05-03T11:23:31Z</time></trkpt><trkpt lat="40.433438065431176" lon="8.404460369925193"><ele>154.0</ele><time>2026-05-03T11:23:32Z</time></trkpt><trkpt lat="40.43350896166913" lon="8.404660995721647"><ele>154.0</ele><time>2026-05-03T11:23:33Z</time></trkpt><trkpt lat="40.433560674203626" lon="8.40487557787096"><ele>159.66666666666669</ele><time>2026-05-03T11:23:34Z</time></trkpt><trkpt lat="40.43360249683224" lon="8.405105180734916"><ele>165.33333333333334</ele><time>2026-05-03T11:23:35Z</time></trkpt><trkpt lat="40.43363981289522" lon="8.405327927585557"><ele>171.0</ele><time>2026-05-03T11:23:36Z</time></trkpt><trkpt lat="40.433677204540054" lon="8.405537438103874"><ele>174.33333333333334</ele><time>2026-05-03T11:23:37Z</time></trkpt><trkpt lat="40.433727242014356" lon="8.405737727416193"><ele>177.66666666666669</ele><time>2026-05-03T11:23:38Z</time></trkpt><trkpt lat="40.43380094021376" lon="8.40593390199272"><ele>181.0</ele><time>2026-05-03T11:23:39Z</time></trkpt><trkpt lat="40.43389230731653" lon="8.40610564328965"><ele>175.33333333333334</ele><time>2026-05-03T11:23:40Z</time></trkpt><trkpt lat="40.43401250581914" lon="8.406255304700425"><ele>169.66666666666666</ele><time>2026-05-03T11:23:41Z</time></trkpt><trkpt lat="40.43416040060769" lon="8.406371071902846"><ele>164.0</ele><time>2026-05-03T11:23:42Z</time></trkpt><trkpt lat="40.434319646576704" lon="8.406452056446271"><ele>164.0</ele><time>2026-05-03T11:23:43Z</time></trkpt><trkpt lat="40.43447317131073" lon="8.406534375184677"><ele>164.0</ele><time>2026-05-03T11:23:44Z</time></trkpt><trkpt lat="40.43463580484968" lon="8.406579622943164"><ele>164.0</ele><time>2026-05-03T11:23:45Z</time></trkpt><trkpt lat="40.43479433215856" lon="8.406614766021962"><ele>155.66666666666666</ele><time>2026-05-03T11:23:45.999Z</time></trkpt><trkpt lat="40.43495374812497" lon="8.406600369879575"><ele>147.33333333333334</ele><time>2026-05-03T11:23:46.999Z</time></trkpt><trkpt lat="40.43512010643036" lon="8.406545871521203"><ele>139.0</ele><time>2026-05-03T11:23:47.999Z</time></trkpt><trkpt lat="40.435278807494505" lon="8.406462086838829"><ele>139.0</ele><time>2026-05-03T11:23:49Z</time></trkpt><trkpt lat="40.435422898205246" lon="8.40634730847049"><ele>139.0</ele><time>2026-05-03T11:23:50Z</time></trkpt><trkpt lat="40.435536506141744" lon="8.406206683017809"><ele>139.0</ele><time>2026-05-03T11:23:51Z</time></trkpt><trkpt lat="40.43562868001519" lon="8.406032011923816"><ele>142.66666666666669</ele><time>2026-05-03T11:23:52Z</time></trkpt><trkpt lat="40.435685555830446" lon="8.405844642371942"><ele>146.33333333333334</ele><time>2026-05-03T11:23:53Z</time></trkpt><trkpt lat="40.43570841908308" lon="8.405634457692274"><ele>150.0</ele><time>2026-05-03T11:23:54Z</time></trkpt><trkpt lat="40.43569890011208" lon="8.40541131141112"><ele>150.66666666666666</ele><time>2026-05-03T11:23:55Z</time></trkpt><trkpt lat="40.435673685717404" lon="8.405163694757796"><ele>151.33333333333331</ele><time>2026-05-03T11:23:56Z</time></trkpt><trkpt lat="40.43566806071562" lon="8.404896974750677"><ele>152.0</ele><time>2026-05-03T11:23:57Z</time></trkpt><trkpt lat="40.43568209644054" lon="8.40461789988272"><ele>150.0</ele><time>2026-05-03T11:23:58Z</time></trkpt><trkpt lat="40.435698704816545" lon="8.404329939160176"><ele>148.0</ele><time>2026-05-03T11:23:59Z</time></trkpt><trkpt lat="40.43571728026341" lon="8.404015922164726"><ele>144.5</ele><time>2026-05-03T11:24:00Z</time></trkpt><trkpt lat="40.43573590204569" lon="8.403692299020571"><ele>141.0</ele><time>2026-05-03T11:24:01Z</time></trkpt><trkpt lat="40.435756270373766" lon="8.403363107841427"><ele>141.0</ele><time>2026-05-03T11:24:02Z</time></trkpt><trkpt lat="40.435780842182915" lon="8.403045787655202"><ele>141.0</ele><time>2026-05-03T11:24:03Z</time></trkpt><trkpt lat="40.43580270402983" lon="8.402743359899299"><ele>138.33333333333334</ele><time>2026-05-03T11:24:04Z</time></trkpt><trkpt lat="40.43581947496876" lon="8.402461851389692"><ele>135.66666666666669</ele><time>2026-05-03T11:24:05Z</time></trkpt><trkpt lat="40.43584314853579" lon="8.402195890607041"><ele>133.0</ele><time>2026-05-03T11:24:06Z</time></trkpt><trkpt lat="40.43588105499361" lon="8.401934206963473"><ele>130.66666666666669</ele><time>2026-05-03T11:24:07Z</time></trkpt><trkpt lat="40.43593357847117" lon="8.401667876609496"><ele>128.33333333333334</ele><time>2026-05-03T11:24:08Z</time></trkpt><trkpt lat="40.43599487337231" lon="8.40140110381529"><ele>126.0</ele><time>2026-05-03T11:24:09Z</time></trkpt><trkpt lat="40.43605627630884" lon="8.40113799225193"><ele>121.0</ele><time>2026-05-03T11:24:10Z</time></trkpt><trkpt lat="40.436116411989104" lon="8.400882400695403"><ele>116.0</ele><time>2026-05-03T11:24:11Z</time></trkpt><trkpt lat="40.436180647753964" lon="8.40062803960911"><ele>111.0</ele><time>2026-05-03T11:24:12Z</time></trkpt><trkpt lat="40.43624000515206" lon="8.400387765589695"><ele>107.33333333333334</ele><time>2026-05-03T11:24:13Z</time></trkpt><trkpt lat="40.436297072928085" lon="8.400156754813011"><ele>103.66666666666667</ele><time>2026-05-03T11:24:14Z</time></trkpt><trkpt lat="40.436355548256785" lon="8.39993854919945"><ele>100.0</ele><time>2026-05-03T11:24:15Z</time></trkpt><trkpt lat="40.43642517692406" lon="8.399743709108007"><ele>106.66666666666667</ele><time>2026-05-03T11:24:16Z</time></trkpt><trkpt lat="40.436514627931125" lon="8.39957176588754"><ele>113.33333333333334</ele><time>2026-05-03T11:24:17Z</time></trkpt><trkpt lat="40.4366269600333" lon="8.399436072834531"><ele>120.0</ele><time>2026-05-03T11:24:18Z</time></trkpt><trkpt lat="40.43675949148975" lon="8.399330918792673"><ele>120.0</ele><time>2026-05-03T11:24:19Z</time></trkpt><trkpt lat="40.43690110240575" lon="8.399244843079206"><ele>120.0</ele><time>2026-05-03T11:24:20Z</time></trkpt><trkpt lat="40.43705117531776" lon="8.399204100187577"><ele>120.0</ele><time>2026-05-03T11:24:21Z</time></trkpt><trkpt lat="40.4372159145849" lon="8.399194809000496"><ele>115.33333333333334</ele><time>2026-05-03T11:24:22Z</time></trkpt><trkpt lat="40.43738941561375" lon="8.399219421471239"><ele>110.66666666666667</ele><time>2026-05-03T11:24:23Z</time></trkpt><trkpt lat="40.43757315373613" lon="8.399258234383787"><ele>106.0</ele><time>2026-05-03T11:24:24Z</time></trkpt><trkpt lat="40.43776899654483" lon="8.399307802181513"><ele>104.33333333333334</ele><time>2026-05-03T11:24:25Z</time></trkpt><trkpt lat="40.437977159672386" lon="8.399355036324177"><ele>102.66666666666666</ele><time>2026-05-03T11:24:26Z</time></trkpt><trkpt lat="40.43817923127185" lon="8.399397532628026"><ele>101.0</ele><time>2026-05-03T11:24:27Z</time></trkpt><trkpt lat="40.438385960978096" lon="8.399442580638697"><ele>101.0</ele><time>2026-05-03T11:24:28Z</time></trkpt><trkpt lat="40.438601963390006" lon="8.399490500510092"><ele>101.0</ele><time>2026-05-03T11:24:29Z</time></trkpt><trkpt lat="40.43882132167431" lon="8.399540575381444"><ele>101.0</ele><time>2026-05-03T11:24:30Z</time></trkpt><trkpt lat="40.4390394924021" lon="8.39959037936207"><ele>102.0</ele><time>2026-05-03T11:24:31Z</time></trkpt><trkpt lat="40.439260039492886" lon="8.399637979018276"><ele>103.0</ele><time>2026-05-03T11:24:32Z</time></trkpt><trkpt lat="40.439478488318045" lon="8.399685193378224"><ele>104.0</ele><time>2026-05-03T11:24:33Z</time></trkpt><trkpt lat="40.439689669160735" lon="8.39973045527267"><ele>104.0</ele><time>2026-05-03T11:24:34Z</time></trkpt><trkpt lat="40.439987254500096" lon="8.400103754607821"><ele>104.0</ele><time>2026-05-03T11:24:35Z</time></trkpt><trkpt lat="40.440260491713715" lon="8.39983899042986"><ele>104.0</ele><time>2026-05-03T11:24:37Z</time></trkpt><trkpt lat="40.44042634234554" lon="8.399834839256595"><ele>104.0</ele><time>2026-05-03T11:24:38Z</time></trkpt><trkpt lat="40.440584184485196" lon="8.399807171029424"><ele>104.0</ele><time>2026-05-03T11:24:39Z</time></trkpt><trkpt lat="40.440719354998855" lon="8.399743244070324"><ele>100.0</ele><time>2026-05-03T11:24:40Z</time></trkpt><trkpt lat="40.44085349840066" lon="8.39965019065407"><ele>96.0</ele><time>2026-05-03T11:24:41Z</time></trkpt><trkpt lat="40.44097118755035" lon="8.399519291620567"><ele>92.0</ele><time>2026-05-03T11:24:42Z</time></trkpt><trkpt lat="40.44106339414672" lon="8.39936315691459"><ele>92.0</ele><time>2026-05-03T11:24:43Z</time></trkpt><trkpt lat="40.44112926069813" lon="8.399181483463284"><ele>92.0</ele><time>2026-05-03T11:24:44Z</time></trkpt><trkpt lat="40.44116915553637" lon="8.398973184390664"><ele>92.0</ele><time>2026-05-03T11:24:45Z</time></trkpt><trkpt lat="40.441179492634106" lon="8.39874039560738"><ele>90.66666666666667</ele><time>2026-05-03T11:24:46Z</time></trkpt><trkpt lat="40.441167649284615" lon="8.398488830467802"><ele>89.33333333333333</ele><time>2026-05-03T11:24:47Z</time></trkpt><trkpt lat="40.4411370172992" lon="8.398229226533248"><ele>88.0</ele><time>2026-05-03T11:24:48Z</time></trkpt><trkpt lat="40.44109133305922" lon="8.397965989817596"><ele>91.0</ele><time>2026-05-03T11:24:49Z</time></trkpt><trkpt lat="40.44103570993282" lon="8.39769385480383"><ele>94.0</ele><time>2026-05-03T11:24:50Z</time></trkpt><trkpt lat="40.44097774743876" lon="8.397437445945233"><ele>97.0</ele><time>2026-05-03T11:24:51Z</time></trkpt><trkpt lat="40.440927023147445" lon="8.397204615230331"><ele>99.0</ele><time>2026-05-03T11:24:52Z</time></trkpt><trkpt lat="40.440899200131504" lon="8.396992059075734"><ele>101.0</ele><time>2026-05-03T11:24:53Z</time></trkpt><trkpt lat="40.44089386759854" lon="8.396787370120641"><ele>103.0</ele><time>2026-05-03T11:24:54Z</time></trkpt><trkpt lat="40.440907951706635" lon="8.396580411660874"><ele>103.0</ele><time>2026-05-03T11:24:55Z</time></trkpt><trkpt lat="40.44094140951252" lon="8.396373405266651"><ele>103.0</ele><time>2026-05-03T11:24:56Z</time></trkpt><trkpt lat="40.44099064534986" lon="8.396173783109852"><ele>103.0</ele><time>2026-05-03T11:24:57Z</time></trkpt><trkpt lat="40.44105600601314" lon="8.395995923553608"><ele>100.5</ele><time>2026-05-03T11:24:58Z</time></trkpt><trkpt lat="40.44113519446605" lon="8.395842312366181"><ele>98.0</ele><time>2026-05-03T11:24:59Z</time></trkpt><trkpt lat="40.441229912727884" lon="8.395711912648144"><ele>95.5</ele><time>2026-05-03T11:25:00Z</time></trkpt><trkpt lat="40.44134138314569" lon="8.39560571406017"><ele>93.0</ele><time>2026-05-03T11:25:01Z</time></trkpt><trkpt lat="40.44146302383887" lon="8.39552228240396"><ele>92.75</ele><time>2026-05-03T11:25:02Z</time></trkpt><trkpt lat="40.44159766429735" lon="8.395459917881947"><ele>92.5</ele><time>2026-05-03T11:25:03Z</time></trkpt><trkpt lat="40.4417371394448" lon="8.395441195443897"><ele>92.25</ele><time>2026-05-03T11:25:04Z</time></trkpt><trkpt lat="40.44189834359279" lon="8.395442982370684"><ele>92.0</ele><time>2026-05-03T11:25:05Z</time></trkpt><trkpt lat="40.44205174837546" lon="8.39545638072463"><ele>98.5</ele><time>2026-05-03T11:25:06Z</time></trkpt><trkpt lat="40.4422059674729" lon="8.395477012871318"><ele>105.0</ele><time>2026-05-03T11:25:07Z</time></trkpt><trkpt lat="40.44235805440773" lon="8.395488386576435"><ele>111.5</ele><time>2026-05-03T11:25:08Z</time></trkpt><trkpt lat="40.44249876376392" lon="8.395475326501124"><ele>118.0</ele><time>2026-05-03T11:25:09Z</time></trkpt><trkpt lat="40.44263534938201" lon="8.395429994363905"><ele>118.0</ele><time>2026-05-03T11:25:10Z</time></trkpt><trkpt lat="40.44275509302584" lon="8.395339265058935"><ele>118.0</ele><time>2026-05-03T11:25:11Z</time></trkpt><trkpt lat="40.4428584869988" lon="8.395206921901186"><ele>118.0</ele><time>2026-05-03T11:25:12Z</time></trkpt><trkpt lat="40.44294482462628" lon="8.395047528822682"><ele>118.0</ele><time>2026-05-03T11:25:13Z</time></trkpt><trkpt lat="40.44300834812292" lon="8.394865194418607"><ele>125.33333333333334</ele><time>2026-05-03T11:25:14Z</time></trkpt><trkpt lat="40.44306897795313" lon="8.394664949970098"><ele>132.66666666666666</ele><time>2026-05-03T11:25:15Z</time></trkpt><trkpt lat="40.4431380589049" lon="8.394469025056473"><ele>140.0</ele><time>2026-05-03T11:25:16Z</time></trkpt><trkpt lat="40.44323713045581" lon="8.394289713257908"><ele>140.0</ele><time>2026-05-03T11:25:17Z</time></trkpt><trkpt lat="40.443361058716604" lon="8.394127853552556"><ele>140.0</ele><time>2026-05-03T11:25:18Z</time></trkpt><trkpt lat="40.44349383640267" lon="8.393986380468226"><ele>140.0</ele><time>2026-05-03T11:25:19Z</time></trkpt><trkpt lat="40.44364810316269" lon="8.393822704332635"><ele>139.33333333333331</ele><time>2026-05-03T11:25:20Z</time></trkpt><trkpt lat="40.44380089501856" lon="8.393678169125248"><ele>138.66666666666666</ele><time>2026-05-03T11:25:21Z</time></trkpt><trkpt lat="40.44395615866719" lon="8.393557083251284"><ele>138.0</ele><time>2026-05-03T11:25:22Z</time></trkpt><trkpt lat="40.444118208637185" lon="8.393460426984841"><ele>138.0</ele><time>2026-05-03T11:25:23Z</time></trkpt><trkpt lat="40.44428860791851" lon="8.393391810918528"><ele>138.0</ele><time>2026-05-03T11:25:24Z</time></trkpt><trkpt lat="40.44446782334556" lon="8.39334511749583"><ele>138.0</ele><time>2026-05-03T11:25:25Z</time></trkpt><trkpt lat="40.4446563422962" lon="8.393306171716864"><ele>144.0</ele><time>2026-05-03T11:25:26Z</time></trkpt><trkpt lat="40.444845278214764" lon="8.393271474940638"><ele>150.0</ele><time>2026-05-03T11:25:27Z</time></trkpt><trkpt lat="40.445033382075486" lon="8.39323336997896"><ele>156.0</ele><time>2026-05-03T11:25:28Z</time></trkpt><trkpt lat="40.44520952760431" lon="8.393187761723661"><ele>156.0</ele><time>2026-05-03T11:25:29Z</time></trkpt><trkpt lat="40.445367863954374" lon="8.393120785026479"><ele>156.0</ele><time>2026-05-03T11:25:30Z</time></trkpt><trkpt lat="40.44550783257472" lon="8.393014676331516"><ele>156.0</ele><time>2026-05-03T11:25:31Z</time></trkpt><trkpt lat="40.44564544069461" lon="8.392880182565902"><ele>149.0</ele><time>2026-05-03T11:25:32Z</time></trkpt><trkpt lat="40.44579365570703" lon="8.392758551912088"><ele>142.0</ele><time>2026-05-03T11:25:33Z</time></trkpt><trkpt lat="40.445952094582914" lon="8.392676181908799"><ele>135.0</ele><time>2026-05-03T11:25:34Z</time></trkpt><trkpt lat="40.446111693764465" lon="8.39262981790016"><ele>135.0</ele><time>2026-05-03T11:25:35Z</time></trkpt><trkpt lat="40.446277706258364" lon="8.392603376260531"><ele>135.0</ele><time>2026-05-03T11:25:36Z</time></trkpt><trkpt lat="40.44643671532365" lon="8.392591924689096"><ele>135.0</ele><time>2026-05-03T11:25:37Z</time></trkpt><trkpt lat="40.446601591472" lon="8.392602335731935"><ele>138.0</ele><time>2026-05-03T11:25:38Z</time></trkpt><trkpt lat="40.44677008764137" lon="8.392620957562826"><ele>141.0</ele><time>2026-05-03T11:25:39Z</time></trkpt><trkpt lat="40.44694185160555" lon="8.392647467601163"><ele>144.0</ele><time>2026-05-03T11:25:40Z</time></trkpt><trkpt lat="40.44710896093836" lon="8.39268623500107"><ele>140.0</ele><time>2026-05-03T11:25:41Z</time></trkpt><trkpt lat="40.447269461902344" lon="8.392733170004632"><ele>136.0</ele><time>2026-05-03T11:25:42Z</time></trkpt><trkpt lat="40.44742549347313" lon="8.392779815126826"><ele>132.0</ele><time>2026-05-03T11:25:43Z</time></trkpt><trkpt lat="40.44758773588931" lon="8.39280242904283"><ele>132.0</ele><time>2026-05-03T11:25:44Z</time></trkpt><trkpt lat="40.447750809116506" lon="8.392782144506048"><ele>132.0</ele><time>2026-05-03T11:25:45Z</time></trkpt><trkpt lat="40.44791165234406" lon="8.39273835982552"><ele>132.0</ele><time>2026-05-03T11:25:46Z</time></trkpt><trkpt lat="40.448070543306265" lon="8.39271930931412"><ele>132.75</ele><time>2026-05-03T11:25:47Z</time></trkpt><trkpt lat="40.44822206171775" lon="8.392739229699801"><ele>133.5</ele><time>2026-05-03T11:25:48Z</time></trkpt><trkpt lat="40.44835921914087" lon="8.392770786918797"><ele>134.25</ele><time>2026-05-03T11:25:49Z</time></trkpt><trkpt lat="40.44848947511382" lon="8.392782551917415"><ele>135.0</ele><time>2026-05-03T11:25:49.999Z</time></trkpt><trkpt lat="40.44861063104781" lon="8.392753121341622"><ele>135.0</ele><time>2026-05-03T11:25:50.999Z</time></trkpt><trkpt lat="40.448717777532146" lon="8.39267968386781"><ele>135.0</ele><time>2026-05-03T11:25:51.999Z</time></trkpt><trkpt lat="40.448807641738874" lon="8.392559922377798"><ele>135.0</ele><time>2026-05-03T11:25:52.999Z</time></trkpt><trkpt lat="40.44888446735029" lon="8.392405151405507"><ele>135.0</ele><time>2026-05-03T11:25:53.999Z</time></trkpt><trkpt lat="40.448953527987854" lon="8.392233378146678"><ele>132.25</ele><time>2026-05-03T11:25:55Z</time></trkpt><trkpt lat="40.44901725666887" lon="8.392059302426276"><ele>129.5</ele><time>2026-05-03T11:25:56Z</time></trkpt><trkpt lat="40.4490779674064" lon="8.391893660845364"><ele>126.75</ele><time>2026-05-03T11:25:57Z</time></trkpt><trkpt lat="40.44914380311182" lon="8.391745036236895"><ele>124.0</ele><time>2026-05-03T11:25:58Z</time></trkpt><trkpt lat="40.44923183490179" lon="8.39163030789117"><ele>124.0</ele><time>2026-05-03T11:25:59Z</time></trkpt><trkpt lat="40.44933672591466" lon="8.391551238943558"><ele>124.0</ele><time>2026-05-03T11:26:00Z</time></trkpt><trkpt lat="40.449458185668014" lon="8.39147032066193"><ele>124.0</ele><time>2026-05-03T11:26:01Z</time></trkpt><trkpt lat="40.44957676583611" lon="8.391369239255848"><ele>124.0</ele><time>2026-05-03T11:26:02Z</time></trkpt><trkpt lat="40.44967990150295" lon="8.391239657642695"><ele>121.66666666666667</ele><time>2026-05-03T11:26:03Z</time></trkpt><trkpt lat="40.449791956666026" lon="8.391109574902838"><ele>119.33333333333334</ele><time>2026-05-03T11:26:04Z</time></trkpt><trkpt lat="40.4499216089975" lon="8.39100119298073"><ele>117.0</ele><time>2026-05-03T11:26:05Z</time></trkpt><trkpt lat="40.45007622518805" lon="8.390907841441829"><ele>117.0</ele><time>2026-05-03T11:26:06Z</time></trkpt><trkpt lat="40.4502342645166" lon="8.39080743342689"><ele>117.0</ele><time>2026-05-03T11:26:07Z</time></trkpt><trkpt lat="40.45038626822684" lon="8.390701605589717"><ele>117.0</ele><time>2026-05-03T11:26:08Z</time></trkpt><trkpt lat="40.45053732169462" lon="8.390595305802327"><ele>109.33333333333333</ele><time>2026-05-03T11:26:09Z</time></trkpt><trkpt lat="40.45069323024151" lon="8.390498811513769"><ele>101.66666666666666</ele><time>2026-05-03T11:26:10Z</time></trkpt><trkpt lat="40.45086093182519" lon="8.39041613501996"><ele>94.0</ele><time>2026-05-03T11:26:11Z</time></trkpt><trkpt lat="40.45103680329487" lon="8.390346599186431"><ele>94.0</ele><time>2026-05-03T11:26:12Z</time></trkpt><trkpt lat="40.45118722235599" lon="8.390274100289565"><ele>94.0</ele><time>2026-05-03T11:26:13Z</time></trkpt><trkpt lat="40.45132876006423" lon="8.390187580384017"><ele>94.0</ele><time>2026-05-03T11:26:14Z</time></trkpt><trkpt lat="40.451458888104085" lon="8.390082546644196"><ele>92.75</ele><time>2026-05-03T11:26:15Z</time></trkpt><trkpt lat="40.45157441924971" lon="8.389958099395379"><ele>91.5</ele><time>2026-05-03T11:26:16Z</time></trkpt><trkpt lat="40.451658954314546" lon="8.389807895148314"><ele>90.25</ele><time>2026-05-03T11:26:17Z</time></trkpt><trkpt lat="40.45170400094792" lon="8.389636935282082"><ele>89.0</ele><time>2026-05-03T11:26:18Z</time></trkpt><trkpt lat="40.45171913691297" lon="8.389461992218544"><ele>89.0</ele><time>2026-05-03T11:26:19Z</time></trkpt><trkpt lat="40.45173549795024" lon="8.389280847550598"><ele>89.0</ele><time>2026-05-03T11:26:20Z</time></trkpt><trkpt lat="40.451765174788555" lon="8.389110876670783"><ele>89.0</ele><time>2026-05-03T11:26:21Z</time></trkpt><trkpt lat="40.451815687982865" lon="8.388971978892709"><ele>89.0</ele><time>2026-05-03T11:26:22Z</time></trkpt><trkpt lat="40.4518803282388" lon="8.388879470368359"><ele>93.0</ele><time>2026-05-03T11:26:23Z</time></trkpt><trkpt lat="40.451965836241236" lon="8.388829697555115"><ele>97.0</ele><time>2026-05-03T11:26:24Z</time></trkpt><trkpt lat="40.45207694854294" lon="8.388838975215725"><ele>101.0</ele><time>2026-05-03T11:26:25Z</time></trkpt><trkpt lat="40.45220540468763" lon="8.388850440127449"><ele>105.0</ele><time>2026-05-03T11:26:26Z</time></trkpt><trkpt lat="40.45234142953861" lon="8.388881147195983"><ele>105.0</ele><time>2026-05-03T11:26:27Z</time></trkpt><trkpt lat="40.452477566503255" lon="8.388910491003834"><ele>105.0</ele><time>2026-05-03T11:26:28Z</time></trkpt><trkpt lat="40.452607692716775" lon="8.388927890640623"><ele>105.0</ele><time>2026-05-03T11:26:29Z</time></trkpt><trkpt lat="40.45273089129069" lon="8.388920335560977"><ele>105.0</ele><time>2026-05-03T11:26:30Z</time></trkpt><trkpt lat="40.45296882459559" lon="8.3888172201017"><ele>99.33333333333333</ele><time>2026-05-03T11:26:31Z</time></trkpt><trkpt lat="40.45312522011723" lon="8.388731960511244"><ele>93.66666666666666</ele><time>2026-05-03T11:26:32Z</time></trkpt><trkpt lat="40.453265836553655" lon="8.388636535388573"><ele>88.0</ele><time>2026-05-03T11:26:33Z</time></trkpt><trkpt lat="40.45338669057031" lon="8.38855074590068"><ele>88.0</ele><time>2026-05-03T11:26:34Z</time></trkpt><trkpt lat="40.45348839955775" lon="8.388466222180513"><ele>88.0</ele><time>2026-05-03T11:26:35Z</time></trkpt><trkpt lat="40.45356692431683" lon="8.388385068970855"><ele>88.0</ele><time>2026-05-03T11:26:36Z</time></trkpt><trkpt lat="40.45363048752822" lon="8.388298234258306"><ele>88.0</ele><time>2026-05-03T11:26:37Z</time></trkpt><trkpt lat="40.45366345851515" lon="8.388194694557086"><ele>88.0</ele><time>2026-05-03T11:26:38Z</time></trkpt><trkpt lat="40.45369734651388" lon="8.388116374000735"><ele>88.0</ele><time>2026-05-03T11:26:39Z</time></trkpt><trkpt lat="40.4537630211658" lon="8.388017516141836"><ele>88.0</ele><time>2026-05-03T11:26:41Z</time></trkpt><trkpt lat="40.45380481841653" lon="8.387954248055937"><ele>88.0</ele><time>2026-05-03T11:26:42Z</time></trkpt><trkpt lat="40.45381535091387" lon="8.387870196232912"><ele>88.0</ele><time>2026-05-03T11:26:44Z</time></trkpt><trkpt lat="40.45389697699271" lon="8.387819577605082"><ele>88.0</ele><time>2026-05-03T11:30:26.999Z</time></trkpt><trkpt lat="40.454051059869755" lon="8.387657913044594"><ele>86.0</ele><time>2026-05-03T11:30:28.999Z</time></trkpt><trkpt lat="40.454134739970876" lon="8.387601080060245"><ele>84.0</ele><time>2026-05-03T11:30:29.999Z</time></trkpt><trkpt lat="40.454227380898615" lon="8.387550941016784"><ele>82.0</ele><time>2026-05-03T11:30:30.999Z</time></trkpt><trkpt lat="40.45433343772887" lon="8.38751059255425"><ele>80.0</ele><time>2026-05-03T11:30:31.999Z</time></trkpt><trkpt lat="40.454448615506756" lon="8.38746584865208"><ele>78.0</ele><time>2026-05-03T11:30:32.999Z</time></trkpt><trkpt lat="40.45456234956645" lon="8.387419229326152"><ele>81.0</ele><time>2026-05-03T11:30:33.999Z</time></trkpt><trkpt lat="40.4546875980026" lon="8.38736851095581"><ele>84.0</ele><time>2026-05-03T11:30:34.999Z</time></trkpt><trkpt lat="40.45483159918696" lon="8.387317613513307"><ele>87.0</ele><time>2026-05-03T11:30:35.999Z</time></trkpt><trkpt lat="40.45498308044145" lon="8.387269591523836"><ele>90.0</ele><time>2026-05-03T11:30:36.999Z</time></trkpt><trkpt lat="40.455137819542074" lon="8.38722161918419"><ele>82.33333333333333</ele><time>2026-05-03T11:30:37.999Z</time></trkpt><trkpt lat="40.45529191137969" lon="8.387171440111544"><ele>74.66666666666666</ele><time>2026-05-03T11:30:38.999Z</time></trkpt><trkpt lat="40.45544701342929" lon="8.387119535282869"><ele>67.0</ele><time>2026-05-03T11:30:39.999Z</time></trkpt><trkpt lat="40.45560687994225" lon="8.387064425777513"><ele>67.0</ele><time>2026-05-03T11:30:40.999Z</time></trkpt><trkpt lat="40.455768465383514" lon="8.38700535572922"><ele>67.0</ele><time>2026-05-03T11:30:41.999Z</time></trkpt><trkpt lat="40.45593286858151" lon="8.386940659265896"><ele>67.0</ele><time>2026-05-03T11:30:42.999Z</time></trkpt><trkpt lat="40.456101027660026" lon="8.38687384568859"><ele>67.0</ele><time>2026-05-03T11:30:43.999Z</time></trkpt><trkpt lat="40.4562706689485" lon="8.386804135898075"><ele>67.0</ele><time>2026-05-03T11:30:44.999Z</time></trkpt><trkpt lat="40.45644645755375" lon="8.386731066847602"><ele>67.0</ele><time>2026-05-03T11:30:45.999Z</time></trkpt><trkpt lat="40.4566176845907" lon="8.386664493586053"><ele>68.33333333333333</ele><time>2026-05-03T11:30:46.999Z</time></trkpt><trkpt lat="40.45679441880456" lon="8.386599451658245"><ele>69.66666666666667</ele><time>2026-05-03T11:30:47.999Z</time></trkpt><trkpt lat="40.45697972844983" lon="8.386538121402358"><ele>71.0</ele><time>2026-05-03T11:30:48.999Z</time></trkpt><trkpt lat="40.45717378041267" lon="8.38649184143678"><ele>71.66666666666667</ele><time>2026-05-03T11:30:49.999Z</time></trkpt><trkpt lat="40.45736945218478" lon="8.386472514126957"><ele>72.33333333333333</ele><time>2026-05-03T11:30:50.999Z</time></trkpt><trkpt lat="40.45756572712661" lon="8.386452782712972"><ele>73.0</ele><time>2026-05-03T11:30:51.999Z</time></trkpt><trkpt lat="40.457762590900394" lon="8.386423846401392"><ele>78.0</ele><time>2026-05-03T11:30:52.999Z</time></trkpt><trkpt lat="40.45795325740759" lon="8.386380556804431"><ele>83.0</ele><time>2026-05-03T11:30:53.999Z</time></trkpt><trkpt lat="40.45813315961918" lon="8.386312139284463"><ele>88.0</ele><time>2026-05-03T11:30:54.999Z</time></trkpt><trkpt lat="40.4582932925299" lon="8.386219788897765"><ele>77.66666666666666</ele><time>2026-05-03T11:30:55.999Z</time></trkpt><trkpt lat="40.45844859954059" lon="8.386095786304898"><ele>67.33333333333333</ele><time>2026-05-03T11:30:56.999Z</time></trkpt><trkpt lat="40.45860781025295" lon="8.385964436370186"><ele>57.0</ele><time>2026-05-03T11:30:57.999Z</time></trkpt><trkpt lat="40.4587517296693" lon="8.385853146349232"><ele>61.0</ele><time>2026-05-03T11:30:58.999Z</time></trkpt><trkpt lat="40.45888689473174" lon="8.385765979133387"><ele>65.0</ele><time>2026-05-03T11:30:59.999Z</time></trkpt><trkpt lat="40.45901950444377" lon="8.38571469591177"><ele>69.0</ele><time>2026-05-03T11:31:00.999Z</time></trkpt><trkpt lat="40.45915755603614" lon="8.385695218664031"><ele>73.0</ele><time>2026-05-03T11:31:01.999Z</time></trkpt><trkpt lat="40.45930510085826" lon="8.385702388565546"><ele>73.0</ele><time>2026-05-03T11:31:02.999Z</time></trkpt><trkpt lat="40.45946356996981" lon="8.385726227909093"><ele>73.0</ele><time>2026-05-03T11:31:03.999Z</time></trkpt><trkpt lat="40.45963044809482" lon="8.38576041179779"><ele>73.0</ele><time>2026-05-03T11:31:04.999Z</time></trkpt><trkpt lat="40.459794309747934" lon="8.385793764369474"><ele>72.25</ele><time>2026-05-03T11:31:05.999Z</time></trkpt><trkpt lat="40.45994264606137" lon="8.385832296833524"><ele>71.5</ele><time>2026-05-03T11:31:06.999Z</time></trkpt><trkpt lat="40.460072032872" lon="8.385900657123596"><ele>70.75</ele><time>2026-05-03T11:31:07.999Z</time></trkpt><trkpt lat="40.460186698173274" lon="8.386013195838279"><ele>70.0</ele><time>2026-05-03T11:31:08.999Z</time></trkpt><trkpt lat="40.46029226307921" lon="8.386125939856873"><ele>70.0</ele><time>2026-05-03T11:31:09.999Z</time></trkpt><trkpt lat="40.460405986848635" lon="8.38621095439042"><ele>70.0</ele><time>2026-05-03T11:31:10.999Z</time></trkpt><trkpt lat="40.46052593403587" lon="8.386267460839624"><ele>70.0</ele><time>2026-05-03T11:31:11.999Z</time></trkpt><trkpt lat="40.46065308318932" lon="8.38627498022752"><ele>70.0</ele><time>2026-05-03T11:31:12.999Z</time></trkpt><trkpt lat="40.460785609265976" lon="8.386233639516892"><ele>68.25</ele><time>2026-05-03T11:31:13.999Z</time></trkpt><trkpt lat="40.46090848166639" lon="8.386137926143533"><ele>66.5</ele><time>2026-05-03T11:31:14.999Z</time></trkpt><trkpt lat="40.46103339179807" lon="8.386011804797377"><ele>64.75</ele><time>2026-05-03T11:31:15.999Z</time></trkpt><trkpt lat="40.46115737322358" lon="8.3859035806661"><ele>63.0</ele><time>2026-05-03T11:31:16.999Z</time></trkpt><trkpt lat="40.46129370684507" lon="8.385830961559982"><ele>63.0</ele><time>2026-05-03T11:31:17.999Z</time></trkpt><trkpt lat="40.46143550750095" lon="8.385802531058353"><ele>63.0</ele><time>2026-05-03T11:31:18.999Z</time></trkpt><trkpt lat="40.461594252759234" lon="8.385804423108947"><ele>63.0</ele><time>2026-05-03T11:31:19.999Z</time></trkpt><trkpt lat="40.461768131167446" lon="8.385818545720623"><ele>63.0</ele><time>2026-05-03T11:31:20.999Z</time></trkpt><trkpt lat="40.4619412792651" lon="8.385823300570639"><ele>63.0</ele><time>2026-05-03T11:31:21.999Z</time></trkpt><trkpt lat="40.46213479711449" lon="8.385822162974126"><ele>63.0</ele><time>2026-05-03T11:31:22.999Z</time></trkpt><trkpt lat="40.46233091157331" lon="8.385825839100447"><ele>64.33333333333333</ele><time>2026-05-03T11:31:23.999Z</time></trkpt><trkpt lat="40.46253152131523" lon="8.38582789024121"><ele>65.66666666666666</ele><time>2026-05-03T11:31:24.999Z</time></trkpt><trkpt lat="40.46273829556077" lon="8.38582821780073"><ele>67.0</ele><time>2026-05-03T11:31:25.999Z</time></trkpt><trkpt lat="40.46294822904267" lon="8.385815264109961"><ele>67.0</ele><time>2026-05-03T11:31:26.999Z</time></trkpt><trkpt lat="40.46316191677263" lon="8.38578398151824"><ele>67.0</ele><time>2026-05-03T11:31:27.999Z</time></trkpt><trkpt lat="40.463376618835014" lon="8.385736583864107"><ele>67.0</ele><time>2026-05-03T11:31:28.999Z</time></trkpt><trkpt lat="40.46359397285136" lon="8.385682456226979"><ele>68.33333333333333</ele><time>2026-05-03T11:31:29.999Z</time></trkpt><trkpt lat="40.46381009355797" lon="8.385628676279529"><ele>69.66666666666667</ele><time>2026-05-03T11:31:30.999Z</time></trkpt><trkpt lat="40.46402621151874" lon="8.385580429836931"><ele>71.0</ele><time>2026-05-03T11:31:31.999Z</time></trkpt><trkpt lat="40.46424343175306" lon="8.385533558158462"><ele>64.66666666666667</ele><time>2026-05-03T11:31:32.999Z</time></trkpt><trkpt lat="40.46446027723534" lon="8.385481977889672"><ele>58.33333333333333</ele><time>2026-05-03T11:31:33.999Z</time></trkpt><trkpt lat="40.46467317651453" lon="8.385427198377489"><ele>52.0</ele><time>2026-05-03T11:31:34.999Z</time></trkpt><trkpt lat="40.46488153697059" lon="8.385364206794854"><ele>52.0</ele><time>2026-05-03T11:31:35.999Z</time></trkpt><trkpt lat="40.46508385401095" lon="8.385295398051166"><ele>52.0</ele><time>2026-05-03T11:31:36.999Z</time></trkpt><trkpt lat="40.46527867187993" lon="8.385218646820896"><ele>52.0</ele><time>2026-05-03T11:31:37.999Z</time></trkpt><trkpt lat="40.465461115357485" lon="8.385138028999892"><ele>54.0</ele><time>2026-05-03T11:31:38.999Z</time></trkpt><trkpt lat="40.4656418875483" lon="8.385043011433913"><ele>56.0</ele><time>2026-05-03T11:31:39.999Z</time></trkpt><trkpt lat="40.465814598735406" lon="8.384936762120871"><ele>58.0</ele><time>2026-05-03T11:31:40.999Z</time></trkpt><trkpt lat="40.46598015834037" lon="8.38480900196026"><ele>57.0</ele><time>2026-05-03T11:31:41.999Z</time></trkpt><trkpt lat="40.466137256481474" lon="8.384652364815322"><ele>56.0</ele><time>2026-05-03T11:31:42.999Z</time></trkpt><trkpt lat="40.46628540544327" lon="8.384462808284374"><ele>55.0</ele><time>2026-05-03T11:31:43.999Z</time></trkpt><trkpt lat="40.46643484009764" lon="8.384240728932491"><ele>55.0</ele><time>2026-05-03T11:31:44.999Z</time></trkpt><trkpt lat="40.46657848715457" lon="8.384016057350612"><ele>55.0</ele><time>2026-05-03T11:31:45.999Z</time></trkpt><trkpt lat="40.46671688817547" lon="8.38380128743202"><ele>55.0</ele><time>2026-05-03T11:31:46.999Z</time></trkpt><trkpt lat="40.46684660434431" lon="8.383599545490073"><ele>55.0</ele><time>2026-05-03T11:31:47.999Z</time></trkpt><trkpt lat="40.46699956961466" lon="8.383406535345717"><ele>55.0</ele><time>2026-05-03T11:31:48.999Z</time></trkpt><trkpt lat="40.46716506013722" lon="8.383221794273389"><ele>55.0</ele><time>2026-05-03T11:31:49.999Z</time></trkpt><trkpt lat="40.46733772613393" lon="8.383047863229125"><ele>49.666666666666664</ele><time>2026-05-03T11:31:50.999Z</time></trkpt><trkpt lat="40.46750720136692" lon="8.382880486258385"><ele>44.33333333333333</ele><time>2026-05-03T11:31:51.999Z</time></trkpt><trkpt lat="40.46767100214594" lon="8.382714351121056"><ele>39.0</ele><time>2026-05-03T11:31:52.999Z</time></trkpt><trkpt lat="40.46782016590698" lon="8.382540066337247"><ele>40.0</ele><time>2026-05-03T11:31:53.999Z</time></trkpt><trkpt lat="40.46795585146568" lon="8.382332467646453"><ele>41.0</ele><time>2026-05-03T11:31:54.999Z</time></trkpt><trkpt lat="40.46807437253179" lon="8.382108843885742"><ele>42.0</ele><time>2026-05-03T11:31:55.999Z</time></trkpt><trkpt lat="40.468173274643846" lon="8.381872181336046"><ele>42.0</ele><time>2026-05-03T11:31:56.999Z</time></trkpt><trkpt lat="40.46827410886352" lon="8.381638923233128"><ele>42.0</ele><time>2026-05-03T11:31:57.999Z</time></trkpt><trkpt lat="40.46838917065726" lon="8.38142233916329"><ele>42.0</ele><time>2026-05-03T11:31:58.999Z</time></trkpt><trkpt lat="40.46851518870193" lon="8.381233001393412"><ele>39.333333333333336</ele><time>2026-05-03T11:31:59.999Z</time></trkpt><trkpt lat="40.468654042271126" lon="8.381087209542581"><ele>36.66666666666667</ele><time>2026-05-03T11:32:00.999Z</time></trkpt><trkpt lat="40.468805411530994" lon="8.38098950771718"><ele>34.0</ele><time>2026-05-03T11:32:01.999Z</time></trkpt><trkpt lat="40.4689654691919" lon="8.380902224615749"><ele>34.0</ele><time>2026-05-03T11:32:02.999Z</time></trkpt><trkpt lat="40.46912085995467" lon="8.380847100487296"><ele>34.0</ele><time>2026-05-03T11:32:03.999Z</time></trkpt><trkpt lat="40.469254001318305" lon="8.380813568153698"><ele>34.0</ele><time>2026-05-03T11:32:04.999Z</time></trkpt><trkpt lat="40.469372652813306" lon="8.380822791282013"><ele>34.0</ele><time>2026-05-03T11:32:05.999Z</time></trkpt><trkpt lat="40.46948060447928" lon="8.380859986653638"><ele>34.0</ele><time>2026-05-03T11:32:06.999Z</time></trkpt><trkpt lat="40.469598164674004" lon="8.380925038170052"><ele>34.0</ele><time>2026-05-03T11:32:07.999Z</time></trkpt><trkpt lat="40.46970397913792" lon="8.38100376686502"><ele>34.0</ele><time>2026-05-03T11:32:08.999Z</time></trkpt><trkpt lat="40.469785411211674" lon="8.381099367646822"><ele>34.0</ele><time>2026-05-03T11:32:09.999Z</time></trkpt><trkpt lat="40.469864801447464" lon="8.381198642235212"><ele>33.75</ele><time>2026-05-03T11:32:10.999Z</time></trkpt><trkpt lat="40.46994355645987" lon="8.38129307410159"><ele>33.5</ele><time>2026-05-03T11:32:11.999Z</time></trkpt><trkpt lat="40.4699519592442" lon="8.38152324812502"><ele>33.25</ele><time>2026-05-03T11:32:12.999Z</time></trkpt><trkpt lat="40.47001632611811" lon="8.381664065934036"><ele>33.0</ele><time>2026-05-03T11:32:13.999Z</time></trkpt><trkpt lat="40.470108296518134" lon="8.381773627607316"><ele>38.25</ele><time>2026-05-03T11:32:14.999Z</time></trkpt><trkpt lat="40.47020549609292" lon="8.381841776807821"><ele>43.5</ele><time>2026-05-03T11:32:15.999Z</time></trkpt><trkpt lat="40.47030911168849" lon="8.381851694491525"><ele>48.75</ele><time>2026-05-03T11:32:16.999Z</time></trkpt><trkpt lat="40.47042187594909" lon="8.381832190732126"><ele>54.0</ele><time>2026-05-03T11:32:17.999Z</time></trkpt><trkpt lat="40.470543232574585" lon="8.38178851222692"><ele>54.25</ele><time>2026-05-03T11:32:18.999Z</time></trkpt><trkpt lat="40.470674563420296" lon="8.381725068318625"><ele>54.5</ele><time>2026-05-03T11:32:19.999Z</time></trkpt><trkpt lat="40.47080614847246" lon="8.381635514082193"><ele>54.75</ele><time>2026-05-03T11:32:20.999Z</time></trkpt><trkpt lat="40.47093875944424" lon="8.381520734955137"><ele>55.0</ele><time>2026-05-03T11:32:21.999Z</time></trkpt><trkpt lat="40.47108165567508" lon="8.381420826241257"><ele>55.0</ele><time>2026-05-03T11:32:22.999Z</time></trkpt><trkpt lat="40.471237487098165" lon="8.381361637155587"><ele>55.0</ele><time>2026-05-03T11:32:23.999Z</time></trkpt><trkpt lat="40.471405971901355" lon="8.381321263023716"><ele>55.0</ele><time>2026-05-03T11:32:24.999Z</time></trkpt><trkpt lat="40.47157067876838" lon="8.381291996446176"><ele>47.33333333333333</ele><time>2026-05-03T11:32:25.999Z</time></trkpt><trkpt lat="40.471741830616885" lon="8.381260013224072"><ele>39.666666666666664</ele><time>2026-05-03T11:32:26.999Z</time></trkpt><trkpt lat="40.4719170032053" lon="8.381233650492588"><ele>32.0</ele><time>2026-05-03T11:32:27.999Z</time></trkpt><trkpt lat="40.47209713299868" lon="8.381204335335878"><ele>34.33333333333333</ele><time>2026-05-03T11:32:28.999Z</time></trkpt><trkpt lat="40.47228128463688" lon="8.381170185323002"><ele>36.666666666666664</ele><time>2026-05-03T11:32:29.999Z</time></trkpt><trkpt lat="40.472468331057726" lon="8.381133876083746"><ele>39.0</ele><time>2026-05-03T11:32:30.999Z</time></trkpt><trkpt lat="40.472652905352916" lon="8.381097644691401"><ele>39.0</ele><time>2026-05-03T11:32:31.999Z</time></trkpt><trkpt lat="40.47283085448948" lon="8.38106536818308"><ele>39.0</ele><time>2026-05-03T11:32:32.999Z</time></trkpt><trkpt lat="40.47301226839551" lon="8.381048086115047"><ele>39.0</ele><time>2026-05-03T11:32:33.999Z</time></trkpt><trkpt lat="40.473191353525806" lon="8.381072208037777"><ele>40.0</ele><time>2026-05-03T11:32:34.999Z</time></trkpt><trkpt lat="40.4733714344689" lon="8.381124392965683"><ele>41.0</ele><time>2026-05-03T11:32:35.999Z</time></trkpt><trkpt lat="40.473544578941095" lon="8.381165021580875"><ele>42.0</ele><time>2026-05-03T11:32:36.999Z</time></trkpt><trkpt lat="40.4737174323071" lon="8.38118053117693"><ele>43.666666666666664</ele><time>2026-05-03T11:32:38Z</time></trkpt><trkpt lat="40.47389925972648" lon="8.38117196576596"><ele>45.33333333333333</ele><time>2026-05-03T11:32:39Z</time></trkpt><trkpt lat="40.474086268064674" lon="8.381139728756807"><ele>47.0</ele><time>2026-05-03T11:32:40Z</time></trkpt><trkpt lat="40.47427786158043" lon="8.381087633862574"><ele>47.0</ele><time>2026-05-03T11:32:41Z</time></trkpt><trkpt lat="40.47447468991146" lon="8.381029573229862"><ele>47.0</ele><time>2026-05-03T11:32:42Z</time></trkpt><trkpt lat="40.47466563569245" lon="8.380977374633233"><ele>47.0</ele><time>2026-05-03T11:32:43Z</time></trkpt><trkpt lat="40.474855083740856" lon="8.38092166122041"><ele>48.33333333333333</ele><time>2026-05-03T11:32:44Z</time></trkpt><trkpt lat="40.475036366063435" lon="8.380845605869226"><ele>49.666666666666664</ele><time>2026-05-03T11:32:45Z</time></trkpt><trkpt lat="40.47521036084576" lon="8.380741379751484"><ele>51.0</ele><time>2026-05-03T11:32:46Z</time></trkpt><trkpt lat="40.47537282066075" lon="8.380611090154513"><ele>48.666666666666664</ele><time>2026-05-03T11:32:47Z</time></trkpt><trkpt lat="40.47552498458834" lon="8.380477255799514"><ele>46.33333333333333</ele><time>2026-05-03T11:32:48Z</time></trkpt><trkpt lat="40.47566761023501" lon="8.380350752198922"><ele>44.0</ele><time>2026-05-03T11:32:49Z</time></trkpt><trkpt lat="40.475812275676965" lon="8.380231914478307"><ele>44.0</ele><time>2026-05-03T11:32:50Z</time></trkpt><trkpt lat="40.475967803814974" lon="8.38013508812259"><ele>44.0</ele><time>2026-05-03T11:32:51Z</time></trkpt><trkpt lat="40.47613326052557" lon="8.380066638181495"><ele>44.0</ele><time>2026-05-03T11:32:52Z</time></trkpt><trkpt lat="40.4763095895614" lon="8.380022866147048"><ele>46.0</ele><time>2026-05-03T11:32:53Z</time></trkpt><trkpt lat="40.476492429149" lon="8.380000779222403"><ele>48.0</ele><time>2026-05-03T11:32:54Z</time></trkpt><trkpt lat="40.47667322519635" lon="8.379978014185099"><ele>50.0</ele><time>2026-05-03T11:32:55Z</time></trkpt><trkpt lat="40.47685268286785" lon="8.379947485329417"><ele>50.0</ele><time>2026-05-03T11:32:56Z</time></trkpt><trkpt lat="40.47703448470999" lon="8.379902874460205"><ele>50.0</ele><time>2026-05-03T11:32:57Z</time></trkpt><trkpt lat="40.47719465121588" lon="8.379806573308395"><ele>50.0</ele><time>2026-05-03T11:32:58Z</time></trkpt><trkpt lat="40.477350977067374" lon="8.379664782607954"><ele>49.333333333333336</ele><time>2026-05-03T11:32:59Z</time></trkpt><trkpt lat="40.47749280730333" lon="8.379497214057624"><ele>48.66666666666667</ele><time>2026-05-03T11:33:00Z</time></trkpt><trkpt lat="40.477644612685964" lon="8.379321712901154"><ele>48.0</ele><time>2026-05-03T11:33:01Z</time></trkpt><trkpt lat="40.47779662166623" lon="8.379156089879636"><ele>46.0</ele><time>2026-05-03T11:33:02Z</time></trkpt><trkpt lat="40.477940574747315" lon="8.378994967459459"><ele>44.0</ele><time>2026-05-03T11:33:03Z</time></trkpt><trkpt lat="40.478084789894865" lon="8.378831309877254"><ele>42.0</ele><time>2026-05-03T11:33:04Z</time></trkpt><trkpt lat="40.47822256721159" lon="8.378667343876538"><ele>42.0</ele><time>2026-05-03T11:33:05Z</time></trkpt><trkpt lat="40.47835643428077" lon="8.378521377202365"><ele>42.0</ele><time>2026-05-03T11:33:06Z</time></trkpt><trkpt lat="40.47848925456963" lon="8.378400428474366"><ele>42.0</ele><time>2026-05-03T11:33:07Z</time></trkpt><trkpt lat="40.47864779560782" lon="8.37828463963627"><ele>45.0</ele><time>2026-05-03T11:33:08Z</time></trkpt><trkpt lat="40.47882187539711" lon="8.378185635064867"><ele>48.0</ele><time>2026-05-03T11:33:09Z</time></trkpt><trkpt lat="40.47900363470841" lon="8.378107592789881"><ele>51.0</ele><time>2026-05-03T11:33:10Z</time></trkpt><trkpt lat="40.4791973086938" lon="8.378033755248532"><ele>44.333333333333336</ele><time>2026-05-03T11:33:11Z</time></trkpt><trkpt lat="40.47939350715423" lon="8.377961518763676"><ele>37.66666666666667</ele><time>2026-05-03T11:33:12Z</time></trkpt><trkpt lat="40.479586891728545" lon="8.377897577114423"><ele>31.0</ele><time>2026-05-03T11:33:13Z</time></trkpt><trkpt lat="40.479780648091946" lon="8.377837422915439"><ele>31.0</ele><time>2026-05-03T11:33:14Z</time></trkpt><trkpt lat="40.47998013786792" lon="8.377784475147877"><ele>31.0</ele><time>2026-05-03T11:33:15Z</time></trkpt><trkpt lat="40.480179484527106" lon="8.37773675260886"><ele>31.0</ele><time>2026-05-03T11:33:16Z</time></trkpt><trkpt lat="40.48038320252909" lon="8.377702641433467"><ele>30.0</ele><time>2026-05-03T11:33:17Z</time></trkpt><trkpt lat="40.48059043069179" lon="8.37769227921937"><ele>29.0</ele><time>2026-05-03T11:33:18Z</time></trkpt><trkpt lat="40.48080360835867" lon="8.377708901224628"><ele>28.0</ele><time>2026-05-03T11:33:19Z</time></trkpt><trkpt lat="40.481023226618" lon="8.377740254983262"><ele>28.0</ele><time>2026-05-03T11:33:20Z</time></trkpt><trkpt lat="40.48124602848351" lon="8.377772080566736"><ele>28.0</ele><time>2026-05-03T11:33:21Z</time></trkpt><trkpt lat="40.48147022969637" lon="8.377804537331176"><ele>28.666666666666668</ele><time>2026-05-03T11:33:22Z</time></trkpt><trkpt lat="40.481687906583076" lon="8.37783574871719"><ele>29.333333333333336</ele><time>2026-05-03T11:33:23Z</time></trkpt><trkpt lat="40.481900575211995" lon="8.377873823978062"><ele>30.0</ele><time>2026-05-03T11:33:24Z</time></trkpt><trkpt lat="40.48210734225108" lon="8.377911126585456"><ele>31.333333333333336</ele><time>2026-05-03T11:33:25Z</time></trkpt><trkpt lat="40.48230952734136" lon="8.377941433022704"><ele>32.66666666666667</ele><time>2026-05-03T11:33:26Z</time></trkpt><trkpt lat="40.48250832265448" lon="8.377954934082652"><ele>34.0</ele><time>2026-05-03T11:33:27Z</time></trkpt><trkpt lat="40.48270990315417" lon="8.377945545518752"><ele>34.0</ele><time>2026-05-03T11:33:28Z</time></trkpt><trkpt lat="40.48291316001413" lon="8.37791212263037"><ele>34.0</ele><time>2026-05-03T11:33:29Z</time></trkpt><trkpt lat="40.48311837666038" lon="8.377850954423494"><ele>34.0</ele><time>2026-05-03T11:33:30Z</time></trkpt><trkpt lat="40.48332185513344" lon="8.377755251705905"><ele>34.66666666666667</ele><time>2026-05-03T11:33:31Z</time></trkpt><trkpt lat="40.483528696709534" lon="8.37763816077786"><ele>35.333333333333336</ele><time>2026-05-03T11:33:32Z</time></trkpt><trkpt lat="40.48371852351962" lon="8.377514158231278"><ele>36.0</ele><time>2026-05-03T11:33:33Z</time></trkpt><trkpt lat="40.48389836578711" lon="8.377398442674714"><ele>36.0</ele><time>2026-05-03T11:33:34Z</time></trkpt><trkpt lat="40.48407156797397" lon="8.377302894144277"><ele>36.0</ele><time>2026-05-03T11:33:35Z</time></trkpt><trkpt lat="40.484239725130536" lon="8.377237633796558"><ele>36.0</ele><time>2026-05-03T11:33:36Z</time></trkpt><trkpt lat="40.48440898390552" lon="8.377209132020692"><ele>36.0</ele><time>2026-05-03T11:33:37Z</time></trkpt><trkpt lat="40.48458094254273" lon="8.377220075116142"><ele>36.0</ele><time>2026-05-03T11:33:38Z</time></trkpt><trkpt lat="40.48475428870465" lon="8.377271499522239"><ele>36.0</ele><time>2026-05-03T11:33:39Z</time></trkpt><trkpt lat="40.48492540345172" lon="8.377353252680996"><ele>36.333333333333336</ele><time>2026-05-03T11:33:40Z</time></trkpt><trkpt lat="40.48507407298471" lon="8.37747268951469"><ele>36.66666666666667</ele><time>2026-05-03T11:33:41Z</time></trkpt><trkpt lat="40.48521934561833" lon="8.377625822595304"><ele>37.0</ele><time>2026-05-03T11:33:42Z</time></trkpt><trkpt lat="40.48532538796841" lon="8.37783853053866"><ele>38.0</ele><time>2026-05-03T11:33:43Z</time></trkpt><trkpt lat="40.4854124552999" lon="8.378046570288053"><ele>39.0</ele><time>2026-05-03T11:33:44Z</time></trkpt><trkpt lat="40.48551492153932" lon="8.378231784202882"><ele>40.0</ele><time>2026-05-03T11:33:45Z</time></trkpt><trkpt lat="40.485642928241795" lon="8.378384903947461"><ele>40.0</ele><time>2026-05-03T11:33:46Z</time></trkpt><trkpt lat="40.48580203208041" lon="8.378480161459775"><ele>40.0</ele><time>2026-05-03T11:33:47Z</time></trkpt><trkpt lat="40.48597800053139" lon="8.378495288031397"><ele>40.0</ele><time>2026-05-03T11:33:48Z</time></trkpt><trkpt lat="40.48613408855237" lon="8.378483152321817"><ele>39.5</ele><time>2026-05-03T11:33:49Z</time></trkpt><trkpt lat="40.48629356287308" lon="8.378419825618998"><ele>39.0</ele><time>2026-05-03T11:33:50Z</time></trkpt><trkpt lat="40.48642418728258" lon="8.378330034683062"><ele>38.5</ele><time>2026-05-03T11:33:51Z</time></trkpt><trkpt lat="40.4865455814492" lon="8.378263975700127"><ele>38.0</ele><time>2026-05-03T11:33:52Z</time></trkpt><trkpt lat="40.48672878894271" lon="8.37814476822384"><ele>38.0</ele><time>2026-05-03T11:33:53Z</time></trkpt><trkpt lat="40.486908048374794" lon="8.378020360737695"><ele>38.0</ele><time>2026-05-03T11:33:54Z</time></trkpt><trkpt lat="40.486840599473666" lon="8.378116107029609"><ele>38.0</ele><time>2026-05-03T11:33:55Z</time></trkpt><trkpt lat="40.48693895195501" lon="8.377962908662886"><ele>35.33333333333333</ele><time>2026-05-03T11:33:56Z</time></trkpt><trkpt lat="40.487011243537225" lon="8.377772665913998"><ele>32.666666666666664</ele><time>2026-05-03T11:33:57Z</time></trkpt><trkpt lat="40.48704779146498" lon="8.37754952135138"><ele>30.0</ele><time>2026-05-03T11:33:58Z</time></trkpt><trkpt lat="40.487076741604405" lon="8.37730333579617"><ele>31.666666666666664</ele><time>2026-05-03T11:33:59Z</time></trkpt><trkpt lat="40.487137006736695" lon="8.377061542382819"><ele>33.33333333333333</ele><time>2026-05-03T11:34:00Z</time></trkpt><trkpt lat="40.48724970909047" lon="8.37682884151895"><ele>35.0</ele><time>2026-05-03T11:34:01Z</time></trkpt><trkpt lat="40.487363904239125" lon="8.376678628616418"><ele>35.0</ele><time>2026-05-03T11:34:02Z</time></trkpt><trkpt lat="40.4874941394653" lon="8.37653723599932"><ele>35.0</ele><time>2026-05-03T11:34:03Z</time></trkpt><trkpt lat="40.487642077855014" lon="8.376413439950193"><ele>35.0</ele><time>2026-05-03T11:34:04Z</time></trkpt><trkpt lat="40.48779568186545" lon="8.376275086868807"><ele>32.666666666666664</ele><time>2026-05-03T11:34:05Z</time></trkpt><trkpt lat="40.48796034474065" lon="8.376160603706639"><ele>30.333333333333336</ele><time>2026-05-03T11:34:06Z</time></trkpt><trkpt lat="40.48812490563226" lon="8.376034808725887"><ele>28.0</ele><time>2026-05-03T11:34:07Z</time></trkpt><trkpt lat="40.48827658861299" lon="8.37592413064978"><ele>28.0</ele><time>2026-05-03T11:34:08Z</time></trkpt><trkpt lat="40.48842191828388" lon="8.375860716274325"><ele>28.0</ele><time>2026-05-03T11:34:09Z</time></trkpt><trkpt lat="40.488573535247966" lon="8.375881156117373"><ele>28.0</ele><time>2026-05-03T11:34:10Z</time></trkpt><trkpt lat="40.4887231049033" lon="8.375916744882788"><ele>28.5</ele><time>2026-05-03T11:34:11Z</time></trkpt><trkpt lat="40.4888559813966" lon="8.375996385022667"><ele>29.0</ele><time>2026-05-03T11:34:12Z</time></trkpt><trkpt lat="40.488978056554906" lon="8.376122374332063"><ele>29.5</ele><time>2026-05-03T11:34:13Z</time></trkpt><trkpt lat="40.48905959747548" lon="8.376282809552118"><ele>30.0</ele><time>2026-05-03T11:34:14Z</time></trkpt><trkpt lat="40.48911465655089" lon="8.37646409291529"><ele>32.333333333333336</ele><time>2026-05-03T11:34:15Z</time></trkpt><trkpt lat="40.489154766103916" lon="8.37666796413826"><ele>34.66666666666667</ele><time>2026-05-03T11:34:16Z</time></trkpt><trkpt lat="40.48918597630793" lon="8.376875693661537"><ele>37.0</ele><time>2026-05-03T11:34:17Z</time></trkpt><trkpt lat="40.489219244601294" lon="8.377109697036115"><ele>40.0</ele><time>2026-05-03T11:34:18Z</time></trkpt><trkpt lat="40.48925005913502" lon="8.37732946605805"><ele>43.0</ele><time>2026-05-03T11:34:19Z</time></trkpt><trkpt lat="40.48931256293688" lon="8.377559246005836"><ele>46.0</ele><time>2026-05-03T11:34:20Z</time></trkpt><trkpt lat="40.489353945939676" lon="8.37776939477763"><ele>46.0</ele><time>2026-05-03T11:34:21Z</time></trkpt><trkpt lat="40.489437927555514" lon="8.377914473687323"><ele>46.0</ele><time>2026-05-03T11:34:22Z</time></trkpt><trkpt lat="40.48953889772418" lon="8.378064172100713"><ele>46.0</ele><time>2026-05-03T11:34:23Z</time></trkpt><trkpt lat="40.48965207313878" lon="8.37820600395331"><ele>46.0</ele><time>2026-05-03T11:34:24Z</time></trkpt><trkpt lat="40.48975979071741" lon="8.378325260481917"><ele>47.5</ele><time>2026-05-03T11:34:25Z</time></trkpt><trkpt lat="40.48987592401352" lon="8.37843981883856"><ele>49.0</ele><time>2026-05-03T11:34:26Z</time></trkpt><trkpt lat="40.49000271118003" lon="8.378523184700496"><ele>50.5</ele><time>2026-05-03T11:34:27Z</time></trkpt><trkpt lat="40.49013730823323" lon="8.37856059246557"><ele>52.0</ele><time>2026-05-03T11:34:28Z</time></trkpt><trkpt lat="40.49028219781511" lon="8.378555429381194"><ele>52.0</ele><time>2026-05-03T11:34:29Z</time></trkpt><trkpt lat="40.4904183285969" lon="8.378507001382864"><ele>52.0</ele><time>2026-05-03T11:34:30Z</time></trkpt><trkpt lat="40.490551342961695" lon="8.378414381366293"><ele>52.0</ele><time>2026-05-03T11:34:31Z</time></trkpt><trkpt lat="40.49066531130913" lon="8.378295651096227"><ele>52.0</ele><time>2026-05-03T11:34:32Z</time></trkpt><trkpt lat="40.4907585019161" lon="8.378136439816137"><ele>53.5</ele><time>2026-05-03T11:34:33Z</time></trkpt><trkpt lat="40.490821930066836" lon="8.377972963096308"><ele>55.0</ele><time>2026-05-03T11:34:34Z</time></trkpt><trkpt lat="40.49083844558125" lon="8.377802800965991"><ele>56.5</ele><time>2026-05-03T11:34:35Z</time></trkpt><trkpt lat="40.490833749848925" lon="8.377622831102467"><ele>58.0</ele><time>2026-05-03T11:34:36Z</time></trkpt><trkpt lat="40.49078871182004" lon="8.377438311273984"><ele>58.0</ele><time>2026-05-03T11:34:37Z</time></trkpt><trkpt lat="40.49072312242368" lon="8.377258844229075"><ele>58.0</ele><time>2026-05-03T11:34:38Z</time></trkpt><trkpt lat="40.49064148770158" lon="8.37708088258193"><ele>58.0</ele><time>2026-05-03T11:34:39Z</time></trkpt><trkpt lat="40.490553771369356" lon="8.376896997002287"><ele>59.0</ele><time>2026-05-03T11:34:40Z</time></trkpt><trkpt lat="40.490484768333495" lon="8.376712527868625"><ele>60.0</ele><time>2026-05-03T11:34:41Z</time></trkpt><trkpt lat="40.49039689357648" lon="8.376538684132175"><ele>61.0</ele><time>2026-05-03T11:34:42Z</time></trkpt><trkpt lat="40.49034538914728" lon="8.37635942939023"><ele>57.0</ele><time>2026-05-03T11:34:43Z</time></trkpt><trkpt lat="40.490320221624366" lon="8.376184605343857"><ele>53.0</ele><time>2026-05-03T11:34:44Z</time></trkpt><trkpt lat="40.49031982519698" lon="8.376013198928257"><ele>49.0</ele><time>2026-05-03T11:34:45Z</time></trkpt><trkpt lat="40.490353888667435" lon="8.37583155831985"><ele>45.0</ele><time>2026-05-03T11:34:46Z</time></trkpt><trkpt lat="40.4904151117324" lon="8.375670101632972"><ele>44.25</ele><time>2026-05-03T11:34:47Z</time></trkpt><trkpt lat="40.49050298865745" lon="8.375510567168464"><ele>43.5</ele><time>2026-05-03T11:34:48Z</time></trkpt><trkpt lat="40.490605826399396" lon="8.375380543718459"><ele>42.75</ele><time>2026-05-03T11:34:49Z</time></trkpt><trkpt lat="40.49072905896031" lon="8.37526020804237"><ele>42.0</ele><time>2026-05-03T11:34:50Z</time></trkpt><trkpt lat="40.490858409014805" lon="8.375161988831639"><ele>42.0</ele><time>2026-05-03T11:34:51Z</time></trkpt><trkpt lat="40.491012819876424" lon="8.37503157727938"><ele>42.0</ele><time>2026-05-03T11:34:52Z</time></trkpt><trkpt lat="40.491157323262314" lon="8.374908150382597"><ele>42.0</ele><time>2026-05-03T11:34:53Z</time></trkpt><trkpt lat="40.49130532854513" lon="8.374788198357997"><ele>38.666666666666664</ele><time>2026-05-03T11:34:54Z</time></trkpt><trkpt lat="40.491453056263204" lon="8.374668111245063"><ele>35.33333333333333</ele><time>2026-05-03T11:34:55Z</time></trkpt><trkpt lat="40.49159723217683" lon="8.374544381670686"><ele>32.0</ele><time>2026-05-03T11:34:56Z</time></trkpt><trkpt lat="40.491741423746895" lon="8.374420008998591"><ele>32.0</ele><time>2026-05-03T11:34:57Z</time></trkpt><trkpt lat="40.49188004999219" lon="8.374300963988231"><ele>32.0</ele><time>2026-05-03T11:34:58Z</time></trkpt><trkpt lat="40.49202178466176" lon="8.374199017383827"><ele>32.0</ele><time>2026-05-03T11:34:59Z</time></trkpt><trkpt lat="40.492170910765566" lon="8.37412367124198"><ele>34.33333333333333</ele><time>2026-05-03T11:35:00Z</time></trkpt><trkpt lat="40.4923318974874" lon="8.374075833041168"><ele>36.666666666666664</ele><time>2026-05-03T11:35:01Z</time></trkpt><trkpt lat="40.49250604696957" lon="8.374036861328179"><ele>39.0</ele><time>2026-05-03T11:35:02Z</time></trkpt><trkpt lat="40.492677673976914" lon="8.374004713118357"><ele>39.0</ele><time>2026-05-03T11:35:03Z</time></trkpt><trkpt lat="40.4928398600405" lon="8.373969698922487"><ele>39.0</ele><time>2026-05-03T11:35:04Z</time></trkpt><trkpt lat="40.4929903548052" lon="8.373901180231437"><ele>39.0</ele><time>2026-05-03T11:35:05Z</time></trkpt><trkpt lat="40.49312017546086" lon="8.373802634339592"><ele>36.333333333333336</ele><time>2026-05-03T11:35:06Z</time></trkpt><trkpt lat="40.49324261454458" lon="8.373660951906427"><ele>33.66666666666667</ele><time>2026-05-03T11:35:07Z</time></trkpt><trkpt lat="40.49336136547921" lon="8.373493910447927"><ele>31.0</ele><time>2026-05-03T11:35:08Z</time></trkpt><trkpt lat="40.49347811861673" lon="8.373317573345494"><ele>31.0</ele><time>2026-05-03T11:35:09Z</time></trkpt><trkpt lat="40.49359514507055" lon="8.37314269372172"><ele>31.0</ele><time>2026-05-03T11:35:10Z</time></trkpt><trkpt lat="40.49371493379902" lon="8.372968605738269"><ele>31.0</ele><time>2026-05-03T11:35:11Z</time></trkpt><trkpt lat="40.49382766413649" lon="8.372799864539164"><ele>29.333333333333336</ele><time>2026-05-03T11:35:12Z</time></trkpt><trkpt lat="40.49393538748875" lon="8.372638653487025"><ele>27.666666666666664</ele><time>2026-05-03T11:35:13Z</time></trkpt><trkpt lat="40.49403665073699" lon="8.372503351050662"><ele>26.0</ele><time>2026-05-03T11:35:14Z</time></trkpt><trkpt lat="40.49417206582388" lon="8.372366277829002"><ele>26.0</ele><time>2026-05-03T11:35:15Z</time></trkpt><trkpt lat="40.49431655261597" lon="8.372264473386617"><ele>26.0</ele><time>2026-05-03T11:35:16Z</time></trkpt><trkpt lat="40.49447170183847" lon="8.372175422739454"><ele>26.0</ele><time>2026-05-03T11:35:17Z</time></trkpt><trkpt lat="40.49464176269252" lon="8.372095340692912"><ele>24.0</ele><time>2026-05-03T11:35:18Z</time></trkpt><trkpt lat="40.49481070900543" lon="8.37200405663593"><ele>22.0</ele><time>2026-05-03T11:35:19Z</time></trkpt><trkpt lat="40.49498585618859" lon="8.371906788772126"><ele>20.0</ele><time>2026-05-03T11:35:20Z</time></trkpt><trkpt lat="40.49516135884183" lon="8.371813331680995"><ele>20.0</ele><time>2026-05-03T11:35:21Z</time></trkpt><trkpt lat="40.49533363193054" lon="8.371726650951677"><ele>20.0</ele><time>2026-05-03T11:35:22Z</time></trkpt><trkpt lat="40.49569112898693" lon="8.371568044835316"><ele>19.666666666666668</ele><time>2026-05-03T11:35:24Z</time></trkpt><trkpt lat="40.49588025646072" lon="8.371496701248727"><ele>19.333333333333332</ele><time>2026-05-03T11:35:25Z</time></trkpt><trkpt lat="40.49606766212995" lon="8.371425937302892"><ele>19.0</ele><time>2026-05-03T11:35:26Z</time></trkpt><trkpt lat="40.496250982214306" lon="8.37135343764953"><ele>18.0</ele><time>2026-05-03T11:35:27Z</time></trkpt><trkpt lat="40.496424604513955" lon="8.371285901752483"><ele>17.0</ele><time>2026-05-03T11:35:28Z</time></trkpt><trkpt lat="40.49659588705759" lon="8.3712214300467"><ele>16.0</ele><time>2026-05-03T11:35:29Z</time></trkpt><trkpt lat="40.49676040679226" lon="8.37116297979028"><ele>16.0</ele><time>2026-05-03T11:35:30Z</time></trkpt><trkpt lat="40.49691540873102" lon="8.371099011130623"><ele>16.0</ele><time>2026-05-03T11:35:31Z</time></trkpt><trkpt lat="40.49705044924008" lon="8.371040009040822"><ele>16.0</ele><time>2026-05-03T11:35:32Z</time></trkpt><trkpt lat="40.49716158823703" lon="8.370957496050766"><ele>16.0</ele><time>2026-05-03T11:35:33Z</time></trkpt><trkpt lat="40.49724797409313" lon="8.370841467634332"><ele>16.75</ele><time>2026-05-03T11:35:34Z</time></trkpt><trkpt lat="40.497300782092246" lon="8.370689440863657"><ele>17.5</ele><time>2026-05-03T11:35:35Z</time></trkpt><trkpt lat="40.497332105724674" lon="8.370510726920335"><ele>18.25</ele><time>2026-05-03T11:35:36Z</time></trkpt><trkpt lat="40.49735947978539" lon="8.370303598291487"><ele>19.0</ele><time>2026-05-03T11:35:37Z</time></trkpt><trkpt lat="40.497391768786855" lon="8.370091612730105"><ele>17.0</ele><time>2026-05-03T11:35:38Z</time></trkpt><trkpt lat="40.49743594365604" lon="8.369867829862638"><ele>15.0</ele><time>2026-05-03T11:35:39Z</time></trkpt><trkpt lat="40.49747869349344" lon="8.36961296559555"><ele>13.0</ele><time>2026-05-03T11:35:40Z</time></trkpt><trkpt lat="40.49750879887526" lon="8.369386868925343"><ele>11.5</ele><time>2026-05-03T11:35:41Z</time></trkpt><trkpt lat="40.49754794710045" lon="8.36913665887695"><ele>10.0</ele><time>2026-05-03T11:35:42Z</time></trkpt><trkpt lat="40.497688909939214" lon="8.36829298038258"><ele>10.0</ele><time>2026-05-03T11:35:46Z</time></trkpt><trkpt lat="40.49774143970879" lon="8.368145057911226"><ele>10.0</ele><time>2026-05-03T11:35:47Z</time></trkpt><trkpt lat="40.4978193194506" lon="8.368035939576313"><ele>10.0</ele><time>2026-05-03T11:35:48Z</time></trkpt><trkpt lat="40.49791514717073" lon="8.367972053247108"><ele>10.0</ele><time>2026-05-03T11:35:49Z</time></trkpt><trkpt lat="40.498054137052" lon="8.367928907120639"><ele>11.0</ele><time>2026-05-03T11:35:50Z</time></trkpt><trkpt lat="40.49814008168782" lon="8.367952838669938"><ele>12.0</ele><time>2026-05-03T11:35:51Z</time></trkpt><trkpt lat="40.498249579209165" lon="8.367997738088343"><ele>13.0</ele><time>2026-05-03T11:35:52Z</time></trkpt><trkpt lat="40.498379167113505" lon="8.368050232761224"><ele>14.0</ele><time>2026-05-03T11:35:53Z</time></trkpt><trkpt lat="40.498514864450705" lon="8.368094092277948"><ele>14.0</ele><time>2026-05-03T11:35:54Z</time></trkpt><trkpt lat="40.49864721469445" lon="8.368128864923785"><ele>14.0</ele><time>2026-05-03T11:35:55Z</time></trkpt><trkpt lat="40.49878052954497" lon="8.368141282716568"><ele>14.0</ele><time>2026-05-03T11:35:56Z</time></trkpt><trkpt lat="40.49891372047595" lon="8.368115652182997"><ele>14.0</ele><time>2026-05-03T11:35:57Z</time></trkpt><trkpt lat="40.4990508853183" lon="8.368036733391202"><ele>19.0</ele><time>2026-05-03T11:35:58Z</time></trkpt><trkpt lat="40.499172628275886" lon="8.367976976560877"><ele>24.0</ele><time>2026-05-03T11:35:59Z</time></trkpt><trkpt lat="40.4992790808869" lon="8.367863177970959"><ele>29.0</ele><time>2026-05-03T11:36:00Z</time></trkpt><trkpt lat="40.49936184005467" lon="8.367716574684858"><ele>34.0</ele><time>2026-05-03T11:36:01Z</time></trkpt><trkpt lat="40.499420870853434" lon="8.367555171723316"><ele>34.0</ele><time>2026-05-03T11:36:02Z</time></trkpt><trkpt lat="40.499458280609126" lon="8.367383471426038"><ele>34.0</ele><time>2026-05-03T11:36:03Z</time></trkpt><trkpt lat="40.49947834931339" lon="8.36720602783742"><ele>34.0</ele><time>2026-05-03T11:36:04Z</time></trkpt><trkpt lat="40.49947919189194" lon="8.367020171039192"><ele>34.0</ele><time>2026-05-03T11:36:05Z</time></trkpt><trkpt lat="40.49949804726652" lon="8.366827805709146"><ele>31.666666666666668</ele><time>2026-05-03T11:36:06Z</time></trkpt><trkpt lat="40.499547091439084" lon="8.3666489781249"><ele>29.333333333333336</ele><time>2026-05-03T11:36:07Z</time></trkpt><trkpt lat="40.49961900070791" lon="8.366478562036688"><ele>27.0</ele><time>2026-05-03T11:36:08Z</time></trkpt><trkpt lat="40.49973781099149" lon="8.366307122207068"><ele>32.75</ele><time>2026-05-03T11:36:09Z</time></trkpt><trkpt lat="40.49983902865506" lon="8.36620808148462"><ele>38.5</ele><time>2026-05-03T11:36:10Z</time></trkpt><trkpt lat="40.49996993540627" lon="8.36611339842457"><ele>44.25</ele><time>2026-05-03T11:36:11Z</time></trkpt><trkpt lat="40.500088442211016" lon="8.366044385228728"><ele>50.0</ele><time>2026-05-03T11:36:12Z</time></trkpt><trkpt lat="40.500249429959595" lon="8.365924332969517"><ele>50.0</ele><time>2026-05-03T11:36:13Z</time></trkpt><trkpt lat="40.50039712716781" lon="8.365826044625019"><ele>50.0</ele><time>2026-05-03T11:36:14Z</time></trkpt><trkpt lat="40.500546252224716" lon="8.36571918705829"><ele>50.0</ele><time>2026-05-03T11:36:15Z</time></trkpt><trkpt lat="40.500703346985574" lon="8.365605663946441"><ele>57.0</ele><time>2026-05-03T11:36:16Z</time></trkpt><trkpt lat="40.50086544073432" lon="8.365480710125606"><ele>64.0</ele><time>2026-05-03T11:36:17Z</time></trkpt><trkpt lat="40.50102090751955" lon="8.365347174109164"><ele>71.0</ele><time>2026-05-03T11:36:18Z</time></trkpt><trkpt lat="40.501164130814786" lon="8.365198928740345"><ele>68.66666666666667</ele><time>2026-05-03T11:36:19Z</time></trkpt><trkpt lat="40.50128596727733" lon="8.365038606594332"><ele>66.33333333333333</ele><time>2026-05-03T11:36:20Z</time></trkpt><trkpt lat="40.50138280294716" lon="8.364855093981223"><ele>64.0</ele><time>2026-05-03T11:36:21Z</time></trkpt><trkpt lat="40.50146151824979" lon="8.364651167168152"><ele>64.0</ele><time>2026-05-03T11:36:22Z</time></trkpt><trkpt lat="40.5015190410473" lon="8.364435338765556"><ele>64.0</ele><time>2026-05-03T11:36:23Z</time></trkpt><trkpt lat="40.50157510403392" lon="8.364211116612731"><ele>64.0</ele><time>2026-05-03T11:36:24Z</time></trkpt><trkpt lat="40.5016337653789" lon="8.363999606181759"><ele>66.33333333333333</ele><time>2026-05-03T11:36:25Z</time></trkpt><trkpt lat="40.501694413907416" lon="8.363780817040958"><ele>68.66666666666667</ele><time>2026-05-03T11:36:26Z</time></trkpt><trkpt lat="40.50176024258193" lon="8.363597202984572"><ele>71.0</ele><time>2026-05-03T11:36:27Z</time></trkpt><trkpt lat="40.501803929847796" lon="8.363354847814039"><ele>71.0</ele><time>2026-05-03T11:36:28Z</time></trkpt><trkpt lat="40.501851796650115" lon="8.363130024688557"><ele>71.0</ele><time>2026-05-03T11:36:29Z</time></trkpt><trkpt lat="40.50189743576128" lon="8.36291746964101"><ele>71.0</ele><time>2026-05-03T11:36:30Z</time></trkpt><trkpt lat="40.50194302785592" lon="8.362691636820006"><ele>73.66666666666667</ele><time>2026-05-03T11:36:31Z</time></trkpt><trkpt lat="40.50199299100575" lon="8.362458790000234"><ele>76.33333333333333</ele><time>2026-05-03T11:36:32Z</time></trkpt><trkpt lat="40.5020457081271" lon="8.362227329769414"><ele>79.0</ele><time>2026-05-03T11:36:33Z</time></trkpt><trkpt lat="40.50209186853978" lon="8.36199508737913"><ele>74.0</ele><time>2026-05-03T11:36:34Z</time></trkpt><trkpt lat="40.50215975423507" lon="8.361748314105949"><ele>69.0</ele><time>2026-05-03T11:36:35Z</time></trkpt><trkpt lat="40.50220317101543" lon="8.361526129201097"><ele>64.0</ele><time>2026-05-03T11:36:36Z</time></trkpt><trkpt lat="40.50225485889984" lon="8.361300622521789"><ele>64.0</ele><time>2026-05-03T11:36:37Z</time></trkpt><trkpt lat="40.5023125183684" lon="8.361073796949082"><ele>64.0</ele><time>2026-05-03T11:36:38Z</time></trkpt><trkpt lat="40.50235169457295" lon="8.360853186439085"><ele>64.0</ele><time>2026-05-03T11:36:39Z</time></trkpt><trkpt lat="40.50237894589428" lon="8.360615205455254"><ele>65.66666666666666</ele><time>2026-05-03T11:36:40Z</time></trkpt><trkpt lat="40.50238692829378" lon="8.360370990538485"><ele>67.33333333333333</ele><time>2026-05-03T11:36:41Z</time></trkpt><trkpt lat="40.502420147060526" lon="8.360137495955838"><ele>69.0</ele><time>2026-05-03T11:36:42Z</time></trkpt><trkpt lat="40.502446778842014" lon="8.359876008461814"><ele>71.0</ele><time>2026-05-03T11:36:43Z</time></trkpt><trkpt lat="40.50250721071091" lon="8.359670172658523"><ele>73.0</ele><time>2026-05-03T11:36:44Z</time></trkpt><trkpt lat="40.502594878270926" lon="8.359441423862217"><ele>75.0</ele><time>2026-05-03T11:36:45Z</time></trkpt><trkpt lat="40.50268772023166" lon="8.359206474007381"><ele>75.0</ele><time>2026-05-03T11:36:46Z</time></trkpt><trkpt lat="40.502771431343575" lon="8.358948181840066"><ele>75.0</ele><time>2026-05-03T11:36:47Z</time></trkpt><trkpt lat="40.50286510950832" lon="8.35872769711646"><ele>75.0</ele><time>2026-05-03T11:36:48Z</time></trkpt><trkpt lat="40.50294603416447" lon="8.35851854656403"><ele>71.66666666666667</ele><time>2026-05-03T11:36:49Z</time></trkpt><trkpt lat="40.50302776855327" lon="8.358341113627384"><ele>68.33333333333334</ele><time>2026-05-03T11:36:50Z</time></trkpt><trkpt lat="40.50315103725939" lon="8.358222909044501"><ele>65.0</ele><time>2026-05-03T11:36:51Z</time></trkpt><trkpt lat="40.50328268445154" lon="8.35811881166389"><ele>65.0</ele><time>2026-05-03T11:36:52Z</time></trkpt><trkpt lat="40.50341514452045" lon="8.358063384100674"><ele>65.0</ele><time>2026-05-03T11:36:53Z</time></trkpt><trkpt lat="40.50358346221971" lon="8.357993400149029"><ele>65.0</ele><time>2026-05-03T11:36:54Z</time></trkpt><trkpt lat="40.503759449682896" lon="8.357918773068462"><ele>64.66666666666667</ele><time>2026-05-03T11:36:55Z</time></trkpt><trkpt lat="40.503953459995095" lon="8.357823335998345"><ele>64.33333333333333</ele><time>2026-05-03T11:36:56Z</time></trkpt><trkpt lat="40.50416118555323" lon="8.357748922298864"><ele>64.0</ele><time>2026-05-03T11:36:57Z</time></trkpt><trkpt lat="40.50436164083368" lon="8.357666532895882"><ele>64.0</ele><time>2026-05-03T11:36:58Z</time></trkpt><trkpt lat="40.50457031291395" lon="8.357581496894923"><ele>64.0</ele><time>2026-05-03T11:36:59Z</time></trkpt><trkpt lat="40.5047778301354" lon="8.357478862606516"><ele>64.0</ele><time>2026-05-03T11:37:00Z</time></trkpt><trkpt lat="40.50497711069286" lon="8.357368222360208"><ele>63.33333333333333</ele><time>2026-05-03T11:37:01Z</time></trkpt><trkpt lat="40.50516671497661" lon="8.357231967871103"><ele>62.66666666666667</ele><time>2026-05-03T11:37:02Z</time></trkpt><trkpt lat="40.50535510737733" lon="8.35709225801488"><ele>62.0</ele><time>2026-05-03T11:37:03Z</time></trkpt><trkpt lat="40.50554540071916" lon="8.35695007984701"><ele>60.333333333333336</ele><time>2026-05-03T11:37:04Z</time></trkpt><trkpt lat="40.50570652771723" lon="8.356824503969175"><ele>58.66666666666667</ele><time>2026-05-03T11:37:05Z</time></trkpt><trkpt lat="40.505867519948644" lon="8.356718234176308"><ele>57.0</ele><time>2026-05-03T11:37:06Z</time></trkpt><trkpt lat="40.50602011527017" lon="8.356652167969862"><ele>57.0</ele><time>2026-05-03T11:37:07Z</time></trkpt><trkpt lat="40.5061897857473" lon="8.35654824093411"><ele>57.0</ele><time>2026-05-03T11:37:08Z</time></trkpt><trkpt lat="40.50636279971579" lon="8.35650094091794"><ele>57.0</ele><time>2026-05-03T11:37:09Z</time></trkpt><trkpt lat="40.50654094312964" lon="8.356455647388383"><ele>56.66666666666667</ele><time>2026-05-03T11:37:10Z</time></trkpt><trkpt lat="40.506734983137335" lon="8.356477621473383"><ele>56.333333333333336</ele><time>2026-05-03T11:37:11Z</time></trkpt><trkpt lat="40.506930615025134" lon="8.356491655156159"><ele>56.0</ele><time>2026-05-03T11:37:12Z</time></trkpt><trkpt lat="40.50712751772067" lon="8.356504641649709"><ele>57.0</ele><time>2026-05-03T11:37:13Z</time></trkpt><trkpt lat="40.50734065186687" lon="8.356502853453117"><ele>58.0</ele><time>2026-05-03T11:37:14Z</time></trkpt><trkpt lat="40.50754371516498" lon="8.356516991909624"><ele>59.0</ele><time>2026-05-03T11:37:15Z</time></trkpt><trkpt lat="40.507745960258816" lon="8.356531173919024"><ele>60.333333333333336</ele><time>2026-05-03T11:37:16Z</time></trkpt><trkpt lat="40.50795605330083" lon="8.356542215365954"><ele>61.66666666666667</ele><time>2026-05-03T11:37:17Z</time></trkpt><trkpt lat="40.50815488355221" lon="8.356573953725938"><ele>63.0</ele><time>2026-05-03T11:37:18Z</time></trkpt><trkpt lat="40.508366085278965" lon="8.356570383259294"><ele>63.0</ele><time>2026-05-03T11:37:19Z</time></trkpt><trkpt lat="40.50856750707938" lon="8.356586047968662"><ele>63.0</ele><time>2026-05-03T11:37:20Z</time></trkpt><trkpt lat="40.50876030721765" lon="8.356603257006485"><ele>63.0</ele><time>2026-05-03T11:37:21Z</time></trkpt><trkpt lat="40.50897242204288" lon="8.35661017877838"><ele>64.66666666666667</ele><time>2026-05-03T11:37:22Z</time></trkpt><trkpt lat="40.50916519719172" lon="8.356636051851106"><ele>66.33333333333334</ele><time>2026-05-03T11:37:23Z</time></trkpt><trkpt lat="40.50934350513137" lon="8.356677471518083"><ele>68.0</ele><time>2026-05-03T11:37:24Z</time></trkpt><trkpt lat="40.50953502775798" lon="8.356667303344878"><ele>70.66666666666667</ele><time>2026-05-03T11:37:25Z</time></trkpt><trkpt lat="40.50972209359795" lon="8.356666344896002"><ele>73.33333333333333</ele><time>2026-05-03T11:37:26Z</time></trkpt><trkpt lat="40.50990111905965" lon="8.356660959969645"><ele>76.0</ele><time>2026-05-03T11:37:27Z</time></trkpt><trkpt lat="40.510071112081356" lon="8.356607059726926"><ele>76.0</ele><time>2026-05-03T11:37:28Z</time></trkpt><trkpt lat="40.51022584893083" lon="8.356476399785139"><ele>76.0</ele><time>2026-05-03T11:37:29Z</time></trkpt><trkpt lat="40.51038001598898" lon="8.356355636080266"><ele>76.0</ele><time>2026-05-03T11:37:30Z</time></trkpt><trkpt lat="40.51055296715104" lon="8.356185431615188"><ele>79.0</ele><time>2026-05-03T11:37:31Z</time></trkpt><trkpt lat="40.51074931511865" lon="8.355991959248081"><ele>82.0</ele><time>2026-05-03T11:37:32Z</time></trkpt><trkpt lat="40.510912159352095" lon="8.355866371983954"><ele>85.0</ele><time>2026-05-03T11:37:33Z</time></trkpt><trkpt lat="40.51108057469367" lon="8.355703445492171"><ele>86.0</ele><time>2026-05-03T11:37:34Z</time></trkpt><trkpt lat="40.51124238482741" lon="8.355539542451513"><ele>87.0</ele><time>2026-05-03T11:37:35Z</time></trkpt><trkpt lat="40.51137035384108" lon="8.355399008188472"><ele>88.0</ele><time>2026-05-03T11:37:36Z</time></trkpt><trkpt lat="40.51153654632146" lon="8.3552437479121"><ele>90.0</ele><time>2026-05-03T11:37:37Z</time></trkpt><trkpt lat="40.511698879859644" lon="8.355037231243491"><ele>92.0</ele><time>2026-05-03T11:37:38Z</time></trkpt><trkpt lat="40.51182855005592" lon="8.354823018566115"><ele>94.0</ele><time>2026-05-03T11:37:39Z</time></trkpt><trkpt lat="40.51195509498761" lon="8.354579665361422"><ele>97.66666666666666</ele><time>2026-05-03T11:37:40Z</time></trkpt><trkpt lat="40.51207385306263" lon="8.35434426985747"><ele>101.33333333333333</ele><time>2026-05-03T11:37:41Z</time></trkpt><trkpt lat="40.512189748645625" lon="8.354114723129946"><ele>105.0</ele><time>2026-05-03T11:37:42Z</time></trkpt><trkpt lat="40.51230586092068" lon="8.35388959939628"><ele>106.66666666666666</ele><time>2026-05-03T11:37:43Z</time></trkpt><trkpt lat="40.512406058493674" lon="8.353679697234426"><ele>108.33333333333333</ele><time>2026-05-03T11:37:44Z</time></trkpt><trkpt lat="40.51251694080691" lon="8.353486463073544"><ele>110.0</ele><time>2026-05-03T11:37:45Z</time></trkpt><trkpt lat="40.5126107984194" lon="8.353295174453427"><ele>110.0</ele><time>2026-05-03T11:37:46Z</time></trkpt><trkpt lat="40.51267496252652" lon="8.353113171886182"><ele>110.0</ele><time>2026-05-03T11:37:47Z</time></trkpt><trkpt lat="40.51273944680424" lon="8.35293660926811"><ele>110.0</ele><time>2026-05-03T11:37:48Z</time></trkpt><trkpt lat="40.512748181771855" lon="8.352739657803053"><ele>110.0</ele><time>2026-05-03T11:37:49Z</time></trkpt><trkpt lat="40.51272737533304" lon="8.352545761255989"><ele>110.0</ele><time>2026-05-03T11:37:50Z</time></trkpt><trkpt lat="40.5126893502005" lon="8.352346592184814"><ele>110.0</ele><time>2026-05-03T11:37:51Z</time></trkpt><trkpt lat="40.51265800774947" lon="8.352161451384625"><ele>110.0</ele><time>2026-05-03T11:37:52Z</time></trkpt><trkpt lat="40.51264634711004" lon="8.351955941699025"><ele>110.0</ele><time>2026-05-03T11:37:53Z</time></trkpt><trkpt lat="40.512617339645274" lon="8.351745843746496"><ele>110.0</ele><time>2026-05-03T11:37:54Z</time></trkpt><trkpt lat="40.51257696651863" lon="8.35153979090007"><ele>110.0</ele><time>2026-05-03T11:37:55Z</time></trkpt><trkpt lat="40.51254799114195" lon="8.351328553686914"><ele>108.33333333333333</ele><time>2026-05-03T11:37:56Z</time></trkpt><trkpt lat="40.512517140634465" lon="8.35111860534309"><ele>106.66666666666666</ele><time>2026-05-03T11:37:57Z</time></trkpt><trkpt lat="40.51249080896315" lon="8.350919001266332"><ele>105.0</ele><time>2026-05-03T11:37:58Z</time></trkpt><trkpt lat="40.51245558408497" lon="8.350685580459755"><ele>105.33333333333334</ele><time>2026-05-03T11:37:59Z</time></trkpt><trkpt lat="40.51242783307389" lon="8.350471848753081"><ele>105.66666666666667</ele><time>2026-05-03T11:38:00Z</time></trkpt><trkpt lat="40.51240009489578" lon="8.350254985950176"><ele>106.0</ele><time>2026-05-03T11:38:01Z</time></trkpt><trkpt lat="40.51237071466398" lon="8.350040509157045"><ele>106.0</ele><time>2026-05-03T11:38:02Z</time></trkpt><trkpt lat="40.51234068873144" lon="8.349811600365019"><ele>106.0</ele><time>2026-05-03T11:38:03Z</time></trkpt><trkpt lat="40.51230572695659" lon="8.349602288475444"><ele>106.0</ele><time>2026-05-03T11:38:04Z</time></trkpt><trkpt lat="40.512289790461544" lon="8.3493892467701"><ele>105.66666666666667</ele><time>2026-05-03T11:38:05Z</time></trkpt><trkpt lat="40.512261366678956" lon="8.349183292223659"><ele>105.33333333333334</ele><time>2026-05-03T11:38:06Z</time></trkpt><trkpt lat="40.512232922102555" lon="8.348977186994087"><ele>105.0</ele><time>2026-05-03T11:38:07Z</time></trkpt><trkpt lat="40.512199414423556" lon="8.348772479344374"><ele>104.0</ele><time>2026-05-03T11:38:08Z</time></trkpt><trkpt lat="40.512180197697404" lon="8.348582038784771"><ele>103.0</ele><time>2026-05-03T11:38:09Z</time></trkpt><trkpt lat="40.512171992035626" lon="8.3483931143303"><ele>102.0</ele><time>2026-05-03T11:38:10Z</time></trkpt><trkpt lat="40.5121907418969" lon="8.348183890940726"><ele>101.66666666666666</ele><time>2026-05-03T11:38:11Z</time></trkpt><trkpt lat="40.51221854023439" lon="8.3479817322132"><ele>101.33333333333333</ele><time>2026-05-03T11:38:12Z</time></trkpt><trkpt lat="40.51224908996176" lon="8.347775530757486"><ele>101.0</ele><time>2026-05-03T11:38:13Z</time></trkpt><trkpt lat="40.51227902444769" lon="8.347561378620865"><ele>101.0</ele><time>2026-05-03T11:38:14Z</time></trkpt><trkpt lat="40.512304600364374" lon="8.347355047527103"><ele>101.0</ele><time>2026-05-03T11:38:15Z</time></trkpt><trkpt lat="40.512328920889466" lon="8.34716070855355"><ele>101.0</ele><time>2026-05-03T11:38:16Z</time></trkpt><trkpt lat="40.512355078621674" lon="8.346954285265609"><ele>100.33333333333333</ele><time>2026-05-03T11:38:17Z</time></trkpt><trkpt lat="40.512383933838244" lon="8.346725253952282"><ele>99.66666666666666</ele><time>2026-05-03T11:38:18Z</time></trkpt><trkpt lat="40.51240113313674" lon="8.346535493850425"><ele>99.0</ele><time>2026-05-03T11:38:19Z</time></trkpt><trkpt lat="40.51242171123831" lon="8.346348302949519"><ele>99.0</ele><time>2026-05-03T11:38:20Z</time></trkpt><trkpt lat="40.51248316281372" lon="8.346146419834879"><ele>99.0</ele><time>2026-05-03T11:38:21Z</time></trkpt><trkpt lat="40.51255474937441" lon="8.34597093487607"><ele>99.0</ele><time>2026-05-03T11:38:22Z</time></trkpt><trkpt lat="40.51262873901128" lon="8.345817887336882"><ele>99.0</ele><time>2026-05-03T11:38:23Z</time></trkpt><trkpt lat="40.51271813365587" lon="8.345620672180818"><ele>99.0</ele><time>2026-05-03T11:38:24Z</time></trkpt><trkpt lat="40.512861649726574" lon="8.345394682661869"><ele>99.0</ele><time>2026-05-03T11:38:25Z</time></trkpt><trkpt lat="40.51297853499615" lon="8.345221846648364"><ele>99.0</ele><time>2026-05-03T11:38:26Z</time></trkpt><trkpt lat="40.513061835921526" lon="8.345049608579306"><ele>99.0</ele><time>2026-05-03T11:38:27Z</time></trkpt><trkpt lat="40.513160048024325" lon="8.344866536983085"><ele>99.0</ele><time>2026-05-03T11:38:28Z</time></trkpt><trkpt lat="40.51325913086761" lon="8.34468915380503"><ele>97.66666666666667</ele><time>2026-05-03T11:38:29Z</time></trkpt><trkpt lat="40.51335905556133" lon="8.344510840611793"><ele>96.33333333333334</ele><time>2026-05-03T11:38:30Z</time></trkpt><trkpt lat="40.51345822743813" lon="8.34432882817977"><ele>95.0</ele><time>2026-05-03T11:38:31.001Z</time></trkpt><trkpt lat="40.51355707633796" lon="8.34415619664016"><ele>95.0</ele><time>2026-05-03T11:38:32.001Z</time></trkpt><trkpt lat="40.51365055804996" lon="8.343981242895081"><ele>95.0</ele><time>2026-05-03T11:38:33.001Z</time></trkpt><trkpt lat="40.513757826433554" lon="8.343789181677465"><ele>95.0</ele><time>2026-05-03T11:38:34.001Z</time></trkpt><trkpt lat="40.513858339936576" lon="8.343602810170303"><ele>95.33333333333334</ele><time>2026-05-03T11:38:35.001Z</time></trkpt><trkpt lat="40.513957111088054" lon="8.34344068430567"><ele>95.66666666666667</ele><time>2026-05-03T11:38:36.001Z</time></trkpt><trkpt lat="40.514054622478604" lon="8.343285867764223"><ele>96.0</ele><time>2026-05-03T11:38:37.001Z</time></trkpt><trkpt lat="40.51417481357797" lon="8.343143674196046"><ele>95.33333333333333</ele><time>2026-05-03T11:38:38.001Z</time></trkpt><trkpt lat="40.51430518051152" lon="8.343016929389746"><ele>94.66666666666666</ele><time>2026-05-03T11:38:39.001Z</time></trkpt><trkpt lat="40.51444572993553" lon="8.342915573997942"><ele>94.0</ele><time>2026-05-03T11:38:40Z</time></trkpt><trkpt lat="40.51458922536175" lon="8.342833803961243"><ele>94.0</ele><time>2026-05-03T11:38:41Z</time></trkpt><trkpt lat="40.51472768983675" lon="8.342754862362852"><ele>94.0</ele><time>2026-05-03T11:38:42Z</time></trkpt><trkpt lat="40.51482915195644" lon="8.342699193275616"><ele>94.0</ele><time>2026-05-03T11:38:43Z</time></trkpt><trkpt lat="40.51497832625933" lon="8.342599574825805"><ele>94.0</ele><time>2026-05-03T11:38:44Z</time></trkpt><trkpt lat="40.51509777610752" lon="8.342534840165673"><ele>94.0</ele><time>2026-05-03T11:38:45Z</time></trkpt><trkpt lat="40.51522188814925" lon="8.342454883572687"><ele>94.0</ele><time>2026-05-03T11:38:46Z</time></trkpt><trkpt lat="40.51534969736988" lon="8.342386537262213"><ele>94.0</ele><time>2026-05-03T11:38:47Z</time></trkpt><trkpt lat="40.51549004542931" lon="8.342323911806185"><ele>94.0</ele><time>2026-05-03T11:38:48Z</time></trkpt><trkpt lat="40.515641326202015" lon="8.342289500856554"><ele>94.25</ele><time>2026-05-03T11:38:49Z</time></trkpt><trkpt lat="40.515784758239526" lon="8.342293870634675"><ele>94.5</ele><time>2026-05-03T11:38:50Z</time></trkpt><trkpt lat="40.51592903481657" lon="8.34230699666944"><ele>94.75</ele><time>2026-05-03T11:38:51Z</time></trkpt><trkpt lat="40.5160743191134" lon="8.342305818655653"><ele>95.0</ele><time>2026-05-03T11:38:52Z</time></trkpt><trkpt lat="40.51620890607889" lon="8.342304060393811"><ele>94.5</ele><time>2026-05-03T11:38:53Z</time></trkpt><trkpt lat="40.51634223362346" lon="8.342296843033502"><ele>94.0</ele><time>2026-05-03T11:38:54Z</time></trkpt><trkpt lat="40.51646718984564" lon="8.342298305908315"><ele>93.5</ele><time>2026-05-03T11:38:55Z</time></trkpt><trkpt lat="40.51658468062144" lon="8.342300005438364"><ele>93.0</ele><time>2026-05-03T11:38:56Z</time></trkpt><trkpt lat="40.51670781848307" lon="8.342297396302241"><ele>93.0</ele><time>2026-05-03T11:38:57Z</time></trkpt><trkpt lat="40.51683531090925" lon="8.342301228011687"><ele>93.0</ele><time>2026-05-03T11:38:58Z</time></trkpt><trkpt lat="40.516969621337886" lon="8.342303774366062"><ele>93.0</ele><time>2026-05-03T11:38:59Z</time></trkpt><trkpt lat="40.51710738039632" lon="8.342311108378185"><ele>93.0</ele><time>2026-05-03T11:39:00Z</time></trkpt><trkpt lat="40.51726092624459" lon="8.342302343984388"><ele>93.0</ele><time>2026-05-03T11:39:01Z</time></trkpt><trkpt lat="40.51742307410713" lon="8.342304083525693"><ele>93.0</ele><time>2026-05-03T11:39:02Z</time></trkpt><trkpt lat="40.51757685314119" lon="8.342299129867087"><ele>93.0</ele><time>2026-05-03T11:39:03Z</time></trkpt><trkpt lat="40.51773156608398" lon="8.342307463229742"><ele>93.0</ele><time>2026-05-03T11:39:04Z</time></trkpt><trkpt lat="40.51788517445812" lon="8.34231077801052"><ele>93.0</ele><time>2026-05-03T11:39:05Z</time></trkpt><trkpt lat="40.5180420005171" lon="8.342307267646849"><ele>93.0</ele><time>2026-05-03T11:39:06Z</time></trkpt><trkpt lat="40.518189453218596" lon="8.342311434702342"><ele>93.0</ele><time>2026-05-03T11:39:07Z</time></trkpt><trkpt lat="40.51836028154644" lon="8.342317684412512"><ele>93.0</ele><time>2026-05-03T11:39:08Z</time></trkpt><trkpt lat="40.51849442335028" lon="8.342313959305626"><ele>93.0</ele><time>2026-05-03T11:39:09Z</time></trkpt><trkpt lat="40.518663200697254" lon="8.342346859397761"><ele>92.66666666666667</ele><time>2026-05-03T11:39:10Z</time></trkpt><trkpt lat="40.518840261939395" lon="8.342355535805424"><ele>92.33333333333334</ele><time>2026-05-03T11:39:11Z</time></trkpt><trkpt lat="40.51903032860808" lon="8.34238615739904"><ele>92.0</ele><time>2026-05-03T11:39:12Z</time></trkpt><trkpt lat="40.51918935346878" lon="8.342421711161746"><ele>92.0</ele><time>2026-05-03T11:39:13Z</time></trkpt><trkpt lat="40.51935491472598" lon="8.34245745743498"><ele>92.0</ele><time>2026-05-03T11:39:14Z</time></trkpt><trkpt lat="40.5195197266123" lon="8.34249199008809"><ele>92.0</ele><time>2026-05-03T11:39:15Z</time></trkpt><trkpt lat="40.51967144739689" lon="8.3425161800412"><ele>90.66666666666667</ele><time>2026-05-03T11:39:16Z</time></trkpt><trkpt lat="40.51982129956236" lon="8.342521650732639"><ele>89.33333333333333</ele><time>2026-05-03T11:39:17Z</time></trkpt><trkpt lat="40.51997416243484" lon="8.34249687809617"><ele>88.0</ele><time>2026-05-03T11:39:18Z</time></trkpt><trkpt lat="40.52012688403814" lon="8.342433595491446"><ele>88.0</ele><time>2026-05-03T11:39:19Z</time></trkpt><trkpt lat="40.520279741002646" lon="8.342338670013612"><ele>88.0</ele><time>2026-05-03T11:39:20Z</time></trkpt><trkpt lat="40.52042078486227" lon="8.342242160114036"><ele>88.0</ele><time>2026-05-03T11:39:21Z</time></trkpt><trkpt lat="40.52056131139461" lon="8.342148417768925"><ele>85.33333333333333</ele><time>2026-05-03T11:39:22Z</time></trkpt><trkpt lat="40.52071201958188" lon="8.34205767999676"><ele>82.66666666666667</ele><time>2026-05-03T11:39:23Z</time></trkpt><trkpt lat="40.52087177748276" lon="8.34195242823018"><ele>80.0</ele><time>2026-05-03T11:39:24Z</time></trkpt><trkpt lat="40.52101887680854" lon="8.341824014820023"><ele>80.0</ele><time>2026-05-03T11:39:25Z</time></trkpt><trkpt lat="40.521143271569564" lon="8.341671033106559"><ele>80.0</ele><time>2026-05-03T11:39:26Z</time></trkpt><trkpt lat="40.521258079062875" lon="8.341481991435082"><ele>80.0</ele><time>2026-05-03T11:39:27Z</time></trkpt><trkpt lat="40.521373232449584" lon="8.341282300508725"><ele>78.66666666666667</ele><time>2026-05-03T11:39:28Z</time></trkpt><trkpt lat="40.521484815512515" lon="8.34108196158264"><ele>77.33333333333333</ele><time>2026-05-03T11:39:29Z</time></trkpt><trkpt lat="40.52160328960468" lon="8.340859987946793"><ele>76.0</ele><time>2026-05-03T11:39:30Z</time></trkpt><trkpt lat="40.521731140410346" lon="8.340604972355376"><ele>75.5</ele><time>2026-05-03T11:39:31Z</time></trkpt><trkpt lat="40.52187027234256" lon="8.340352748533286"><ele>75.0</ele><time>2026-05-03T11:39:32Z</time></trkpt><trkpt lat="40.52201164276646" lon="8.34011301922639"><ele>74.0</ele><time>2026-05-03T11:39:33Z</time></trkpt><trkpt lat="40.52213906141354" lon="8.339887649721986"><ele>73.0</ele><time>2026-05-03T11:39:34Z</time></trkpt><trkpt lat="40.52225706875157" lon="8.339668161675503"><ele>72.0</ele><time>2026-05-03T11:39:35Z</time></trkpt><trkpt lat="40.52237659147597" lon="8.339437127791427"><ele>70.66666666666667</ele><time>2026-05-03T11:39:36Z</time></trkpt><trkpt lat="40.52250385538504" lon="8.339202132343091"><ele>69.33333333333334</ele><time>2026-05-03T11:39:37Z</time></trkpt><trkpt lat="40.52262130054163" lon="8.338997353607827"><ele>68.0</ele><time>2026-05-03T11:39:38Z</time></trkpt><trkpt lat="40.52274213152433" lon="8.338778819927398"><ele>67.66666666666667</ele><time>2026-05-03T11:39:39Z</time></trkpt><trkpt lat="40.52285596199767" lon="8.338576309847207"><ele>67.33333333333333</ele><time>2026-05-03T11:39:40Z</time></trkpt><trkpt lat="40.52296603102241" lon="8.338381004304926"><ele>67.0</ele><time>2026-05-03T11:39:41Z</time></trkpt><trkpt lat="40.52307039285527" lon="8.338195923526314"><ele>63.666666666666664</ele><time>2026-05-03T11:39:42Z</time></trkpt><trkpt lat="40.52316582366371" lon="8.338034607939344"><ele>60.33333333333333</ele><time>2026-05-03T11:39:43Z</time></trkpt><trkpt lat="40.52327081089504" lon="8.337852121695857"><ele>57.0</ele><time>2026-05-03T11:39:44Z</time></trkpt><trkpt lat="40.523366515045765" lon="8.3376795558928"><ele>57.0</ele><time>2026-05-03T11:39:45Z</time></trkpt><trkpt lat="40.52345597878092" lon="8.337511613249799"><ele>57.0</ele><time>2026-05-03T11:39:46Z</time></trkpt><trkpt lat="40.52354067495115" lon="8.337339369424447"><ele>57.0</ele><time>2026-05-03T11:39:47Z</time></trkpt><trkpt lat="40.52360181148089" lon="8.337158757872434"><ele>56.0</ele><time>2026-05-03T11:39:48Z</time></trkpt><trkpt lat="40.523633633756376" lon="8.336969334547598"><ele>55.0</ele><time>2026-05-03T11:39:49Z</time></trkpt><trkpt lat="40.52364634992438" lon="8.336746114559695"><ele>54.0</ele><time>2026-05-03T11:39:50Z</time></trkpt><trkpt lat="40.523636239910196" lon="8.336516526578801"><ele>52.33333333333333</ele><time>2026-05-03T11:39:51Z</time></trkpt><trkpt lat="40.52362881204148" lon="8.33629682494878"><ele>50.666666666666664</ele><time>2026-05-03T11:39:52Z</time></trkpt><trkpt lat="40.52363093078992" lon="8.336091393180126"><ele>49.0</ele><time>2026-05-03T11:39:53Z</time></trkpt><trkpt lat="40.52363473656929" lon="8.3358969851721"><ele>49.0</ele><time>2026-05-03T11:39:54Z</time></trkpt><trkpt lat="40.52363227529247" lon="8.335706534569761"><ele>49.0</ele><time>2026-05-03T11:39:55Z</time></trkpt><trkpt lat="40.52363307514486" lon="8.335509196961148"><ele>49.0</ele><time>2026-05-03T11:39:56Z</time></trkpt><trkpt lat="40.52362281379452" lon="8.335306586146773"><ele>49.0</ele><time>2026-05-03T11:39:57Z</time></trkpt><trkpt lat="40.52359017503757" lon="8.335106801464695"><ele>45.666666666666664</ele><time>2026-05-03T11:39:58Z</time></trkpt><trkpt lat="40.52353937722379" lon="8.334918878321629"><ele>42.33333333333333</ele><time>2026-05-03T11:39:59Z</time></trkpt><trkpt lat="40.52345819744538" lon="8.334739061416538"><ele>39.0</ele><time>2026-05-03T11:40:00Z</time></trkpt><trkpt lat="40.52332258154666" lon="8.33460471768823"><ele>37.0</ele><time>2026-05-03T11:40:01Z</time></trkpt><trkpt lat="40.52323516031212" lon="8.334472652774165"><ele>35.0</ele><time>2026-05-03T11:40:02Z</time></trkpt><trkpt lat="40.52315150590277" lon="8.33434687343862"><ele>33.0</ele><time>2026-05-03T11:40:03Z</time></trkpt><trkpt lat="40.52308176746466" lon="8.33422648497346"><ele>31.0</ele><time>2026-05-03T11:40:04Z</time></trkpt><trkpt lat="40.523030793650385" lon="8.334094345043665"><ele>31.0</ele><time>2026-05-03T11:40:05Z</time></trkpt><trkpt lat="40.52301862835149" lon="8.333962872601644"><ele>31.0</ele><time>2026-05-03T11:40:06Z</time></trkpt><trkpt lat="40.52303489820434" lon="8.33381473347152"><ele>31.0</ele><time>2026-05-03T11:40:07Z</time></trkpt><trkpt lat="40.52308720153218" lon="8.33365179258198"><ele>31.0</ele><time>2026-05-03T11:40:08Z</time></trkpt><trkpt lat="40.52315668267494" lon="8.333510289087748"><ele>28.75</ele><time>2026-05-03T11:40:09Z</time></trkpt><trkpt lat="40.523225708052756" lon="8.333376005683988"><ele>26.5</ele><time>2026-05-03T11:40:10Z</time></trkpt><trkpt lat="40.523292500796444" lon="8.333234526625322"><ele>24.25</ele><time>2026-05-03T11:40:11Z</time></trkpt><trkpt lat="40.523360892703536" lon="8.333092351334077"><ele>22.0</ele><time>2026-05-03T11:40:12Z</time></trkpt><trkpt lat="40.5234392685656" lon="8.332965067778247"><ele>21.25</ele><time>2026-05-03T11:40:13Z</time></trkpt><trkpt lat="40.523539970034776" lon="8.332853430947921"><ele>20.5</ele><time>2026-05-03T11:40:14Z</time></trkpt><trkpt lat="40.523650272634626" lon="8.332779760245407"><ele>19.75</ele><time>2026-05-03T11:40:15Z</time></trkpt><trkpt lat="40.52378881955644" lon="8.332702106519758"><ele>19.0</ele><time>2026-05-03T11:40:16Z</time></trkpt><trkpt lat="40.5239244391774" lon="8.332640202454304"><ele>19.0</ele><time>2026-05-03T11:40:17Z</time></trkpt><trkpt lat="40.52406672562623" lon="8.332572047792207"><ele>19.0</ele><time>2026-05-03T11:40:18Z</time></trkpt><trkpt lat="40.52421520704067" lon="8.332499388055991"><ele>19.0</ele><time>2026-05-03T11:40:19Z</time></trkpt><trkpt lat="40.52435759484398" lon="8.332425738359195"><ele>19.0</ele><time>2026-05-03T11:40:20Z</time></trkpt><trkpt lat="40.52450139696787" lon="8.332335351703628"><ele>19.0</ele><time>2026-05-03T11:40:21Z</time></trkpt><trkpt lat="40.524643584056996" lon="8.332233761141435"><ele>19.0</ele><time>2026-05-03T11:40:22Z</time></trkpt><trkpt lat="40.52477897937369" lon="8.33212870497916"><ele>17.333333333333332</ele><time>2026-05-03T11:40:23Z</time></trkpt><trkpt lat="40.52492597657549" lon="8.332007210930309"><ele>15.666666666666668</ele><time>2026-05-03T11:40:24Z</time></trkpt><trkpt lat="40.525097570065796" lon="8.331835822448097"><ele>14.0</ele><time>2026-05-03T11:40:25Z</time></trkpt><trkpt lat="40.525262873144875" lon="8.331683666598519"><ele>13.5</ele><time>2026-05-03T11:40:26Z</time></trkpt><trkpt lat="40.52544999603787" lon="8.331493608491213"><ele>13.0</ele><time>2026-05-03T11:40:27Z</time></trkpt><trkpt lat="40.52561786917842" lon="8.331306304764187"><ele>13.0</ele><time>2026-05-03T11:40:28Z</time></trkpt><trkpt lat="40.52576143982902" lon="8.331132129879075"><ele>13.0</ele><time>2026-05-03T11:40:29Z</time></trkpt><trkpt lat="40.5258960778823" lon="8.330988518295447"><ele>13.0</ele><time>2026-05-03T11:40:30Z</time></trkpt><trkpt lat="40.52605406788355" lon="8.330828319761743"><ele>13.0</ele><time>2026-05-03T11:40:31Z</time></trkpt><trkpt lat="40.52619244080074" lon="8.330758473737868"><ele>13.0</ele><time>2026-05-03T11:40:32Z</time></trkpt><trkpt lat="40.5263419462988" lon="8.33072118893575"><ele>13.0</ele><time>2026-05-03T11:40:33Z</time></trkpt><trkpt lat="40.52652001801022" lon="8.33068167086759"><ele>14.333333333333332</ele><time>2026-05-03T11:40:34Z</time></trkpt><trkpt lat="40.52669069579314" lon="8.330634775877554"><ele>15.666666666666668</ele><time>2026-05-03T11:40:35Z</time></trkpt><trkpt lat="40.526873369568875" lon="8.330559404521617"><ele>17.0</ele><time>2026-05-03T11:40:36Z</time></trkpt><trkpt lat="40.527050635064576" lon="8.330470502831078"><ele>20.0</ele><time>2026-05-03T11:40:37.001Z</time></trkpt><trkpt lat="40.527231845403236" lon="8.33037732366684"><ele>23.0</ele><time>2026-05-03T11:40:38.001Z</time></trkpt><trkpt lat="40.527406137777554" lon="8.330278358920163"><ele>26.0</ele><time>2026-05-03T11:40:39.001Z</time></trkpt><trkpt lat="40.527576637718845" lon="8.33015483361565"><ele>26.0</ele><time>2026-05-03T11:40:40.001Z</time></trkpt><trkpt lat="40.52774753484422" lon="8.33000438568978"><ele>26.0</ele><time>2026-05-03T11:40:41.001Z</time></trkpt><trkpt lat="40.52790620801527" lon="8.329854121779542"><ele>26.0</ele><time>2026-05-03T11:40:42.001Z</time></trkpt><trkpt lat="40.52804603524486" lon="8.32968197172133"><ele>26.333333333333332</ele><time>2026-05-03T11:40:43.001Z</time></trkpt><trkpt lat="40.52821243727987" lon="8.329558339729505"><ele>26.666666666666664</ele><time>2026-05-03T11:40:44.001Z</time></trkpt><trkpt lat="40.52837038732469" lon="8.329391583048748"><ele>27.0</ele><time>2026-05-03T11:40:45.001Z</time></trkpt><trkpt lat="40.528446371049" lon="8.3292461884033"><ele>27.0</ele><time>2026-05-03T11:40:46.001Z</time></trkpt><trkpt lat="40.52853075758323" lon="8.329124010249203"><ele>27.0</ele><time>2026-05-03T11:40:47.001Z</time></trkpt><trkpt lat="40.52861129366156" lon="8.32892767706338"><ele>27.0</ele><time>2026-05-03T11:40:48.001Z</time></trkpt><trkpt lat="40.528688298422395" lon="8.32879890960227"><ele>27.0</ele><time>2026-05-03T11:40:49.001Z</time></trkpt><trkpt lat="40.528788496298155" lon="8.328725677482934"><ele>24.5</ele><time>2026-05-03T11:40:50.001Z</time></trkpt><trkpt lat="40.52891332201809" lon="8.328708091626327"><ele>22.0</ele><time>2026-05-03T11:40:51Z</time></trkpt><trkpt lat="40.52903872923724" lon="8.328755561873054"><ele>19.5</ele><time>2026-05-03T11:40:52Z</time></trkpt><trkpt lat="40.529182287862334" lon="8.3288074012578"><ele>17.0</ele><time>2026-05-03T11:40:53Z</time></trkpt><trkpt lat="40.529327464890734" lon="8.328846003248568"><ele>17.0</ele><time>2026-05-03T11:40:54Z</time></trkpt><trkpt lat="40.52944860437251" lon="8.32885837509528"><ele>17.0</ele><time>2026-05-03T11:40:55Z</time></trkpt><trkpt lat="40.52956102793309" lon="8.328824304006217"><ele>17.0</ele><time>2026-05-03T11:40:56Z</time></trkpt><trkpt lat="40.52965786548059" lon="8.328724919264559"><ele>17.0</ele><time>2026-05-03T11:40:57Z</time></trkpt><trkpt lat="40.52975253069951" lon="8.3285858385416"><ele>17.666666666666668</ele><time>2026-05-03T11:40:58Z</time></trkpt><trkpt lat="40.52985957853408" lon="8.328415699214531"><ele>18.333333333333332</ele><time>2026-05-03T11:40:59Z</time></trkpt><trkpt lat="40.52998314967505" lon="8.32824044804556"><ele>19.0</ele><time>2026-05-03T11:41:00Z</time></trkpt><trkpt lat="40.53011528925086" lon="8.328058957470232"><ele>19.0</ele><time>2026-05-03T11:41:01Z</time></trkpt><trkpt lat="40.530241886143685" lon="8.327883553183224"><ele>19.0</ele><time>2026-05-03T11:41:02Z</time></trkpt><trkpt lat="40.53036810464661" lon="8.327696140184516"><ele>19.0</ele><time>2026-05-03T11:41:03Z</time></trkpt><trkpt lat="40.53045529607424" lon="8.327542499227446"><ele>17.666666666666664</ele><time>2026-05-03T11:41:04Z</time></trkpt><trkpt lat="40.53059607689073" lon="8.327370322001999"><ele>16.333333333333332</ele><time>2026-05-03T11:41:05Z</time></trkpt><trkpt lat="40.530722481063336" lon="8.327257913672705"><ele>15.0</ele><time>2026-05-03T11:41:06Z</time></trkpt><trkpt lat="40.5308564195191" lon="8.327170543997886"><ele>15.0</ele><time>2026-05-03T11:41:07Z</time></trkpt><trkpt lat="40.53100979214619" lon="8.327102212651667"><ele>15.0</ele><time>2026-05-03T11:41:08Z</time></trkpt><trkpt lat="40.531164522888275" lon="8.32704978726396"><ele>15.0</ele><time>2026-05-03T11:41:09Z</time></trkpt><trkpt lat="40.5313273261885" lon="8.326983007566847"><ele>18.333333333333336</ele><time>2026-05-03T11:41:10Z</time></trkpt><trkpt lat="40.53148543463314" lon="8.326927788836331"><ele>21.666666666666668</ele><time>2026-05-03T11:41:11Z</time></trkpt><trkpt lat="40.531633383559246" lon="8.326885872943551"><ele>25.0</ele><time>2026-05-03T11:41:12Z</time></trkpt><trkpt lat="40.53179729601321" lon="8.326849394749168"><ele>25.0</ele><time>2026-05-03T11:41:13Z</time></trkpt><trkpt lat="40.531964790521265" lon="8.326836096429313"><ele>25.0</ele><time>2026-05-03T11:41:14Z</time></trkpt><trkpt lat="40.53214081956588" lon="8.326873276590693"><ele>25.0</ele><time>2026-05-03T11:41:15Z</time></trkpt><trkpt lat="40.5323184224085" lon="8.326912706061899"><ele>25.0</ele><time>2026-05-03T11:41:16Z</time></trkpt><trkpt lat="40.53249249136504" lon="8.326931492495824"><ele>25.0</ele><time>2026-05-03T11:41:17Z</time></trkpt><trkpt lat="40.53266582223806" lon="8.32691767464943"><ele>25.0</ele><time>2026-05-03T11:41:18Z</time></trkpt><trkpt lat="40.532859855095865" lon="8.326859832682654"><ele>26.333333333333336</ele><time>2026-05-03T11:41:19Z</time></trkpt><trkpt lat="40.53306035622268" lon="8.32678655872323"><ele>27.666666666666664</ele><time>2026-05-03T11:41:20Z</time></trkpt><trkpt lat="40.533264138208224" lon="8.326704736615744"><ele>29.0</ele><time>2026-05-03T11:41:21Z</time></trkpt><trkpt lat="40.53347919804583" lon="8.326621499677156"><ele>29.0</ele><time>2026-05-03T11:41:22Z</time></trkpt><trkpt lat="40.53369442492901" lon="8.326541132980354"><ele>29.0</ele><time>2026-05-03T11:41:23Z</time></trkpt><trkpt lat="40.53391168103902" lon="8.326456761449183"><ele>20.5</ele><time>2026-05-03T11:41:24Z</time></trkpt><trkpt lat="40.53414294354914" lon="8.32636605083777"><ele>12.0</ele><time>2026-05-03T11:41:25Z</time></trkpt><trkpt lat="40.534371887642465" lon="8.32627110659569"><ele>15.5</ele><time>2026-05-03T11:41:26Z</time></trkpt><trkpt lat="40.534599409979734" lon="8.326173244548752"><ele>19.0</ele><time>2026-05-03T11:41:27Z</time></trkpt><trkpt lat="40.53482237640821" lon="8.326082273995741"><ele>19.0</ele><time>2026-05-03T11:41:28Z</time></trkpt><trkpt lat="40.53504114348799" lon="8.326001987509436"><ele>19.0</ele><time>2026-05-03T11:41:29Z</time></trkpt><trkpt lat="40.53525644193055" lon="8.325933153643525"><ele>19.0</ele><time>2026-05-03T11:41:30Z</time></trkpt><trkpt lat="40.535455961513705" lon="8.325872097947132"><ele>21.666666666666664</ele><time>2026-05-03T11:41:31Z</time></trkpt><trkpt lat="40.5356434488713" lon="8.32580944558357"><ele>24.333333333333332</ele><time>2026-05-03T11:41:32Z</time></trkpt><trkpt lat="40.535816176307534" lon="8.325741419275662"><ele>27.0</ele><time>2026-05-03T11:41:33Z</time></trkpt><trkpt lat="40.53597856215403" lon="8.325677998118636"><ele>27.0</ele><time>2026-05-03T11:41:34Z</time></trkpt><trkpt lat="40.53612404869623" lon="8.32560355068932"><ele>27.0</ele><time>2026-05-03T11:41:35Z</time></trkpt><trkpt lat="40.53625361229312" lon="8.325500643270745"><ele>27.0</ele><time>2026-05-03T11:41:36Z</time></trkpt><trkpt lat="40.53635970080611" lon="8.325360946866326"><ele>26.666666666666664</ele><time>2026-05-03T11:41:37Z</time></trkpt><trkpt lat="40.53644161776618" lon="8.325191359228594"><ele>26.333333333333332</ele><time>2026-05-03T11:41:38Z</time></trkpt><trkpt lat="40.536515285330665" lon="8.324980491617106"><ele>26.0</ele><time>2026-05-03T11:41:39Z</time></trkpt><trkpt lat="40.53658581214667" lon="8.324756110300793"><ele>21.333333333333332</ele><time>2026-05-03T11:41:40Z</time></trkpt><trkpt lat="40.536654994381024" lon="8.324543722033082"><ele>16.666666666666664</ele><time>2026-05-03T11:41:41Z</time></trkpt><trkpt lat="40.53673018005481" lon="8.32434364940867"><ele>12.0</ele><time>2026-05-03T11:41:42Z</time></trkpt><trkpt lat="40.53682554388326" lon="8.324171668856732"><ele>12.0</ele><time>2026-05-03T11:41:43Z</time></trkpt><trkpt lat="40.536939427653046" lon="8.324040307740551"><ele>12.0</ele><time>2026-05-03T11:41:44Z</time></trkpt><trkpt lat="40.53707152016212" lon="8.323953503451502"><ele>12.0</ele><time>2026-05-03T11:41:45Z</time></trkpt><trkpt lat="40.537204586024174" lon="8.32389935026279"><ele>12.0</ele><time>2026-05-03T11:41:46Z</time></trkpt><trkpt lat="40.537338639947734" lon="8.323876766816388"><ele>12.0</ele><time>2026-05-03T11:41:47Z</time></trkpt><trkpt lat="40.53746673129509" lon="8.323877529068115"><ele>12.0</ele><time>2026-05-03T11:41:48Z</time></trkpt><trkpt lat="40.53761340851301" lon="8.323911431845008"><ele>12.0</ele><time>2026-05-03T11:41:49Z</time></trkpt><trkpt lat="40.53776913412502" lon="8.323967108881044"><ele>12.0</ele><time>2026-05-03T11:41:50Z</time></trkpt><trkpt lat="40.53793880319216" lon="8.324025085746628"><ele>12.0</ele><time>2026-05-03T11:41:51Z</time></trkpt><trkpt lat="40.538107418924206" lon="8.324083132329552"><ele>12.0</ele><time>2026-05-03T11:41:52Z</time></trkpt><trkpt lat="40.53829607508735" lon="8.324142209924458"><ele>12.0</ele><time>2026-05-03T11:41:53Z</time></trkpt><trkpt lat="40.5384908314252" lon="8.324206160577852"><ele>12.0</ele><time>2026-05-03T11:41:54Z</time></trkpt><trkpt lat="40.53866556741358" lon="8.324273919066568"><ele>12.0</ele><time>2026-05-03T11:41:55Z</time></trkpt><trkpt lat="40.538839041889275" lon="8.324330297181247"><ele>12.0</ele><time>2026-05-03T11:41:56Z</time></trkpt><trkpt lat="40.53900651671635" lon="8.324370522543315"><ele>11.666666666666666</ele><time>2026-05-03T11:41:57Z</time></trkpt><trkpt lat="40.539181238315585" lon="8.324367597016222"><ele>11.333333333333332</ele><time>2026-05-03T11:41:58Z</time></trkpt><trkpt lat="40.539341812527915" lon="8.324319173636162"><ele>11.0</ele><time>2026-05-03T11:41:59Z</time></trkpt><trkpt lat="40.53950978246369" lon="8.324230465313361"><ele>9.0</ele><time>2026-05-03T11:42:00Z</time></trkpt><trkpt lat="40.53968697487114" lon="8.324112461461663"><ele>7.0</ele><time>2026-05-03T11:42:01Z</time></trkpt><trkpt lat="40.53986886635932" lon="8.32398279041799"><ele>5.0</ele><time>2026-05-03T11:42:02Z</time></trkpt><trkpt lat="40.54005662593652" lon="8.323842630082796"><ele>5.0</ele><time>2026-05-03T11:42:03Z</time></trkpt><trkpt lat="40.540243025379056" lon="8.323705436773663"><ele>5.0</ele><time>2026-05-03T11:42:04Z</time></trkpt><trkpt lat="40.54043342983255" lon="8.323573950581695"><ele>5.0</ele><time>2026-05-03T11:42:05Z</time></trkpt><trkpt lat="40.540610274045726" lon="8.323445703920964"><ele>5.0</ele><time>2026-05-03T11:42:06Z</time></trkpt><trkpt lat="40.54077210554461" lon="8.32331739163647"><ele>5.0</ele><time>2026-05-03T11:42:07Z</time></trkpt><trkpt lat="40.54092508865455" lon="8.323164755906966"><ele>5.0</ele><time>2026-05-03T11:42:08Z</time></trkpt><trkpt lat="40.54107182015271" lon="8.322979778764575"><ele>5.0</ele><time>2026-05-03T11:42:09Z</time></trkpt><trkpt lat="40.54120648154502" lon="8.32277418034902"><ele>5.0</ele><time>2026-05-03T11:42:10Z</time></trkpt><trkpt lat="40.54132150841676" lon="8.322567252331979"><ele>5.0</ele><time>2026-05-03T11:42:11Z</time></trkpt><trkpt lat="40.54143265489235" lon="8.322383112311211"><ele>5.25</ele><time>2026-05-03T11:42:12Z</time></trkpt><trkpt lat="40.54153631327088" lon="8.322220234358456"><ele>5.5</ele><time>2026-05-03T11:42:13Z</time></trkpt><trkpt lat="40.54163726628958" lon="8.322092717210552"><ele>5.75</ele><time>2026-05-03T11:42:14Z</time></trkpt><trkpt lat="40.54175933767756" lon="8.322006030478004"><ele>6.0</ele><time>2026-05-03T11:42:15Z</time></trkpt><trkpt lat="40.54188084790859" lon="8.321975538357142"><ele>6.0</ele><time>2026-05-03T11:42:16Z</time></trkpt><trkpt lat="40.54200590999778" lon="8.321985429640085"><ele>6.0</ele><time>2026-05-03T11:42:17Z</time></trkpt><trkpt lat="40.542117649355376" lon="8.322044069978027"><ele>6.0</ele><time>2026-05-03T11:42:18Z</time></trkpt><trkpt lat="40.54220796619897" lon="8.322142565517405"><ele>6.0</ele><time>2026-05-03T11:42:19Z</time></trkpt><trkpt lat="40.542275227743765" lon="8.322279325542782"><ele>7.0</ele><time>2026-05-03T11:42:20Z</time></trkpt><trkpt lat="40.54232200114032" lon="8.32243214331571"><ele>8.0</ele><time>2026-05-03T11:42:21Z</time></trkpt><trkpt lat="40.542379788052926" lon="8.322590924837822"><ele>9.0</ele><time>2026-05-03T11:42:22Z</time></trkpt><trkpt lat="40.542440767679565" lon="8.322789537972225"><ele>10.0</ele><time>2026-05-03T11:42:23Z</time></trkpt><trkpt lat="40.54256809830327" lon="8.322872553691662"><ele>10.0</ele><time>2026-05-03T11:42:24Z</time></trkpt><trkpt lat="40.5426918144189" lon="8.322980203924908"><ele>10.0</ele><time>2026-05-03T11:42:25Z</time></trkpt><trkpt lat="40.54282802267267" lon="8.3230606532419"><ele>10.0</ele><time>2026-05-03T11:42:26Z</time></trkpt><trkpt lat="40.542970791652834" lon="8.323107320491891"><ele>10.0</ele><time>2026-05-03T11:42:27Z</time></trkpt><trkpt lat="40.5431038800739" lon="8.323115564845082"><ele>9.5</ele><time>2026-05-03T11:42:28Z</time></trkpt><trkpt lat="40.54323764965504" lon="8.323094820399243"><ele>9.0</ele><time>2026-05-03T11:42:29Z</time></trkpt><trkpt lat="40.54337669921025" lon="8.32304231763417"><ele>8.5</ele><time>2026-05-03T11:42:30Z</time></trkpt><trkpt lat="40.543504161516374" lon="8.322952344055343"><ele>8.0</ele><time>2026-05-03T11:42:31Z</time></trkpt><trkpt lat="40.54361547132525" lon="8.322834518886246"><ele>9.25</ele><time>2026-05-03T11:42:32Z</time></trkpt><trkpt lat="40.54371376458169" lon="8.322690059253828"><ele>10.5</ele><time>2026-05-03T11:42:33Z</time></trkpt><trkpt lat="40.543792798003636" lon="8.322529605824645"><ele>11.75</ele><time>2026-05-03T11:42:34Z</time></trkpt><trkpt lat="40.54384082851195" lon="8.32235183407361"><ele>13.0</ele><time>2026-05-03T11:42:35Z</time></trkpt><trkpt lat="40.54386759389103" lon="8.322170734887242"><ele>13.0</ele><time>2026-05-03T11:42:36Z</time></trkpt><trkpt lat="40.543884538072675" lon="8.321997109224945"><ele>13.0</ele><time>2026-05-03T11:42:37Z</time></trkpt><trkpt lat="40.54390980171165" lon="8.321833586037535"><ele>13.0</ele><time>2026-05-03T11:42:38Z</time></trkpt><trkpt lat="40.543970259509685" lon="8.321672129247759"><ele>13.0</ele><time>2026-05-03T11:42:39Z</time></trkpt><trkpt lat="40.544058093557446" lon="8.32154467296455"><ele>13.0</ele><time>2026-05-03T11:42:40Z</time></trkpt><trkpt lat="40.54417610334024" lon="8.32144919836566"><ele>13.0</ele><time>2026-05-03T11:42:41Z</time></trkpt><trkpt lat="40.54430627111662" lon="8.321397800445549"><ele>13.0</ele><time>2026-05-03T11:42:42Z</time></trkpt><trkpt lat="40.54444911643113" lon="8.321392984062243"><ele>13.0</ele><time>2026-05-03T11:42:43Z</time></trkpt><trkpt lat="40.544595498131734" lon="8.321430196451468"><ele>12.333333333333332</ele><time>2026-05-03T11:42:44Z</time></trkpt><trkpt lat="40.54473096404528" lon="8.321504359482187"><ele>11.666666666666666</ele><time>2026-05-03T11:42:45Z</time></trkpt><trkpt lat="40.54486418128998" lon="8.321609298205471"><ele>11.0</ele><time>2026-05-03T11:42:46Z</time></trkpt><trkpt lat="40.54500136813979" lon="8.321732484245613"><ele>11.0</ele><time>2026-05-03T11:42:47Z</time></trkpt><trkpt lat="40.54515078603187" lon="8.321848419699055"><ele>11.0</ele><time>2026-05-03T11:42:48Z</time></trkpt><trkpt lat="40.54531594463811" lon="8.321938479681927"><ele>11.0</ele><time>2026-05-03T11:42:49Z</time></trkpt><trkpt lat="40.54549213297595" lon="8.322013252448928"><ele>10.666666666666666</ele><time>2026-05-03T11:42:50Z</time></trkpt><trkpt lat="40.545660667644704" lon="8.322080204804907"><ele>10.333333333333334</ele><time>2026-05-03T11:42:51Z</time></trkpt><trkpt lat="40.54582627965445" lon="8.32214917046042"><ele>10.0</ele><time>2026-05-03T11:42:52Z</time></trkpt><trkpt lat="40.545983290171456" lon="8.322217880745463"><ele>13.0</ele><time>2026-05-03T11:42:53Z</time></trkpt><trkpt lat="40.54613915206577" lon="8.322285276699352"><ele>16.0</ele><time>2026-05-03T11:42:54Z</time></trkpt><trkpt lat="40.546295324022644" lon="8.322356809720274"><ele>19.0</ele><time>2026-05-03T11:42:55Z</time></trkpt><trkpt lat="40.54644480541244" lon="8.322440684435954"><ele>19.0</ele><time>2026-05-03T11:42:56Z</time></trkpt><trkpt lat="40.546586289881596" lon="8.32253773572537"><ele>19.0</ele><time>2026-05-03T11:42:57Z</time></trkpt><trkpt lat="40.54671277978221" lon="8.322627958476295"><ele>19.0</ele><time>2026-05-03T11:42:58Z</time></trkpt><trkpt lat="40.54683365580764" lon="8.322713459327874"><ele>19.0</ele><time>2026-05-03T11:42:59Z</time></trkpt><trkpt lat="40.54694401255928" lon="8.322793465671433"><ele>19.0</ele><time>2026-05-03T11:43:00Z</time></trkpt><trkpt lat="40.54704410248745" lon="8.32287728649081"><ele>19.0</ele><time>2026-05-03T11:43:01Z</time></trkpt><trkpt lat="40.54712874081247" lon="8.322987057776375"><ele>19.0</ele><time>2026-05-03T11:43:02Z</time></trkpt><trkpt lat="40.547209733697805" lon="8.323120608270017"><ele>19.0</ele><time>2026-05-03T11:43:03Z</time></trkpt><trkpt lat="40.54728465207114" lon="8.323264775350859"><ele>20.5</ele><time>2026-05-03T11:43:04Z</time></trkpt><trkpt lat="40.54734942109195" lon="8.323419763359379"><ele>22.0</ele><time>2026-05-03T11:43:05Z</time></trkpt><trkpt lat="40.547411850746506" lon="8.323581065949499"><ele>23.5</ele><time>2026-05-03T11:43:06Z</time></trkpt><trkpt lat="40.54748069206681" lon="8.323738859418569"><ele>25.0</ele><time>2026-05-03T11:43:07Z</time></trkpt><trkpt lat="40.54755188617366" lon="8.323888757922969"><ele>25.75</ele><time>2026-05-03T11:43:08Z</time></trkpt><trkpt lat="40.547610385893655" lon="8.324023947447307"><ele>26.5</ele><time>2026-05-03T11:43:09Z</time></trkpt><trkpt lat="40.54767076643821" lon="8.324169298989183"><ele>27.25</ele><time>2026-05-03T11:43:10Z</time></trkpt><trkpt lat="40.54772760930995" lon="8.324332000953122"><ele>28.0</ele><time>2026-05-03T11:43:11Z</time></trkpt><trkpt lat="40.547774508381515" lon="8.324507147449975"><ele>28.0</ele><time>2026-05-03T11:43:12Z</time></trkpt><trkpt lat="40.54781388700994" lon="8.324681935446089"><ele>28.0</ele><time>2026-05-03T11:43:13Z</time></trkpt><trkpt lat="40.54784203635474" lon="8.32485109718817"><ele>28.0</ele><time>2026-05-03T11:43:14Z</time></trkpt><trkpt lat="40.54786404800696" lon="8.325014951244032"><ele>28.0</ele><time>2026-05-03T11:43:15Z</time></trkpt><trkpt lat="40.54788079401135" lon="8.32517333475774"><ele>28.2</ele><time>2026-05-03T11:43:16Z</time></trkpt><trkpt lat="40.54789522326804" lon="8.325318845423654"><ele>28.4</ele><time>2026-05-03T11:43:17Z</time></trkpt><trkpt lat="40.54791083841942" lon="8.325469426298849"><ele>28.599999999999998</ele><time>2026-05-03T11:43:18Z</time></trkpt><trkpt lat="40.54792363462513" lon="8.325616194225919"><ele>28.799999999999997</ele><time>2026-05-03T11:43:19Z</time></trkpt><trkpt lat="40.54793788483179" lon="8.325749215653097"><ele>29.0</ele><time>2026-05-03T11:43:20Z</time></trkpt><trkpt lat="40.5479543636881" lon="8.325860361794268"><ele>29.499999999999996</ele><time>2026-05-03T11:43:21Z</time></trkpt><trkpt lat="40.54798885304522" lon="8.325936979410988"><ele>30.0</ele><time>2026-05-03T11:43:22Z</time></trkpt><trkpt lat="40.548093876136306" lon="8.325977498188758"><ele>30.5</ele><time>2026-05-03T11:43:24Z</time></trkpt><trkpt lat="40.54816197904167" lon="8.325931790589019"><ele>31.0</ele><time>2026-05-03T11:43:25Z</time></trkpt><trkpt lat="40.5482355261782" lon="8.325867800196832"><ele>31.499999999999996</ele><time>2026-05-03T11:43:26Z</time></trkpt><trkpt lat="40.54831995317762" lon="8.32579529208635"><ele>32.0</ele><time>2026-05-03T11:43:27Z</time></trkpt><trkpt lat="40.5484156931653" lon="8.325718212790893"><ele>32.0</ele><time>2026-05-03T11:43:28Z</time></trkpt><trkpt lat="40.54851853825667" lon="8.3256407645873"><ele>32.0</ele><time>2026-05-03T11:43:29Z</time></trkpt><trkpt lat="40.548614947268526" lon="8.325573504757607"><ele>32.0</ele><time>2026-05-03T11:43:30Z</time></trkpt><trkpt lat="40.54871213922915" lon="8.3255085658882"><ele>32.0</ele><time>2026-05-03T11:43:31Z</time></trkpt><trkpt lat="40.54881429458088" lon="8.325440221362639"><ele>32.0</ele><time>2026-05-03T11:43:32Z</time></trkpt><trkpt lat="40.54892141875541" lon="8.32536817896696"><ele>32.0</ele><time>2026-05-03T11:43:33Z</time></trkpt><trkpt lat="40.54902598063092" lon="8.3253079499089"><ele>32.0</ele><time>2026-05-03T11:43:34Z</time></trkpt><trkpt lat="40.54913925570095" lon="8.325242482920952"><ele>32.0</ele><time>2026-05-03T11:43:35Z</time></trkpt><trkpt lat="40.549235618248225" lon="8.325280282419078"><ele>32.0</ele><time>2026-05-03T11:43:36Z</time></trkpt><trkpt lat="40.54933789216511" lon="8.325315679570473"><ele>32.0</ele><time>2026-05-03T11:43:37Z</time></trkpt><trkpt lat="40.54944793136697" lon="8.32536442144598"><ele>32.0</ele><time>2026-05-03T11:43:38Z</time></trkpt><trkpt lat="40.54957383995904" lon="8.325413612848514"><ele>32.0</ele><time>2026-05-03T11:43:39Z</time></trkpt><trkpt lat="40.54971071358671" lon="8.325460681405835"><ele>32.0</ele><time>2026-05-03T11:43:40Z</time></trkpt><trkpt lat="40.54984501420598" lon="8.325509088103432"><ele>32.0</ele><time>2026-05-03T11:43:41Z</time></trkpt><trkpt lat="40.549980486872734" lon="8.325554765022341"><ele>32.0</ele><time>2026-05-03T11:43:42Z</time></trkpt><trkpt lat="40.550117488866874" lon="8.325602327773689"><ele>32.0</ele><time>2026-05-03T11:43:43Z</time></trkpt><trkpt lat="40.55025206333501" lon="8.325651113040038"><ele>31.0</ele><time>2026-05-03T11:43:44Z</time></trkpt><trkpt lat="40.55039493192964" lon="8.325702362313582"><ele>30.0</ele><time>2026-05-03T11:43:45Z</time></trkpt><trkpt lat="40.550543124164115" lon="8.325732990863361"><ele>29.0</ele><time>2026-05-03T11:43:46Z</time></trkpt><trkpt lat="40.5506754352726" lon="8.325776523982068"><ele>28.0</ele><time>2026-05-03T11:43:47Z</time></trkpt><trkpt lat="40.55080546086749" lon="8.325815026403648"><ele>28.0</ele><time>2026-05-03T11:43:48Z</time></trkpt><trkpt lat="40.550930153866545" lon="8.325856682450985"><ele>28.0</ele><time>2026-05-03T11:43:49Z</time></trkpt><trkpt lat="40.55104866337718" lon="8.325899324847128"><ele>28.0</ele><time>2026-05-03T11:43:50Z</time></trkpt><trkpt lat="40.55116068932165" lon="8.32593618365543"><ele>28.0</ele><time>2026-05-03T11:43:51Z</time></trkpt><trkpt lat="40.551255301574166" lon="8.325967820980486"><ele>27.666666666666668</ele><time>2026-05-03T11:43:52Z</time></trkpt><trkpt lat="40.55133867138866" lon="8.325996348873414"><ele>27.333333333333336</ele><time>2026-05-03T11:43:53Z</time></trkpt><trkpt lat="40.55141923874638" lon="8.326023918637327"><ele>27.0</ele><time>2026-05-03T11:43:54Z</time></trkpt><trkpt lat="40.551490218024874" lon="8.326049111104968"><ele>26.666666666666664</ele><time>2026-05-03T11:43:55Z</time></trkpt><trkpt lat="40.55155794851924" lon="8.326072707164377"><ele>26.333333333333332</ele><time>2026-05-03T11:43:56Z</time></trkpt><trkpt lat="40.55164422539826" lon="8.326102764419225"><ele>26.0</ele><time>2026-05-03T11:43:58Z</time></trkpt><trkpt lat="40.55170842889457" lon="8.326125131713626"><ele>26.0</ele><time>2026-05-03T11:44:59Z</time></trkpt><trkpt lat="40.55181323876336" lon="8.32615983463323"><ele>26.0</ele><time>2026-05-03T11:45:01Z</time></trkpt><trkpt lat="40.55187823243708" lon="8.326179202371105"><ele>26.0</ele><time>2026-05-03T11:45:02Z</time></trkpt><trkpt lat="40.55196389888669" lon="8.326205220067402"><ele>26.0</ele><time>2026-05-03T11:45:03Z</time></trkpt><trkpt lat="40.55205503681241" lon="8.326232807927452"><ele>26.0</ele><time>2026-05-03T11:45:04Z</time></trkpt><trkpt lat="40.55216269790186" lon="8.32626539742338"><ele>25.75</ele><time>2026-05-03T11:45:05Z</time></trkpt><trkpt lat="40.55228093531281" lon="8.326317037483395"><ele>25.5</ele><time>2026-05-03T11:45:06Z</time></trkpt><trkpt lat="40.5524089087402" lon="8.326351941909229"><ele>25.25</ele><time>2026-05-03T11:45:07Z</time></trkpt><trkpt lat="40.552538315271164" lon="8.326385677375605"><ele>25.0</ele><time>2026-05-03T11:45:08Z</time></trkpt><trkpt lat="40.55267275317311" lon="8.326425056045494"><ele>25.75</ele><time>2026-05-03T11:45:09Z</time></trkpt><trkpt lat="40.552807182221336" lon="8.326467308907041"><ele>26.5</ele><time>2026-05-03T11:45:10Z</time></trkpt><trkpt lat="40.55293801875119" lon="8.32650693911919"><ele>27.25</ele><time>2026-05-03T11:45:11Z</time></trkpt><trkpt lat="40.55306160975517" lon="8.326547715549337"><ele>28.0</ele><time>2026-05-03T11:45:12Z</time></trkpt><trkpt lat="40.55318190844257" lon="8.326586924776864"><ele>28.0</ele><time>2026-05-03T11:45:13Z</time></trkpt><trkpt lat="40.55330137006677" lon="8.326624616659958"><ele>28.0</ele><time>2026-05-03T11:45:14Z</time></trkpt><trkpt lat="40.55342264016936" lon="8.326661187881157"><ele>28.0</ele><time>2026-05-03T11:45:15Z</time></trkpt><trkpt lat="40.55354097317448" lon="8.326696593346309"><ele>28.0</ele><time>2026-05-03T11:45:16Z</time></trkpt><trkpt lat="40.553659621739975" lon="8.326731980684707"><ele>28.4</ele><time>2026-05-03T11:45:17Z</time></trkpt><trkpt lat="40.553775602604674" lon="8.32676835271691"><ele>28.799999999999997</ele><time>2026-05-03T11:45:18Z</time></trkpt><trkpt lat="40.553887125667764" lon="8.326804114941199"><ele>29.2</ele><time>2026-05-03T11:45:19Z</time></trkpt><trkpt lat="40.55398937868079" lon="8.326837216910588"><ele>29.6</ele><time>2026-05-03T11:45:20Z</time></trkpt><trkpt lat="40.55408440173113" lon="8.326869672283753"><ele>30.0</ele><time>2026-05-03T11:45:21Z</time></trkpt><trkpt lat="40.55417931842018" lon="8.326898645062878"><ele>30.0</ele><time>2026-05-03T11:45:22Z</time></trkpt><trkpt lat="40.554271153913426" lon="8.326921127030575"><ele>30.0</ele><time>2026-05-03T11:45:23Z</time></trkpt><trkpt lat="40.55437104375058" lon="8.326951281885465"><ele>30.0</ele><time>2026-05-03T11:45:24Z</time></trkpt><trkpt lat="40.55447611197559" lon="8.326981405092347"><ele>30.0</ele><time>2026-05-03T11:45:25Z</time></trkpt><trkpt lat="40.554581228679304" lon="8.327012517261064"><ele>30.0</ele><time>2026-05-03T11:45:26Z</time></trkpt><trkpt lat="40.554679917671585" lon="8.327042065771113"><ele>30.2</ele><time>2026-05-03T11:45:27Z</time></trkpt><trkpt lat="40.55478292703988" lon="8.327069096325856"><ele>30.4</ele><time>2026-05-03T11:45:28Z</time></trkpt><trkpt lat="40.55488177465054" lon="8.327092509119822"><ele>30.6</ele><time>2026-05-03T11:45:29Z</time></trkpt><trkpt lat="40.55498534929762" lon="8.327114321522016"><ele>30.8</ele><time>2026-05-03T11:45:30Z</time></trkpt><trkpt lat="40.55508785773432" lon="8.327134496605266"><ele>31.0</ele><time>2026-05-03T11:45:31Z</time></trkpt><trkpt lat="40.55519643836998" lon="8.327156074833573"><ele>31.0</ele><time>2026-05-03T11:45:32Z</time></trkpt><trkpt lat="40.55531101704187" lon="8.327184948991755"><ele>31.0</ele><time>2026-05-03T11:45:33Z</time></trkpt><trkpt lat="40.555427138287406" lon="8.327219104889593"><ele>31.0</ele><time>2026-05-03T11:45:34Z</time></trkpt><trkpt lat="40.55553859123264" lon="8.32725478755389"><ele>31.0</ele><time>2026-05-03T11:45:35Z</time></trkpt><trkpt lat="40.55567336623297" lon="8.32728424983069"><ele>31.25</ele><time>2026-05-03T11:45:36Z</time></trkpt><trkpt lat="40.5558160676414" lon="8.327327943978105"><ele>31.5</ele><time>2026-05-03T11:45:37Z</time></trkpt><trkpt lat="40.55596596243016" lon="8.32737552765085"><ele>31.75</ele><time>2026-05-03T11:45:38Z</time></trkpt><trkpt lat="40.55609857122526" lon="8.327414894015552"><ele>32.0</ele><time>2026-05-03T11:45:39Z</time></trkpt><trkpt lat="40.55624910607014" lon="8.327456809692988"><ele>32.0</ele><time>2026-05-03T11:45:40Z</time></trkpt><trkpt lat="40.55638980565211" lon="8.327499272596103"><ele>32.0</ele><time>2026-05-03T11:45:41Z</time></trkpt><trkpt lat="40.55651623165092" lon="8.32754186394514"><ele>32.0</ele><time>2026-05-03T11:45:42Z</time></trkpt><trkpt lat="40.556631884806045" lon="8.32758643351838"><ele>32.0</ele><time>2026-05-03T11:45:43Z</time></trkpt><trkpt lat="40.55674193946054" lon="8.327621954743673"><ele>32.0</ele><time>2026-05-03T11:45:44Z</time></trkpt><trkpt lat="40.55685425374112" lon="8.327655752125917"><ele>32.0</ele><time>2026-05-03T11:45:45Z</time></trkpt><trkpt lat="40.556965962449745" lon="8.327682985895134"><ele>32.0</ele><time>2026-05-03T11:45:46Z</time></trkpt><trkpt lat="40.55706855241971" lon="8.327707719891208"><ele>32.0</ele><time>2026-05-03T11:45:47Z</time></trkpt><trkpt lat="40.55716406850608" lon="8.327734737856774"><ele>32.0</ele><time>2026-05-03T11:45:48Z</time></trkpt><trkpt lat="40.557262433181904" lon="8.327769129687947"><ele>31.400000000000002</ele><time>2026-05-03T11:45:49Z</time></trkpt><trkpt lat="40.55735142978947" lon="8.327799608813594"><ele>30.800000000000004</ele><time>2026-05-03T11:45:50Z</time></trkpt><trkpt lat="40.55744440133593" lon="8.32783938940374"><ele>30.2</ele><time>2026-05-03T11:45:51Z</time></trkpt><trkpt lat="40.55753321231431" lon="8.327871797768251"><ele>29.6</ele><time>2026-05-03T11:45:52Z</time></trkpt><trkpt lat="40.557614835109284" lon="8.327913344715075"><ele>29.0</ele><time>2026-05-03T11:45:53Z</time></trkpt><trkpt lat="40.5576977409155" lon="8.327973204373613"><ele>29.0</ele><time>2026-05-03T11:45:54Z</time></trkpt><trkpt lat="40.55777515378789" lon="8.32803681461316"><ele>29.0</ele><time>2026-05-03T11:45:55Z</time></trkpt><trkpt lat="40.557859850913765" lon="8.328101995145154"><ele>29.0</ele><time>2026-05-03T11:45:56Z</time></trkpt><trkpt lat="40.55794893352522" lon="8.32816617372234"><ele>29.0</ele><time>2026-05-03T11:45:57Z</time></trkpt><trkpt lat="40.55803452269254" lon="8.328225275637061"><ele>29.0</ele><time>2026-05-03T11:45:58Z</time></trkpt><trkpt lat="40.55811229264676" lon="8.328287881574825"><ele>29.0</ele><time>2026-05-03T11:45:59Z</time></trkpt><trkpt lat="40.55818278260146" lon="8.328371189933048"><ele>29.0</ele><time>2026-05-03T11:46:00Z</time></trkpt><trkpt lat="40.558269160506555" lon="8.328420227216988"><ele>29.0</ele><time>2026-05-03T11:46:01Z</time></trkpt><trkpt lat="40.558349154665436" lon="8.328488958959337"><ele>29.0</ele><time>2026-05-03T11:46:02Z</time></trkpt><trkpt lat="40.55842611195685" lon="8.328559390802361"><ele>29.0</ele><time>2026-05-03T11:46:03Z</time></trkpt><trkpt lat="40.55849158365187" lon="8.328628615171112"><ele>28.999999999999996</ele><time>2026-05-03T11:46:04Z</time></trkpt><trkpt lat="40.55855664945448" lon="8.328693309090188"><ele>29.0</ele><time>2026-05-03T11:46:05Z</time></trkpt><trkpt lat="40.55861754177734" lon="8.328716117262406"><ele>29.0</ele><time>2026-05-03T11:46:06Z</time></trkpt><trkpt lat="40.55868686130327" lon="8.328741473136432"><ele>29.0</ele><time>2026-05-03T11:46:08Z</time></trkpt><trkpt lat="40.5587768223392" lon="8.328706474842074"><ele>28.999999999999996</ele><time>2026-05-03T11:46:12Z</time></trkpt><trkpt lat="40.55887789924322" lon="8.32867803230185"><ele>29.0</ele><time>2026-05-03T11:46:14Z</time></trkpt><trkpt lat="40.55900564087372" lon="8.328646786642725"><ele>29.0</ele><time>2026-05-03T11:46:16Z</time></trkpt><trkpt lat="40.55909512131503" lon="8.328604018636096"><ele>29.0</ele><time>2026-05-03T11:46:17Z</time></trkpt><trkpt lat="40.55918272171802" lon="8.328567376150732"><ele>29.0</ele><time>2026-05-03T11:46:18Z</time></trkpt><trkpt lat="40.559272489753695" lon="8.3285283781316"><ele>29.0</ele><time>2026-05-03T11:46:19Z</time></trkpt><trkpt lat="40.559366450889414" lon="8.328489342505582"><ele>29.0</ele><time>2026-05-03T11:46:20Z</time></trkpt><trkpt lat="40.55945977891567" lon="8.328448402389933"><ele>28.2</ele><time>2026-05-03T11:46:21Z</time></trkpt><trkpt lat="40.55955066320921" lon="8.328421997094058"><ele>27.4</ele><time>2026-05-03T11:46:22Z</time></trkpt><trkpt lat="40.55963803586222" lon="8.328395248342707"><ele>26.6</ele><time>2026-05-03T11:46:23Z</time></trkpt><trkpt lat="40.55972386569561" lon="8.328362403448434"><ele>25.8</ele><time>2026-05-03T11:46:24Z</time></trkpt><trkpt lat="40.559817891269866" lon="8.328345104917839"><ele>25.0</ele><time>2026-05-03T11:46:25Z</time></trkpt><trkpt lat="40.559909451615646" lon="8.32831807913907"><ele>25.0</ele><time>2026-05-03T11:46:26Z</time></trkpt><trkpt lat="40.5600003755345" lon="8.32827451055144"><ele>25.0</ele><time>2026-05-03T11:46:27Z</time></trkpt><trkpt lat="40.56009524505512" lon="8.328221039782358"><ele>25.0</ele><time>2026-05-03T11:46:28Z</time></trkpt><trkpt lat="40.56019433030224" lon="8.328164585873655"><ele>25.0</ele><time>2026-05-03T11:46:29Z</time></trkpt><trkpt lat="40.56028279486232" lon="8.32811225359861"><ele>25.0</ele><time>2026-05-03T11:46:30Z</time></trkpt><trkpt lat="40.560373202668735" lon="8.328052917393075"><ele>24.4</ele><time>2026-05-03T11:46:31Z</time></trkpt><trkpt lat="40.56047141270306" lon="8.328000361954619"><ele>23.8</ele><time>2026-05-03T11:46:32Z</time></trkpt><trkpt lat="40.560566248600104" lon="8.327931996365617"><ele>23.200000000000003</ele><time>2026-05-03T11:46:33Z</time></trkpt><trkpt lat="40.56066806752022" lon="8.32790208018204"><ele>22.6</ele><time>2026-05-03T11:46:34Z</time></trkpt><trkpt lat="40.56076536893609" lon="8.327865620360816"><ele>22.0</ele><time>2026-05-03T11:46:35Z</time></trkpt><trkpt lat="40.560862399695985" lon="8.327833688469974"><ele>22.0</ele><time>2026-05-03T11:46:36Z</time></trkpt><trkpt lat="40.56095400211247" lon="8.327804196733537"><ele>22.0</ele><time>2026-05-03T11:46:37Z</time></trkpt><trkpt lat="40.561050856910434" lon="8.327787850734675"><ele>22.0</ele><time>2026-05-03T11:46:38Z</time></trkpt><trkpt lat="40.561149688653245" lon="8.327770847936527"><ele>22.0</ele><time>2026-05-03T11:46:39Z</time></trkpt><trkpt lat="40.56124519903686" lon="8.327753046561577"><ele>22.0</ele><time>2026-05-03T11:46:40Z</time></trkpt><trkpt lat="40.56133647027393" lon="8.32773289966998"><ele>21.666666666666664</ele><time>2026-05-03T11:46:41Z</time></trkpt><trkpt lat="40.561425179965" lon="8.32771392502408"><ele>21.333333333333332</ele><time>2026-05-03T11:46:42Z</time></trkpt><trkpt lat="40.56151222223641" lon="8.327696972132044"><ele>21.0</ele><time>2026-05-03T11:46:43Z</time></trkpt><trkpt lat="40.56159164458796" lon="8.327678741190699"><ele>20.666666666666668</ele><time>2026-05-03T11:46:44Z</time></trkpt><trkpt lat="40.56166738786772" lon="8.327659630051507"><ele>20.333333333333336</ele><time>2026-05-03T11:46:45Z</time></trkpt><trkpt lat="40.56174242552785" lon="8.327641027873598"><ele>20.0</ele><time>2026-05-03T11:46:46Z</time></trkpt><trkpt lat="40.56181325626244" lon="8.327622158986667"><ele>20.0</ele><time>2026-05-03T11:46:47Z</time></trkpt><trkpt lat="40.56189280430548" lon="8.32759606663926"><ele>20.0</ele><time>2026-05-03T11:46:48Z</time></trkpt><trkpt lat="40.56196019565071" lon="8.327580691364002"><ele>20.0</ele><time>2026-05-03T11:46:49Z</time></trkpt><trkpt lat="40.562061662426764" lon="8.327553573724847"><ele>20.0</ele><time>2026-05-03T11:46:51Z</time></trkpt><trkpt lat="40.562164896378754" lon="8.327543967623692"><ele>20.0</ele><time>2026-05-03T11:46:54Z</time></trkpt><trkpt lat="40.56222923065311" lon="8.327534672017736"><ele>20.0</ele><time>2026-05-03T11:46:55Z</time></trkpt><trkpt lat="40.56229304798414" lon="8.327516833805593"><ele>19.8</ele><time>2026-05-03T11:46:56Z</time></trkpt><trkpt lat="40.56236606616332" lon="8.327484165004421"><ele>19.6</ele><time>2026-05-03T11:46:57Z</time></trkpt><trkpt lat="40.56245401729824" lon="8.327448270642677"><ele>19.4</ele><time>2026-05-03T11:46:58Z</time></trkpt><trkpt lat="40.56254777604295" lon="8.327408542888781"><ele>19.2</ele><time>2026-05-03T11:46:59Z</time></trkpt><trkpt lat="40.56265796724879" lon="8.32735466979061"><ele>19.0</ele><time>2026-05-03T11:47:00Z</time></trkpt><trkpt lat="40.562781097066015" lon="8.327298268891159"><ele>18.25</ele><time>2026-05-03T11:47:01Z</time></trkpt><trkpt lat="40.56290954894832" lon="8.327256166721257"><ele>17.5</ele><time>2026-05-03T11:47:02Z</time></trkpt><trkpt lat="40.563027623840156" lon="8.327221641616331"><ele>16.75</ele><time>2026-05-03T11:47:03Z</time></trkpt><trkpt lat="40.563137404742434" lon="8.327186178261268"><ele>16.0</ele><time>2026-05-03T11:47:04Z</time></trkpt><trkpt lat="40.56324103060418" lon="8.327151342009167"><ele>15.8</ele><time>2026-05-03T11:47:05Z</time></trkpt><trkpt lat="40.56333739873329" lon="8.327112616503344"><ele>15.600000000000001</ele><time>2026-05-03T11:47:06Z</time></trkpt><trkpt lat="40.563411874007194" lon="8.327076487482957"><ele>15.4</ele><time>2026-05-03T11:47:07Z</time></trkpt><trkpt lat="40.56351540848493" lon="8.327017166398699"><ele>15.2</ele><time>2026-05-03T11:47:09Z</time></trkpt><trkpt lat="40.563589750084866" lon="8.326959028583575"><ele>15.0</ele><time>2026-05-03T11:47:11Z</time></trkpt><trkpt lat="40.56368154425674" lon="8.326914409192979"><ele>15.0</ele><time>2026-05-03T11:47:13Z</time></trkpt><trkpt lat="40.563784932993" lon="8.32692783638153"><ele>15.0</ele><time>2026-05-03T11:47:15Z</time></trkpt><trkpt lat="40.563900031393494" lon="8.327025790943535"><ele>15.0</ele><time>2026-05-03T11:47:17Z</time></trkpt><trkpt lat="40.56398699381225" lon="8.327154583722896"><ele>15.0</ele><time>2026-05-03T11:47:19Z</time></trkpt><trkpt lat="40.56403596949538" lon="8.327268824684356"><ele>15.0</ele><time>2026-05-03T11:47:20Z</time></trkpt><trkpt lat="40.564083752467724" lon="8.327401490785265"><ele>15.0</ele><time>2026-05-03T11:47:21Z</time></trkpt><trkpt lat="40.56414619825227" lon="8.327540548663716"><ele>15.0</ele><time>2026-05-03T11:47:22Z</time></trkpt><trkpt lat="40.56421582733897" lon="8.327680857599905"><ele>15.0</ele><time>2026-05-03T11:47:23Z</time></trkpt><trkpt lat="40.56428917470316" lon="8.327833101636426"><ele>15.0</ele><time>2026-05-03T11:47:24Z</time></trkpt><trkpt lat="40.56435995961197" lon="8.327988560599163"><ele>15.0</ele><time>2026-05-03T11:47:25Z</time></trkpt><trkpt lat="40.564435899549366" lon="8.328149340462922"><ele>15.0</ele><time>2026-05-03T11:47:26Z</time></trkpt><trkpt lat="40.564518536690706" lon="8.32831787432057"><ele>15.0</ele><time>2026-05-03T11:47:27Z</time></trkpt><trkpt lat="40.564616926563275" lon="8.32851562522645"><ele>15.666666666666668</ele><time>2026-05-03T11:47:28Z</time></trkpt><trkpt lat="40.564700075329434" lon="8.328714002167887"><ele>16.333333333333336</ele><time>2026-05-03T11:47:29Z</time></trkpt><trkpt lat="40.56477554580552" lon="8.328899952104566"><ele>17.0</ele><time>2026-05-03T11:47:30Z</time></trkpt><trkpt lat="40.56485107865683" lon="8.329068255591698"><ele>17.0</ele><time>2026-05-03T11:47:31Z</time></trkpt><trkpt lat="40.564927061706584" lon="8.329233333339758"><ele>17.0</ele><time>2026-05-03T11:47:32Z</time></trkpt><trkpt lat="40.56500611179748" lon="8.329403513070947"><ele>17.0</ele><time>2026-05-03T11:47:33Z</time></trkpt><trkpt lat="40.565087257712776" lon="8.329582531456168"><ele>17.25</ele><time>2026-05-03T11:47:34Z</time></trkpt><trkpt lat="40.56516632154747" lon="8.329766841561645"><ele>17.5</ele><time>2026-05-03T11:47:35Z</time></trkpt><trkpt lat="40.56523811261612" lon="8.329940325497299"><ele>17.75</ele><time>2026-05-03T11:47:36Z</time></trkpt><trkpt lat="40.56530397051043" lon="8.330093534968894"><ele>18.0</ele><time>2026-05-03T11:47:37Z</time></trkpt><trkpt lat="40.56537141430231" lon="8.33023424490256"><ele>18.2</ele><time>2026-05-03T11:47:38Z</time></trkpt><trkpt lat="40.56543468593422" lon="8.330371925915319"><ele>18.4</ele><time>2026-05-03T11:47:39Z</time></trkpt><trkpt lat="40.56549204779042" lon="8.330500335386834"><ele>18.599999999999998</ele><time>2026-05-03T11:47:40Z</time></trkpt><trkpt lat="40.56552947129542" lon="8.330614767076783"><ele>18.8</ele><time>2026-05-03T11:47:41Z</time></trkpt><trkpt lat="40.56554468566745" lon="8.330731607653957"><ele>19.0</ele><time>2026-05-03T11:47:42Z</time></trkpt><trkpt lat="40.565542731683536" lon="8.330851933828162"><ele>19.166666666666664</ele><time>2026-05-03T11:47:43Z</time></trkpt><trkpt lat="40.56553532385405" lon="8.330965353845862"><ele>19.333333333333332</ele><time>2026-05-03T11:47:44Z</time></trkpt><trkpt lat="40.5655425087465" lon="8.331053465893428"><ele>19.5</ele><time>2026-05-03T11:47:45Z</time></trkpt><trkpt lat="40.56562051656029" lon="8.331195106530014"><ele>19.666666666666668</ele><time>2026-05-03T11:47:47Z</time></trkpt><trkpt lat="40.56568812204658" lon="8.331240189016665"><ele>19.833333333333336</ele><time>2026-05-03T11:47:48Z</time></trkpt><trkpt lat="40.56576321217068" lon="8.331243249275827"><ele>20.0</ele><time>2026-05-03T11:47:49Z</time></trkpt><trkpt lat="40.565834753204236" lon="8.331213332323307"><ele>20.0</ele><time>2026-05-03T11:47:50Z</time></trkpt><trkpt lat="40.56589645522001" lon="8.331147927910555"><ele>20.0</ele><time>2026-05-03T11:47:51Z</time></trkpt><trkpt lat="40.565957177189624" lon="8.331052617205097"><ele>20.0</ele><time>2026-05-03T11:47:52Z</time></trkpt><trkpt lat="40.56601818392972" lon="8.330948668197127"><ele>20.0</ele><time>2026-05-03T11:47:53Z</time></trkpt><trkpt lat="40.566010161566844" lon="8.330835359118854"><ele>20.0</ele><time>2026-05-03T11:47:54Z</time></trkpt><trkpt lat="40.566163340107025" lon="8.330754905862012"><ele>19.5</ele><time>2026-05-03T11:47:55Z</time></trkpt><trkpt lat="40.56625501057017" lon="8.330678426848912"><ele>19.0</ele><time>2026-05-03T11:47:56Z</time></trkpt><trkpt lat="40.566357491533516" lon="8.330604730879179"><ele>18.5</ele><time>2026-05-03T11:47:57Z</time></trkpt><trkpt lat="40.56646977915296" lon="8.33052793688801"><ele>18.0</ele><time>2026-05-03T11:47:58Z</time></trkpt><trkpt lat="40.566594326865946" lon="8.330445486260988"><ele>18.0</ele><time>2026-05-03T11:47:59Z</time></trkpt><trkpt lat="40.56671868877616" lon="8.330364671446237"><ele>18.0</ele><time>2026-05-03T11:48:00Z</time></trkpt><trkpt lat="40.566854546406425" lon="8.330274184681306"><ele>18.0</ele><time>2026-05-03T11:48:01Z</time></trkpt><trkpt lat="40.56699752553618" lon="8.330175713334693"><ele>17.333333333333332</ele><time>2026-05-03T11:48:02Z</time></trkpt><trkpt lat="40.567145394665076" lon="8.330073799021276"><ele>16.666666666666664</ele><time>2026-05-03T11:48:03Z</time></trkpt><trkpt lat="40.56730079352178" lon="8.329969713924575"><ele>16.0</ele><time>2026-05-03T11:48:04Z</time></trkpt><trkpt lat="40.567460452057205" lon="8.329860200671668"><ele>16.0</ele><time>2026-05-03T11:48:05Z</time></trkpt><trkpt lat="40.5676214158275" lon="8.329746880062899"><ele>16.0</ele><time>2026-05-03T11:48:06Z</time></trkpt><trkpt lat="40.56778628855638" lon="8.32963152602692"><ele>16.0</ele><time>2026-05-03T11:48:07Z</time></trkpt><trkpt lat="40.56795329312888" lon="8.329517982413037"><ele>15.666666666666666</ele><time>2026-05-03T11:48:08Z</time></trkpt><trkpt lat="40.5681243207509" lon="8.329406734300626"><ele>15.333333333333332</ele><time>2026-05-03T11:48:09Z</time></trkpt><trkpt lat="40.56829641381502" lon="8.329297993031782"><ele>15.0</ele><time>2026-05-03T11:48:10Z</time></trkpt><trkpt lat="40.56846787731722" lon="8.329189392243382"><ele>15.0</ele><time>2026-05-03T11:48:11Z</time></trkpt><trkpt lat="40.56863674842258" lon="8.329082674765829"><ele>15.0</ele><time>2026-05-03T11:48:12Z</time></trkpt><trkpt lat="40.56879210698452" lon="8.328957968360113"><ele>15.0</ele><time>2026-05-03T11:48:13Z</time></trkpt><trkpt lat="40.56894985490929" lon="8.328851816793895"><ele>14.333333333333332</ele><time>2026-05-03T11:48:14Z</time></trkpt><trkpt lat="40.569099119627644" lon="8.328750597652007"><ele>13.666666666666666</ele><time>2026-05-03T11:48:15Z</time></trkpt><trkpt lat="40.56924614615558" lon="8.328673640531349"><ele>13.0</ele><time>2026-05-03T11:48:16Z</time></trkpt><trkpt lat="40.56938018094668" lon="8.32857299339102"><ele>13.0</ele><time>2026-05-03T11:48:17Z</time></trkpt><trkpt lat="40.56949962361823" lon="8.328468225129862"><ele>13.0</ele><time>2026-05-03T11:48:18Z</time></trkpt><trkpt lat="40.569600958839004" lon="8.328348009278624"><ele>13.0</ele><time>2026-05-03T11:48:19Z</time></trkpt><trkpt lat="40.56968457768627" lon="8.328211481002601"><ele>13.0</ele><time>2026-05-03T11:48:20Z</time></trkpt><trkpt lat="40.56974954256078" lon="8.32805305735222"><ele>13.5</ele><time>2026-05-03T11:48:21Z</time></trkpt><trkpt lat="40.56980692067001" lon="8.327878566710927"><ele>14.0</ele><time>2026-05-03T11:48:22Z</time></trkpt><trkpt lat="40.56986343576471" lon="8.327698114081683"><ele>14.5</ele><time>2026-05-03T11:48:23Z</time></trkpt><trkpt lat="40.56991716453931" lon="8.327509449698548"><ele>15.0</ele><time>2026-05-03T11:48:24Z</time></trkpt><trkpt lat="40.56996936797411" lon="8.327308132830156"><ele>14.333333333333332</ele><time>2026-05-03T11:48:25Z</time></trkpt><trkpt lat="40.57002407560916" lon="8.327101091646655"><ele>13.666666666666666</ele><time>2026-05-03T11:48:26Z</time></trkpt><trkpt lat="40.57008212012334" lon="8.326899517830817"><ele>13.0</ele><time>2026-05-03T11:48:27Z</time></trkpt><trkpt lat="40.57013916714734" lon="8.326710964402155"><ele>13.0</ele><time>2026-05-03T11:48:28Z</time></trkpt><trkpt lat="40.570192072049736" lon="8.326531540610171"><ele>13.0</ele><time>2026-05-03T11:48:29Z</time></trkpt><trkpt lat="40.57024746100108" lon="8.32634440311329"><ele>13.0</ele><time>2026-05-03T11:48:30Z</time></trkpt><trkpt lat="40.57029812717472" lon="8.326175869237199"><ele>13.0</ele><time>2026-05-03T11:48:31Z</time></trkpt><trkpt lat="40.570345425578154" lon="8.326017673452506"><ele>13.0</ele><time>2026-05-03T11:48:32Z</time></trkpt><trkpt lat="40.570389283150504" lon="8.325870595165572"><ele>13.0</ele><time>2026-05-03T11:48:33Z</time></trkpt><trkpt lat="40.57042811672606" lon="8.325735533637442"><ele>13.0</ele><time>2026-05-03T11:48:34Z</time></trkpt><trkpt lat="40.570457221108285" lon="8.325621967123256"><ele>13.0</ele><time>2026-05-03T11:48:35Z</time></trkpt><trkpt lat="40.570473645809955" lon="8.325517951249783"><ele>13.0</ele><time>2026-05-03T11:48:36Z</time></trkpt><trkpt lat="40.57046659620169" lon="8.325416108594268"><ele>13.0</ele><time>2026-05-03T11:48:37Z</time></trkpt><trkpt lat="40.570454685732656" lon="8.325320325465958"><ele>13.0</ele><time>2026-05-03T11:48:38Z</time></trkpt><trkpt lat="40.570428348179185" lon="8.325192143289554"><ele>13.0</ele><time>2026-05-03T11:48:40Z</time></trkpt><trkpt lat="40.57055546189893" lon="8.325105937293296"><ele>13.0</ele><time>2026-05-03T11:48:41Z</time></trkpt><trkpt lat="40.570627972021114" lon="8.325041878817672"><ele>13.0</ele><time>2026-05-03T11:48:42Z</time></trkpt><trkpt lat="40.57070940432608" lon="8.324957550500923"><ele>13.0</ele><time>2026-05-03T11:48:43Z</time></trkpt><trkpt lat="40.570800042665326" lon="8.324869717717435"><ele>13.0</ele><time>2026-05-03T11:48:44Z</time></trkpt><trkpt lat="40.57089435406925" lon="8.324781874566716"><ele>13.0</ele><time>2026-05-03T11:48:45Z</time></trkpt><trkpt lat="40.570994594715174" lon="8.32467498219068"><ele>13.0</ele><time>2026-05-03T11:48:46Z</time></trkpt><trkpt lat="40.57110161720195" lon="8.3245705608757"><ele>13.25</ele><time>2026-05-03T11:48:47Z</time></trkpt><trkpt lat="40.57121099576081" lon="8.324455704837927"><ele>13.5</ele><time>2026-05-03T11:48:48Z</time></trkpt><trkpt lat="40.57131661086086" lon="8.324343840300836"><ele>13.75</ele><time>2026-05-03T11:48:49Z</time></trkpt><trkpt lat="40.57142407950353" lon="8.32423508437872"><ele>14.0</ele><time>2026-05-03T11:48:50Z</time></trkpt><trkpt lat="40.571533303159434" lon="8.32411880939015"><ele>14.0</ele><time>2026-05-03T11:48:51Z</time></trkpt><trkpt lat="40.571635062102665" lon="8.324012115210346"><ele>14.0</ele><time>2026-05-03T11:48:52Z</time></trkpt><trkpt lat="40.57173463974736" lon="8.323904519910172"><ele>14.0</ele><time>2026-05-03T11:48:53Z</time></trkpt><trkpt lat="40.571831873399475" lon="8.323800516574456"><ele>14.0</ele><time>2026-05-03T11:48:54Z</time></trkpt><trkpt lat="40.571928414227095" lon="8.323701110706047"><ele>13.75</ele><time>2026-05-03T11:48:55Z</time></trkpt><trkpt lat="40.57201894567599" lon="8.323600596540185"><ele>13.5</ele><time>2026-05-03T11:48:56Z</time></trkpt><trkpt lat="40.572112050946856" lon="8.323512442755218"><ele>13.25</ele><time>2026-05-03T11:48:57Z</time></trkpt><trkpt lat="40.572201443489575" lon="8.323404412261587"><ele>13.0</ele><time>2026-05-03T11:48:58Z</time></trkpt><trkpt lat="40.57228876806269" lon="8.323308580906945"><ele>13.0</ele><time>2026-05-03T11:48:59Z</time></trkpt><trkpt lat="40.57237212174395" lon="8.323221434881855"><ele>13.0</ele><time>2026-05-03T11:49:00Z</time></trkpt><trkpt lat="40.57245459470924" lon="8.323138034556052"><ele>13.0</ele><time>2026-05-03T11:49:01Z</time></trkpt><trkpt lat="40.57253047846544" lon="8.323048566007696"><ele>13.0</ele><time>2026-05-03T11:49:02Z</time></trkpt><trkpt lat="40.57260743962799" lon="8.322968553142449"><ele>13.0</ele><time>2026-05-03T11:49:03Z</time></trkpt><trkpt lat="40.572677344102125" lon="8.32290385867694"><ele>12.499999999999998</ele><time>2026-05-03T11:49:04Z</time></trkpt><trkpt lat="40.57273640699361" lon="8.322842503577686"><ele>12.0</ele><time>2026-05-03T11:49:05Z</time></trkpt><trkpt lat="40.572810662558055" lon="8.322741912391052"><ele>11.5</ele><time>2026-05-03T11:49:07Z</time></trkpt><trkpt lat="40.57285478363941" lon="8.322647159846621"><ele>11.0</ele><time>2026-05-03T11:49:09Z</time></trkpt><trkpt lat="40.572882902732196" lon="8.322558987764292"><ele>10.5</ele><time>2026-05-03T11:49:11Z</time></trkpt><trkpt lat="40.57295037346285" lon="8.322515100625338"><ele>10.0</ele><time>2026-05-03T11:49:12Z</time></trkpt><trkpt lat="40.572998154674465" lon="8.322438588150955"><ele>10.0</ele><time>2026-05-03T11:49:13Z</time></trkpt><trkpt lat="40.57304320020181" lon="8.32233629816355"><ele>10.0</ele><time>2026-05-03T11:49:14Z</time></trkpt><trkpt lat="40.573092051970974" lon="8.322245387072298"><ele>10.0</ele><time>2026-05-03T11:49:15Z</time></trkpt><trkpt lat="40.5731614921629" lon="8.322185853450128"><ele>10.0</ele><time>2026-05-03T11:49:16Z</time></trkpt><trkpt lat="40.573253024086284" lon="8.322155291709054"><ele>10.0</ele><time>2026-05-03T11:49:17Z</time></trkpt><trkpt lat="40.573353922407044" lon="8.3221496856717"><ele>10.0</ele><time>2026-05-03T11:49:18Z</time></trkpt><trkpt lat="40.573490185488865" lon="8.32216045634106"><ele>10.0</ele><time>2026-05-03T11:49:19Z</time></trkpt><trkpt lat="40.57362615384069" lon="8.322150195692888"><ele>10.0</ele><time>2026-05-03T11:49:20Z</time></trkpt><trkpt lat="40.57377123676673" lon="8.322127732983043"><ele>10.0</ele><time>2026-05-03T11:49:21Z</time></trkpt><trkpt lat="40.573928680339364" lon="8.32208602842232"><ele>10.0</ele><time>2026-05-03T11:49:22Z</time></trkpt><trkpt lat="40.574077957447166" lon="8.322021546592763"><ele>10.0</ele><time>2026-05-03T11:49:23Z</time></trkpt><trkpt lat="40.57421504075711" lon="8.321947551152409"><ele>10.0</ele><time>2026-05-03T11:49:24Z</time></trkpt><trkpt lat="40.574344686794404" lon="8.321860851126488"><ele>10.0</ele><time>2026-05-03T11:49:25Z</time></trkpt><trkpt lat="40.574470881285514" lon="8.32176979206754"><ele>10.0</ele><time>2026-05-03T11:49:26Z</time></trkpt><trkpt lat="40.57459664326678" lon="8.321676839725507"><ele>10.0</ele><time>2026-05-03T11:49:27Z</time></trkpt><trkpt lat="40.574727521482" lon="8.321580724311254"><ele>10.0</ele><time>2026-05-03T11:49:28Z</time></trkpt><trkpt lat="40.574859639019074" lon="8.321482834873494"><ele>9.75</ele><time>2026-05-03T11:49:29Z</time></trkpt><trkpt lat="40.57498517395038" lon="8.32138947182245"><ele>9.5</ele><time>2026-05-03T11:49:30Z</time></trkpt><trkpt lat="40.57511283163649" lon="8.321300381624482"><ele>9.25</ele><time>2026-05-03T11:49:31Z</time></trkpt><trkpt lat="40.57524174753296" lon="8.321209338726531"><ele>9.0</ele><time>2026-05-03T11:49:32Z</time></trkpt><trkpt lat="40.57536666948965" lon="8.321118565420258"><ele>9.0</ele><time>2026-05-03T11:49:33Z</time></trkpt><trkpt lat="40.575484939937446" lon="8.321027907221934"><ele>9.0</ele><time>2026-05-03T11:49:34Z</time></trkpt><trkpt lat="40.575606218936535" lon="8.320939485850204"><ele>9.0</ele><time>2026-05-03T11:49:35Z</time></trkpt><trkpt lat="40.57572929444449" lon="8.32085312470691"><ele>9.0</ele><time>2026-05-03T11:49:36Z</time></trkpt><trkpt lat="40.57584806077708" lon="8.320766215283971"><ele>9.0</ele><time>2026-05-03T11:49:37Z</time></trkpt><trkpt lat="40.57596744782632" lon="8.320676583212311"><ele>9.0</ele><time>2026-05-03T11:49:38Z</time></trkpt><trkpt lat="40.57607926861498" lon="8.320592559319822"><ele>9.0</ele><time>2026-05-03T11:49:39Z</time></trkpt><trkpt lat="40.5761896238298" lon="8.32050958947625"><ele>9.0</ele><time>2026-05-03T11:49:40Z</time></trkpt><trkpt lat="40.576297090765834" lon="8.320432822607852"><ele>9.0</ele><time>2026-05-03T11:49:41Z</time></trkpt><trkpt lat="40.5764014912082" lon="8.320353000549071"><ele>9.0</ele><time>2026-05-03T11:49:42Z</time></trkpt><trkpt lat="40.576514075605644" lon="8.3202733408943"><ele>9.0</ele><time>2026-05-03T11:49:43Z</time></trkpt><trkpt lat="40.576624169050035" lon="8.320193692078005"><ele>9.0</ele><time>2026-05-03T11:49:44Z</time></trkpt><trkpt lat="40.576732030877565" lon="8.320110144306318"><ele>9.0</ele><time>2026-05-03T11:49:45Z</time></trkpt><trkpt lat="40.57684015840646" lon="8.320025237458324"><ele>9.0</ele><time>2026-05-03T11:49:46Z</time></trkpt><trkpt lat="40.57694886011513" lon="8.319944335244324"><ele>9.0</ele><time>2026-05-03T11:49:47Z</time></trkpt><trkpt lat="40.577057399114565" lon="8.319868244571959"><ele>9.0</ele><time>2026-05-03T11:49:48Z</time></trkpt><trkpt lat="40.57716902039132" lon="8.319794593318028"><ele>8.25</ele><time>2026-05-03T11:49:49Z</time></trkpt><trkpt lat="40.577281403858" lon="8.319721786157059"><ele>7.5</ele><time>2026-05-03T11:49:50Z</time></trkpt><trkpt lat="40.57739241445126" lon="8.319649799455945"><ele>6.75</ele><time>2026-05-03T11:49:51Z</time></trkpt><trkpt lat="40.577505829008935" lon="8.319581184742532"><ele>6.0</ele><time>2026-05-03T11:49:52Z</time></trkpt><trkpt lat="40.57761844574207" lon="8.319522599739274"><ele>6.0</ele><time>2026-05-03T11:49:53Z</time></trkpt><trkpt lat="40.57773428045857" lon="8.319469645310551"><ele>6.0</ele><time>2026-05-03T11:49:54Z</time></trkpt><trkpt lat="40.57784733887284" lon="8.319421751260107"><ele>6.0</ele><time>2026-05-03T11:49:55Z</time></trkpt><trkpt lat="40.577964785477185" lon="8.31937822853956"><ele>6.0</ele><time>2026-05-03T11:49:56Z</time></trkpt><trkpt lat="40.57808447723208" lon="8.319339210300623"><ele>6.6</ele><time>2026-05-03T11:49:57Z</time></trkpt><trkpt lat="40.57820467467687" lon="8.319301657471229"><ele>7.199999999999999</ele><time>2026-05-03T11:49:58Z</time></trkpt><trkpt lat="40.578320898171654" lon="8.319265268811375"><ele>7.800000000000001</ele><time>2026-05-03T11:49:59Z</time></trkpt><trkpt lat="40.57842360170326" lon="8.319232466656006"><ele>8.4</ele><time>2026-05-03T11:50:00Z</time></trkpt><trkpt lat="40.57850964715134" lon="8.319205469673634"><ele>9.0</ele><time>2026-05-03T11:50:01Z</time></trkpt><trkpt lat="40.578586924248654" lon="8.319181639233955"><ele>9.0</ele><time>2026-05-03T11:50:02Z</time></trkpt><trkpt lat="40.578657640005936" lon="8.319162401733205"><ele>9.0</ele><time>2026-05-03T11:50:03Z</time></trkpt><trkpt lat="40.57872275681491" lon="8.319141333372373"><ele>9.0</ele><time>2026-05-03T11:50:04Z</time></trkpt><trkpt lat="40.57879843488288" lon="8.319115402225833"><ele>9.0</ele><time>2026-05-03T11:50:05Z</time></trkpt><trkpt lat="40.578886202307984" lon="8.319088268612962"><ele>9.0</ele><time>2026-05-03T11:50:06Z</time></trkpt><trkpt lat="40.57898439775242" lon="8.319058899520412"><ele>9.0</ele><time>2026-05-03T11:50:07Z</time></trkpt><trkpt lat="40.579090608677475" lon="8.319024404173303"><ele>9.0</ele><time>2026-05-03T11:50:08Z</time></trkpt><trkpt lat="40.57920522652494" lon="8.318982969005523"><ele>9.0</ele><time>2026-05-03T11:50:09Z</time></trkpt><trkpt lat="40.5793287530828" lon="8.318938599655006"><ele>9.0</ele><time>2026-05-03T11:50:10Z</time></trkpt><trkpt lat="40.57945539988428" lon="8.318898186797032"><ele>9.0</ele><time>2026-05-03T11:50:11Z</time></trkpt><trkpt lat="40.57958344369181" lon="8.3188583000706"><ele>9.0</ele><time>2026-05-03T11:50:12Z</time></trkpt><trkpt lat="40.57971804440674" lon="8.31882306910287"><ele>9.0</ele><time>2026-05-03T11:50:13Z</time></trkpt><trkpt lat="40.57985643165678" lon="8.318784616679784"><ele>9.0</ele><time>2026-05-03T11:50:14Z</time></trkpt><trkpt lat="40.57999184265384" lon="8.31874762587803"><ele>9.0</ele><time>2026-05-03T11:50:15Z</time></trkpt><trkpt lat="40.58012409556989" lon="8.318706556966927"><ele>9.0</ele><time>2026-05-03T11:50:16Z</time></trkpt><trkpt lat="40.58025992323481" lon="8.318661906974608"><ele>9.0</ele><time>2026-05-03T11:50:17Z</time></trkpt><trkpt lat="40.580399127939494" lon="8.318620279277"><ele>9.0</ele><time>2026-05-03T11:50:18Z</time></trkpt><trkpt lat="40.5805368016976" lon="8.318581915503184"><ele>9.0</ele><time>2026-05-03T11:50:19Z</time></trkpt><trkpt lat="40.58067332699676" lon="8.318540578593492"><ele>10.0</ele><time>2026-05-03T11:50:20Z</time></trkpt><trkpt lat="40.58081234929363" lon="8.318492976884295"><ele>11.0</ele><time>2026-05-03T11:50:21Z</time></trkpt><trkpt lat="40.580959205795175" lon="8.318441348340597"><ele>12.0</ele><time>2026-05-03T11:50:22Z</time></trkpt><trkpt lat="40.58111210345751" lon="8.318394340136756"><ele>12.0</ele><time>2026-05-03T11:50:23Z</time></trkpt><trkpt lat="40.581270717248984" lon="8.318348421935067"><ele>12.0</ele><time>2026-05-03T11:50:24Z</time></trkpt><trkpt lat="40.58143407080807" lon="8.318301399449927"><ele>12.0</ele><time>2026-05-03T11:50:25Z</time></trkpt><trkpt lat="40.581602919982004" lon="8.318249120005374"><ele>12.0</ele><time>2026-05-03T11:50:26Z</time></trkpt><trkpt lat="40.58177612944092" lon="8.318192034872242"><ele>12.0</ele><time>2026-05-03T11:50:27Z</time></trkpt><trkpt lat="40.58195358858067" lon="8.318129074052937"><ele>12.0</ele><time>2026-05-03T11:50:28Z</time></trkpt><trkpt lat="40.58213642750935" lon="8.318068461651603"><ele>12.0</ele><time>2026-05-03T11:50:29Z</time></trkpt><trkpt lat="40.58231977107472" lon="8.318010653562391"><ele>12.0</ele><time>2026-05-03T11:50:30Z</time></trkpt><trkpt lat="40.58249919487219" lon="8.317953144242583"><ele>12.0</ele><time>2026-05-03T11:50:31Z</time></trkpt><trkpt lat="40.58266918445916" lon="8.31789741501107"><ele>12.0</ele><time>2026-05-03T11:50:32Z</time></trkpt><trkpt lat="40.58284009458498" lon="8.317843035168215"><ele>12.0</ele><time>2026-05-03T11:50:33Z</time></trkpt><trkpt lat="40.5830017059051" lon="8.317782612888525"><ele>12.0</ele><time>2026-05-03T11:50:34Z</time></trkpt><trkpt lat="40.583152930008815" lon="8.317705465509656"><ele>12.25</ele><time>2026-05-03T11:50:35Z</time></trkpt><trkpt lat="40.58328303778941" lon="8.317609233905102"><ele>12.5</ele><time>2026-05-03T11:50:36Z</time></trkpt><trkpt lat="40.583401142551004" lon="8.317503195629769"><ele>12.75</ele><time>2026-05-03T11:50:37Z</time></trkpt><trkpt lat="40.58349472218192" lon="8.317395518498126"><ele>13.0</ele><time>2026-05-03T11:50:38Z</time></trkpt><trkpt lat="40.583587867346495" lon="8.317308037790019"><ele>12.999999999999998</ele><time>2026-05-03T11:50:39Z</time></trkpt><trkpt lat="40.58367053245278" lon="8.317253112607505"><ele>13.0</ele><time>2026-05-03T11:50:40Z</time></trkpt><trkpt lat="40.58375020462502" lon="8.317214597240971"><ele>13.0</ele><time>2026-05-03T11:50:41Z</time></trkpt><trkpt lat="40.58383020821257" lon="8.317186695764097"><ele>13.0</ele><time>2026-05-03T11:50:42Z</time></trkpt><trkpt lat="40.58391069282795" lon="8.317177966611501"><ele>12.999999999999998</ele><time>2026-05-03T11:50:43Z</time></trkpt><trkpt lat="40.58400509064192" lon="8.317173732687118"><ele>13.0</ele><time>2026-05-03T11:50:44Z</time></trkpt><trkpt lat="40.58411697494537" lon="8.317193250496702"><ele>13.25</ele><time>2026-05-03T11:50:45Z</time></trkpt><trkpt lat="40.58424580060348" lon="8.317232493336034"><ele>13.5</ele><time>2026-05-03T11:50:46Z</time></trkpt><trkpt lat="40.58437635915822" lon="8.317278048485635"><ele>13.75</ele><time>2026-05-03T11:50:47Z</time></trkpt><trkpt lat="40.58451830995943" lon="8.31732072542827"><ele>14.0</ele><time>2026-05-03T11:50:48Z</time></trkpt><trkpt lat="40.5846677907293" lon="8.317362081692684"><ele>12.666666666666668</ele><time>2026-05-03T11:50:49Z</time></trkpt><trkpt lat="40.58481734271476" lon="8.317398376949471"><ele>11.333333333333334</ele><time>2026-05-03T11:50:50Z</time></trkpt><trkpt lat="40.5849787949821" lon="8.317437228771178"><ele>10.0</ele><time>2026-05-03T11:50:51Z</time></trkpt><trkpt lat="40.58515014325852" lon="8.317474522469729"><ele>10.0</ele><time>2026-05-03T11:50:52Z</time></trkpt><trkpt lat="40.585328650457356" lon="8.317517749279897"><ele>10.0</ele><time>2026-05-03T11:50:53Z</time></trkpt><trkpt lat="40.58550923143706" lon="8.31756422759956"><ele>10.0</ele><time>2026-05-03T11:50:54Z</time></trkpt><trkpt lat="40.585696038244684" lon="8.31761069054104"><ele>8.666666666666668</ele><time>2026-05-03T11:50:55Z</time></trkpt><trkpt lat="40.58588777887318" lon="8.317660077683264"><ele>7.333333333333334</ele><time>2026-05-03T11:50:56Z</time></trkpt><trkpt lat="40.58608445735191" lon="8.317711740025159"><ele>6.0</ele><time>2026-05-03T11:50:57Z</time></trkpt><trkpt lat="40.58629226514033" lon="8.317766792415314"><ele>5.0</ele><time>2026-05-03T11:50:58Z</time></trkpt><trkpt lat="40.586502136201915" lon="8.317821142275374"><ele>4.0</ele><time>2026-05-03T11:50:59Z</time></trkpt><trkpt lat="40.58671614207548" lon="8.317875604553546"><ele>3.0</ele><time>2026-05-03T11:51:00Z</time></trkpt><trkpt lat="40.58693186199969" lon="8.31792925277184"><ele>3.0</ele><time>2026-05-03T11:51:01Z</time></trkpt><trkpt lat="40.587144402697916" lon="8.317982490911279"><ele>3.0</ele><time>2026-05-03T11:51:02Z</time></trkpt><trkpt lat="40.587354873551504" lon="8.318037964173435"><ele>3.0</ele><time>2026-05-03T11:51:03Z</time></trkpt><trkpt lat="40.58756313519574" lon="8.318092828302923"><ele>3.0</ele><time>2026-05-03T11:51:04Z</time></trkpt><trkpt lat="40.58776800889769" lon="8.318142111365763"><ele>3.0</ele><time>2026-05-03T11:51:05Z</time></trkpt><trkpt lat="40.5879678112903" lon="8.318194962019977"><ele>3.0</ele><time>2026-05-03T11:51:06Z</time></trkpt><trkpt lat="40.588161931177574" lon="8.31824948094132"><ele>3.333333333333333</ele><time>2026-05-03T11:51:07Z</time></trkpt><trkpt lat="40.588354801708796" lon="8.318311180194575"><ele>3.6666666666666665</ele><time>2026-05-03T11:51:08Z</time></trkpt><trkpt lat="40.58854159171364" lon="8.318377919734752"><ele>4.0</ele><time>2026-05-03T11:51:09Z</time></trkpt><trkpt lat="40.58872608441429" lon="8.31844778757594"><ele>5.0</ele><time>2026-05-03T11:51:10Z</time></trkpt><trkpt lat="40.588903270037086" lon="8.318522129191456"><ele>6.0</ele><time>2026-05-03T11:51:11Z</time></trkpt><trkpt lat="40.58907073143633" lon="8.318600460361834"><ele>7.0</ele><time>2026-05-03T11:51:12Z</time></trkpt><trkpt lat="40.589230321927666" lon="8.31867931022239"><ele>7.0</ele><time>2026-05-03T11:51:13Z</time></trkpt><trkpt lat="40.589389655696394" lon="8.318759594535363"><ele>7.0</ele><time>2026-05-03T11:51:14Z</time></trkpt><trkpt lat="40.58954735385646" lon="8.318843439745802"><ele>7.0</ele><time>2026-05-03T11:51:15Z</time></trkpt><trkpt lat="40.5896994379607" lon="8.31893305026379"><ele>7.666666666666667</ele><time>2026-05-03T11:51:16Z</time></trkpt><trkpt lat="40.589845896216325" lon="8.31902962442921"><ele>8.333333333333334</ele><time>2026-05-03T11:51:17Z</time></trkpt><trkpt lat="40.58998792235092" lon="8.319132953466752"><ele>9.0</ele><time>2026-05-03T11:51:18Z</time></trkpt><trkpt lat="40.590124700921855" lon="8.319234960749224"><ele>9.0</ele><time>2026-05-03T11:51:19Z</time></trkpt><trkpt lat="40.5902575604749" lon="8.319331486781865"><ele>9.0</ele><time>2026-05-03T11:51:20Z</time></trkpt><trkpt lat="40.590381661039714" lon="8.319425881381262"><ele>9.0</ele><time>2026-05-03T11:51:21Z</time></trkpt><trkpt lat="40.59050164479267" lon="8.319524556108064"><ele>9.0</ele><time>2026-05-03T11:51:22Z</time></trkpt><trkpt lat="40.590614102196525" lon="8.319624220751695"><ele>9.0</ele><time>2026-05-03T11:51:23Z</time></trkpt><trkpt lat="40.590726458337215" lon="8.319722826153983"><ele>9.0</ele><time>2026-05-03T11:51:24Z</time></trkpt><trkpt lat="40.590828630708025" lon="8.319818927975607"><ele>9.0</ele><time>2026-05-03T11:51:25Z</time></trkpt><trkpt lat="40.59092453088424" lon="8.319913149473537"><ele>9.0</ele><time>2026-05-03T11:51:26Z</time></trkpt><trkpt lat="40.591012193603596" lon="8.320002275630875"><ele>9.0</ele><time>2026-05-03T11:51:27Z</time></trkpt><trkpt lat="40.59108185288295" lon="8.320095438229153"><ele>9.0</ele><time>2026-05-03T11:51:28Z</time></trkpt><trkpt lat="40.59112546761736" lon="8.320196792190965"><ele>9.0</ele><time>2026-05-03T11:51:29Z</time></trkpt><trkpt lat="40.59115689512727" lon="8.320299724757096"><ele>9.0</ele><time>2026-05-03T11:51:30Z</time></trkpt><trkpt lat="40.59118799391158" lon="8.320412313539693"><ele>9.0</ele><time>2026-05-03T11:51:31Z</time></trkpt><trkpt lat="40.591236997444135" lon="8.320531593959354"><ele>9.8</ele><time>2026-05-03T11:51:32Z</time></trkpt><trkpt lat="40.59126922685964" lon="8.320655671022351"><ele>10.600000000000001</ele><time>2026-05-03T11:51:33Z</time></trkpt><trkpt lat="40.59129576314133" lon="8.320784862517998"><ele>11.4</ele><time>2026-05-03T11:51:34Z</time></trkpt><trkpt lat="40.59125977533637" lon="8.32093803750489"><ele>12.200000000000001</ele><time>2026-05-03T11:51:35Z</time></trkpt><trkpt lat="40.591261102900816" lon="8.321082825922653"><ele>13.0</ele><time>2026-05-03T11:51:36Z</time></trkpt><trkpt lat="40.59128317070786" lon="8.321231183160426"><ele>13.0</ele><time>2026-05-03T11:51:37Z</time></trkpt><trkpt lat="40.59132614307265" lon="8.32138392124819"><ele>13.0</ele><time>2026-05-03T11:51:38Z</time></trkpt><trkpt lat="40.59137881288283" lon="8.321543930446715"><ele>13.0</ele><time>2026-05-03T11:51:39Z</time></trkpt><trkpt lat="40.5914375944117" lon="8.32171305089665"><ele>13.0</ele><time>2026-05-03T11:51:40Z</time></trkpt><trkpt lat="40.59150079245972" lon="8.321884141321583"><ele>13.0</ele><time>2026-05-03T11:51:41Z</time></trkpt><trkpt lat="40.59156654982642" lon="8.322062141131472"><ele>13.0</ele><time>2026-05-03T11:51:42Z</time></trkpt><trkpt lat="40.59163606687568" lon="8.322238213889971"><ele>13.0</ele><time>2026-05-03T11:51:43Z</time></trkpt><trkpt lat="40.59170603071677" lon="8.322403319629371"><ele>13.0</ele><time>2026-05-03T11:51:44Z</time></trkpt><trkpt lat="40.5917817220603" lon="8.322572592002276"><ele>13.0</ele><time>2026-05-03T11:51:45Z</time></trkpt><trkpt lat="40.59185883708486" lon="8.322742035379944"><ele>13.0</ele><time>2026-05-03T11:51:46Z</time></trkpt><trkpt lat="40.591939678263465" lon="8.322917490759869"><ele>13.0</ele><time>2026-05-03T11:51:47Z</time></trkpt><trkpt lat="40.592025223142485" lon="8.323095316717257"><ele>13.666666666666666</ele><time>2026-05-03T11:51:48Z</time></trkpt><trkpt lat="40.59210880051455" lon="8.323269879475797"><ele>14.333333333333332</ele><time>2026-05-03T11:51:49Z</time></trkpt><trkpt lat="40.592187507680514" lon="8.323441476642413"><ele>15.0</ele><time>2026-05-03T11:51:50Z</time></trkpt><trkpt lat="40.59227167038542" lon="8.32360951596903"><ele>15.0</ele><time>2026-05-03T11:51:51Z</time></trkpt><trkpt lat="40.59235897559024" lon="8.323782473043321"><ele>15.0</ele><time>2026-05-03T11:51:52Z</time></trkpt><trkpt lat="40.59244674028665" lon="8.323952687430952"><ele>15.0</ele><time>2026-05-03T11:51:53Z</time></trkpt><trkpt lat="40.59253836404915" lon="8.324117118382716"><ele>15.333333333333332</ele><time>2026-05-03T11:51:54Z</time></trkpt><trkpt lat="40.59263838352246" lon="8.324283772084655"><ele>15.666666666666666</ele><time>2026-05-03T11:51:55Z</time></trkpt><trkpt lat="40.592733561946034" lon="8.324447921420258"><ele>16.0</ele><time>2026-05-03T11:51:56Z</time></trkpt><trkpt lat="40.592819311094956" lon="8.324607812040995"><ele>16.666666666666664</ele><time>2026-05-03T11:51:57Z</time></trkpt><trkpt lat="40.59290136735316" lon="8.324769720855246"><ele>17.333333333333332</ele><time>2026-05-03T11:51:58Z</time></trkpt><trkpt lat="40.59298370440842" lon="8.324934177547387"><ele>18.0</ele><time>2026-05-03T11:51:59Z</time></trkpt><trkpt lat="40.59306453467447" lon="8.325104162957246"><ele>18.0</ele><time>2026-05-03T11:52:00Z</time></trkpt><trkpt lat="40.593144660978815" lon="8.325276703471156"><ele>18.0</ele><time>2026-05-03T11:52:01Z</time></trkpt><trkpt lat="40.59322293216186" lon="8.325442155664069"><ele>18.0</ele><time>2026-05-03T11:52:02Z</time></trkpt><trkpt lat="40.59330603922094" lon="8.32561381206717"><ele>17.75</ele><time>2026-05-03T11:52:03Z</time></trkpt><trkpt lat="40.59338360563512" lon="8.325776029034714"><ele>17.5</ele><time>2026-05-03T11:52:04Z</time></trkpt><trkpt lat="40.59345681055347" lon="8.325940039013865"><ele>17.25</ele><time>2026-05-03T11:52:05Z</time></trkpt><trkpt lat="40.593529480858926" lon="8.326104948523874"><ele>17.0</ele><time>2026-05-03T11:52:06Z</time></trkpt><trkpt lat="40.5936043862946" lon="8.326267339887476"><ele>17.75</ele><time>2026-05-03T11:52:07Z</time></trkpt><trkpt lat="40.593675134894646" lon="8.326428130271466"><ele>18.5</ele><time>2026-05-03T11:52:08Z</time></trkpt><trkpt lat="40.59375274536071" lon="8.32658506422001"><ele>19.25</ele><time>2026-05-03T11:52:09Z</time></trkpt><trkpt lat="40.593831020208455" lon="8.326746076759534"><ele>20.0</ele><time>2026-05-03T11:52:10Z</time></trkpt><trkpt lat="40.59390920100152" lon="8.326910625430466"><ele>20.0</ele><time>2026-05-03T11:52:11Z</time></trkpt><trkpt lat="40.59398693414423" lon="8.327076413239189"><ele>20.0</ele><time>2026-05-03T11:52:12Z</time></trkpt><trkpt lat="40.59406399851762" lon="8.327228215925105"><ele>20.0</ele><time>2026-05-03T11:52:13Z</time></trkpt><trkpt lat="40.594140826296936" lon="8.327365558021038"><ele>20.0</ele><time>2026-05-03T11:52:14Z</time></trkpt><trkpt lat="40.59422064558695" lon="8.327491967412419"><ele>20.25</ele><time>2026-05-03T11:52:15Z</time></trkpt><trkpt lat="40.59431002770433" lon="8.327615290946058"><ele>20.5</ele><time>2026-05-03T11:52:16Z</time></trkpt><trkpt lat="40.594408281903405" lon="8.327733782717601"><ele>20.75</ele><time>2026-05-03T11:52:17Z</time></trkpt><trkpt lat="40.594520069135655" lon="8.327841848547642"><ele>21.0</ele><time>2026-05-03T11:52:18Z</time></trkpt><trkpt lat="40.59463660668609" lon="8.327936309702917"><ele>21.0</ele><time>2026-05-03T11:52:19Z</time></trkpt><trkpt lat="40.59476053701728" lon="8.32802784599135"><ele>21.0</ele><time>2026-05-03T11:52:20Z</time></trkpt><trkpt lat="40.59488323256988" lon="8.328118920060499"><ele>21.0</ele><time>2026-05-03T11:52:21Z</time></trkpt><trkpt lat="40.59499762780592" lon="8.328212449251243"><ele>21.0</ele><time>2026-05-03T11:52:22Z</time></trkpt><trkpt lat="40.59510916710931" lon="8.328297353425153"><ele>20.5</ele><time>2026-05-03T11:52:23Z</time></trkpt><trkpt lat="40.595213740258494" lon="8.328382281467325"><ele>20.0</ele><time>2026-05-03T11:52:24Z</time></trkpt><trkpt lat="40.59531260279149" lon="8.328471095386934"><ele>19.5</ele><time>2026-05-03T11:52:25Z</time></trkpt><trkpt lat="40.59540226473128" lon="8.32855916996681"><ele>19.0</ele><time>2026-05-03T11:52:26Z</time></trkpt><trkpt lat="40.5954856543392" lon="8.32864130995188"><ele>19.0</ele><time>2026-05-03T11:52:27Z</time></trkpt><trkpt lat="40.595550312453945" lon="8.32872589773944"><ele>19.0</ele><time>2026-05-03T11:52:28Z</time></trkpt><trkpt lat="40.595598168445456" lon="8.328817543916601"><ele>19.0</ele><time>2026-05-03T11:52:29Z</time></trkpt><trkpt lat="40.59563220173605" lon="8.328922501338933"><ele>19.0</ele><time>2026-05-03T11:52:30Z</time></trkpt><trkpt lat="40.59566322228061" lon="8.32904041654212"><ele>19.0</ele><time>2026-05-03T11:52:31Z</time></trkpt><trkpt lat="40.5956929742854" lon="8.329173521220671"><ele>18.25</ele><time>2026-05-03T11:52:32Z</time></trkpt><trkpt lat="40.59572679366586" lon="8.329322248007507"><ele>17.5</ele><time>2026-05-03T11:52:33Z</time></trkpt><trkpt lat="40.59576539534636" lon="8.329483568421045"><ele>16.75</ele><time>2026-05-03T11:52:34Z</time></trkpt><trkpt lat="40.59580322274115" lon="8.32963536305264"><ele>16.0</ele><time>2026-05-03T11:52:35Z</time></trkpt><trkpt lat="40.59583825502769" lon="8.329787146529146"><ele>15.5</ele><time>2026-05-03T11:52:36Z</time></trkpt><trkpt lat="40.59587921618341" lon="8.329945884769073"><ele>15.0</ele><time>2026-05-03T11:52:37Z</time></trkpt><trkpt lat="40.595916866289336" lon="8.330109472244374"><ele>14.5</ele><time>2026-05-03T11:52:38Z</time></trkpt><trkpt lat="40.59594773790496" lon="8.330262231991249"><ele>14.0</ele><time>2026-05-03T11:52:39Z</time></trkpt><trkpt lat="40.59598046381073" lon="8.330406905726056"><ele>14.0</ele><time>2026-05-03T11:52:40Z</time></trkpt><trkpt lat="40.59600680282095" lon="8.330544391199842"><ele>13.999999999999998</ele><time>2026-05-03T11:52:41Z</time></trkpt><trkpt lat="40.59602830678205" lon="8.330674956637676"><ele>13.999999999999998</ele><time>2026-05-03T11:52:42Z</time></trkpt><trkpt lat="40.596046280739316" lon="8.330801413680582"><ele>14.0</ele><time>2026-05-03T11:52:43Z</time></trkpt><trkpt lat="40.59606519877406" lon="8.330922777608512"><ele>14.0</ele><time>2026-05-03T11:52:44Z</time></trkpt><trkpt lat="40.5960928469886" lon="8.331055660012781"><ele>13.799999999999999</ele><time>2026-05-03T11:52:45Z</time></trkpt><trkpt lat="40.596125105522844" lon="8.331194118638223"><ele>13.599999999999998</ele><time>2026-05-03T11:52:46Z</time></trkpt><trkpt lat="40.59616198712216" lon="8.33132889846978"><ele>13.4</ele><time>2026-05-03T11:52:47Z</time></trkpt><trkpt lat="40.59620628732087" lon="8.331469044993716"><ele>13.2</ele><time>2026-05-03T11:52:48Z</time></trkpt><trkpt lat="40.596244950810565" lon="8.331608087241518"><ele>13.0</ele><time>2026-05-03T11:52:49Z</time></trkpt><trkpt lat="40.596286909219906" lon="8.33175664952771"><ele>12.8</ele><time>2026-05-03T11:52:50Z</time></trkpt><trkpt lat="40.59632685893334" lon="8.331896113731686"><ele>12.600000000000001</ele><time>2026-05-03T11:52:51Z</time></trkpt><trkpt lat="40.59636742018713" lon="8.332039353098011"><ele>12.399999999999999</ele><time>2026-05-03T11:52:52Z</time></trkpt><trkpt lat="40.596403478772906" lon="8.332172605693984"><ele>12.2</ele><time>2026-05-03T11:52:53Z</time></trkpt><trkpt lat="40.59643510644955" lon="8.33230502914141"><ele>12.0</ele><time>2026-05-03T11:52:54Z</time></trkpt><trkpt lat="40.59646066790814" lon="8.332435259656721"><ele>12.0</ele><time>2026-05-03T11:52:55Z</time></trkpt><trkpt lat="40.59648124922013" lon="8.332565953165476"><ele>12.0</ele><time>2026-05-03T11:52:56Z</time></trkpt><trkpt lat="40.596499478883004" lon="8.332698929177905"><ele>12.0</ele><time>2026-05-03T11:52:57Z</time></trkpt><trkpt lat="40.596516708012054" lon="8.332823401139018"><ele>12.0</ele><time>2026-05-03T11:52:58Z</time></trkpt><trkpt lat="40.59654415232761" lon="8.332955250321897"><ele>12.0</ele><time>2026-05-03T11:52:59Z</time></trkpt><trkpt lat="40.59657507733053" lon="8.333088733049538"><ele>12.0</ele><time>2026-05-03T11:53:00Z</time></trkpt><trkpt lat="40.59660772934079" lon="8.333219347076403"><ele>12.0</ele><time>2026-05-03T11:53:01Z</time></trkpt><trkpt lat="40.59664450820081" lon="8.333344455482985"><ele>12.0</ele><time>2026-05-03T11:53:02Z</time></trkpt><trkpt lat="40.596682718192554" lon="8.333467076958144"><ele>12.0</ele><time>2026-05-03T11:53:03Z</time></trkpt><trkpt lat="40.59672359571729" lon="8.33359167993388"><ele>12.0</ele><time>2026-05-03T11:53:04Z</time></trkpt><trkpt lat="40.59676512555518" lon="8.333723334292813"><ele>12.0</ele><time>2026-05-03T11:53:05Z</time></trkpt><trkpt lat="40.596803263047875" lon="8.333856449791465"><ele>12.0</ele><time>2026-05-03T11:53:06Z</time></trkpt><trkpt lat="40.59684759466978" lon="8.334003327144709"><ele>12.0</ele><time>2026-05-03T11:53:07Z</time></trkpt><trkpt lat="40.59690002867248" lon="8.334164146140436"><ele>12.0</ele><time>2026-05-03T11:53:08Z</time></trkpt><trkpt lat="40.59695015499358" lon="8.334307263021396"><ele>12.2</ele><time>2026-05-03T11:53:09Z</time></trkpt><trkpt lat="40.59699244061063" lon="8.334436727350774"><ele>12.399999999999999</ele><time>2026-05-03T11:53:10Z</time></trkpt><trkpt lat="40.597036440106" lon="8.334565149526778"><ele>12.600000000000001</ele><time>2026-05-03T11:53:11Z</time></trkpt><trkpt lat="40.59707792716615" lon="8.334697540594547"><ele>12.8</ele><time>2026-05-03T11:53:12Z</time></trkpt><trkpt lat="40.59711192098805" lon="8.334823426368294"><ele>13.0</ele><time>2026-05-03T11:53:13Z</time></trkpt><trkpt lat="40.59714139183412" lon="8.334948257338638"><ele>13.499999999999998</ele><time>2026-05-03T11:53:14Z</time></trkpt><trkpt lat="40.59715552645406" lon="8.335065412318142"><ele>14.0</ele><time>2026-05-03T11:53:15Z</time></trkpt><trkpt lat="40.59716422612487" lon="8.335171007652333"><ele>14.5</ele><time>2026-05-03T11:53:16Z</time></trkpt><trkpt lat="40.597166085547165" lon="8.335268829783855"><ele>15.0</ele><time>2026-05-03T11:53:17Z</time></trkpt><trkpt lat="40.59716240604049" lon="8.335359115435844"><ele>15.499999999999998</ele><time>2026-05-03T11:53:18Z</time></trkpt><trkpt lat="40.59716271041416" lon="8.335512028821181"><ele>16.0</ele><time>2026-05-03T11:53:20Z</time></trkpt><trkpt lat="40.597168488220596" lon="8.335634120199204"><ele>16.5</ele><time>2026-05-03T11:53:22Z</time></trkpt><trkpt lat="40.59717564527973" lon="8.335741012582975"><ele>17.0</ele><time>2026-05-03T11:53:24Z</time></trkpt><trkpt lat="40.5971776985488" lon="8.335824313051045"><ele>17.5</ele><time>2026-05-03T11:53:26Z</time></trkpt><trkpt lat="40.597181126301855" lon="8.335952283179497"><ele>18.0</ele><time>2026-05-03T11:53:29Z</time></trkpt><trkpt lat="40.597179635469324" lon="8.336127562443107"><ele>18.5</ele><time>2026-05-03T11:53:31Z</time></trkpt><trkpt lat="40.597181351018236" lon="8.336210948723846"><ele>19.0</ele><time>2026-05-03T11:53:32Z</time></trkpt><trkpt lat="40.597194261212266" lon="8.336374481488031"><ele>19.0</ele><time>2026-05-03T11:53:34Z</time></trkpt><trkpt lat="40.59720160418131" lon="8.336459636181868"><ele>19.0</ele><time>2026-05-03T11:53:35Z</time></trkpt><trkpt lat="40.59721485535699" lon="8.33660119363403"><ele>19.0</ele><time>2026-05-03T11:53:37Z</time></trkpt><trkpt lat="40.59722611296444" lon="8.336731251868413"><ele>19.0</ele><time>2026-05-03T11:53:39Z</time></trkpt><trkpt lat="40.59721843149957" lon="8.33681381934521"><ele>19.0</ele><time>2026-05-03T11:53:41Z</time></trkpt><trkpt lat="40.597244310859146" lon="8.336909798058233"><ele>19.0</ele><time>2026-05-03T11:53:49Z</time></trkpt><trkpt lat="40.5972756658351" lon="8.337020408077516"><ele>19.0</ele><time>2026-05-03T11:53:51Z</time></trkpt><trkpt lat="40.597306350274934" lon="8.33714919963178"><ele>19.0</ele><time>2026-05-03T11:53:53Z</time></trkpt><trkpt lat="40.597343870726654" lon="8.33726314518839"><ele>19.0</ele><time>2026-05-03T11:53:55Z</time></trkpt><trkpt lat="40.597389590756954" lon="8.33739119326242"><ele>19.0</ele><time>2026-05-03T11:53:57Z</time></trkpt><trkpt lat="40.59744555635925" lon="8.337511669368514"><ele>19.0</ele><time>2026-05-03T11:53:59Z</time></trkpt><trkpt lat="40.59748812190133" lon="8.33761074589772"><ele>18.5</ele><time>2026-05-03T11:54:01Z</time></trkpt><trkpt lat="40.597400116805524" lon="8.337717274291178"><ele>18.0</ele><time>2026-05-03T11:54:05Z</time></trkpt><trkpt lat="40.597311518649825" lon="8.337810888951667"><ele>17.5</ele><time>2026-05-03T11:54:07Z</time></trkpt><trkpt lat="40.59722978512401" lon="8.33792538102381"><ele>17.0</ele><time>2026-05-03T11:54:09Z</time></trkpt><trkpt lat="40.59714463689237" lon="8.33801628670398"><ele>17.0</ele><time>2026-05-03T11:54:11Z</time></trkpt><trkpt lat="40.59706152493094" lon="8.338107419742478"><ele>17.0</ele><time>2026-05-03T11:54:13Z</time></trkpt><trkpt lat="40.597003883654324" lon="8.338171482615566"><ele>17.0</ele><time>2026-05-03T11:54:15Z</time></trkpt><trkpt lat="40.596946860668325" lon="8.338217009475226"><ele>17.0</ele><time>2026-05-03T11:54:18Z</time></trkpt><trkpt lat="40.596897801828256" lon="8.338282517114918"><ele>17.0</ele><time>2026-05-03T11:54:25Z</time></trkpt><trkpt lat="40.59704656558229" lon="8.338475482816106"><ele>17.0</ele><time>2026-05-03T11:54:26Z</time></trkpt><trkpt lat="40.59709745992832" lon="8.338418038769444"><ele>17.0</ele><time>2026-05-03T11:57:49.999Z</time></trkpt><trkpt lat="40.59712778445517" lon="8.338335820740506"><ele>17.0</ele><time>2026-05-03T11:58:47Z</time></trkpt></trkseg></trk></gpx>